<?xml version='1.0' encoding='UTF-8'?><gpx version="1.1" creator="JPX - https://github.com/jenetics/jpx" xmlns="http://www.topografix.com/GPX/1/1"><trk><trkseg><trkpt lat="42.5217783" lon="14.1524"><ele>-0.8333333333333333</ele><time>2026-05-02T06:00:08.719Z</time></trkpt><trkpt lat="42.5217317" lon="14.152335"><ele>-0.6666666666666666</ele><time>2026-05-02T06:00:10.719Z</time></trkpt><trkpt lat="42.52169" lon="14.152255"><ele>-0.5</ele><time>2026-05-02T06:00:12.718Z</time></trkpt><trkpt lat="42.5216917" lon="14.15215"><ele>-0.3333333333333333</ele><time>2026-05-02T06:00:15.718Z</time></trkpt><trkpt lat="42.52178" lon="14.1521833"><ele>-0.16666666666666666</ele><time>2026-05-02T06:00:18.719Z</time></trkpt><trkpt lat="42.5218283" lon="14.1522617"><ele>0.0</ele><time>2026-05-02T06:00:20.719Z</time></trkpt><trkpt lat="42.521865" lon="14.1523383"><ele>-0.2</ele><time>2026-05-02T06:00:22.719Z</time></trkpt><trkpt lat="42.5219033" lon="14.152425"><ele>-0.4</ele><time>2026-05-02T06:00:25.719Z</time></trkpt><trkpt lat="42.5219333" lon="14.1525167"><ele>-0.6000000000000001</ele><time>2026-05-02T06:00:29.719Z</time></trkpt><trkpt lat="42.5219933" lon="14.15263"><ele>-0.8</ele><time>2026-05-02T06:00:47.718Z</time></trkpt><trkpt lat="42.5220483" lon="14.15276"><ele>-1.0</ele><time>2026-05-02T06:00:49.719Z</time></trkpt><trkpt lat="42.52212" lon="14.1529233"><ele>-0.49999999999999994</ele><time>2026-05-02T06:00:51.719Z</time></trkpt><trkpt lat="42.52216" lon="14.1530083"><ele>0.0</ele><time>2026-05-02T06:00:52.717Z</time></trkpt><trkpt lat="42.5222017" lon="14.15309"><ele>0.5</ele><time>2026-05-02T06:00:53.717Z</time></trkpt><trkpt lat="42.5222633" lon="14.15321"><ele>1.0</ele><time>2026-05-02T06:00:55.717Z</time></trkpt><trkpt lat="42.5222933" lon="14.1532883"><ele>1.4999999999999998</ele><time>2026-05-02T06:00:57.718Z</time></trkpt><trkpt lat="42.5222567" lon="14.1533683"><ele>2.0</ele><time>2026-05-02T06:00:59.718Z</time></trkpt><trkpt lat="42.5221517" lon="14.15345"><ele>1.6666666666666665</ele><time>2026-05-02T06:01:01.718Z</time></trkpt><trkpt lat="42.5220617" lon="14.15353"><ele>1.3333333333333333</ele><time>2026-05-02T06:01:03.717Z</time></trkpt><trkpt lat="42.5219833" lon="14.1535983"><ele>1.0</ele><time>2026-05-02T06:01:05.717Z</time></trkpt><trkpt lat="42.52192" lon="14.153595"><ele>0.6666666666666666</ele><time>2026-05-02T06:01:07.717Z</time></trkpt><trkpt lat="42.5218533" lon="14.1534917"><ele>0.3333333333333333</ele><time>2026-05-02T06:01:09.717Z</time></trkpt><trkpt lat="42.52182" lon="14.1534"><ele>0.0</ele><time>2026-05-02T06:01:10.718Z</time></trkpt><trkpt lat="42.5217883" lon="14.153305"><ele>0.0</ele><time>2026-05-02T06:01:11.718Z</time></trkpt><trkpt lat="42.5217533" lon="14.15321"><ele>0.0</ele><time>2026-05-02T06:01:12.718Z</time></trkpt><trkpt lat="42.52171" lon="14.1531"><ele>0.0</ele><time>2026-05-02T06:01:13.717Z</time></trkpt><trkpt lat="42.5216683" lon="14.1529767"><ele>0.0</ele><time>2026-05-02T06:01:14.718Z</time></trkpt><trkpt lat="42.5216233" lon="14.1528583"><ele>0.0</ele><time>2026-05-02T06:01:15.718Z</time></trkpt><trkpt lat="42.5215767" lon="14.1527367"><ele>0.0</ele><time>2026-05-02T06:01:16.717Z</time></trkpt><trkpt lat="42.5215317" lon="14.152615"><ele>0.0</ele><time>2026-05-02T06:01:17.718Z</time></trkpt><trkpt lat="42.5214917" lon="14.1524917"><ele>0.0</ele><time>2026-05-02T06:01:18.717Z</time></trkpt><trkpt lat="42.521445" lon="14.15237"><ele>0.0</ele><time>2026-05-02T06:01:19.717Z</time></trkpt><trkpt lat="42.5214033" lon="14.15224"><ele>0.0</ele><time>2026-05-02T06:01:20.718Z</time></trkpt><trkpt lat="42.521365" lon="14.15212"><ele>0.0</ele><time>2026-05-02T06:01:21.718Z</time></trkpt><trkpt lat="42.5213217" lon="14.1520033"><ele>0.0</ele><time>2026-05-02T06:01:22.717Z</time></trkpt><trkpt lat="42.5212767" lon="14.1518683"><ele>0.0</ele><time>2026-05-02T06:01:23.717Z</time></trkpt><trkpt lat="42.5212333" lon="14.1517333"><ele>0.0</ele><time>2026-05-02T06:01:24.718Z</time></trkpt><trkpt lat="42.521185" lon="14.1515983"><ele>0.0</ele><time>2026-05-02T06:01:25.718Z</time></trkpt><trkpt lat="42.52114" lon="14.1514617"><ele>0.5</ele><time>2026-05-02T06:01:26.718Z</time></trkpt><trkpt lat="42.5210933" lon="14.151315"><ele>1.0</ele><time>2026-05-02T06:01:27.717Z</time></trkpt><trkpt lat="42.521045" lon="14.1511633"><ele>1.5</ele><time>2026-05-02T06:01:28.717Z</time></trkpt><trkpt lat="42.5209933" lon="14.1510117"><ele>2.0</ele><time>2026-05-02T06:01:29.718Z</time></trkpt><trkpt lat="42.5209383" lon="14.15086"><ele>2.25</ele><time>2026-05-02T06:01:30.717Z</time></trkpt><trkpt lat="42.5208783" lon="14.1507017"><ele>2.5</ele><time>2026-05-02T06:01:31.718Z</time></trkpt><trkpt lat="42.5208233" lon="14.150555"><ele>2.75</ele><time>2026-05-02T06:01:32.717Z</time></trkpt><trkpt lat="42.5207733" lon="14.1504033"><ele>3.0</ele><time>2026-05-02T06:01:33.718Z</time></trkpt><trkpt lat="42.5207283" lon="14.150245"><ele>3.0</ele><time>2026-05-02T06:01:34.718Z</time></trkpt><trkpt lat="42.5206783" lon="14.1501"><ele>3.0</ele><time>2026-05-02T06:01:35.718Z</time></trkpt><trkpt lat="42.520625" lon="14.1499483"><ele>3.0</ele><time>2026-05-02T06:01:36.718Z</time></trkpt><trkpt lat="42.5205683" lon="14.1497933"><ele>3.0</ele><time>2026-05-02T06:01:37.718Z</time></trkpt><trkpt lat="42.5205133" lon="14.1496417"><ele>2.75</ele><time>2026-05-02T06:01:38.717Z</time></trkpt><trkpt lat="42.5204583" lon="14.14949"><ele>2.5</ele><time>2026-05-02T06:01:39.718Z</time></trkpt><trkpt lat="42.5204083" lon="14.1493367"><ele>2.25</ele><time>2026-05-02T06:01:40.717Z</time></trkpt><trkpt lat="42.52036" lon="14.1491933"><ele>2.0</ele><time>2026-05-02T06:01:41.718Z</time></trkpt><trkpt lat="42.520305" lon="14.1490417"><ele>2.0</ele><time>2026-05-02T06:01:42.718Z</time></trkpt><trkpt lat="42.5202533" lon="14.1488883"><ele>2.0</ele><time>2026-05-02T06:01:43.718Z</time></trkpt><trkpt lat="42.5201967" lon="14.1487367"><ele>2.0</ele><time>2026-05-02T06:01:44.718Z</time></trkpt><trkpt lat="42.52014" lon="14.14858"><ele>2.0</ele><time>2026-05-02T06:01:45.717Z</time></trkpt><trkpt lat="42.5200817" lon="14.1484283"><ele>2.0</ele><time>2026-05-02T06:01:46.717Z</time></trkpt><trkpt lat="42.5200167" lon="14.1482733"><ele>2.0</ele><time>2026-05-02T06:01:47.718Z</time></trkpt><trkpt lat="42.5199533" lon="14.1481233"><ele>2.0</ele><time>2026-05-02T06:01:48.717Z</time></trkpt><trkpt lat="42.5198867" lon="14.1479967"><ele>2.0</ele><time>2026-05-02T06:01:49.717Z</time></trkpt><trkpt lat="42.5198183" lon="14.147865"><ele>2.1666666666666665</ele><time>2026-05-02T06:01:50.717Z</time></trkpt><trkpt lat="42.51975" lon="14.1477617"><ele>2.333333333333333</ele><time>2026-05-02T06:01:51.718Z</time></trkpt><trkpt lat="42.5196833" lon="14.1476683"><ele>2.5</ele><time>2026-05-02T06:01:52.718Z</time></trkpt><trkpt lat="42.519635" lon="14.1475733"><ele>2.6666666666666665</ele><time>2026-05-02T06:01:53.717Z</time></trkpt><trkpt lat="42.519585" lon="14.1474833"><ele>2.8333333333333335</ele><time>2026-05-02T06:01:54.717Z</time></trkpt><trkpt lat="42.5195433" lon="14.1473917"><ele>3.0</ele><time>2026-05-02T06:01:55.717Z</time></trkpt><trkpt lat="42.519505" lon="14.1472917"><ele>3.0</ele><time>2026-05-02T06:01:56.717Z</time></trkpt><trkpt lat="42.519485" lon="14.1471883"><ele>3.0</ele><time>2026-05-02T06:01:57.718Z</time></trkpt><trkpt lat="42.51947" lon="14.147085"><ele>3.0</ele><time>2026-05-02T06:01:58.717Z</time></trkpt><trkpt lat="42.5194517" lon="14.14697"><ele>3.0</ele><time>2026-05-02T06:01:59.718Z</time></trkpt><trkpt lat="42.5194633" lon="14.1468267"><ele>3.0</ele><time>2026-05-02T06:02:00.717Z</time></trkpt><trkpt lat="42.5194733" lon="14.1466967"><ele>3.0</ele><time>2026-05-02T06:02:01.717Z</time></trkpt><trkpt lat="42.5194917" lon="14.1465833"><ele>3.0</ele><time>2026-05-02T06:02:02.718Z</time></trkpt><trkpt lat="42.5195117" lon="14.1464817"><ele>3.0</ele><time>2026-05-02T06:02:03.718Z</time></trkpt><trkpt lat="42.5195383" lon="14.14639"><ele>3.0</ele><time>2026-05-02T06:02:04.717Z</time></trkpt><trkpt lat="42.51957" lon="14.146305"><ele>3.0</ele><time>2026-05-02T06:02:05.717Z</time></trkpt><trkpt lat="42.5196033" lon="14.1462283"><ele>3.0</ele><time>2026-05-02T06:02:06.718Z</time></trkpt><trkpt lat="42.5196667" lon="14.1461217"><ele>3.0</ele><time>2026-05-02T06:02:08.717Z</time></trkpt><trkpt lat="42.5196867" lon="14.1460133"><ele>3.0</ele><time>2026-05-02T06:02:10.717Z</time></trkpt><trkpt lat="42.5196233" lon="14.145895"><ele>3.0</ele><time>2026-05-02T06:02:12.717Z</time></trkpt><trkpt lat="42.5195" lon="14.1458"><ele>3.0</ele><time>2026-05-02T06:02:14.718Z</time></trkpt><trkpt lat="42.5194117" lon="14.14574"><ele>3.0</ele><time>2026-05-02T06:02:15.717Z</time></trkpt><trkpt lat="42.5193133" lon="14.1456817"><ele>3.0</ele><time>2026-05-02T06:02:16.717Z</time></trkpt><trkpt lat="42.51922" lon="14.1456217"><ele>3.0</ele><time>2026-05-02T06:02:17.718Z</time></trkpt><trkpt lat="42.5191167" lon="14.1455533"><ele>3.0</ele><time>2026-05-02T06:02:18.717Z</time></trkpt><trkpt lat="42.5190067" lon="14.1454783"><ele>3.0</ele><time>2026-05-02T06:02:19.717Z</time></trkpt><trkpt lat="42.518895" lon="14.145405"><ele>3.0</ele><time>2026-05-02T06:02:20.717Z</time></trkpt><trkpt lat="42.5187833" lon="14.14532"><ele>3.0</ele><time>2026-05-02T06:02:21.718Z</time></trkpt><trkpt lat="42.5186733" lon="14.1452367"><ele>3.0</ele><time>2026-05-02T06:02:22.718Z</time></trkpt><trkpt lat="42.5185567" lon="14.1451517"><ele>3.0</ele><time>2026-05-02T06:02:23.717Z</time></trkpt><trkpt lat="42.5184433" lon="14.1450717"><ele>3.0</ele><time>2026-05-02T06:02:24.717Z</time></trkpt><trkpt lat="42.51832" lon="14.144985"><ele>3.0</ele><time>2026-05-02T06:02:25.718Z</time></trkpt><trkpt lat="42.5182017" lon="14.1449033"><ele>3.0</ele><time>2026-05-02T06:02:26.717Z</time></trkpt><trkpt lat="42.5180817" lon="14.1448167"><ele>3.0</ele><time>2026-05-02T06:02:27.718Z</time></trkpt><trkpt lat="42.5179567" lon="14.144735"><ele>3.0</ele><time>2026-05-02T06:02:28.718Z</time></trkpt><trkpt lat="42.5178367" lon="14.14465"><ele>3.0</ele><time>2026-05-02T06:02:29.718Z</time></trkpt><trkpt lat="42.5177133" lon="14.1445683"><ele>3.0</ele><time>2026-05-02T06:02:30.717Z</time></trkpt><trkpt lat="42.5175967" lon="14.1444833"><ele>3.0</ele><time>2026-05-02T06:02:31.718Z</time></trkpt><trkpt lat="42.51748" lon="14.1444017"><ele>3.0</ele><time>2026-05-02T06:02:32.717Z</time></trkpt><trkpt lat="42.5173617" lon="14.1443167"><ele>3.0</ele><time>2026-05-02T06:02:33.717Z</time></trkpt><trkpt lat="42.517245" lon="14.14423"><ele>3.0</ele><time>2026-05-02T06:02:34.718Z</time></trkpt><trkpt lat="42.5171283" lon="14.1441417"><ele>3.0</ele><time>2026-05-02T06:02:35.718Z</time></trkpt><trkpt lat="42.5170133" lon="14.14405"><ele>3.75</ele><time>2026-05-02T06:02:36.718Z</time></trkpt><trkpt lat="42.5168933" lon="14.1439583"><ele>4.5</ele><time>2026-05-02T06:02:37.718Z</time></trkpt><trkpt lat="42.5167767" lon="14.14387"><ele>5.25</ele><time>2026-05-02T06:02:38.717Z</time></trkpt><trkpt lat="42.516655" lon="14.1437817"><ele>6.0</ele><time>2026-05-02T06:02:39.717Z</time></trkpt><trkpt lat="42.5165383" lon="14.1436917"><ele>6.0</ele><time>2026-05-02T06:02:40.717Z</time></trkpt><trkpt lat="42.5164167" lon="14.143605"><ele>6.0</ele><time>2026-05-02T06:02:41.718Z</time></trkpt><trkpt lat="42.5162983" lon="14.1435267"><ele>6.0</ele><time>2026-05-02T06:02:42.718Z</time></trkpt><trkpt lat="42.5161733" lon="14.1434517"><ele>6.0</ele><time>2026-05-02T06:02:43.717Z</time></trkpt><trkpt lat="42.5160567" lon="14.1433733"><ele>5.5</ele><time>2026-05-02T06:02:44.718Z</time></trkpt><trkpt lat="42.5159433" lon="14.1432883"><ele>5.0</ele><time>2026-05-02T06:02:45.718Z</time></trkpt><trkpt lat="42.5158283" lon="14.1432033"><ele>4.5</ele><time>2026-05-02T06:02:46.718Z</time></trkpt><trkpt lat="42.5157167" lon="14.143115"><ele>4.0</ele><time>2026-05-02T06:02:47.718Z</time></trkpt><trkpt lat="42.5155933" lon="14.143035"><ele>3.75</ele><time>2026-05-02T06:02:48.717Z</time></trkpt><trkpt lat="42.515475" lon="14.1429533"><ele>3.5</ele><time>2026-05-02T06:02:49.717Z</time></trkpt><trkpt lat="42.5153583" lon="14.1428733"><ele>3.25</ele><time>2026-05-02T06:02:50.718Z</time></trkpt><trkpt lat="42.5152417" lon="14.14279"><ele>3.0</ele><time>2026-05-02T06:02:51.718Z</time></trkpt><trkpt lat="42.5151367" lon="14.1427117"><ele>2.8</ele><time>2026-05-02T06:02:52.717Z</time></trkpt><trkpt lat="42.5150417" lon="14.1426383"><ele>2.5999999999999996</ele><time>2026-05-02T06:02:53.718Z</time></trkpt><trkpt lat="42.5149483" lon="14.1425583"><ele>2.4000000000000004</ele><time>2026-05-02T06:02:54.717Z</time></trkpt><trkpt lat="42.5148533" lon="14.1424867"><ele>2.2</ele><time>2026-05-02T06:02:55.717Z</time></trkpt><trkpt lat="42.5147633" lon="14.1424217"><ele>2.0</ele><time>2026-05-02T06:02:56.718Z</time></trkpt><trkpt lat="42.5146833" lon="14.1423683"><ele>1.8333333333333333</ele><time>2026-05-02T06:02:57.717Z</time></trkpt><trkpt lat="42.51462" lon="14.1423233"><ele>1.6666666666666665</ele><time>2026-05-02T06:02:58.718Z</time></trkpt><trkpt lat="42.5145383" lon="14.1422633"><ele>1.5</ele><time>2026-05-02T06:03:00.718Z</time></trkpt><trkpt lat="42.5144517" lon="14.1422067"><ele>1.3333333333333333</ele><time>2026-05-02T06:03:02.718Z</time></trkpt><trkpt lat="42.5143917" lon="14.1421583"><ele>1.1666666666666665</ele><time>2026-05-02T06:03:03.717Z</time></trkpt><trkpt lat="42.5143183" lon="14.1421083"><ele>1.0</ele><time>2026-05-02T06:03:04.718Z</time></trkpt><trkpt lat="42.5142367" lon="14.1420383"><ele>1.4</ele><time>2026-05-02T06:03:05.717Z</time></trkpt><trkpt lat="42.51415" lon="14.1419733"><ele>1.8</ele><time>2026-05-02T06:03:06.717Z</time></trkpt><trkpt lat="42.514065" lon="14.141915"><ele>2.1999999999999997</ele><time>2026-05-02T06:03:07.717Z</time></trkpt><trkpt lat="42.5139783" lon="14.1418517"><ele>2.6</ele><time>2026-05-02T06:03:08.718Z</time></trkpt><trkpt lat="42.5138933" lon="14.141785"><ele>3.0</ele><time>2026-05-02T06:03:09.717Z</time></trkpt><trkpt lat="42.513805" lon="14.1417217"><ele>3.5999999999999996</ele><time>2026-05-02T06:03:10.718Z</time></trkpt><trkpt lat="42.513715" lon="14.141655"><ele>4.199999999999999</ele><time>2026-05-02T06:03:11.717Z</time></trkpt><trkpt lat="42.5136267" lon="14.141595"><ele>4.8</ele><time>2026-05-02T06:03:12.718Z</time></trkpt><trkpt lat="42.513535" lon="14.1415233"><ele>5.3999999999999995</ele><time>2026-05-02T06:03:13.718Z</time></trkpt><trkpt lat="42.513445" lon="14.1414583"><ele>6.0</ele><time>2026-05-02T06:03:14.717Z</time></trkpt><trkpt lat="42.5133533" lon="14.141395"><ele>6.0</ele><time>2026-05-02T06:03:15.718Z</time></trkpt><trkpt lat="42.513265" lon="14.141335"><ele>6.0</ele><time>2026-05-02T06:03:16.717Z</time></trkpt><trkpt lat="42.513185" lon="14.1412717"><ele>6.0</ele><time>2026-05-02T06:03:17.718Z</time></trkpt><trkpt lat="42.5131167" lon="14.1412033"><ele>6.0</ele><time>2026-05-02T06:03:18.717Z</time></trkpt><trkpt lat="42.5130617" lon="14.1411333"><ele>6.0</ele><time>2026-05-02T06:03:19.717Z</time></trkpt><trkpt lat="42.5129983" lon="14.1410483"><ele>6.0</ele><time>2026-05-02T06:03:20.718Z</time></trkpt><trkpt lat="42.5129417" lon="14.1409483"><ele>6.0</ele><time>2026-05-02T06:03:21.717Z</time></trkpt><trkpt lat="42.51291" lon="14.1408417"><ele>6.0</ele><time>2026-05-02T06:03:22.717Z</time></trkpt><trkpt lat="42.5128767" lon="14.1407167"><ele>6.0</ele><time>2026-05-02T06:03:23.718Z</time></trkpt><trkpt lat="42.5128533" lon="14.14058"><ele>6.0</ele><time>2026-05-02T06:03:24.718Z</time></trkpt><trkpt lat="42.5128517" lon="14.1404417"><ele>6.0</ele><time>2026-05-02T06:03:25.718Z</time></trkpt><trkpt lat="42.512865" lon="14.140305"><ele>6.0</ele><time>2026-05-02T06:03:26.718Z</time></trkpt><trkpt lat="42.5128933" lon="14.1401583"><ele>6.0</ele><time>2026-05-02T06:03:27.718Z</time></trkpt><trkpt lat="42.512935" lon="14.140005"><ele>6.0</ele><time>2026-05-02T06:03:28.717Z</time></trkpt><trkpt lat="42.512995" lon="14.1398633"><ele>6.0</ele><time>2026-05-02T06:03:29.718Z</time></trkpt><trkpt lat="42.51305" lon="14.1397117"><ele>6.25</ele><time>2026-05-02T06:03:30.717Z</time></trkpt><trkpt lat="42.5131067" lon="14.1395617"><ele>6.5</ele><time>2026-05-02T06:03:31.718Z</time></trkpt><trkpt lat="42.513165" lon="14.1394117"><ele>6.75</ele><time>2026-05-02T06:03:32.717Z</time></trkpt><trkpt lat="42.51322" lon="14.13926"><ele>7.0</ele><time>2026-05-02T06:03:33.717Z</time></trkpt><trkpt lat="42.5132767" lon="14.1391083"><ele>6.5</ele><time>2026-05-02T06:03:34.718Z</time></trkpt><trkpt lat="42.51334" lon="14.1389583"><ele>6.0</ele><time>2026-05-02T06:03:35.718Z</time></trkpt><trkpt lat="42.5134033" lon="14.138805"><ele>5.5</ele><time>2026-05-02T06:03:36.718Z</time></trkpt><trkpt lat="42.5134667" lon="14.1386517"><ele>5.0</ele><time>2026-05-02T06:03:37.718Z</time></trkpt><trkpt lat="42.5135283" lon="14.1385033"><ele>5.0</ele><time>2026-05-02T06:03:38.718Z</time></trkpt><trkpt lat="42.51358" lon="14.1383517"><ele>5.0</ele><time>2026-05-02T06:03:39.718Z</time></trkpt><trkpt lat="42.513635" lon="14.1382017"><ele>5.0</ele><time>2026-05-02T06:03:40.717Z</time></trkpt><trkpt lat="42.51369" lon="14.1380617"><ele>5.0</ele><time>2026-05-02T06:03:41.718Z</time></trkpt><trkpt lat="42.5137433" lon="14.1379333"><ele>5.166666666666667</ele><time>2026-05-02T06:03:42.718Z</time></trkpt><trkpt lat="42.5137933" lon="14.1378233"><ele>5.333333333333334</ele><time>2026-05-02T06:03:43.718Z</time></trkpt><trkpt lat="42.51384" lon="14.13773"><ele>5.5</ele><time>2026-05-02T06:03:44.718Z</time></trkpt><trkpt lat="42.5138817" lon="14.1376483"><ele>5.666666666666667</ele><time>2026-05-02T06:03:45.717Z</time></trkpt><trkpt lat="42.5139167" lon="14.13757"><ele>5.833333333333333</ele><time>2026-05-02T06:03:46.717Z</time></trkpt><trkpt lat="42.51391" lon="14.1374283"><ele>6.0</ele><time>2026-05-02T06:03:48.718Z</time></trkpt><trkpt lat="42.5137867" lon="14.1373217"><ele>5.6</ele><time>2026-05-02T06:03:50.718Z</time></trkpt><trkpt lat="42.5137083" lon="14.1372483"><ele>5.199999999999999</ele><time>2026-05-02T06:03:51.718Z</time></trkpt><trkpt lat="42.5136467" lon="14.1371433"><ele>4.800000000000001</ele><time>2026-05-02T06:03:52.718Z</time></trkpt><trkpt lat="42.5135933" lon="14.1370217"><ele>4.4</ele><time>2026-05-02T06:03:53.718Z</time></trkpt><trkpt lat="42.5135483" lon="14.13688"><ele>4.0</ele><time>2026-05-02T06:03:54.718Z</time></trkpt><trkpt lat="42.5135" lon="14.136715"><ele>3.75</ele><time>2026-05-02T06:03:55.718Z</time></trkpt><trkpt lat="42.5134583" lon="14.1365417"><ele>3.5</ele><time>2026-05-02T06:03:56.718Z</time></trkpt><trkpt lat="42.5134183" lon="14.1363667"><ele>3.25</ele><time>2026-05-02T06:03:57.718Z</time></trkpt><trkpt lat="42.5133783" lon="14.1361883"><ele>3.0</ele><time>2026-05-02T06:03:58.717Z</time></trkpt><trkpt lat="42.5133267" lon="14.1360117"><ele>3.0</ele><time>2026-05-02T06:03:59.718Z</time></trkpt><trkpt lat="42.5132683" lon="14.135835"><ele>3.0</ele><time>2026-05-02T06:04:00.717Z</time></trkpt><trkpt lat="42.5131983" lon="14.13567"><ele>3.0</ele><time>2026-05-02T06:04:01.718Z</time></trkpt><trkpt lat="42.5131167" lon="14.1355167"><ele>3.0</ele><time>2026-05-02T06:04:02.718Z</time></trkpt><trkpt lat="42.5130217" lon="14.1353683"><ele>3.0</ele><time>2026-05-02T06:04:03.718Z</time></trkpt><trkpt lat="42.5129167" lon="14.1352417"><ele>3.0</ele><time>2026-05-02T06:04:04.717Z</time></trkpt><trkpt lat="42.512805" lon="14.1351267"><ele>3.0</ele><time>2026-05-02T06:04:05.717Z</time></trkpt><trkpt lat="42.5126833" lon="14.135025"><ele>3.0</ele><time>2026-05-02T06:04:06.717Z</time></trkpt><trkpt lat="42.5125533" lon="14.1349317"><ele>2.5</ele><time>2026-05-02T06:04:07.717Z</time></trkpt><trkpt lat="42.5124267" lon="14.13484"><ele>2.0</ele><time>2026-05-02T06:04:08.718Z</time></trkpt><trkpt lat="42.5123" lon="14.1347517"><ele>1.5</ele><time>2026-05-02T06:04:09.717Z</time></trkpt><trkpt lat="42.5121667" lon="14.13466"><ele>1.0</ele><time>2026-05-02T06:04:10.718Z</time></trkpt><trkpt lat="42.5120283" lon="14.1345633"><ele>2.3333333333333335</ele><time>2026-05-02T06:04:11.717Z</time></trkpt><trkpt lat="42.511895" lon="14.1344517"><ele>3.666666666666667</ele><time>2026-05-02T06:04:12.718Z</time></trkpt><trkpt lat="42.5117733" lon="14.1343317"><ele>5.0</ele><time>2026-05-02T06:04:13.718Z</time></trkpt><trkpt lat="42.51167" lon="14.13419"><ele>5.0</ele><time>2026-05-02T06:04:14.718Z</time></trkpt><trkpt lat="42.51159" lon="14.1340433"><ele>5.0</ele><time>2026-05-02T06:04:15.717Z</time></trkpt><trkpt lat="42.511515" lon="14.1338767"><ele>5.0</ele><time>2026-05-02T06:04:16.717Z</time></trkpt><trkpt lat="42.51143" lon="14.133705"><ele>5.0</ele><time>2026-05-02T06:04:17.718Z</time></trkpt><trkpt lat="42.5113383" lon="14.1335333"><ele>5.333333333333334</ele><time>2026-05-02T06:04:18.718Z</time></trkpt><trkpt lat="42.5112383" lon="14.1333667"><ele>5.666666666666667</ele><time>2026-05-02T06:04:19.718Z</time></trkpt><trkpt lat="42.511135" lon="14.1332017"><ele>6.0</ele><time>2026-05-02T06:04:20.717Z</time></trkpt><trkpt lat="42.511035" lon="14.1330333"><ele>6.0</ele><time>2026-05-02T06:04:21.718Z</time></trkpt><trkpt lat="42.5109367" lon="14.1328617"><ele>6.0</ele><time>2026-05-02T06:04:22.717Z</time></trkpt><trkpt lat="42.5108417" lon="14.132685"><ele>6.0</ele><time>2026-05-02T06:04:23.718Z</time></trkpt><trkpt lat="42.5107467" lon="14.1325067"><ele>5.333333333333333</ele><time>2026-05-02T06:04:24.717Z</time></trkpt><trkpt lat="42.5106533" lon="14.1323267"><ele>4.666666666666666</ele><time>2026-05-02T06:04:25.717Z</time></trkpt><trkpt lat="42.5105617" lon="14.13214"><ele>4.0</ele><time>2026-05-02T06:04:26.717Z</time></trkpt><trkpt lat="42.5104683" lon="14.1319567"><ele>4.333333333333333</ele><time>2026-05-02T06:04:27.718Z</time></trkpt><trkpt lat="42.51037" lon="14.1317833"><ele>4.666666666666667</ele><time>2026-05-02T06:04:28.717Z</time></trkpt><trkpt lat="42.5102733" lon="14.1316067"><ele>5.0</ele><time>2026-05-02T06:04:29.717Z</time></trkpt><trkpt lat="42.5101783" lon="14.1314383"><ele>5.0</ele><time>2026-05-02T06:04:30.718Z</time></trkpt><trkpt lat="42.5100783" lon="14.1312617"><ele>5.0</ele><time>2026-05-02T06:04:31.718Z</time></trkpt><trkpt lat="42.50997" lon="14.1310933"><ele>5.0</ele><time>2026-05-02T06:04:32.718Z</time></trkpt><trkpt lat="42.5098583" lon="14.1309217"><ele>5.0</ele><time>2026-05-02T06:04:33.717Z</time></trkpt><trkpt lat="42.5097467" lon="14.1307617"><ele>5.0</ele><time>2026-05-02T06:04:34.717Z</time></trkpt><trkpt lat="42.5096467" lon="14.13061"><ele>5.0</ele><time>2026-05-02T06:04:35.717Z</time></trkpt><trkpt lat="42.5095483" lon="14.1304667"><ele>5.5</ele><time>2026-05-02T06:04:36.717Z</time></trkpt><trkpt lat="42.5094517" lon="14.1303267"><ele>6.0</ele><time>2026-05-02T06:04:37.718Z</time></trkpt><trkpt lat="42.5093617" lon="14.1301967"><ele>6.5</ele><time>2026-05-02T06:04:38.718Z</time></trkpt><trkpt lat="42.5092767" lon="14.13008"><ele>7.0</ele><time>2026-05-02T06:04:39.718Z</time></trkpt><trkpt lat="42.5092" lon="14.129965"><ele>6.666666666666667</ele><time>2026-05-02T06:04:40.717Z</time></trkpt><trkpt lat="42.5091383" lon="14.12986"><ele>6.333333333333334</ele><time>2026-05-02T06:04:41.717Z</time></trkpt><trkpt lat="42.509095" lon="14.1297633"><ele>6.0</ele><time>2026-05-02T06:04:42.717Z</time></trkpt><trkpt lat="42.5090667" lon="14.1296467"><ele>5.666666666666667</ele><time>2026-05-02T06:04:43.717Z</time></trkpt><trkpt lat="42.5090383" lon="14.1295383"><ele>5.333333333333334</ele><time>2026-05-02T06:04:44.717Z</time></trkpt><trkpt lat="42.509005" lon="14.129445"><ele>5.0</ele><time>2026-05-02T06:04:45.717Z</time></trkpt><trkpt lat="42.508945" lon="14.1293733"><ele>5.0</ele><time>2026-05-02T06:04:46.718Z</time></trkpt><trkpt lat="42.5088667" lon="14.1293017"><ele>5.0</ele><time>2026-05-02T06:04:47.717Z</time></trkpt><trkpt lat="42.50877" lon="14.1292117"><ele>5.0</ele><time>2026-05-02T06:04:48.717Z</time></trkpt><trkpt lat="42.508675" lon="14.1290933"><ele>5.0</ele><time>2026-05-02T06:04:49.717Z</time></trkpt><trkpt lat="42.50859" lon="14.12896"><ele>5.25</ele><time>2026-05-02T06:04:50.718Z</time></trkpt><trkpt lat="42.5085117" lon="14.128815"><ele>5.5</ele><time>2026-05-02T06:04:51.717Z</time></trkpt><trkpt lat="42.5084283" lon="14.1286583"><ele>5.75</ele><time>2026-05-02T06:04:52.718Z</time></trkpt><trkpt lat="42.508335" lon="14.1284933"><ele>6.0</ele><time>2026-05-02T06:04:53.717Z</time></trkpt><trkpt lat="42.5082417" lon="14.128325"><ele>5.666666666666667</ele><time>2026-05-02T06:04:54.718Z</time></trkpt><trkpt lat="42.50815" lon="14.12816"><ele>5.333333333333334</ele><time>2026-05-02T06:04:55.718Z</time></trkpt><trkpt lat="42.5080567" lon="14.12799"><ele>5.0</ele><time>2026-05-02T06:04:56.718Z</time></trkpt><trkpt lat="42.5079567" lon="14.12782"><ele>5.666666666666667</ele><time>2026-05-02T06:04:57.717Z</time></trkpt><trkpt lat="42.50786" lon="14.1276483"><ele>6.333333333333334</ele><time>2026-05-02T06:04:58.717Z</time></trkpt><trkpt lat="42.5077583" lon="14.1274733"><ele>7.0</ele><time>2026-05-02T06:04:59.718Z</time></trkpt><trkpt lat="42.5076633" lon="14.1273"><ele>7.333333333333334</ele><time>2026-05-02T06:05:00.718Z</time></trkpt><trkpt lat="42.5075617" lon="14.12712"><ele>7.666666666666666</ele><time>2026-05-02T06:05:01.718Z</time></trkpt><trkpt lat="42.5074667" lon="14.12694"><ele>8.0</ele><time>2026-05-02T06:05:02.718Z</time></trkpt><trkpt lat="42.5073617" lon="14.1267567"><ele>8.0</ele><time>2026-05-02T06:05:03.717Z</time></trkpt><trkpt lat="42.50726" lon="14.126575"><ele>8.0</ele><time>2026-05-02T06:05:04.717Z</time></trkpt><trkpt lat="42.5071533" lon="14.126395"><ele>8.0</ele><time>2026-05-02T06:05:05.717Z</time></trkpt><trkpt lat="42.50705" lon="14.126215"><ele>8.0</ele><time>2026-05-02T06:05:06.717Z</time></trkpt><trkpt lat="42.5069383" lon="14.1260383"><ele>8.0</ele><time>2026-05-02T06:05:07.717Z</time></trkpt><trkpt lat="42.50683" lon="14.125865"><ele>8.0</ele><time>2026-05-02T06:05:08.718Z</time></trkpt><trkpt lat="42.5067183" lon="14.125695"><ele>8.0</ele><time>2026-05-02T06:05:09.718Z</time></trkpt><trkpt lat="42.5066033" lon="14.1255283"><ele>8.0</ele><time>2026-05-02T06:05:10.717Z</time></trkpt><trkpt lat="42.50649" lon="14.1253683"><ele>8.0</ele><time>2026-05-02T06:05:11.718Z</time></trkpt><trkpt lat="42.5063733" lon="14.125205"><ele>8.0</ele><time>2026-05-02T06:05:12.717Z</time></trkpt><trkpt lat="42.506255" lon="14.1250467"><ele>8.0</ele><time>2026-05-02T06:05:13.718Z</time></trkpt><trkpt lat="42.506135" lon="14.1249"><ele>8.0</ele><time>2026-05-02T06:05:14.718Z</time></trkpt><trkpt lat="42.5060183" lon="14.124745"><ele>8.333333333333332</ele><time>2026-05-02T06:05:15.717Z</time></trkpt><trkpt lat="42.5058933" lon="14.1246"><ele>8.666666666666666</ele><time>2026-05-02T06:05:16.718Z</time></trkpt><trkpt lat="42.5057633" lon="14.1244533"><ele>9.0</ele><time>2026-05-02T06:05:17.716Z</time></trkpt><trkpt lat="42.5056317" lon="14.1243083"><ele>9.0</ele><time>2026-05-02T06:05:18.717Z</time></trkpt><trkpt lat="42.505495" lon="14.124165"><ele>9.0</ele><time>2026-05-02T06:05:19.716Z</time></trkpt><trkpt lat="42.5053533" lon="14.1240283"><ele>9.0</ele><time>2026-05-02T06:05:20.716Z</time></trkpt><trkpt lat="42.5052183" lon="14.12389"><ele>8.333333333333334</ele><time>2026-05-02T06:05:21.717Z</time></trkpt><trkpt lat="42.5050833" lon="14.1237567"><ele>7.666666666666667</ele><time>2026-05-02T06:05:22.717Z</time></trkpt><trkpt lat="42.504945" lon="14.123625"><ele>7.0</ele><time>2026-05-02T06:05:23.716Z</time></trkpt><trkpt lat="42.5048033" lon="14.1234983"><ele>7.0</ele><time>2026-05-02T06:05:24.716Z</time></trkpt><trkpt lat="42.504665" lon="14.123365"><ele>7.0</ele><time>2026-05-02T06:05:25.717Z</time></trkpt><trkpt lat="42.5045267" lon="14.1232333"><ele>7.0</ele><time>2026-05-02T06:05:26.716Z</time></trkpt><trkpt lat="42.5043917" lon="14.1231017"><ele>8.0</ele><time>2026-05-02T06:05:27.716Z</time></trkpt><trkpt lat="42.5042517" lon="14.1229783"><ele>9.0</ele><time>2026-05-02T06:05:28.716Z</time></trkpt><trkpt lat="42.50411" lon="14.1228533"><ele>10.0</ele><time>2026-05-02T06:05:29.716Z</time></trkpt><trkpt lat="42.5039717" lon="14.12272"><ele>10.0</ele><time>2026-05-02T06:05:30.716Z</time></trkpt><trkpt lat="42.503835" lon="14.1225917"><ele>10.0</ele><time>2026-05-02T06:05:31.717Z</time></trkpt><trkpt lat="42.5037" lon="14.12246"><ele>10.0</ele><time>2026-05-02T06:05:32.716Z</time></trkpt><trkpt lat="42.503565" lon="14.122345"><ele>9.75</ele><time>2026-05-02T06:05:33.717Z</time></trkpt><trkpt lat="42.5034383" lon="14.1222333"><ele>9.5</ele><time>2026-05-02T06:05:34.716Z</time></trkpt><trkpt lat="42.5033217" lon="14.1221317"><ele>9.25</ele><time>2026-05-02T06:05:35.717Z</time></trkpt><trkpt lat="42.5032217" lon="14.1220483"><ele>9.0</ele><time>2026-05-02T06:05:36.716Z</time></trkpt><trkpt lat="42.5031317" lon="14.121975"><ele>9.0</ele><time>2026-05-02T06:05:37.717Z</time></trkpt><trkpt lat="42.5030483" lon="14.1218967"><ele>9.0</ele><time>2026-05-02T06:05:38.716Z</time></trkpt><trkpt lat="42.5029733" lon="14.1218283"><ele>9.0</ele><time>2026-05-02T06:05:39.717Z</time></trkpt><trkpt lat="42.502915" lon="14.121755"><ele>9.0</ele><time>2026-05-02T06:05:40.716Z</time></trkpt><trkpt lat="42.5028683" lon="14.121675"><ele>9.0</ele><time>2026-05-02T06:05:41.716Z</time></trkpt><trkpt lat="42.5028367" lon="14.1215883"><ele>9.0</ele><time>2026-05-02T06:05:42.716Z</time></trkpt><trkpt lat="42.5028033" lon="14.1214883"><ele>8.833333333333334</ele><time>2026-05-02T06:05:43.716Z</time></trkpt><trkpt lat="42.5027667" lon="14.121405"><ele>8.666666666666666</ele><time>2026-05-02T06:05:44.717Z</time></trkpt><trkpt lat="42.5027117" lon="14.1213483"><ele>8.5</ele><time>2026-05-02T06:05:45.717Z</time></trkpt><trkpt lat="42.5026433" lon="14.1213167"><ele>8.333333333333332</ele><time>2026-05-02T06:05:46.717Z</time></trkpt><trkpt lat="42.502565" lon="14.121305"><ele>8.166666666666666</ele><time>2026-05-02T06:05:47.717Z</time></trkpt><trkpt lat="42.502475" lon="14.1213017"><ele>8.0</ele><time>2026-05-02T06:05:48.717Z</time></trkpt><trkpt lat="42.502375" lon="14.1212883"><ele>8.0</ele><time>2026-05-02T06:05:49.716Z</time></trkpt><trkpt lat="42.502265" lon="14.1212367"><ele>8.0</ele><time>2026-05-02T06:05:50.717Z</time></trkpt><trkpt lat="42.50215" lon="14.1211683"><ele>8.0</ele><time>2026-05-02T06:05:51.716Z</time></trkpt><trkpt lat="42.5020267" lon="14.1210967"><ele>8.0</ele><time>2026-05-02T06:05:52.716Z</time></trkpt><trkpt lat="42.5018983" lon="14.1210367"><ele>8.5</ele><time>2026-05-02T06:05:53.716Z</time></trkpt><trkpt lat="42.501775" lon="14.120965"><ele>9.0</ele><time>2026-05-02T06:05:54.717Z</time></trkpt><trkpt lat="42.5016417" lon="14.1209033"><ele>9.5</ele><time>2026-05-02T06:05:55.716Z</time></trkpt><trkpt lat="42.501505" lon="14.1208517"><ele>10.0</ele><time>2026-05-02T06:05:56.717Z</time></trkpt><trkpt lat="42.5013633" lon="14.120805"><ele>10.0</ele><time>2026-05-02T06:05:57.716Z</time></trkpt><trkpt lat="42.5012217" lon="14.1207667"><ele>10.0</ele><time>2026-05-02T06:05:58.717Z</time></trkpt><trkpt lat="42.501085" lon="14.12072"><ele>10.0</ele><time>2026-05-02T06:05:59.717Z</time></trkpt><trkpt lat="42.5009633" lon="14.1206667"><ele>10.0</ele><time>2026-05-02T06:06:00.716Z</time></trkpt><trkpt lat="42.50085" lon="14.120605"><ele>10.25</ele><time>2026-05-02T06:06:01.717Z</time></trkpt><trkpt lat="42.5007417" lon="14.1205417"><ele>10.5</ele><time>2026-05-02T06:06:02.716Z</time></trkpt><trkpt lat="42.500635" lon="14.1204633"><ele>10.75</ele><time>2026-05-02T06:06:03.716Z</time></trkpt><trkpt lat="42.5005283" lon="14.1203833"><ele>11.0</ele><time>2026-05-02T06:06:04.716Z</time></trkpt><trkpt lat="42.50042" lon="14.1203067"><ele>11.75</ele><time>2026-05-02T06:06:05.716Z</time></trkpt><trkpt lat="42.5003117" lon="14.1202333"><ele>12.5</ele><time>2026-05-02T06:06:06.717Z</time></trkpt><trkpt lat="42.5002033" lon="14.1201533"><ele>13.25</ele><time>2026-05-02T06:06:07.716Z</time></trkpt><trkpt lat="42.5001033" lon="14.120085"><ele>14.0</ele><time>2026-05-02T06:06:08.717Z</time></trkpt><trkpt lat="42.5000167" lon="14.120025"><ele>14.000000000000002</ele><time>2026-05-02T06:06:09.716Z</time></trkpt><trkpt lat="42.4999467" lon="14.1199667"><ele>14.0</ele><time>2026-05-02T06:06:10.716Z</time></trkpt><trkpt lat="42.4998867" lon="14.1199167"><ele>14.0</ele><time>2026-05-02T06:06:11.717Z</time></trkpt><trkpt lat="42.499785" lon="14.1198617"><ele>14.0</ele><time>2026-05-02T06:06:13.717Z</time></trkpt><trkpt lat="42.4996867" lon="14.1198567"><ele>14.000000000000002</ele><time>2026-05-02T06:06:15.716Z</time></trkpt><trkpt lat="42.4996267" lon="14.11989"><ele>14.0</ele><time>2026-05-02T06:06:16.717Z</time></trkpt><trkpt lat="42.499565" lon="14.1199533"><ele>14.166666666666668</ele><time>2026-05-02T06:06:17.717Z</time></trkpt><trkpt lat="42.4995067" lon="14.1200317"><ele>14.333333333333334</ele><time>2026-05-02T06:06:18.717Z</time></trkpt><trkpt lat="42.49946" lon="14.1201067"><ele>14.5</ele><time>2026-05-02T06:06:19.716Z</time></trkpt><trkpt lat="42.4994133" lon="14.120175"><ele>14.666666666666668</ele><time>2026-05-02T06:06:20.716Z</time></trkpt><trkpt lat="42.49937" lon="14.1202483"><ele>14.833333333333334</ele><time>2026-05-02T06:06:21.716Z</time></trkpt><trkpt lat="42.49932" lon="14.1203417"><ele>15.0</ele><time>2026-05-02T06:06:22.716Z</time></trkpt><trkpt lat="42.499235" lon="14.1204533"><ele>15.0</ele><time>2026-05-02T06:06:23.716Z</time></trkpt><trkpt lat="42.49913" lon="14.1205883"><ele>15.0</ele><time>2026-05-02T06:06:24.716Z</time></trkpt><trkpt lat="42.4990133" lon="14.1207467"><ele>15.0</ele><time>2026-05-02T06:06:25.716Z</time></trkpt><trkpt lat="42.4988767" lon="14.12091"><ele>15.333333333333332</ele><time>2026-05-02T06:06:26.716Z</time></trkpt><trkpt lat="42.49874" lon="14.1210717"><ele>15.666666666666666</ele><time>2026-05-02T06:06:27.717Z</time></trkpt><trkpt lat="42.498605" lon="14.121235"><ele>16.0</ele><time>2026-05-02T06:06:28.717Z</time></trkpt><trkpt lat="42.4984783" lon="14.121385"><ele>16.0</ele><time>2026-05-02T06:06:29.716Z</time></trkpt><trkpt lat="42.4983533" lon="14.1215083"><ele>16.0</ele><time>2026-05-02T06:06:30.717Z</time></trkpt><trkpt lat="42.4982317" lon="14.1215983"><ele>16.0</ele><time>2026-05-02T06:06:31.717Z</time></trkpt><trkpt lat="42.498115" lon="14.121695"><ele>16.0</ele><time>2026-05-02T06:06:32.717Z</time></trkpt><trkpt lat="42.4980133" lon="14.1218133"><ele>15.75</ele><time>2026-05-02T06:06:33.717Z</time></trkpt><trkpt lat="42.4979217" lon="14.12194"><ele>15.5</ele><time>2026-05-02T06:06:34.716Z</time></trkpt><trkpt lat="42.4978317" lon="14.122095"><ele>15.25</ele><time>2026-05-02T06:06:35.716Z</time></trkpt><trkpt lat="42.49773" lon="14.1222367"><ele>15.0</ele><time>2026-05-02T06:06:36.716Z</time></trkpt><trkpt lat="42.4976317" lon="14.122395"><ele>14.666666666666668</ele><time>2026-05-02T06:06:37.717Z</time></trkpt><trkpt lat="42.4975367" lon="14.12255"><ele>14.333333333333334</ele><time>2026-05-02T06:06:38.716Z</time></trkpt><trkpt lat="42.497435" lon="14.1227167"><ele>14.0</ele><time>2026-05-02T06:06:39.717Z</time></trkpt><trkpt lat="42.4973317" lon="14.12288"><ele>14.0</ele><time>2026-05-02T06:06:40.717Z</time></trkpt><trkpt lat="42.497225" lon="14.1230383"><ele>14.0</ele><time>2026-05-02T06:06:41.716Z</time></trkpt><trkpt lat="42.4971267" lon="14.1231867"><ele>14.0</ele><time>2026-05-02T06:06:42.716Z</time></trkpt><trkpt lat="42.4970283" lon="14.1233283"><ele>14.0</ele><time>2026-05-02T06:06:43.717Z</time></trkpt><trkpt lat="42.4969433" lon="14.123465"><ele>14.5</ele><time>2026-05-02T06:06:44.716Z</time></trkpt><trkpt lat="42.4968483" lon="14.1235967"><ele>15.0</ele><time>2026-05-02T06:06:45.717Z</time></trkpt><trkpt lat="42.4967417" lon="14.1237167"><ele>15.5</ele><time>2026-05-02T06:06:46.716Z</time></trkpt><trkpt lat="42.4966283" lon="14.1238267"><ele>16.0</ele><time>2026-05-02T06:06:47.717Z</time></trkpt><trkpt lat="42.4965083" lon="14.1239267"><ele>16.0</ele><time>2026-05-02T06:06:48.717Z</time></trkpt><trkpt lat="42.496395" lon="14.1240233"><ele>16.0</ele><time>2026-05-02T06:06:49.717Z</time></trkpt><trkpt lat="42.4963033" lon="14.12411"><ele>16.0</ele><time>2026-05-02T06:06:50.716Z</time></trkpt><trkpt lat="42.49621" lon="14.1242017"><ele>16.0</ele><time>2026-05-02T06:06:51.717Z</time></trkpt><trkpt lat="42.4961333" lon="14.1242867"><ele>15.8</ele><time>2026-05-02T06:06:52.717Z</time></trkpt><trkpt lat="42.496065" lon="14.12436"><ele>15.600000000000001</ele><time>2026-05-02T06:06:53.717Z</time></trkpt><trkpt lat="42.4959767" lon="14.1244217"><ele>15.4</ele><time>2026-05-02T06:06:54.717Z</time></trkpt><trkpt lat="42.4958833" lon="14.1244817"><ele>15.2</ele><time>2026-05-02T06:06:55.717Z</time></trkpt><trkpt lat="42.4958017" lon="14.1245267"><ele>15.0</ele><time>2026-05-02T06:06:56.716Z</time></trkpt><trkpt lat="42.495705" lon="14.1245517"><ele>15.0</ele><time>2026-05-02T06:06:57.716Z</time></trkpt><trkpt lat="42.4955917" lon="14.12456"><ele>15.0</ele><time>2026-05-02T06:06:58.717Z</time></trkpt><trkpt lat="42.49546" lon="14.124555"><ele>15.0</ele><time>2026-05-02T06:06:59.717Z</time></trkpt><trkpt lat="42.4953217" lon="14.1245533"><ele>15.0</ele><time>2026-05-02T06:07:00.717Z</time></trkpt><trkpt lat="42.4951833" lon="14.1245567"><ele>15.5</ele><time>2026-05-02T06:07:01.717Z</time></trkpt><trkpt lat="42.4950483" lon="14.1245617"><ele>16.0</ele><time>2026-05-02T06:07:02.717Z</time></trkpt><trkpt lat="42.494915" lon="14.1245633"><ele>16.5</ele><time>2026-05-02T06:07:03.716Z</time></trkpt><trkpt lat="42.49479" lon="14.1245667"><ele>17.0</ele><time>2026-05-02T06:07:04.717Z</time></trkpt><trkpt lat="42.4946767" lon="14.1245617"><ele>17.166666666666668</ele><time>2026-05-02T06:07:05.717Z</time></trkpt><trkpt lat="42.4945767" lon="14.1245633"><ele>17.333333333333336</ele><time>2026-05-02T06:07:06.717Z</time></trkpt><trkpt lat="42.4944867" lon="14.1245667"><ele>17.5</ele><time>2026-05-02T06:07:07.716Z</time></trkpt><trkpt lat="42.4944133" lon="14.1245883"><ele>17.666666666666668</ele><time>2026-05-02T06:07:08.717Z</time></trkpt><trkpt lat="42.4943417" lon="14.1246533"><ele>17.833333333333332</ele><time>2026-05-02T06:07:09.717Z</time></trkpt><trkpt lat="42.4942683" lon="14.1247417"><ele>18.0</ele><time>2026-05-02T06:07:10.716Z</time></trkpt><trkpt lat="42.4941917" lon="14.124845"><ele>18.0</ele><time>2026-05-02T06:07:11.717Z</time></trkpt><trkpt lat="42.4941183" lon="14.1249467"><ele>18.0</ele><time>2026-05-02T06:07:12.717Z</time></trkpt><trkpt lat="42.4940583" lon="14.1250433"><ele>18.0</ele><time>2026-05-02T06:07:13.716Z</time></trkpt><trkpt lat="42.4940083" lon="14.1251383"><ele>18.0</ele><time>2026-05-02T06:07:14.717Z</time></trkpt><trkpt lat="42.49397" lon="14.1252067"><ele>18.0</ele><time>2026-05-02T06:07:15.716Z</time></trkpt><trkpt lat="42.4939267" lon="14.1253"><ele>18.0</ele><time>2026-05-02T06:07:22.717Z</time></trkpt><trkpt lat="42.4938617" lon="14.1253067"><ele>18.25</ele><time>2026-05-02T06:07:24.716Z</time></trkpt><trkpt lat="42.4937367" lon="14.12521"><ele>18.5</ele><time>2026-05-02T06:07:26.716Z</time></trkpt><trkpt lat="42.4936617" lon="14.1251433"><ele>18.75</ele><time>2026-05-02T06:07:27.717Z</time></trkpt><trkpt lat="42.4935667" lon="14.1250733"><ele>19.0</ele><time>2026-05-02T06:07:28.717Z</time></trkpt><trkpt lat="42.4934683" lon="14.124985"><ele>19.0</ele><time>2026-05-02T06:07:29.717Z</time></trkpt><trkpt lat="42.4933633" lon="14.1249"><ele>19.0</ele><time>2026-05-02T06:07:30.716Z</time></trkpt><trkpt lat="42.4932483" lon="14.1248233"><ele>19.0</ele><time>2026-05-02T06:07:31.717Z</time></trkpt><trkpt lat="42.49313" lon="14.1247383"><ele>19.0</ele><time>2026-05-02T06:07:32.716Z</time></trkpt><trkpt lat="42.493025" lon="14.1246583"><ele>19.0</ele><time>2026-05-02T06:07:33.716Z</time></trkpt><trkpt lat="42.4929283" lon="14.1245817"><ele>19.0</ele><time>2026-05-02T06:07:34.717Z</time></trkpt><trkpt lat="42.4928383" lon="14.1245133"><ele>19.0</ele><time>2026-05-02T06:07:35.717Z</time></trkpt><trkpt lat="42.49276" lon="14.1244467"><ele>19.0</ele><time>2026-05-02T06:07:36.717Z</time></trkpt><trkpt lat="42.4926883" lon="14.1243783"><ele>19.0</ele><time>2026-05-02T06:07:37.716Z</time></trkpt><trkpt lat="42.4926133" lon="14.124315"><ele>19.0</ele><time>2026-05-02T06:07:38.716Z</time></trkpt><trkpt lat="42.4925367" lon="14.1242433"><ele>19.0</ele><time>2026-05-02T06:07:39.716Z</time></trkpt><trkpt lat="42.492455" lon="14.12418"><ele>19.0</ele><time>2026-05-02T06:07:40.716Z</time></trkpt><trkpt lat="42.492375" lon="14.1241133"><ele>19.0</ele><time>2026-05-02T06:07:41.716Z</time></trkpt><trkpt lat="42.492295" lon="14.1240483"><ele>19.0</ele><time>2026-05-02T06:07:42.716Z</time></trkpt><trkpt lat="42.4922183" lon="14.123985"><ele>19.0</ele><time>2026-05-02T06:07:43.716Z</time></trkpt><trkpt lat="42.4921367" lon="14.1239217"><ele>19.0</ele><time>2026-05-02T06:07:44.717Z</time></trkpt><trkpt lat="42.4920567" lon="14.1238583"><ele>19.0</ele><time>2026-05-02T06:07:45.717Z</time></trkpt><trkpt lat="42.4919817" lon="14.1238"><ele>19.0</ele><time>2026-05-02T06:07:46.716Z</time></trkpt><trkpt lat="42.49191" lon="14.1237417"><ele>19.0</ele><time>2026-05-02T06:07:47.716Z</time></trkpt><trkpt lat="42.4918333" lon="14.1236783"><ele>19.0</ele><time>2026-05-02T06:07:48.717Z</time></trkpt><trkpt lat="42.4917433" lon="14.1236117"><ele>19.5</ele><time>2026-05-02T06:07:49.716Z</time></trkpt><trkpt lat="42.4916467" lon="14.1235283"><ele>20.0</ele><time>2026-05-02T06:07:50.716Z</time></trkpt><trkpt lat="42.4915417" lon="14.12344"><ele>20.5</ele><time>2026-05-02T06:07:51.716Z</time></trkpt><trkpt lat="42.4914367" lon="14.1233467"><ele>21.0</ele><time>2026-05-02T06:07:52.717Z</time></trkpt><trkpt lat="42.4913283" lon="14.123265"><ele>21.5</ele><time>2026-05-02T06:07:53.716Z</time></trkpt><trkpt lat="42.4912183" lon="14.12318"><ele>22.0</ele><time>2026-05-02T06:07:54.716Z</time></trkpt><trkpt lat="42.4911067" lon="14.1230867"><ele>22.5</ele><time>2026-05-02T06:07:55.716Z</time></trkpt><trkpt lat="42.4909867" lon="14.1229917"><ele>23.0</ele><time>2026-05-02T06:07:56.717Z</time></trkpt><trkpt lat="42.4908733" lon="14.1229"><ele>23.0</ele><time>2026-05-02T06:07:57.717Z</time></trkpt><trkpt lat="42.4907633" lon="14.12281"><ele>23.0</ele><time>2026-05-02T06:07:58.717Z</time></trkpt><trkpt lat="42.4906567" lon="14.1227183"><ele>23.0</ele><time>2026-05-02T06:07:59.716Z</time></trkpt><trkpt lat="42.4905483" lon="14.1226283"><ele>23.0</ele><time>2026-05-02T06:08:00.717Z</time></trkpt><trkpt lat="42.4904383" lon="14.1225417"><ele>23.0</ele><time>2026-05-02T06:08:01.717Z</time></trkpt><trkpt lat="42.490335" lon="14.1224517"><ele>23.0</ele><time>2026-05-02T06:08:02.716Z</time></trkpt><trkpt lat="42.49023" lon="14.1223717"><ele>23.0</ele><time>2026-05-02T06:08:03.717Z</time></trkpt><trkpt lat="42.4901267" lon="14.1222917"><ele>23.0</ele><time>2026-05-02T06:08:04.716Z</time></trkpt><trkpt lat="42.4900317" lon="14.1222183"><ele>22.799999999999997</ele><time>2026-05-02T06:08:05.717Z</time></trkpt><trkpt lat="42.48994" lon="14.12215"><ele>22.6</ele><time>2026-05-02T06:08:06.717Z</time></trkpt><trkpt lat="42.48985" lon="14.1220867"><ele>22.4</ele><time>2026-05-02T06:08:07.717Z</time></trkpt><trkpt lat="42.48977" lon="14.12201"><ele>22.200000000000003</ele><time>2026-05-02T06:08:08.717Z</time></trkpt><trkpt lat="42.489685" lon="14.1219367"><ele>22.0</ele><time>2026-05-02T06:08:09.716Z</time></trkpt><trkpt lat="42.4895967" lon="14.1218617"><ele>22.200000000000003</ele><time>2026-05-02T06:08:10.717Z</time></trkpt><trkpt lat="42.4895033" lon="14.12179"><ele>22.4</ele><time>2026-05-02T06:08:11.717Z</time></trkpt><trkpt lat="42.4894167" lon="14.12172"><ele>22.6</ele><time>2026-05-02T06:08:12.716Z</time></trkpt><trkpt lat="42.4893317" lon="14.12165"><ele>22.799999999999997</ele><time>2026-05-02T06:08:13.716Z</time></trkpt><trkpt lat="42.489245" lon="14.1215883"><ele>23.0</ele><time>2026-05-02T06:08:14.716Z</time></trkpt><trkpt lat="42.4891567" lon="14.1215133"><ele>23.0</ele><time>2026-05-02T06:08:15.717Z</time></trkpt><trkpt lat="42.489065" lon="14.121445"><ele>23.0</ele><time>2026-05-02T06:08:16.717Z</time></trkpt><trkpt lat="42.48898" lon="14.121375"><ele>23.0</ele><time>2026-05-02T06:08:17.717Z</time></trkpt><trkpt lat="42.4889017" lon="14.121315"><ele>23.0</ele><time>2026-05-02T06:08:18.717Z</time></trkpt><trkpt lat="42.488825" lon="14.1212567"><ele>23.0</ele><time>2026-05-02T06:08:19.717Z</time></trkpt><trkpt lat="42.488745" lon="14.1211867"><ele>23.4</ele><time>2026-05-02T06:08:20.717Z</time></trkpt><trkpt lat="42.488665" lon="14.1211183"><ele>23.799999999999997</ele><time>2026-05-02T06:08:21.716Z</time></trkpt><trkpt lat="42.48859" lon="14.1210567"><ele>24.2</ele><time>2026-05-02T06:08:22.716Z</time></trkpt><trkpt lat="42.4885133" lon="14.1209967"><ele>24.6</ele><time>2026-05-02T06:08:23.716Z</time></trkpt><trkpt lat="42.488435" lon="14.120925"><ele>25.0</ele><time>2026-05-02T06:08:24.717Z</time></trkpt><trkpt lat="42.4883417" lon="14.120855"><ele>25.0</ele><time>2026-05-02T06:08:25.716Z</time></trkpt><trkpt lat="42.4882417" lon="14.1207717"><ele>25.0</ele><time>2026-05-02T06:08:26.716Z</time></trkpt><trkpt lat="42.4881283" lon="14.1206833"><ele>25.0</ele><time>2026-05-02T06:08:27.717Z</time></trkpt><trkpt lat="42.4880033" lon="14.120585"><ele>25.0</ele><time>2026-05-02T06:08:28.717Z</time></trkpt><trkpt lat="42.4878867" lon="14.120495"><ele>25.25</ele><time>2026-05-02T06:08:29.716Z</time></trkpt><trkpt lat="42.4877917" lon="14.1204067"><ele>25.5</ele><time>2026-05-02T06:08:30.716Z</time></trkpt><trkpt lat="42.48769" lon="14.1203317"><ele>25.75</ele><time>2026-05-02T06:08:31.716Z</time></trkpt><trkpt lat="42.487575" lon="14.1202417"><ele>26.0</ele><time>2026-05-02T06:08:32.717Z</time></trkpt><trkpt lat="42.48745" lon="14.1201417"><ele>26.0</ele><time>2026-05-02T06:08:33.717Z</time></trkpt><trkpt lat="42.4873267" lon="14.1200317"><ele>26.0</ele><time>2026-05-02T06:08:34.716Z</time></trkpt><trkpt lat="42.4872" lon="14.1199283"><ele>26.0</ele><time>2026-05-02T06:08:35.716Z</time></trkpt><trkpt lat="42.487075" lon="14.1198283"><ele>26.0</ele><time>2026-05-02T06:08:36.716Z</time></trkpt><trkpt lat="42.4869567" lon="14.1197317"><ele>26.0</ele><time>2026-05-02T06:08:37.717Z</time></trkpt><trkpt lat="42.4868483" lon="14.1196467"><ele>26.0</ele><time>2026-05-02T06:08:38.717Z</time></trkpt><trkpt lat="42.4867533" lon="14.11957"><ele>26.0</ele><time>2026-05-02T06:08:39.716Z</time></trkpt><trkpt lat="42.4866667" lon="14.1194983"><ele>26.0</ele><time>2026-05-02T06:08:40.717Z</time></trkpt><trkpt lat="42.4865833" lon="14.1194333"><ele>26.0</ele><time>2026-05-02T06:08:41.716Z</time></trkpt><trkpt lat="42.4865133" lon="14.1193717"><ele>26.0</ele><time>2026-05-02T06:08:42.716Z</time></trkpt><trkpt lat="42.48645" lon="14.1193283"><ele>26.0</ele><time>2026-05-02T06:08:43.716Z</time></trkpt><trkpt lat="42.48635" lon="14.1192583"><ele>26.0</ele><time>2026-05-02T06:08:45.717Z</time></trkpt><trkpt lat="42.4862733" lon="14.1192117"><ele>26.0</ele><time>2026-05-02T06:08:47.717Z</time></trkpt><trkpt lat="42.486225" lon="14.1191317"><ele>26.0</ele><time>2026-05-02T06:08:55.717Z</time></trkpt><trkpt lat="42.486095" lon="14.1190283"><ele>25.75</ele><time>2026-05-02T06:08:57.717Z</time></trkpt><trkpt lat="42.486005" lon="14.118955"><ele>25.5</ele><time>2026-05-02T06:08:58.717Z</time></trkpt><trkpt lat="42.4859133" lon="14.1188617"><ele>25.25</ele><time>2026-05-02T06:08:59.716Z</time></trkpt><trkpt lat="42.4858117" lon="14.118775"><ele>25.0</ele><time>2026-05-02T06:09:00.716Z</time></trkpt><trkpt lat="42.485705" lon="14.1186883"><ele>25.0</ele><time>2026-05-02T06:09:01.716Z</time></trkpt><trkpt lat="42.485595" lon="14.11861"><ele>25.0</ele><time>2026-05-02T06:09:02.717Z</time></trkpt><trkpt lat="42.48548" lon="14.118525"><ele>25.0</ele><time>2026-05-02T06:09:03.717Z</time></trkpt><trkpt lat="42.4853767" lon="14.1184317"><ele>25.0</ele><time>2026-05-02T06:09:04.717Z</time></trkpt><trkpt lat="42.485275" lon="14.1183467"><ele>25.4</ele><time>2026-05-02T06:09:05.716Z</time></trkpt><trkpt lat="42.485175" lon="14.118275"><ele>25.8</ele><time>2026-05-02T06:09:06.717Z</time></trkpt><trkpt lat="42.4850783" lon="14.1182033"><ele>26.200000000000003</ele><time>2026-05-02T06:09:07.717Z</time></trkpt><trkpt lat="42.4849917" lon="14.11813"><ele>26.6</ele><time>2026-05-02T06:09:08.716Z</time></trkpt><trkpt lat="42.4849133" lon="14.1180683"><ele>27.0</ele><time>2026-05-02T06:09:09.717Z</time></trkpt><trkpt lat="42.484845" lon="14.11801"><ele>27.0</ele><time>2026-05-02T06:09:10.716Z</time></trkpt><trkpt lat="42.4847467" lon="14.1179267"><ele>27.0</ele><time>2026-05-02T06:09:12.717Z</time></trkpt><trkpt lat="42.4846267" lon="14.117825"><ele>27.0</ele><time>2026-05-02T06:09:14.717Z</time></trkpt><trkpt lat="42.4845517" lon="14.1177533"><ele>27.0</ele><time>2026-05-02T06:09:15.717Z</time></trkpt><trkpt lat="42.4844583" lon="14.117675"><ele>27.0</ele><time>2026-05-02T06:09:16.717Z</time></trkpt><trkpt lat="42.4843483" lon="14.1175967"><ele>27.0</ele><time>2026-05-02T06:09:17.716Z</time></trkpt><trkpt lat="42.48424" lon="14.11751"><ele>27.0</ele><time>2026-05-02T06:09:18.717Z</time></trkpt><trkpt lat="42.4841233" lon="14.1174167"><ele>27.0</ele><time>2026-05-02T06:09:19.717Z</time></trkpt><trkpt lat="42.4840083" lon="14.11732"><ele>27.0</ele><time>2026-05-02T06:09:20.717Z</time></trkpt><trkpt lat="42.48388" lon="14.117215"><ele>27.0</ele><time>2026-05-02T06:09:21.716Z</time></trkpt><trkpt lat="42.483735" lon="14.1171067"><ele>27.0</ele><time>2026-05-02T06:09:22.717Z</time></trkpt><trkpt lat="42.4835933" lon="14.1169833"><ele>28.0</ele><time>2026-05-02T06:09:23.716Z</time></trkpt><trkpt lat="42.4834483" lon="14.1168683"><ele>29.0</ele><time>2026-05-02T06:09:24.717Z</time></trkpt><trkpt lat="42.4832967" lon="14.1167617"><ele>30.0</ele><time>2026-05-02T06:09:25.717Z</time></trkpt><trkpt lat="42.4831583" lon="14.1166483"><ele>29.75</ele><time>2026-05-02T06:09:26.716Z</time></trkpt><trkpt lat="42.4830283" lon="14.1165433"><ele>29.5</ele><time>2026-05-02T06:09:27.716Z</time></trkpt><trkpt lat="42.4829117" lon="14.116445"><ele>29.25</ele><time>2026-05-02T06:09:28.717Z</time></trkpt><trkpt lat="42.4828033" lon="14.1163467"><ele>29.0</ele><time>2026-05-02T06:09:29.716Z</time></trkpt><trkpt lat="42.4826917" lon="14.11625"><ele>29.0</ele><time>2026-05-02T06:09:30.717Z</time></trkpt><trkpt lat="42.48258" lon="14.11616"><ele>29.0</ele><time>2026-05-02T06:09:31.717Z</time></trkpt><trkpt lat="42.4824683" lon="14.1160733"><ele>29.0</ele><time>2026-05-02T06:09:32.717Z</time></trkpt><trkpt lat="42.4823517" lon="14.11598"><ele>29.0</ele><time>2026-05-02T06:09:33.716Z</time></trkpt><trkpt lat="42.48224" lon="14.1158917"><ele>29.0</ele><time>2026-05-02T06:09:34.717Z</time></trkpt><trkpt lat="42.48212" lon="14.1158"><ele>29.0</ele><time>2026-05-02T06:09:35.716Z</time></trkpt><trkpt lat="42.4820033" lon="14.11571"><ele>29.0</ele><time>2026-05-02T06:09:36.717Z</time></trkpt><trkpt lat="42.4818867" lon="14.115625"><ele>29.0</ele><time>2026-05-02T06:09:37.717Z</time></trkpt><trkpt lat="42.4817783" lon="14.115525"><ele>30.0</ele><time>2026-05-02T06:09:38.717Z</time></trkpt><trkpt lat="42.4816667" lon="14.1154317"><ele>31.0</ele><time>2026-05-02T06:09:39.716Z</time></trkpt><trkpt lat="42.4815467" lon="14.1153433"><ele>32.0</ele><time>2026-05-02T06:09:40.717Z</time></trkpt><trkpt lat="42.4814317" lon="14.115245"><ele>33.0</ele><time>2026-05-02T06:09:41.717Z</time></trkpt><trkpt lat="42.4813117" lon="14.11515"><ele>33.0</ele><time>2026-05-02T06:09:42.716Z</time></trkpt><trkpt lat="42.48119" lon="14.11505"><ele>33.0</ele><time>2026-05-02T06:09:43.716Z</time></trkpt><trkpt lat="42.48107" lon="14.11494"><ele>33.0</ele><time>2026-05-02T06:09:44.716Z</time></trkpt><trkpt lat="42.4809483" lon="14.1148333"><ele>33.0</ele><time>2026-05-02T06:09:45.716Z</time></trkpt><trkpt lat="42.4808217" lon="14.1147317"><ele>32.25</ele><time>2026-05-02T06:09:46.716Z</time></trkpt><trkpt lat="42.480695" lon="14.1146383"><ele>31.5</ele><time>2026-05-02T06:09:47.716Z</time></trkpt><trkpt lat="42.48057" lon="14.11454"><ele>30.75</ele><time>2026-05-02T06:09:48.717Z</time></trkpt><trkpt lat="42.48044" lon="14.11444"><ele>30.0</ele><time>2026-05-02T06:09:49.717Z</time></trkpt><trkpt lat="42.4803167" lon="14.1143367"><ele>30.0</ele><time>2026-05-02T06:09:50.717Z</time></trkpt><trkpt lat="42.4801967" lon="14.1142317"><ele>30.0</ele><time>2026-05-02T06:09:51.717Z</time></trkpt><trkpt lat="42.48007" lon="14.1141333"><ele>30.0</ele><time>2026-05-02T06:09:52.717Z</time></trkpt><trkpt lat="42.4799433" lon="14.1140367"><ele>30.0</ele><time>2026-05-02T06:09:53.717Z</time></trkpt><trkpt lat="42.4798217" lon="14.11393"><ele>29.75</ele><time>2026-05-02T06:09:54.717Z</time></trkpt><trkpt lat="42.479705" lon="14.1138267"><ele>29.5</ele><time>2026-05-02T06:09:55.717Z</time></trkpt><trkpt lat="42.47959" lon="14.1137367"><ele>29.25</ele><time>2026-05-02T06:09:56.717Z</time></trkpt><trkpt lat="42.4794733" lon="14.1136467"><ele>29.0</ele><time>2026-05-02T06:09:57.717Z</time></trkpt><trkpt lat="42.4793533" lon="14.11355"><ele>29.25</ele><time>2026-05-02T06:09:58.717Z</time></trkpt><trkpt lat="42.4792317" lon="14.113455"><ele>29.5</ele><time>2026-05-02T06:09:59.717Z</time></trkpt><trkpt lat="42.4791133" lon="14.113355"><ele>29.75</ele><time>2026-05-02T06:10:00.716Z</time></trkpt><trkpt lat="42.4789917" lon="14.113255"><ele>30.0</ele><time>2026-05-02T06:10:01.716Z</time></trkpt><trkpt lat="42.47887" lon="14.1131517"><ele>30.75</ele><time>2026-05-02T06:10:02.716Z</time></trkpt><trkpt lat="42.478745" lon="14.1130517"><ele>31.5</ele><time>2026-05-02T06:10:03.717Z</time></trkpt><trkpt lat="42.4786167" lon="14.1129567"><ele>32.25</ele><time>2026-05-02T06:10:04.716Z</time></trkpt><trkpt lat="42.478495" lon="14.1128533"><ele>33.0</ele><time>2026-05-02T06:10:05.715Z</time></trkpt><trkpt lat="42.4783733" lon="14.1127483"><ele>33.0</ele><time>2026-05-02T06:10:06.716Z</time></trkpt><trkpt lat="42.4782583" lon="14.112635"><ele>33.0</ele><time>2026-05-02T06:10:07.716Z</time></trkpt><trkpt lat="42.4781317" lon="14.1125367"><ele>33.0</ele><time>2026-05-02T06:10:08.716Z</time></trkpt><trkpt lat="42.4780117" lon="14.1124417"><ele>33.0</ele><time>2026-05-02T06:10:09.716Z</time></trkpt><trkpt lat="42.47788" lon="14.1123467"><ele>33.666666666666664</ele><time>2026-05-02T06:10:10.716Z</time></trkpt><trkpt lat="42.47775" lon="14.112245"><ele>34.33333333333333</ele><time>2026-05-02T06:10:11.716Z</time></trkpt><trkpt lat="42.4776183" lon="14.112145"><ele>35.0</ele><time>2026-05-02T06:10:12.715Z</time></trkpt><trkpt lat="42.4774917" lon="14.1120317"><ele>35.0</ele><time>2026-05-02T06:10:13.715Z</time></trkpt><trkpt lat="42.477375" lon="14.11192"><ele>35.0</ele><time>2026-05-02T06:10:14.716Z</time></trkpt><trkpt lat="42.4772567" lon="14.1118267"><ele>35.0</ele><time>2026-05-02T06:10:15.715Z</time></trkpt><trkpt lat="42.4771433" lon="14.111735"><ele>35.0</ele><time>2026-05-02T06:10:16.716Z</time></trkpt><trkpt lat="42.4770367" lon="14.1116617"><ele>35.0</ele><time>2026-05-02T06:10:17.716Z</time></trkpt><trkpt lat="42.47694" lon="14.1115867"><ele>35.0</ele><time>2026-05-02T06:10:18.716Z</time></trkpt><trkpt lat="42.4768483" lon="14.1115083"><ele>35.0</ele><time>2026-05-02T06:10:19.716Z</time></trkpt><trkpt lat="42.47675" lon="14.1114317"><ele>35.0</ele><time>2026-05-02T06:10:20.715Z</time></trkpt><trkpt lat="42.4766483" lon="14.111345"><ele>35.0</ele><time>2026-05-02T06:10:21.715Z</time></trkpt><trkpt lat="42.4765517" lon="14.1112617"><ele>35.0</ele><time>2026-05-02T06:10:22.716Z</time></trkpt><trkpt lat="42.47646" lon="14.111185"><ele>35.0</ele><time>2026-05-02T06:10:23.716Z</time></trkpt><trkpt lat="42.476385" lon="14.1111167"><ele>35.0</ele><time>2026-05-02T06:10:24.716Z</time></trkpt><trkpt lat="42.476335" lon="14.11105"><ele>35.0</ele><time>2026-05-02T06:10:25.715Z</time></trkpt><trkpt lat="42.4762983" lon="14.1109083"><ele>35.0</ele><time>2026-05-02T06:10:27.715Z</time></trkpt><trkpt lat="42.476295" lon="14.11081"><ele>35.0</ele><time>2026-05-02T06:10:28.715Z</time></trkpt><trkpt lat="42.4762783" lon="14.110715"><ele>35.0</ele><time>2026-05-02T06:10:29.715Z</time></trkpt><trkpt lat="42.4762383" lon="14.110645"><ele>35.0</ele><time>2026-05-02T06:10:30.716Z</time></trkpt><trkpt lat="42.476125" lon="14.11063"><ele>35.0</ele><time>2026-05-02T06:10:32.716Z</time></trkpt><trkpt lat="42.4760533" lon="14.1106667"><ele>35.0</ele><time>2026-05-02T06:10:33.716Z</time></trkpt><trkpt lat="42.47597" lon="14.1107"><ele>35.4</ele><time>2026-05-02T06:10:34.716Z</time></trkpt><trkpt lat="42.47587" lon="14.1107"><ele>35.8</ele><time>2026-05-02T06:10:35.715Z</time></trkpt><trkpt lat="42.4757717" lon="14.1106683"><ele>36.2</ele><time>2026-05-02T06:10:36.716Z</time></trkpt><trkpt lat="42.4756633" lon="14.1106133"><ele>36.6</ele><time>2026-05-02T06:10:37.715Z</time></trkpt><trkpt lat="42.4755433" lon="14.1105367"><ele>37.0</ele><time>2026-05-02T06:10:38.715Z</time></trkpt><trkpt lat="42.4754133" lon="14.1104917"><ele>38.75</ele><time>2026-05-02T06:10:39.715Z</time></trkpt><trkpt lat="42.4752817" lon="14.1104833"><ele>40.5</ele><time>2026-05-02T06:10:40.715Z</time></trkpt><trkpt lat="42.47514" lon="14.1105033"><ele>42.25</ele><time>2026-05-02T06:10:41.716Z</time></trkpt><trkpt lat="42.475005" lon="14.1105333"><ele>44.0</ele><time>2026-05-02T06:10:42.716Z</time></trkpt><trkpt lat="42.47486" lon="14.110545"><ele>44.0</ele><time>2026-05-02T06:10:43.716Z</time></trkpt><trkpt lat="42.4747233" lon="14.1105283"><ele>44.0</ele><time>2026-05-02T06:10:44.716Z</time></trkpt><trkpt lat="42.4745783" lon="14.110495"><ele>44.0</ele><time>2026-05-02T06:10:45.716Z</time></trkpt><trkpt lat="42.4744217" lon="14.11044"><ele>44.0</ele><time>2026-05-02T06:10:46.716Z</time></trkpt><trkpt lat="42.4742617" lon="14.11036"><ele>46.666666666666664</ele><time>2026-05-02T06:10:47.716Z</time></trkpt><trkpt lat="42.4740883" lon="14.1102817"><ele>49.33333333333333</ele><time>2026-05-02T06:10:48.715Z</time></trkpt><trkpt lat="42.4739133" lon="14.1101933"><ele>52.0</ele><time>2026-05-02T06:10:49.716Z</time></trkpt><trkpt lat="42.4737367" lon="14.1101067"><ele>53.33333333333333</ele><time>2026-05-02T06:10:50.716Z</time></trkpt><trkpt lat="42.473565" lon="14.1100333"><ele>54.66666666666667</ele><time>2026-05-02T06:10:51.716Z</time></trkpt><trkpt lat="42.4733867" lon="14.109965"><ele>56.0</ele><time>2026-05-02T06:10:52.715Z</time></trkpt><trkpt lat="42.4732083" lon="14.1098883"><ele>59.66666666666667</ele><time>2026-05-02T06:10:53.716Z</time></trkpt><trkpt lat="42.4730367" lon="14.1098"><ele>63.33333333333333</ele><time>2026-05-02T06:10:54.715Z</time></trkpt><trkpt lat="42.4728717" lon="14.10971"><ele>67.0</ele><time>2026-05-02T06:10:55.715Z</time></trkpt><trkpt lat="42.4727083" lon="14.1096317"><ele>67.0</ele><time>2026-05-02T06:10:56.716Z</time></trkpt><trkpt lat="42.472545" lon="14.1095667"><ele>67.0</ele><time>2026-05-02T06:10:57.715Z</time></trkpt><trkpt lat="42.4723767" lon="14.109515"><ele>67.0</ele><time>2026-05-02T06:10:58.715Z</time></trkpt><trkpt lat="42.4722133" lon="14.10947"><ele>65.66666666666666</ele><time>2026-05-02T06:10:59.716Z</time></trkpt><trkpt lat="42.4720567" lon="14.1094133"><ele>64.33333333333333</ele><time>2026-05-02T06:11:00.716Z</time></trkpt><trkpt lat="42.4719067" lon="14.1093333"><ele>63.0</ele><time>2026-05-02T06:11:01.716Z</time></trkpt><trkpt lat="42.4717517" lon="14.109235"><ele>63.0</ele><time>2026-05-02T06:11:02.716Z</time></trkpt><trkpt lat="42.4716017" lon="14.1091117"><ele>63.0</ele><time>2026-05-02T06:11:03.716Z</time></trkpt><trkpt lat="42.4714633" lon="14.1089683"><ele>63.0</ele><time>2026-05-02T06:11:04.716Z</time></trkpt><trkpt lat="42.471335" lon="14.1088017"><ele>64.0</ele><time>2026-05-02T06:11:05.716Z</time></trkpt><trkpt lat="42.4712083" lon="14.10863"><ele>65.0</ele><time>2026-05-02T06:11:06.716Z</time></trkpt><trkpt lat="42.47109" lon="14.1084667"><ele>66.0</ele><time>2026-05-02T06:11:07.716Z</time></trkpt><trkpt lat="42.4709733" lon="14.1082933"><ele>70.0</ele><time>2026-05-02T06:11:08.715Z</time></trkpt><trkpt lat="42.4708717" lon="14.1081117"><ele>74.0</ele><time>2026-05-02T06:11:09.716Z</time></trkpt><trkpt lat="42.4707783" lon="14.10792"><ele>78.0</ele><time>2026-05-02T06:11:10.716Z</time></trkpt><trkpt lat="42.4706833" lon="14.1077383"><ele>78.0</ele><time>2026-05-02T06:11:11.716Z</time></trkpt><trkpt lat="42.4706067" lon="14.10755"><ele>78.0</ele><time>2026-05-02T06:11:12.715Z</time></trkpt><trkpt lat="42.4705367" lon="14.107345"><ele>78.0</ele><time>2026-05-02T06:11:13.716Z</time></trkpt><trkpt lat="42.47048" lon="14.1071367"><ele>76.0</ele><time>2026-05-02T06:11:14.716Z</time></trkpt><trkpt lat="42.4704183" lon="14.1069333"><ele>74.0</ele><time>2026-05-02T06:11:15.716Z</time></trkpt><trkpt lat="42.47035" lon="14.1067317"><ele>72.0</ele><time>2026-05-02T06:11:16.715Z</time></trkpt><trkpt lat="42.4702683" lon="14.1065317"><ele>75.0</ele><time>2026-05-02T06:11:17.715Z</time></trkpt><trkpt lat="42.470175" lon="14.1063617"><ele>78.0</ele><time>2026-05-02T06:11:18.715Z</time></trkpt><trkpt lat="42.4700767" lon="14.106235"><ele>81.0</ele><time>2026-05-02T06:11:19.715Z</time></trkpt><trkpt lat="42.4699717" lon="14.1061233"><ele>84.0</ele><time>2026-05-02T06:11:20.715Z</time></trkpt><trkpt lat="42.469855" lon="14.106045"><ele>84.0</ele><time>2026-05-02T06:11:21.716Z</time></trkpt><trkpt lat="42.4697267" lon="14.10597"><ele>84.0</ele><time>2026-05-02T06:11:22.716Z</time></trkpt><trkpt lat="42.4696067" lon="14.1058867"><ele>84.0</ele><time>2026-05-02T06:11:23.716Z</time></trkpt><trkpt lat="42.4694917" lon="14.1057983"><ele>84.0</ele><time>2026-05-02T06:11:24.715Z</time></trkpt><trkpt lat="42.4693733" lon="14.105705"><ele>86.5</ele><time>2026-05-02T06:11:25.716Z</time></trkpt><trkpt lat="42.4692483" lon="14.10561"><ele>89.0</ele><time>2026-05-02T06:11:26.715Z</time></trkpt><trkpt lat="42.46912" lon="14.1055217"><ele>91.5</ele><time>2026-05-02T06:11:27.715Z</time></trkpt><trkpt lat="42.4689933" lon="14.1054317"><ele>94.0</ele><time>2026-05-02T06:11:28.715Z</time></trkpt><trkpt lat="42.4688683" lon="14.10535"><ele>94.66666666666666</ele><time>2026-05-02T06:11:29.715Z</time></trkpt><trkpt lat="42.46873" lon="14.105275"><ele>95.33333333333333</ele><time>2026-05-02T06:11:30.716Z</time></trkpt><trkpt lat="42.46859" lon="14.10521"><ele>96.0</ele><time>2026-05-02T06:11:31.716Z</time></trkpt><trkpt lat="42.4684383" lon="14.1051683"><ele>96.0</ele><time>2026-05-02T06:11:32.716Z</time></trkpt><trkpt lat="42.4682817" lon="14.1051367"><ele>96.0</ele><time>2026-05-02T06:11:33.716Z</time></trkpt><trkpt lat="42.4681283" lon="14.1051117"><ele>96.0</ele><time>2026-05-02T06:11:34.715Z</time></trkpt><trkpt lat="42.4679717" lon="14.105075"><ele>94.5</ele><time>2026-05-02T06:11:35.715Z</time></trkpt><trkpt lat="42.4678383" lon="14.1050333"><ele>93.0</ele><time>2026-05-02T06:11:36.716Z</time></trkpt><trkpt lat="42.467715" lon="14.104965"><ele>91.5</ele><time>2026-05-02T06:11:37.716Z</time></trkpt><trkpt lat="42.467605" lon="14.10486"><ele>90.0</ele><time>2026-05-02T06:11:38.716Z</time></trkpt><trkpt lat="42.4674917" lon="14.10473"><ele>92.5</ele><time>2026-05-02T06:11:39.716Z</time></trkpt><trkpt lat="42.467375" lon="14.1045983"><ele>95.0</ele><time>2026-05-02T06:11:40.715Z</time></trkpt><trkpt lat="42.4672633" lon="14.104485"><ele>97.5</ele><time>2026-05-02T06:11:41.715Z</time></trkpt><trkpt lat="42.4671433" lon="14.1043817"><ele>100.0</ele><time>2026-05-02T06:11:42.715Z</time></trkpt><trkpt lat="42.467025" lon="14.1042817"><ele>100.0</ele><time>2026-05-02T06:11:43.716Z</time></trkpt><trkpt lat="42.46691" lon="14.1041867"><ele>100.0</ele><time>2026-05-02T06:11:44.715Z</time></trkpt><trkpt lat="42.4667883" lon="14.1041"><ele>100.0</ele><time>2026-05-02T06:11:45.716Z</time></trkpt><trkpt lat="42.466675" lon="14.1040067"><ele>100.0</ele><time>2026-05-02T06:11:46.716Z</time></trkpt><trkpt lat="42.4665583" lon="14.1039233"><ele>99.75</ele><time>2026-05-02T06:11:47.715Z</time></trkpt><trkpt lat="42.46644" lon="14.1038683"><ele>99.5</ele><time>2026-05-02T06:11:48.716Z</time></trkpt><trkpt lat="42.46632" lon="14.1038233"><ele>99.25</ele><time>2026-05-02T06:11:49.715Z</time></trkpt><trkpt lat="42.4661933" lon="14.1038117"><ele>99.0</ele><time>2026-05-02T06:11:50.716Z</time></trkpt><trkpt lat="42.4660633" lon="14.10381"><ele>102.5</ele><time>2026-05-02T06:11:51.715Z</time></trkpt><trkpt lat="42.4659333" lon="14.103815"><ele>106.0</ele><time>2026-05-02T06:11:52.715Z</time></trkpt><trkpt lat="42.4657983" lon="14.1038233"><ele>109.5</ele><time>2026-05-02T06:11:53.715Z</time></trkpt><trkpt lat="42.46567" lon="14.1038233"><ele>113.0</ele><time>2026-05-02T06:11:54.716Z</time></trkpt><trkpt lat="42.4655417" lon="14.1038183"><ele>114.25</ele><time>2026-05-02T06:11:55.715Z</time></trkpt><trkpt lat="42.465425" lon="14.1037867"><ele>115.5</ele><time>2026-05-02T06:11:56.715Z</time></trkpt><trkpt lat="42.46531" lon="14.1037367"><ele>116.75</ele><time>2026-05-02T06:11:57.715Z</time></trkpt><trkpt lat="42.4652067" lon="14.1036783"><ele>118.0</ele><time>2026-05-02T06:11:58.716Z</time></trkpt><trkpt lat="42.4651033" lon="14.1036217"><ele>118.0</ele><time>2026-05-02T06:11:59.716Z</time></trkpt><trkpt lat="42.465005" lon="14.103565"><ele>118.0</ele><time>2026-05-02T06:12:00.715Z</time></trkpt><trkpt lat="42.4649167" lon="14.1035283"><ele>118.0</ele><time>2026-05-02T06:12:01.715Z</time></trkpt><trkpt lat="42.46482" lon="14.1034133"><ele>118.0</ele><time>2026-05-02T06:12:02.716Z</time></trkpt><trkpt lat="42.4647483" lon="14.103275"><ele>117.4</ele><time>2026-05-02T06:12:03.716Z</time></trkpt><trkpt lat="42.46467" lon="14.1031667"><ele>116.80000000000001</ele><time>2026-05-02T06:12:04.715Z</time></trkpt><trkpt lat="42.4645917" lon="14.1030917"><ele>116.2</ele><time>2026-05-02T06:12:05.715Z</time></trkpt><trkpt lat="42.464515" lon="14.10305"><ele>115.6</ele><time>2026-05-02T06:12:06.715Z</time></trkpt><trkpt lat="42.46444" lon="14.1030583"><ele>115.0</ele><time>2026-05-02T06:12:07.716Z</time></trkpt><trkpt lat="42.464355" lon="14.103165"><ele>115.6</ele><time>2026-05-02T06:12:09.716Z</time></trkpt><trkpt lat="42.4644267" lon="14.10334"><ele>116.2</ele><time>2026-05-02T06:12:11.716Z</time></trkpt><trkpt lat="42.464515" lon="14.1034117"><ele>116.80000000000001</ele><time>2026-05-02T06:12:12.716Z</time></trkpt><trkpt lat="42.464615" lon="14.103465"><ele>117.4</ele><time>2026-05-02T06:12:13.715Z</time></trkpt><trkpt lat="42.4646933" lon="14.10352"><ele>118.0</ele><time>2026-05-02T06:12:14.716Z</time></trkpt><trkpt lat="42.4647433" lon="14.1035967"><ele>118.0</ele><time>2026-05-02T06:12:15.716Z</time></trkpt><trkpt lat="42.464755" lon="14.1036833"><ele>118.00000000000001</ele><time>2026-05-02T06:12:16.715Z</time></trkpt><trkpt lat="42.4647" lon="14.10381"><ele>118.00000000000001</ele><time>2026-05-02T06:12:18.716Z</time></trkpt><trkpt lat="42.4646267" lon="14.1038517"><ele>118.0</ele><time>2026-05-02T06:12:19.716Z</time></trkpt><trkpt lat="42.464535" lon="14.1039033"><ele>118.0</ele><time>2026-05-02T06:12:20.716Z</time></trkpt><trkpt lat="42.4644117" lon="14.1039433"><ele>118.5</ele><time>2026-05-02T06:12:21.715Z</time></trkpt><trkpt lat="42.4642867" lon="14.1039733"><ele>119.0</ele><time>2026-05-02T06:12:22.715Z</time></trkpt><trkpt lat="42.4641567" lon="14.104005"><ele>119.5</ele><time>2026-05-02T06:12:23.716Z</time></trkpt><trkpt lat="42.46404" lon="14.1040317"><ele>120.0</ele><time>2026-05-02T06:12:24.716Z</time></trkpt><trkpt lat="42.46391" lon="14.1040217"><ele>120.0</ele><time>2026-05-02T06:12:25.716Z</time></trkpt><trkpt lat="42.463785" lon="14.1040283"><ele>120.0</ele><time>2026-05-02T06:12:26.716Z</time></trkpt><trkpt lat="42.4636583" lon="14.10407"><ele>120.0</ele><time>2026-05-02T06:12:27.715Z</time></trkpt><trkpt lat="42.463545" lon="14.1041083"><ele>120.0</ele><time>2026-05-02T06:12:28.716Z</time></trkpt><trkpt lat="42.463425" lon="14.1041433"><ele>122.25</ele><time>2026-05-02T06:12:29.716Z</time></trkpt><trkpt lat="42.4633183" lon="14.1041983"><ele>124.5</ele><time>2026-05-02T06:12:30.716Z</time></trkpt><trkpt lat="42.4632217" lon="14.1042883"><ele>126.75</ele><time>2026-05-02T06:12:31.716Z</time></trkpt><trkpt lat="42.4631167" lon="14.104385"><ele>129.0</ele><time>2026-05-02T06:12:32.715Z</time></trkpt><trkpt lat="42.4630217" lon="14.1044917"><ele>129.4</ele><time>2026-05-02T06:12:33.715Z</time></trkpt><trkpt lat="42.46294" lon="14.10459"><ele>129.8</ele><time>2026-05-02T06:12:34.715Z</time></trkpt><trkpt lat="42.4628567" lon="14.1046583"><ele>130.2</ele><time>2026-05-02T06:12:35.716Z</time></trkpt><trkpt lat="42.4627933" lon="14.1047217"><ele>130.6</ele><time>2026-05-02T06:12:36.716Z</time></trkpt><trkpt lat="42.4626783" lon="14.1047533"><ele>131.0</ele><time>2026-05-02T06:12:38.715Z</time></trkpt><trkpt lat="42.4626167" lon="14.104725"><ele>131.0</ele><time>2026-05-02T06:12:39.716Z</time></trkpt><trkpt lat="42.4625567" lon="14.1046983"><ele>131.0</ele><time>2026-05-02T06:12:40.716Z</time></trkpt><trkpt lat="42.4624467" lon="14.1047317"><ele>131.0</ele><time>2026-05-02T06:12:42.716Z</time></trkpt><trkpt lat="42.462435" lon="14.1048583"><ele>131.0</ele><time>2026-05-02T06:12:44.715Z</time></trkpt><trkpt lat="42.462445" lon="14.1049467"><ele>131.0</ele><time>2026-05-02T06:12:45.716Z</time></trkpt><trkpt lat="42.4624367" lon="14.1050367"><ele>131.0</ele><time>2026-05-02T06:12:46.715Z</time></trkpt><trkpt lat="42.462405" lon="14.1051317"><ele>131.5</ele><time>2026-05-02T06:12:47.716Z</time></trkpt><trkpt lat="42.46234" lon="14.1052333"><ele>132.0</ele><time>2026-05-02T06:12:48.715Z</time></trkpt><trkpt lat="42.4622233" lon="14.105335"><ele>132.5</ele><time>2026-05-02T06:12:49.715Z</time></trkpt><trkpt lat="42.4621067" lon="14.1054433"><ele>133.0</ele><time>2026-05-02T06:12:50.715Z</time></trkpt><trkpt lat="42.461985" lon="14.1055583"><ele>135.0</ele><time>2026-05-02T06:12:51.716Z</time></trkpt><trkpt lat="42.461845" lon="14.10569"><ele>137.0</ele><time>2026-05-02T06:12:52.715Z</time></trkpt><trkpt lat="42.4617067" lon="14.1058233"><ele>139.0</ele><time>2026-05-02T06:12:53.716Z</time></trkpt><trkpt lat="42.4615817" lon="14.1059483"><ele>139.0</ele><time>2026-05-02T06:12:54.716Z</time></trkpt><trkpt lat="42.461455" lon="14.106075"><ele>139.0</ele><time>2026-05-02T06:12:55.715Z</time></trkpt><trkpt lat="42.46134" lon="14.1061883"><ele>139.0</ele><time>2026-05-02T06:12:56.715Z</time></trkpt><trkpt lat="42.461225" lon="14.106285"><ele>139.0</ele><time>2026-05-02T06:12:57.716Z</time></trkpt><trkpt lat="42.4611117" lon="14.1063617"><ele>140.25</ele><time>2026-05-02T06:12:58.716Z</time></trkpt><trkpt lat="42.4609867" lon="14.1064233"><ele>141.5</ele><time>2026-05-02T06:12:59.715Z</time></trkpt><trkpt lat="42.4608667" lon="14.1064817"><ele>142.75</ele><time>2026-05-02T06:13:00.716Z</time></trkpt><trkpt lat="42.4607533" lon="14.1065567"><ele>144.0</ele><time>2026-05-02T06:13:01.715Z</time></trkpt><trkpt lat="42.4606483" lon="14.1066733"><ele>144.0</ele><time>2026-05-02T06:13:02.716Z</time></trkpt><trkpt lat="42.4605567" lon="14.1068167"><ele>144.0</ele><time>2026-05-02T06:13:03.715Z</time></trkpt><trkpt lat="42.4604733" lon="14.1069867"><ele>144.0</ele><time>2026-05-02T06:13:04.715Z</time></trkpt><trkpt lat="42.4604117" lon="14.1071833"><ele>144.0</ele><time>2026-05-02T06:13:05.716Z</time></trkpt><trkpt lat="42.460365" lon="14.1073883"><ele>148.0</ele><time>2026-05-02T06:13:06.716Z</time></trkpt><trkpt lat="42.4603333" lon="14.1075967"><ele>152.0</ele><time>2026-05-02T06:13:07.715Z</time></trkpt><trkpt lat="42.46031" lon="14.107795"><ele>156.0</ele><time>2026-05-02T06:13:08.716Z</time></trkpt><trkpt lat="42.46026" lon="14.107975"><ele>160.0</ele><time>2026-05-02T06:13:09.715Z</time></trkpt><trkpt lat="42.460195" lon="14.1081733"><ele>159.0</ele><time>2026-05-02T06:13:10.716Z</time></trkpt><trkpt lat="42.46012" lon="14.1083767"><ele>158.0</ele><time>2026-05-02T06:13:11.715Z</time></trkpt><trkpt lat="42.4600383" lon="14.1085833"><ele>157.0</ele><time>2026-05-02T06:13:12.716Z</time></trkpt><trkpt lat="42.4599517" lon="14.108775"><ele>157.0</ele><time>2026-05-02T06:13:13.716Z</time></trkpt><trkpt lat="42.4598683" lon="14.1089533"><ele>157.0</ele><time>2026-05-02T06:13:14.715Z</time></trkpt><trkpt lat="42.4597833" lon="14.1091083"><ele>157.0</ele><time>2026-05-02T06:13:15.716Z</time></trkpt><trkpt lat="42.4596717" lon="14.109235"><ele>157.0</ele><time>2026-05-02T06:13:16.715Z</time></trkpt><trkpt lat="42.459545" lon="14.1093617"><ele>159.33333333333334</ele><time>2026-05-02T06:13:17.716Z</time></trkpt><trkpt lat="42.4594083" lon="14.10949"><ele>161.66666666666666</ele><time>2026-05-02T06:13:18.716Z</time></trkpt><trkpt lat="42.4592733" lon="14.1096283"><ele>164.0</ele><time>2026-05-02T06:13:19.715Z</time></trkpt><trkpt lat="42.459155" lon="14.1097767"><ele>161.66666666666666</ele><time>2026-05-02T06:13:20.715Z</time></trkpt><trkpt lat="42.45904" lon="14.1099317"><ele>159.33333333333334</ele><time>2026-05-02T06:13:21.716Z</time></trkpt><trkpt lat="42.4589333" lon="14.1101117"><ele>157.0</ele><time>2026-05-02T06:13:22.716Z</time></trkpt><trkpt lat="42.4588183" lon="14.1103017"><ele>157.33333333333334</ele><time>2026-05-02T06:13:23.716Z</time></trkpt><trkpt lat="42.4587017" lon="14.1105017"><ele>157.66666666666666</ele><time>2026-05-02T06:13:24.716Z</time></trkpt><trkpt lat="42.458595" lon="14.1106867"><ele>158.0</ele><time>2026-05-02T06:13:25.716Z</time></trkpt><trkpt lat="42.4584917" lon="14.110855"><ele>159.0</ele><time>2026-05-02T06:13:26.715Z</time></trkpt><trkpt lat="42.4583983" lon="14.11101"><ele>160.0</ele><time>2026-05-02T06:13:27.715Z</time></trkpt><trkpt lat="42.4583183" lon="14.1111467"><ele>161.0</ele><time>2026-05-02T06:13:28.716Z</time></trkpt><trkpt lat="42.4582317" lon="14.1112483"><ele>162.0</ele><time>2026-05-02T06:13:29.716Z</time></trkpt><trkpt lat="42.4581633" lon="14.111285"><ele>162.0</ele><time>2026-05-02T06:13:30.715Z</time></trkpt><trkpt lat="42.4580783" lon="14.1112667"><ele>162.0</ele><time>2026-05-02T06:13:31.715Z</time></trkpt><trkpt lat="42.458015" lon="14.1112033"><ele>162.0</ele><time>2026-05-02T06:13:32.716Z</time></trkpt><trkpt lat="42.4579617" lon="14.1110883"><ele>162.0</ele><time>2026-05-02T06:13:33.716Z</time></trkpt><trkpt lat="42.45791" lon="14.1109567"><ele>162.0</ele><time>2026-05-02T06:13:34.715Z</time></trkpt><trkpt lat="42.457865" lon="14.11085"><ele>164.6</ele><time>2026-05-02T06:13:35.715Z</time></trkpt><trkpt lat="42.4578083" lon="14.11079"><ele>167.2</ele><time>2026-05-02T06:13:36.715Z</time></trkpt><trkpt lat="42.4577" lon="14.1108183"><ele>169.8</ele><time>2026-05-02T06:13:38.715Z</time></trkpt><trkpt lat="42.4576767" lon="14.1109133"><ele>172.4</ele><time>2026-05-02T06:13:39.715Z</time></trkpt><trkpt lat="42.45769" lon="14.1110333"><ele>175.0</ele><time>2026-05-02T06:13:40.715Z</time></trkpt><trkpt lat="42.4577267" lon="14.1111733"><ele>175.0</ele><time>2026-05-02T06:13:41.716Z</time></trkpt><trkpt lat="42.4577783" lon="14.1113467"><ele>175.0</ele><time>2026-05-02T06:13:42.715Z</time></trkpt><trkpt lat="42.457835" lon="14.1115433"><ele>175.0</ele><time>2026-05-02T06:13:43.716Z</time></trkpt><trkpt lat="42.4578883" lon="14.1117417"><ele>175.0</ele><time>2026-05-02T06:13:44.716Z</time></trkpt><trkpt lat="42.4579317" lon="14.11193"><ele>175.0</ele><time>2026-05-02T06:13:45.716Z</time></trkpt><trkpt lat="42.45797" lon="14.1121267"><ele>175.0</ele><time>2026-05-02T06:13:46.716Z</time></trkpt><trkpt lat="42.4580083" lon="14.11231"><ele>175.0</ele><time>2026-05-02T06:13:47.716Z</time></trkpt><trkpt lat="42.4580417" lon="14.1124783"><ele>175.0</ele><time>2026-05-02T06:13:48.716Z</time></trkpt><trkpt lat="42.458075" lon="14.1126467"><ele>175.0</ele><time>2026-05-02T06:13:49.716Z</time></trkpt><trkpt lat="42.458095" lon="14.1128133"><ele>175.0</ele><time>2026-05-02T06:13:50.715Z</time></trkpt><trkpt lat="42.4580983" lon="14.11297"><ele>175.0</ele><time>2026-05-02T06:13:51.715Z</time></trkpt><trkpt lat="42.458075" lon="14.1131167"><ele>175.0</ele><time>2026-05-02T06:13:52.716Z</time></trkpt><trkpt lat="42.4580367" lon="14.113265"><ele>175.75</ele><time>2026-05-02T06:13:53.716Z</time></trkpt><trkpt lat="42.4579867" lon="14.1134117"><ele>176.5</ele><time>2026-05-02T06:13:54.715Z</time></trkpt><trkpt lat="42.4579467" lon="14.1135633"><ele>177.25</ele><time>2026-05-02T06:13:55.715Z</time></trkpt><trkpt lat="42.45792" lon="14.113735"><ele>178.0</ele><time>2026-05-02T06:13:56.715Z</time></trkpt><trkpt lat="42.45792" lon="14.1139283"><ele>175.5</ele><time>2026-05-02T06:13:57.715Z</time></trkpt><trkpt lat="42.457925" lon="14.1141367"><ele>173.0</ele><time>2026-05-02T06:13:58.715Z</time></trkpt><trkpt lat="42.4579283" lon="14.1143367"><ele>170.5</ele><time>2026-05-02T06:13:59.715Z</time></trkpt><trkpt lat="42.4579183" lon="14.1145317"><ele>168.0</ele><time>2026-05-02T06:14:00.715Z</time></trkpt><trkpt lat="42.4578817" lon="14.1147183"><ele>168.0</ele><time>2026-05-02T06:14:01.715Z</time></trkpt><trkpt lat="42.45784" lon="14.1149033"><ele>168.0</ele><time>2026-05-02T06:14:02.716Z</time></trkpt><trkpt lat="42.457805" lon="14.115065"><ele>168.0</ele><time>2026-05-02T06:14:03.715Z</time></trkpt><trkpt lat="42.457795" lon="14.115225"><ele>168.0</ele><time>2026-05-02T06:14:04.715Z</time></trkpt><trkpt lat="42.457825" lon="14.1153817"><ele>167.75</ele><time>2026-05-02T06:14:05.716Z</time></trkpt><trkpt lat="42.457885" lon="14.1155233"><ele>167.5</ele><time>2026-05-02T06:14:06.715Z</time></trkpt><trkpt lat="42.4579633" lon="14.1156467"><ele>167.25</ele><time>2026-05-02T06:14:07.715Z</time></trkpt><trkpt lat="42.458075" lon="14.1157683"><ele>167.0</ele><time>2026-05-02T06:14:08.715Z</time></trkpt><trkpt lat="42.458195" lon="14.115895"><ele>167.0</ele><time>2026-05-02T06:14:09.715Z</time></trkpt><trkpt lat="42.45832" lon="14.116025"><ele>167.0</ele><time>2026-05-02T06:14:10.716Z</time></trkpt><trkpt lat="42.4584383" lon="14.11616"><ele>167.0</ele><time>2026-05-02T06:14:11.715Z</time></trkpt><trkpt lat="42.4585517" lon="14.1162967"><ele>167.0</ele><time>2026-05-02T06:14:12.716Z</time></trkpt><trkpt lat="42.4586667" lon="14.116435"><ele>167.0</ele><time>2026-05-02T06:14:13.715Z</time></trkpt><trkpt lat="42.45879" lon="14.1165633"><ele>167.0</ele><time>2026-05-02T06:14:14.715Z</time></trkpt><trkpt lat="42.4589233" lon="14.1166883"><ele>165.66666666666666</ele><time>2026-05-02T06:14:15.715Z</time></trkpt><trkpt lat="42.4590517" lon="14.1168233"><ele>164.33333333333334</ele><time>2026-05-02T06:14:16.716Z</time></trkpt><trkpt lat="42.4591967" lon="14.116945"><ele>163.0</ele><time>2026-05-02T06:14:17.716Z</time></trkpt><trkpt lat="42.4593417" lon="14.1170567"><ele>163.0</ele><time>2026-05-02T06:14:18.715Z</time></trkpt><trkpt lat="42.459485" lon="14.1171633"><ele>163.0</ele><time>2026-05-02T06:14:19.715Z</time></trkpt><trkpt lat="42.459615" lon="14.117275"><ele>163.0</ele><time>2026-05-02T06:14:20.715Z</time></trkpt><trkpt lat="42.4597467" lon="14.1173833"><ele>162.25</ele><time>2026-05-02T06:14:21.715Z</time></trkpt><trkpt lat="42.459875" lon="14.1174867"><ele>161.5</ele><time>2026-05-02T06:14:22.715Z</time></trkpt><trkpt lat="42.4599983" lon="14.11758"><ele>160.75</ele><time>2026-05-02T06:14:23.715Z</time></trkpt><trkpt lat="42.4601033" lon="14.11767"><ele>160.0</ele><time>2026-05-02T06:14:24.715Z</time></trkpt><trkpt lat="42.460195" lon="14.1177533"><ele>160.0</ele><time>2026-05-02T06:14:25.716Z</time></trkpt><trkpt lat="42.460285" lon="14.117845"><ele>160.0</ele><time>2026-05-02T06:14:26.716Z</time></trkpt><trkpt lat="42.4603633" lon="14.1179333"><ele>160.0</ele><time>2026-05-02T06:14:27.716Z</time></trkpt><trkpt lat="42.46042" lon="14.1180417"><ele>160.0</ele><time>2026-05-02T06:14:28.715Z</time></trkpt><trkpt lat="42.4604667" lon="14.1181667"><ele>160.0</ele><time>2026-05-02T06:14:29.715Z</time></trkpt><trkpt lat="42.4604883" lon="14.11831"><ele>160.25</ele><time>2026-05-02T06:14:30.716Z</time></trkpt><trkpt lat="42.4604883" lon="14.118475"><ele>160.5</ele><time>2026-05-02T06:14:31.716Z</time></trkpt><trkpt lat="42.4604683" lon="14.1186533"><ele>160.75</ele><time>2026-05-02T06:14:32.715Z</time></trkpt><trkpt lat="42.460425" lon="14.1188333"><ele>161.0</ele><time>2026-05-02T06:14:33.715Z</time></trkpt><trkpt lat="42.460375" lon="14.118995"><ele>160.8</ele><time>2026-05-02T06:14:34.715Z</time></trkpt><trkpt lat="42.4603283" lon="14.1191433"><ele>160.60000000000002</ele><time>2026-05-02T06:14:35.716Z</time></trkpt><trkpt lat="42.460285" lon="14.1192583"><ele>160.4</ele><time>2026-05-02T06:14:36.716Z</time></trkpt><trkpt lat="42.4602433" lon="14.11935"><ele>160.2</ele><time>2026-05-02T06:14:37.716Z</time></trkpt><trkpt lat="42.4602083" lon="14.119425"><ele>160.0</ele><time>2026-05-02T06:14:38.715Z</time></trkpt><trkpt lat="42.4601417" lon="14.119555"><ele>160.0</ele><time>2026-05-02T06:14:40.716Z</time></trkpt><trkpt lat="42.4600333" lon="14.119655"><ele>160.0</ele><time>2026-05-02T06:14:42.715Z</time></trkpt><trkpt lat="42.4599583" lon="14.1197083"><ele>160.0</ele><time>2026-05-02T06:14:43.715Z</time></trkpt><trkpt lat="42.45991" lon="14.1197733"><ele>160.0</ele><time>2026-05-02T06:14:44.715Z</time></trkpt><trkpt lat="42.4598833" lon="14.1198517"><ele>160.0</ele><time>2026-05-02T06:14:45.715Z</time></trkpt><trkpt lat="42.4598483" lon="14.1199433"><ele>160.0</ele><time>2026-05-02T06:14:46.715Z</time></trkpt><trkpt lat="42.4598033" lon="14.1200483"><ele>160.0</ele><time>2026-05-02T06:14:47.716Z</time></trkpt><trkpt lat="42.4597433" lon="14.120155"><ele>160.0</ele><time>2026-05-02T06:14:48.716Z</time></trkpt><trkpt lat="42.459655" lon="14.1202667"><ele>160.0</ele><time>2026-05-02T06:14:49.715Z</time></trkpt><trkpt lat="42.45955" lon="14.1203717"><ele>160.0</ele><time>2026-05-02T06:14:50.715Z</time></trkpt><trkpt lat="42.45944" lon="14.1204683"><ele>160.0</ele><time>2026-05-02T06:14:51.715Z</time></trkpt><trkpt lat="42.4593517" lon="14.1205617"><ele>160.0</ele><time>2026-05-02T06:14:52.716Z</time></trkpt><trkpt lat="42.4592667" lon="14.1206417"><ele>160.0</ele><time>2026-05-02T06:14:53.715Z</time></trkpt><trkpt lat="42.4591883" lon="14.1207217"><ele>160.0</ele><time>2026-05-02T06:14:54.716Z</time></trkpt><trkpt lat="42.4591183" lon="14.120795"><ele>160.0</ele><time>2026-05-02T06:14:55.716Z</time></trkpt><trkpt lat="42.459055" lon="14.12086"><ele>160.0</ele><time>2026-05-02T06:14:56.715Z</time></trkpt><trkpt lat="42.458995" lon="14.120915"><ele>160.0</ele><time>2026-05-02T06:14:57.715Z</time></trkpt><trkpt lat="42.458905" lon="14.1210067"><ele>160.0</ele><time>2026-05-02T06:14:59.716Z</time></trkpt><trkpt lat="42.458845" lon="14.1210433"><ele>160.0</ele><time>2026-05-02T06:15:01.716Z</time></trkpt><trkpt lat="42.458775" lon="14.1209683"><ele>160.0</ele><time>2026-05-02T06:15:03.716Z</time></trkpt><trkpt lat="42.4587267" lon="14.1209017"><ele>160.0</ele><time>2026-05-02T06:15:04.715Z</time></trkpt><trkpt lat="42.4586717" lon="14.1208367"><ele>160.16666666666669</ele><time>2026-05-02T06:15:05.715Z</time></trkpt><trkpt lat="42.4586233" lon="14.1207817"><ele>160.33333333333334</ele><time>2026-05-02T06:15:06.715Z</time></trkpt><trkpt lat="42.4585483" lon="14.1207067"><ele>160.5</ele><time>2026-05-02T06:15:08.715Z</time></trkpt><trkpt lat="42.4584767" lon="14.1206433"><ele>160.66666666666666</ele><time>2026-05-02T06:15:46.715Z</time></trkpt><trkpt lat="42.4584033" lon="14.1205633"><ele>160.83333333333331</ele><time>2026-05-02T06:15:48.715Z</time></trkpt><trkpt lat="42.458315" lon="14.1204767"><ele>161.0</ele><time>2026-05-02T06:15:50.715Z</time></trkpt><trkpt lat="42.4582667" lon="14.1204167"><ele>159.20000000000002</ele><time>2026-05-02T06:15:52.715Z</time></trkpt><trkpt lat="42.4582083" lon="14.1203167"><ele>157.4</ele><time>2026-05-02T06:16:19.714Z</time></trkpt><trkpt lat="42.4581133" lon="14.12023"><ele>155.6</ele><time>2026-05-02T06:16:21.714Z</time></trkpt><trkpt lat="42.4580533" lon="14.1201667"><ele>153.8</ele><time>2026-05-02T06:16:23.715Z</time></trkpt><trkpt lat="42.4579883" lon="14.1200667"><ele>152.0</ele><time>2026-05-02T06:16:25.715Z</time></trkpt><trkpt lat="42.4579467" lon="14.119995"><ele>150.57142857142856</ele><time>2026-05-02T06:16:26.715Z</time></trkpt><trkpt lat="42.4579033" lon="14.1199233"><ele>149.14285714285717</ele><time>2026-05-02T06:16:27.715Z</time></trkpt><trkpt lat="42.4578517" lon="14.1198483"><ele>147.71428571428572</ele><time>2026-05-02T06:16:28.715Z</time></trkpt><trkpt lat="42.4577983" lon="14.119775"><ele>146.28571428571428</ele><time>2026-05-02T06:16:29.715Z</time></trkpt><trkpt lat="42.4577483" lon="14.1196983"><ele>144.85714285714283</ele><time>2026-05-02T06:16:30.715Z</time></trkpt><trkpt lat="42.45769" lon="14.1196217"><ele>143.42857142857142</ele><time>2026-05-02T06:16:31.715Z</time></trkpt><trkpt lat="42.4576433" lon="14.1195633"><ele>142.0</ele><time>2026-05-02T06:16:32.714Z</time></trkpt><trkpt lat="42.4575833" lon="14.1194783"><ele>140.33333333333334</ele><time>2026-05-02T06:16:34.715Z</time></trkpt><trkpt lat="42.4575233" lon="14.1194017"><ele>138.66666666666669</ele><time>2026-05-02T06:16:36.714Z</time></trkpt><trkpt lat="42.4574533" lon="14.11933"><ele>137.0</ele><time>2026-05-02T06:16:38.714Z</time></trkpt><trkpt lat="42.4573833" lon="14.1192867"><ele>135.33333333333334</ele><time>2026-05-02T06:16:40.714Z</time></trkpt><trkpt lat="42.457295" lon="14.1192733"><ele>133.66666666666666</ele><time>2026-05-02T06:16:42.714Z</time></trkpt><trkpt lat="42.4571833" lon="14.1192667"><ele>132.0</ele><time>2026-05-02T06:16:44.714Z</time></trkpt><trkpt lat="42.4571183" lon="14.1192583"><ele>130.4</ele><time>2026-05-02T06:16:45.715Z</time></trkpt><trkpt lat="42.457015" lon="14.1192583"><ele>128.79999999999998</ele><time>2026-05-02T06:16:47.715Z</time></trkpt><trkpt lat="42.4568983" lon="14.1192667"><ele>127.2</ele><time>2026-05-02T06:16:49.714Z</time></trkpt><trkpt lat="42.4567817" lon="14.119285"><ele>125.6</ele><time>2026-05-02T06:16:51.714Z</time></trkpt><trkpt lat="42.4566817" lon="14.1193133"><ele>124.0</ele><time>2026-05-02T06:16:53.714Z</time></trkpt><trkpt lat="42.4565967" lon="14.1193333"><ele>124.00000000000001</ele><time>2026-05-02T06:16:55.714Z</time></trkpt><trkpt lat="42.45648" lon="14.119315"><ele>124.0</ele><time>2026-05-02T06:16:58.715Z</time></trkpt><trkpt lat="42.45641" lon="14.119315"><ele>124.0</ele><time>2026-05-02T06:17:00.714Z</time></trkpt><trkpt lat="42.45632" lon="14.1193167"><ele>124.0</ele><time>2026-05-02T06:17:02.715Z</time></trkpt><trkpt lat="42.4562433" lon="14.11933"><ele>124.00000000000001</ele><time>2026-05-02T06:17:04.714Z</time></trkpt><trkpt lat="42.456155" lon="14.1193467"><ele>124.0</ele><time>2026-05-02T06:17:07.714Z</time></trkpt><trkpt lat="42.4560883" lon="14.1193267"><ele>123.16666666666667</ele><time>2026-05-02T06:17:09.715Z</time></trkpt><trkpt lat="42.456015" lon="14.1193083"><ele>122.33333333333334</ele><time>2026-05-02T06:17:12.715Z</time></trkpt><trkpt lat="42.455925" lon="14.1192833"><ele>121.5</ele><time>2026-05-02T06:17:15.714Z</time></trkpt><trkpt lat="42.4558483" lon="14.1192433"><ele>120.66666666666666</ele><time>2026-05-02T06:17:19.714Z</time></trkpt><trkpt lat="42.4557583" lon="14.1192033"><ele>119.83333333333333</ele><time>2026-05-02T06:17:22.715Z</time></trkpt><trkpt lat="42.45568" lon="14.1191983"><ele>119.0</ele><time>2026-05-02T06:17:25.715Z</time></trkpt><trkpt lat="42.455605" lon="14.1191983"><ele>119.0</ele><time>2026-05-02T06:17:28.715Z</time></trkpt><trkpt lat="42.455535" lon="14.11921"><ele>119.0</ele><time>2026-05-02T06:17:33.715Z</time></trkpt><trkpt lat="42.455465" lon="14.119215"><ele>119.0</ele><time>2026-05-02T06:17:39.714Z</time></trkpt><trkpt lat="42.4553983" lon="14.1192033"><ele>119.0</ele><time>2026-05-02T06:17:44.715Z</time></trkpt><trkpt lat="42.45533" lon="14.119205"><ele>119.0</ele><time>2026-05-02T06:17:48.715Z</time></trkpt><trkpt lat="42.4552667" lon="14.11922"><ele>119.0</ele><time>2026-05-02T06:17:51.714Z</time></trkpt><trkpt lat="42.4551983" lon="14.1192133"><ele>119.0</ele><time>2026-05-02T06:17:56.714Z</time></trkpt><trkpt lat="42.4551233" lon="14.1191967"><ele>118.16666666666666</ele><time>2026-05-02T06:17:59.715Z</time></trkpt><trkpt lat="42.4550383" lon="14.1192033"><ele>117.33333333333333</ele><time>2026-05-02T06:18:02.715Z</time></trkpt><trkpt lat="42.4549667" lon="14.1191883"><ele>116.5</ele><time>2026-05-02T06:18:07.714Z</time></trkpt><trkpt lat="42.4548933" lon="14.1191467"><ele>115.66666666666666</ele><time>2026-05-02T06:18:12.714Z</time></trkpt><trkpt lat="42.4548283" lon="14.11911"><ele>114.83333333333333</ele><time>2026-05-02T06:18:16.714Z</time></trkpt><trkpt lat="42.4548067" lon="14.119015"><ele>114.0</ele><time>2026-05-02T06:18:21.715Z</time></trkpt><trkpt lat="42.454815" lon="14.11891"><ele>113.4</ele><time>2026-05-02T06:18:24.715Z</time></trkpt><trkpt lat="42.454855" lon="14.1187883"><ele>112.80000000000001</ele><time>2026-05-02T06:18:27.715Z</time></trkpt><trkpt lat="42.4549033" lon="14.1186667"><ele>112.19999999999999</ele><time>2026-05-02T06:18:29.715Z</time></trkpt><trkpt lat="42.4549067" lon="14.1185417"><ele>111.6</ele><time>2026-05-02T06:18:30.714Z</time></trkpt><trkpt lat="42.4549033" lon="14.1183933"><ele>111.0</ele><time>2026-05-02T06:18:32.714Z</time></trkpt><trkpt lat="42.4548983" lon="14.118265"><ele>112.0</ele><time>2026-05-02T06:18:34.715Z</time></trkpt><trkpt lat="42.45492" lon="14.1181367"><ele>113.0</ele><time>2026-05-02T06:18:36.714Z</time></trkpt><trkpt lat="42.454955" lon="14.11799"><ele>114.0</ele><time>2026-05-02T06:18:38.714Z</time></trkpt><trkpt lat="42.4549833" lon="14.11783"><ele>115.0</ele><time>2026-05-02T06:18:40.715Z</time></trkpt><trkpt lat="42.4549867" lon="14.1177367"><ele>116.0</ele><time>2026-05-02T06:18:41.714Z</time></trkpt><trkpt lat="42.4549933" lon="14.1176467"><ele>115.99999999999999</ele><time>2026-05-02T06:18:42.714Z</time></trkpt><trkpt lat="42.4549967" lon="14.11756"><ele>116.0</ele><time>2026-05-02T06:18:43.715Z</time></trkpt><trkpt lat="42.4549933" lon="14.1174167"><ele>116.0</ele><time>2026-05-02T06:18:45.714Z</time></trkpt><trkpt lat="42.454985" lon="14.1172983"><ele>116.0</ele><time>2026-05-02T06:18:47.715Z</time></trkpt><trkpt lat="42.4549483" lon="14.117225"><ele>115.99999999999999</ele><time>2026-05-02T06:18:50.715Z</time></trkpt><trkpt lat="42.4548867" lon="14.1172017"><ele>116.0</ele><time>2026-05-02T06:18:52.715Z</time></trkpt><trkpt lat="42.4547833" lon="14.1171867"><ele>117.16666666666666</ele><time>2026-05-02T06:18:54.714Z</time></trkpt><trkpt lat="42.4546767" lon="14.1171617"><ele>118.33333333333333</ele><time>2026-05-02T06:18:56.715Z</time></trkpt><trkpt lat="42.4545567" lon="14.117115"><ele>119.5</ele><time>2026-05-02T06:18:58.714Z</time></trkpt><trkpt lat="42.4544933" lon="14.117095"><ele>120.66666666666666</ele><time>2026-05-02T06:18:59.714Z</time></trkpt><trkpt lat="42.454425" lon="14.1170717"><ele>121.83333333333333</ele><time>2026-05-02T06:19:00.715Z</time></trkpt><trkpt lat="42.4543567" lon="14.117055"><ele>123.0</ele><time>2026-05-02T06:19:01.714Z</time></trkpt><trkpt lat="42.45429" lon="14.1170417"><ele>123.33333333333333</ele><time>2026-05-02T06:19:02.715Z</time></trkpt><trkpt lat="42.454215" lon="14.1170267"><ele>123.66666666666666</ele><time>2026-05-02T06:19:03.715Z</time></trkpt><trkpt lat="42.45414" lon="14.1170067"><ele>124.0</ele><time>2026-05-02T06:19:04.714Z</time></trkpt><trkpt lat="42.4540667" lon="14.1169917"><ele>124.33333333333333</ele><time>2026-05-02T06:19:05.714Z</time></trkpt><trkpt lat="42.4539967" lon="14.1169783"><ele>124.66666666666666</ele><time>2026-05-02T06:19:06.715Z</time></trkpt><trkpt lat="42.4539333" lon="14.1169733"><ele>125.0</ele><time>2026-05-02T06:19:07.714Z</time></trkpt><trkpt lat="42.4538217" lon="14.1169583"><ele>125.4</ele><time>2026-05-02T06:19:09.715Z</time></trkpt><trkpt lat="42.4537" lon="14.116955"><ele>125.8</ele><time>2026-05-02T06:19:11.715Z</time></trkpt><trkpt lat="42.4535917" lon="14.1169967"><ele>126.19999999999999</ele><time>2026-05-02T06:19:13.714Z</time></trkpt><trkpt lat="42.453485" lon="14.117095"><ele>126.6</ele><time>2026-05-02T06:19:15.715Z</time></trkpt><trkpt lat="42.453415" lon="14.11716"><ele>127.0</ele><time>2026-05-02T06:19:16.714Z</time></trkpt><trkpt lat="42.4533483" lon="14.1172183"><ele>127.00000000000001</ele><time>2026-05-02T06:19:17.715Z</time></trkpt><trkpt lat="42.4532817" lon="14.11727"><ele>127.0</ele><time>2026-05-02T06:19:18.715Z</time></trkpt><trkpt lat="42.453215" lon="14.1173083"><ele>127.0</ele><time>2026-05-02T06:19:19.715Z</time></trkpt><trkpt lat="42.4531533" lon="14.1173467"><ele>127.0</ele><time>2026-05-02T06:19:20.715Z</time></trkpt><trkpt lat="42.4530317" lon="14.1174"><ele>127.00000000000001</ele><time>2026-05-02T06:19:22.715Z</time></trkpt><trkpt lat="42.45295" lon="14.1174067"><ele>127.0</ele><time>2026-05-02T06:19:23.714Z</time></trkpt><trkpt lat="42.4528683" lon="14.1174167"><ele>127.6</ele><time>2026-05-02T06:19:24.715Z</time></trkpt><trkpt lat="42.452795" lon="14.1174183"><ele>128.2</ele><time>2026-05-02T06:19:25.714Z</time></trkpt><trkpt lat="42.4526667" lon="14.1174033"><ele>128.8</ele><time>2026-05-02T06:19:27.715Z</time></trkpt><trkpt lat="42.4525717" lon="14.1173283"><ele>129.4</ele><time>2026-05-02T06:19:29.715Z</time></trkpt><trkpt lat="42.4525267" lon="14.1172017"><ele>130.0</ele><time>2026-05-02T06:19:31.714Z</time></trkpt><trkpt lat="42.4524967" lon="14.117115"><ele>130.0</ele><time>2026-05-02T06:19:32.715Z</time></trkpt><trkpt lat="42.4524583" lon="14.1170083"><ele>130.0</ele><time>2026-05-02T06:19:33.714Z</time></trkpt><trkpt lat="42.4524133" lon="14.1169033"><ele>130.0</ele><time>2026-05-02T06:19:34.715Z</time></trkpt><trkpt lat="42.452365" lon="14.1167983"><ele>130.0</ele><time>2026-05-02T06:19:35.714Z</time></trkpt><trkpt lat="42.452315" lon="14.1167017"><ele>130.0</ele><time>2026-05-02T06:19:36.714Z</time></trkpt><trkpt lat="42.4522533" lon="14.1166083"><ele>130.0</ele><time>2026-05-02T06:19:37.714Z</time></trkpt><trkpt lat="42.4521833" lon="14.116525"><ele>131.16666666666669</ele><time>2026-05-02T06:19:38.715Z</time></trkpt><trkpt lat="42.45212" lon="14.1164567"><ele>132.33333333333334</ele><time>2026-05-02T06:19:39.715Z</time></trkpt><trkpt lat="42.4520583" lon="14.1164083"><ele>133.5</ele><time>2026-05-02T06:19:40.714Z</time></trkpt><trkpt lat="42.4519817" lon="14.1163733"><ele>134.66666666666666</ele><time>2026-05-02T06:19:41.715Z</time></trkpt><trkpt lat="42.4518917" lon="14.11636"><ele>135.83333333333331</ele><time>2026-05-02T06:19:42.714Z</time></trkpt><trkpt lat="42.451805" lon="14.116355"><ele>137.0</ele><time>2026-05-02T06:19:43.714Z</time></trkpt><trkpt lat="42.451725" lon="14.11636"><ele>137.0</ele><time>2026-05-02T06:19:44.714Z</time></trkpt><trkpt lat="42.451655" lon="14.1163617"><ele>137.0</ele><time>2026-05-02T06:19:45.715Z</time></trkpt><trkpt lat="42.4515917" lon="14.116365"><ele>137.0</ele><time>2026-05-02T06:19:46.714Z</time></trkpt><trkpt lat="42.4514717" lon="14.116365"><ele>137.0</ele><time>2026-05-02T06:19:48.715Z</time></trkpt><trkpt lat="42.4514067" lon="14.1163567"><ele>137.0</ele><time>2026-05-02T06:19:49.714Z</time></trkpt><trkpt lat="42.4513417" lon="14.1163367"><ele>137.0</ele><time>2026-05-02T06:19:50.715Z</time></trkpt><trkpt lat="42.4512383" lon="14.1162567"><ele>133.83333333333331</ele><time>2026-05-02T06:19:52.714Z</time></trkpt><trkpt lat="42.451165" lon="14.1161833"><ele>130.66666666666666</ele><time>2026-05-02T06:19:54.714Z</time></trkpt><trkpt lat="42.4510917" lon="14.1161633"><ele>127.5</ele><time>2026-05-02T06:19:57.714Z</time></trkpt><trkpt lat="42.45101" lon="14.11619"><ele>124.33333333333334</ele><time>2026-05-02T06:19:59.714Z</time></trkpt><trkpt lat="42.4509233" lon="14.1162233"><ele>121.16666666666667</ele><time>2026-05-02T06:20:01.715Z</time></trkpt><trkpt lat="42.4508367" lon="14.1162683"><ele>118.0</ele><time>2026-05-02T06:20:03.715Z</time></trkpt><trkpt lat="42.4507417" lon="14.1163233"><ele>118.0</ele><time>2026-05-02T06:20:05.715Z</time></trkpt><trkpt lat="42.45065" lon="14.1163767"><ele>118.00000000000001</ele><time>2026-05-02T06:20:07.715Z</time></trkpt><trkpt lat="42.450555" lon="14.1164467"><ele>118.00000000000001</ele><time>2026-05-02T06:20:09.715Z</time></trkpt><trkpt lat="42.450475" lon="14.1165267"><ele>118.0</ele><time>2026-05-02T06:20:11.715Z</time></trkpt><trkpt lat="42.4503967" lon="14.1166083"><ele>118.0</ele><time>2026-05-02T06:20:13.714Z</time></trkpt><trkpt lat="42.4503167" lon="14.116695"><ele>115.80000000000001</ele><time>2026-05-02T06:20:15.714Z</time></trkpt><trkpt lat="42.4502233" lon="14.11679"><ele>113.60000000000001</ele><time>2026-05-02T06:20:17.714Z</time></trkpt><trkpt lat="42.4501333" lon="14.116885"><ele>111.39999999999999</ele><time>2026-05-02T06:20:19.714Z</time></trkpt><trkpt lat="42.4500383" lon="14.116965"><ele>109.19999999999999</ele><time>2026-05-02T06:20:21.714Z</time></trkpt><trkpt lat="42.4499483" lon="14.1170317"><ele>107.0</ele><time>2026-05-02T06:20:23.714Z</time></trkpt><trkpt lat="42.44985" lon="14.1171017"><ele>107.0</ele><time>2026-05-02T06:20:25.714Z</time></trkpt><trkpt lat="42.44974" lon="14.117165"><ele>106.99999999999999</ele><time>2026-05-02T06:20:27.713Z</time></trkpt><trkpt lat="42.44962" lon="14.1172133"><ele>106.99999999999999</ele><time>2026-05-02T06:20:29.713Z</time></trkpt><trkpt lat="42.4495567" lon="14.1172283"><ele>107.0</ele><time>2026-05-02T06:20:30.714Z</time></trkpt><trkpt lat="42.44949" lon="14.1172367"><ele>107.0</ele><time>2026-05-02T06:20:31.714Z</time></trkpt><trkpt lat="42.44937" lon="14.1172117"><ele>105.33333333333333</ele><time>2026-05-02T06:20:33.713Z</time></trkpt><trkpt lat="42.4492633" lon="14.117185"><ele>103.66666666666666</ele><time>2026-05-02T06:20:35.714Z</time></trkpt><trkpt lat="42.4491783" lon="14.1171567"><ele>102.0</ele><time>2026-05-02T06:20:37.714Z</time></trkpt><trkpt lat="42.4491033" lon="14.117135"><ele>100.33333333333334</ele><time>2026-05-02T06:20:39.714Z</time></trkpt><trkpt lat="42.449025" lon="14.1171333"><ele>98.66666666666667</ele><time>2026-05-02T06:20:51.713Z</time></trkpt><trkpt lat="42.448945" lon="14.1171167"><ele>97.0</ele><time>2026-05-02T06:20:53.713Z</time></trkpt><trkpt lat="42.448845" lon="14.1170933"><ele>96.66666666666667</ele><time>2026-05-02T06:20:55.714Z</time></trkpt><trkpt lat="42.4487683" lon="14.1170733"><ele>96.33333333333334</ele><time>2026-05-02T06:20:57.714Z</time></trkpt><trkpt lat="42.4486883" lon="14.1170767"><ele>96.0</ele><time>2026-05-02T06:21:00.713Z</time></trkpt><trkpt lat="42.4486083" lon="14.1170967"><ele>95.66666666666667</ele><time>2026-05-02T06:21:03.713Z</time></trkpt><trkpt lat="42.4485533" lon="14.1171667"><ele>95.33333333333334</ele><time>2026-05-02T06:21:06.714Z</time></trkpt><trkpt lat="42.4485333" lon="14.1172967"><ele>95.0</ele><time>2026-05-02T06:21:09.713Z</time></trkpt><trkpt lat="42.44853" lon="14.117385"><ele>94.0</ele><time>2026-05-02T06:21:11.713Z</time></trkpt><trkpt lat="42.4485183" lon="14.11748"><ele>93.0</ele><time>2026-05-02T06:21:14.713Z</time></trkpt><trkpt lat="42.4484967" lon="14.1175767"><ele>92.0</ele><time>2026-05-02T06:21:19.714Z</time></trkpt><trkpt lat="42.44852" lon="14.1176733"><ele>91.0</ele><time>2026-05-02T06:21:21.713Z</time></trkpt><trkpt lat="42.4485383" lon="14.1177817"><ele>90.0</ele><time>2026-05-02T06:21:24.714Z</time></trkpt><trkpt lat="42.4485483" lon="14.11787"><ele>89.0</ele><time>2026-05-02T06:21:27.714Z</time></trkpt><trkpt lat="42.4485567" lon="14.1179933"><ele>89.0</ele><time>2026-05-02T06:21:30.713Z</time></trkpt><trkpt lat="42.4485467" lon="14.11811"><ele>89.0</ele><time>2026-05-02T06:21:33.713Z</time></trkpt><trkpt lat="42.448535" lon="14.1182033"><ele>89.0</ele><time>2026-05-02T06:21:35.713Z</time></trkpt><trkpt lat="42.4485433" lon="14.1183067"><ele>89.0</ele><time>2026-05-02T06:21:37.714Z</time></trkpt><trkpt lat="42.448565" lon="14.1184567"><ele>89.0</ele><time>2026-05-02T06:21:39.713Z</time></trkpt><trkpt lat="42.4485833" lon="14.1186067"><ele>89.0</ele><time>2026-05-02T06:21:41.714Z</time></trkpt><trkpt lat="42.4485967" lon="14.1187467"><ele>89.0</ele><time>2026-05-02T06:21:43.713Z</time></trkpt><trkpt lat="42.4486133" lon="14.118895"><ele>89.0</ele><time>2026-05-02T06:21:45.714Z</time></trkpt><trkpt lat="42.4486267" lon="14.1190367"><ele>89.0</ele><time>2026-05-02T06:21:47.713Z</time></trkpt><trkpt lat="42.4486333" lon="14.119145"><ele>89.0</ele><time>2026-05-02T06:21:49.713Z</time></trkpt><trkpt lat="42.4486367" lon="14.1192867"><ele>90.4</ele><time>2026-05-02T06:22:14.714Z</time></trkpt><trkpt lat="42.4486433" lon="14.1193917"><ele>91.80000000000001</ele><time>2026-05-02T06:22:17.714Z</time></trkpt><trkpt lat="42.4486417" lon="14.11952"><ele>93.19999999999999</ele><time>2026-05-02T06:22:35.713Z</time></trkpt><trkpt lat="42.44865" lon="14.1197133"><ele>94.6</ele><time>2026-05-02T06:24:29.713Z</time></trkpt><trkpt lat="42.4486467" lon="14.11983"><ele>96.0</ele><time>2026-05-02T06:24:32.713Z</time></trkpt><trkpt lat="42.44866" lon="14.11992"><ele>97.42857142857142</ele><time>2026-05-02T06:24:35.714Z</time></trkpt><trkpt lat="42.4486617" lon="14.120025"><ele>98.85714285714286</ele><time>2026-05-02T06:24:38.714Z</time></trkpt><trkpt lat="42.448665" lon="14.1201117"><ele>100.28571428571428</ele><time>2026-05-02T06:24:41.713Z</time></trkpt><trkpt lat="42.44867" lon="14.1202083"><ele>101.71428571428571</ele><time>2026-05-02T06:24:45.713Z</time></trkpt><trkpt lat="42.448665" lon="14.120305"><ele>103.14285714285714</ele><time>2026-05-02T06:24:56.714Z</time></trkpt><trkpt lat="42.4486633" lon="14.120395"><ele>104.57142857142857</ele><time>2026-05-02T06:25:00.713Z</time></trkpt><trkpt lat="42.4486633" lon="14.1205117"><ele>106.0</ele><time>2026-05-02T06:25:04.714Z</time></trkpt><trkpt lat="42.4486617" lon="14.1206267"><ele>108.00000000000001</ele><time>2026-05-02T06:25:07.713Z</time></trkpt><trkpt lat="42.4486633" lon="14.12075"><ele>110.0</ele><time>2026-05-02T06:25:10.713Z</time></trkpt><trkpt lat="42.4486667" lon="14.1208383"><ele>112.0</ele><time>2026-05-02T06:25:12.712Z</time></trkpt><trkpt lat="42.4486667" lon="14.1209283"><ele>114.0</ele><time>2026-05-02T06:25:14.713Z</time></trkpt><trkpt lat="42.4486717" lon="14.12104"><ele>116.00000000000001</ele><time>2026-05-02T06:25:16.712Z</time></trkpt><trkpt lat="42.4486767" lon="14.1211333"><ele>118.0</ele><time>2026-05-02T06:25:18.712Z</time></trkpt><trkpt lat="42.4486767" lon="14.12124"><ele>118.0</ele><time>2026-05-02T06:25:20.713Z</time></trkpt><trkpt lat="42.4486817" lon="14.1213483"><ele>118.00000000000001</ele><time>2026-05-02T06:25:22.712Z</time></trkpt><trkpt lat="42.448685" lon="14.121465"><ele>118.00000000000001</ele><time>2026-05-02T06:25:24.713Z</time></trkpt><trkpt lat="42.4486833" lon="14.1216083"><ele>118.0</ele><time>2026-05-02T06:25:26.713Z</time></trkpt><trkpt lat="42.4486983" lon="14.1217717"><ele>118.0</ele><time>2026-05-02T06:25:28.712Z</time></trkpt><trkpt lat="42.4487133" lon="14.1218633"><ele>119.33333333333334</ele><time>2026-05-02T06:25:29.713Z</time></trkpt><trkpt lat="42.4487333" lon="14.12196"><ele>120.66666666666667</ele><time>2026-05-02T06:25:30.712Z</time></trkpt><trkpt lat="42.4487567" lon="14.1220583"><ele>122.0</ele><time>2026-05-02T06:25:31.712Z</time></trkpt><trkpt lat="42.4487783" lon="14.1221533"><ele>123.33333333333334</ele><time>2026-05-02T06:25:32.712Z</time></trkpt><trkpt lat="42.448805" lon="14.12224"><ele>124.66666666666667</ele><time>2026-05-02T06:25:33.713Z</time></trkpt><trkpt lat="42.4488567" lon="14.122395"><ele>126.0</ele><time>2026-05-02T06:25:35.713Z</time></trkpt><trkpt lat="42.4489033" lon="14.1225383"><ele>126.66666666666667</ele><time>2026-05-02T06:25:37.713Z</time></trkpt><trkpt lat="42.4488817" lon="14.1226217"><ele>127.33333333333334</ele><time>2026-05-02T06:25:40.712Z</time></trkpt><trkpt lat="42.4488167" lon="14.1226"><ele>128.0</ele><time>2026-05-02T06:25:42.712Z</time></trkpt><trkpt lat="42.44874" lon="14.1225733"><ele>128.66666666666669</ele><time>2026-05-02T06:25:45.713Z</time></trkpt><trkpt lat="42.4486617" lon="14.122575"><ele>129.33333333333334</ele><time>2026-05-02T06:26:00.713Z</time></trkpt><trkpt lat="42.4485717" lon="14.12253"><ele>130.0</ele><time>2026-05-02T06:26:02.713Z</time></trkpt><trkpt lat="42.44851" lon="14.1224933"><ele>130.0</ele><time>2026-05-02T06:26:03.713Z</time></trkpt><trkpt lat="42.4484433" lon="14.122455"><ele>130.0</ele><time>2026-05-02T06:26:04.713Z</time></trkpt><trkpt lat="42.4483733" lon="14.1224117"><ele>130.0</ele><time>2026-05-02T06:26:05.712Z</time></trkpt><trkpt lat="42.4483067" lon="14.1223783"><ele>130.0</ele><time>2026-05-02T06:26:06.713Z</time></trkpt><trkpt lat="42.4482367" lon="14.1223383"><ele>130.0</ele><time>2026-05-02T06:26:07.712Z</time></trkpt><trkpt lat="42.4481633" lon="14.122285"><ele>130.0</ele><time>2026-05-02T06:26:08.712Z</time></trkpt><trkpt lat="42.4480933" lon="14.1222283"><ele>129.5</ele><time>2026-05-02T06:26:09.712Z</time></trkpt><trkpt lat="42.44802" lon="14.1221783"><ele>129.0</ele><time>2026-05-02T06:26:10.712Z</time></trkpt><trkpt lat="42.44795" lon="14.1221267"><ele>128.5</ele><time>2026-05-02T06:26:11.712Z</time></trkpt><trkpt lat="42.4478783" lon="14.1220733"><ele>128.0</ele><time>2026-05-02T06:26:12.713Z</time></trkpt><trkpt lat="42.447805" lon="14.12203"><ele>127.50000000000001</ele><time>2026-05-02T06:26:13.712Z</time></trkpt><trkpt lat="42.4477283" lon="14.12198"><ele>127.0</ele><time>2026-05-02T06:26:14.713Z</time></trkpt><trkpt lat="42.4476533" lon="14.1219233"><ele>128.33333333333334</ele><time>2026-05-02T06:26:15.713Z</time></trkpt><trkpt lat="42.4475833" lon="14.121875"><ele>129.66666666666669</ele><time>2026-05-02T06:26:16.712Z</time></trkpt><trkpt lat="42.4475033" lon="14.1218317"><ele>131.0</ele><time>2026-05-02T06:26:17.713Z</time></trkpt><trkpt lat="42.4474283" lon="14.1217917"><ele>132.33333333333334</ele><time>2026-05-02T06:26:18.713Z</time></trkpt><trkpt lat="42.447345" lon="14.1217733"><ele>133.66666666666666</ele><time>2026-05-02T06:26:19.712Z</time></trkpt><trkpt lat="42.447255" lon="14.1217583"><ele>135.0</ele><time>2026-05-02T06:26:20.712Z</time></trkpt><trkpt lat="42.4471533" lon="14.1217517"><ele>134.4</ele><time>2026-05-02T06:26:21.713Z</time></trkpt><trkpt lat="42.44705" lon="14.1217433"><ele>133.8</ele><time>2026-05-02T06:26:22.712Z</time></trkpt><trkpt lat="42.446945" lon="14.1217233"><ele>133.2</ele><time>2026-05-02T06:26:23.713Z</time></trkpt><trkpt lat="42.4468417" lon="14.1217117"><ele>132.6</ele><time>2026-05-02T06:26:24.712Z</time></trkpt><trkpt lat="42.4467367" lon="14.1217067"><ele>132.0</ele><time>2026-05-02T06:26:25.712Z</time></trkpt><trkpt lat="42.4466333" lon="14.1216983"><ele>132.0</ele><time>2026-05-02T06:26:26.712Z</time></trkpt><trkpt lat="42.44653" lon="14.1217183"><ele>132.0</ele><time>2026-05-02T06:26:27.713Z</time></trkpt><trkpt lat="42.446415" lon="14.1217517"><ele>132.0</ele><time>2026-05-02T06:26:28.712Z</time></trkpt><trkpt lat="42.4463117" lon="14.1217933"><ele>132.0</ele><time>2026-05-02T06:26:29.713Z</time></trkpt><trkpt lat="42.44621" lon="14.12182"><ele>132.0</ele><time>2026-05-02T06:26:30.712Z</time></trkpt><trkpt lat="42.44611" lon="14.121835"><ele>131.33333333333334</ele><time>2026-05-02T06:26:31.712Z</time></trkpt><trkpt lat="42.4460167" lon="14.121855"><ele>130.66666666666666</ele><time>2026-05-02T06:26:32.713Z</time></trkpt><trkpt lat="42.4459367" lon="14.1218817"><ele>130.0</ele><time>2026-05-02T06:26:33.713Z</time></trkpt><trkpt lat="42.4458617" lon="14.1219067"><ele>129.33333333333331</ele><time>2026-05-02T06:26:34.713Z</time></trkpt><trkpt lat="42.4457883" lon="14.12194"><ele>128.66666666666666</ele><time>2026-05-02T06:26:35.712Z</time></trkpt><trkpt lat="42.4457167" lon="14.1219933"><ele>128.0</ele><time>2026-05-02T06:26:36.712Z</time></trkpt><trkpt lat="42.4456417" lon="14.122065"><ele>128.0</ele><time>2026-05-02T06:26:37.712Z</time></trkpt><trkpt lat="42.445565" lon="14.1221433"><ele>128.0</ele><time>2026-05-02T06:26:38.712Z</time></trkpt><trkpt lat="42.4454967" lon="14.1222433"><ele>128.0</ele><time>2026-05-02T06:26:39.713Z</time></trkpt><trkpt lat="42.445425" lon="14.12235"><ele>128.0</ele><time>2026-05-02T06:26:40.712Z</time></trkpt><trkpt lat="42.4453433" lon="14.1224533"><ele>128.0</ele><time>2026-05-02T06:26:41.712Z</time></trkpt><trkpt lat="42.4452467" lon="14.122545"><ele>127.60000000000001</ele><time>2026-05-02T06:26:42.712Z</time></trkpt><trkpt lat="42.4451467" lon="14.1226167"><ele>127.20000000000002</ele><time>2026-05-02T06:26:43.713Z</time></trkpt><trkpt lat="42.445045" lon="14.1226717"><ele>126.8</ele><time>2026-05-02T06:26:44.713Z</time></trkpt><trkpt lat="42.444945" lon="14.1227133"><ele>126.4</ele><time>2026-05-02T06:26:45.712Z</time></trkpt><trkpt lat="42.4448467" lon="14.1227717"><ele>126.0</ele><time>2026-05-02T06:26:46.712Z</time></trkpt><trkpt lat="42.4447583" lon="14.1228417"><ele>126.0</ele><time>2026-05-02T06:26:47.713Z</time></trkpt><trkpt lat="42.4446717" lon="14.1229367"><ele>126.0</ele><time>2026-05-02T06:26:48.713Z</time></trkpt><trkpt lat="42.44459" lon="14.123035"><ele>126.0</ele><time>2026-05-02T06:26:49.712Z</time></trkpt><trkpt lat="42.44451" lon="14.1231483"><ele>126.0</ele><time>2026-05-02T06:26:50.712Z</time></trkpt><trkpt lat="42.4444317" lon="14.1232633"><ele>124.6</ele><time>2026-05-02T06:26:51.712Z</time></trkpt><trkpt lat="42.444345" lon="14.1233483"><ele>123.19999999999999</ele><time>2026-05-02T06:26:52.712Z</time></trkpt><trkpt lat="42.44426" lon="14.1234083"><ele>121.80000000000001</ele><time>2026-05-02T06:26:53.712Z</time></trkpt><trkpt lat="42.4441733" lon="14.1234383"><ele>120.4</ele><time>2026-05-02T06:26:54.713Z</time></trkpt><trkpt lat="42.4440667" lon="14.1234433"><ele>119.0</ele><time>2026-05-02T06:26:55.712Z</time></trkpt><trkpt lat="42.4439583" lon="14.1234333"><ele>119.0</ele><time>2026-05-02T06:26:56.712Z</time></trkpt><trkpt lat="42.4438517" lon="14.123415"><ele>119.0</ele><time>2026-05-02T06:26:57.712Z</time></trkpt><trkpt lat="42.443745" lon="14.1234367"><ele>119.0</ele><time>2026-05-02T06:26:58.712Z</time></trkpt><trkpt lat="42.4436317" lon="14.1234783"><ele>119.0</ele><time>2026-05-02T06:26:59.713Z</time></trkpt><trkpt lat="42.443505" lon="14.1235183"><ele>117.0</ele><time>2026-05-02T06:27:00.712Z</time></trkpt><trkpt lat="42.4433767" lon="14.1235617"><ele>115.0</ele><time>2026-05-02T06:27:01.712Z</time></trkpt><trkpt lat="42.4432417" lon="14.1236"><ele>113.0</ele><time>2026-05-02T06:27:02.713Z</time></trkpt><trkpt lat="42.4431067" lon="14.1236417"><ele>111.0</ele><time>2026-05-02T06:27:03.712Z</time></trkpt><trkpt lat="42.4429767" lon="14.1236767"><ele>109.5</ele><time>2026-05-02T06:27:04.713Z</time></trkpt><trkpt lat="42.442845" lon="14.1237217"><ele>108.0</ele><time>2026-05-02T06:27:05.713Z</time></trkpt><trkpt lat="42.44271" lon="14.12377"><ele>106.5</ele><time>2026-05-02T06:27:06.712Z</time></trkpt><trkpt lat="42.4425733" lon="14.123815"><ele>105.0</ele><time>2026-05-02T06:27:07.713Z</time></trkpt><trkpt lat="42.44243" lon="14.1238533"><ele>105.0</ele><time>2026-05-02T06:27:08.712Z</time></trkpt><trkpt lat="42.4422867" lon="14.1238883"><ele>105.0</ele><time>2026-05-02T06:27:09.713Z</time></trkpt><trkpt lat="42.442145" lon="14.1239067"><ele>105.0</ele><time>2026-05-02T06:27:10.712Z</time></trkpt><trkpt lat="42.4420067" lon="14.1239217"><ele>105.0</ele><time>2026-05-02T06:27:11.713Z</time></trkpt><trkpt lat="42.44187" lon="14.12392"><ele>107.0</ele><time>2026-05-02T06:27:12.713Z</time></trkpt><trkpt lat="42.4417317" lon="14.1239033"><ele>109.0</ele><time>2026-05-02T06:27:13.713Z</time></trkpt><trkpt lat="42.4416033" lon="14.1238767"><ele>111.0</ele><time>2026-05-02T06:27:14.712Z</time></trkpt><trkpt lat="42.4414917" lon="14.1238517"><ele>113.0</ele><time>2026-05-02T06:27:15.712Z</time></trkpt><trkpt lat="42.4413967" lon="14.1238283"><ele>113.0</ele><time>2026-05-02T06:27:16.713Z</time></trkpt><trkpt lat="42.441305" lon="14.123785"><ele>113.0</ele><time>2026-05-02T06:27:17.713Z</time></trkpt><trkpt lat="42.4412067" lon="14.1237283"><ele>113.0</ele><time>2026-05-02T06:27:18.712Z</time></trkpt><trkpt lat="42.441095" lon="14.1236583"><ele>113.0</ele><time>2026-05-02T06:27:19.713Z</time></trkpt><trkpt lat="42.4409783" lon="14.1235767"><ele>111.25</ele><time>2026-05-02T06:27:20.712Z</time></trkpt><trkpt lat="42.4408667" lon="14.1235033"><ele>109.5</ele><time>2026-05-02T06:27:21.712Z</time></trkpt><trkpt lat="42.4407567" lon="14.1234383"><ele>107.75</ele><time>2026-05-02T06:27:22.712Z</time></trkpt><trkpt lat="42.44065" lon="14.1233783"><ele>106.0</ele><time>2026-05-02T06:27:23.712Z</time></trkpt><trkpt lat="42.4405367" lon="14.1233283"><ele>106.25</ele><time>2026-05-02T06:27:24.713Z</time></trkpt><trkpt lat="42.4404133" lon="14.1232867"><ele>106.5</ele><time>2026-05-02T06:27:25.712Z</time></trkpt><trkpt lat="42.4402917" lon="14.1232517"><ele>106.75</ele><time>2026-05-02T06:27:26.713Z</time></trkpt><trkpt lat="42.4401717" lon="14.12323"><ele>107.0</ele><time>2026-05-02T06:27:27.713Z</time></trkpt><trkpt lat="42.4400567" lon="14.12322"><ele>107.0</ele><time>2026-05-02T06:27:28.713Z</time></trkpt><trkpt lat="42.43994" lon="14.1232133"><ele>107.0</ele><time>2026-05-02T06:27:29.713Z</time></trkpt><trkpt lat="42.4398283" lon="14.12321"><ele>107.0</ele><time>2026-05-02T06:27:30.712Z</time></trkpt><trkpt lat="42.4397167" lon="14.123215"><ele>107.0</ele><time>2026-05-02T06:27:31.713Z</time></trkpt><trkpt lat="42.4395967" lon="14.1232483"><ele>100.25</ele><time>2026-05-02T06:27:32.713Z</time></trkpt><trkpt lat="42.4394717" lon="14.1232967"><ele>93.5</ele><time>2026-05-02T06:27:33.713Z</time></trkpt><trkpt lat="42.439345" lon="14.123355"><ele>86.75</ele><time>2026-05-02T06:27:34.713Z</time></trkpt><trkpt lat="42.4392167" lon="14.12341"><ele>80.0</ele><time>2026-05-02T06:27:35.712Z</time></trkpt><trkpt lat="42.4390867" lon="14.1234467"><ele>80.0</ele><time>2026-05-02T06:27:36.712Z</time></trkpt><trkpt lat="42.43895" lon="14.1234733"><ele>80.0</ele><time>2026-05-02T06:27:37.713Z</time></trkpt><trkpt lat="42.4388117" lon="14.1234867"><ele>80.0</ele><time>2026-05-02T06:27:38.712Z</time></trkpt><trkpt lat="42.4386783" lon="14.1234933"><ele>80.0</ele><time>2026-05-02T06:27:39.712Z</time></trkpt><trkpt lat="42.438545" lon="14.1235217"><ele>77.25</ele><time>2026-05-02T06:27:40.712Z</time></trkpt><trkpt lat="42.4384117" lon="14.1235617"><ele>74.5</ele><time>2026-05-02T06:27:41.712Z</time></trkpt><trkpt lat="42.4382783" lon="14.1236"><ele>71.75</ele><time>2026-05-02T06:27:42.713Z</time></trkpt><trkpt lat="42.438145" lon="14.1236383"><ele>69.0</ele><time>2026-05-02T06:27:43.712Z</time></trkpt><trkpt lat="42.4380167" lon="14.12368"><ele>68.8</ele><time>2026-05-02T06:27:44.713Z</time></trkpt><trkpt lat="42.4378933" lon="14.1237183"><ele>68.60000000000001</ele><time>2026-05-02T06:27:45.713Z</time></trkpt><trkpt lat="42.437785" lon="14.1237517"><ele>68.4</ele><time>2026-05-02T06:27:46.712Z</time></trkpt><trkpt lat="42.4376867" lon="14.12376"><ele>68.2</ele><time>2026-05-02T06:27:47.712Z</time></trkpt><trkpt lat="42.4375983" lon="14.1237417"><ele>68.0</ele><time>2026-05-02T06:27:48.712Z</time></trkpt><trkpt lat="42.4375067" lon="14.1236967"><ele>68.0</ele><time>2026-05-02T06:27:49.713Z</time></trkpt><trkpt lat="42.43742" lon="14.1236667"><ele>68.0</ele><time>2026-05-02T06:27:50.712Z</time></trkpt><trkpt lat="42.437345" lon="14.1236417"><ele>68.0</ele><time>2026-05-02T06:27:51.712Z</time></trkpt><trkpt lat="42.4372667" lon="14.1236333"><ele>68.0</ele><time>2026-05-02T06:27:52.713Z</time></trkpt><trkpt lat="42.4371867" lon="14.12359"><ele>68.0</ele><time>2026-05-02T06:27:53.712Z</time></trkpt><trkpt lat="42.437095" lon="14.123525"><ele>68.0</ele><time>2026-05-02T06:27:54.713Z</time></trkpt><trkpt lat="42.4369867" lon="14.123445"><ele>65.5</ele><time>2026-05-02T06:27:55.713Z</time></trkpt><trkpt lat="42.43687" lon="14.123375"><ele>63.0</ele><time>2026-05-02T06:27:56.713Z</time></trkpt><trkpt lat="42.4367417" lon="14.1233233"><ele>60.5</ele><time>2026-05-02T06:27:57.713Z</time></trkpt><trkpt lat="42.4366067" lon="14.1232817"><ele>58.0</ele><time>2026-05-02T06:27:58.712Z</time></trkpt><trkpt lat="42.4364733" lon="14.123245"><ele>58.5</ele><time>2026-05-02T06:27:59.713Z</time></trkpt><trkpt lat="42.436345" lon="14.1232133"><ele>59.0</ele><time>2026-05-02T06:28:00.713Z</time></trkpt><trkpt lat="42.4362233" lon="14.1231817"><ele>59.5</ele><time>2026-05-02T06:28:01.713Z</time></trkpt><trkpt lat="42.4361083" lon="14.12316"><ele>60.0</ele><time>2026-05-02T06:28:02.713Z</time></trkpt><trkpt lat="42.436005" lon="14.1231383"><ele>60.8</ele><time>2026-05-02T06:28:03.713Z</time></trkpt><trkpt lat="42.435905" lon="14.1231233"><ele>61.6</ele><time>2026-05-02T06:28:04.713Z</time></trkpt><trkpt lat="42.435815" lon="14.1231"><ele>62.400000000000006</ele><time>2026-05-02T06:28:05.713Z</time></trkpt><trkpt lat="42.4357333" lon="14.123075"><ele>63.2</ele><time>2026-05-02T06:28:06.712Z</time></trkpt><trkpt lat="42.4356467" lon="14.1230717"><ele>64.0</ele><time>2026-05-02T06:28:07.713Z</time></trkpt><trkpt lat="42.43556" lon="14.1231017"><ele>64.0</ele><time>2026-05-02T06:28:08.713Z</time></trkpt><trkpt lat="42.4354733" lon="14.1231517"><ele>64.0</ele><time>2026-05-02T06:28:09.713Z</time></trkpt><trkpt lat="42.435395" lon="14.1232433"><ele>64.0</ele><time>2026-05-02T06:28:10.713Z</time></trkpt><trkpt lat="42.4353083" lon="14.1233517"><ele>64.0</ele><time>2026-05-02T06:28:11.713Z</time></trkpt><trkpt lat="42.4352083" lon="14.1234667"><ele>64.0</ele><time>2026-05-02T06:28:12.712Z</time></trkpt><trkpt lat="42.4351017" lon="14.123595"><ele>64.66666666666666</ele><time>2026-05-02T06:28:13.712Z</time></trkpt><trkpt lat="42.43499" lon="14.1237267"><ele>65.33333333333333</ele><time>2026-05-02T06:28:14.713Z</time></trkpt><trkpt lat="42.4348783" lon="14.1238683"><ele>66.0</ele><time>2026-05-02T06:28:15.713Z</time></trkpt><trkpt lat="42.43477" lon="14.1240067"><ele>65.33333333333333</ele><time>2026-05-02T06:28:16.712Z</time></trkpt><trkpt lat="42.43466" lon="14.12415"><ele>64.66666666666666</ele><time>2026-05-02T06:28:17.713Z</time></trkpt><trkpt lat="42.4345483" lon="14.124295"><ele>64.0</ele><time>2026-05-02T06:28:18.713Z</time></trkpt><trkpt lat="42.434445" lon="14.1244467"><ele>64.0</ele><time>2026-05-02T06:28:19.713Z</time></trkpt><trkpt lat="42.4343367" lon="14.1245967"><ele>64.0</ele><time>2026-05-02T06:28:20.713Z</time></trkpt><trkpt lat="42.4342317" lon="14.1247517"><ele>64.0</ele><time>2026-05-02T06:28:21.712Z</time></trkpt><trkpt lat="42.4341333" lon="14.1249017"><ele>61.25</ele><time>2026-05-02T06:28:22.713Z</time></trkpt><trkpt lat="42.4340383" lon="14.1250317"><ele>58.5</ele><time>2026-05-02T06:28:23.713Z</time></trkpt><trkpt lat="42.43396" lon="14.1251533"><ele>55.75</ele><time>2026-05-02T06:28:24.713Z</time></trkpt><trkpt lat="42.433885" lon="14.12526"><ele>53.0</ele><time>2026-05-02T06:28:25.713Z</time></trkpt><trkpt lat="42.4338183" lon="14.12534"><ele>54.599999999999994</ele><time>2026-05-02T06:28:26.712Z</time></trkpt><trkpt lat="42.4337717" lon="14.125405"><ele>56.199999999999996</ele><time>2026-05-02T06:28:27.712Z</time></trkpt><trkpt lat="42.43369" lon="14.1254383"><ele>57.8</ele><time>2026-05-02T06:28:29.712Z</time></trkpt><trkpt lat="42.4336083" lon="14.1253567"><ele>59.4</ele><time>2026-05-02T06:28:31.713Z</time></trkpt><trkpt lat="42.4335317" lon="14.1252567"><ele>61.0</ele><time>2026-05-02T06:28:33.713Z</time></trkpt><trkpt lat="42.433475" lon="14.1251317"><ele>61.0</ele><time>2026-05-02T06:28:35.712Z</time></trkpt><trkpt lat="42.4334217" lon="14.1250567"><ele>60.99999999999999</ele><time>2026-05-02T06:28:37.712Z</time></trkpt><trkpt lat="42.433325" lon="14.125065"><ele>60.99999999999999</ele><time>2026-05-02T06:28:39.713Z</time></trkpt><trkpt lat="42.4332267" lon="14.1251917"><ele>61.0</ele><time>2026-05-02T06:28:41.713Z</time></trkpt><trkpt lat="42.433175" lon="14.12527"><ele>61.0</ele><time>2026-05-02T06:28:42.712Z</time></trkpt><trkpt lat="42.43311" lon="14.1253333"><ele>60.99999999999999</ele><time>2026-05-02T06:28:43.712Z</time></trkpt><trkpt lat="42.4330417" lon="14.1253867"><ele>61.0</ele><time>2026-05-02T06:28:44.712Z</time></trkpt><trkpt lat="42.4329717" lon="14.1254433"><ele>61.0</ele><time>2026-05-02T06:28:45.713Z</time></trkpt><trkpt lat="42.4329117" lon="14.1255017"><ele>61.0</ele><time>2026-05-02T06:28:46.713Z</time></trkpt><trkpt lat="42.43285" lon="14.12555"><ele>60.99999999999999</ele><time>2026-05-02T06:28:47.713Z</time></trkpt><trkpt lat="42.4327917" lon="14.1255967"><ele>61.0</ele><time>2026-05-02T06:28:48.712Z</time></trkpt><trkpt lat="42.4326833" lon="14.125685"><ele>61.28571428571428</ele><time>2026-05-02T06:28:50.712Z</time></trkpt><trkpt lat="42.4326283" lon="14.1257433"><ele>61.57142857142857</ele><time>2026-05-02T06:28:51.713Z</time></trkpt><trkpt lat="42.432575" lon="14.1257917"><ele>61.857142857142854</ele><time>2026-05-02T06:28:52.713Z</time></trkpt><trkpt lat="42.4325183" lon="14.1258433"><ele>62.14285714285714</ele><time>2026-05-02T06:28:53.712Z</time></trkpt><trkpt lat="42.4324517" lon="14.1258917"><ele>62.42857142857143</ele><time>2026-05-02T06:28:54.712Z</time></trkpt><trkpt lat="42.4323783" lon="14.12593"><ele>62.714285714285715</ele><time>2026-05-02T06:28:55.713Z</time></trkpt><trkpt lat="42.4323117" lon="14.12596"><ele>63.0</ele><time>2026-05-02T06:28:56.713Z</time></trkpt><trkpt lat="42.4322417" lon="14.1260067"><ele>63.0</ele><time>2026-05-02T06:28:57.713Z</time></trkpt><trkpt lat="42.43216" lon="14.1260567"><ele>63.0</ele><time>2026-05-02T06:28:58.713Z</time></trkpt><trkpt lat="42.4320817" lon="14.12611"><ele>63.0</ele><time>2026-05-02T06:28:59.713Z</time></trkpt><trkpt lat="42.43201" lon="14.1261567"><ele>63.0</ele><time>2026-05-02T06:29:00.713Z</time></trkpt><trkpt lat="42.43194" lon="14.1262"><ele>63.0</ele><time>2026-05-02T06:29:01.712Z</time></trkpt><trkpt lat="42.4318783" lon="14.12624"><ele>63.0</ele><time>2026-05-02T06:29:02.713Z</time></trkpt><trkpt lat="42.4318117" lon="14.1262667"><ele>64.5</ele><time>2026-05-02T06:29:03.712Z</time></trkpt><trkpt lat="42.43174" lon="14.1262867"><ele>66.0</ele><time>2026-05-02T06:29:04.712Z</time></trkpt><trkpt lat="42.4316617" lon="14.1263"><ele>67.5</ele><time>2026-05-02T06:29:05.713Z</time></trkpt><trkpt lat="42.4315767" lon="14.126305"><ele>69.0</ele><time>2026-05-02T06:29:06.713Z</time></trkpt><trkpt lat="42.431485" lon="14.12631"><ele>70.5</ele><time>2026-05-02T06:29:07.712Z</time></trkpt><trkpt lat="42.431395" lon="14.12633"><ele>72.0</ele><time>2026-05-02T06:29:08.712Z</time></trkpt><trkpt lat="42.4313033" lon="14.126355"><ele>75.2</ele><time>2026-05-02T06:29:09.713Z</time></trkpt><trkpt lat="42.4312033" lon="14.126385"><ele>78.4</ele><time>2026-05-02T06:29:10.712Z</time></trkpt><trkpt lat="42.4311083" lon="14.1264233"><ele>81.60000000000001</ele><time>2026-05-02T06:29:11.713Z</time></trkpt><trkpt lat="42.4310233" lon="14.1264667"><ele>84.80000000000001</ele><time>2026-05-02T06:29:12.713Z</time></trkpt><trkpt lat="42.4309483" lon="14.1265017"><ele>88.0</ele><time>2026-05-02T06:29:13.712Z</time></trkpt><trkpt lat="42.4308783" lon="14.1265583"><ele>86.83333333333333</ele><time>2026-05-02T06:29:14.713Z</time></trkpt><trkpt lat="42.4308117" lon="14.1266217"><ele>85.66666666666666</ele><time>2026-05-02T06:29:15.712Z</time></trkpt><trkpt lat="42.43075" lon="14.1266983"><ele>84.5</ele><time>2026-05-02T06:29:16.711Z</time></trkpt><trkpt lat="42.430685" lon="14.1267667"><ele>83.33333333333333</ele><time>2026-05-02T06:29:17.711Z</time></trkpt><trkpt lat="42.43062" lon="14.1268283"><ele>82.16666666666667</ele><time>2026-05-02T06:29:18.711Z</time></trkpt><trkpt lat="42.4305483" lon="14.1268633"><ele>81.0</ele><time>2026-05-02T06:29:19.712Z</time></trkpt><trkpt lat="42.4304733" lon="14.1268867"><ele>81.0</ele><time>2026-05-02T06:29:20.711Z</time></trkpt><trkpt lat="42.4304" lon="14.1269017"><ele>81.0</ele><time>2026-05-02T06:29:21.711Z</time></trkpt><trkpt lat="42.4303133" lon="14.1268667"><ele>81.0</ele><time>2026-05-02T06:29:23.712Z</time></trkpt><trkpt lat="42.4302683" lon="14.126775"><ele>81.0</ele><time>2026-05-02T06:29:26.712Z</time></trkpt><trkpt lat="42.4303183" lon="14.1267"><ele>81.0</ele><time>2026-05-02T06:29:29.711Z</time></trkpt><trkpt lat="42.4303667" lon="14.1266183"><ele>81.0</ele><time>2026-05-02T06:29:32.712Z</time></trkpt><trkpt lat="42.4302967" lon="14.1266533"><ele>81.0</ele><time>2026-05-02T06:29:39.712Z</time></trkpt><trkpt lat="42.4302467" lon="14.1267333"><ele>81.0</ele><time>2026-05-02T06:29:41.711Z</time></trkpt><trkpt lat="42.4301617" lon="14.126735"><ele>81.0</ele><time>2026-05-02T06:29:44.712Z</time></trkpt><trkpt lat="42.4300833" lon="14.1267533"><ele>81.0</ele><time>2026-05-02T06:29:46.711Z</time></trkpt><trkpt lat="42.42998" lon="14.1267933"><ele>81.0</ele><time>2026-05-02T06:29:48.712Z</time></trkpt><trkpt lat="42.429865" lon="14.1268267"><ele>81.0</ele><time>2026-05-02T06:29:50.712Z</time></trkpt><trkpt lat="42.4297417" lon="14.126875"><ele>81.0</ele><time>2026-05-02T06:29:52.712Z</time></trkpt><trkpt lat="42.4296767" lon="14.126885"><ele>81.0</ele><time>2026-05-02T06:29:53.712Z</time></trkpt><trkpt lat="42.4295517" lon="14.1269117"><ele>81.0</ele><time>2026-05-02T06:29:55.711Z</time></trkpt><trkpt lat="42.429485" lon="14.12691"><ele>81.0</ele><time>2026-05-02T06:29:56.712Z</time></trkpt><trkpt lat="42.4294183" lon="14.1269117"><ele>79.0</ele><time>2026-05-02T06:29:57.711Z</time></trkpt><trkpt lat="42.4293517" lon="14.1269067"><ele>77.0</ele><time>2026-05-02T06:29:58.711Z</time></trkpt><trkpt lat="42.4292833" lon="14.1268983"><ele>75.0</ele><time>2026-05-02T06:29:59.711Z</time></trkpt><trkpt lat="42.4292183" lon="14.126895"><ele>73.0</ele><time>2026-05-02T06:30:00.712Z</time></trkpt><trkpt lat="42.42915" lon="14.12689"><ele>71.0</ele><time>2026-05-02T06:30:01.712Z</time></trkpt><trkpt lat="42.4290733" lon="14.1268883"><ele>69.0</ele><time>2026-05-02T06:30:02.712Z</time></trkpt><trkpt lat="42.429005" lon="14.126865"><ele>67.0</ele><time>2026-05-02T06:30:03.712Z</time></trkpt><trkpt lat="42.4289383" lon="14.126845"><ele>67.0</ele><time>2026-05-02T06:30:04.711Z</time></trkpt><trkpt lat="42.4288817" lon="14.126805"><ele>67.0</ele><time>2026-05-02T06:30:05.712Z</time></trkpt><trkpt lat="42.42883" lon="14.12675"><ele>67.0</ele><time>2026-05-02T06:30:06.712Z</time></trkpt><trkpt lat="42.4287833" lon="14.126685"><ele>67.0</ele><time>2026-05-02T06:30:07.712Z</time></trkpt><trkpt lat="42.42874" lon="14.1266067"><ele>67.0</ele><time>2026-05-02T06:30:08.711Z</time></trkpt><trkpt lat="42.4286933" lon="14.12653"><ele>67.0</ele><time>2026-05-02T06:30:09.711Z</time></trkpt><trkpt lat="42.4286533" lon="14.1264467"><ele>67.0</ele><time>2026-05-02T06:30:10.711Z</time></trkpt><trkpt lat="42.428615" lon="14.1263733"><ele>64.5</ele><time>2026-05-02T06:30:11.712Z</time></trkpt><trkpt lat="42.4285433" lon="14.1262467"><ele>62.0</ele><time>2026-05-02T06:30:13.711Z</time></trkpt><trkpt lat="42.42849" lon="14.1261917"><ele>59.5</ele><time>2026-05-02T06:30:14.712Z</time></trkpt><trkpt lat="42.428435" lon="14.12614"><ele>57.0</ele><time>2026-05-02T06:30:15.712Z</time></trkpt><trkpt lat="42.4283733" lon="14.126095"><ele>54.49999999999999</ele><time>2026-05-02T06:30:16.712Z</time></trkpt><trkpt lat="42.4282533" lon="14.1260583"><ele>52.0</ele><time>2026-05-02T06:30:18.711Z</time></trkpt><trkpt lat="42.4281883" lon="14.12605"><ele>52.0</ele><time>2026-05-02T06:30:19.711Z</time></trkpt><trkpt lat="42.4281183" lon="14.1260517"><ele>52.0</ele><time>2026-05-02T06:30:20.712Z</time></trkpt><trkpt lat="42.4280467" lon="14.126055"><ele>52.0</ele><time>2026-05-02T06:30:21.712Z</time></trkpt><trkpt lat="42.42798" lon="14.1260717"><ele>52.0</ele><time>2026-05-02T06:30:22.712Z</time></trkpt><trkpt lat="42.4279083" lon="14.12608"><ele>52.0</ele><time>2026-05-02T06:30:23.712Z</time></trkpt><trkpt lat="42.427835" lon="14.1260617"><ele>52.0</ele><time>2026-05-02T06:30:24.712Z</time></trkpt><trkpt lat="42.4277533" lon="14.1260283"><ele>52.0</ele><time>2026-05-02T06:30:25.711Z</time></trkpt><trkpt lat="42.4276767" lon="14.1259867"><ele>50.83333333333333</ele><time>2026-05-02T06:30:26.712Z</time></trkpt><trkpt lat="42.4276033" lon="14.125945"><ele>49.666666666666664</ele><time>2026-05-02T06:30:27.712Z</time></trkpt><trkpt lat="42.4275333" lon="14.1258983"><ele>48.5</ele><time>2026-05-02T06:30:28.712Z</time></trkpt><trkpt lat="42.4274617" lon="14.1258567"><ele>47.33333333333333</ele><time>2026-05-02T06:30:29.712Z</time></trkpt><trkpt lat="42.4273917" lon="14.1258183"><ele>46.166666666666664</ele><time>2026-05-02T06:30:30.712Z</time></trkpt><trkpt lat="42.427325" lon="14.1257867"><ele>45.0</ele><time>2026-05-02T06:30:31.711Z</time></trkpt><trkpt lat="42.4272517" lon="14.125765"><ele>45.0</ele><time>2026-05-02T06:30:32.711Z</time></trkpt><trkpt lat="42.42718" lon="14.12575"><ele>45.0</ele><time>2026-05-02T06:30:33.712Z</time></trkpt><trkpt lat="42.42711" lon="14.1257417"><ele>45.0</ele><time>2026-05-02T06:30:34.711Z</time></trkpt><trkpt lat="42.427045" lon="14.125735"><ele>45.0</ele><time>2026-05-02T06:30:35.712Z</time></trkpt><trkpt lat="42.42693" lon="14.125715"><ele>45.0</ele><time>2026-05-02T06:30:37.712Z</time></trkpt><trkpt lat="42.4268633" lon="14.125655"><ele>45.0</ele><time>2026-05-02T06:30:39.711Z</time></trkpt><trkpt lat="42.4268067" lon="14.125575"><ele>43.2</ele><time>2026-05-02T06:30:42.711Z</time></trkpt><trkpt lat="42.426775" lon="14.1254817"><ele>41.4</ele><time>2026-05-02T06:30:52.711Z</time></trkpt><trkpt lat="42.4267333" lon="14.12533"><ele>39.6</ele><time>2026-05-02T06:30:54.711Z</time></trkpt><trkpt lat="42.4267217" lon="14.1252217"><ele>37.8</ele><time>2026-05-02T06:30:55.712Z</time></trkpt><trkpt lat="42.426705" lon="14.12509"><ele>36.0</ele><time>2026-05-02T06:30:56.712Z</time></trkpt><trkpt lat="42.4266833" lon="14.1249533"><ele>36.6</ele><time>2026-05-02T06:30:57.711Z</time></trkpt><trkpt lat="42.42666" lon="14.12483"><ele>37.2</ele><time>2026-05-02T06:30:58.712Z</time></trkpt><trkpt lat="42.42663" lon="14.1247167"><ele>37.8</ele><time>2026-05-02T06:30:59.712Z</time></trkpt><trkpt lat="42.4265967" lon="14.1246033"><ele>38.4</ele><time>2026-05-02T06:31:00.712Z</time></trkpt><trkpt lat="42.42657" lon="14.1245033"><ele>39.0</ele><time>2026-05-02T06:31:01.711Z</time></trkpt><trkpt lat="42.4265417" lon="14.1243467"><ele>39.0</ele><time>2026-05-02T06:31:03.711Z</time></trkpt><trkpt lat="42.426515" lon="14.1242517"><ele>39.0</ele><time>2026-05-02T06:31:04.711Z</time></trkpt><trkpt lat="42.4264767" lon="14.1241283"><ele>39.0</ele><time>2026-05-02T06:31:05.712Z</time></trkpt><trkpt lat="42.4264233" lon="14.1239733"><ele>39.0</ele><time>2026-05-02T06:31:06.712Z</time></trkpt><trkpt lat="42.42637" lon="14.1237983"><ele>39.0</ele><time>2026-05-02T06:31:07.712Z</time></trkpt><trkpt lat="42.42633" lon="14.1236017"><ele>38.666666666666664</ele><time>2026-05-02T06:31:08.711Z</time></trkpt><trkpt lat="42.4262933" lon="14.1233933"><ele>38.33333333333333</ele><time>2026-05-02T06:31:09.711Z</time></trkpt><trkpt lat="42.4262633" lon="14.1231717"><ele>38.0</ele><time>2026-05-02T06:31:10.711Z</time></trkpt><trkpt lat="42.4262333" lon="14.122955"><ele>38.0</ele><time>2026-05-02T06:31:11.712Z</time></trkpt><trkpt lat="42.4262017" lon="14.1227167"><ele>38.0</ele><time>2026-05-02T06:31:12.712Z</time></trkpt><trkpt lat="42.4261633" lon="14.1224783"><ele>38.0</ele><time>2026-05-02T06:31:13.711Z</time></trkpt><trkpt lat="42.4261283" lon="14.12224"><ele>38.33333333333333</ele><time>2026-05-02T06:31:14.712Z</time></trkpt><trkpt lat="42.4260933" lon="14.1219983"><ele>38.666666666666664</ele><time>2026-05-02T06:31:15.712Z</time></trkpt><trkpt lat="42.4260633" lon="14.12175"><ele>39.0</ele><time>2026-05-02T06:31:16.711Z</time></trkpt><trkpt lat="42.4260367" lon="14.1215117"><ele>39.666666666666664</ele><time>2026-05-02T06:31:17.711Z</time></trkpt><trkpt lat="42.4260083" lon="14.12129"><ele>40.33333333333333</ele><time>2026-05-02T06:31:18.712Z</time></trkpt><trkpt lat="42.425965" lon="14.1210733"><ele>41.0</ele><time>2026-05-02T06:31:19.712Z</time></trkpt><trkpt lat="42.4259" lon="14.1208583"><ele>42.33333333333333</ele><time>2026-05-02T06:31:20.711Z</time></trkpt><trkpt lat="42.4258183" lon="14.1206267"><ele>43.666666666666664</ele><time>2026-05-02T06:31:21.711Z</time></trkpt><trkpt lat="42.4257167" lon="14.1203817"><ele>45.0</ele><time>2026-05-02T06:31:22.711Z</time></trkpt><trkpt lat="42.4256367" lon="14.1201533"><ele>45.0</ele><time>2026-05-02T06:31:23.711Z</time></trkpt><trkpt lat="42.4255733" lon="14.11994"><ele>45.0</ele><time>2026-05-02T06:31:24.712Z</time></trkpt><trkpt lat="42.4255183" lon="14.1197217"><ele>45.0</ele><time>2026-05-02T06:31:25.712Z</time></trkpt><trkpt lat="42.4254733" lon="14.1194883"><ele>43.0</ele><time>2026-05-02T06:31:26.711Z</time></trkpt><trkpt lat="42.4254333" lon="14.1192367"><ele>41.0</ele><time>2026-05-02T06:31:27.711Z</time></trkpt><trkpt lat="42.425395" lon="14.1189717"><ele>39.0</ele><time>2026-05-02T06:31:28.711Z</time></trkpt><trkpt lat="42.42535" lon="14.11871"><ele>39.0</ele><time>2026-05-02T06:31:29.712Z</time></trkpt><trkpt lat="42.4253083" lon="14.1184417"><ele>39.0</ele><time>2026-05-02T06:31:30.712Z</time></trkpt><trkpt lat="42.4252633" lon="14.11817"><ele>39.0</ele><time>2026-05-02T06:31:31.711Z</time></trkpt><trkpt lat="42.4252167" lon="14.1178967"><ele>39.333333333333336</ele><time>2026-05-02T06:31:32.712Z</time></trkpt><trkpt lat="42.4251717" lon="14.11763"><ele>39.66666666666667</ele><time>2026-05-02T06:31:33.712Z</time></trkpt><trkpt lat="42.42513" lon="14.1173567"><ele>40.0</ele><time>2026-05-02T06:31:34.712Z</time></trkpt><trkpt lat="42.4251033" lon="14.1170833"><ele>41.333333333333336</ele><time>2026-05-02T06:31:35.712Z</time></trkpt><trkpt lat="42.4250883" lon="14.1168083"><ele>42.666666666666664</ele><time>2026-05-02T06:31:36.711Z</time></trkpt><trkpt lat="42.425075" lon="14.1165367"><ele>44.0</ele><time>2026-05-02T06:31:37.711Z</time></trkpt><trkpt lat="42.4250617" lon="14.116275"><ele>44.0</ele><time>2026-05-02T06:31:38.712Z</time></trkpt><trkpt lat="42.42504" lon="14.1160117"><ele>44.0</ele><time>2026-05-02T06:31:39.712Z</time></trkpt><trkpt lat="42.425025" lon="14.1157517"><ele>44.0</ele><time>2026-05-02T06:31:40.711Z</time></trkpt><trkpt lat="42.4250083" lon="14.115495"><ele>44.33333333333333</ele><time>2026-05-02T06:31:41.711Z</time></trkpt><trkpt lat="42.424985" lon="14.115245"><ele>44.666666666666664</ele><time>2026-05-02T06:31:42.712Z</time></trkpt><trkpt lat="42.4249667" lon="14.1150017"><ele>45.0</ele><time>2026-05-02T06:31:43.712Z</time></trkpt><trkpt lat="42.424955" lon="14.114765"><ele>46.0</ele><time>2026-05-02T06:31:44.711Z</time></trkpt><trkpt lat="42.4249383" lon="14.1145267"><ele>47.0</ele><time>2026-05-02T06:31:45.711Z</time></trkpt><trkpt lat="42.4249183" lon="14.1142983"><ele>48.0</ele><time>2026-05-02T06:31:46.711Z</time></trkpt><trkpt lat="42.4248983" lon="14.1140817"><ele>48.5</ele><time>2026-05-02T06:31:47.711Z</time></trkpt><trkpt lat="42.4248867" lon="14.113885"><ele>49.0</ele><time>2026-05-02T06:31:48.712Z</time></trkpt><trkpt lat="42.4248733" lon="14.1136867"><ele>49.5</ele><time>2026-05-02T06:31:49.711Z</time></trkpt><trkpt lat="42.4248567" lon="14.1134933"><ele>50.0</ele><time>2026-05-02T06:31:50.712Z</time></trkpt><trkpt lat="42.4248467" lon="14.1133033"><ele>50.5</ele><time>2026-05-02T06:31:51.711Z</time></trkpt><trkpt lat="42.42484" lon="14.1131167"><ele>51.0</ele><time>2026-05-02T06:31:52.712Z</time></trkpt><trkpt lat="42.42484" lon="14.1129233"><ele>51.5</ele><time>2026-05-02T06:31:53.712Z</time></trkpt><trkpt lat="42.42486" lon="14.1127267"><ele>52.0</ele><time>2026-05-02T06:31:54.712Z</time></trkpt><trkpt lat="42.4249033" lon="14.1125383"><ele>51.0</ele><time>2026-05-02T06:31:55.712Z</time></trkpt><trkpt lat="42.4249533" lon="14.1123617"><ele>50.0</ele><time>2026-05-02T06:31:56.711Z</time></trkpt><trkpt lat="42.424995" lon="14.1121933"><ele>49.0</ele><time>2026-05-02T06:31:57.711Z</time></trkpt><trkpt lat="42.4250317" lon="14.1120433"><ele>48.0</ele><time>2026-05-02T06:31:58.711Z</time></trkpt><trkpt lat="42.4250667" lon="14.1118967"><ele>48.0</ele><time>2026-05-02T06:31:59.711Z</time></trkpt><trkpt lat="42.4251" lon="14.11176"><ele>48.0</ele><time>2026-05-02T06:32:00.712Z</time></trkpt><trkpt lat="42.4251233" lon="14.1116433"><ele>48.0</ele><time>2026-05-02T06:32:01.712Z</time></trkpt><trkpt lat="42.42515" lon="14.1115583"><ele>48.0</ele><time>2026-05-02T06:32:02.712Z</time></trkpt><trkpt lat="42.4251783" lon="14.1114467"><ele>48.0</ele><time>2026-05-02T06:32:04.712Z</time></trkpt><trkpt lat="42.425125" lon="14.1113967"><ele>48.0</ele><time>2026-05-02T06:32:07.711Z</time></trkpt><trkpt lat="42.4250683" lon="14.111445"><ele>48.0</ele><time>2026-05-02T06:32:09.711Z</time></trkpt><trkpt lat="42.424965" lon="14.111555"><ele>48.0</ele><time>2026-05-02T06:32:11.712Z</time></trkpt><trkpt lat="42.424875" lon="14.1116217"><ele>48.0</ele><time>2026-05-02T06:32:12.711Z</time></trkpt><trkpt lat="42.4247767" lon="14.1116867"><ele>48.0</ele><time>2026-05-02T06:32:13.711Z</time></trkpt><trkpt lat="42.4246667" lon="14.1117567"><ele>46.5</ele><time>2026-05-02T06:32:14.712Z</time></trkpt><trkpt lat="42.4245567" lon="14.1118133"><ele>45.0</ele><time>2026-05-02T06:32:15.712Z</time></trkpt><trkpt lat="42.424435" lon="14.1118517"><ele>43.5</ele><time>2026-05-02T06:32:16.711Z</time></trkpt><trkpt lat="42.4243167" lon="14.1118817"><ele>42.0</ele><time>2026-05-02T06:32:17.711Z</time></trkpt><trkpt lat="42.4241967" lon="14.111905"><ele>42.0</ele><time>2026-05-02T06:32:18.712Z</time></trkpt><trkpt lat="42.4240883" lon="14.1119317"><ele>42.0</ele><time>2026-05-02T06:32:19.711Z</time></trkpt><trkpt lat="42.4239967" lon="14.1119633"><ele>42.0</ele><time>2026-05-02T06:32:20.712Z</time></trkpt><trkpt lat="42.42391" lon="14.1119933"><ele>42.0</ele><time>2026-05-02T06:32:21.711Z</time></trkpt><trkpt lat="42.4238267" lon="14.112015"><ele>42.0</ele><time>2026-05-02T06:32:22.712Z</time></trkpt><trkpt lat="42.423745" lon="14.1120267"><ele>41.0</ele><time>2026-05-02T06:32:23.712Z</time></trkpt><trkpt lat="42.4236533" lon="14.1120183"><ele>40.0</ele><time>2026-05-02T06:32:24.711Z</time></trkpt><trkpt lat="42.4235683" lon="14.112005"><ele>39.0</ele><time>2026-05-02T06:32:25.712Z</time></trkpt><trkpt lat="42.4234717" lon="14.1120083"><ele>38.0</ele><time>2026-05-02T06:32:26.712Z</time></trkpt><trkpt lat="42.4233683" lon="14.1120167"><ele>37.0</ele><time>2026-05-02T06:32:27.712Z</time></trkpt><trkpt lat="42.4232683" lon="14.1120417"><ele>37.0</ele><time>2026-05-02T06:32:28.712Z</time></trkpt><trkpt lat="42.4231783" lon="14.1121083"><ele>37.0</ele><time>2026-05-02T06:32:29.712Z</time></trkpt><trkpt lat="42.4230967" lon="14.1121917"><ele>37.0</ele><time>2026-05-02T06:32:30.712Z</time></trkpt><trkpt lat="42.423025" lon="14.1122817"><ele>37.0</ele><time>2026-05-02T06:32:31.711Z</time></trkpt><trkpt lat="42.4229567" lon="14.1123767"><ele>37.0</ele><time>2026-05-02T06:32:32.712Z</time></trkpt><trkpt lat="42.4228833" lon="14.1124667"><ele>38.75</ele><time>2026-05-02T06:32:33.712Z</time></trkpt><trkpt lat="42.422805" lon="14.112575"><ele>40.5</ele><time>2026-05-02T06:32:34.712Z</time></trkpt><trkpt lat="42.42271" lon="14.1126883"><ele>42.25</ele><time>2026-05-02T06:32:35.712Z</time></trkpt><trkpt lat="42.4226" lon="14.1128067"><ele>44.0</ele><time>2026-05-02T06:32:36.711Z</time></trkpt><trkpt lat="42.4224767" lon="14.1129233"><ele>44.0</ele><time>2026-05-02T06:32:37.711Z</time></trkpt><trkpt lat="42.42236" lon="14.1130183"><ele>44.0</ele><time>2026-05-02T06:32:38.711Z</time></trkpt><trkpt lat="42.422245" lon="14.1131217"><ele>44.0</ele><time>2026-05-02T06:32:39.712Z</time></trkpt><trkpt lat="42.4221433" lon="14.113225"><ele>44.0</ele><time>2026-05-02T06:32:40.712Z</time></trkpt><trkpt lat="42.4220517" lon="14.113325"><ele>45.0</ele><time>2026-05-02T06:32:41.712Z</time></trkpt><trkpt lat="42.4219533" lon="14.1134133"><ele>46.0</ele><time>2026-05-02T06:32:42.712Z</time></trkpt><trkpt lat="42.4218517" lon="14.1134867"><ele>47.0</ele><time>2026-05-02T06:32:43.711Z</time></trkpt><trkpt lat="42.4217517" lon="14.1135333"><ele>48.0</ele><time>2026-05-02T06:32:44.711Z</time></trkpt><trkpt lat="42.4216467" lon="14.11357"><ele>49.0</ele><time>2026-05-02T06:32:45.711Z</time></trkpt><trkpt lat="42.4215367" lon="14.1136033"><ele>49.0</ele><time>2026-05-02T06:32:46.712Z</time></trkpt><trkpt lat="42.421415" lon="14.1136383"><ele>49.0</ele><time>2026-05-02T06:32:47.711Z</time></trkpt><trkpt lat="42.4212917" lon="14.113695"><ele>49.0</ele><time>2026-05-02T06:32:48.712Z</time></trkpt><trkpt lat="42.4211717" lon="14.113765"><ele>49.0</ele><time>2026-05-02T06:32:49.712Z</time></trkpt><trkpt lat="42.4210533" lon="14.11385"><ele>50.0</ele><time>2026-05-02T06:32:50.712Z</time></trkpt><trkpt lat="42.42094" lon="14.1139517"><ele>51.0</ele><time>2026-05-02T06:32:51.712Z</time></trkpt><trkpt lat="42.4208317" lon="14.1140333"><ele>52.0</ele><time>2026-05-02T06:32:52.711Z</time></trkpt><trkpt lat="42.420725" lon="14.114095"><ele>53.0</ele><time>2026-05-02T06:32:53.712Z</time></trkpt><trkpt lat="42.42063" lon="14.11417"><ele>55.5</ele><time>2026-05-02T06:32:54.712Z</time></trkpt><trkpt lat="42.42054" lon="14.1142717"><ele>58.0</ele><time>2026-05-02T06:32:55.712Z</time></trkpt><trkpt lat="42.4204567" lon="14.1143933"><ele>60.5</ele><time>2026-05-02T06:32:56.711Z</time></trkpt><trkpt lat="42.4203783" lon="14.1145367"><ele>63.0</ele><time>2026-05-02T06:32:57.711Z</time></trkpt><trkpt lat="42.4202933" lon="14.114655"><ele>63.0</ele><time>2026-05-02T06:32:58.712Z</time></trkpt><trkpt lat="42.4201967" lon="14.1147417"><ele>63.0</ele><time>2026-05-02T06:32:59.712Z</time></trkpt><trkpt lat="42.420075" lon="14.11482"><ele>63.0</ele><time>2026-05-02T06:33:00.712Z</time></trkpt><trkpt lat="42.419945" lon="14.1148817"><ele>63.0</ele><time>2026-05-02T06:33:01.712Z</time></trkpt><trkpt lat="42.4198117" lon="14.1149517"><ele>64.5</ele><time>2026-05-02T06:33:02.712Z</time></trkpt><trkpt lat="42.4196883" lon="14.115045"><ele>66.0</ele><time>2026-05-02T06:33:03.712Z</time></trkpt><trkpt lat="42.419565" lon="14.11517"><ele>67.5</ele><time>2026-05-02T06:33:04.711Z</time></trkpt><trkpt lat="42.4194517" lon="14.1153083"><ele>69.0</ele><time>2026-05-02T06:33:05.711Z</time></trkpt><trkpt lat="42.419335" lon="14.1154383"><ele>71.75</ele><time>2026-05-02T06:33:06.712Z</time></trkpt><trkpt lat="42.41922" lon="14.11555"><ele>74.5</ele><time>2026-05-02T06:33:07.712Z</time></trkpt><trkpt lat="42.4191117" lon="14.1156383"><ele>77.25</ele><time>2026-05-02T06:33:08.712Z</time></trkpt><trkpt lat="42.4190183" lon="14.1157283"><ele>80.0</ele><time>2026-05-02T06:33:09.712Z</time></trkpt><trkpt lat="42.4189517" lon="14.1158083"><ele>81.0</ele><time>2026-05-02T06:33:10.712Z</time></trkpt><trkpt lat="42.4189083" lon="14.115875"><ele>82.0</ele><time>2026-05-02T06:33:11.712Z</time></trkpt><trkpt lat="42.41886" lon="14.1159317"><ele>83.0</ele><time>2026-05-02T06:33:13.711Z</time></trkpt><trkpt lat="42.41878" lon="14.1159133"><ele>84.0</ele><time>2026-05-02T06:33:16.711Z</time></trkpt><trkpt lat="42.4187233" lon="14.1158633"><ele>85.0</ele><time>2026-05-02T06:33:17.711Z</time></trkpt><trkpt lat="42.41866" lon="14.1157867"><ele>86.0</ele><time>2026-05-02T06:33:18.712Z</time></trkpt><trkpt lat="42.4185917" lon="14.1157117"><ele>89.0</ele><time>2026-05-02T06:33:19.712Z</time></trkpt><trkpt lat="42.4185067" lon="14.1156333"><ele>92.0</ele><time>2026-05-02T06:33:20.712Z</time></trkpt><trkpt lat="42.4184017" lon="14.1155633"><ele>95.0</ele><time>2026-05-02T06:33:21.711Z</time></trkpt><trkpt lat="42.4182833" lon="14.1154983"><ele>98.0</ele><time>2026-05-02T06:33:22.711Z</time></trkpt><trkpt lat="42.4181683" lon="14.1154267"><ele>98.0</ele><time>2026-05-02T06:33:23.712Z</time></trkpt><trkpt lat="42.4180567" lon="14.1153683"><ele>98.0</ele><time>2026-05-02T06:33:24.711Z</time></trkpt><trkpt lat="42.4179383" lon="14.11532"><ele>98.0</ele><time>2026-05-02T06:33:25.711Z</time></trkpt><trkpt lat="42.4178233" lon="14.1152767"><ele>98.0</ele><time>2026-05-02T06:33:26.711Z</time></trkpt><trkpt lat="42.41771" lon="14.1152417"><ele>100.0</ele><time>2026-05-02T06:33:27.711Z</time></trkpt><trkpt lat="42.4176083" lon="14.1152133"><ele>102.0</ele><time>2026-05-02T06:33:28.711Z</time></trkpt><trkpt lat="42.4174917" lon="14.115185"><ele>104.0</ele><time>2026-05-02T06:33:29.711Z</time></trkpt><trkpt lat="42.417365" lon="14.1151667"><ele>106.0</ele><time>2026-05-02T06:33:30.711Z</time></trkpt><trkpt lat="42.4172283" lon="14.1151683"><ele>107.25</ele><time>2026-05-02T06:33:31.712Z</time></trkpt><trkpt lat="42.4170883" lon="14.1151533"><ele>108.5</ele><time>2026-05-02T06:33:32.711Z</time></trkpt><trkpt lat="42.4169467" lon="14.1151433"><ele>109.75</ele><time>2026-05-02T06:33:33.712Z</time></trkpt><trkpt lat="42.4168067" lon="14.1151533"><ele>111.0</ele><time>2026-05-02T06:33:34.711Z</time></trkpt><trkpt lat="42.4166633" lon="14.115175"><ele>111.0</ele><time>2026-05-02T06:33:35.712Z</time></trkpt><trkpt lat="42.4165217" lon="14.1152067"><ele>111.0</ele><time>2026-05-02T06:33:36.711Z</time></trkpt><trkpt lat="42.4163917" lon="14.1152367"><ele>111.0</ele><time>2026-05-02T06:33:37.712Z</time></trkpt><trkpt lat="42.41626" lon="14.11525"><ele>111.0</ele><time>2026-05-02T06:33:38.711Z</time></trkpt><trkpt lat="42.416115" lon="14.1152483"><ele>112.25</ele><time>2026-05-02T06:33:39.711Z</time></trkpt><trkpt lat="42.4159583" lon="14.1152417"><ele>113.5</ele><time>2026-05-02T06:33:40.711Z</time></trkpt><trkpt lat="42.415815" lon="14.115265"><ele>114.75</ele><time>2026-05-02T06:33:41.712Z</time></trkpt><trkpt lat="42.4156783" lon="14.1152867"><ele>116.0</ele><time>2026-05-02T06:33:42.711Z</time></trkpt><trkpt lat="42.415555" lon="14.11533"><ele>116.16666666666666</ele><time>2026-05-02T06:33:43.712Z</time></trkpt><trkpt lat="42.4154533" lon="14.1153667"><ele>116.33333333333333</ele><time>2026-05-02T06:33:44.712Z</time></trkpt><trkpt lat="42.41538" lon="14.115385"><ele>116.5</ele><time>2026-05-02T06:33:45.711Z</time></trkpt><trkpt lat="42.4153117" lon="14.1154117"><ele>116.66666666666666</ele><time>2026-05-02T06:33:47.711Z</time></trkpt><trkpt lat="42.4152467" lon="14.115465"><ele>116.83333333333333</ele><time>2026-05-02T06:33:49.711Z</time></trkpt><trkpt lat="42.4151917" lon="14.115525"><ele>117.0</ele><time>2026-05-02T06:33:50.711Z</time></trkpt><trkpt lat="42.4151233" lon="14.115615"><ele>117.0</ele><time>2026-05-02T06:33:51.712Z</time></trkpt><trkpt lat="42.4150433" lon="14.11572"><ele>117.0</ele><time>2026-05-02T06:33:52.711Z</time></trkpt><trkpt lat="42.4149633" lon="14.11583"><ele>117.0</ele><time>2026-05-02T06:33:53.711Z</time></trkpt><trkpt lat="42.414875" lon="14.1159467"><ele>117.0</ele><time>2026-05-02T06:33:54.711Z</time></trkpt><trkpt lat="42.4147867" lon="14.1160483"><ele>116.75</ele><time>2026-05-02T06:33:55.712Z</time></trkpt><trkpt lat="42.4146917" lon="14.1161483"><ele>116.5</ele><time>2026-05-02T06:33:56.712Z</time></trkpt><trkpt lat="42.4145917" lon="14.1162433"><ele>116.25</ele><time>2026-05-02T06:33:57.712Z</time></trkpt><trkpt lat="42.4144917" lon="14.1163367"><ele>116.0</ele><time>2026-05-02T06:33:58.712Z</time></trkpt><trkpt lat="42.414385" lon="14.1164167"><ele>114.75</ele><time>2026-05-02T06:33:59.712Z</time></trkpt><trkpt lat="42.414265" lon="14.1165017"><ele>113.5</ele><time>2026-05-02T06:34:00.711Z</time></trkpt><trkpt lat="42.4141283" lon="14.11659"><ele>112.25</ele><time>2026-05-02T06:34:01.711Z</time></trkpt><trkpt lat="42.414" lon="14.1166683"><ele>111.0</ele><time>2026-05-02T06:34:02.711Z</time></trkpt><trkpt lat="42.413875" lon="14.11673"><ele>110.0</ele><time>2026-05-02T06:34:03.712Z</time></trkpt><trkpt lat="42.413765" lon="14.1167967"><ele>109.0</ele><time>2026-05-02T06:34:04.712Z</time></trkpt><trkpt lat="42.4136667" lon="14.11689"><ele>108.0</ele><time>2026-05-02T06:34:05.712Z</time></trkpt><trkpt lat="42.4135733" lon="14.1170183"><ele>107.0</ele><time>2026-05-02T06:34:06.711Z</time></trkpt><trkpt lat="42.4134817" lon="14.11718"><ele>107.0</ele><time>2026-05-02T06:34:07.711Z</time></trkpt><trkpt lat="42.41339" lon="14.1173317"><ele>107.0</ele><time>2026-05-02T06:34:08.712Z</time></trkpt><trkpt lat="42.4133067" lon="14.117475"><ele>107.0</ele><time>2026-05-02T06:34:09.712Z</time></trkpt><trkpt lat="42.4132283" lon="14.11762"><ele>107.0</ele><time>2026-05-02T06:34:10.712Z</time></trkpt><trkpt lat="42.4131583" lon="14.117755"><ele>107.0</ele><time>2026-05-02T06:34:11.711Z</time></trkpt><trkpt lat="42.4130933" lon="14.1178867"><ele>107.0</ele><time>2026-05-02T06:34:12.712Z</time></trkpt><trkpt lat="42.41302" lon="14.118015"><ele>107.0</ele><time>2026-05-02T06:34:13.712Z</time></trkpt><trkpt lat="42.4129367" lon="14.1181533"><ele>107.0</ele><time>2026-05-02T06:34:14.712Z</time></trkpt><trkpt lat="42.412845" lon="14.1182983"><ele>107.0</ele><time>2026-05-02T06:34:15.712Z</time></trkpt><trkpt lat="42.412745" lon="14.1184317"><ele>107.0</ele><time>2026-05-02T06:34:16.711Z</time></trkpt><trkpt lat="42.41264" lon="14.1185517"><ele>107.0</ele><time>2026-05-02T06:34:17.712Z</time></trkpt><trkpt lat="42.4125233" lon="14.1186567"><ele>107.0</ele><time>2026-05-02T06:34:18.711Z</time></trkpt><trkpt lat="42.4124117" lon="14.1187433"><ele>107.0</ele><time>2026-05-02T06:34:19.712Z</time></trkpt><trkpt lat="42.41231" lon="14.1188233"><ele>107.0</ele><time>2026-05-02T06:34:20.711Z</time></trkpt><trkpt lat="42.4122067" lon="14.11889"><ele>107.0</ele><time>2026-05-02T06:34:21.712Z</time></trkpt><trkpt lat="42.4121067" lon="14.11895"><ele>107.0</ele><time>2026-05-02T06:34:22.711Z</time></trkpt><trkpt lat="42.4120083" lon="14.1190117"><ele>105.75</ele><time>2026-05-02T06:34:23.711Z</time></trkpt><trkpt lat="42.4119167" lon="14.1190767"><ele>104.5</ele><time>2026-05-02T06:34:24.711Z</time></trkpt><trkpt lat="42.411815" lon="14.1191517"><ele>103.25</ele><time>2026-05-02T06:34:25.711Z</time></trkpt><trkpt lat="42.4117067" lon="14.1192217"><ele>102.0</ele><time>2026-05-02T06:34:26.71Z</time></trkpt><trkpt lat="42.4115917" lon="14.11929"><ele>102.0</ele><time>2026-05-02T06:34:27.711Z</time></trkpt><trkpt lat="42.4114733" lon="14.1193517"><ele>102.0</ele><time>2026-05-02T06:34:28.711Z</time></trkpt><trkpt lat="42.4113617" lon="14.1194133"><ele>102.0</ele><time>2026-05-02T06:34:29.711Z</time></trkpt><trkpt lat="42.4112517" lon="14.11949"><ele>102.0</ele><time>2026-05-02T06:34:30.71Z</time></trkpt><trkpt lat="42.411145" lon="14.11958"><ele>102.19999999999999</ele><time>2026-05-02T06:34:31.711Z</time></trkpt><trkpt lat="42.4110433" lon="14.119665"><ele>102.4</ele><time>2026-05-02T06:34:32.71Z</time></trkpt><trkpt lat="42.4109517" lon="14.11975"><ele>102.6</ele><time>2026-05-02T06:34:33.711Z</time></trkpt><trkpt lat="42.4108633" lon="14.1198317"><ele>102.80000000000001</ele><time>2026-05-02T06:34:34.711Z</time></trkpt><trkpt lat="42.4107783" lon="14.1199117"><ele>103.0</ele><time>2026-05-02T06:34:35.711Z</time></trkpt><trkpt lat="42.4107183" lon="14.11996"><ele>102.28571428571428</ele><time>2026-05-02T06:34:36.711Z</time></trkpt><trkpt lat="42.4106483" lon="14.1199967"><ele>101.57142857142857</ele><time>2026-05-02T06:34:39.71Z</time></trkpt><trkpt lat="42.4105867" lon="14.1200233"><ele>100.85714285714286</ele><time>2026-05-02T06:34:42.71Z</time></trkpt><trkpt lat="42.410525" lon="14.11999"><ele>100.14285714285714</ele><time>2026-05-02T06:34:45.71Z</time></trkpt><trkpt lat="42.4104683" lon="14.1199333"><ele>99.42857142857143</ele><time>2026-05-02T06:34:47.71Z</time></trkpt><trkpt lat="42.4103967" lon="14.1198867"><ele>98.71428571428571</ele><time>2026-05-02T06:34:49.711Z</time></trkpt><trkpt lat="42.4103383" lon="14.11983"><ele>98.0</ele><time>2026-05-02T06:34:51.71Z</time></trkpt><trkpt lat="42.4102967" lon="14.119755"><ele>97.33333333333333</ele><time>2026-05-02T06:34:53.711Z</time></trkpt><trkpt lat="42.4102667" lon="14.119675"><ele>96.66666666666666</ele><time>2026-05-02T06:34:55.71Z</time></trkpt><trkpt lat="42.41023" lon="14.11958"><ele>96.0</ele><time>2026-05-02T06:34:57.711Z</time></trkpt><trkpt lat="42.4101883" lon="14.1194883"><ele>95.33333333333333</ele><time>2026-05-02T06:34:59.71Z</time></trkpt><trkpt lat="42.410135" lon="14.11939"><ele>94.66666666666666</ele><time>2026-05-02T06:35:01.711Z</time></trkpt><trkpt lat="42.41007" lon="14.1192917"><ele>94.0</ele><time>2026-05-02T06:35:03.71Z</time></trkpt><trkpt lat="42.4100217" lon="14.1191983"><ele>94.0</ele><time>2026-05-02T06:35:05.711Z</time></trkpt><trkpt lat="42.40995" lon="14.1190883"><ele>94.0</ele><time>2026-05-02T06:35:07.71Z</time></trkpt><trkpt lat="42.4098967" lon="14.1190383"><ele>94.0</ele><time>2026-05-02T06:35:08.71Z</time></trkpt><trkpt lat="42.4098383" lon="14.1189967"><ele>94.0</ele><time>2026-05-02T06:35:09.71Z</time></trkpt><trkpt lat="42.4097333" lon="14.1189167"><ele>94.0</ele><time>2026-05-02T06:35:11.711Z</time></trkpt><trkpt lat="42.4096767" lon="14.118875"><ele>94.0</ele><time>2026-05-02T06:35:12.71Z</time></trkpt><trkpt lat="42.4095733" lon="14.118795"><ele>92.33333333333333</ele><time>2026-05-02T06:35:14.711Z</time></trkpt><trkpt lat="42.4094733" lon="14.1187233"><ele>90.66666666666666</ele><time>2026-05-02T06:35:16.711Z</time></trkpt><trkpt lat="42.4094183" lon="14.1186817"><ele>89.0</ele><time>2026-05-02T06:35:17.71Z</time></trkpt><trkpt lat="42.4093617" lon="14.1186417"><ele>87.33333333333333</ele><time>2026-05-02T06:35:18.711Z</time></trkpt><trkpt lat="42.4093033" lon="14.1185983"><ele>85.66666666666667</ele><time>2026-05-02T06:35:19.711Z</time></trkpt><trkpt lat="42.40925" lon="14.1185517"><ele>84.0</ele><time>2026-05-02T06:35:20.711Z</time></trkpt><trkpt lat="42.4091517" lon="14.1184433"><ele>84.0</ele><time>2026-05-02T06:35:22.711Z</time></trkpt><trkpt lat="42.4091017" lon="14.11839"><ele>84.0</ele><time>2026-05-02T06:35:23.71Z</time></trkpt><trkpt lat="42.4090167" lon="14.11827"><ele>84.0</ele><time>2026-05-02T06:35:25.711Z</time></trkpt><trkpt lat="42.4089783" lon="14.1181967"><ele>84.0</ele><time>2026-05-02T06:35:26.711Z</time></trkpt><trkpt lat="42.4089483" lon="14.1181167"><ele>84.0</ele><time>2026-05-02T06:35:27.711Z</time></trkpt><trkpt lat="42.40891" lon="14.118025"><ele>84.0</ele><time>2026-05-02T06:35:28.711Z</time></trkpt><trkpt lat="42.4088717" lon="14.1179333"><ele>83.5</ele><time>2026-05-02T06:35:29.711Z</time></trkpt><trkpt lat="42.408835" lon="14.1178383"><ele>83.0</ele><time>2026-05-02T06:35:30.71Z</time></trkpt><trkpt lat="42.4088017" lon="14.11775"><ele>82.5</ele><time>2026-05-02T06:35:31.71Z</time></trkpt><trkpt lat="42.4087633" lon="14.1176633"><ele>82.0</ele><time>2026-05-02T06:35:32.711Z</time></trkpt><trkpt lat="42.4087333" lon="14.1175883"><ele>81.5</ele><time>2026-05-02T06:35:33.71Z</time></trkpt><trkpt lat="42.4086817" lon="14.1174783"><ele>81.0</ele><time>2026-05-02T06:35:35.71Z</time></trkpt><trkpt lat="42.408635" lon="14.117375"><ele>81.0</ele><time>2026-05-02T06:35:37.71Z</time></trkpt><trkpt lat="42.4086083" lon="14.1172967"><ele>81.0</ele><time>2026-05-02T06:35:39.71Z</time></trkpt><trkpt lat="42.408545" lon="14.1172333"><ele>81.0</ele><time>2026-05-02T06:35:41.711Z</time></trkpt><trkpt lat="42.40845" lon="14.11715"><ele>81.0</ele><time>2026-05-02T06:35:43.711Z</time></trkpt><trkpt lat="42.4083533" lon="14.1170433"><ele>81.0</ele><time>2026-05-02T06:35:45.711Z</time></trkpt><trkpt lat="42.4082617" lon="14.1169267"><ele>81.0</ele><time>2026-05-02T06:35:47.71Z</time></trkpt><trkpt lat="42.4081583" lon="14.11683"><ele>81.0</ele><time>2026-05-02T06:35:49.711Z</time></trkpt><trkpt lat="42.4081017" lon="14.1167817"><ele>81.0</ele><time>2026-05-02T06:35:50.711Z</time></trkpt><trkpt lat="42.408045" lon="14.116735"><ele>81.0</ele><time>2026-05-02T06:35:51.711Z</time></trkpt><trkpt lat="42.4079817" lon="14.1166983"><ele>81.0</ele><time>2026-05-02T06:35:52.711Z</time></trkpt><trkpt lat="42.4079083" lon="14.1166583"><ele>81.0</ele><time>2026-05-02T06:35:53.71Z</time></trkpt><trkpt lat="42.4078333" lon="14.11661"><ele>83.8</ele><time>2026-05-02T06:35:54.71Z</time></trkpt><trkpt lat="42.4077517" lon="14.11656"><ele>86.6</ele><time>2026-05-02T06:35:55.711Z</time></trkpt><trkpt lat="42.4076717" lon="14.11652"><ele>89.4</ele><time>2026-05-02T06:35:56.711Z</time></trkpt><trkpt lat="42.4075833" lon="14.1164883"><ele>92.2</ele><time>2026-05-02T06:35:57.711Z</time></trkpt><trkpt lat="42.407495" lon="14.1164483"><ele>95.0</ele><time>2026-05-02T06:35:58.711Z</time></trkpt><trkpt lat="42.4074033" lon="14.1164183"><ele>95.0</ele><time>2026-05-02T06:35:59.711Z</time></trkpt><trkpt lat="42.4073033" lon="14.1163833"><ele>95.0</ele><time>2026-05-02T06:36:00.71Z</time></trkpt><trkpt lat="42.4072283" lon="14.1163633"><ele>95.0</ele><time>2026-05-02T06:36:01.71Z</time></trkpt><trkpt lat="42.4071517" lon="14.1163417"><ele>95.0</ele><time>2026-05-02T06:36:02.71Z</time></trkpt><trkpt lat="42.4070833" lon="14.116325"><ele>95.0</ele><time>2026-05-02T06:36:03.71Z</time></trkpt><trkpt lat="42.406975" lon="14.1162833"><ele>95.0</ele><time>2026-05-02T06:36:05.71Z</time></trkpt><trkpt lat="42.40691" lon="14.1162417"><ele>96.6</ele><time>2026-05-02T06:36:06.711Z</time></trkpt><trkpt lat="42.4068383" lon="14.1161833"><ele>98.2</ele><time>2026-05-02T06:36:07.711Z</time></trkpt><trkpt lat="42.406755" lon="14.116125"><ele>99.80000000000001</ele><time>2026-05-02T06:36:08.711Z</time></trkpt><trkpt lat="42.406675" lon="14.1160617"><ele>101.4</ele><time>2026-05-02T06:36:09.711Z</time></trkpt><trkpt lat="42.4065883" lon="14.1159983"><ele>103.0</ele><time>2026-05-02T06:36:10.711Z</time></trkpt><trkpt lat="42.4065067" lon="14.1159333"><ele>103.0</ele><time>2026-05-02T06:36:11.71Z</time></trkpt><trkpt lat="42.4064067" lon="14.1158617"><ele>103.0</ele><time>2026-05-02T06:36:12.71Z</time></trkpt><trkpt lat="42.4063133" lon="14.1157967"><ele>103.0</ele><time>2026-05-02T06:36:13.71Z</time></trkpt><trkpt lat="42.4062167" lon="14.1157367"><ele>103.0</ele><time>2026-05-02T06:36:14.711Z</time></trkpt><trkpt lat="42.40613" lon="14.11568"><ele>103.0</ele><time>2026-05-02T06:36:15.711Z</time></trkpt><trkpt lat="42.406045" lon="14.1156217"><ele>104.2</ele><time>2026-05-02T06:36:16.71Z</time></trkpt><trkpt lat="42.40597" lon="14.11556"><ele>105.4</ele><time>2026-05-02T06:36:17.711Z</time></trkpt><trkpt lat="42.40591" lon="14.1155033"><ele>106.60000000000001</ele><time>2026-05-02T06:36:18.711Z</time></trkpt><trkpt lat="42.4058133" lon="14.1154333"><ele>107.80000000000001</ele><time>2026-05-02T06:36:20.711Z</time></trkpt><trkpt lat="42.4056833" lon="14.1154483"><ele>109.0</ele><time>2026-05-02T06:36:22.71Z</time></trkpt><trkpt lat="42.4055983" lon="14.11548"><ele>109.00000000000001</ele><time>2026-05-02T06:36:23.71Z</time></trkpt><trkpt lat="42.4055167" lon="14.1154983"><ele>109.0</ele><time>2026-05-02T06:36:24.711Z</time></trkpt><trkpt lat="42.4054517" lon="14.1155067"><ele>109.0</ele><time>2026-05-02T06:36:25.711Z</time></trkpt><trkpt lat="42.405385" lon="14.1155083"><ele>109.0</ele><time>2026-05-02T06:36:26.71Z</time></trkpt><trkpt lat="42.4053083" lon="14.115505"><ele>109.00000000000001</ele><time>2026-05-02T06:36:27.71Z</time></trkpt><trkpt lat="42.4052167" lon="14.1154917"><ele>109.0</ele><time>2026-05-02T06:36:28.711Z</time></trkpt><trkpt lat="42.4051133" lon="14.115475"><ele>107.6</ele><time>2026-05-02T06:36:29.71Z</time></trkpt><trkpt lat="42.40501" lon="14.11546"><ele>106.2</ele><time>2026-05-02T06:36:30.71Z</time></trkpt><trkpt lat="42.4049117" lon="14.1154333"><ele>104.8</ele><time>2026-05-02T06:36:31.71Z</time></trkpt><trkpt lat="42.40481" lon="14.11538"><ele>103.39999999999999</ele><time>2026-05-02T06:36:32.71Z</time></trkpt><trkpt lat="42.4047017" lon="14.1153067"><ele>102.0</ele><time>2026-05-02T06:36:33.711Z</time></trkpt><trkpt lat="42.40461" lon="14.1152267"><ele>101.33333333333333</ele><time>2026-05-02T06:36:34.711Z</time></trkpt><trkpt lat="42.4045317" lon="14.11515"><ele>100.66666666666666</ele><time>2026-05-02T06:36:35.711Z</time></trkpt><trkpt lat="42.4044783" lon="14.1150917"><ele>100.0</ele><time>2026-05-02T06:36:36.711Z</time></trkpt><trkpt lat="42.4044267" lon="14.1150267"><ele>99.33333333333333</ele><time>2026-05-02T06:36:38.711Z</time></trkpt><trkpt lat="42.404475" lon="14.115125"><ele>98.66666666666666</ele><time>2026-05-02T06:36:51.711Z</time></trkpt><trkpt lat="42.4045317" lon="14.1151733"><ele>98.0</ele><time>2026-05-02T06:36:52.711Z</time></trkpt><trkpt lat="42.4046033" lon="14.1152317"><ele>98.80000000000001</ele><time>2026-05-02T06:36:53.711Z</time></trkpt><trkpt lat="42.4046883" lon="14.115285"><ele>99.6</ele><time>2026-05-02T06:36:54.71Z</time></trkpt><trkpt lat="42.4047833" lon="14.1153483"><ele>100.4</ele><time>2026-05-02T06:36:55.71Z</time></trkpt><trkpt lat="42.40488" lon="14.1154033"><ele>101.19999999999999</ele><time>2026-05-02T06:36:56.711Z</time></trkpt><trkpt lat="42.4049583" lon="14.1154467"><ele>102.0</ele><time>2026-05-02T06:36:57.71Z</time></trkpt><trkpt lat="42.405025" lon="14.115475"><ele>102.0</ele><time>2026-05-02T06:36:58.711Z</time></trkpt><trkpt lat="42.405105" lon="14.1154867"><ele>102.0</ele><time>2026-05-02T06:36:59.711Z</time></trkpt><trkpt lat="42.4052" lon="14.11549"><ele>102.0</ele><time>2026-05-02T06:37:00.71Z</time></trkpt><trkpt lat="42.4052967" lon="14.115485"><ele>102.0</ele><time>2026-05-02T06:37:01.71Z</time></trkpt><trkpt lat="42.405375" lon="14.115495"><ele>102.0</ele><time>2026-05-02T06:37:02.71Z</time></trkpt><trkpt lat="42.4054367" lon="14.11554"><ele>102.0</ele><time>2026-05-02T06:37:04.71Z</time></trkpt><trkpt lat="42.40542" lon="14.1156717"><ele>102.0</ele><time>2026-05-02T06:37:11.711Z</time></trkpt><trkpt lat="42.4053583" lon="14.1158233"><ele>102.0</ele><time>2026-05-02T06:37:13.71Z</time></trkpt><trkpt lat="42.40531" lon="14.1159033"><ele>102.0</ele><time>2026-05-02T06:37:14.711Z</time></trkpt><trkpt lat="42.4052533" lon="14.115995"><ele>102.0</ele><time>2026-05-02T06:37:15.71Z</time></trkpt><trkpt lat="42.4051883" lon="14.1160917"><ele>102.0</ele><time>2026-05-02T06:37:16.71Z</time></trkpt><trkpt lat="42.405105" lon="14.116205"><ele>102.0</ele><time>2026-05-02T06:37:17.711Z</time></trkpt><trkpt lat="42.4050167" lon="14.1163217"><ele>102.0</ele><time>2026-05-02T06:37:18.71Z</time></trkpt><trkpt lat="42.4049217" lon="14.116445"><ele>102.0</ele><time>2026-05-02T06:37:19.711Z</time></trkpt><trkpt lat="42.404825" lon="14.116565"><ele>102.0</ele><time>2026-05-02T06:37:20.711Z</time></trkpt><trkpt lat="42.4047333" lon="14.11668"><ele>99.0</ele><time>2026-05-02T06:37:21.711Z</time></trkpt><trkpt lat="42.404635" lon="14.116795"><ele>96.0</ele><time>2026-05-02T06:37:22.711Z</time></trkpt><trkpt lat="42.404545" lon="14.1169117"><ele>93.0</ele><time>2026-05-02T06:37:23.711Z</time></trkpt><trkpt lat="42.4044517" lon="14.1170333"><ele>90.0</ele><time>2026-05-02T06:37:24.711Z</time></trkpt><trkpt lat="42.4043517" lon="14.11715"><ele>90.0</ele><time>2026-05-02T06:37:25.71Z</time></trkpt><trkpt lat="42.4042583" lon="14.1172667"><ele>90.0</ele><time>2026-05-02T06:37:26.711Z</time></trkpt><trkpt lat="42.404165" lon="14.1173883"><ele>90.0</ele><time>2026-05-02T06:37:27.711Z</time></trkpt><trkpt lat="42.4040683" lon="14.1174983"><ele>90.0</ele><time>2026-05-02T06:37:28.71Z</time></trkpt><trkpt lat="42.4039733" lon="14.1176117"><ele>88.75</ele><time>2026-05-02T06:37:29.711Z</time></trkpt><trkpt lat="42.4038783" lon="14.1177283"><ele>87.5</ele><time>2026-05-02T06:37:30.71Z</time></trkpt><trkpt lat="42.4037867" lon="14.1178433"><ele>86.25</ele><time>2026-05-02T06:37:31.71Z</time></trkpt><trkpt lat="42.403695" lon="14.1179567"><ele>85.0</ele><time>2026-05-02T06:37:32.711Z</time></trkpt><trkpt lat="42.4036033" lon="14.1180683"><ele>84.25</ele><time>2026-05-02T06:37:33.71Z</time></trkpt><trkpt lat="42.403515" lon="14.118165"><ele>83.5</ele><time>2026-05-02T06:37:34.711Z</time></trkpt><trkpt lat="42.4034333" lon="14.1182733"><ele>82.75</ele><time>2026-05-02T06:37:35.71Z</time></trkpt><trkpt lat="42.4033433" lon="14.1183717"><ele>82.0</ele><time>2026-05-02T06:37:36.711Z</time></trkpt><trkpt lat="42.40326" lon="14.1184833"><ele>81.5</ele><time>2026-05-02T06:37:37.71Z</time></trkpt><trkpt lat="42.4031717" lon="14.1185967"><ele>81.0</ele><time>2026-05-02T06:37:38.711Z</time></trkpt><trkpt lat="42.4030867" lon="14.1187083"><ele>80.5</ele><time>2026-05-02T06:37:39.71Z</time></trkpt><trkpt lat="42.403005" lon="14.1188117"><ele>80.0</ele><time>2026-05-02T06:37:40.71Z</time></trkpt><trkpt lat="42.40293" lon="14.11891"><ele>79.8</ele><time>2026-05-02T06:37:41.71Z</time></trkpt><trkpt lat="42.4028617" lon="14.1190133"><ele>79.6</ele><time>2026-05-02T06:37:42.711Z</time></trkpt><trkpt lat="42.4027883" lon="14.1191067"><ele>79.4</ele><time>2026-05-02T06:37:43.71Z</time></trkpt><trkpt lat="42.4027117" lon="14.119195"><ele>79.2</ele><time>2026-05-02T06:37:44.711Z</time></trkpt><trkpt lat="42.4026317" lon="14.1192883"><ele>79.0</ele><time>2026-05-02T06:37:45.711Z</time></trkpt><trkpt lat="42.4025433" lon="14.1193833"><ele>78.0</ele><time>2026-05-02T06:37:46.71Z</time></trkpt><trkpt lat="42.4024667" lon="14.11947"><ele>77.0</ele><time>2026-05-02T06:37:47.71Z</time></trkpt><trkpt lat="42.402375" lon="14.1195617"><ele>76.0</ele><time>2026-05-02T06:37:48.711Z</time></trkpt><trkpt lat="42.4022817" lon="14.1196517"><ele>75.0</ele><time>2026-05-02T06:37:49.71Z</time></trkpt><trkpt lat="42.4021767" lon="14.119745"><ele>74.5</ele><time>2026-05-02T06:37:50.71Z</time></trkpt><trkpt lat="42.40206" lon="14.1198517"><ele>74.0</ele><time>2026-05-02T06:37:51.711Z</time></trkpt><trkpt lat="42.4019367" lon="14.119955"><ele>73.5</ele><time>2026-05-02T06:37:52.711Z</time></trkpt><trkpt lat="42.40182" lon="14.120055"><ele>73.0</ele><time>2026-05-02T06:37:53.711Z</time></trkpt><trkpt lat="42.4017" lon="14.12016"><ele>71.5</ele><time>2026-05-02T06:37:54.711Z</time></trkpt><trkpt lat="42.4015833" lon="14.120265"><ele>70.0</ele><time>2026-05-02T06:37:55.71Z</time></trkpt><trkpt lat="42.4014717" lon="14.120365"><ele>68.5</ele><time>2026-05-02T06:37:56.71Z</time></trkpt><trkpt lat="42.4013633" lon="14.1204617"><ele>67.0</ele><time>2026-05-02T06:37:57.71Z</time></trkpt><trkpt lat="42.4012583" lon="14.1205533"><ele>66.5</ele><time>2026-05-02T06:37:58.71Z</time></trkpt><trkpt lat="42.4011633" lon="14.1206367"><ele>66.0</ele><time>2026-05-02T06:37:59.71Z</time></trkpt><trkpt lat="42.4010683" lon="14.1207283"><ele>65.5</ele><time>2026-05-02T06:38:00.71Z</time></trkpt><trkpt lat="42.4009683" lon="14.12082"><ele>65.0</ele><time>2026-05-02T06:38:01.71Z</time></trkpt><trkpt lat="42.4008683" lon="14.1209083"><ele>64.75</ele><time>2026-05-02T06:38:02.711Z</time></trkpt><trkpt lat="42.4007733" lon="14.1210033"><ele>64.5</ele><time>2026-05-02T06:38:03.71Z</time></trkpt><trkpt lat="42.4006767" lon="14.121095"><ele>64.25</ele><time>2026-05-02T06:38:04.71Z</time></trkpt><trkpt lat="42.4005883" lon="14.1211833"><ele>64.0</ele><time>2026-05-02T06:38:05.711Z</time></trkpt><trkpt lat="42.4004917" lon="14.1212767"><ele>63.25</ele><time>2026-05-02T06:38:06.71Z</time></trkpt><trkpt lat="42.4003817" lon="14.1213767"><ele>62.5</ele><time>2026-05-02T06:38:07.711Z</time></trkpt><trkpt lat="42.4002717" lon="14.1214683"><ele>61.75</ele><time>2026-05-02T06:38:08.711Z</time></trkpt><trkpt lat="42.4001767" lon="14.1215567"><ele>61.0</ele><time>2026-05-02T06:38:09.71Z</time></trkpt><trkpt lat="42.4001017" lon="14.1216433"><ele>61.0</ele><time>2026-05-02T06:38:10.711Z</time></trkpt><trkpt lat="42.4000333" lon="14.12176"><ele>61.0</ele><time>2026-05-02T06:38:11.71Z</time></trkpt><trkpt lat="42.3999767" lon="14.1218967"><ele>61.0</ele><time>2026-05-02T06:38:12.71Z</time></trkpt><trkpt lat="42.399915" lon="14.1220633"><ele>61.0</ele><time>2026-05-02T06:38:13.711Z</time></trkpt><trkpt lat="42.3998583" lon="14.1222317"><ele>61.0</ele><time>2026-05-02T06:38:14.711Z</time></trkpt><trkpt lat="42.399805" lon="14.1223917"><ele>60.99999999999999</ele><time>2026-05-02T06:38:15.711Z</time></trkpt><trkpt lat="42.399755" lon="14.122535"><ele>60.99999999999999</ele><time>2026-05-02T06:38:16.711Z</time></trkpt><trkpt lat="42.3997283" lon="14.12267"><ele>61.0</ele><time>2026-05-02T06:38:17.711Z</time></trkpt><trkpt lat="42.3997133" lon="14.1228"><ele>61.0</ele><time>2026-05-02T06:38:18.711Z</time></trkpt><trkpt lat="42.39972" lon="14.122945"><ele>61.0</ele><time>2026-05-02T06:38:19.71Z</time></trkpt><trkpt lat="42.3997433" lon="14.1231033"><ele>60.99999999999999</ele><time>2026-05-02T06:38:20.711Z</time></trkpt><trkpt lat="42.39975" lon="14.1232517"><ele>60.99999999999999</ele><time>2026-05-02T06:38:21.71Z</time></trkpt><trkpt lat="42.3997383" lon="14.123385"><ele>61.0</ele><time>2026-05-02T06:38:22.711Z</time></trkpt><trkpt lat="42.3996983" lon="14.123525"><ele>61.0</ele><time>2026-05-02T06:38:23.71Z</time></trkpt><trkpt lat="42.39963" lon="14.12369"><ele>58.666666666666664</ele><time>2026-05-02T06:38:24.71Z</time></trkpt><trkpt lat="42.3995467" lon="14.1238717"><ele>56.33333333333333</ele><time>2026-05-02T06:38:25.711Z</time></trkpt><trkpt lat="42.3994717" lon="14.12407"><ele>54.0</ele><time>2026-05-02T06:38:26.71Z</time></trkpt><trkpt lat="42.39939" lon="14.1242617"><ele>53.5</ele><time>2026-05-02T06:38:27.711Z</time></trkpt><trkpt lat="42.39931" lon="14.1244367"><ele>53.0</ele><time>2026-05-02T06:38:28.711Z</time></trkpt><trkpt lat="42.399225" lon="14.1246017"><ele>52.5</ele><time>2026-05-02T06:38:29.71Z</time></trkpt><trkpt lat="42.399145" lon="14.1247667"><ele>52.0</ele><time>2026-05-02T06:38:30.71Z</time></trkpt><trkpt lat="42.3990583" lon="14.12492"><ele>51.75</ele><time>2026-05-02T06:38:31.711Z</time></trkpt><trkpt lat="42.3989667" lon="14.12507"><ele>51.5</ele><time>2026-05-02T06:38:32.711Z</time></trkpt><trkpt lat="42.3988733" lon="14.1252033"><ele>51.25</ele><time>2026-05-02T06:38:33.711Z</time></trkpt><trkpt lat="42.3987667" lon="14.125295"><ele>51.0</ele><time>2026-05-02T06:38:34.71Z</time></trkpt><trkpt lat="42.3986633" lon="14.1253433"><ele>49.5</ele><time>2026-05-02T06:38:35.711Z</time></trkpt><trkpt lat="42.3985433" lon="14.1253567"><ele>48.0</ele><time>2026-05-02T06:38:36.71Z</time></trkpt><trkpt lat="42.39841" lon="14.1253517"><ele>46.5</ele><time>2026-05-02T06:38:37.711Z</time></trkpt><trkpt lat="42.398285" lon="14.12532"><ele>45.0</ele><time>2026-05-02T06:38:38.71Z</time></trkpt><trkpt lat="42.398165" lon="14.1252867"><ele>45.0</ele><time>2026-05-02T06:38:39.711Z</time></trkpt><trkpt lat="42.39804" lon="14.12527"><ele>45.0</ele><time>2026-05-02T06:38:40.71Z</time></trkpt><trkpt lat="42.3979267" lon="14.1252983"><ele>45.0</ele><time>2026-05-02T06:38:41.711Z</time></trkpt><trkpt lat="42.3978267" lon="14.1253567"><ele>45.0</ele><time>2026-05-02T06:38:42.71Z</time></trkpt><trkpt lat="42.3977433" lon="14.125455"><ele>45.2</ele><time>2026-05-02T06:38:43.71Z</time></trkpt><trkpt lat="42.3976833" lon="14.1255817"><ele>45.4</ele><time>2026-05-02T06:38:44.71Z</time></trkpt><trkpt lat="42.3976267" lon="14.1257217"><ele>45.599999999999994</ele><time>2026-05-02T06:38:45.711Z</time></trkpt><trkpt lat="42.3975717" lon="14.1258433"><ele>45.8</ele><time>2026-05-02T06:38:46.711Z</time></trkpt><trkpt lat="42.3975067" lon="14.1259317"><ele>46.0</ele><time>2026-05-02T06:38:47.71Z</time></trkpt><trkpt lat="42.3974267" lon="14.1260133"><ele>46.8</ele><time>2026-05-02T06:38:48.711Z</time></trkpt><trkpt lat="42.3973367" lon="14.126085"><ele>47.599999999999994</ele><time>2026-05-02T06:38:49.711Z</time></trkpt><trkpt lat="42.397245" lon="14.1261333"><ele>48.4</ele><time>2026-05-02T06:38:50.711Z</time></trkpt><trkpt lat="42.397145" lon="14.126175"><ele>49.2</ele><time>2026-05-02T06:38:51.711Z</time></trkpt><trkpt lat="42.3970367" lon="14.12622"><ele>50.0</ele><time>2026-05-02T06:38:52.711Z</time></trkpt><trkpt lat="42.3969383" lon="14.1262633"><ele>51.0</ele><time>2026-05-02T06:38:53.711Z</time></trkpt><trkpt lat="42.3968367" lon="14.1263067"><ele>52.0</ele><time>2026-05-02T06:38:54.71Z</time></trkpt><trkpt lat="42.396725" lon="14.126365"><ele>53.0</ele><time>2026-05-02T06:38:55.71Z</time></trkpt><trkpt lat="42.396605" lon="14.1264267"><ele>54.0</ele><time>2026-05-02T06:38:56.71Z</time></trkpt><trkpt lat="42.396475" lon="14.12648"><ele>54.0</ele><time>2026-05-02T06:38:57.711Z</time></trkpt><trkpt lat="42.3963467" lon="14.126525"><ele>54.0</ele><time>2026-05-02T06:38:58.71Z</time></trkpt><trkpt lat="42.396215" lon="14.1265483"><ele>54.0</ele><time>2026-05-02T06:38:59.711Z</time></trkpt><trkpt lat="42.3960767" lon="14.1265683"><ele>54.0</ele><time>2026-05-02T06:39:00.711Z</time></trkpt><trkpt lat="42.3959433" lon="14.126595"><ele>54.0</ele><time>2026-05-02T06:39:01.71Z</time></trkpt><trkpt lat="42.3958" lon="14.1266283"><ele>54.0</ele><time>2026-05-02T06:39:02.71Z</time></trkpt><trkpt lat="42.3956517" lon="14.1266683"><ele>54.0</ele><time>2026-05-02T06:39:03.711Z</time></trkpt><trkpt lat="42.3955017" lon="14.1267067"><ele>54.0</ele><time>2026-05-02T06:39:04.711Z</time></trkpt><trkpt lat="42.3953417" lon="14.1267433"><ele>54.0</ele><time>2026-05-02T06:39:05.71Z</time></trkpt><trkpt lat="42.3951733" lon="14.1267767"><ele>54.0</ele><time>2026-05-02T06:39:06.71Z</time></trkpt><trkpt lat="42.3950067" lon="14.1268067"><ele>54.0</ele><time>2026-05-02T06:39:07.711Z</time></trkpt><trkpt lat="42.3948383" lon="14.1268433"><ele>54.0</ele><time>2026-05-02T06:39:08.711Z</time></trkpt><trkpt lat="42.3946717" lon="14.1268767"><ele>54.0</ele><time>2026-05-02T06:39:09.71Z</time></trkpt><trkpt lat="42.394505" lon="14.12691"><ele>54.0</ele><time>2026-05-02T06:39:10.711Z</time></trkpt><trkpt lat="42.3943417" lon="14.1269383"><ele>55.0</ele><time>2026-05-02T06:39:11.71Z</time></trkpt><trkpt lat="42.39418" lon="14.1269667"><ele>56.0</ele><time>2026-05-02T06:39:12.711Z</time></trkpt><trkpt lat="42.394025" lon="14.127"><ele>57.0</ele><time>2026-05-02T06:39:13.711Z</time></trkpt><trkpt lat="42.3938717" lon="14.1270367"><ele>56.5</ele><time>2026-05-02T06:39:14.71Z</time></trkpt><trkpt lat="42.3937333" lon="14.127085"><ele>56.0</ele><time>2026-05-02T06:39:15.711Z</time></trkpt><trkpt lat="42.3936" lon="14.1271567"><ele>55.5</ele><time>2026-05-02T06:39:16.711Z</time></trkpt><trkpt lat="42.3934633" lon="14.1272717"><ele>55.0</ele><time>2026-05-02T06:39:17.711Z</time></trkpt><trkpt lat="42.3933383" lon="14.1274133"><ele>54.666666666666664</ele><time>2026-05-02T06:39:18.711Z</time></trkpt><trkpt lat="42.39321" lon="14.127565"><ele>54.33333333333333</ele><time>2026-05-02T06:39:19.711Z</time></trkpt><trkpt lat="42.3930833" lon="14.127725"><ele>54.0</ele><time>2026-05-02T06:39:20.71Z</time></trkpt><trkpt lat="42.3929483" lon="14.12788"><ele>54.0</ele><time>2026-05-02T06:39:21.71Z</time></trkpt><trkpt lat="42.3928133" lon="14.1280317"><ele>54.0</ele><time>2026-05-02T06:39:22.711Z</time></trkpt><trkpt lat="42.3926917" lon="14.1281917"><ele>54.0</ele><time>2026-05-02T06:39:23.711Z</time></trkpt><trkpt lat="42.3925717" lon="14.12835"><ele>54.0</ele><time>2026-05-02T06:39:24.71Z</time></trkpt><trkpt lat="42.3924567" lon="14.1285083"><ele>54.0</ele><time>2026-05-02T06:39:25.71Z</time></trkpt><trkpt lat="42.39235" lon="14.1286633"><ele>54.0</ele><time>2026-05-02T06:39:26.711Z</time></trkpt><trkpt lat="42.392245" lon="14.128825"><ele>54.25</ele><time>2026-05-02T06:39:27.711Z</time></trkpt><trkpt lat="42.3921433" lon="14.1289667"><ele>54.5</ele><time>2026-05-02T06:39:28.711Z</time></trkpt><trkpt lat="42.3920483" lon="14.1291067"><ele>54.75</ele><time>2026-05-02T06:39:29.71Z</time></trkpt><trkpt lat="42.3919633" lon="14.1292417"><ele>55.0</ele><time>2026-05-02T06:39:30.711Z</time></trkpt><trkpt lat="42.39189" lon="14.129355"><ele>55.0</ele><time>2026-05-02T06:39:31.711Z</time></trkpt><trkpt lat="42.391825" lon="14.1294433"><ele>55.0</ele><time>2026-05-02T06:39:32.71Z</time></trkpt><trkpt lat="42.391745" lon="14.1295067"><ele>55.0</ele><time>2026-05-02T06:39:33.71Z</time></trkpt><trkpt lat="42.391655" lon="14.12954"><ele>55.0</ele><time>2026-05-02T06:39:34.711Z</time></trkpt><trkpt lat="42.391545" lon="14.1295467"><ele>55.0</ele><time>2026-05-02T06:39:35.71Z</time></trkpt><trkpt lat="42.3914383" lon="14.1295267"><ele>51.75</ele><time>2026-05-02T06:39:36.711Z</time></trkpt><trkpt lat="42.3913333" lon="14.1294883"><ele>48.5</ele><time>2026-05-02T06:39:37.71Z</time></trkpt><trkpt lat="42.3912183" lon="14.1294567"><ele>45.25</ele><time>2026-05-02T06:39:38.71Z</time></trkpt><trkpt lat="42.3910967" lon="14.129435"><ele>42.0</ele><time>2026-05-02T06:39:39.711Z</time></trkpt><trkpt lat="42.3909567" lon="14.129425"><ele>42.0</ele><time>2026-05-02T06:39:40.711Z</time></trkpt><trkpt lat="42.3908017" lon="14.1294533"><ele>42.0</ele><time>2026-05-02T06:39:41.711Z</time></trkpt><trkpt lat="42.3906483" lon="14.1295083"><ele>42.0</ele><time>2026-05-02T06:39:42.71Z</time></trkpt><trkpt lat="42.3904983" lon="14.12958"><ele>39.0</ele><time>2026-05-02T06:39:43.709Z</time></trkpt><trkpt lat="42.3903517" lon="14.12964"><ele>36.0</ele><time>2026-05-02T06:39:44.71Z</time></trkpt><trkpt lat="42.3902117" lon="14.1296967"><ele>33.0</ele><time>2026-05-02T06:39:45.71Z</time></trkpt><trkpt lat="42.3900717" lon="14.1297517"><ele>30.0</ele><time>2026-05-02T06:39:46.709Z</time></trkpt><trkpt lat="42.3899467" lon="14.1298033"><ele>30.0</ele><time>2026-05-02T06:39:47.709Z</time></trkpt><trkpt lat="42.3898417" lon="14.1298533"><ele>30.0</ele><time>2026-05-02T06:39:48.709Z</time></trkpt><trkpt lat="42.3897483" lon="14.1298883"><ele>30.0</ele><time>2026-05-02T06:39:49.71Z</time></trkpt><trkpt lat="42.3896783" lon="14.1299033"><ele>30.0</ele><time>2026-05-02T06:39:50.709Z</time></trkpt><trkpt lat="42.3895933" lon="14.1299117"><ele>30.0</ele><time>2026-05-02T06:39:52.709Z</time></trkpt><trkpt lat="42.38952" lon="14.1299267"><ele>30.0</ele><time>2026-05-02T06:39:59.71Z</time></trkpt><trkpt lat="42.3894133" lon="14.1300183"><ele>30.0</ele><time>2026-05-02T06:40:01.71Z</time></trkpt><trkpt lat="42.389355" lon="14.130095"><ele>30.0</ele><time>2026-05-02T06:40:02.71Z</time></trkpt><trkpt lat="42.3892817" lon="14.1301683"><ele>30.0</ele><time>2026-05-02T06:40:03.71Z</time></trkpt><trkpt lat="42.3891917" lon="14.130235"><ele>30.0</ele><time>2026-05-02T06:40:04.709Z</time></trkpt><trkpt lat="42.3891033" lon="14.1303083"><ele>30.0</ele><time>2026-05-02T06:40:05.71Z</time></trkpt><trkpt lat="42.3890217" lon="14.13038"><ele>30.0</ele><time>2026-05-02T06:40:06.71Z</time></trkpt><trkpt lat="42.388925" lon="14.1304517"><ele>30.0</ele><time>2026-05-02T06:40:07.71Z</time></trkpt><trkpt lat="42.3888317" lon="14.13052"><ele>30.0</ele><time>2026-05-02T06:40:08.71Z</time></trkpt><trkpt lat="42.3887467" lon="14.1305833"><ele>30.0</ele><time>2026-05-02T06:40:09.71Z</time></trkpt><trkpt lat="42.3886733" lon="14.1306383"><ele>30.0</ele><time>2026-05-02T06:40:10.71Z</time></trkpt><trkpt lat="42.3885833" lon="14.1306933"><ele>30.0</ele><time>2026-05-02T06:40:12.71Z</time></trkpt><trkpt lat="42.3884967" lon="14.1306767"><ele>30.0</ele><time>2026-05-02T06:40:14.71Z</time></trkpt><trkpt lat="42.38842" lon="14.1306467"><ele>30.0</ele><time>2026-05-02T06:40:15.71Z</time></trkpt><trkpt lat="42.3883367" lon="14.1306"><ele>30.0</ele><time>2026-05-02T06:40:16.71Z</time></trkpt><trkpt lat="42.3882517" lon="14.1305467"><ele>30.0</ele><time>2026-05-02T06:40:17.71Z</time></trkpt><trkpt lat="42.388175" lon="14.1304917"><ele>30.0</ele><time>2026-05-02T06:40:18.709Z</time></trkpt><trkpt lat="42.3881133" lon="14.1304333"><ele>30.0</ele><time>2026-05-02T06:40:19.71Z</time></trkpt><trkpt lat="42.388055" lon="14.1303933"><ele>30.0</ele><time>2026-05-02T06:40:20.71Z</time></trkpt><trkpt lat="42.3879717" lon="14.1303733"><ele>30.0</ele><time>2026-05-02T06:40:21.71Z</time></trkpt><trkpt lat="42.387875" lon="14.13035"><ele>30.0</ele><time>2026-05-02T06:40:22.71Z</time></trkpt><trkpt lat="42.3877733" lon="14.130295"><ele>30.0</ele><time>2026-05-02T06:40:23.71Z</time></trkpt><trkpt lat="42.3876783" lon="14.1302117"><ele>30.5</ele><time>2026-05-02T06:40:24.709Z</time></trkpt><trkpt lat="42.3875733" lon="14.1301083"><ele>31.0</ele><time>2026-05-02T06:40:25.709Z</time></trkpt><trkpt lat="42.3874517" lon="14.1299967"><ele>31.5</ele><time>2026-05-02T06:40:26.71Z</time></trkpt><trkpt lat="42.3873333" lon="14.1298767"><ele>32.0</ele><time>2026-05-02T06:40:27.709Z</time></trkpt><trkpt lat="42.3872117" lon="14.12976"><ele>32.33333333333333</ele><time>2026-05-02T06:40:28.709Z</time></trkpt><trkpt lat="42.3870883" lon="14.1296367"><ele>32.666666666666664</ele><time>2026-05-02T06:40:29.709Z</time></trkpt><trkpt lat="42.3869633" lon="14.1295167"><ele>33.0</ele><time>2026-05-02T06:40:30.709Z</time></trkpt><trkpt lat="42.3868567" lon="14.1293833"><ele>33.0</ele><time>2026-05-02T06:40:31.709Z</time></trkpt><trkpt lat="42.3867517" lon="14.12924"><ele>33.0</ele><time>2026-05-02T06:40:32.71Z</time></trkpt><trkpt lat="42.3866483" lon="14.1290833"><ele>33.0</ele><time>2026-05-02T06:40:33.71Z</time></trkpt><trkpt lat="42.3865483" lon="14.1289183"><ele>33.666666666666664</ele><time>2026-05-02T06:40:34.709Z</time></trkpt><trkpt lat="42.3864517" lon="14.1287517"><ele>34.33333333333333</ele><time>2026-05-02T06:40:35.709Z</time></trkpt><trkpt lat="42.3863567" lon="14.1285883"><ele>35.0</ele><time>2026-05-02T06:40:36.71Z</time></trkpt><trkpt lat="42.38625" lon="14.1284383"><ele>35.0</ele><time>2026-05-02T06:40:37.71Z</time></trkpt><trkpt lat="42.3861383" lon="14.1283"><ele>35.0</ele><time>2026-05-02T06:40:38.709Z</time></trkpt><trkpt lat="42.3860167" lon="14.128185"><ele>35.0</ele><time>2026-05-02T06:40:39.71Z</time></trkpt><trkpt lat="42.3858817" lon="14.128075"><ele>35.33333333333333</ele><time>2026-05-02T06:40:40.709Z</time></trkpt><trkpt lat="42.3857433" lon="14.1279417"><ele>35.666666666666664</ele><time>2026-05-02T06:40:41.71Z</time></trkpt><trkpt lat="42.385605" lon="14.127805"><ele>36.0</ele><time>2026-05-02T06:40:42.709Z</time></trkpt><trkpt lat="42.385465" lon="14.1276633"><ele>36.0</ele><time>2026-05-02T06:40:43.71Z</time></trkpt><trkpt lat="42.3853267" lon="14.1275167"><ele>36.0</ele><time>2026-05-02T06:40:44.709Z</time></trkpt><trkpt lat="42.3851983" lon="14.127375"><ele>36.0</ele><time>2026-05-02T06:40:45.71Z</time></trkpt><trkpt lat="42.3850633" lon="14.12724"><ele>38.0</ele><time>2026-05-02T06:40:46.709Z</time></trkpt><trkpt lat="42.3849283" lon="14.1271417"><ele>40.0</ele><time>2026-05-02T06:40:47.709Z</time></trkpt><trkpt lat="42.3847817" lon="14.1270617"><ele>42.0</ele><time>2026-05-02T06:40:48.71Z</time></trkpt><trkpt lat="42.3846183" lon="14.1269983"><ele>42.0</ele><time>2026-05-02T06:40:49.709Z</time></trkpt><trkpt lat="42.38445" lon="14.1269417"><ele>42.0</ele><time>2026-05-02T06:40:50.709Z</time></trkpt><trkpt lat="42.38429" lon="14.1268767"><ele>42.0</ele><time>2026-05-02T06:40:51.71Z</time></trkpt><trkpt lat="42.3841283" lon="14.1268167"><ele>42.0</ele><time>2026-05-02T06:40:52.709Z</time></trkpt><trkpt lat="42.3839783" lon="14.1267383"><ele>42.0</ele><time>2026-05-02T06:40:53.709Z</time></trkpt><trkpt lat="42.383835" lon="14.1266633"><ele>42.0</ele><time>2026-05-02T06:40:54.71Z</time></trkpt><trkpt lat="42.3837083" lon="14.1265883"><ele>44.75</ele><time>2026-05-02T06:40:55.709Z</time></trkpt><trkpt lat="42.3835833" lon="14.1265067"><ele>47.5</ele><time>2026-05-02T06:40:56.71Z</time></trkpt><trkpt lat="42.383465" lon="14.1264333"><ele>50.25</ele><time>2026-05-02T06:40:57.709Z</time></trkpt><trkpt lat="42.383345" lon="14.1263983"><ele>53.0</ele><time>2026-05-02T06:40:58.709Z</time></trkpt><trkpt lat="42.3832283" lon="14.1263817"><ele>53.0</ele><time>2026-05-02T06:40:59.71Z</time></trkpt><trkpt lat="42.3831167" lon="14.1263917"><ele>53.0</ele><time>2026-05-02T06:41:00.709Z</time></trkpt><trkpt lat="42.382985" lon="14.126395"><ele>53.0</ele><time>2026-05-02T06:41:01.709Z</time></trkpt><trkpt lat="42.382855" lon="14.12638"><ele>53.0</ele><time>2026-05-02T06:41:02.71Z</time></trkpt><trkpt lat="42.3827317" lon="14.1263517"><ele>53.0</ele><time>2026-05-02T06:41:03.71Z</time></trkpt><trkpt lat="42.3826033" lon="14.1263017"><ele>53.0</ele><time>2026-05-02T06:41:04.709Z</time></trkpt><trkpt lat="42.38247" lon="14.1262283"><ele>53.0</ele><time>2026-05-02T06:41:05.709Z</time></trkpt><trkpt lat="42.38234" lon="14.1261283"><ele>53.0</ele><time>2026-05-02T06:41:06.709Z</time></trkpt><trkpt lat="42.3822083" lon="14.1260017"><ele>53.0</ele><time>2026-05-02T06:41:07.71Z</time></trkpt><trkpt lat="42.3820667" lon="14.1258733"><ele>53.0</ele><time>2026-05-02T06:41:08.71Z</time></trkpt><trkpt lat="42.3819317" lon="14.1257483"><ele>53.0</ele><time>2026-05-02T06:41:09.709Z</time></trkpt><trkpt lat="42.381785" lon="14.125635"><ele>53.0</ele><time>2026-05-02T06:41:10.709Z</time></trkpt><trkpt lat="42.3816367" lon="14.12553"><ele>53.0</ele><time>2026-05-02T06:41:11.709Z</time></trkpt><trkpt lat="42.3814883" lon="14.1254217"><ele>53.0</ele><time>2026-05-02T06:41:12.71Z</time></trkpt><trkpt lat="42.3813367" lon="14.1253117"><ele>51.333333333333336</ele><time>2026-05-02T06:41:13.709Z</time></trkpt><trkpt lat="42.3811817" lon="14.1252067"><ele>49.66666666666667</ele><time>2026-05-02T06:41:14.709Z</time></trkpt><trkpt lat="42.38103" lon="14.125105"><ele>48.0</ele><time>2026-05-02T06:41:15.709Z</time></trkpt><trkpt lat="42.3808783" lon="14.1249967"><ele>49.33333333333333</ele><time>2026-05-02T06:41:16.71Z</time></trkpt><trkpt lat="42.3807267" lon="14.1248883"><ele>50.666666666666664</ele><time>2026-05-02T06:41:17.71Z</time></trkpt><trkpt lat="42.3805867" lon="14.1247833"><ele>52.0</ele><time>2026-05-02T06:41:18.71Z</time></trkpt><trkpt lat="42.3804617" lon="14.124675"><ele>52.0</ele><time>2026-05-02T06:41:19.71Z</time></trkpt><trkpt lat="42.38034" lon="14.1245783"><ele>52.0</ele><time>2026-05-02T06:41:20.71Z</time></trkpt><trkpt lat="42.3802233" lon="14.1244933"><ele>52.0</ele><time>2026-05-02T06:41:21.709Z</time></trkpt><trkpt lat="42.3801133" lon="14.12442"><ele>52.0</ele><time>2026-05-02T06:41:22.709Z</time></trkpt><trkpt lat="42.38001" lon="14.1243467"><ele>51.99999999999999</ele><time>2026-05-02T06:41:23.71Z</time></trkpt><trkpt lat="42.3799233" lon="14.1242717"><ele>52.0</ele><time>2026-05-02T06:41:24.71Z</time></trkpt><trkpt lat="42.3798567" lon="14.1241933"><ele>52.0</ele><time>2026-05-02T06:41:25.709Z</time></trkpt><trkpt lat="42.379815" lon="14.1240967"><ele>52.0</ele><time>2026-05-02T06:41:26.709Z</time></trkpt><trkpt lat="42.3797917" lon="14.1239867"><ele>51.99999999999999</ele><time>2026-05-02T06:41:27.71Z</time></trkpt><trkpt lat="42.3797667" lon="14.1238883"><ele>52.0</ele><time>2026-05-02T06:41:28.709Z</time></trkpt><trkpt lat="42.37973" lon="14.1238083"><ele>53.400000000000006</ele><time>2026-05-02T06:41:29.71Z</time></trkpt><trkpt lat="42.37967" lon="14.123765"><ele>54.800000000000004</ele><time>2026-05-02T06:41:30.709Z</time></trkpt><trkpt lat="42.37959" lon="14.1237517"><ele>56.2</ele><time>2026-05-02T06:41:31.709Z</time></trkpt><trkpt lat="42.3794817" lon="14.1237367"><ele>57.6</ele><time>2026-05-02T06:41:32.709Z</time></trkpt><trkpt lat="42.3793517" lon="14.1237117"><ele>59.0</ele><time>2026-05-02T06:41:33.709Z</time></trkpt><trkpt lat="42.3792183" lon="14.1236767"><ele>59.0</ele><time>2026-05-02T06:41:34.709Z</time></trkpt><trkpt lat="42.37908" lon="14.1236417"><ele>59.0</ele><time>2026-05-02T06:41:35.71Z</time></trkpt><trkpt lat="42.378935" lon="14.1236133"><ele>59.0</ele><time>2026-05-02T06:41:36.709Z</time></trkpt><trkpt lat="42.3787817" lon="14.12359"><ele>59.0</ele><time>2026-05-02T06:41:37.709Z</time></trkpt><trkpt lat="42.3786317" lon="14.12356"><ele>58.0</ele><time>2026-05-02T06:41:38.71Z</time></trkpt><trkpt lat="42.378485" lon="14.123535"><ele>57.0</ele><time>2026-05-02T06:41:39.709Z</time></trkpt><trkpt lat="42.378335" lon="14.1235167"><ele>56.0</ele><time>2026-05-02T06:41:40.709Z</time></trkpt><trkpt lat="42.3781917" lon="14.123485"><ele>55.0</ele><time>2026-05-02T06:41:41.709Z</time></trkpt><trkpt lat="42.378055" lon="14.1234633"><ele>52.75</ele><time>2026-05-02T06:41:42.71Z</time></trkpt><trkpt lat="42.3779167" lon="14.1234467"><ele>50.5</ele><time>2026-05-02T06:41:43.71Z</time></trkpt><trkpt lat="42.3777867" lon="14.1234283"><ele>48.25</ele><time>2026-05-02T06:41:44.71Z</time></trkpt><trkpt lat="42.3776717" lon="14.123405"><ele>46.0</ele><time>2026-05-02T06:41:45.709Z</time></trkpt><trkpt lat="42.37756" lon="14.1233867"><ele>46.0</ele><time>2026-05-02T06:41:46.71Z</time></trkpt><trkpt lat="42.377455" lon="14.1233717"><ele>46.0</ele><time>2026-05-02T06:41:47.71Z</time></trkpt><trkpt lat="42.3773483" lon="14.12338"><ele>46.0</ele><time>2026-05-02T06:41:48.71Z</time></trkpt><trkpt lat="42.3772433" lon="14.123425"><ele>46.0</ele><time>2026-05-02T06:41:49.71Z</time></trkpt><trkpt lat="42.377155" lon="14.1234983"><ele>46.0</ele><time>2026-05-02T06:41:50.709Z</time></trkpt><trkpt lat="42.3770817" lon="14.1236067"><ele>45.599999999999994</ele><time>2026-05-02T06:41:51.71Z</time></trkpt><trkpt lat="42.377015" lon="14.1237183"><ele>45.2</ele><time>2026-05-02T06:41:52.71Z</time></trkpt><trkpt lat="42.37696" lon="14.123835"><ele>44.8</ele><time>2026-05-02T06:41:53.709Z</time></trkpt><trkpt lat="42.3768967" lon="14.1239483"><ele>44.400000000000006</ele><time>2026-05-02T06:41:54.709Z</time></trkpt><trkpt lat="42.37683" lon="14.1240517"><ele>44.0</ele><time>2026-05-02T06:41:55.709Z</time></trkpt><trkpt lat="42.3767567" lon="14.1241283"><ele>42.800000000000004</ele><time>2026-05-02T06:41:56.709Z</time></trkpt><trkpt lat="42.3766833" lon="14.12418"><ele>41.6</ele><time>2026-05-02T06:41:57.71Z</time></trkpt><trkpt lat="42.3766033" lon="14.1242033"><ele>40.4</ele><time>2026-05-02T06:41:58.709Z</time></trkpt><trkpt lat="42.37651" lon="14.124205"><ele>39.2</ele><time>2026-05-02T06:41:59.71Z</time></trkpt><trkpt lat="42.3764167" lon="14.1241883"><ele>38.0</ele><time>2026-05-02T06:42:00.71Z</time></trkpt><trkpt lat="42.376315" lon="14.124155"><ele>38.0</ele><time>2026-05-02T06:42:01.71Z</time></trkpt><trkpt lat="42.3762033" lon="14.1241017"><ele>38.0</ele><time>2026-05-02T06:42:02.709Z</time></trkpt><trkpt lat="42.3760833" lon="14.12405"><ele>38.0</ele><time>2026-05-02T06:42:03.709Z</time></trkpt><trkpt lat="42.3759533" lon="14.12401"><ele>38.0</ele><time>2026-05-02T06:42:04.71Z</time></trkpt><trkpt lat="42.3758267" lon="14.1239667"><ele>38.25</ele><time>2026-05-02T06:42:05.71Z</time></trkpt><trkpt lat="42.3757" lon="14.12391"><ele>38.5</ele><time>2026-05-02T06:42:06.709Z</time></trkpt><trkpt lat="42.3755733" lon="14.123835"><ele>38.75</ele><time>2026-05-02T06:42:07.71Z</time></trkpt><trkpt lat="42.375455" lon="14.1237517"><ele>39.0</ele><time>2026-05-02T06:42:08.709Z</time></trkpt><trkpt lat="42.3753467" lon="14.1236733"><ele>39.0</ele><time>2026-05-02T06:42:09.71Z</time></trkpt><trkpt lat="42.3752433" lon="14.123595"><ele>39.0</ele><time>2026-05-02T06:42:10.71Z</time></trkpt><trkpt lat="42.3751467" lon="14.1235183"><ele>39.0</ele><time>2026-05-02T06:42:11.71Z</time></trkpt><trkpt lat="42.37506" lon="14.1234433"><ele>39.0</ele><time>2026-05-02T06:42:12.709Z</time></trkpt><trkpt lat="42.3749717" lon="14.1233767"><ele>39.0</ele><time>2026-05-02T06:42:13.71Z</time></trkpt><trkpt lat="42.3748867" lon="14.123305"><ele>39.0</ele><time>2026-05-02T06:42:14.71Z</time></trkpt><trkpt lat="42.3748167" lon="14.1232433"><ele>39.0</ele><time>2026-05-02T06:42:15.709Z</time></trkpt><trkpt lat="42.3747483" lon="14.1231817"><ele>39.0</ele><time>2026-05-02T06:42:16.709Z</time></trkpt><trkpt lat="42.3746883" lon="14.123125"><ele>39.0</ele><time>2026-05-02T06:42:17.71Z</time></trkpt><trkpt lat="42.3745967" lon="14.1230483"><ele>39.0</ele><time>2026-05-02T06:42:19.71Z</time></trkpt><trkpt lat="42.3745433" lon="14.1230017"><ele>39.0</ele><time>2026-05-02T06:42:21.709Z</time></trkpt><trkpt lat="42.37447" lon="14.12295"><ele>39.333333333333336</ele><time>2026-05-02T06:42:30.709Z</time></trkpt><trkpt lat="42.3743767" lon="14.1228733"><ele>39.666666666666664</ele><time>2026-05-02T06:42:32.71Z</time></trkpt><trkpt lat="42.3743183" lon="14.12282"><ele>40.0</ele><time>2026-05-02T06:42:33.71Z</time></trkpt><trkpt lat="42.3742633" lon="14.1227567"><ele>40.33333333333333</ele><time>2026-05-02T06:42:34.709Z</time></trkpt><trkpt lat="42.3742067" lon="14.1226933"><ele>40.666666666666664</ele><time>2026-05-02T06:42:35.709Z</time></trkpt><trkpt lat="42.374135" lon="14.1226417"><ele>41.0</ele><time>2026-05-02T06:42:36.709Z</time></trkpt><trkpt lat="42.37404" lon="14.1225967"><ele>41.0</ele><time>2026-05-02T06:42:37.709Z</time></trkpt><trkpt lat="42.3739317" lon="14.1225467"><ele>41.0</ele><time>2026-05-02T06:42:38.71Z</time></trkpt><trkpt lat="42.37382" lon="14.12248"><ele>41.0</ele><time>2026-05-02T06:42:39.709Z</time></trkpt><trkpt lat="42.3737067" lon="14.122395"><ele>41.0</ele><time>2026-05-02T06:42:40.709Z</time></trkpt><trkpt lat="42.3735917" lon="14.1223067"><ele>41.0</ele><time>2026-05-02T06:42:41.71Z</time></trkpt><trkpt lat="42.3734733" lon="14.122215"><ele>41.0</ele><time>2026-05-02T06:42:42.71Z</time></trkpt><trkpt lat="42.3733633" lon="14.1221233"><ele>41.0</ele><time>2026-05-02T06:42:43.71Z</time></trkpt><trkpt lat="42.3732567" lon="14.122035"><ele>41.0</ele><time>2026-05-02T06:42:44.709Z</time></trkpt><trkpt lat="42.373145" lon="14.1219467"><ele>41.0</ele><time>2026-05-02T06:42:45.71Z</time></trkpt><trkpt lat="42.3730283" lon="14.1218583"><ele>41.0</ele><time>2026-05-02T06:42:46.71Z</time></trkpt><trkpt lat="42.3729117" lon="14.1217683"><ele>41.0</ele><time>2026-05-02T06:42:47.709Z</time></trkpt><trkpt lat="42.37279" lon="14.121675"><ele>41.0</ele><time>2026-05-02T06:42:48.71Z</time></trkpt><trkpt lat="42.37267" lon="14.1215717"><ele>41.5</ele><time>2026-05-02T06:42:49.709Z</time></trkpt><trkpt lat="42.3725483" lon="14.121475"><ele>42.0</ele><time>2026-05-02T06:42:50.709Z</time></trkpt><trkpt lat="42.3724317" lon="14.1213817"><ele>42.5</ele><time>2026-05-02T06:42:51.71Z</time></trkpt><trkpt lat="42.3723067" lon="14.1212783"><ele>43.0</ele><time>2026-05-02T06:42:52.709Z</time></trkpt><trkpt lat="42.372175" lon="14.1211833"><ele>39.66666666666667</ele><time>2026-05-02T06:42:53.709Z</time></trkpt><trkpt lat="42.3720383" lon="14.1210867"><ele>36.333333333333336</ele><time>2026-05-02T06:42:54.71Z</time></trkpt><trkpt lat="42.3718917" lon="14.1210083"><ele>33.0</ele><time>2026-05-02T06:42:55.709Z</time></trkpt><trkpt lat="42.3717417" lon="14.1209317"><ele>33.0</ele><time>2026-05-02T06:42:56.709Z</time></trkpt><trkpt lat="42.3715867" lon="14.1208617"><ele>33.0</ele><time>2026-05-02T06:42:57.709Z</time></trkpt><trkpt lat="42.37143" lon="14.12079"><ele>33.0</ele><time>2026-05-02T06:42:58.709Z</time></trkpt><trkpt lat="42.37127" lon="14.12072"><ele>34.666666666666664</ele><time>2026-05-02T06:42:59.709Z</time></trkpt><trkpt lat="42.371105" lon="14.12066"><ele>36.33333333333333</ele><time>2026-05-02T06:43:00.71Z</time></trkpt><trkpt lat="42.3709367" lon="14.120595"><ele>38.0</ele><time>2026-05-02T06:43:01.709Z</time></trkpt><trkpt lat="42.3707667" lon="14.12053"><ele>38.0</ele><time>2026-05-02T06:43:02.71Z</time></trkpt><trkpt lat="42.3705917" lon="14.1204967"><ele>38.0</ele><time>2026-05-02T06:43:03.71Z</time></trkpt><trkpt lat="42.3704117" lon="14.1204683"><ele>38.0</ele><time>2026-05-02T06:43:04.709Z</time></trkpt><trkpt lat="42.37023" lon="14.12045"><ele>37.666666666666664</ele><time>2026-05-02T06:43:05.71Z</time></trkpt><trkpt lat="42.37005" lon="14.1204333"><ele>37.333333333333336</ele><time>2026-05-02T06:43:06.71Z</time></trkpt><trkpt lat="42.369875" lon="14.120415"><ele>37.0</ele><time>2026-05-02T06:43:07.709Z</time></trkpt><trkpt lat="42.3696983" lon="14.1203917"><ele>37.0</ele><time>2026-05-02T06:43:08.709Z</time></trkpt><trkpt lat="42.3695217" lon="14.1203667"><ele>37.0</ele><time>2026-05-02T06:43:09.709Z</time></trkpt><trkpt lat="42.36935" lon="14.1203417"><ele>37.0</ele><time>2026-05-02T06:43:10.71Z</time></trkpt><trkpt lat="42.3691767" lon="14.1203267"><ele>37.0</ele><time>2026-05-02T06:43:11.71Z</time></trkpt><trkpt lat="42.3690067" lon="14.1203067"><ele>37.0</ele><time>2026-05-02T06:43:12.709Z</time></trkpt><trkpt lat="42.3688383" lon="14.120285"><ele>37.0</ele><time>2026-05-02T06:43:13.71Z</time></trkpt><trkpt lat="42.36867" lon="14.1202583"><ele>34.333333333333336</ele><time>2026-05-02T06:43:14.709Z</time></trkpt><trkpt lat="42.3685033" lon="14.1202233"><ele>31.666666666666664</ele><time>2026-05-02T06:43:15.71Z</time></trkpt><trkpt lat="42.368335" lon="14.1201617"><ele>29.0</ele><time>2026-05-02T06:43:16.709Z</time></trkpt><trkpt lat="42.36817" lon="14.1200683"><ele>28.666666666666664</ele><time>2026-05-02T06:43:17.709Z</time></trkpt><trkpt lat="42.368005" lon="14.1199617"><ele>28.333333333333336</ele><time>2026-05-02T06:43:18.71Z</time></trkpt><trkpt lat="42.3678383" lon="14.11985"><ele>28.0</ele><time>2026-05-02T06:43:19.709Z</time></trkpt><trkpt lat="42.367675" lon="14.119735"><ele>28.0</ele><time>2026-05-02T06:43:20.709Z</time></trkpt><trkpt lat="42.3675083" lon="14.1196217"><ele>28.0</ele><time>2026-05-02T06:43:21.71Z</time></trkpt><trkpt lat="42.3673417" lon="14.11951"><ele>28.0</ele><time>2026-05-02T06:43:22.709Z</time></trkpt><trkpt lat="42.3671783" lon="14.1194033"><ele>27.666666666666668</ele><time>2026-05-02T06:43:23.71Z</time></trkpt><trkpt lat="42.3670217" lon="14.1192967"><ele>27.333333333333336</ele><time>2026-05-02T06:43:24.709Z</time></trkpt><trkpt lat="42.366865" lon="14.119185"><ele>27.0</ele><time>2026-05-02T06:43:25.709Z</time></trkpt><trkpt lat="42.366705" lon="14.1190733"><ele>27.333333333333336</ele><time>2026-05-02T06:43:26.71Z</time></trkpt><trkpt lat="42.366545" lon="14.1189633"><ele>27.666666666666668</ele><time>2026-05-02T06:43:27.709Z</time></trkpt><trkpt lat="42.3663833" lon="14.1188467"><ele>28.0</ele><time>2026-05-02T06:43:28.709Z</time></trkpt><trkpt lat="42.36622" lon="14.1187317"><ele>28.0</ele><time>2026-05-02T06:43:29.709Z</time></trkpt><trkpt lat="42.36606" lon="14.1186167"><ele>28.0</ele><time>2026-05-02T06:43:30.71Z</time></trkpt><trkpt lat="42.3659017" lon="14.1185117"><ele>28.0</ele><time>2026-05-02T06:43:31.709Z</time></trkpt><trkpt lat="42.3657417" lon="14.118405"><ele>28.0</ele><time>2026-05-02T06:43:32.71Z</time></trkpt><trkpt lat="42.3655783" lon="14.1182967"><ele>28.0</ele><time>2026-05-02T06:43:33.71Z</time></trkpt><trkpt lat="42.365415" lon="14.118185"><ele>28.0</ele><time>2026-05-02T06:43:34.709Z</time></trkpt><trkpt lat="42.3652483" lon="14.11807"><ele>29.333333333333336</ele><time>2026-05-02T06:43:35.709Z</time></trkpt><trkpt lat="42.36508" lon="14.1179617"><ele>30.666666666666664</ele><time>2026-05-02T06:43:36.71Z</time></trkpt><trkpt lat="42.36491" lon="14.117845"><ele>32.0</ele><time>2026-05-02T06:43:37.71Z</time></trkpt><trkpt lat="42.3647417" lon="14.1177417"><ele>32.33333333333333</ele><time>2026-05-02T06:43:38.71Z</time></trkpt><trkpt lat="42.3645817" lon="14.1176383"><ele>32.666666666666664</ele><time>2026-05-02T06:43:39.709Z</time></trkpt><trkpt lat="42.3644133" lon="14.1175517"><ele>33.0</ele><time>2026-05-02T06:43:40.709Z</time></trkpt><trkpt lat="42.3642333" lon="14.1174817"><ele>33.0</ele><time>2026-05-02T06:43:41.709Z</time></trkpt><trkpt lat="42.3640483" lon="14.1174383"><ele>33.0</ele><time>2026-05-02T06:43:42.709Z</time></trkpt><trkpt lat="42.3638667" lon="14.1174217"><ele>33.0</ele><time>2026-05-02T06:43:43.71Z</time></trkpt><trkpt lat="42.3636833" lon="14.1174317"><ele>32.333333333333336</ele><time>2026-05-02T06:43:44.709Z</time></trkpt><trkpt lat="42.3635033" lon="14.1174333"><ele>31.666666666666668</ele><time>2026-05-02T06:43:45.709Z</time></trkpt><trkpt lat="42.3633183" lon="14.1174433"><ele>31.0</ele><time>2026-05-02T06:43:46.71Z</time></trkpt><trkpt lat="42.3631483" lon="14.1174433"><ele>30.333333333333336</ele><time>2026-05-02T06:43:47.709Z</time></trkpt><trkpt lat="42.36298" lon="14.1174317"><ele>29.666666666666664</ele><time>2026-05-02T06:43:48.71Z</time></trkpt><trkpt lat="42.3628033" lon="14.1174083"><ele>29.0</ele><time>2026-05-02T06:43:49.709Z</time></trkpt><trkpt lat="42.3626267" lon="14.1173583"><ele>31.333333333333332</ele><time>2026-05-02T06:43:50.71Z</time></trkpt><trkpt lat="42.3624467" lon="14.11729"><ele>33.666666666666664</ele><time>2026-05-02T06:43:51.71Z</time></trkpt><trkpt lat="42.3622667" lon="14.117205"><ele>36.0</ele><time>2026-05-02T06:43:52.709Z</time></trkpt><trkpt lat="42.362085" lon="14.1171183"><ele>36.0</ele><time>2026-05-02T06:43:53.71Z</time></trkpt><trkpt lat="42.3619017" lon="14.11703"><ele>36.0</ele><time>2026-05-02T06:43:54.709Z</time></trkpt><trkpt lat="42.36172" lon="14.1169517"><ele>36.0</ele><time>2026-05-02T06:43:55.709Z</time></trkpt><trkpt lat="42.361535" lon="14.1168733"><ele>34.0</ele><time>2026-05-02T06:43:56.709Z</time></trkpt><trkpt lat="42.3613483" lon="14.116795"><ele>32.0</ele><time>2026-05-02T06:43:57.71Z</time></trkpt><trkpt lat="42.36117" lon="14.1167083"><ele>30.0</ele><time>2026-05-02T06:43:58.709Z</time></trkpt><trkpt lat="42.36099" lon="14.11663"><ele>32.333333333333336</ele><time>2026-05-02T06:43:59.71Z</time></trkpt><trkpt lat="42.3608117" lon="14.11655"><ele>34.66666666666667</ele><time>2026-05-02T06:44:00.71Z</time></trkpt><trkpt lat="42.3606333" lon="14.11647"><ele>37.0</ele><time>2026-05-02T06:44:01.71Z</time></trkpt><trkpt lat="42.3604533" lon="14.116385"><ele>37.0</ele><time>2026-05-02T06:44:02.709Z</time></trkpt><trkpt lat="42.3602733" lon="14.1163017"><ele>37.0</ele><time>2026-05-02T06:44:03.71Z</time></trkpt><trkpt lat="42.36009" lon="14.11622"><ele>37.0</ele><time>2026-05-02T06:44:04.709Z</time></trkpt><trkpt lat="42.3599033" lon="14.116135"><ele>37.0</ele><time>2026-05-02T06:44:05.709Z</time></trkpt><trkpt lat="42.3597117" lon="14.116055"><ele>37.0</ele><time>2026-05-02T06:44:06.71Z</time></trkpt><trkpt lat="42.359525" lon="14.1159667"><ele>37.0</ele><time>2026-05-02T06:44:07.709Z</time></trkpt><trkpt lat="42.3593333" lon="14.115885"><ele>36.66666666666667</ele><time>2026-05-02T06:44:08.709Z</time></trkpt><trkpt lat="42.3591433" lon="14.115805"><ele>36.333333333333336</ele><time>2026-05-02T06:44:09.71Z</time></trkpt><trkpt lat="42.358955" lon="14.1157233"><ele>36.0</ele><time>2026-05-02T06:44:10.71Z</time></trkpt><trkpt lat="42.3587633" lon="14.1156567"><ele>37.666666666666664</ele><time>2026-05-02T06:44:11.71Z</time></trkpt><trkpt lat="42.3585733" lon="14.1155867"><ele>39.33333333333333</ele><time>2026-05-02T06:44:12.71Z</time></trkpt><trkpt lat="42.3583833" lon="14.1155117"><ele>41.0</ele><time>2026-05-02T06:44:13.71Z</time></trkpt><trkpt lat="42.3581917" lon="14.115435"><ele>41.0</ele><time>2026-05-02T06:44:14.709Z</time></trkpt><trkpt lat="42.358005" lon="14.11536"><ele>41.0</ele><time>2026-05-02T06:44:15.71Z</time></trkpt><trkpt lat="42.3578167" lon="14.1152833"><ele>41.0</ele><time>2026-05-02T06:44:16.709Z</time></trkpt><trkpt lat="42.3576267" lon="14.1152083"><ele>41.0</ele><time>2026-05-02T06:44:17.71Z</time></trkpt><trkpt lat="42.357435" lon="14.11514"><ele>41.0</ele><time>2026-05-02T06:44:18.709Z</time></trkpt><trkpt lat="42.3572467" lon="14.115065"><ele>41.0</ele><time>2026-05-02T06:44:19.709Z</time></trkpt><trkpt lat="42.3570617" lon="14.1149867"><ele>40.33333333333333</ele><time>2026-05-02T06:44:20.709Z</time></trkpt><trkpt lat="42.3568783" lon="14.1149117"><ele>39.666666666666664</ele><time>2026-05-02T06:44:21.709Z</time></trkpt><trkpt lat="42.356695" lon="14.1148417"><ele>39.0</ele><time>2026-05-02T06:44:22.71Z</time></trkpt><trkpt lat="42.35651" lon="14.1147683"><ele>41.666666666666664</ele><time>2026-05-02T06:44:23.71Z</time></trkpt><trkpt lat="42.3563283" lon="14.11469"><ele>44.33333333333333</ele><time>2026-05-02T06:44:24.709Z</time></trkpt><trkpt lat="42.3561467" lon="14.1146183"><ele>47.0</ele><time>2026-05-02T06:44:25.71Z</time></trkpt><trkpt lat="42.3559667" lon="14.11455"><ele>47.0</ele><time>2026-05-02T06:44:26.709Z</time></trkpt><trkpt lat="42.3557783" lon="14.11448"><ele>47.0</ele><time>2026-05-02T06:44:27.709Z</time></trkpt><trkpt lat="42.3555917" lon="14.11441"><ele>47.0</ele><time>2026-05-02T06:44:28.709Z</time></trkpt><trkpt lat="42.3554067" lon="14.1143283"><ele>43.666666666666664</ele><time>2026-05-02T06:44:29.71Z</time></trkpt><trkpt lat="42.355225" lon="14.1142533"><ele>40.333333333333336</ele><time>2026-05-02T06:44:30.709Z</time></trkpt><trkpt lat="42.3550367" lon="14.11417"><ele>37.0</ele><time>2026-05-02T06:44:31.709Z</time></trkpt><trkpt lat="42.35485" lon="14.1140933"><ele>36.66666666666667</ele><time>2026-05-02T06:44:32.709Z</time></trkpt><trkpt lat="42.354665" lon="14.1140217"><ele>36.333333333333336</ele><time>2026-05-02T06:44:33.71Z</time></trkpt><trkpt lat="42.35448" lon="14.1139483"><ele>36.0</ele><time>2026-05-02T06:44:34.709Z</time></trkpt><trkpt lat="42.3542967" lon="14.11388"><ele>36.0</ele><time>2026-05-02T06:44:35.71Z</time></trkpt><trkpt lat="42.35411" lon="14.1138033"><ele>36.0</ele><time>2026-05-02T06:44:36.71Z</time></trkpt><trkpt lat="42.3539267" lon="14.113725"><ele>36.0</ele><time>2026-05-02T06:44:37.709Z</time></trkpt><trkpt lat="42.3537417" lon="14.11365"><ele>35.666666666666664</ele><time>2026-05-02T06:44:38.709Z</time></trkpt><trkpt lat="42.35356" lon="14.1135783"><ele>35.33333333333333</ele><time>2026-05-02T06:44:39.71Z</time></trkpt><trkpt lat="42.3533767" lon="14.1135083"><ele>35.0</ele><time>2026-05-02T06:44:40.71Z</time></trkpt><trkpt lat="42.3531967" lon="14.1134383"><ele>35.0</ele><time>2026-05-02T06:44:41.709Z</time></trkpt><trkpt lat="42.3530133" lon="14.1133667"><ele>35.0</ele><time>2026-05-02T06:44:42.709Z</time></trkpt><trkpt lat="42.3528317" lon="14.1132983"><ele>35.0</ele><time>2026-05-02T06:44:43.709Z</time></trkpt><trkpt lat="42.352655" lon="14.1132233"><ele>35.0</ele><time>2026-05-02T06:44:44.709Z</time></trkpt><trkpt lat="42.35248" lon="14.1131517"><ele>35.0</ele><time>2026-05-02T06:44:45.71Z</time></trkpt><trkpt lat="42.3523083" lon="14.113085"><ele>35.0</ele><time>2026-05-02T06:44:46.709Z</time></trkpt><trkpt lat="42.3521367" lon="14.1130117"><ele>36.666666666666664</ele><time>2026-05-02T06:44:47.709Z</time></trkpt><trkpt lat="42.3519667" lon="14.11294"><ele>38.333333333333336</ele><time>2026-05-02T06:44:48.709Z</time></trkpt><trkpt lat="42.3517983" lon="14.1128717"><ele>40.0</ele><time>2026-05-02T06:44:49.709Z</time></trkpt><trkpt lat="42.3516283" lon="14.1128067"><ele>40.0</ele><time>2026-05-02T06:44:50.709Z</time></trkpt><trkpt lat="42.3514583" lon="14.11273"><ele>40.0</ele><time>2026-05-02T06:44:51.71Z</time></trkpt><trkpt lat="42.3512867" lon="14.1126567"><ele>40.0</ele><time>2026-05-02T06:44:52.71Z</time></trkpt><trkpt lat="42.3511167" lon="14.1125933"><ele>41.333333333333336</ele><time>2026-05-02T06:44:53.71Z</time></trkpt><trkpt lat="42.3509467" lon="14.1125367"><ele>42.666666666666664</ele><time>2026-05-02T06:44:54.71Z</time></trkpt><trkpt lat="42.3507833" lon="14.1124967"><ele>44.0</ele><time>2026-05-02T06:44:55.71Z</time></trkpt><trkpt lat="42.3506283" lon="14.1124717"><ele>44.0</ele><time>2026-05-02T06:44:56.709Z</time></trkpt><trkpt lat="42.3504817" lon="14.1124517"><ele>44.0</ele><time>2026-05-02T06:44:57.709Z</time></trkpt><trkpt lat="42.350355" lon="14.1124267"><ele>44.0</ele><time>2026-05-02T06:44:58.709Z</time></trkpt><trkpt lat="42.35024" lon="14.1124"><ele>44.0</ele><time>2026-05-02T06:44:59.709Z</time></trkpt><trkpt lat="42.35014" lon="14.1123767"><ele>44.0</ele><time>2026-05-02T06:45:00.71Z</time></trkpt><trkpt lat="42.3500483" lon="14.11236"><ele>44.0</ele><time>2026-05-02T06:45:01.71Z</time></trkpt><trkpt lat="42.3499583" lon="14.1123733"><ele>44.0</ele><time>2026-05-02T06:45:02.709Z</time></trkpt><trkpt lat="42.3498867" lon="14.112415"><ele>44.0</ele><time>2026-05-02T06:45:03.709Z</time></trkpt><trkpt lat="42.34983" lon="14.1124983"><ele>44.0</ele><time>2026-05-02T06:45:04.71Z</time></trkpt><trkpt lat="42.3497733" lon="14.1126117"><ele>44.0</ele><time>2026-05-02T06:45:05.709Z</time></trkpt><trkpt lat="42.3497117" lon="14.1127217"><ele>44.0</ele><time>2026-05-02T06:45:06.71Z</time></trkpt><trkpt lat="42.34966" lon="14.1127983"><ele>44.0</ele><time>2026-05-02T06:45:07.709Z</time></trkpt><trkpt lat="42.3495883" lon="14.1128767"><ele>44.0</ele><time>2026-05-02T06:45:09.709Z</time></trkpt><trkpt lat="42.3495433" lon="14.1129467"><ele>44.0</ele><time>2026-05-02T06:45:20.708Z</time></trkpt><trkpt lat="42.34964" lon="14.1129017"><ele>44.0</ele><time>2026-05-02T06:45:23.709Z</time></trkpt><trkpt lat="42.349715" lon="14.112835"><ele>44.0</ele><time>2026-05-02T06:45:25.708Z</time></trkpt><trkpt lat="42.3497583" lon="14.1127683"><ele>44.0</ele><time>2026-05-02T06:45:27.709Z</time></trkpt><trkpt lat="42.3497633" lon="14.1126717"><ele>44.0</ele><time>2026-05-02T06:45:29.709Z</time></trkpt><trkpt lat="42.3496883" lon="14.1126067"><ele>44.0</ele><time>2026-05-02T06:45:32.709Z</time></trkpt><trkpt lat="42.3496383" lon="14.112695"><ele>44.0</ele><time>2026-05-02T06:45:36.709Z</time></trkpt><trkpt lat="42.3495767" lon="14.1127617"><ele>44.0</ele><time>2026-05-02T06:45:38.708Z</time></trkpt><trkpt lat="42.3495017" lon="14.1127567"><ele>44.0</ele><time>2026-05-02T06:45:40.708Z</time></trkpt><trkpt lat="42.349445" lon="14.1126417"><ele>43.83333333333333</ele><time>2026-05-02T06:45:42.709Z</time></trkpt><trkpt lat="42.34943" lon="14.1125533"><ele>43.666666666666664</ele><time>2026-05-02T06:45:43.708Z</time></trkpt><trkpt lat="42.3494033" lon="14.11247"><ele>43.5</ele><time>2026-05-02T06:45:44.708Z</time></trkpt><trkpt lat="42.34934" lon="14.112365"><ele>43.333333333333336</ele><time>2026-05-02T06:45:46.708Z</time></trkpt><trkpt lat="42.3492533" lon="14.1123133"><ele>43.16666666666667</ele><time>2026-05-02T06:45:48.709Z</time></trkpt><trkpt lat="42.3491467" lon="14.1122783"><ele>43.0</ele><time>2026-05-02T06:45:50.708Z</time></trkpt><trkpt lat="42.349055" lon="14.1122183"><ele>43.0</ele><time>2026-05-02T06:45:52.709Z</time></trkpt><trkpt lat="42.3490067" lon="14.1121167"><ele>43.0</ele><time>2026-05-02T06:45:54.709Z</time></trkpt><trkpt lat="42.3489783" lon="14.1119533"><ele>43.0</ele><time>2026-05-02T06:45:56.708Z</time></trkpt><trkpt lat="42.3489733" lon="14.1118667"><ele>43.0</ele><time>2026-05-02T06:45:57.708Z</time></trkpt><trkpt lat="42.3489583" lon="14.111715"><ele>43.0</ele><time>2026-05-02T06:45:59.709Z</time></trkpt><trkpt lat="42.3489467" lon="14.1115583"><ele>43.0</ele><time>2026-05-02T06:46:01.709Z</time></trkpt><trkpt lat="42.3489383" lon="14.1113983"><ele>43.0</ele><time>2026-05-02T06:46:03.708Z</time></trkpt><trkpt lat="42.3489333" lon="14.1113133"><ele>43.0</ele><time>2026-05-02T06:46:04.709Z</time></trkpt><trkpt lat="42.3489233" lon="14.111225"><ele>43.0</ele><time>2026-05-02T06:46:05.708Z</time></trkpt><trkpt lat="42.348915" lon="14.1111333"><ele>43.0</ele><time>2026-05-02T06:46:06.709Z</time></trkpt><trkpt lat="42.3489017" lon="14.1109767"><ele>43.0</ele><time>2026-05-02T06:46:08.708Z</time></trkpt><trkpt lat="42.348905" lon="14.11082"><ele>43.333333333333336</ele><time>2026-05-02T06:46:10.709Z</time></trkpt><trkpt lat="42.3489117" lon="14.110665"><ele>43.66666666666667</ele><time>2026-05-02T06:46:12.708Z</time></trkpt><trkpt lat="42.3488983" lon="14.110545"><ele>44.0</ele><time>2026-05-02T06:46:14.709Z</time></trkpt><trkpt lat="42.348855" lon="14.11048"><ele>44.333333333333336</ele><time>2026-05-02T06:46:18.708Z</time></trkpt><trkpt lat="42.3487883" lon="14.1105217"><ele>44.666666666666664</ele><time>2026-05-02T06:46:27.708Z</time></trkpt><trkpt lat="42.34871" lon="14.1105083"><ele>45.0</ele><time>2026-05-02T06:46:30.709Z</time></trkpt><trkpt lat="42.3486467" lon="14.110585"><ele>44.333333333333336</ele><time>2026-05-02T06:46:33.709Z</time></trkpt><trkpt lat="42.348715" lon="14.1104883"><ele>43.666666666666664</ele><time>2026-05-02T06:47:39.708Z</time></trkpt><trkpt lat="42.3487433" lon="14.1104117"><ele>43.0</ele><time>2026-05-02T06:47:41.708Z</time></trkpt><trkpt lat="42.34879" lon="14.11035"><ele>42.33333333333333</ele><time>2026-05-02T06:47:44.709Z</time></trkpt><trkpt lat="42.3488317" lon="14.1102683"><ele>41.666666666666664</ele><time>2026-05-02T06:47:54.709Z</time></trkpt><trkpt lat="42.34885" lon="14.1101567"><ele>41.0</ele><time>2026-05-02T06:47:56.709Z</time></trkpt><trkpt lat="42.348805" lon="14.1100567"><ele>41.0</ele><time>2026-05-02T06:47:58.709Z</time></trkpt><trkpt lat="42.3487383" lon="14.1100117"><ele>41.0</ele><time>2026-05-02T06:48:00.709Z</time></trkpt><trkpt lat="42.34869" lon="14.109915"><ele>41.0</ele><time>2026-05-02T06:48:23.709Z</time></trkpt><trkpt lat="42.3486283" lon="14.1098767"><ele>41.0</ele><time>2026-05-02T06:48:26.709Z</time></trkpt><trkpt lat="42.3485367" lon="14.1098233"><ele>41.0</ele><time>2026-05-02T06:48:47.709Z</time></trkpt><trkpt lat="42.34848" lon="14.1097633"><ele>41.0</ele><time>2026-05-02T06:48:50.709Z</time></trkpt><trkpt lat="42.348425" lon="14.1097033"><ele>42.0</ele><time>2026-05-02T06:48:53.709Z</time></trkpt><trkpt lat="42.348345" lon="14.1096433"><ele>43.0</ele><time>2026-05-02T06:48:56.709Z</time></trkpt><trkpt lat="42.348285" lon="14.109595"><ele>44.0</ele><time>2026-05-02T06:48:58.709Z</time></trkpt><trkpt lat="42.3482067" lon="14.1094667"><ele>45.0</ele><time>2026-05-02T06:49:00.708Z</time></trkpt><trkpt lat="42.3481617" lon="14.1093817"><ele>46.0</ele><time>2026-05-02T06:49:01.709Z</time></trkpt><trkpt lat="42.348115" lon="14.109305"><ele>47.0</ele><time>2026-05-02T06:49:02.708Z</time></trkpt><trkpt lat="42.348075" lon="14.1092333"><ele>46.5</ele><time>2026-05-02T06:49:03.709Z</time></trkpt><trkpt lat="42.3479817" lon="14.1091183"><ele>46.0</ele><time>2026-05-02T06:49:05.708Z</time></trkpt><trkpt lat="42.3479233" lon="14.1090067"><ele>45.5</ele><time>2026-05-02T06:49:07.709Z</time></trkpt><trkpt lat="42.34787" lon="14.10883"><ele>45.0</ele><time>2026-05-02T06:49:09.709Z</time></trkpt><trkpt lat="42.3478333" lon="14.1087267"><ele>44.8</ele><time>2026-05-02T06:49:10.709Z</time></trkpt><trkpt lat="42.3477833" lon="14.1086133"><ele>44.6</ele><time>2026-05-02T06:49:11.709Z</time></trkpt><trkpt lat="42.3477217" lon="14.1085033"><ele>44.400000000000006</ele><time>2026-05-02T06:49:12.708Z</time></trkpt><trkpt lat="42.347655" lon="14.1083917"><ele>44.2</ele><time>2026-05-02T06:49:13.709Z</time></trkpt><trkpt lat="42.3476" lon="14.1082867"><ele>44.0</ele><time>2026-05-02T06:49:14.708Z</time></trkpt><trkpt lat="42.347555" lon="14.108185"><ele>44.33333333333333</ele><time>2026-05-02T06:49:15.709Z</time></trkpt><trkpt lat="42.3475083" lon="14.1080983"><ele>44.666666666666664</ele><time>2026-05-02T06:49:16.708Z</time></trkpt><trkpt lat="42.34747" lon="14.108025"><ele>45.0</ele><time>2026-05-02T06:49:17.709Z</time></trkpt><trkpt lat="42.3474433" lon="14.1079467"><ele>45.333333333333336</ele><time>2026-05-02T06:49:18.708Z</time></trkpt><trkpt lat="42.3474233" lon="14.1078383"><ele>45.66666666666667</ele><time>2026-05-02T06:49:19.709Z</time></trkpt><trkpt lat="42.3474017" lon="14.1077183"><ele>46.0</ele><time>2026-05-02T06:49:20.709Z</time></trkpt><trkpt lat="42.347375" lon="14.1076067"><ele>46.0</ele><time>2026-05-02T06:49:21.709Z</time></trkpt><trkpt lat="42.3473517" lon="14.1075083"><ele>46.0</ele><time>2026-05-02T06:49:22.708Z</time></trkpt><trkpt lat="42.3473233" lon="14.1074167"><ele>46.0</ele><time>2026-05-02T06:49:23.709Z</time></trkpt><trkpt lat="42.3472833" lon="14.1073133"><ele>46.0</ele><time>2026-05-02T06:49:24.708Z</time></trkpt><trkpt lat="42.3472433" lon="14.1072117"><ele>46.0</ele><time>2026-05-02T06:49:25.709Z</time></trkpt><trkpt lat="42.3472067" lon="14.107125"><ele>46.0</ele><time>2026-05-02T06:49:26.709Z</time></trkpt><trkpt lat="42.3471833" lon="14.107035"><ele>46.0</ele><time>2026-05-02T06:49:27.708Z</time></trkpt><trkpt lat="42.347185" lon="14.1068867"><ele>46.0</ele><time>2026-05-02T06:49:29.708Z</time></trkpt><trkpt lat="42.347205" lon="14.106805"><ele>46.0</ele><time>2026-05-02T06:49:30.709Z</time></trkpt><trkpt lat="42.3472333" lon="14.1067133"><ele>46.0</ele><time>2026-05-02T06:49:31.708Z</time></trkpt><trkpt lat="42.3472683" lon="14.1066117"><ele>46.0</ele><time>2026-05-02T06:49:32.709Z</time></trkpt><trkpt lat="42.347305" lon="14.10651"><ele>46.0</ele><time>2026-05-02T06:49:33.709Z</time></trkpt><trkpt lat="42.34733" lon="14.10639"><ele>46.0</ele><time>2026-05-02T06:49:34.708Z</time></trkpt><trkpt lat="42.3473667" lon="14.1062817"><ele>46.0</ele><time>2026-05-02T06:49:35.708Z</time></trkpt><trkpt lat="42.347405" lon="14.1061717"><ele>46.0</ele><time>2026-05-02T06:49:36.709Z</time></trkpt><trkpt lat="42.3474283" lon="14.1060567"><ele>46.0</ele><time>2026-05-02T06:49:37.709Z</time></trkpt><trkpt lat="42.3474433" lon="14.105945"><ele>46.0</ele><time>2026-05-02T06:49:38.709Z</time></trkpt><trkpt lat="42.3474683" lon="14.1058567"><ele>46.0</ele><time>2026-05-02T06:49:39.708Z</time></trkpt><trkpt lat="42.3475183" lon="14.1057883"><ele>45.8</ele><time>2026-05-02T06:49:40.708Z</time></trkpt><trkpt lat="42.34758" lon="14.1057083"><ele>45.599999999999994</ele><time>2026-05-02T06:49:41.709Z</time></trkpt><trkpt lat="42.3476417" lon="14.1056067"><ele>45.4</ele><time>2026-05-02T06:49:42.709Z</time></trkpt><trkpt lat="42.347705" lon="14.10549"><ele>45.2</ele><time>2026-05-02T06:49:43.708Z</time></trkpt><trkpt lat="42.3477767" lon="14.10537"><ele>45.0</ele><time>2026-05-02T06:49:44.708Z</time></trkpt><trkpt lat="42.34784" lon="14.1052533"><ele>45.0</ele><time>2026-05-02T06:49:45.709Z</time></trkpt><trkpt lat="42.3479" lon="14.1051533"><ele>45.0</ele><time>2026-05-02T06:49:46.709Z</time></trkpt><trkpt lat="42.3479567" lon="14.1050533"><ele>45.0</ele><time>2026-05-02T06:49:47.709Z</time></trkpt><trkpt lat="42.3480083" lon="14.1049533"><ele>45.0</ele><time>2026-05-02T06:49:48.709Z</time></trkpt><trkpt lat="42.3480667" lon="14.10486"><ele>45.0</ele><time>2026-05-02T06:49:49.709Z</time></trkpt><trkpt lat="42.348125" lon="14.1047817"><ele>46.0</ele><time>2026-05-02T06:49:50.708Z</time></trkpt><trkpt lat="42.3481783" lon="14.1047017"><ele>47.0</ele><time>2026-05-02T06:49:51.709Z</time></trkpt><trkpt lat="42.3482267" lon="14.1046033"><ele>48.0</ele><time>2026-05-02T06:49:52.708Z</time></trkpt><trkpt lat="42.3482667" lon="14.1044933"><ele>49.0</ele><time>2026-05-02T06:49:53.708Z</time></trkpt><trkpt lat="42.3482983" lon="14.1043833"><ele>50.0</ele><time>2026-05-02T06:49:54.708Z</time></trkpt><trkpt lat="42.3483233" lon="14.10426"><ele>51.0</ele><time>2026-05-02T06:49:55.708Z</time></trkpt><trkpt lat="42.3483583" lon="14.1041367"><ele>50.199999999999996</ele><time>2026-05-02T06:49:56.709Z</time></trkpt><trkpt lat="42.3483933" lon="14.10402"><ele>49.4</ele><time>2026-05-02T06:49:57.708Z</time></trkpt><trkpt lat="42.3484267" lon="14.1039067"><ele>48.6</ele><time>2026-05-02T06:49:58.709Z</time></trkpt><trkpt lat="42.3484517" lon="14.1037833"><ele>47.8</ele><time>2026-05-02T06:49:59.709Z</time></trkpt><trkpt lat="42.3484717" lon="14.103635"><ele>47.0</ele><time>2026-05-02T06:50:00.708Z</time></trkpt><trkpt lat="42.3484883" lon="14.103465"><ele>47.0</ele><time>2026-05-02T06:50:01.709Z</time></trkpt><trkpt lat="42.3484983" lon="14.1033033"><ele>47.0</ele><time>2026-05-02T06:50:02.709Z</time></trkpt><trkpt lat="42.348515" lon="14.1031467"><ele>47.0</ele><time>2026-05-02T06:50:03.709Z</time></trkpt><trkpt lat="42.348525" lon="14.1029917"><ele>47.0</ele><time>2026-05-02T06:50:04.709Z</time></trkpt><trkpt lat="42.3485367" lon="14.1028383"><ele>47.25</ele><time>2026-05-02T06:50:05.708Z</time></trkpt><trkpt lat="42.3485517" lon="14.102685"><ele>47.5</ele><time>2026-05-02T06:50:06.709Z</time></trkpt><trkpt lat="42.3485733" lon="14.1025333"><ele>47.75</ele><time>2026-05-02T06:50:07.708Z</time></trkpt><trkpt lat="42.3486" lon="14.1023783"><ele>48.0</ele><time>2026-05-02T06:50:08.708Z</time></trkpt><trkpt lat="42.3486267" lon="14.1022283"><ele>48.0</ele><time>2026-05-02T06:50:09.708Z</time></trkpt><trkpt lat="42.34866" lon="14.1020767"><ele>48.0</ele><time>2026-05-02T06:50:10.709Z</time></trkpt><trkpt lat="42.348685" lon="14.1019367"><ele>48.0</ele><time>2026-05-02T06:50:11.708Z</time></trkpt><trkpt lat="42.3487167" lon="14.1017867"><ele>48.0</ele><time>2026-05-02T06:50:12.708Z</time></trkpt><trkpt lat="42.348755" lon="14.10164"><ele>48.4</ele><time>2026-05-02T06:50:13.709Z</time></trkpt><trkpt lat="42.348785" lon="14.10151"><ele>48.8</ele><time>2026-05-02T06:50:14.708Z</time></trkpt><trkpt lat="42.3488167" lon="14.1013917"><ele>49.2</ele><time>2026-05-02T06:50:15.709Z</time></trkpt><trkpt lat="42.348845" lon="14.1012983"><ele>49.6</ele><time>2026-05-02T06:50:16.709Z</time></trkpt><trkpt lat="42.3488867" lon="14.101155"><ele>50.0</ele><time>2026-05-02T06:50:18.708Z</time></trkpt><trkpt lat="42.3489667" lon="14.101065"><ele>50.4</ele><time>2026-05-02T06:50:20.708Z</time></trkpt><trkpt lat="42.349025" lon="14.101015"><ele>50.8</ele><time>2026-05-02T06:50:21.707Z</time></trkpt><trkpt lat="42.349115" lon="14.1009083"><ele>51.2</ele><time>2026-05-02T06:50:23.707Z</time></trkpt><trkpt lat="42.349145" lon="14.1008283"><ele>51.6</ele><time>2026-05-02T06:50:24.708Z</time></trkpt><trkpt lat="42.349205" lon="14.1007017"><ele>52.0</ele><time>2026-05-02T06:50:26.707Z</time></trkpt><trkpt lat="42.3492717" lon="14.1006033"><ele>52.0</ele><time>2026-05-02T06:50:28.707Z</time></trkpt><trkpt lat="42.349355" lon="14.10046"><ele>52.0</ele><time>2026-05-02T06:50:30.707Z</time></trkpt><trkpt lat="42.3494033" lon="14.1003517"><ele>52.0</ele><time>2026-05-02T06:50:31.707Z</time></trkpt><trkpt lat="42.349445" lon="14.10023"><ele>52.0</ele><time>2026-05-02T06:50:32.708Z</time></trkpt><trkpt lat="42.3494867" lon="14.1001067"><ele>52.0</ele><time>2026-05-02T06:50:33.708Z</time></trkpt><trkpt lat="42.34952" lon="14.100005"><ele>51.2</ele><time>2026-05-02T06:50:34.707Z</time></trkpt><trkpt lat="42.34957" lon="14.0998683"><ele>50.400000000000006</ele><time>2026-05-02T06:50:36.708Z</time></trkpt><trkpt lat="42.3495867" lon="14.099745"><ele>49.599999999999994</ele><time>2026-05-02T06:50:38.707Z</time></trkpt><trkpt lat="42.3495417" lon="14.099595"><ele>48.8</ele><time>2026-05-02T06:50:40.708Z</time></trkpt><trkpt lat="42.3495083" lon="14.0995183"><ele>48.0</ele><time>2026-05-02T06:50:41.707Z</time></trkpt><trkpt lat="42.34947" lon="14.0994417"><ele>48.0</ele><time>2026-05-02T06:50:42.708Z</time></trkpt><trkpt lat="42.34944" lon="14.099365"><ele>48.0</ele><time>2026-05-02T06:50:43.708Z</time></trkpt><trkpt lat="42.3494183" lon="14.099205"><ele>48.0</ele><time>2026-05-02T06:50:45.707Z</time></trkpt><trkpt lat="42.3494283" lon="14.09911"><ele>48.0</ele><time>2026-05-02T06:50:46.708Z</time></trkpt><trkpt lat="42.3494417" lon="14.09901"><ele>48.0</ele><time>2026-05-02T06:50:47.708Z</time></trkpt><trkpt lat="42.349465" lon="14.09891"><ele>48.0</ele><time>2026-05-02T06:50:48.707Z</time></trkpt><trkpt lat="42.349495" lon="14.0988033"><ele>48.4</ele><time>2026-05-02T06:50:49.708Z</time></trkpt><trkpt lat="42.34953" lon="14.098685"><ele>48.8</ele><time>2026-05-02T06:50:50.708Z</time></trkpt><trkpt lat="42.3495633" lon="14.0985667"><ele>49.2</ele><time>2026-05-02T06:50:51.707Z</time></trkpt><trkpt lat="42.34959" lon="14.0984533"><ele>49.6</ele><time>2026-05-02T06:50:52.707Z</time></trkpt><trkpt lat="42.34961" lon="14.098335"><ele>50.0</ele><time>2026-05-02T06:50:53.708Z</time></trkpt><trkpt lat="42.3496283" lon="14.09821"><ele>50.2</ele><time>2026-05-02T06:50:54.707Z</time></trkpt><trkpt lat="42.3496467" lon="14.0980867"><ele>50.4</ele><time>2026-05-02T06:50:55.707Z</time></trkpt><trkpt lat="42.3496733" lon="14.0979767"><ele>50.599999999999994</ele><time>2026-05-02T06:50:56.708Z</time></trkpt><trkpt lat="42.3497033" lon="14.0978533"><ele>50.8</ele><time>2026-05-02T06:50:57.707Z</time></trkpt><trkpt lat="42.349745" lon="14.0977183"><ele>51.0</ele><time>2026-05-02T06:50:58.708Z</time></trkpt><trkpt lat="42.3497917" lon="14.0975683"><ele>51.0</ele><time>2026-05-02T06:50:59.708Z</time></trkpt><trkpt lat="42.3498267" lon="14.0974183"><ele>51.0</ele><time>2026-05-02T06:51:00.708Z</time></trkpt><trkpt lat="42.349855" lon="14.0972617"><ele>51.0</ele><time>2026-05-02T06:51:01.708Z</time></trkpt><trkpt lat="42.3498833" lon="14.0971133"><ele>51.0</ele><time>2026-05-02T06:51:02.708Z</time></trkpt><trkpt lat="42.3499083" lon="14.0969633"><ele>51.0</ele><time>2026-05-02T06:51:03.708Z</time></trkpt><trkpt lat="42.3499283" lon="14.09681"><ele>51.0</ele><time>2026-05-02T06:51:04.707Z</time></trkpt><trkpt lat="42.3499367" lon="14.09667"><ele>51.0</ele><time>2026-05-02T06:51:05.707Z</time></trkpt><trkpt lat="42.3499483" lon="14.0965367"><ele>51.0</ele><time>2026-05-02T06:51:06.707Z</time></trkpt><trkpt lat="42.34996" lon="14.0963933"><ele>51.0</ele><time>2026-05-02T06:51:07.708Z</time></trkpt><trkpt lat="42.3499683" lon="14.0962333"><ele>51.25</ele><time>2026-05-02T06:51:08.707Z</time></trkpt><trkpt lat="42.3499867" lon="14.0960717"><ele>51.5</ele><time>2026-05-02T06:51:09.708Z</time></trkpt><trkpt lat="42.350005" lon="14.095915"><ele>51.75</ele><time>2026-05-02T06:51:10.708Z</time></trkpt><trkpt lat="42.350015" lon="14.0957683"><ele>52.0</ele><time>2026-05-02T06:51:11.708Z</time></trkpt><trkpt lat="42.3500183" lon="14.0956217"><ele>52.0</ele><time>2026-05-02T06:51:12.707Z</time></trkpt><trkpt lat="42.3500283" lon="14.0954867"><ele>52.0</ele><time>2026-05-02T06:51:13.707Z</time></trkpt><trkpt lat="42.35004" lon="14.0953467"><ele>52.0</ele><time>2026-05-02T06:51:14.708Z</time></trkpt><trkpt lat="42.3500417" lon="14.0951867"><ele>52.0</ele><time>2026-05-02T06:51:15.707Z</time></trkpt><trkpt lat="42.35003" lon="14.0950233"><ele>52.0</ele><time>2026-05-02T06:51:16.708Z</time></trkpt><trkpt lat="42.3500117" lon="14.0948583"><ele>52.0</ele><time>2026-05-02T06:51:17.707Z</time></trkpt><trkpt lat="42.3499833" lon="14.0946917"><ele>52.0</ele><time>2026-05-02T06:51:18.708Z</time></trkpt><trkpt lat="42.3499533" lon="14.0945317"><ele>52.0</ele><time>2026-05-02T06:51:19.708Z</time></trkpt><trkpt lat="42.3499183" lon="14.0943767"><ele>52.0</ele><time>2026-05-02T06:51:20.707Z</time></trkpt><trkpt lat="42.3498833" lon="14.09423"><ele>52.0</ele><time>2026-05-02T06:51:21.708Z</time></trkpt><trkpt lat="42.34986" lon="14.0940967"><ele>52.0</ele><time>2026-05-02T06:51:22.707Z</time></trkpt><trkpt lat="42.3498267" lon="14.093975"><ele>52.0</ele><time>2026-05-02T06:51:23.707Z</time></trkpt><trkpt lat="42.3498033" lon="14.09385"><ele>52.0</ele><time>2026-05-02T06:51:24.708Z</time></trkpt><trkpt lat="42.34978" lon="14.09373"><ele>52.0</ele><time>2026-05-02T06:51:25.708Z</time></trkpt><trkpt lat="42.34975" lon="14.0936267"><ele>51.83333333333333</ele><time>2026-05-02T06:51:26.708Z</time></trkpt><trkpt lat="42.34971" lon="14.093535"><ele>51.666666666666664</ele><time>2026-05-02T06:51:27.707Z</time></trkpt><trkpt lat="42.3496733" lon="14.0934583"><ele>51.5</ele><time>2026-05-02T06:51:28.708Z</time></trkpt><trkpt lat="42.3496267" lon="14.0933217"><ele>51.33333333333333</ele><time>2026-05-02T06:51:30.708Z</time></trkpt><trkpt lat="42.3496217" lon="14.0931733"><ele>51.166666666666664</ele><time>2026-05-02T06:51:32.707Z</time></trkpt><trkpt lat="42.3496267" lon="14.0930683"><ele>51.0</ele><time>2026-05-02T06:51:33.707Z</time></trkpt><trkpt lat="42.34961" lon="14.0929583"><ele>51.833333333333336</ele><time>2026-05-02T06:51:34.707Z</time></trkpt><trkpt lat="42.3495817" lon="14.0928533"><ele>52.66666666666667</ele><time>2026-05-02T06:51:35.708Z</time></trkpt><trkpt lat="42.3495383" lon="14.092755"><ele>53.5</ele><time>2026-05-02T06:51:36.708Z</time></trkpt><trkpt lat="42.34949" lon="14.0926667"><ele>54.333333333333336</ele><time>2026-05-02T06:51:37.707Z</time></trkpt><trkpt lat="42.3494417" lon="14.092585"><ele>55.16666666666667</ele><time>2026-05-02T06:51:38.707Z</time></trkpt><trkpt lat="42.3493883" lon="14.0925067"><ele>56.0</ele><time>2026-05-02T06:51:39.707Z</time></trkpt><trkpt lat="42.3493467" lon="14.0924167"><ele>56.199999999999996</ele><time>2026-05-02T06:51:40.708Z</time></trkpt><trkpt lat="42.3493117" lon="14.0923167"><ele>56.39999999999999</ele><time>2026-05-02T06:51:41.707Z</time></trkpt><trkpt lat="42.3492917" lon="14.0922033"><ele>56.6</ele><time>2026-05-02T06:51:42.707Z</time></trkpt><trkpt lat="42.3492667" lon="14.092075"><ele>56.8</ele><time>2026-05-02T06:51:43.708Z</time></trkpt><trkpt lat="42.3492433" lon="14.091935"><ele>57.0</ele><time>2026-05-02T06:51:44.708Z</time></trkpt><trkpt lat="42.3492167" lon="14.0917983"><ele>57.0</ele><time>2026-05-02T06:51:45.708Z</time></trkpt><trkpt lat="42.3491933" lon="14.0916683"><ele>57.0</ele><time>2026-05-02T06:51:46.708Z</time></trkpt><trkpt lat="42.3491717" lon="14.0915333"><ele>57.0</ele><time>2026-05-02T06:51:47.707Z</time></trkpt><trkpt lat="42.34915" lon="14.0913983"><ele>57.0</ele><time>2026-05-02T06:51:48.708Z</time></trkpt><trkpt lat="42.3491383" lon="14.0912717"><ele>57.0</ele><time>2026-05-02T06:51:49.708Z</time></trkpt><trkpt lat="42.3491333" lon="14.0911417"><ele>57.0</ele><time>2026-05-02T06:51:50.707Z</time></trkpt><trkpt lat="42.3491333" lon="14.091015"><ele>57.0</ele><time>2026-05-02T06:51:51.708Z</time></trkpt><trkpt lat="42.3491217" lon="14.0908867"><ele>57.0</ele><time>2026-05-02T06:51:52.708Z</time></trkpt><trkpt lat="42.349095" lon="14.09075"><ele>57.0</ele><time>2026-05-02T06:51:53.707Z</time></trkpt><trkpt lat="42.3490517" lon="14.0906167"><ele>57.0</ele><time>2026-05-02T06:51:54.708Z</time></trkpt><trkpt lat="42.3490167" lon="14.090475"><ele>57.0</ele><time>2026-05-02T06:51:55.708Z</time></trkpt><trkpt lat="42.34899" lon="14.0903267"><ele>57.0</ele><time>2026-05-02T06:51:56.707Z</time></trkpt><trkpt lat="42.3489683" lon="14.0901767"><ele>57.0</ele><time>2026-05-02T06:51:57.708Z</time></trkpt><trkpt lat="42.34895" lon="14.0900267"><ele>57.0</ele><time>2026-05-02T06:51:58.708Z</time></trkpt><trkpt lat="42.348925" lon="14.0898783"><ele>57.0</ele><time>2026-05-02T06:51:59.707Z</time></trkpt><trkpt lat="42.3489067" lon="14.0897383"><ele>57.0</ele><time>2026-05-02T06:52:00.708Z</time></trkpt><trkpt lat="42.3488933" lon="14.0896117"><ele>57.0</ele><time>2026-05-02T06:52:01.707Z</time></trkpt><trkpt lat="42.348875" lon="14.089485"><ele>57.0</ele><time>2026-05-02T06:52:02.707Z</time></trkpt><trkpt lat="42.3488483" lon="14.08937"><ele>57.0</ele><time>2026-05-02T06:52:03.707Z</time></trkpt><trkpt lat="42.348825" lon="14.0892617"><ele>58.6</ele><time>2026-05-02T06:52:04.707Z</time></trkpt><trkpt lat="42.348805" lon="14.0891417"><ele>60.2</ele><time>2026-05-02T06:52:05.707Z</time></trkpt><trkpt lat="42.3487917" lon="14.08902"><ele>61.8</ele><time>2026-05-02T06:52:06.708Z</time></trkpt><trkpt lat="42.348785" lon="14.0888917"><ele>63.4</ele><time>2026-05-02T06:52:07.708Z</time></trkpt><trkpt lat="42.3487867" lon="14.0887533"><ele>65.0</ele><time>2026-05-02T06:52:08.708Z</time></trkpt><trkpt lat="42.3487883" lon="14.0886133"><ele>65.0</ele><time>2026-05-02T06:52:09.707Z</time></trkpt><trkpt lat="42.34878" lon="14.0884717"><ele>65.0</ele><time>2026-05-02T06:52:10.708Z</time></trkpt><trkpt lat="42.3487833" lon="14.0883267"><ele>65.0</ele><time>2026-05-02T06:52:11.707Z</time></trkpt><trkpt lat="42.348775" lon="14.0881883"><ele>65.0</ele><time>2026-05-02T06:52:12.707Z</time></trkpt><trkpt lat="42.3487567" lon="14.0880683"><ele>65.0</ele><time>2026-05-02T06:52:13.708Z</time></trkpt><trkpt lat="42.3487333" lon="14.0879733"><ele>64.71428571428572</ele><time>2026-05-02T06:52:14.707Z</time></trkpt><trkpt lat="42.3487083" lon="14.0878783"><ele>64.42857142857143</ele><time>2026-05-02T06:52:15.707Z</time></trkpt><trkpt lat="42.3486867" lon="14.0877933"><ele>64.14285714285714</ele><time>2026-05-02T06:52:16.707Z</time></trkpt><trkpt lat="42.3486667" lon="14.0877067"><ele>63.85714285714286</ele><time>2026-05-02T06:52:17.707Z</time></trkpt><trkpt lat="42.348665" lon="14.0876067"><ele>63.57142857142857</ele><time>2026-05-02T06:52:18.708Z</time></trkpt><trkpt lat="42.348655" lon="14.0874983"><ele>63.285714285714285</ele><time>2026-05-02T06:52:19.708Z</time></trkpt><trkpt lat="42.3486533" lon="14.08739"><ele>63.0</ele><time>2026-05-02T06:52:20.708Z</time></trkpt><trkpt lat="42.3486467" lon="14.0872883"><ele>63.0</ele><time>2026-05-02T06:52:21.708Z</time></trkpt><trkpt lat="42.3486183" lon="14.0872033"><ele>63.0</ele><time>2026-05-02T06:52:22.707Z</time></trkpt><trkpt lat="42.34858" lon="14.08713"><ele>63.0</ele><time>2026-05-02T06:52:23.707Z</time></trkpt><trkpt lat="42.348525" lon="14.087055"><ele>63.0</ele><time>2026-05-02T06:52:24.708Z</time></trkpt><trkpt lat="42.34846" lon="14.0869917"><ele>63.0</ele><time>2026-05-02T06:52:25.707Z</time></trkpt><trkpt lat="42.3484" lon="14.0869317"><ele>63.0</ele><time>2026-05-02T06:52:26.707Z</time></trkpt><trkpt lat="42.3483433" lon="14.086875"><ele>63.0</ele><time>2026-05-02T06:52:27.708Z</time></trkpt><trkpt lat="42.3482617" lon="14.0867967"><ele>63.0</ele><time>2026-05-02T06:52:29.707Z</time></trkpt><trkpt lat="42.3482133" lon="14.0867283"><ele>63.0</ele><time>2026-05-02T06:52:31.707Z</time></trkpt><trkpt lat="42.3481733" lon="14.0866317"><ele>63.0</ele><time>2026-05-02T06:52:33.707Z</time></trkpt><trkpt lat="42.3481333" lon="14.0864917"><ele>63.0</ele><time>2026-05-02T06:52:35.707Z</time></trkpt><trkpt lat="42.348095" lon="14.0863633"><ele>63.0</ele><time>2026-05-02T06:52:37.707Z</time></trkpt><trkpt lat="42.3480833" lon="14.0862183"><ele>63.0</ele><time>2026-05-02T06:52:39.707Z</time></trkpt><trkpt lat="42.3480733" lon="14.08605"><ele>63.0</ele><time>2026-05-02T06:52:41.708Z</time></trkpt><trkpt lat="42.3480417" lon="14.0859217"><ele>63.0</ele><time>2026-05-02T06:52:43.708Z</time></trkpt><trkpt lat="42.3480217" lon="14.0858217"><ele>63.0</ele><time>2026-05-02T06:52:45.708Z</time></trkpt><trkpt lat="42.348005" lon="14.0856783"><ele>63.0</ele><time>2026-05-02T06:52:47.708Z</time></trkpt><trkpt lat="42.3479983" lon="14.0855217"><ele>63.833333333333336</ele><time>2026-05-02T06:52:49.708Z</time></trkpt><trkpt lat="42.3479733" lon="14.085435"><ele>64.66666666666667</ele><time>2026-05-02T06:52:50.707Z</time></trkpt><trkpt lat="42.34795" lon="14.0853417"><ele>65.5</ele><time>2026-05-02T06:52:51.707Z</time></trkpt><trkpt lat="42.347915" lon="14.0852583"><ele>66.33333333333334</ele><time>2026-05-02T06:52:52.708Z</time></trkpt><trkpt lat="42.3478417" lon="14.085115"><ele>67.16666666666667</ele><time>2026-05-02T06:52:54.708Z</time></trkpt><trkpt lat="42.3478167" lon="14.0850267"><ele>68.0</ele><time>2026-05-02T06:52:55.708Z</time></trkpt><trkpt lat="42.3478083" lon="14.0849117"><ele>68.0</ele><time>2026-05-02T06:52:56.707Z</time></trkpt><trkpt lat="42.347805" lon="14.08479"><ele>68.0</ele><time>2026-05-02T06:52:57.708Z</time></trkpt><trkpt lat="42.3477867" lon="14.0846667"><ele>68.0</ele><time>2026-05-02T06:52:58.708Z</time></trkpt><trkpt lat="42.34776" lon="14.0845617"><ele>68.0</ele><time>2026-05-02T06:52:59.708Z</time></trkpt><trkpt lat="42.3477283" lon="14.0844617"><ele>68.0</ele><time>2026-05-02T06:53:00.707Z</time></trkpt><trkpt lat="42.3477" lon="14.0843667"><ele>68.0</ele><time>2026-05-02T06:53:01.707Z</time></trkpt><trkpt lat="42.3476733" lon="14.0842683"><ele>68.0</ele><time>2026-05-02T06:53:02.707Z</time></trkpt><trkpt lat="42.3476483" lon="14.0841733"><ele>68.0</ele><time>2026-05-02T06:53:03.707Z</time></trkpt><trkpt lat="42.3476417" lon="14.0840833"><ele>68.0</ele><time>2026-05-02T06:53:04.708Z</time></trkpt><trkpt lat="42.3476333" lon="14.083985"><ele>68.0</ele><time>2026-05-02T06:53:05.707Z</time></trkpt><trkpt lat="42.3476267" lon="14.0838817"><ele>68.0</ele><time>2026-05-02T06:53:06.707Z</time></trkpt><trkpt lat="42.3476217" lon="14.0837633"><ele>68.0</ele><time>2026-05-02T06:53:07.708Z</time></trkpt><trkpt lat="42.34761" lon="14.0836533"><ele>68.0</ele><time>2026-05-02T06:53:08.708Z</time></trkpt><trkpt lat="42.347595" lon="14.0835433"><ele>68.0</ele><time>2026-05-02T06:53:09.708Z</time></trkpt><trkpt lat="42.3475967" lon="14.0834333"><ele>68.0</ele><time>2026-05-02T06:53:10.707Z</time></trkpt><trkpt lat="42.3476067" lon="14.0833233"><ele>68.0</ele><time>2026-05-02T06:53:11.707Z</time></trkpt><trkpt lat="42.34763" lon="14.0832167"><ele>68.0</ele><time>2026-05-02T06:53:12.708Z</time></trkpt><trkpt lat="42.347665" lon="14.08311"><ele>68.0</ele><time>2026-05-02T06:53:13.707Z</time></trkpt><trkpt lat="42.3477017" lon="14.0830183"><ele>68.0</ele><time>2026-05-02T06:53:14.708Z</time></trkpt><trkpt lat="42.34776" lon="14.08294"><ele>68.0</ele><time>2026-05-02T06:53:15.708Z</time></trkpt><trkpt lat="42.3478283" lon="14.0828633"><ele>68.0</ele><time>2026-05-02T06:53:16.708Z</time></trkpt><trkpt lat="42.3478967" lon="14.082785"><ele>68.0</ele><time>2026-05-02T06:53:17.707Z</time></trkpt><trkpt lat="42.34797" lon="14.0826933"><ele>68.0</ele><time>2026-05-02T06:53:18.708Z</time></trkpt><trkpt lat="42.34803" lon="14.0825817"><ele>67.4</ele><time>2026-05-02T06:53:19.707Z</time></trkpt><trkpt lat="42.3480833" lon="14.0824567"><ele>66.8</ele><time>2026-05-02T06:53:20.708Z</time></trkpt><trkpt lat="42.348125" lon="14.082345"><ele>66.2</ele><time>2026-05-02T06:53:21.708Z</time></trkpt><trkpt lat="42.34817" lon="14.082235"><ele>65.6</ele><time>2026-05-02T06:53:22.708Z</time></trkpt><trkpt lat="42.3482183" lon="14.0821467"><ele>65.0</ele><time>2026-05-02T06:53:23.707Z</time></trkpt><trkpt lat="42.34827" lon="14.0820633"><ele>65.0</ele><time>2026-05-02T06:53:24.707Z</time></trkpt><trkpt lat="42.3483017" lon="14.0819733"><ele>65.0</ele><time>2026-05-02T06:53:25.708Z</time></trkpt><trkpt lat="42.3483283" lon="14.081855"><ele>65.0</ele><time>2026-05-02T06:53:27.708Z</time></trkpt><trkpt lat="42.3483383" lon="14.0817617"><ele>65.0</ele><time>2026-05-02T06:53:30.707Z</time></trkpt><trkpt lat="42.3483333" lon="14.08165"><ele>65.0</ele><time>2026-05-02T06:53:51.707Z</time></trkpt><trkpt lat="42.3483233" lon="14.0817417"><ele>65.0</ele><time>2026-05-02T06:54:12.708Z</time></trkpt><trkpt lat="42.34832" lon="14.08186"><ele>65.0</ele><time>2026-05-02T06:54:15.708Z</time></trkpt><trkpt lat="42.3483633" lon="14.0819567"><ele>65.0</ele><time>2026-05-02T06:54:18.707Z</time></trkpt><trkpt lat="42.3484317" lon="14.0819933"><ele>65.0</ele><time>2026-05-02T06:54:20.707Z</time></trkpt><trkpt lat="42.3485083" lon="14.0820167"><ele>65.0</ele><time>2026-05-02T06:54:22.708Z</time></trkpt><trkpt lat="42.3485467" lon="14.08193"><ele>65.0</ele><time>2026-05-02T06:54:26.707Z</time></trkpt><trkpt lat="42.3485817" lon="14.0818067"><ele>65.0</ele><time>2026-05-02T06:54:28.707Z</time></trkpt><trkpt lat="42.3486" lon="14.0816717"><ele>65.33333333333334</ele><time>2026-05-02T06:54:30.708Z</time></trkpt><trkpt lat="42.3486533" lon="14.0815583"><ele>65.66666666666667</ele><time>2026-05-02T06:54:32.708Z</time></trkpt><trkpt lat="42.3487583" lon="14.0814717"><ele>66.0</ele><time>2026-05-02T06:54:34.708Z</time></trkpt><trkpt lat="42.3488233" lon="14.0814217"><ele>66.33333333333333</ele><time>2026-05-02T06:54:35.707Z</time></trkpt><trkpt lat="42.348885" lon="14.0813733"><ele>66.66666666666666</ele><time>2026-05-02T06:54:36.708Z</time></trkpt><trkpt lat="42.3489467" lon="14.0813283"><ele>67.0</ele><time>2026-05-02T06:54:37.707Z</time></trkpt><trkpt lat="42.349005" lon="14.081295"><ele>67.0</ele><time>2026-05-02T06:54:38.708Z</time></trkpt><trkpt lat="42.3491167" lon="14.0812467"><ele>67.0</ele><time>2026-05-02T06:54:40.707Z</time></trkpt><trkpt lat="42.34918" lon="14.08124"><ele>67.0</ele><time>2026-05-02T06:54:41.707Z</time></trkpt><trkpt lat="42.34925" lon="14.0812467"><ele>67.0</ele><time>2026-05-02T06:54:42.708Z</time></trkpt><trkpt lat="42.3493183" lon="14.08127"><ele>67.0</ele><time>2026-05-02T06:54:43.708Z</time></trkpt><trkpt lat="42.3493867" lon="14.0812867"><ele>67.0</ele><time>2026-05-02T06:54:44.708Z</time></trkpt><trkpt lat="42.3494517" lon="14.0813033"><ele>67.0</ele><time>2026-05-02T06:54:45.708Z</time></trkpt><trkpt lat="42.3495433" lon="14.0813"><ele>67.0</ele><time>2026-05-02T06:54:47.708Z</time></trkpt><trkpt lat="42.34963" lon="14.081235"><ele>67.0</ele><time>2026-05-02T06:54:49.708Z</time></trkpt><trkpt lat="42.3496817" lon="14.0811517"><ele>67.0</ele><time>2026-05-02T06:54:51.707Z</time></trkpt><trkpt lat="42.3496933" lon="14.0810667"><ele>67.0</ele><time>2026-05-02T06:54:53.708Z</time></trkpt><trkpt lat="42.3496567" lon="14.0809483"><ele>67.0</ele><time>2026-05-02T06:54:55.707Z</time></trkpt><trkpt lat="42.3496183" lon="14.0808667"><ele>67.0</ele><time>2026-05-02T06:54:56.707Z</time></trkpt><trkpt lat="42.34958" lon="14.080795"><ele>67.0</ele><time>2026-05-02T06:54:57.707Z</time></trkpt><trkpt lat="42.3495317" lon="14.08069"><ele>67.0</ele><time>2026-05-02T06:54:59.707Z</time></trkpt><trkpt lat="42.3495533" lon="14.080605"><ele>67.0</ele><time>2026-05-02T06:55:01.708Z</time></trkpt><trkpt lat="42.34965" lon="14.0804817"><ele>67.0</ele><time>2026-05-02T06:55:03.708Z</time></trkpt><trkpt lat="42.3497317" lon="14.0803933"><ele>66.6</ele><time>2026-05-02T06:55:04.707Z</time></trkpt><trkpt lat="42.3498133" lon="14.0803117"><ele>66.2</ele><time>2026-05-02T06:55:05.708Z</time></trkpt><trkpt lat="42.34989" lon="14.0802367"><ele>65.8</ele><time>2026-05-02T06:55:06.708Z</time></trkpt><trkpt lat="42.349965" lon="14.0801683"><ele>65.4</ele><time>2026-05-02T06:55:07.708Z</time></trkpt><trkpt lat="42.350035" lon="14.0801067"><ele>65.0</ele><time>2026-05-02T06:55:08.707Z</time></trkpt><trkpt lat="42.3501083" lon="14.080045"><ele>65.0</ele><time>2026-05-02T06:55:09.708Z</time></trkpt><trkpt lat="42.35018" lon="14.0799683"><ele>65.0</ele><time>2026-05-02T06:55:10.707Z</time></trkpt><trkpt lat="42.3502433" lon="14.07986"><ele>65.0</ele><time>2026-05-02T06:55:11.707Z</time></trkpt><trkpt lat="42.350295" lon="14.0797467"><ele>65.0</ele><time>2026-05-02T06:55:12.708Z</time></trkpt><trkpt lat="42.3503367" lon="14.0796167"><ele>65.0</ele><time>2026-05-02T06:55:13.708Z</time></trkpt><trkpt lat="42.3503633" lon="14.0794917"><ele>65.2</ele><time>2026-05-02T06:55:14.708Z</time></trkpt><trkpt lat="42.3503817" lon="14.079365"><ele>65.4</ele><time>2026-05-02T06:55:15.707Z</time></trkpt><trkpt lat="42.3503983" lon="14.0792417"><ele>65.6</ele><time>2026-05-02T06:55:16.707Z</time></trkpt><trkpt lat="42.3504217" lon="14.07912"><ele>65.8</ele><time>2026-05-02T06:55:17.707Z</time></trkpt><trkpt lat="42.3504533" lon="14.0790017"><ele>66.0</ele><time>2026-05-02T06:55:18.708Z</time></trkpt><trkpt lat="42.35049" lon="14.0788833"><ele>66.0</ele><time>2026-05-02T06:55:19.707Z</time></trkpt><trkpt lat="42.3505283" lon="14.0787783"><ele>66.0</ele><time>2026-05-02T06:55:20.707Z</time></trkpt><trkpt lat="42.3505583" lon="14.07868"><ele>66.0</ele><time>2026-05-02T06:55:21.708Z</time></trkpt><trkpt lat="42.3505733" lon="14.07858"><ele>66.0</ele><time>2026-05-02T06:55:22.707Z</time></trkpt><trkpt lat="42.350575" lon="14.078475"><ele>66.0</ele><time>2026-05-02T06:55:23.707Z</time></trkpt><trkpt lat="42.35057" lon="14.078365"><ele>66.0</ele><time>2026-05-02T06:55:24.706Z</time></trkpt><trkpt lat="42.3505567" lon="14.0782517"><ele>66.16666666666667</ele><time>2026-05-02T06:55:25.706Z</time></trkpt><trkpt lat="42.3505333" lon="14.078145"><ele>66.33333333333333</ele><time>2026-05-02T06:55:26.707Z</time></trkpt><trkpt lat="42.3505117" lon="14.0780417"><ele>66.5</ele><time>2026-05-02T06:55:27.706Z</time></trkpt><trkpt lat="42.3504933" lon="14.0779383"><ele>66.66666666666666</ele><time>2026-05-02T06:55:28.707Z</time></trkpt><trkpt lat="42.350485" lon="14.077835"><ele>66.83333333333333</ele><time>2026-05-02T06:55:29.707Z</time></trkpt><trkpt lat="42.35048" lon="14.077735"><ele>67.0</ele><time>2026-05-02T06:55:30.707Z</time></trkpt><trkpt lat="42.35047" lon="14.07763"><ele>67.0</ele><time>2026-05-02T06:55:31.706Z</time></trkpt><trkpt lat="42.350475" lon="14.0775283"><ele>67.0</ele><time>2026-05-02T06:55:32.706Z</time></trkpt><trkpt lat="42.35047" lon="14.0774233"><ele>67.0</ele><time>2026-05-02T06:55:33.707Z</time></trkpt><trkpt lat="42.3504717" lon="14.0772983"><ele>67.0</ele><time>2026-05-02T06:55:34.706Z</time></trkpt><trkpt lat="42.3504717" lon="14.0771683"><ele>67.0</ele><time>2026-05-02T06:55:35.706Z</time></trkpt><trkpt lat="42.3504767" lon="14.07705"><ele>67.0</ele><time>2026-05-02T06:55:36.706Z</time></trkpt><trkpt lat="42.3504617" lon="14.0769267"><ele>67.16666666666666</ele><time>2026-05-02T06:55:37.707Z</time></trkpt><trkpt lat="42.3504533" lon="14.07681"><ele>67.33333333333333</ele><time>2026-05-02T06:55:38.707Z</time></trkpt><trkpt lat="42.3504533" lon="14.0766933"><ele>67.5</ele><time>2026-05-02T06:55:39.706Z</time></trkpt><trkpt lat="42.3504683" lon="14.0765767"><ele>67.66666666666667</ele><time>2026-05-02T06:55:40.707Z</time></trkpt><trkpt lat="42.35049" lon="14.0764667"><ele>67.83333333333334</ele><time>2026-05-02T06:55:41.707Z</time></trkpt><trkpt lat="42.3505033" lon="14.0763617"><ele>68.0</ele><time>2026-05-02T06:55:42.707Z</time></trkpt><trkpt lat="42.3505" lon="14.076265"><ele>68.33333333333334</ele><time>2026-05-02T06:55:43.707Z</time></trkpt><trkpt lat="42.3504867" lon="14.0761583"><ele>68.66666666666667</ele><time>2026-05-02T06:55:44.707Z</time></trkpt><trkpt lat="42.3504633" lon="14.07605"><ele>69.0</ele><time>2026-05-02T06:55:45.706Z</time></trkpt><trkpt lat="42.3504383" lon="14.0759383"><ele>69.33333333333333</ele><time>2026-05-02T06:55:46.707Z</time></trkpt><trkpt lat="42.35042" lon="14.0758233"><ele>69.66666666666666</ele><time>2026-05-02T06:55:47.706Z</time></trkpt><trkpt lat="42.3504117" lon="14.0757267"><ele>70.0</ele><time>2026-05-02T06:55:48.707Z</time></trkpt><trkpt lat="42.3504083" lon="14.0755733"><ele>70.16666666666666</ele><time>2026-05-02T06:55:50.707Z</time></trkpt><trkpt lat="42.3504267" lon="14.0754717"><ele>70.33333333333333</ele><time>2026-05-02T06:55:52.706Z</time></trkpt><trkpt lat="42.3505033" lon="14.0753983"><ele>70.5</ele><time>2026-05-02T06:55:54.706Z</time></trkpt><trkpt lat="42.35057" lon="14.075365"><ele>70.66666666666667</ele><time>2026-05-02T06:55:55.706Z</time></trkpt><trkpt lat="42.3506517" lon="14.0753383"><ele>70.83333333333334</ele><time>2026-05-02T06:55:56.706Z</time></trkpt><trkpt lat="42.3507467" lon="14.0753083"><ele>71.0</ele><time>2026-05-02T06:55:57.706Z</time></trkpt><trkpt lat="42.35085" lon="14.0752717"><ele>71.0</ele><time>2026-05-02T06:55:58.707Z</time></trkpt><trkpt lat="42.350955" lon="14.075235"><ele>71.0</ele><time>2026-05-02T06:55:59.706Z</time></trkpt><trkpt lat="42.3510667" lon="14.0751967"><ele>71.0</ele><time>2026-05-02T06:56:00.706Z</time></trkpt><trkpt lat="42.3511683" lon="14.0751583"><ele>71.0</ele><time>2026-05-02T06:56:01.706Z</time></trkpt><trkpt lat="42.351255" lon="14.0751317"><ele>71.0</ele><time>2026-05-02T06:56:02.706Z</time></trkpt><trkpt lat="42.3513333" lon="14.0751067"><ele>71.39999999999999</ele><time>2026-05-02T06:56:03.707Z</time></trkpt><trkpt lat="42.35142" lon="14.0750833"><ele>71.8</ele><time>2026-05-02T06:56:04.706Z</time></trkpt><trkpt lat="42.35151" lon="14.0750717"><ele>72.19999999999999</ele><time>2026-05-02T06:56:05.707Z</time></trkpt><trkpt lat="42.3516067" lon="14.0750783"><ele>72.6</ele><time>2026-05-02T06:56:06.706Z</time></trkpt><trkpt lat="42.3517083" lon="14.07509"><ele>73.0</ele><time>2026-05-02T06:56:07.707Z</time></trkpt><trkpt lat="42.3518117" lon="14.075105"><ele>73.0</ele><time>2026-05-02T06:56:08.706Z</time></trkpt><trkpt lat="42.3519117" lon="14.0751133"><ele>73.0</ele><time>2026-05-02T06:56:09.706Z</time></trkpt><trkpt lat="42.35202" lon="14.0751283"><ele>73.0</ele><time>2026-05-02T06:56:10.707Z</time></trkpt><trkpt lat="42.3521533" lon="14.0751483"><ele>73.0</ele><time>2026-05-02T06:56:11.707Z</time></trkpt><trkpt lat="42.3523" lon="14.0751683"><ele>74.0</ele><time>2026-05-02T06:56:12.707Z</time></trkpt><trkpt lat="42.3524433" lon="14.0751783"><ele>75.0</ele><time>2026-05-02T06:56:13.707Z</time></trkpt><trkpt lat="42.352575" lon="14.0752067"><ele>76.0</ele><time>2026-05-02T06:56:14.707Z</time></trkpt><trkpt lat="42.3526917" lon="14.07523"><ele>77.0</ele><time>2026-05-02T06:56:15.707Z</time></trkpt><trkpt lat="42.3527967" lon="14.0752483"><ele>77.0</ele><time>2026-05-02T06:56:16.706Z</time></trkpt><trkpt lat="42.3528917" lon="14.0752617"><ele>77.0</ele><time>2026-05-02T06:56:17.707Z</time></trkpt><trkpt lat="42.3529783" lon="14.0752833"><ele>77.0</ele><time>2026-05-02T06:56:18.706Z</time></trkpt><trkpt lat="42.3530667" lon="14.0753083"><ele>77.0</ele><time>2026-05-02T06:56:19.707Z</time></trkpt><trkpt lat="42.3531667" lon="14.0753467"><ele>77.0</ele><time>2026-05-02T06:56:20.706Z</time></trkpt><trkpt lat="42.3532717" lon="14.075375"><ele>80.5</ele><time>2026-05-02T06:56:21.707Z</time></trkpt><trkpt lat="42.35339" lon="14.075385"><ele>84.0</ele><time>2026-05-02T06:56:22.706Z</time></trkpt><trkpt lat="42.3535183" lon="14.0753667"><ele>87.5</ele><time>2026-05-02T06:56:23.707Z</time></trkpt><trkpt lat="42.353645" lon="14.075335"><ele>91.0</ele><time>2026-05-02T06:56:24.706Z</time></trkpt><trkpt lat="42.3537717" lon="14.075305"><ele>92.5</ele><time>2026-05-02T06:56:25.706Z</time></trkpt><trkpt lat="42.35389" lon="14.0752767"><ele>94.0</ele><time>2026-05-02T06:56:26.707Z</time></trkpt><trkpt lat="42.3540183" lon="14.0752417"><ele>95.5</ele><time>2026-05-02T06:56:27.707Z</time></trkpt><trkpt lat="42.3541467" lon="14.0752083"><ele>97.0</ele><time>2026-05-02T06:56:28.706Z</time></trkpt><trkpt lat="42.3542683" lon="14.0751717"><ele>97.0</ele><time>2026-05-02T06:56:29.706Z</time></trkpt><trkpt lat="42.354385" lon="14.075135"><ele>97.0</ele><time>2026-05-02T06:56:30.706Z</time></trkpt><trkpt lat="42.3545067" lon="14.0751033"><ele>97.0</ele><time>2026-05-02T06:56:31.707Z</time></trkpt><trkpt lat="42.3546267" lon="14.07507"><ele>97.0</ele><time>2026-05-02T06:56:32.707Z</time></trkpt><trkpt lat="42.3547433" lon="14.0750367"><ele>100.25</ele><time>2026-05-02T06:56:33.706Z</time></trkpt><trkpt lat="42.354855" lon="14.075015"><ele>103.5</ele><time>2026-05-02T06:56:34.707Z</time></trkpt><trkpt lat="42.354965" lon="14.074995"><ele>106.75</ele><time>2026-05-02T06:56:35.706Z</time></trkpt><trkpt lat="42.3550817" lon="14.0749833"><ele>110.0</ele><time>2026-05-02T06:56:36.706Z</time></trkpt><trkpt lat="42.3552017" lon="14.07496"><ele>110.0</ele><time>2026-05-02T06:56:37.707Z</time></trkpt><trkpt lat="42.3553183" lon="14.0749467"><ele>110.0</ele><time>2026-05-02T06:56:38.706Z</time></trkpt><trkpt lat="42.3554283" lon="14.0749333"><ele>110.0</ele><time>2026-05-02T06:56:39.706Z</time></trkpt><trkpt lat="42.3555367" lon="14.074915"><ele>110.0</ele><time>2026-05-02T06:56:40.706Z</time></trkpt><trkpt lat="42.3556467" lon="14.074895"><ele>110.0</ele><time>2026-05-02T06:56:41.706Z</time></trkpt><trkpt lat="42.3557617" lon="14.0748867"><ele>112.0</ele><time>2026-05-02T06:56:42.707Z</time></trkpt><trkpt lat="42.3558817" lon="14.0748867"><ele>114.0</ele><time>2026-05-02T06:56:43.707Z</time></trkpt><trkpt lat="42.35599" lon="14.074885"><ele>116.0</ele><time>2026-05-02T06:56:44.707Z</time></trkpt><trkpt lat="42.356085" lon="14.07489"><ele>118.0</ele><time>2026-05-02T06:56:45.707Z</time></trkpt><trkpt lat="42.35617" lon="14.0749067"><ele>120.0</ele><time>2026-05-02T06:56:46.706Z</time></trkpt><trkpt lat="42.3562483" lon="14.07492"><ele>120.0</ele><time>2026-05-02T06:56:47.706Z</time></trkpt><trkpt lat="42.356325" lon="14.07493"><ele>120.0</ele><time>2026-05-02T06:56:48.707Z</time></trkpt><trkpt lat="42.356395" lon="14.07494"><ele>120.0</ele><time>2026-05-02T06:56:49.707Z</time></trkpt><trkpt lat="42.35646" lon="14.0749483"><ele>120.0</ele><time>2026-05-02T06:56:50.707Z</time></trkpt><trkpt lat="42.356525" lon="14.0749617"><ele>120.0</ele><time>2026-05-02T06:56:51.707Z</time></trkpt><trkpt lat="42.3566017" lon="14.0749683"><ele>120.0</ele><time>2026-05-02T06:56:52.707Z</time></trkpt><trkpt lat="42.3566883" lon="14.07498"><ele>120.0</ele><time>2026-05-02T06:56:53.706Z</time></trkpt><trkpt lat="42.3567767" lon="14.0749883"><ele>120.4</ele><time>2026-05-02T06:56:54.706Z</time></trkpt><trkpt lat="42.35687" lon="14.075"><ele>120.8</ele><time>2026-05-02T06:56:55.707Z</time></trkpt><trkpt lat="42.35697" lon="14.0750183"><ele>121.19999999999999</ele><time>2026-05-02T06:56:56.706Z</time></trkpt><trkpt lat="42.357075" lon="14.0750433"><ele>121.6</ele><time>2026-05-02T06:56:57.706Z</time></trkpt><trkpt lat="42.35718" lon="14.07506"><ele>122.0</ele><time>2026-05-02T06:56:58.707Z</time></trkpt><trkpt lat="42.3572767" lon="14.07508"><ele>122.0</ele><time>2026-05-02T06:56:59.706Z</time></trkpt><trkpt lat="42.357375" lon="14.0751067"><ele>121.99999999999999</ele><time>2026-05-02T06:57:00.707Z</time></trkpt><trkpt lat="42.35748" lon="14.07513"><ele>121.99999999999999</ele><time>2026-05-02T06:57:01.706Z</time></trkpt><trkpt lat="42.357595" lon="14.075155"><ele>122.0</ele><time>2026-05-02T06:57:02.707Z</time></trkpt><trkpt lat="42.3577083" lon="14.07519"><ele>122.0</ele><time>2026-05-02T06:57:03.706Z</time></trkpt><trkpt lat="42.3578183" lon="14.0752217"><ele>122.0</ele><time>2026-05-02T06:57:04.706Z</time></trkpt><trkpt lat="42.3579217" lon="14.075255"><ele>121.99999999999999</ele><time>2026-05-02T06:57:05.707Z</time></trkpt><trkpt lat="42.3580183" lon="14.0752967"><ele>121.99999999999999</ele><time>2026-05-02T06:57:06.706Z</time></trkpt><trkpt lat="42.358105" lon="14.07533"><ele>122.0</ele><time>2026-05-02T06:57:07.707Z</time></trkpt><trkpt lat="42.3581983" lon="14.0753683"><ele>122.0</ele><time>2026-05-02T06:57:08.706Z</time></trkpt><trkpt lat="42.3582917" lon="14.0754133"><ele>121.8</ele><time>2026-05-02T06:57:09.707Z</time></trkpt><trkpt lat="42.358395" lon="14.0754483"><ele>121.6</ele><time>2026-05-02T06:57:10.706Z</time></trkpt><trkpt lat="42.35849" lon="14.0754917"><ele>121.39999999999999</ele><time>2026-05-02T06:57:11.707Z</time></trkpt><trkpt lat="42.3585733" lon="14.07553"><ele>121.19999999999999</ele><time>2026-05-02T06:57:12.707Z</time></trkpt><trkpt lat="42.35867" lon="14.0755717"><ele>121.0</ele><time>2026-05-02T06:57:14.707Z</time></trkpt><trkpt lat="42.358775" lon="14.0755517"><ele>121.0</ele><time>2026-05-02T06:57:16.706Z</time></trkpt><trkpt lat="42.3588567" lon="14.0755117"><ele>121.0</ele><time>2026-05-02T06:57:17.707Z</time></trkpt><trkpt lat="42.35894" lon="14.0754533"><ele>121.0</ele><time>2026-05-02T06:57:18.706Z</time></trkpt><trkpt lat="42.3590267" lon="14.0753933"><ele>121.0</ele><time>2026-05-02T06:57:19.706Z</time></trkpt><trkpt lat="42.3591117" lon="14.0753417"><ele>121.0</ele><time>2026-05-02T06:57:20.706Z</time></trkpt><trkpt lat="42.3591933" lon="14.0752933"><ele>122.0</ele><time>2026-05-02T06:57:21.706Z</time></trkpt><trkpt lat="42.3592717" lon="14.0752367"><ele>123.0</ele><time>2026-05-02T06:57:22.706Z</time></trkpt><trkpt lat="42.3593633" lon="14.0751617"><ele>124.0</ele><time>2026-05-02T06:57:23.706Z</time></trkpt><trkpt lat="42.3594733" lon="14.0750833"><ele>125.0</ele><time>2026-05-02T06:57:24.707Z</time></trkpt><trkpt lat="42.35959" lon="14.075005"><ele>125.75</ele><time>2026-05-02T06:57:25.706Z</time></trkpt><trkpt lat="42.3597033" lon="14.07492"><ele>126.5</ele><time>2026-05-02T06:57:26.707Z</time></trkpt><trkpt lat="42.359815" lon="14.0748317"><ele>127.25</ele><time>2026-05-02T06:57:27.706Z</time></trkpt><trkpt lat="42.3599317" lon="14.074755"><ele>128.0</ele><time>2026-05-02T06:57:28.707Z</time></trkpt><trkpt lat="42.3600383" lon="14.0746767"><ele>128.0</ele><time>2026-05-02T06:57:29.706Z</time></trkpt><trkpt lat="42.360135" lon="14.074605"><ele>128.0</ele><time>2026-05-02T06:57:30.706Z</time></trkpt><trkpt lat="42.36023" lon="14.0745467"><ele>128.0</ele><time>2026-05-02T06:57:31.706Z</time></trkpt><trkpt lat="42.360325" lon="14.0744817"><ele>128.0</ele><time>2026-05-02T06:57:32.707Z</time></trkpt><trkpt lat="42.360435" lon="14.074405"><ele>128.0</ele><time>2026-05-02T06:57:33.707Z</time></trkpt><trkpt lat="42.360555" lon="14.0743233"><ele>128.75</ele><time>2026-05-02T06:57:34.707Z</time></trkpt><trkpt lat="42.36068" lon="14.074245"><ele>129.5</ele><time>2026-05-02T06:57:35.707Z</time></trkpt><trkpt lat="42.3607967" lon="14.07416"><ele>130.25</ele><time>2026-05-02T06:57:36.707Z</time></trkpt><trkpt lat="42.3609" lon="14.074085"><ele>131.0</ele><time>2026-05-02T06:57:37.707Z</time></trkpt><trkpt lat="42.3609967" lon="14.0740217"><ele>131.6</ele><time>2026-05-02T06:57:38.706Z</time></trkpt><trkpt lat="42.3610917" lon="14.0739583"><ele>132.2</ele><time>2026-05-02T06:57:39.707Z</time></trkpt><trkpt lat="42.36119" lon="14.0738933"><ele>132.8</ele><time>2026-05-02T06:57:40.707Z</time></trkpt><trkpt lat="42.3612867" lon="14.0738167"><ele>133.4</ele><time>2026-05-02T06:57:41.706Z</time></trkpt><trkpt lat="42.36139" lon="14.073745"><ele>134.0</ele><time>2026-05-02T06:57:42.706Z</time></trkpt><trkpt lat="42.36148" lon="14.0736733"><ele>134.6</ele><time>2026-05-02T06:57:43.706Z</time></trkpt><trkpt lat="42.36156" lon="14.0736117"><ele>135.2</ele><time>2026-05-02T06:57:44.706Z</time></trkpt><trkpt lat="42.361625" lon="14.073555"><ele>135.79999999999998</ele><time>2026-05-02T06:57:45.707Z</time></trkpt><trkpt lat="42.36172" lon="14.0735133"><ele>136.4</ele><time>2026-05-02T06:57:47.706Z</time></trkpt><trkpt lat="42.3617717" lon="14.0734517"><ele>137.0</ele><time>2026-05-02T06:57:50.707Z</time></trkpt><trkpt lat="42.36171" lon="14.0733117"><ele>137.0</ele><time>2026-05-02T06:57:52.707Z</time></trkpt><trkpt lat="42.3616433" lon="14.073225"><ele>137.0</ele><time>2026-05-02T06:57:53.707Z</time></trkpt><trkpt lat="42.3615733" lon="14.073125"><ele>137.0</ele><time>2026-05-02T06:57:54.706Z</time></trkpt><trkpt lat="42.3614983" lon="14.073"><ele>137.0</ele><time>2026-05-02T06:57:55.707Z</time></trkpt><trkpt lat="42.36141" lon="14.0728717"><ele>137.0</ele><time>2026-05-02T06:57:56.707Z</time></trkpt><trkpt lat="42.3613133" lon="14.0727417"><ele>136.0</ele><time>2026-05-02T06:57:57.707Z</time></trkpt><trkpt lat="42.36121" lon="14.0726033"><ele>135.0</ele><time>2026-05-02T06:57:58.706Z</time></trkpt><trkpt lat="42.36111" lon="14.0724567"><ele>134.0</ele><time>2026-05-02T06:57:59.707Z</time></trkpt><trkpt lat="42.3610067" lon="14.0723"><ele>133.0</ele><time>2026-05-02T06:58:00.706Z</time></trkpt><trkpt lat="42.3609017" lon="14.0721367"><ele>133.0</ele><time>2026-05-02T06:58:01.707Z</time></trkpt><trkpt lat="42.3608033" lon="14.071975"><ele>133.0</ele><time>2026-05-02T06:58:02.707Z</time></trkpt><trkpt lat="42.3607133" lon="14.0718117"><ele>133.0</ele><time>2026-05-02T06:58:03.707Z</time></trkpt><trkpt lat="42.3606383" lon="14.071635"><ele>133.0</ele><time>2026-05-02T06:58:04.706Z</time></trkpt><trkpt lat="42.3605767" lon="14.0714333"><ele>133.0</ele><time>2026-05-02T06:58:05.706Z</time></trkpt><trkpt lat="42.36053" lon="14.0712133"><ele>133.0</ele><time>2026-05-02T06:58:06.706Z</time></trkpt><trkpt lat="42.3604833" lon="14.0709883"><ele>133.66666666666669</ele><time>2026-05-02T06:58:07.707Z</time></trkpt><trkpt lat="42.3604433" lon="14.070765"><ele>134.33333333333334</ele><time>2026-05-02T06:58:08.706Z</time></trkpt><trkpt lat="42.3603967" lon="14.0705467"><ele>135.0</ele><time>2026-05-02T06:58:09.707Z</time></trkpt><trkpt lat="42.360355" lon="14.0703283"><ele>135.0</ele><time>2026-05-02T06:58:10.707Z</time></trkpt><trkpt lat="42.36031" lon="14.070115"><ele>135.0</ele><time>2026-05-02T06:58:11.706Z</time></trkpt><trkpt lat="42.3602667" lon="14.0699067"><ele>135.0</ele><time>2026-05-02T06:58:12.707Z</time></trkpt><trkpt lat="42.3602317" lon="14.0696867"><ele>136.0</ele><time>2026-05-02T06:58:13.707Z</time></trkpt><trkpt lat="42.3602133" lon="14.0694667"><ele>137.0</ele><time>2026-05-02T06:58:14.707Z</time></trkpt><trkpt lat="42.3602133" lon="14.0692433"><ele>138.0</ele><time>2026-05-02T06:58:15.706Z</time></trkpt><trkpt lat="42.3602367" lon="14.0690217"><ele>138.5</ele><time>2026-05-02T06:58:16.706Z</time></trkpt><trkpt lat="42.3602783" lon="14.0688233"><ele>139.0</ele><time>2026-05-02T06:58:17.707Z</time></trkpt><trkpt lat="42.3603417" lon="14.0686467"><ele>139.5</ele><time>2026-05-02T06:58:18.707Z</time></trkpt><trkpt lat="42.3604133" lon="14.0685083"><ele>140.0</ele><time>2026-05-02T06:58:19.707Z</time></trkpt><trkpt lat="42.3604883" lon="14.0683983"><ele>140.0</ele><time>2026-05-02T06:58:20.706Z</time></trkpt><trkpt lat="42.3605567" lon="14.0683017"><ele>140.0</ele><time>2026-05-02T06:58:21.707Z</time></trkpt><trkpt lat="42.36062" lon="14.0681983"><ele>140.0</ele><time>2026-05-02T06:58:22.706Z</time></trkpt><trkpt lat="42.3606667" lon="14.0680833"><ele>140.0</ele><time>2026-05-02T06:58:23.707Z</time></trkpt><trkpt lat="42.3607" lon="14.0679483"><ele>140.0</ele><time>2026-05-02T06:58:24.707Z</time></trkpt><trkpt lat="42.36071" lon="14.0678067"><ele>140.0</ele><time>2026-05-02T06:58:25.706Z</time></trkpt><trkpt lat="42.3607017" lon="14.067665"><ele>140.0</ele><time>2026-05-02T06:58:26.706Z</time></trkpt><trkpt lat="42.360665" lon="14.067525"><ele>140.0</ele><time>2026-05-02T06:58:27.707Z</time></trkpt><trkpt lat="42.3606033" lon="14.06738"><ele>140.0</ele><time>2026-05-02T06:58:28.707Z</time></trkpt><trkpt lat="42.3605283" lon="14.06725"><ele>138.5</ele><time>2026-05-02T06:58:29.707Z</time></trkpt><trkpt lat="42.3604633" lon="14.0671383"><ele>137.0</ele><time>2026-05-02T06:58:30.707Z</time></trkpt><trkpt lat="42.3604117" lon="14.0670283"><ele>135.5</ele><time>2026-05-02T06:58:31.707Z</time></trkpt><trkpt lat="42.3603817" lon="14.06692"><ele>134.0</ele><time>2026-05-02T06:58:32.707Z</time></trkpt><trkpt lat="42.3603617" lon="14.0668183"><ele>132.5</ele><time>2026-05-02T06:58:33.706Z</time></trkpt><trkpt lat="42.3603467" lon="14.0667333"><ele>131.0</ele><time>2026-05-02T06:58:34.707Z</time></trkpt><trkpt lat="42.3602917" lon="14.066625"><ele>131.0</ele><time>2026-05-02T06:58:36.706Z</time></trkpt><trkpt lat="42.36018" lon="14.0665733"><ele>131.0</ele><time>2026-05-02T06:58:38.706Z</time></trkpt><trkpt lat="42.36009" lon="14.0665283"><ele>131.0</ele><time>2026-05-02T06:58:39.706Z</time></trkpt><trkpt lat="42.3599933" lon="14.066455"><ele>131.0</ele><time>2026-05-02T06:58:40.707Z</time></trkpt><trkpt lat="42.3599067" lon="14.0663367"><ele>131.0</ele><time>2026-05-02T06:58:41.707Z</time></trkpt><trkpt lat="42.3598167" lon="14.066195"><ele>131.0</ele><time>2026-05-02T06:58:42.707Z</time></trkpt><trkpt lat="42.3597317" lon="14.0660417"><ele>131.0</ele><time>2026-05-02T06:58:43.707Z</time></trkpt><trkpt lat="42.3596567" lon="14.0658917"><ele>131.0</ele><time>2026-05-02T06:58:44.706Z</time></trkpt><trkpt lat="42.3595783" lon="14.065745"><ele>131.0</ele><time>2026-05-02T06:58:45.707Z</time></trkpt><trkpt lat="42.35951" lon="14.0655967"><ele>129.25</ele><time>2026-05-02T06:58:46.707Z</time></trkpt><trkpt lat="42.3594417" lon="14.06546"><ele>127.5</ele><time>2026-05-02T06:58:47.706Z</time></trkpt><trkpt lat="42.3593533" lon="14.0653383"><ele>125.75</ele><time>2026-05-02T06:58:48.707Z</time></trkpt><trkpt lat="42.3592567" lon="14.0652233"><ele>124.0</ele><time>2026-05-02T06:58:49.706Z</time></trkpt><trkpt lat="42.359145" lon="14.065125"><ele>124.0</ele><time>2026-05-02T06:58:50.706Z</time></trkpt><trkpt lat="42.35904" lon="14.065015"><ele>124.0</ele><time>2026-05-02T06:58:51.706Z</time></trkpt><trkpt lat="42.35895" lon="14.0648917"><ele>124.0</ele><time>2026-05-02T06:58:52.706Z</time></trkpt><trkpt lat="42.3588717" lon="14.064765"><ele>124.0</ele><time>2026-05-02T06:58:53.706Z</time></trkpt><trkpt lat="42.358795" lon="14.0646333"><ele>123.0</ele><time>2026-05-02T06:58:54.706Z</time></trkpt><trkpt lat="42.35872" lon="14.064505"><ele>122.0</ele><time>2026-05-02T06:58:55.706Z</time></trkpt><trkpt lat="42.3586517" lon="14.0643683"><ele>121.0</ele><time>2026-05-02T06:58:56.707Z</time></trkpt><trkpt lat="42.3585967" lon="14.06425"><ele>120.0</ele><time>2026-05-02T06:58:57.706Z</time></trkpt><trkpt lat="42.35853" lon="14.0641367"><ele>117.25</ele><time>2026-05-02T06:58:58.707Z</time></trkpt><trkpt lat="42.3584367" lon="14.0640483"><ele>114.5</ele><time>2026-05-02T06:58:59.707Z</time></trkpt><trkpt lat="42.358335" lon="14.0639967"><ele>111.75</ele><time>2026-05-02T06:59:00.706Z</time></trkpt><trkpt lat="42.358225" lon="14.0639717"><ele>109.0</ele><time>2026-05-02T06:59:01.706Z</time></trkpt><trkpt lat="42.3581083" lon="14.063975"><ele>108.2</ele><time>2026-05-02T06:59:02.706Z</time></trkpt><trkpt lat="42.3579983" lon="14.0640017"><ele>107.4</ele><time>2026-05-02T06:59:03.706Z</time></trkpt><trkpt lat="42.3578917" lon="14.0640217"><ele>106.6</ele><time>2026-05-02T06:59:04.707Z</time></trkpt><trkpt lat="42.3577917" lon="14.0640117"><ele>105.8</ele><time>2026-05-02T06:59:05.707Z</time></trkpt><trkpt lat="42.3576867" lon="14.0639717"><ele>105.0</ele><time>2026-05-02T06:59:06.707Z</time></trkpt><trkpt lat="42.35757" lon="14.063895"><ele>105.0</ele><time>2026-05-02T06:59:07.706Z</time></trkpt><trkpt lat="42.3574467" lon="14.0638033"><ele>105.0</ele><time>2026-05-02T06:59:08.707Z</time></trkpt><trkpt lat="42.35732" lon="14.0637167"><ele>105.0</ele><time>2026-05-02T06:59:09.706Z</time></trkpt><trkpt lat="42.357195" lon="14.06365"><ele>105.0</ele><time>2026-05-02T06:59:10.706Z</time></trkpt><trkpt lat="42.3570717" lon="14.0635983"><ele>103.75</ele><time>2026-05-02T06:59:11.706Z</time></trkpt><trkpt lat="42.35694" lon="14.0635733"><ele>102.5</ele><time>2026-05-02T06:59:12.707Z</time></trkpt><trkpt lat="42.3568133" lon="14.0635617"><ele>101.25</ele><time>2026-05-02T06:59:13.707Z</time></trkpt><trkpt lat="42.356675" lon="14.0635733"><ele>100.0</ele><time>2026-05-02T06:59:14.706Z</time></trkpt><trkpt lat="42.35654" lon="14.063615"><ele>100.0</ele><time>2026-05-02T06:59:15.707Z</time></trkpt><trkpt lat="42.35641" lon="14.0636733"><ele>100.0</ele><time>2026-05-02T06:59:16.706Z</time></trkpt><trkpt lat="42.356295" lon="14.0637383"><ele>100.0</ele><time>2026-05-02T06:59:17.706Z</time></trkpt><trkpt lat="42.35619" lon="14.06381"><ele>100.0</ele><time>2026-05-02T06:59:18.706Z</time></trkpt><trkpt lat="42.3560917" lon="14.0638667"><ele>98.0</ele><time>2026-05-02T06:59:19.706Z</time></trkpt><trkpt lat="42.35599" lon="14.063885"><ele>96.0</ele><time>2026-05-02T06:59:20.707Z</time></trkpt><trkpt lat="42.355875" lon="14.0638833"><ele>94.0</ele><time>2026-05-02T06:59:21.707Z</time></trkpt><trkpt lat="42.35577" lon="14.063815"><ele>92.0</ele><time>2026-05-02T06:59:22.706Z</time></trkpt><trkpt lat="42.3556833" lon="14.06371"><ele>92.0</ele><time>2026-05-02T06:59:23.707Z</time></trkpt><trkpt lat="42.3556217" lon="14.063575"><ele>92.0</ele><time>2026-05-02T06:59:24.706Z</time></trkpt><trkpt lat="42.35558" lon="14.0634133"><ele>92.0</ele><time>2026-05-02T06:59:25.706Z</time></trkpt><trkpt lat="42.3555383" lon="14.0632433"><ele>92.0</ele><time>2026-05-02T06:59:26.707Z</time></trkpt><trkpt lat="42.3554883" lon="14.0630683"><ele>89.66666666666667</ele><time>2026-05-02T06:59:27.706Z</time></trkpt><trkpt lat="42.35544" lon="14.0628867"><ele>87.33333333333333</ele><time>2026-05-02T06:59:28.706Z</time></trkpt><trkpt lat="42.3553583" lon="14.0627"><ele>85.0</ele><time>2026-05-02T06:59:29.706Z</time></trkpt><trkpt lat="42.3552433" lon="14.0625217"><ele>86.66666666666666</ele><time>2026-05-02T06:59:30.707Z</time></trkpt><trkpt lat="42.3551317" lon="14.06234"><ele>88.33333333333333</ele><time>2026-05-02T06:59:31.707Z</time></trkpt><trkpt lat="42.3550167" lon="14.0621683"><ele>90.0</ele><time>2026-05-02T06:59:32.706Z</time></trkpt><trkpt lat="42.3549" lon="14.0620033"><ele>90.0</ele><time>2026-05-02T06:59:33.706Z</time></trkpt><trkpt lat="42.354785" lon="14.0618283"><ele>90.0</ele><time>2026-05-02T06:59:34.706Z</time></trkpt><trkpt lat="42.354665" lon="14.0616483"><ele>90.0</ele><time>2026-05-02T06:59:35.707Z</time></trkpt><trkpt lat="42.3545567" lon="14.061455"><ele>91.33333333333333</ele><time>2026-05-02T06:59:36.707Z</time></trkpt><trkpt lat="42.3544433" lon="14.06126"><ele>92.66666666666666</ele><time>2026-05-02T06:59:37.707Z</time></trkpt><trkpt lat="42.354325" lon="14.0610617"><ele>94.0</ele><time>2026-05-02T06:59:38.707Z</time></trkpt><trkpt lat="42.354205" lon="14.060855"><ele>95.0</ele><time>2026-05-02T06:59:39.707Z</time></trkpt><trkpt lat="42.354095" lon="14.0606583"><ele>96.0</ele><time>2026-05-02T06:59:40.707Z</time></trkpt><trkpt lat="42.3539933" lon="14.0604783"><ele>97.0</ele><time>2026-05-02T06:59:41.707Z</time></trkpt><trkpt lat="42.3538883" lon="14.0603017"><ele>96.0</ele><time>2026-05-02T06:59:42.706Z</time></trkpt><trkpt lat="42.3537917" lon="14.0601367"><ele>95.0</ele><time>2026-05-02T06:59:43.706Z</time></trkpt><trkpt lat="42.353695" lon="14.05997"><ele>94.0</ele><time>2026-05-02T06:59:44.706Z</time></trkpt><trkpt lat="42.3536067" lon="14.0597917"><ele>94.0</ele><time>2026-05-02T06:59:45.706Z</time></trkpt><trkpt lat="42.353535" lon="14.0596067"><ele>94.0</ele><time>2026-05-02T06:59:46.707Z</time></trkpt><trkpt lat="42.353475" lon="14.0594117"><ele>94.0</ele><time>2026-05-02T06:59:47.707Z</time></trkpt><trkpt lat="42.3534433" lon="14.0592"><ele>93.66666666666666</ele><time>2026-05-02T06:59:48.707Z</time></trkpt><trkpt lat="42.35343" lon="14.0589617"><ele>93.33333333333333</ele><time>2026-05-02T06:59:49.707Z</time></trkpt><trkpt lat="42.3534083" lon="14.058715"><ele>93.0</ele><time>2026-05-02T06:59:50.706Z</time></trkpt><trkpt lat="42.3533867" lon="14.0584483"><ele>92.66666666666667</ele><time>2026-05-02T06:59:51.707Z</time></trkpt><trkpt lat="42.35337" lon="14.0581817"><ele>92.33333333333334</ele><time>2026-05-02T06:59:52.706Z</time></trkpt><trkpt lat="42.3533383" lon="14.0579333"><ele>92.0</ele><time>2026-05-02T06:59:53.707Z</time></trkpt><trkpt lat="42.3533117" lon="14.0576883"><ele>91.33333333333334</ele><time>2026-05-02T06:59:54.706Z</time></trkpt><trkpt lat="42.353285" lon="14.057445"><ele>90.66666666666667</ele><time>2026-05-02T06:59:55.707Z</time></trkpt><trkpt lat="42.353255" lon="14.0572017"><ele>90.0</ele><time>2026-05-02T06:59:56.706Z</time></trkpt><trkpt lat="42.35323" lon="14.0569483"><ele>90.0</ele><time>2026-05-02T06:59:57.707Z</time></trkpt><trkpt lat="42.353205" lon="14.056695"><ele>90.0</ele><time>2026-05-02T06:59:58.707Z</time></trkpt><trkpt lat="42.3531817" lon="14.0564417"><ele>90.0</ele><time>2026-05-02T06:59:59.705Z</time></trkpt><trkpt lat="42.3531583" lon="14.0561917"><ele>89.66666666666667</ele><time>2026-05-02T07:00:00.706Z</time></trkpt><trkpt lat="42.353135" lon="14.0559433"><ele>89.33333333333334</ele><time>2026-05-02T07:00:01.705Z</time></trkpt><trkpt lat="42.3531117" lon="14.055705"><ele>89.0</ele><time>2026-05-02T07:00:02.706Z</time></trkpt><trkpt lat="42.3530867" lon="14.0554717"><ele>89.66666666666667</ele><time>2026-05-02T07:00:03.706Z</time></trkpt><trkpt lat="42.3530583" lon="14.055235"><ele>90.33333333333333</ele><time>2026-05-02T07:00:04.705Z</time></trkpt><trkpt lat="42.3530333" lon="14.0550067"><ele>91.0</ele><time>2026-05-02T07:00:05.706Z</time></trkpt><trkpt lat="42.3530267" lon="14.0547783"><ele>92.0</ele><time>2026-05-02T07:00:06.705Z</time></trkpt><trkpt lat="42.3530433" lon="14.054555"><ele>93.0</ele><time>2026-05-02T07:00:07.705Z</time></trkpt><trkpt lat="42.3530783" lon="14.05432"><ele>94.0</ele><time>2026-05-02T07:00:08.705Z</time></trkpt><trkpt lat="42.353115" lon="14.0541133"><ele>96.0</ele><time>2026-05-02T07:00:09.705Z</time></trkpt><trkpt lat="42.3531483" lon="14.0539217"><ele>98.0</ele><time>2026-05-02T07:00:10.705Z</time></trkpt><trkpt lat="42.3531833" lon="14.0537383"><ele>100.0</ele><time>2026-05-02T07:00:11.705Z</time></trkpt><trkpt lat="42.3531883" lon="14.0535467"><ele>102.0</ele><time>2026-05-02T07:00:12.705Z</time></trkpt><trkpt lat="42.3531533" lon="14.053345"><ele>102.0</ele><time>2026-05-02T07:00:13.705Z</time></trkpt><trkpt lat="42.3530833" lon="14.05317"><ele>102.0</ele><time>2026-05-02T07:00:14.706Z</time></trkpt><trkpt lat="42.3529967" lon="14.05301"><ele>102.0</ele><time>2026-05-02T07:00:15.706Z</time></trkpt><trkpt lat="42.35292" lon="14.0528617"><ele>102.0</ele><time>2026-05-02T07:00:16.705Z</time></trkpt><trkpt lat="42.3528733" lon="14.0526917"><ele>102.0</ele><time>2026-05-02T07:00:17.706Z</time></trkpt><trkpt lat="42.352865" lon="14.0525"><ele>102.0</ele><time>2026-05-02T07:00:18.706Z</time></trkpt><trkpt lat="42.352875" lon="14.0522983"><ele>102.0</ele><time>2026-05-02T07:00:19.706Z</time></trkpt><trkpt lat="42.3529117" lon="14.0521033"><ele>102.0</ele><time>2026-05-02T07:00:20.706Z</time></trkpt><trkpt lat="42.3529717" lon="14.0519217"><ele>103.66666666666666</ele><time>2026-05-02T07:00:21.705Z</time></trkpt><trkpt lat="42.3530267" lon="14.051725"><ele>105.33333333333333</ele><time>2026-05-02T07:00:22.706Z</time></trkpt><trkpt lat="42.353065" lon="14.0515017"><ele>107.0</ele><time>2026-05-02T07:00:23.705Z</time></trkpt><trkpt lat="42.3530867" lon="14.0512733"><ele>108.33333333333333</ele><time>2026-05-02T07:00:24.705Z</time></trkpt><trkpt lat="42.3531033" lon="14.051035"><ele>109.66666666666666</ele><time>2026-05-02T07:00:25.705Z</time></trkpt><trkpt lat="42.353125" lon="14.0508067"><ele>111.0</ele><time>2026-05-02T07:00:26.706Z</time></trkpt><trkpt lat="42.35316" lon="14.0505933"><ele>111.66666666666666</ele><time>2026-05-02T07:00:27.706Z</time></trkpt><trkpt lat="42.3532017" lon="14.0503917"><ele>112.33333333333333</ele><time>2026-05-02T07:00:28.706Z</time></trkpt><trkpt lat="42.3532267" lon="14.0501883"><ele>113.0</ele><time>2026-05-02T07:00:29.706Z</time></trkpt><trkpt lat="42.353225" lon="14.0499767"><ele>114.66666666666666</ele><time>2026-05-02T07:00:30.706Z</time></trkpt><trkpt lat="42.3531883" lon="14.0497533"><ele>116.33333333333334</ele><time>2026-05-02T07:00:31.705Z</time></trkpt><trkpt lat="42.3531383" lon="14.0495367"><ele>118.0</ele><time>2026-05-02T07:00:32.706Z</time></trkpt><trkpt lat="42.353095" lon="14.0493267"><ele>118.25</ele><time>2026-05-02T07:00:33.706Z</time></trkpt><trkpt lat="42.35308" lon="14.049115"><ele>118.5</ele><time>2026-05-02T07:00:34.705Z</time></trkpt><trkpt lat="42.3530883" lon="14.0489217"><ele>118.75</ele><time>2026-05-02T07:00:35.705Z</time></trkpt><trkpt lat="42.3530967" lon="14.048735"><ele>119.0</ele><time>2026-05-02T07:00:36.706Z</time></trkpt><trkpt lat="42.35308" lon="14.0485433"><ele>119.0</ele><time>2026-05-02T07:00:37.705Z</time></trkpt><trkpt lat="42.353045" lon="14.048365"><ele>119.0</ele><time>2026-05-02T07:00:38.706Z</time></trkpt><trkpt lat="42.3529983" lon="14.04819"><ele>119.0</ele><time>2026-05-02T07:00:39.706Z</time></trkpt><trkpt lat="42.3529683" lon="14.04802"><ele>119.0</ele><time>2026-05-02T07:00:40.706Z</time></trkpt><trkpt lat="42.35297" lon="14.0478583"><ele>119.0</ele><time>2026-05-02T07:00:41.705Z</time></trkpt><trkpt lat="42.3530067" lon="14.04772"><ele>119.0</ele><time>2026-05-02T07:00:42.705Z</time></trkpt><trkpt lat="42.3530733" lon="14.04759"><ele>119.0</ele><time>2026-05-02T07:00:43.706Z</time></trkpt><trkpt lat="42.3531533" lon="14.04747"><ele>119.0</ele><time>2026-05-02T07:00:44.705Z</time></trkpt><trkpt lat="42.35325" lon="14.04731"><ele>119.0</ele><time>2026-05-02T07:00:45.705Z</time></trkpt><trkpt lat="42.353335" lon="14.0471067"><ele>119.0</ele><time>2026-05-02T07:00:46.706Z</time></trkpt><trkpt lat="42.3534033" lon="14.0468967"><ele>119.0</ele><time>2026-05-02T07:00:47.705Z</time></trkpt><trkpt lat="42.353465" lon="14.0466933"><ele>118.0</ele><time>2026-05-02T07:00:48.706Z</time></trkpt><trkpt lat="42.353525" lon="14.046485"><ele>117.0</ele><time>2026-05-02T07:00:49.706Z</time></trkpt><trkpt lat="42.353565" lon="14.0462717"><ele>116.0</ele><time>2026-05-02T07:00:50.705Z</time></trkpt><trkpt lat="42.3536" lon="14.0460533"><ele>116.0</ele><time>2026-05-02T07:00:51.705Z</time></trkpt><trkpt lat="42.3536233" lon="14.0458367"><ele>116.0</ele><time>2026-05-02T07:00:52.706Z</time></trkpt><trkpt lat="42.3536417" lon="14.0456333"><ele>116.0</ele><time>2026-05-02T07:00:53.706Z</time></trkpt><trkpt lat="42.3536467" lon="14.0454267"><ele>117.33333333333333</ele><time>2026-05-02T07:00:54.706Z</time></trkpt><trkpt lat="42.3536467" lon="14.04522"><ele>118.66666666666666</ele><time>2026-05-02T07:00:55.705Z</time></trkpt><trkpt lat="42.3536367" lon="14.045015"><ele>120.0</ele><time>2026-05-02T07:00:56.705Z</time></trkpt><trkpt lat="42.353625" lon="14.0448183"><ele>121.66666666666666</ele><time>2026-05-02T07:00:57.706Z</time></trkpt><trkpt lat="42.353615" lon="14.0446167"><ele>123.33333333333333</ele><time>2026-05-02T07:00:58.705Z</time></trkpt><trkpt lat="42.3536083" lon="14.0444133"><ele>125.0</ele><time>2026-05-02T07:00:59.705Z</time></trkpt><trkpt lat="42.3536317" lon="14.04421"><ele>126.33333333333333</ele><time>2026-05-02T07:01:00.706Z</time></trkpt><trkpt lat="42.3536817" lon="14.0440033"><ele>127.66666666666666</ele><time>2026-05-02T07:01:01.706Z</time></trkpt><trkpt lat="42.3537467" lon="14.0437883"><ele>129.0</ele><time>2026-05-02T07:01:02.706Z</time></trkpt><trkpt lat="42.3538033" lon="14.0435617"><ele>129.0</ele><time>2026-05-02T07:01:03.706Z</time></trkpt><trkpt lat="42.353855" lon="14.043335"><ele>129.0</ele><time>2026-05-02T07:01:04.705Z</time></trkpt><trkpt lat="42.3539067" lon="14.0431133"><ele>129.0</ele><time>2026-05-02T07:01:05.706Z</time></trkpt><trkpt lat="42.35395" lon="14.0428933"><ele>130.0</ele><time>2026-05-02T07:01:06.705Z</time></trkpt><trkpt lat="42.3539967" lon="14.042665"><ele>131.0</ele><time>2026-05-02T07:01:07.705Z</time></trkpt><trkpt lat="42.3540383" lon="14.042425"><ele>132.0</ele><time>2026-05-02T07:01:08.706Z</time></trkpt><trkpt lat="42.3540717" lon="14.042195"><ele>132.0</ele><time>2026-05-02T07:01:09.706Z</time></trkpt><trkpt lat="42.3541117" lon="14.0419667"><ele>132.0</ele><time>2026-05-02T07:01:10.705Z</time></trkpt><trkpt lat="42.35415" lon="14.0417433"><ele>132.0</ele><time>2026-05-02T07:01:11.705Z</time></trkpt><trkpt lat="42.35418" lon="14.0415333"><ele>132.75</ele><time>2026-05-02T07:01:12.705Z</time></trkpt><trkpt lat="42.3542133" lon="14.0413283"><ele>133.5</ele><time>2026-05-02T07:01:13.705Z</time></trkpt><trkpt lat="42.3542483" lon="14.0411317"><ele>134.25</ele><time>2026-05-02T07:01:14.705Z</time></trkpt><trkpt lat="42.3542783" lon="14.04094"><ele>135.0</ele><time>2026-05-02T07:01:15.706Z</time></trkpt><trkpt lat="42.3543183" lon="14.04073"><ele>136.66666666666666</ele><time>2026-05-02T07:01:16.705Z</time></trkpt><trkpt lat="42.3543583" lon="14.0405083"><ele>138.33333333333331</ele><time>2026-05-02T07:01:17.705Z</time></trkpt><trkpt lat="42.3543917" lon="14.040285"><ele>140.0</ele><time>2026-05-02T07:01:18.705Z</time></trkpt><trkpt lat="42.3544267" lon="14.04007"><ele>140.33333333333331</ele><time>2026-05-02T07:01:19.705Z</time></trkpt><trkpt lat="42.3544533" lon="14.0398583"><ele>140.66666666666666</ele><time>2026-05-02T07:01:20.706Z</time></trkpt><trkpt lat="42.3544883" lon="14.0396483"><ele>141.0</ele><time>2026-05-02T07:01:21.705Z</time></trkpt><trkpt lat="42.354525" lon="14.03943"><ele>141.0</ele><time>2026-05-02T07:01:22.706Z</time></trkpt><trkpt lat="42.3545617" lon="14.0392033"><ele>141.0</ele><time>2026-05-02T07:01:23.706Z</time></trkpt><trkpt lat="42.3546017" lon="14.0389683"><ele>141.0</ele><time>2026-05-02T07:01:24.705Z</time></trkpt><trkpt lat="42.35464" lon="14.0387433"><ele>140.0</ele><time>2026-05-02T07:01:25.705Z</time></trkpt><trkpt lat="42.3546717" lon="14.0385233"><ele>139.0</ele><time>2026-05-02T07:01:26.706Z</time></trkpt><trkpt lat="42.3547083" lon="14.0383033"><ele>138.0</ele><time>2026-05-02T07:01:27.706Z</time></trkpt><trkpt lat="42.3547467" lon="14.0380833"><ele>136.33333333333334</ele><time>2026-05-02T07:01:28.706Z</time></trkpt><trkpt lat="42.3547783" lon="14.03787"><ele>134.66666666666669</ele><time>2026-05-02T07:01:29.705Z</time></trkpt><trkpt lat="42.35481" lon="14.0376583"><ele>133.0</ele><time>2026-05-02T07:01:30.705Z</time></trkpt><trkpt lat="42.354845" lon="14.0374483"><ele>133.0</ele><time>2026-05-02T07:01:31.706Z</time></trkpt><trkpt lat="42.35487" lon="14.0372367"><ele>133.0</ele><time>2026-05-02T07:01:32.705Z</time></trkpt><trkpt lat="42.3548883" lon="14.0370183"><ele>133.0</ele><time>2026-05-02T07:01:33.706Z</time></trkpt><trkpt lat="42.3548983" lon="14.0368033"><ele>133.33333333333334</ele><time>2026-05-02T07:01:34.705Z</time></trkpt><trkpt lat="42.3548917" lon="14.0365633"><ele>133.66666666666666</ele><time>2026-05-02T07:01:35.705Z</time></trkpt><trkpt lat="42.354885" lon="14.03631"><ele>134.0</ele><time>2026-05-02T07:01:36.706Z</time></trkpt><trkpt lat="42.3548783" lon="14.036045"><ele>135.0</ele><time>2026-05-02T07:01:37.706Z</time></trkpt><trkpt lat="42.3548767" lon="14.0357567"><ele>136.0</ele><time>2026-05-02T07:01:38.706Z</time></trkpt><trkpt lat="42.3548683" lon="14.0354417"><ele>137.0</ele><time>2026-05-02T07:01:39.705Z</time></trkpt><trkpt lat="42.354855" lon="14.0351083"><ele>137.5</ele><time>2026-05-02T07:01:40.705Z</time></trkpt><trkpt lat="42.35486" lon="14.0347683"><ele>138.0</ele><time>2026-05-02T07:01:41.706Z</time></trkpt><trkpt lat="42.3548667" lon="14.03444"><ele>138.0</ele><time>2026-05-02T07:01:42.705Z</time></trkpt><trkpt lat="42.3548717" lon="14.0341233"><ele>138.0</ele><time>2026-05-02T07:01:43.705Z</time></trkpt><trkpt lat="42.3548633" lon="14.0338283"><ele>138.0</ele><time>2026-05-02T07:01:44.706Z</time></trkpt><trkpt lat="42.3548583" lon="14.03355"><ele>138.0</ele><time>2026-05-02T07:01:45.706Z</time></trkpt><trkpt lat="42.3548533" lon="14.0332867"><ele>138.0</ele><time>2026-05-02T07:01:46.706Z</time></trkpt><trkpt lat="42.35485" lon="14.033025"><ele>138.33333333333334</ele><time>2026-05-02T07:01:47.705Z</time></trkpt><trkpt lat="42.3548467" lon="14.032765"><ele>138.66666666666669</ele><time>2026-05-02T07:01:48.705Z</time></trkpt><trkpt lat="42.354845" lon="14.032505"><ele>139.0</ele><time>2026-05-02T07:01:49.705Z</time></trkpt><trkpt lat="42.3548417" lon="14.0322467"><ele>139.0</ele><time>2026-05-02T07:01:50.706Z</time></trkpt><trkpt lat="42.35484" lon="14.0319967"><ele>139.0</ele><time>2026-05-02T07:01:51.706Z</time></trkpt><trkpt lat="42.3548417" lon="14.03175"><ele>139.0</ele><time>2026-05-02T07:01:52.705Z</time></trkpt><trkpt lat="42.35484" lon="14.0315067"><ele>139.0</ele><time>2026-05-02T07:01:53.705Z</time></trkpt><trkpt lat="42.3548417" lon="14.0312683"><ele>139.0</ele><time>2026-05-02T07:01:54.706Z</time></trkpt><trkpt lat="42.3548367" lon="14.0310283"><ele>139.0</ele><time>2026-05-02T07:01:55.705Z</time></trkpt><trkpt lat="42.3548333" lon="14.03079"><ele>139.66666666666669</ele><time>2026-05-02T07:01:56.705Z</time></trkpt><trkpt lat="42.3548283" lon="14.0305533"><ele>140.33333333333334</ele><time>2026-05-02T07:01:57.706Z</time></trkpt><trkpt lat="42.3548183" lon="14.030315"><ele>141.0</ele><time>2026-05-02T07:01:58.705Z</time></trkpt><trkpt lat="42.3548167" lon="14.03008"><ele>142.33333333333334</ele><time>2026-05-02T07:01:59.705Z</time></trkpt><trkpt lat="42.3548117" lon="14.02985"><ele>143.66666666666669</ele><time>2026-05-02T07:02:00.706Z</time></trkpt><trkpt lat="42.3548133" lon="14.029625"><ele>145.0</ele><time>2026-05-02T07:02:01.706Z</time></trkpt><trkpt lat="42.3548117" lon="14.029395"><ele>145.0</ele><time>2026-05-02T07:02:02.705Z</time></trkpt><trkpt lat="42.3548133" lon="14.0291617"><ele>145.0</ele><time>2026-05-02T07:02:03.705Z</time></trkpt><trkpt lat="42.354805" lon="14.0289333"><ele>145.0</ele><time>2026-05-02T07:02:04.706Z</time></trkpt><trkpt lat="42.3548" lon="14.0286983"><ele>145.0</ele><time>2026-05-02T07:02:05.705Z</time></trkpt><trkpt lat="42.3547983" lon="14.0284583"><ele>145.0</ele><time>2026-05-02T07:02:06.706Z</time></trkpt><trkpt lat="42.3548017" lon="14.028215"><ele>145.0</ele><time>2026-05-02T07:02:07.706Z</time></trkpt><trkpt lat="42.3548017" lon="14.027975"><ele>145.0</ele><time>2026-05-02T07:02:08.705Z</time></trkpt><trkpt lat="42.3548017" lon="14.0277367"><ele>145.0</ele><time>2026-05-02T07:02:09.706Z</time></trkpt><trkpt lat="42.3547933" lon="14.0274983"><ele>145.0</ele><time>2026-05-02T07:02:10.706Z</time></trkpt><trkpt lat="42.354795" lon="14.0272583"><ele>145.66666666666669</ele><time>2026-05-02T07:02:11.706Z</time></trkpt><trkpt lat="42.3547883" lon="14.0270117"><ele>146.33333333333334</ele><time>2026-05-02T07:02:12.706Z</time></trkpt><trkpt lat="42.3547933" lon="14.02677"><ele>147.0</ele><time>2026-05-02T07:02:13.706Z</time></trkpt><trkpt lat="42.3547917" lon="14.026525"><ele>147.0</ele><time>2026-05-02T07:02:14.705Z</time></trkpt><trkpt lat="42.3547967" lon="14.0262883"><ele>147.0</ele><time>2026-05-02T07:02:15.705Z</time></trkpt><trkpt lat="42.35479" lon="14.0260483"><ele>147.0</ele><time>2026-05-02T07:02:16.706Z</time></trkpt><trkpt lat="42.3547883" lon="14.025815"><ele>147.66666666666666</ele><time>2026-05-02T07:02:17.705Z</time></trkpt><trkpt lat="42.3547833" lon="14.0255833"><ele>148.33333333333331</ele><time>2026-05-02T07:02:18.705Z</time></trkpt><trkpt lat="42.3547883" lon="14.0253517"><ele>149.0</ele><time>2026-05-02T07:02:19.706Z</time></trkpt><trkpt lat="42.3547933" lon="14.02512"><ele>149.33333333333331</ele><time>2026-05-02T07:02:20.705Z</time></trkpt><trkpt lat="42.3548" lon="14.0248933"><ele>149.66666666666666</ele><time>2026-05-02T07:02:21.705Z</time></trkpt><trkpt lat="42.3548167" lon="14.0246683"><ele>150.0</ele><time>2026-05-02T07:02:22.706Z</time></trkpt><trkpt lat="42.3548283" lon="14.0244433"><ele>150.0</ele><time>2026-05-02T07:02:23.706Z</time></trkpt><trkpt lat="42.3548467" lon="14.0242317"><ele>150.0</ele><time>2026-05-02T07:02:24.705Z</time></trkpt><trkpt lat="42.3548567" lon="14.0240517"><ele>150.0</ele><time>2026-05-02T07:02:25.706Z</time></trkpt><trkpt lat="42.3548667" lon="14.0239133"><ele>150.0</ele><time>2026-05-02T07:02:26.706Z</time></trkpt><trkpt lat="42.3548783" lon="14.02381"><ele>150.4</ele><time>2026-05-02T07:02:27.706Z</time></trkpt><trkpt lat="42.3548933" lon="14.02368"><ele>150.8</ele><time>2026-05-02T07:02:29.706Z</time></trkpt><trkpt lat="42.3548867" lon="14.023595"><ele>151.2</ele><time>2026-05-02T07:02:31.706Z</time></trkpt><trkpt lat="42.3547967" lon="14.0235933"><ele>151.6</ele><time>2026-05-02T07:02:34.706Z</time></trkpt><trkpt lat="42.3547283" lon="14.0236683"><ele>152.0</ele><time>2026-05-02T07:02:36.706Z</time></trkpt><trkpt lat="42.3546383" lon="14.0237717"><ele>152.28571428571428</ele><time>2026-05-02T07:02:38.706Z</time></trkpt><trkpt lat="42.3545933" lon="14.0238383"><ele>152.57142857142858</ele><time>2026-05-02T07:02:39.706Z</time></trkpt><trkpt lat="42.354545" lon="14.0239033"><ele>152.85714285714286</ele><time>2026-05-02T07:02:40.705Z</time></trkpt><trkpt lat="42.3544917" lon="14.0239633"><ele>153.14285714285714</ele><time>2026-05-02T07:02:41.706Z</time></trkpt><trkpt lat="42.3544383" lon="14.0240233"><ele>153.42857142857144</ele><time>2026-05-02T07:02:42.706Z</time></trkpt><trkpt lat="42.35438" lon="14.0240933"><ele>153.71428571428572</ele><time>2026-05-02T07:02:43.705Z</time></trkpt><trkpt lat="42.354325" lon="14.02417"><ele>154.0</ele><time>2026-05-02T07:02:44.705Z</time></trkpt><trkpt lat="42.3542733" lon="14.0242367"><ele>154.0</ele><time>2026-05-02T07:02:45.706Z</time></trkpt><trkpt lat="42.35422" lon="14.0242917"><ele>154.0</ele><time>2026-05-02T07:02:46.706Z</time></trkpt><trkpt lat="42.3541567" lon="14.0243633"><ele>154.0</ele><time>2026-05-02T07:02:48.706Z</time></trkpt><trkpt lat="42.3540867" lon="14.024355"><ele>154.0</ele><time>2026-05-02T07:02:51.706Z</time></trkpt><trkpt lat="42.3539783" lon="14.0242933"><ele>154.0</ele><time>2026-05-02T07:02:53.706Z</time></trkpt><trkpt lat="42.35391" lon="14.02425"><ele>154.0</ele><time>2026-05-02T07:02:54.705Z</time></trkpt><trkpt lat="42.3538467" lon="14.0242017"><ele>154.66666666666669</ele><time>2026-05-02T07:02:55.705Z</time></trkpt><trkpt lat="42.3537317" lon="14.024135"><ele>155.33333333333334</ele><time>2026-05-02T07:02:57.705Z</time></trkpt><trkpt lat="42.3536633" lon="14.0241167"><ele>156.0</ele><time>2026-05-02T07:02:58.706Z</time></trkpt><trkpt lat="42.3535883" lon="14.0241067"><ele>156.66666666666666</ele><time>2026-05-02T07:02:59.706Z</time></trkpt><trkpt lat="42.353505" lon="14.0241033"><ele>157.33333333333331</ele><time>2026-05-02T07:03:00.706Z</time></trkpt><trkpt lat="42.3534167" lon="14.0241"><ele>158.0</ele><time>2026-05-02T07:03:01.705Z</time></trkpt><trkpt lat="42.3533217" lon="14.0240883"><ele>158.0</ele><time>2026-05-02T07:03:02.706Z</time></trkpt><trkpt lat="42.3532217" lon="14.0240683"><ele>158.0</ele><time>2026-05-02T07:03:03.706Z</time></trkpt><trkpt lat="42.353115" lon="14.0240467"><ele>158.0</ele><time>2026-05-02T07:03:04.705Z</time></trkpt><trkpt lat="42.3529967" lon="14.0240183"><ele>158.0</ele><time>2026-05-02T07:03:05.705Z</time></trkpt><trkpt lat="42.3528683" lon="14.0239917"><ele>160.0</ele><time>2026-05-02T07:03:06.706Z</time></trkpt><trkpt lat="42.3527333" lon="14.023965"><ele>162.0</ele><time>2026-05-02T07:03:07.706Z</time></trkpt><trkpt lat="42.3526117" lon="14.0239483"><ele>164.0</ele><time>2026-05-02T07:03:08.706Z</time></trkpt><trkpt lat="42.3525033" lon="14.0239267"><ele>166.0</ele><time>2026-05-02T07:03:09.706Z</time></trkpt><trkpt lat="42.3524067" lon="14.023915"><ele>166.0</ele><time>2026-05-02T07:03:10.705Z</time></trkpt><trkpt lat="42.3523133" lon="14.0239017"><ele>166.0</ele><time>2026-05-02T07:03:11.705Z</time></trkpt><trkpt lat="42.3522333" lon="14.0238967"><ele>166.0</ele><time>2026-05-02T07:03:12.705Z</time></trkpt><trkpt lat="42.3521467" lon="14.0239"><ele>166.0</ele><time>2026-05-02T07:03:13.706Z</time></trkpt><trkpt lat="42.3520533" lon="14.023925"><ele>166.0</ele><time>2026-05-02T07:03:14.706Z</time></trkpt><trkpt lat="42.3519633" lon="14.02395"><ele>166.0</ele><time>2026-05-02T07:03:15.705Z</time></trkpt><trkpt lat="42.3518733" lon="14.0239733"><ele>167.16666666666669</ele><time>2026-05-02T07:03:16.706Z</time></trkpt><trkpt lat="42.3517767" lon="14.024005"><ele>168.33333333333334</ele><time>2026-05-02T07:03:17.705Z</time></trkpt><trkpt lat="42.351685" lon="14.024045"><ele>169.5</ele><time>2026-05-02T07:03:18.705Z</time></trkpt><trkpt lat="42.3516017" lon="14.0240833"><ele>170.66666666666666</ele><time>2026-05-02T07:03:19.706Z</time></trkpt><trkpt lat="42.35153" lon="14.0240933"><ele>171.83333333333331</ele><time>2026-05-02T07:03:20.705Z</time></trkpt><trkpt lat="42.3514533" lon="14.024085"><ele>173.0</ele><time>2026-05-02T07:03:21.706Z</time></trkpt><trkpt lat="42.3513767" lon="14.0240533"><ele>174.33333333333331</ele><time>2026-05-02T07:03:22.705Z</time></trkpt><trkpt lat="42.351315" lon="14.0240167"><ele>175.66666666666666</ele><time>2026-05-02T07:03:23.706Z</time></trkpt><trkpt lat="42.3512633" lon="14.0239617"><ele>177.0</ele><time>2026-05-02T07:03:24.705Z</time></trkpt><trkpt lat="42.3512017" lon="14.0238"><ele>178.33333333333334</ele><time>2026-05-02T07:03:26.706Z</time></trkpt><trkpt lat="42.3511683" lon="14.0236967"><ele>179.66666666666669</ele><time>2026-05-02T07:03:27.705Z</time></trkpt><trkpt lat="42.3511483" lon="14.0235833"><ele>181.0</ele><time>2026-05-02T07:03:28.706Z</time></trkpt><trkpt lat="42.3511117" lon="14.02349"><ele>181.0</ele><time>2026-05-02T07:03:29.706Z</time></trkpt><trkpt lat="42.3510783" lon="14.0233967"><ele>181.0</ele><time>2026-05-02T07:03:30.705Z</time></trkpt><trkpt lat="42.3510367" lon="14.0233033"><ele>181.0</ele><time>2026-05-02T07:03:31.706Z</time></trkpt><trkpt lat="42.3509867" lon="14.0232183"><ele>181.0</ele><time>2026-05-02T07:03:32.706Z</time></trkpt><trkpt lat="42.35092" lon="14.023135"><ele>181.0</ele><time>2026-05-02T07:03:33.706Z</time></trkpt><trkpt lat="42.3508383" lon="14.0230517"><ele>181.0</ele><time>2026-05-02T07:03:34.706Z</time></trkpt><trkpt lat="42.350765" lon="14.0229617"><ele>181.83333333333334</ele><time>2026-05-02T07:03:35.706Z</time></trkpt><trkpt lat="42.3507083" lon="14.02288"><ele>182.66666666666669</ele><time>2026-05-02T07:03:36.705Z</time></trkpt><trkpt lat="42.3506583" lon="14.0228117"><ele>183.5</ele><time>2026-05-02T07:03:37.705Z</time></trkpt><trkpt lat="42.3505767" lon="14.0226883"><ele>184.33333333333334</ele><time>2026-05-02T07:03:39.706Z</time></trkpt><trkpt lat="42.3505317" lon="14.0226217"><ele>185.16666666666666</ele><time>2026-05-02T07:03:40.705Z</time></trkpt><trkpt lat="42.35049" lon="14.0225533"><ele>186.0</ele><time>2026-05-02T07:03:41.705Z</time></trkpt><trkpt lat="42.350445" lon="14.02248"><ele>186.8</ele><time>2026-05-02T07:03:42.705Z</time></trkpt><trkpt lat="42.350395" lon="14.0224083"><ele>187.60000000000002</ele><time>2026-05-02T07:03:43.706Z</time></trkpt><trkpt lat="42.3503483" lon="14.022345"><ele>188.4</ele><time>2026-05-02T07:03:44.706Z</time></trkpt><trkpt lat="42.3502417" lon="14.02226"><ele>189.2</ele><time>2026-05-02T07:03:46.705Z</time></trkpt><trkpt lat="42.35013" lon="14.02227"><ele>190.0</ele><time>2026-05-02T07:03:48.705Z</time></trkpt><trkpt lat="42.3500633" lon="14.0223217"><ele>190.0</ele><time>2026-05-02T07:03:49.705Z</time></trkpt><trkpt lat="42.3499833" lon="14.0223983"><ele>190.0</ele><time>2026-05-02T07:03:50.706Z</time></trkpt><trkpt lat="42.3499017" lon="14.0224817"><ele>190.0</ele><time>2026-05-02T07:03:51.705Z</time></trkpt><trkpt lat="42.3498183" lon="14.02256"><ele>190.0</ele><time>2026-05-02T07:03:52.706Z</time></trkpt><trkpt lat="42.349735" lon="14.0226483"><ele>190.0</ele><time>2026-05-02T07:03:53.706Z</time></trkpt><trkpt lat="42.34963" lon="14.0227283"><ele>190.0</ele><time>2026-05-02T07:03:54.705Z</time></trkpt><trkpt lat="42.3495183" lon="14.0228183"><ele>190.0</ele><time>2026-05-02T07:03:55.706Z</time></trkpt><trkpt lat="42.349415" lon="14.0229167"><ele>190.0</ele><time>2026-05-02T07:03:56.706Z</time></trkpt><trkpt lat="42.3493083" lon="14.023015"><ele>190.0</ele><time>2026-05-02T07:03:57.706Z</time></trkpt><trkpt lat="42.349215" lon="14.023115"><ele>190.0</ele><time>2026-05-02T07:03:58.706Z</time></trkpt><trkpt lat="42.3491267" lon="14.0232"><ele>190.0</ele><time>2026-05-02T07:03:59.706Z</time></trkpt><trkpt lat="42.349055" lon="14.02327"><ele>190.0</ele><time>2026-05-02T07:04:00.706Z</time></trkpt><trkpt lat="42.3489867" lon="14.0233267"><ele>190.0</ele><time>2026-05-02T07:04:01.706Z</time></trkpt><trkpt lat="42.3489267" lon="14.0233533"><ele>190.0</ele><time>2026-05-02T07:04:02.705Z</time></trkpt><trkpt lat="42.3488183" lon="14.023315"><ele>190.83333333333334</ele><time>2026-05-02T07:04:04.706Z</time></trkpt><trkpt lat="42.3487683" lon="14.023245"><ele>191.66666666666669</ele><time>2026-05-02T07:04:05.705Z</time></trkpt><trkpt lat="42.3487267" lon="14.0231517"><ele>192.5</ele><time>2026-05-02T07:04:06.705Z</time></trkpt><trkpt lat="42.3487" lon="14.0230617"><ele>193.33333333333334</ele><time>2026-05-02T07:04:07.706Z</time></trkpt><trkpt lat="42.3486733" lon="14.0229617"><ele>194.16666666666666</ele><time>2026-05-02T07:04:09.705Z</time></trkpt><trkpt lat="42.3486183" lon="14.0228883"><ele>195.0</ele><time>2026-05-02T07:04:12.706Z</time></trkpt><trkpt lat="42.3485617" lon="14.022775"><ele>195.0</ele><time>2026-05-02T07:04:14.705Z</time></trkpt><trkpt lat="42.3485267" lon="14.0226967"><ele>195.0</ele><time>2026-05-02T07:04:15.706Z</time></trkpt><trkpt lat="42.34849" lon="14.0226167"><ele>195.0</ele><time>2026-05-02T07:04:16.706Z</time></trkpt><trkpt lat="42.3484483" lon="14.022545"><ele>195.0</ele><time>2026-05-02T07:04:17.705Z</time></trkpt><trkpt lat="42.3484067" lon="14.0224733"><ele>195.0</ele><time>2026-05-02T07:04:18.705Z</time></trkpt><trkpt lat="42.3483567" lon="14.0223883"><ele>195.0</ele><time>2026-05-02T07:04:19.706Z</time></trkpt><trkpt lat="42.3483117" lon="14.022305"><ele>195.0</ele><time>2026-05-02T07:04:20.705Z</time></trkpt><trkpt lat="42.348255" lon="14.0222117"><ele>195.0</ele><time>2026-05-02T07:04:21.706Z</time></trkpt><trkpt lat="42.3481917" lon="14.022115"><ele>195.0</ele><time>2026-05-02T07:04:22.705Z</time></trkpt><trkpt lat="42.3481233" lon="14.0220183"><ele>195.0</ele><time>2026-05-02T07:04:23.706Z</time></trkpt><trkpt lat="42.3480533" lon="14.0219233"><ele>195.0</ele><time>2026-05-02T07:04:24.706Z</time></trkpt><trkpt lat="42.3479833" lon="14.0218183"><ele>195.0</ele><time>2026-05-02T07:04:25.706Z</time></trkpt><trkpt lat="42.347905" lon="14.0217083"><ele>195.2</ele><time>2026-05-02T07:04:26.705Z</time></trkpt><trkpt lat="42.3478283" lon="14.0216017"><ele>195.4</ele><time>2026-05-02T07:04:27.706Z</time></trkpt><trkpt lat="42.3477517" lon="14.0215"><ele>195.60000000000002</ele><time>2026-05-02T07:04:28.706Z</time></trkpt><trkpt lat="42.3476717" lon="14.021395"><ele>195.8</ele><time>2026-05-02T07:04:29.705Z</time></trkpt><trkpt lat="42.3475983" lon="14.0213"><ele>196.0</ele><time>2026-05-02T07:04:30.705Z</time></trkpt><trkpt lat="42.347515" lon="14.0212067"><ele>196.0</ele><time>2026-05-02T07:04:31.706Z</time></trkpt><trkpt lat="42.3474417" lon="14.0211067"><ele>196.0</ele><time>2026-05-02T07:04:32.705Z</time></trkpt><trkpt lat="42.34737" lon="14.0210033"><ele>196.0</ele><time>2026-05-02T07:04:33.705Z</time></trkpt><trkpt lat="42.3473033" lon="14.0208917"><ele>196.0</ele><time>2026-05-02T07:04:34.706Z</time></trkpt><trkpt lat="42.3472417" lon="14.0207817"><ele>196.0</ele><time>2026-05-02T07:04:35.705Z</time></trkpt><trkpt lat="42.3471817" lon="14.0206817"><ele>196.4</ele><time>2026-05-02T07:04:36.705Z</time></trkpt><trkpt lat="42.3471217" lon="14.0205733"><ele>196.8</ele><time>2026-05-02T07:04:37.706Z</time></trkpt><trkpt lat="42.3470633" lon="14.0204633"><ele>197.20000000000002</ele><time>2026-05-02T07:04:38.706Z</time></trkpt><trkpt lat="42.347005" lon="14.0203517"><ele>197.60000000000002</ele><time>2026-05-02T07:04:39.706Z</time></trkpt><trkpt lat="42.3469467" lon="14.0202367"><ele>198.0</ele><time>2026-05-02T07:04:40.706Z</time></trkpt><trkpt lat="42.3468883" lon="14.02012"><ele>198.0</ele><time>2026-05-02T07:04:41.706Z</time></trkpt><trkpt lat="42.34683" lon="14.0200067"><ele>198.0</ele><time>2026-05-02T07:04:42.706Z</time></trkpt><trkpt lat="42.3467683" lon="14.0198967"><ele>198.0</ele><time>2026-05-02T07:04:43.705Z</time></trkpt><trkpt lat="42.3467167" lon="14.0197817"><ele>198.0</ele><time>2026-05-02T07:04:44.705Z</time></trkpt><trkpt lat="42.3466667" lon="14.0196783"><ele>198.0</ele><time>2026-05-02T07:04:45.706Z</time></trkpt><trkpt lat="42.346615" lon="14.01957"><ele>197.8</ele><time>2026-05-02T07:04:46.705Z</time></trkpt><trkpt lat="42.34656" lon="14.019455"><ele>197.60000000000002</ele><time>2026-05-02T07:04:47.706Z</time></trkpt><trkpt lat="42.34651" lon="14.019335"><ele>197.39999999999998</ele><time>2026-05-02T07:04:48.705Z</time></trkpt><trkpt lat="42.3464583" lon="14.0192183"><ele>197.2</ele><time>2026-05-02T07:04:49.705Z</time></trkpt><trkpt lat="42.3464117" lon="14.0191067"><ele>197.0</ele><time>2026-05-02T07:04:50.705Z</time></trkpt><trkpt lat="42.3463717" lon="14.019"><ele>197.8</ele><time>2026-05-02T07:04:51.705Z</time></trkpt><trkpt lat="42.3463217" lon="14.0188933"><ele>198.6</ele><time>2026-05-02T07:04:52.705Z</time></trkpt><trkpt lat="42.3462817" lon="14.018785"><ele>199.4</ele><time>2026-05-02T07:04:53.704Z</time></trkpt><trkpt lat="42.3462333" lon="14.0186883"><ele>200.20000000000002</ele><time>2026-05-02T07:04:54.704Z</time></trkpt><trkpt lat="42.3461783" lon="14.01857"><ele>201.0</ele><time>2026-05-02T07:04:55.705Z</time></trkpt><trkpt lat="42.34612" lon="14.0184517"><ele>201.0</ele><time>2026-05-02T07:04:56.704Z</time></trkpt><trkpt lat="42.346065" lon="14.0183317"><ele>201.0</ele><time>2026-05-02T07:04:57.704Z</time></trkpt><trkpt lat="42.3459967" lon="14.0182217"><ele>201.0</ele><time>2026-05-02T07:04:58.704Z</time></trkpt><trkpt lat="42.345935" lon="14.018105"><ele>201.0</ele><time>2026-05-02T07:04:59.704Z</time></trkpt><trkpt lat="42.3458767" lon="14.017995"><ele>201.0</ele><time>2026-05-02T07:05:00.704Z</time></trkpt><trkpt lat="42.34582" lon="14.017885"><ele>201.4</ele><time>2026-05-02T07:05:01.705Z</time></trkpt><trkpt lat="42.3457667" lon="14.0177667"><ele>201.8</ele><time>2026-05-02T07:05:02.705Z</time></trkpt><trkpt lat="42.3457117" lon="14.0176567"><ele>202.20000000000002</ele><time>2026-05-02T07:05:03.704Z</time></trkpt><trkpt lat="42.3456483" lon="14.017545"><ele>202.60000000000002</ele><time>2026-05-02T07:05:04.705Z</time></trkpt><trkpt lat="42.34558" lon="14.0174283"><ele>203.0</ele><time>2026-05-02T07:05:05.704Z</time></trkpt><trkpt lat="42.34551" lon="14.017325"><ele>203.4</ele><time>2026-05-02T07:05:06.705Z</time></trkpt><trkpt lat="42.3454533" lon="14.01721"><ele>203.8</ele><time>2026-05-02T07:05:07.705Z</time></trkpt><trkpt lat="42.3454" lon="14.0170983"><ele>204.2</ele><time>2026-05-02T07:05:08.705Z</time></trkpt><trkpt lat="42.3453333" lon="14.016985"><ele>204.6</ele><time>2026-05-02T07:05:09.705Z</time></trkpt><trkpt lat="42.3452667" lon="14.0168617"><ele>205.0</ele><time>2026-05-02T07:05:10.705Z</time></trkpt><trkpt lat="42.345205" lon="14.0167367"><ele>205.4</ele><time>2026-05-02T07:05:11.704Z</time></trkpt><trkpt lat="42.3451433" lon="14.0166"><ele>205.8</ele><time>2026-05-02T07:05:12.705Z</time></trkpt><trkpt lat="42.3451" lon="14.01647"><ele>206.2</ele><time>2026-05-02T07:05:13.705Z</time></trkpt><trkpt lat="42.345065" lon="14.0163417"><ele>206.6</ele><time>2026-05-02T07:05:14.704Z</time></trkpt><trkpt lat="42.345035" lon="14.0162483"><ele>207.0</ele><time>2026-05-02T07:05:15.705Z</time></trkpt><trkpt lat="42.344995" lon="14.016145"><ele>207.0</ele><time>2026-05-02T07:05:17.705Z</time></trkpt><trkpt lat="42.3449217" lon="14.01615"><ele>207.0</ele><time>2026-05-02T07:05:19.705Z</time></trkpt><trkpt lat="42.3448083" lon="14.01619"><ele>207.0</ele><time>2026-05-02T07:05:21.704Z</time></trkpt><trkpt lat="42.3447233" lon="14.0162117"><ele>207.0</ele><time>2026-05-02T07:05:22.704Z</time></trkpt><trkpt lat="42.3446267" lon="14.016235"><ele>207.0</ele><time>2026-05-02T07:05:23.705Z</time></trkpt><trkpt lat="42.3445167" lon="14.0162567"><ele>207.0</ele><time>2026-05-02T07:05:24.705Z</time></trkpt><trkpt lat="42.344405" lon="14.0162767"><ele>207.0</ele><time>2026-05-02T07:05:25.705Z</time></trkpt><trkpt lat="42.3442983" lon="14.016305"><ele>207.0</ele><time>2026-05-02T07:05:26.705Z</time></trkpt><trkpt lat="42.344195" lon="14.0163283"><ele>207.0</ele><time>2026-05-02T07:05:27.704Z</time></trkpt><trkpt lat="42.3441067" lon="14.0163517"><ele>207.0</ele><time>2026-05-02T07:05:28.704Z</time></trkpt><trkpt lat="42.34402" lon="14.0163733"><ele>207.0</ele><time>2026-05-02T07:05:29.705Z</time></trkpt><trkpt lat="42.343945" lon="14.016395"><ele>207.0</ele><time>2026-05-02T07:05:30.704Z</time></trkpt><trkpt lat="42.343875" lon="14.0163883"><ele>207.0</ele><time>2026-05-02T07:05:31.704Z</time></trkpt><trkpt lat="42.3438" lon="14.01637"><ele>207.0</ele><time>2026-05-02T07:05:32.705Z</time></trkpt><trkpt lat="42.3437183" lon="14.0163517"><ele>207.0</ele><time>2026-05-02T07:05:33.704Z</time></trkpt><trkpt lat="42.3436417" lon="14.016335"><ele>207.0</ele><time>2026-05-02T07:05:34.705Z</time></trkpt><trkpt lat="42.34356" lon="14.0163267"><ele>206.39999999999998</ele><time>2026-05-02T07:05:35.705Z</time></trkpt><trkpt lat="42.3434783" lon="14.0163083"><ele>205.79999999999998</ele><time>2026-05-02T07:05:36.705Z</time></trkpt><trkpt lat="42.3433917" lon="14.0162817"><ele>205.2</ele><time>2026-05-02T07:05:37.705Z</time></trkpt><trkpt lat="42.3432933" lon="14.016245"><ele>204.6</ele><time>2026-05-02T07:05:38.705Z</time></trkpt><trkpt lat="42.3431933" lon="14.0162083"><ele>204.0</ele><time>2026-05-02T07:05:39.705Z</time></trkpt><trkpt lat="42.3430983" lon="14.0161717"><ele>202.16666666666666</ele><time>2026-05-02T07:05:40.704Z</time></trkpt><trkpt lat="42.3429967" lon="14.0161433"><ele>200.33333333333331</ele><time>2026-05-02T07:05:41.704Z</time></trkpt><trkpt lat="42.3429133" lon="14.016105"><ele>198.5</ele><time>2026-05-02T07:05:42.704Z</time></trkpt><trkpt lat="42.3428467" lon="14.0160933"><ele>196.66666666666666</ele><time>2026-05-02T07:05:43.705Z</time></trkpt><trkpt lat="42.3427783" lon="14.016105"><ele>194.83333333333331</ele><time>2026-05-02T07:05:44.705Z</time></trkpt><trkpt lat="42.3427267" lon="14.016155"><ele>193.0</ele><time>2026-05-02T07:05:45.705Z</time></trkpt><trkpt lat="42.34268" lon="14.01625"><ele>193.0</ele><time>2026-05-02T07:05:46.705Z</time></trkpt><trkpt lat="42.3426383" lon="14.0163733"><ele>193.0</ele><time>2026-05-02T07:05:47.705Z</time></trkpt><trkpt lat="42.3426" lon="14.0165033"><ele>193.0</ele><time>2026-05-02T07:05:48.704Z</time></trkpt><trkpt lat="42.3425733" lon="14.0166233"><ele>193.0</ele><time>2026-05-02T07:05:49.704Z</time></trkpt><trkpt lat="42.342545" lon="14.0167317"><ele>193.0</ele><time>2026-05-02T07:05:50.704Z</time></trkpt><trkpt lat="42.3425167" lon="14.0168333"><ele>192.66666666666666</ele><time>2026-05-02T07:05:51.704Z</time></trkpt><trkpt lat="42.3424933" lon="14.0169617"><ele>192.33333333333331</ele><time>2026-05-02T07:05:53.705Z</time></trkpt><trkpt lat="42.3424217" lon="14.017025"><ele>192.0</ele><time>2026-05-02T07:05:55.705Z</time></trkpt><trkpt lat="42.34235" lon="14.0170667"><ele>191.66666666666666</ele><time>2026-05-02T07:05:57.705Z</time></trkpt><trkpt lat="42.3422833" lon="14.0171083"><ele>191.33333333333331</ele><time>2026-05-02T07:05:59.705Z</time></trkpt><trkpt lat="42.3422" lon="14.0171517"><ele>191.0</ele><time>2026-05-02T07:06:10.704Z</time></trkpt><trkpt lat="42.342115" lon="14.0172233"><ele>188.8</ele><time>2026-05-02T07:06:12.704Z</time></trkpt><trkpt lat="42.342035" lon="14.0173033"><ele>186.60000000000002</ele><time>2026-05-02T07:06:14.705Z</time></trkpt><trkpt lat="42.341935" lon="14.0173917"><ele>184.4</ele><time>2026-05-02T07:06:16.704Z</time></trkpt><trkpt lat="42.34184" lon="14.0174733"><ele>182.2</ele><time>2026-05-02T07:06:18.705Z</time></trkpt><trkpt lat="42.3417633" lon="14.017525"><ele>180.0</ele><time>2026-05-02T07:06:20.704Z</time></trkpt><trkpt lat="42.3418233" lon="14.0174583"><ele>180.0</ele><time>2026-05-02T07:06:40.705Z</time></trkpt><trkpt lat="42.34191" lon="14.0173967"><ele>180.0</ele><time>2026-05-02T07:06:42.704Z</time></trkpt><trkpt lat="42.3420117" lon="14.0173067"><ele>180.0</ele><time>2026-05-02T07:06:44.705Z</time></trkpt><trkpt lat="42.3421017" lon="14.0172183"><ele>180.0</ele><time>2026-05-02T07:06:46.704Z</time></trkpt><trkpt lat="42.3421883" lon="14.0171617"><ele>180.0</ele><time>2026-05-02T07:06:48.704Z</time></trkpt><trkpt lat="42.3422017" lon="14.0170567"><ele>180.0</ele><time>2026-05-02T07:06:51.705Z</time></trkpt><trkpt lat="42.34213" lon="14.016985"><ele>180.0</ele><time>2026-05-02T07:06:53.705Z</time></trkpt><trkpt lat="42.3420667" lon="14.0169433"><ele>180.0</ele><time>2026-05-02T07:06:54.705Z</time></trkpt><trkpt lat="42.3419917" lon="14.0168867"><ele>180.0</ele><time>2026-05-02T07:06:55.704Z</time></trkpt><trkpt lat="42.341915" lon="14.0168267"><ele>180.0</ele><time>2026-05-02T07:06:56.704Z</time></trkpt><trkpt lat="42.34184" lon="14.016765"><ele>180.0</ele><time>2026-05-02T07:06:57.704Z</time></trkpt><trkpt lat="42.341765" lon="14.016705"><ele>180.0</ele><time>2026-05-02T07:06:58.705Z</time></trkpt><trkpt lat="42.3416933" lon="14.0166533"><ele>180.0</ele><time>2026-05-02T07:06:59.705Z</time></trkpt><trkpt lat="42.34162" lon="14.0166"><ele>180.0</ele><time>2026-05-02T07:07:00.705Z</time></trkpt><trkpt lat="42.34155" lon="14.01655"><ele>180.0</ele><time>2026-05-02T07:07:01.705Z</time></trkpt><trkpt lat="42.3414783" lon="14.016495"><ele>180.0</ele><time>2026-05-02T07:07:02.704Z</time></trkpt><trkpt lat="42.34141" lon="14.016445"><ele>180.0</ele><time>2026-05-02T07:07:03.705Z</time></trkpt><trkpt lat="42.3413417" lon="14.0163967"><ele>179.16666666666666</ele><time>2026-05-02T07:07:04.704Z</time></trkpt><trkpt lat="42.3412783" lon="14.0163483"><ele>178.33333333333334</ele><time>2026-05-02T07:07:05.704Z</time></trkpt><trkpt lat="42.3412133" lon="14.0163033"><ele>177.5</ele><time>2026-05-02T07:07:06.704Z</time></trkpt><trkpt lat="42.34116" lon="14.0162533"><ele>176.66666666666669</ele><time>2026-05-02T07:07:07.705Z</time></trkpt><trkpt lat="42.3411067" lon="14.016205"><ele>175.83333333333334</ele><time>2026-05-02T07:07:08.704Z</time></trkpt><trkpt lat="42.3410083" lon="14.0160983"><ele>175.0</ele><time>2026-05-02T07:07:10.704Z</time></trkpt><trkpt lat="42.3409617" lon="14.0160217"><ele>175.0</ele><time>2026-05-02T07:07:11.705Z</time></trkpt><trkpt lat="42.340905" lon="14.0159517"><ele>175.0</ele><time>2026-05-02T07:07:12.704Z</time></trkpt><trkpt lat="42.3408517" lon="14.0158783"><ele>175.0</ele><time>2026-05-02T07:07:13.704Z</time></trkpt><trkpt lat="42.3408017" lon="14.015795"><ele>175.0</ele><time>2026-05-02T07:07:14.704Z</time></trkpt><trkpt lat="42.34075" lon="14.0156983"><ele>175.0</ele><time>2026-05-02T07:07:15.705Z</time></trkpt><trkpt lat="42.34071" lon="14.0156"><ele>175.0</ele><time>2026-05-02T07:07:16.705Z</time></trkpt><trkpt lat="42.3406767" lon="14.015515"><ele>176.0</ele><time>2026-05-02T07:07:17.704Z</time></trkpt><trkpt lat="42.34065" lon="14.0154367"><ele>177.0</ele><time>2026-05-02T07:07:18.705Z</time></trkpt><trkpt lat="42.3405983" lon="14.0152983"><ele>178.0</ele><time>2026-05-02T07:07:20.704Z</time></trkpt><trkpt lat="42.34051" lon="14.0152067"><ele>179.0</ele><time>2026-05-02T07:07:22.704Z</time></trkpt><trkpt lat="42.340395" lon="14.015205"><ele>180.0</ele><time>2026-05-02T07:07:24.705Z</time></trkpt><trkpt lat="42.340325" lon="14.0152467"><ele>180.8</ele><time>2026-05-02T07:07:25.704Z</time></trkpt><trkpt lat="42.34024" lon="14.0153083"><ele>181.6</ele><time>2026-05-02T07:07:26.705Z</time></trkpt><trkpt lat="42.34016" lon="14.0153667"><ele>182.39999999999998</ele><time>2026-05-02T07:07:27.705Z</time></trkpt><trkpt lat="42.3400867" lon="14.0154133"><ele>183.2</ele><time>2026-05-02T07:07:28.704Z</time></trkpt><trkpt lat="42.3400283" lon="14.0154533"><ele>184.0</ele><time>2026-05-02T07:07:29.704Z</time></trkpt><trkpt lat="42.3399317" lon="14.01554"><ele>184.0</ele><time>2026-05-02T07:07:31.705Z</time></trkpt><trkpt lat="42.3398467" lon="14.0156183"><ele>184.0</ele><time>2026-05-02T07:07:33.705Z</time></trkpt><trkpt lat="42.3397517" lon="14.0156717"><ele>184.0</ele><time>2026-05-02T07:07:35.705Z</time></trkpt><trkpt lat="42.3396417" lon="14.0156467"><ele>184.0</ele><time>2026-05-02T07:07:37.705Z</time></trkpt><trkpt lat="42.33958" lon="14.0156117"><ele>184.0</ele><time>2026-05-02T07:07:38.705Z</time></trkpt><trkpt lat="42.3395217" lon="14.015575"><ele>184.0</ele><time>2026-05-02T07:07:39.704Z</time></trkpt><trkpt lat="42.339465" lon="14.0155333"><ele>183.16666666666669</ele><time>2026-05-02T07:07:40.705Z</time></trkpt><trkpt lat="42.3393633" lon="14.0154717"><ele>182.33333333333334</ele><time>2026-05-02T07:07:42.705Z</time></trkpt><trkpt lat="42.339285" lon="14.0153483"><ele>181.5</ele><time>2026-05-02T07:07:44.705Z</time></trkpt><trkpt lat="42.33926" lon="14.015265"><ele>180.66666666666666</ele><time>2026-05-02T07:07:45.704Z</time></trkpt><trkpt lat="42.3392333" lon="14.0151817"><ele>179.83333333333331</ele><time>2026-05-02T07:07:46.705Z</time></trkpt><trkpt lat="42.3392033" lon="14.0150983"><ele>179.0</ele><time>2026-05-02T07:07:47.705Z</time></trkpt><trkpt lat="42.3391683" lon="14.0149967"><ele>180.33333333333331</ele><time>2026-05-02T07:07:48.705Z</time></trkpt><trkpt lat="42.3391283" lon="14.0148933"><ele>181.66666666666666</ele><time>2026-05-02T07:07:49.704Z</time></trkpt><trkpt lat="42.339085" lon="14.0147983"><ele>183.0</ele><time>2026-05-02T07:07:50.704Z</time></trkpt><trkpt lat="42.3390417" lon="14.0147"><ele>184.33333333333334</ele><time>2026-05-02T07:07:51.705Z</time></trkpt><trkpt lat="42.339005" lon="14.0146017"><ele>185.66666666666669</ele><time>2026-05-02T07:07:52.704Z</time></trkpt><trkpt lat="42.338965" lon="14.014505"><ele>187.0</ele><time>2026-05-02T07:07:53.705Z</time></trkpt><trkpt lat="42.3389283" lon="14.014415"><ele>187.0</ele><time>2026-05-02T07:07:54.705Z</time></trkpt><trkpt lat="42.338885" lon="14.01432"><ele>187.0</ele><time>2026-05-02T07:07:55.705Z</time></trkpt><trkpt lat="42.3388467" lon="14.0142217"><ele>187.0</ele><time>2026-05-02T07:07:56.705Z</time></trkpt><trkpt lat="42.3388017" lon="14.0141167"><ele>187.0</ele><time>2026-05-02T07:07:57.704Z</time></trkpt><trkpt lat="42.3387533" lon="14.0139983"><ele>187.0</ele><time>2026-05-02T07:07:58.704Z</time></trkpt><trkpt lat="42.3387133" lon="14.0138783"><ele>186.39999999999998</ele><time>2026-05-02T07:07:59.704Z</time></trkpt><trkpt lat="42.3386767" lon="14.0137483"><ele>185.79999999999998</ele><time>2026-05-02T07:08:00.704Z</time></trkpt><trkpt lat="42.338635" lon="14.0136317"><ele>185.2</ele><time>2026-05-02T07:08:01.704Z</time></trkpt><trkpt lat="42.338595" lon="14.0135117"><ele>184.6</ele><time>2026-05-02T07:08:02.705Z</time></trkpt><trkpt lat="42.3385533" lon="14.013395"><ele>184.0</ele><time>2026-05-02T07:08:03.705Z</time></trkpt><trkpt lat="42.338515" lon="14.01328"><ele>185.16666666666669</ele><time>2026-05-02T07:08:04.705Z</time></trkpt><trkpt lat="42.33848" lon="14.0131683"><ele>186.33333333333334</ele><time>2026-05-02T07:08:05.704Z</time></trkpt><trkpt lat="42.33845" lon="14.0130667"><ele>187.5</ele><time>2026-05-02T07:08:06.705Z</time></trkpt><trkpt lat="42.3384183" lon="14.012985"><ele>188.66666666666666</ele><time>2026-05-02T07:08:07.704Z</time></trkpt><trkpt lat="42.3383667" lon="14.0128617"><ele>189.83333333333331</ele><time>2026-05-02T07:08:09.705Z</time></trkpt><trkpt lat="42.3383583" lon="14.0127767"><ele>191.0</ele><time>2026-05-02T07:08:11.704Z</time></trkpt><trkpt lat="42.3384383" lon="14.0127"><ele>191.0</ele><time>2026-05-02T07:08:14.705Z</time></trkpt><trkpt lat="42.3384983" lon="14.0126633"><ele>191.0</ele><time>2026-05-02T07:08:15.705Z</time></trkpt><trkpt lat="42.33856" lon="14.0126283"><ele>191.0</ele><time>2026-05-02T07:08:16.705Z</time></trkpt><trkpt lat="42.3386633" lon="14.0125583"><ele>191.0</ele><time>2026-05-02T07:08:18.704Z</time></trkpt><trkpt lat="42.338755" lon="14.0124933"><ele>191.0</ele><time>2026-05-02T07:08:20.705Z</time></trkpt><trkpt lat="42.338835" lon="14.0124367"><ele>191.0</ele><time>2026-05-02T07:08:22.705Z</time></trkpt><trkpt lat="42.3388233" lon="14.0123333"><ele>192.75</ele><time>2026-05-02T07:08:25.705Z</time></trkpt><trkpt lat="42.338685" lon="14.0122917"><ele>194.5</ele><time>2026-05-02T07:08:27.705Z</time></trkpt><trkpt lat="42.338585" lon="14.0122433"><ele>196.25</ele><time>2026-05-02T07:08:28.704Z</time></trkpt><trkpt lat="42.338465" lon="14.01218"><ele>198.0</ele><time>2026-05-02T07:08:29.705Z</time></trkpt><trkpt lat="42.33834" lon="14.0121233"><ele>198.0</ele><time>2026-05-02T07:08:30.704Z</time></trkpt><trkpt lat="42.3382017" lon="14.0120817"><ele>198.0</ele><time>2026-05-02T07:08:31.704Z</time></trkpt><trkpt lat="42.3380733" lon="14.0120367"><ele>198.0</ele><time>2026-05-02T07:08:32.704Z</time></trkpt><trkpt lat="42.33795" lon="14.01198"><ele>198.0</ele><time>2026-05-02T07:08:33.704Z</time></trkpt><trkpt lat="42.3378317" lon="14.01191"><ele>197.25</ele><time>2026-05-02T07:08:34.705Z</time></trkpt><trkpt lat="42.3377217" lon="14.0118333"><ele>196.5</ele><time>2026-05-02T07:08:35.705Z</time></trkpt><trkpt lat="42.3376117" lon="14.01174"><ele>195.75</ele><time>2026-05-02T07:08:36.704Z</time></trkpt><trkpt lat="42.3375017" lon="14.0116333"><ele>195.0</ele><time>2026-05-02T07:08:37.704Z</time></trkpt><trkpt lat="42.3373967" lon="14.01152"><ele>195.0</ele><time>2026-05-02T07:08:38.704Z</time></trkpt><trkpt lat="42.3373017" lon="14.0113883"><ele>195.0</ele><time>2026-05-02T07:08:39.705Z</time></trkpt><trkpt lat="42.3372317" lon="14.0112433"><ele>195.0</ele><time>2026-05-02T07:08:40.705Z</time></trkpt><trkpt lat="42.337165" lon="14.0111083"><ele>195.0</ele><time>2026-05-02T07:08:41.705Z</time></trkpt><trkpt lat="42.337105" lon="14.0109933"><ele>192.2</ele><time>2026-05-02T07:08:42.704Z</time></trkpt><trkpt lat="42.337035" lon="14.0109167"><ele>189.4</ele><time>2026-05-02T07:08:43.705Z</time></trkpt><trkpt lat="42.336965" lon="14.010885"><ele>186.60000000000002</ele><time>2026-05-02T07:08:44.705Z</time></trkpt><trkpt lat="42.3368767" lon="14.0108983"><ele>183.8</ele><time>2026-05-02T07:08:45.705Z</time></trkpt><trkpt lat="42.3367667" lon="14.0109567"><ele>181.0</ele><time>2026-05-02T07:08:46.705Z</time></trkpt><trkpt lat="42.3366517" lon="14.0110383"><ele>181.0</ele><time>2026-05-02T07:08:47.705Z</time></trkpt><trkpt lat="42.3365483" lon="14.01111"><ele>181.0</ele><time>2026-05-02T07:08:48.705Z</time></trkpt><trkpt lat="42.3364533" lon="14.011195"><ele>181.0</ele><time>2026-05-02T07:08:49.705Z</time></trkpt><trkpt lat="42.3363683" lon="14.0113033"><ele>181.0</ele><time>2026-05-02T07:08:50.705Z</time></trkpt><trkpt lat="42.3362983" lon="14.01144"><ele>183.75</ele><time>2026-05-02T07:08:51.704Z</time></trkpt><trkpt lat="42.3362383" lon="14.011595"><ele>186.5</ele><time>2026-05-02T07:08:52.705Z</time></trkpt><trkpt lat="42.3361817" lon="14.0117617"><ele>189.25</ele><time>2026-05-02T07:08:53.704Z</time></trkpt><trkpt lat="42.3361267" lon="14.01192"><ele>192.0</ele><time>2026-05-02T07:08:54.705Z</time></trkpt><trkpt lat="42.3360767" lon="14.0120733"><ele>192.5</ele><time>2026-05-02T07:08:55.705Z</time></trkpt><trkpt lat="42.3360367" lon="14.0122317"><ele>193.0</ele><time>2026-05-02T07:08:56.705Z</time></trkpt><trkpt lat="42.336025" lon="14.0123983"><ele>193.5</ele><time>2026-05-02T07:08:57.705Z</time></trkpt><trkpt lat="42.3360267" lon="14.0125883"><ele>194.0</ele><time>2026-05-02T07:08:58.705Z</time></trkpt><trkpt lat="42.3360267" lon="14.0127783"><ele>195.25</ele><time>2026-05-02T07:08:59.705Z</time></trkpt><trkpt lat="42.3360317" lon="14.0129733"><ele>196.5</ele><time>2026-05-02T07:09:00.705Z</time></trkpt><trkpt lat="42.33604" lon="14.01316"><ele>197.75</ele><time>2026-05-02T07:09:01.704Z</time></trkpt><trkpt lat="42.3360433" lon="14.0133383"><ele>199.0</ele><time>2026-05-02T07:09:02.705Z</time></trkpt><trkpt lat="42.3360417" lon="14.01351"><ele>200.0</ele><time>2026-05-02T07:09:03.705Z</time></trkpt><trkpt lat="42.3360483" lon="14.0136767"><ele>201.0</ele><time>2026-05-02T07:09:04.705Z</time></trkpt><trkpt lat="42.336055" lon="14.0138417"><ele>202.0</ele><time>2026-05-02T07:09:05.705Z</time></trkpt><trkpt lat="42.336055" lon="14.0139983"><ele>203.0</ele><time>2026-05-02T07:09:06.704Z</time></trkpt><trkpt lat="42.3360517" lon="14.0141467"><ele>203.2</ele><time>2026-05-02T07:09:07.704Z</time></trkpt><trkpt lat="42.3360467" lon="14.0142833"><ele>203.4</ele><time>2026-05-02T07:09:08.704Z</time></trkpt><trkpt lat="42.3360467" lon="14.0144117"><ele>203.6</ele><time>2026-05-02T07:09:09.705Z</time></trkpt><trkpt lat="42.3360567" lon="14.0145367"><ele>203.79999999999998</ele><time>2026-05-02T07:09:10.705Z</time></trkpt><trkpt lat="42.3360767" lon="14.0146617"><ele>204.0</ele><time>2026-05-02T07:09:11.704Z</time></trkpt><trkpt lat="42.33611" lon="14.014775"><ele>204.0</ele><time>2026-05-02T07:09:12.704Z</time></trkpt><trkpt lat="42.3361483" lon="14.0148767"><ele>204.0</ele><time>2026-05-02T07:09:13.705Z</time></trkpt><trkpt lat="42.3361783" lon="14.0149683"><ele>204.0</ele><time>2026-05-02T07:09:14.704Z</time></trkpt><trkpt lat="42.336165" lon="14.0151167"><ele>204.0</ele><time>2026-05-02T07:09:16.704Z</time></trkpt><trkpt lat="42.33607" lon="14.01516"><ele>204.0</ele><time>2026-05-02T07:09:18.705Z</time></trkpt><trkpt lat="42.3360067" lon="14.0151133"><ele>204.0</ele><time>2026-05-02T07:09:19.704Z</time></trkpt><trkpt lat="42.3359467" lon="14.0150567"><ele>204.0</ele><time>2026-05-02T07:09:20.705Z</time></trkpt><trkpt lat="42.3358567" lon="14.014975"><ele>204.0</ele><time>2026-05-02T07:09:22.705Z</time></trkpt><trkpt lat="42.3357917" lon="14.0149217"><ele>204.0</ele><time>2026-05-02T07:09:24.705Z</time></trkpt><trkpt lat="42.3357433" lon="14.01485"><ele>204.0</ele><time>2026-05-02T07:09:26.704Z</time></trkpt><trkpt lat="42.335685" lon="14.0147233"><ele>204.0</ele><time>2026-05-02T07:09:28.703Z</time></trkpt><trkpt lat="42.3356183" lon="14.0146067"><ele>204.75</ele><time>2026-05-02T07:09:30.703Z</time></trkpt><trkpt lat="42.3354917" lon="14.0145867"><ele>205.5</ele><time>2026-05-02T07:09:32.703Z</time></trkpt><trkpt lat="42.3353983" lon="14.014595"><ele>206.25</ele><time>2026-05-02T07:09:33.703Z</time></trkpt><trkpt lat="42.3352733" lon="14.01461"><ele>207.0</ele><time>2026-05-02T07:09:34.703Z</time></trkpt><trkpt lat="42.3351183" lon="14.0146017"><ele>207.0</ele><time>2026-05-02T07:09:35.703Z</time></trkpt><trkpt lat="42.3349467" lon="14.01458"><ele>207.0</ele><time>2026-05-02T07:09:36.704Z</time></trkpt><trkpt lat="42.3347617" lon="14.014555"><ele>207.0</ele><time>2026-05-02T07:09:37.703Z</time></trkpt><trkpt lat="42.3345533" lon="14.0145267"><ele>204.66666666666669</ele><time>2026-05-02T07:09:38.704Z</time></trkpt><trkpt lat="42.33435" lon="14.01449"><ele>202.33333333333334</ele><time>2026-05-02T07:09:39.704Z</time></trkpt><trkpt lat="42.334145" lon="14.0144617"><ele>200.0</ele><time>2026-05-02T07:09:40.704Z</time></trkpt><trkpt lat="42.3339583" lon="14.014435"><ele>198.66666666666669</ele><time>2026-05-02T07:09:41.704Z</time></trkpt><trkpt lat="42.3337867" lon="14.0144067"><ele>197.33333333333331</ele><time>2026-05-02T07:09:42.704Z</time></trkpt><trkpt lat="42.333635" lon="14.0143817"><ele>196.0</ele><time>2026-05-02T07:09:43.704Z</time></trkpt><trkpt lat="42.33351" lon="14.0143667"><ele>196.0</ele><time>2026-05-02T07:09:44.703Z</time></trkpt><trkpt lat="42.3334017" lon="14.014355"><ele>196.0</ele><time>2026-05-02T07:09:45.704Z</time></trkpt><trkpt lat="42.3332983" lon="14.0143383"><ele>196.0</ele><time>2026-05-02T07:09:46.703Z</time></trkpt><trkpt lat="42.3331767" lon="14.01432"><ele>196.0</ele><time>2026-05-02T07:09:47.703Z</time></trkpt><trkpt lat="42.3330367" lon="14.0143017"><ele>195.25</ele><time>2026-05-02T07:09:48.704Z</time></trkpt><trkpt lat="42.3328933" lon="14.0142817"><ele>194.5</ele><time>2026-05-02T07:09:49.703Z</time></trkpt><trkpt lat="42.332745" lon="14.01426"><ele>193.75</ele><time>2026-05-02T07:09:50.704Z</time></trkpt><trkpt lat="42.3326017" lon="14.014245"><ele>193.0</ele><time>2026-05-02T07:09:51.704Z</time></trkpt><trkpt lat="42.3324617" lon="14.0142267"><ele>193.0</ele><time>2026-05-02T07:09:52.704Z</time></trkpt><trkpt lat="42.3323233" lon="14.0142133"><ele>193.0</ele><time>2026-05-02T07:09:53.704Z</time></trkpt><trkpt lat="42.33219" lon="14.0142133"><ele>193.0</ele><time>2026-05-02T07:09:54.704Z</time></trkpt><trkpt lat="42.33205" lon="14.0142367"><ele>193.0</ele><time>2026-05-02T07:09:55.704Z</time></trkpt><trkpt lat="42.3318967" lon="14.0143033"><ele>190.0</ele><time>2026-05-02T07:09:56.703Z</time></trkpt><trkpt lat="42.3317483" lon="14.0144"><ele>187.0</ele><time>2026-05-02T07:09:57.703Z</time></trkpt><trkpt lat="42.3316067" lon="14.0145017"><ele>184.0</ele><time>2026-05-02T07:09:58.703Z</time></trkpt><trkpt lat="42.3314717" lon="14.0146033"><ele>181.5</ele><time>2026-05-02T07:09:59.704Z</time></trkpt><trkpt lat="42.3313533" lon="14.0147"><ele>179.0</ele><time>2026-05-02T07:10:00.703Z</time></trkpt><trkpt lat="42.331235" lon="14.0147933"><ele>176.5</ele><time>2026-05-02T07:10:01.704Z</time></trkpt><trkpt lat="42.33112" lon="14.0148817"><ele>174.0</ele><time>2026-05-02T07:10:02.703Z</time></trkpt><trkpt lat="42.3310017" lon="14.0149617"><ele>173.5</ele><time>2026-05-02T07:10:03.704Z</time></trkpt><trkpt lat="42.3308833" lon="14.0150167"><ele>173.0</ele><time>2026-05-02T07:10:04.703Z</time></trkpt><trkpt lat="42.33077" lon="14.0150483"><ele>172.5</ele><time>2026-05-02T07:10:05.704Z</time></trkpt><trkpt lat="42.3306583" lon="14.0150433"><ele>172.0</ele><time>2026-05-02T07:10:06.704Z</time></trkpt><trkpt lat="42.33055" lon="14.0150133"><ele>171.5</ele><time>2026-05-02T07:10:07.703Z</time></trkpt><trkpt lat="42.3304417" lon="14.0149717"><ele>171.0</ele><time>2026-05-02T07:10:08.703Z</time></trkpt><trkpt lat="42.33034" lon="14.0149033"><ele>170.5</ele><time>2026-05-02T07:10:09.703Z</time></trkpt><trkpt lat="42.330245" lon="14.0147983"><ele>170.0</ele><time>2026-05-02T07:10:10.704Z</time></trkpt><trkpt lat="42.3301467" lon="14.014665"><ele>170.0</ele><time>2026-05-02T07:10:11.704Z</time></trkpt><trkpt lat="42.3300333" lon="14.0145167"><ele>170.0</ele><time>2026-05-02T07:10:12.704Z</time></trkpt><trkpt lat="42.3299183" lon="14.01435"><ele>170.0</ele><time>2026-05-02T07:10:13.703Z</time></trkpt><trkpt lat="42.3297983" lon="14.0141933"><ele>167.66666666666666</ele><time>2026-05-02T07:10:14.703Z</time></trkpt><trkpt lat="42.3296883" lon="14.0140283"><ele>165.33333333333334</ele><time>2026-05-02T07:10:15.704Z</time></trkpt><trkpt lat="42.3295833" lon="14.013865"><ele>163.0</ele><time>2026-05-02T07:10:16.703Z</time></trkpt><trkpt lat="42.32947" lon="14.0137033"><ele>163.0</ele><time>2026-05-02T07:10:17.704Z</time></trkpt><trkpt lat="42.32937" lon="14.013535"><ele>163.0</ele><time>2026-05-02T07:10:18.703Z</time></trkpt><trkpt lat="42.3292667" lon="14.0133733"><ele>163.0</ele><time>2026-05-02T07:10:19.703Z</time></trkpt><trkpt lat="42.3291717" lon="14.0132117"><ele>161.75</ele><time>2026-05-02T07:10:20.703Z</time></trkpt><trkpt lat="42.3290867" lon="14.0130483"><ele>160.5</ele><time>2026-05-02T07:10:21.703Z</time></trkpt><trkpt lat="42.329" lon="14.01289"><ele>159.25</ele><time>2026-05-02T07:10:22.704Z</time></trkpt><trkpt lat="42.3289117" lon="14.01274"><ele>158.0</ele><time>2026-05-02T07:10:23.703Z</time></trkpt><trkpt lat="42.3288283" lon="14.0125983"><ele>158.0</ele><time>2026-05-02T07:10:24.704Z</time></trkpt><trkpt lat="42.3287333" lon="14.0124883"><ele>158.0</ele><time>2026-05-02T07:10:25.704Z</time></trkpt><trkpt lat="42.3286167" lon="14.0123967"><ele>158.0</ele><time>2026-05-02T07:10:26.703Z</time></trkpt><trkpt lat="42.3284883" lon="14.012325"><ele>158.0</ele><time>2026-05-02T07:10:27.704Z</time></trkpt><trkpt lat="42.328355" lon="14.0122633"><ele>158.0</ele><time>2026-05-02T07:10:28.703Z</time></trkpt><trkpt lat="42.3282167" lon="14.012205"><ele>158.0</ele><time>2026-05-02T07:10:29.704Z</time></trkpt><trkpt lat="42.3280767" lon="14.0121433"><ele>158.0</ele><time>2026-05-02T07:10:30.703Z</time></trkpt><trkpt lat="42.3279267" lon="14.0120867"><ele>158.0</ele><time>2026-05-02T07:10:31.704Z</time></trkpt><trkpt lat="42.32777" lon="14.0120267"><ele>157.0</ele><time>2026-05-02T07:10:32.704Z</time></trkpt><trkpt lat="42.32763" lon="14.0119667"><ele>156.0</ele><time>2026-05-02T07:10:33.704Z</time></trkpt><trkpt lat="42.327505" lon="14.0119183"><ele>155.0</ele><time>2026-05-02T07:10:34.703Z</time></trkpt><trkpt lat="42.3273867" lon="14.0118733"><ele>154.0</ele><time>2026-05-02T07:10:35.704Z</time></trkpt><trkpt lat="42.32727" lon="14.0118367"><ele>153.2</ele><time>2026-05-02T07:10:36.704Z</time></trkpt><trkpt lat="42.32716" lon="14.011805"><ele>152.4</ele><time>2026-05-02T07:10:37.704Z</time></trkpt><trkpt lat="42.3270567" lon="14.0117767"><ele>151.6</ele><time>2026-05-02T07:10:38.703Z</time></trkpt><trkpt lat="42.3269667" lon="14.0117383"><ele>150.8</ele><time>2026-05-02T07:10:39.703Z</time></trkpt><trkpt lat="42.3268767" lon="14.0116917"><ele>150.0</ele><time>2026-05-02T07:10:40.703Z</time></trkpt><trkpt lat="42.3267983" lon="14.011625"><ele>150.0</ele><time>2026-05-02T07:10:41.704Z</time></trkpt><trkpt lat="42.3267283" lon="14.0115383"><ele>150.0</ele><time>2026-05-02T07:10:42.703Z</time></trkpt><trkpt lat="42.3266683" lon="14.0114233"><ele>150.0</ele><time>2026-05-02T07:10:43.704Z</time></trkpt><trkpt lat="42.3266117" lon="14.0112683"><ele>150.0</ele><time>2026-05-02T07:10:44.704Z</time></trkpt><trkpt lat="42.3265533" lon="14.0110917"><ele>150.0</ele><time>2026-05-02T07:10:45.704Z</time></trkpt><trkpt lat="42.326495" lon="14.0109017"><ele>150.0</ele><time>2026-05-02T07:10:46.704Z</time></trkpt><trkpt lat="42.326435" lon="14.0107"><ele>150.0</ele><time>2026-05-02T07:10:47.703Z</time></trkpt><trkpt lat="42.3263683" lon="14.010495"><ele>148.33333333333334</ele><time>2026-05-02T07:10:48.703Z</time></trkpt><trkpt lat="42.3263" lon="14.0102917"><ele>146.66666666666669</ele><time>2026-05-02T07:10:49.703Z</time></trkpt><trkpt lat="42.3262283" lon="14.0100933"><ele>145.0</ele><time>2026-05-02T07:10:50.704Z</time></trkpt><trkpt lat="42.3261567" lon="14.009895"><ele>145.0</ele><time>2026-05-02T07:10:51.704Z</time></trkpt><trkpt lat="42.3260867" lon="14.0096883"><ele>145.0</ele><time>2026-05-02T07:10:52.704Z</time></trkpt><trkpt lat="42.326015" lon="14.0094783"><ele>145.0</ele><time>2026-05-02T07:10:53.704Z</time></trkpt><trkpt lat="42.3259417" lon="14.0092633"><ele>144.33333333333334</ele><time>2026-05-02T07:10:54.703Z</time></trkpt><trkpt lat="42.3258767" lon="14.0090417"><ele>143.66666666666666</ele><time>2026-05-02T07:10:55.704Z</time></trkpt><trkpt lat="42.3258167" lon="14.00882"><ele>143.0</ele><time>2026-05-02T07:10:56.704Z</time></trkpt><trkpt lat="42.325745" lon="14.0086083"><ele>143.0</ele><time>2026-05-02T07:10:57.703Z</time></trkpt><trkpt lat="42.325675" lon="14.0083967"><ele>143.0</ele><time>2026-05-02T07:10:58.703Z</time></trkpt><trkpt lat="42.3256" lon="14.0081917"><ele>143.0</ele><time>2026-05-02T07:10:59.704Z</time></trkpt><trkpt lat="42.3255167" lon="14.0079967"><ele>141.66666666666666</ele><time>2026-05-02T07:11:00.704Z</time></trkpt><trkpt lat="42.3254267" lon="14.0078017"><ele>140.33333333333334</ele><time>2026-05-02T07:11:01.704Z</time></trkpt><trkpt lat="42.325335" lon="14.0076083"><ele>139.0</ele><time>2026-05-02T07:11:02.704Z</time></trkpt><trkpt lat="42.3252317" lon="14.0074117"><ele>138.0</ele><time>2026-05-02T07:11:03.704Z</time></trkpt><trkpt lat="42.32515" lon="14.00721"><ele>137.0</ele><time>2026-05-02T07:11:04.703Z</time></trkpt><trkpt lat="42.3250833" lon="14.0070033"><ele>136.0</ele><time>2026-05-02T07:11:05.704Z</time></trkpt><trkpt lat="42.3250317" lon="14.006785"><ele>135.66666666666669</ele><time>2026-05-02T07:11:06.703Z</time></trkpt><trkpt lat="42.3249817" lon="14.00657"><ele>135.33333333333334</ele><time>2026-05-02T07:11:07.704Z</time></trkpt><trkpt lat="42.3249317" lon="14.0063467"><ele>135.0</ele><time>2026-05-02T07:11:08.704Z</time></trkpt><trkpt lat="42.3248767" lon="14.0060917"><ele>133.33333333333334</ele><time>2026-05-02T07:11:09.703Z</time></trkpt><trkpt lat="42.3248167" lon="14.0058283"><ele>131.66666666666669</ele><time>2026-05-02T07:11:10.703Z</time></trkpt><trkpt lat="42.3247517" lon="14.00556"><ele>130.0</ele><time>2026-05-02T07:11:11.704Z</time></trkpt><trkpt lat="42.3246767" lon="14.0053033"><ele>130.0</ele><time>2026-05-02T07:11:12.703Z</time></trkpt><trkpt lat="42.3245983" lon="14.005045"><ele>130.0</ele><time>2026-05-02T07:11:13.703Z</time></trkpt><trkpt lat="42.3245067" lon="14.00478"><ele>130.0</ele><time>2026-05-02T07:11:14.704Z</time></trkpt><trkpt lat="42.3244017" lon="14.00451"><ele>132.5</ele><time>2026-05-02T07:11:15.703Z</time></trkpt><trkpt lat="42.32429" lon="14.0042283"><ele>135.0</ele><time>2026-05-02T07:11:16.703Z</time></trkpt><trkpt lat="42.3241883" lon="14.0039567"><ele>136.33333333333334</ele><time>2026-05-02T07:11:17.703Z</time></trkpt><trkpt lat="42.3240917" lon="14.0036867"><ele>137.66666666666669</ele><time>2026-05-02T07:11:18.703Z</time></trkpt><trkpt lat="42.324" lon="14.0034267"><ele>139.0</ele><time>2026-05-02T07:11:19.703Z</time></trkpt><trkpt lat="42.3239117" lon="14.0031817"><ele>138.0</ele><time>2026-05-02T07:11:20.703Z</time></trkpt><trkpt lat="42.32383" lon="14.0029467"><ele>137.0</ele><time>2026-05-02T07:11:21.703Z</time></trkpt><trkpt lat="42.32375" lon="14.0027233"><ele>136.0</ele><time>2026-05-02T07:11:22.703Z</time></trkpt><trkpt lat="42.3236767" lon="14.002515"><ele>136.66666666666669</ele><time>2026-05-02T07:11:23.703Z</time></trkpt><trkpt lat="42.3236117" lon="14.00232"><ele>137.33333333333334</ele><time>2026-05-02T07:11:24.703Z</time></trkpt><trkpt lat="42.3235533" lon="14.0021367"><ele>138.0</ele><time>2026-05-02T07:11:25.704Z</time></trkpt><trkpt lat="42.323495" lon="14.0019567"><ele>138.0</ele><time>2026-05-02T07:11:26.704Z</time></trkpt><trkpt lat="42.3234317" lon="14.001775"><ele>138.0</ele><time>2026-05-02T07:11:27.703Z</time></trkpt><trkpt lat="42.3233633" lon="14.0015817"><ele>138.0</ele><time>2026-05-02T07:11:28.704Z</time></trkpt><trkpt lat="42.323295" lon="14.0013767"><ele>138.66666666666666</ele><time>2026-05-02T07:11:29.703Z</time></trkpt><trkpt lat="42.3232233" lon="14.0011683"><ele>139.33333333333331</ele><time>2026-05-02T07:11:30.703Z</time></trkpt><trkpt lat="42.3231533" lon="14.0009617"><ele>140.0</ele><time>2026-05-02T07:11:31.704Z</time></trkpt><trkpt lat="42.3230817" lon="14.000755"><ele>138.33333333333331</ele><time>2026-05-02T07:11:32.703Z</time></trkpt><trkpt lat="42.3230133" lon="14.0005467"><ele>136.66666666666666</ele><time>2026-05-02T07:11:33.704Z</time></trkpt><trkpt lat="42.3229433" lon="14.000345"><ele>135.0</ele><time>2026-05-02T07:11:34.703Z</time></trkpt><trkpt lat="42.3228767" lon="14.0001367"><ele>135.0</ele><time>2026-05-02T07:11:35.704Z</time></trkpt><trkpt lat="42.3228083" lon="13.99993"><ele>135.0</ele><time>2026-05-02T07:11:36.704Z</time></trkpt><trkpt lat="42.3227417" lon="13.9997333"><ele>135.0</ele><time>2026-05-02T07:11:37.704Z</time></trkpt><trkpt lat="42.32268" lon="13.9995383"><ele>135.0</ele><time>2026-05-02T07:11:38.704Z</time></trkpt><trkpt lat="42.32262" lon="13.9993417"><ele>135.0</ele><time>2026-05-02T07:11:39.703Z</time></trkpt><trkpt lat="42.3225517" lon="13.99914"><ele>135.0</ele><time>2026-05-02T07:11:40.703Z</time></trkpt><trkpt lat="42.3224883" lon="13.9989417"><ele>136.0</ele><time>2026-05-02T07:11:41.703Z</time></trkpt><trkpt lat="42.3224233" lon="13.9987483"><ele>137.0</ele><time>2026-05-02T07:11:42.704Z</time></trkpt><trkpt lat="42.3223633" lon="13.9985683"><ele>138.0</ele><time>2026-05-02T07:11:43.703Z</time></trkpt><trkpt lat="42.3223083" lon="13.9983917"><ele>139.0</ele><time>2026-05-02T07:11:44.703Z</time></trkpt><trkpt lat="42.322255" lon="13.99822"><ele>136.0</ele><time>2026-05-02T07:11:45.703Z</time></trkpt><trkpt lat="42.322195" lon="13.99804"><ele>133.0</ele><time>2026-05-02T07:11:46.704Z</time></trkpt><trkpt lat="42.3221333" lon="13.9978417"><ele>130.0</ele><time>2026-05-02T07:11:47.703Z</time></trkpt><trkpt lat="42.3220683" lon="13.997635"><ele>131.33333333333334</ele><time>2026-05-02T07:11:48.704Z</time></trkpt><trkpt lat="42.3220017" lon="13.9974183"><ele>132.66666666666666</ele><time>2026-05-02T07:11:49.703Z</time></trkpt><trkpt lat="42.3219333" lon="13.9972017"><ele>134.0</ele><time>2026-05-02T07:11:50.703Z</time></trkpt><trkpt lat="42.321865" lon="13.9969817"><ele>134.0</ele><time>2026-05-02T07:11:51.704Z</time></trkpt><trkpt lat="42.3218033" lon="13.9967633"><ele>134.0</ele><time>2026-05-02T07:11:52.704Z</time></trkpt><trkpt lat="42.321735" lon="13.99654"><ele>134.0</ele><time>2026-05-02T07:11:53.704Z</time></trkpt><trkpt lat="42.3216683" lon="13.99632"><ele>134.0</ele><time>2026-05-02T07:11:54.704Z</time></trkpt><trkpt lat="42.3215967" lon="13.996095"><ele>134.0</ele><time>2026-05-02T07:11:55.703Z</time></trkpt><trkpt lat="42.3215217" lon="13.9958717"><ele>134.0</ele><time>2026-05-02T07:11:56.703Z</time></trkpt><trkpt lat="42.3214433" lon="13.9956583"><ele>132.66666666666666</ele><time>2026-05-02T07:11:57.704Z</time></trkpt><trkpt lat="42.32137" lon="13.995455"><ele>131.33333333333334</ele><time>2026-05-02T07:11:58.704Z</time></trkpt><trkpt lat="42.321305" lon="13.9952617"><ele>130.0</ele><time>2026-05-02T07:11:59.704Z</time></trkpt><trkpt lat="42.3212383" lon="13.99508"><ele>130.75</ele><time>2026-05-02T07:12:00.703Z</time></trkpt><trkpt lat="42.3211783" lon="13.9948967"><ele>131.5</ele><time>2026-05-02T07:12:01.704Z</time></trkpt><trkpt lat="42.32111" lon="13.994715"><ele>132.25</ele><time>2026-05-02T07:12:02.704Z</time></trkpt><trkpt lat="42.321045" lon="13.9945417"><ele>133.0</ele><time>2026-05-02T07:12:03.703Z</time></trkpt><trkpt lat="42.3209767" lon="13.994385"><ele>133.0</ele><time>2026-05-02T07:12:04.704Z</time></trkpt><trkpt lat="42.3209167" lon="13.9942383"><ele>133.0</ele><time>2026-05-02T07:12:05.704Z</time></trkpt><trkpt lat="42.3208617" lon="13.9941017"><ele>133.0</ele><time>2026-05-02T07:12:06.703Z</time></trkpt><trkpt lat="42.32082" lon="13.9939917"><ele>133.0</ele><time>2026-05-02T07:12:07.704Z</time></trkpt><trkpt lat="42.3207817" lon="13.9939083"><ele>133.0</ele><time>2026-05-02T07:12:08.704Z</time></trkpt><trkpt lat="42.3207417" lon="13.9938383"><ele>133.20000000000002</ele><time>2026-05-02T07:12:09.703Z</time></trkpt><trkpt lat="42.3206833" lon="13.9937233"><ele>133.4</ele><time>2026-05-02T07:12:11.704Z</time></trkpt><trkpt lat="42.3206367" lon="13.9936333"><ele>133.60000000000002</ele><time>2026-05-02T07:12:14.704Z</time></trkpt><trkpt lat="42.3205533" lon="13.9936017"><ele>133.8</ele><time>2026-05-02T07:12:17.704Z</time></trkpt><trkpt lat="42.3204817" lon="13.9936817"><ele>134.0</ele><time>2026-05-02T07:12:19.704Z</time></trkpt><trkpt lat="42.3203933" lon="13.9937717"><ele>134.8</ele><time>2026-05-02T07:12:21.704Z</time></trkpt><trkpt lat="42.320275" lon="13.99387"><ele>135.60000000000002</ele><time>2026-05-02T07:12:23.704Z</time></trkpt><trkpt lat="42.320205" lon="13.993935"><ele>136.4</ele><time>2026-05-02T07:12:24.704Z</time></trkpt><trkpt lat="42.3201367" lon="13.9940133"><ele>137.20000000000002</ele><time>2026-05-02T07:12:25.704Z</time></trkpt><trkpt lat="42.3200767" lon="13.9941083"><ele>138.0</ele><time>2026-05-02T07:12:26.703Z</time></trkpt><trkpt lat="42.320015" lon="13.9942417"><ele>138.0</ele><time>2026-05-02T07:12:27.703Z</time></trkpt><trkpt lat="42.3199433" lon="13.9943683"><ele>138.0</ele><time>2026-05-02T07:12:28.704Z</time></trkpt><trkpt lat="42.3198617" lon="13.9945"><ele>138.0</ele><time>2026-05-02T07:12:29.704Z</time></trkpt><trkpt lat="42.3197783" lon="13.9946267"><ele>138.0</ele><time>2026-05-02T07:12:30.703Z</time></trkpt><trkpt lat="42.3197" lon="13.9947333"><ele>137.6</ele><time>2026-05-02T07:12:31.703Z</time></trkpt><trkpt lat="42.31963" lon="13.99485"><ele>137.20000000000002</ele><time>2026-05-02T07:12:32.703Z</time></trkpt><trkpt lat="42.3195617" lon="13.9949633"><ele>136.8</ele><time>2026-05-02T07:12:33.703Z</time></trkpt><trkpt lat="42.3195033" lon="13.9950767"><ele>136.4</ele><time>2026-05-02T07:12:34.704Z</time></trkpt><trkpt lat="42.31945" lon="13.9951867"><ele>136.0</ele><time>2026-05-02T07:12:35.704Z</time></trkpt><trkpt lat="42.3193967" lon="13.9953083"><ele>136.8</ele><time>2026-05-02T07:12:36.704Z</time></trkpt><trkpt lat="42.3193483" lon="13.9954167"><ele>137.6</ele><time>2026-05-02T07:12:37.703Z</time></trkpt><trkpt lat="42.3192983" lon="13.9955267"><ele>138.4</ele><time>2026-05-02T07:12:38.703Z</time></trkpt><trkpt lat="42.3192483" lon="13.995635"><ele>139.2</ele><time>2026-05-02T07:12:39.703Z</time></trkpt><trkpt lat="42.3191967" lon="13.9957367"><ele>140.0</ele><time>2026-05-02T07:12:40.703Z</time></trkpt><trkpt lat="42.3191517" lon="13.9958383"><ele>140.0</ele><time>2026-05-02T07:12:41.704Z</time></trkpt><trkpt lat="42.3191033" lon="13.995945"><ele>140.0</ele><time>2026-05-02T07:12:42.703Z</time></trkpt><trkpt lat="42.3190583" lon="13.9960467"><ele>140.0</ele><time>2026-05-02T07:12:43.704Z</time></trkpt><trkpt lat="42.3190117" lon="13.99615"><ele>140.0</ele><time>2026-05-02T07:12:44.704Z</time></trkpt><trkpt lat="42.318965" lon="13.9962583"><ele>140.0</ele><time>2026-05-02T07:12:45.704Z</time></trkpt><trkpt lat="42.3189167" lon="13.996365"><ele>141.6</ele><time>2026-05-02T07:12:46.703Z</time></trkpt><trkpt lat="42.3188617" lon="13.9964783"><ele>143.2</ele><time>2026-05-02T07:12:47.703Z</time></trkpt><trkpt lat="42.3188167" lon="13.99659"><ele>144.8</ele><time>2026-05-02T07:12:48.704Z</time></trkpt><trkpt lat="42.318765" lon="13.9966983"><ele>146.4</ele><time>2026-05-02T07:12:49.703Z</time></trkpt><trkpt lat="42.3187167" lon="13.9968117"><ele>148.0</ele><time>2026-05-02T07:12:50.704Z</time></trkpt><trkpt lat="42.3186767" lon="13.99693"><ele>148.0</ele><time>2026-05-02T07:12:51.703Z</time></trkpt><trkpt lat="42.3186533" lon="13.9970583"><ele>148.0</ele><time>2026-05-02T07:12:52.704Z</time></trkpt><trkpt lat="42.3186383" lon="13.9971883"><ele>148.0</ele><time>2026-05-02T07:12:53.704Z</time></trkpt><trkpt lat="42.3186183" lon="13.9973317"><ele>148.0</ele><time>2026-05-02T07:12:54.703Z</time></trkpt><trkpt lat="42.3186" lon="13.9974717"><ele>148.0</ele><time>2026-05-02T07:12:55.704Z</time></trkpt><trkpt lat="42.31858" lon="13.9976133"><ele>147.8</ele><time>2026-05-02T07:12:56.704Z</time></trkpt><trkpt lat="42.3185633" lon="13.9977617"><ele>147.60000000000002</ele><time>2026-05-02T07:12:57.703Z</time></trkpt><trkpt lat="42.318545" lon="13.9978983"><ele>147.39999999999998</ele><time>2026-05-02T07:12:58.703Z</time></trkpt><trkpt lat="42.3185217" lon="13.9980383"><ele>147.2</ele><time>2026-05-02T07:12:59.703Z</time></trkpt><trkpt lat="42.318505" lon="13.9981883"><ele>147.0</ele><time>2026-05-02T07:13:00.703Z</time></trkpt><trkpt lat="42.3184817" lon="13.9983517"><ele>146.5</ele><time>2026-05-02T07:13:01.703Z</time></trkpt><trkpt lat="42.31847" lon="13.9985067"><ele>146.0</ele><time>2026-05-02T07:13:02.704Z</time></trkpt><trkpt lat="42.318455" lon="13.9986667"><ele>145.5</ele><time>2026-05-02T07:13:03.704Z</time></trkpt><trkpt lat="42.3184383" lon="13.9988267"><ele>145.0</ele><time>2026-05-02T07:13:04.704Z</time></trkpt><trkpt lat="42.3184283" lon="13.9989917"><ele>145.0</ele><time>2026-05-02T07:13:05.703Z</time></trkpt><trkpt lat="42.3184167" lon="13.9991633"><ele>145.0</ele><time>2026-05-02T07:13:06.703Z</time></trkpt><trkpt lat="42.3184067" lon="13.9993283"><ele>145.0</ele><time>2026-05-02T07:13:07.703Z</time></trkpt><trkpt lat="42.3183967" lon="13.9994817"><ele>145.0</ele><time>2026-05-02T07:13:08.703Z</time></trkpt><trkpt lat="42.318385" lon="13.99964"><ele>143.5</ele><time>2026-05-02T07:13:09.704Z</time></trkpt><trkpt lat="42.3183783" lon="13.9997967"><ele>142.0</ele><time>2026-05-02T07:13:10.703Z</time></trkpt><trkpt lat="42.3183733" lon="13.9999433"><ele>140.5</ele><time>2026-05-02T07:13:11.703Z</time></trkpt><trkpt lat="42.3183683" lon="14.0001017"><ele>139.0</ele><time>2026-05-02T07:13:12.703Z</time></trkpt><trkpt lat="42.31836" lon="14.0002533"><ele>139.0</ele><time>2026-05-02T07:13:13.704Z</time></trkpt><trkpt lat="42.3183533" lon="14.0004067"><ele>139.0</ele><time>2026-05-02T07:13:14.703Z</time></trkpt><trkpt lat="42.3183433" lon="14.0005667"><ele>139.0</ele><time>2026-05-02T07:13:15.704Z</time></trkpt><trkpt lat="42.3183367" lon="14.0007183"><ele>139.0</ele><time>2026-05-02T07:13:16.704Z</time></trkpt><trkpt lat="42.3183333" lon="14.0008667"><ele>138.2</ele><time>2026-05-02T07:13:17.703Z</time></trkpt><trkpt lat="42.318325" lon="14.0010083"><ele>137.4</ele><time>2026-05-02T07:13:18.704Z</time></trkpt><trkpt lat="42.3183133" lon="14.0011467"><ele>136.6</ele><time>2026-05-02T07:13:19.704Z</time></trkpt><trkpt lat="42.318295" lon="14.0012817"><ele>135.8</ele><time>2026-05-02T07:13:20.704Z</time></trkpt><trkpt lat="42.3182617" lon="14.0014017"><ele>135.0</ele><time>2026-05-02T07:13:21.703Z</time></trkpt><trkpt lat="42.3182267" lon="14.0015117"><ele>135.0</ele><time>2026-05-02T07:13:22.704Z</time></trkpt><trkpt lat="42.3181983" lon="14.0016183"><ele>135.0</ele><time>2026-05-02T07:13:23.704Z</time></trkpt><trkpt lat="42.3181883" lon="14.0017267"><ele>135.0</ele><time>2026-05-02T07:13:24.704Z</time></trkpt><trkpt lat="42.3181917" lon="14.00184"><ele>135.0</ele><time>2026-05-02T07:13:25.703Z</time></trkpt><trkpt lat="42.3182183" lon="14.0019717"><ele>135.0</ele><time>2026-05-02T07:13:26.703Z</time></trkpt><trkpt lat="42.3182583" lon="14.002105"><ele>134.2</ele><time>2026-05-02T07:13:27.704Z</time></trkpt><trkpt lat="42.318295" lon="14.0022383"><ele>133.4</ele><time>2026-05-02T07:13:28.704Z</time></trkpt><trkpt lat="42.3183217" lon="14.002375"><ele>132.6</ele><time>2026-05-02T07:13:29.704Z</time></trkpt><trkpt lat="42.31834" lon="14.00252"><ele>131.8</ele><time>2026-05-02T07:13:30.703Z</time></trkpt><trkpt lat="42.3183567" lon="14.0026683"><ele>131.0</ele><time>2026-05-02T07:13:31.704Z</time></trkpt><trkpt lat="42.3183783" lon="14.0028133"><ele>129.6</ele><time>2026-05-02T07:13:32.704Z</time></trkpt><trkpt lat="42.3183883" lon="14.00296"><ele>128.2</ele><time>2026-05-02T07:13:33.704Z</time></trkpt><trkpt lat="42.3183967" lon="14.0031083"><ele>126.80000000000001</ele><time>2026-05-02T07:13:34.704Z</time></trkpt><trkpt lat="42.318405" lon="14.0032517"><ele>125.4</ele><time>2026-05-02T07:13:35.703Z</time></trkpt><trkpt lat="42.3184167" lon="14.003395"><ele>124.0</ele><time>2026-05-02T07:13:36.704Z</time></trkpt><trkpt lat="42.31842" lon="14.0035317"><ele>123.2</ele><time>2026-05-02T07:13:37.703Z</time></trkpt><trkpt lat="42.318405" lon="14.0036583"><ele>122.4</ele><time>2026-05-02T07:13:38.704Z</time></trkpt><trkpt lat="42.318385" lon="14.00378"><ele>121.6</ele><time>2026-05-02T07:13:39.703Z</time></trkpt><trkpt lat="42.3183483" lon="14.0039"><ele>120.8</ele><time>2026-05-02T07:13:40.703Z</time></trkpt><trkpt lat="42.3183067" lon="14.0040233"><ele>120.0</ele><time>2026-05-02T07:13:41.703Z</time></trkpt><trkpt lat="42.31826" lon="14.0041533"><ele>119.4</ele><time>2026-05-02T07:13:42.703Z</time></trkpt><trkpt lat="42.318215" lon="14.004285"><ele>118.8</ele><time>2026-05-02T07:13:43.704Z</time></trkpt><trkpt lat="42.318175" lon="14.00441"><ele>118.19999999999999</ele><time>2026-05-02T07:13:44.704Z</time></trkpt><trkpt lat="42.3181333" lon="14.0045417"><ele>117.6</ele><time>2026-05-02T07:13:45.703Z</time></trkpt><trkpt lat="42.318085" lon="14.00467"><ele>117.0</ele><time>2026-05-02T07:13:46.702Z</time></trkpt><trkpt lat="42.3180333" lon="14.0048083"><ele>117.0</ele><time>2026-05-02T07:13:47.702Z</time></trkpt><trkpt lat="42.3179767" lon="14.0049533"><ele>117.0</ele><time>2026-05-02T07:13:48.702Z</time></trkpt><trkpt lat="42.3179233" lon="14.0051117"><ele>117.0</ele><time>2026-05-02T07:13:49.703Z</time></trkpt><trkpt lat="42.31787" lon="14.00528"><ele>117.0</ele><time>2026-05-02T07:13:50.702Z</time></trkpt><trkpt lat="42.3178233" lon="14.0054167"><ele>117.0</ele><time>2026-05-02T07:13:51.703Z</time></trkpt><trkpt lat="42.3177867" lon="14.005545"><ele>116.99999999999999</ele><time>2026-05-02T07:13:52.703Z</time></trkpt><trkpt lat="42.317745" lon="14.0056767"><ele>116.99999999999999</ele><time>2026-05-02T07:13:53.702Z</time></trkpt><trkpt lat="42.3176933" lon="14.0058083"><ele>117.0</ele><time>2026-05-02T07:13:54.702Z</time></trkpt><trkpt lat="42.317635" lon="14.00594"><ele>117.0</ele><time>2026-05-02T07:13:55.703Z</time></trkpt><trkpt lat="42.3175783" lon="14.0060717"><ele>117.6</ele><time>2026-05-02T07:13:56.702Z</time></trkpt><trkpt lat="42.317535" lon="14.0062033"><ele>118.19999999999999</ele><time>2026-05-02T07:13:57.702Z</time></trkpt><trkpt lat="42.3174967" lon="14.00634"><ele>118.8</ele><time>2026-05-02T07:13:58.702Z</time></trkpt><trkpt lat="42.3174583" lon="14.0064767"><ele>119.4</ele><time>2026-05-02T07:13:59.702Z</time></trkpt><trkpt lat="42.3174133" lon="14.0066167"><ele>120.0</ele><time>2026-05-02T07:14:00.703Z</time></trkpt><trkpt lat="42.317365" lon="14.0067567"><ele>120.0</ele><time>2026-05-02T07:14:01.702Z</time></trkpt><trkpt lat="42.31732" lon="14.0068967"><ele>120.0</ele><time>2026-05-02T07:14:02.703Z</time></trkpt><trkpt lat="42.3172733" lon="14.00703"><ele>120.0</ele><time>2026-05-02T07:14:03.703Z</time></trkpt><trkpt lat="42.317225" lon="14.0071517"><ele>120.0</ele><time>2026-05-02T07:14:04.703Z</time></trkpt><trkpt lat="42.3171833" lon="14.007265"><ele>120.0</ele><time>2026-05-02T07:14:05.702Z</time></trkpt><trkpt lat="42.3171483" lon="14.0073867"><ele>120.0</ele><time>2026-05-02T07:14:06.702Z</time></trkpt><trkpt lat="42.3171167" lon="14.0075133"><ele>120.0</ele><time>2026-05-02T07:14:07.702Z</time></trkpt><trkpt lat="42.3170767" lon="14.0076333"><ele>120.0</ele><time>2026-05-02T07:14:08.702Z</time></trkpt><trkpt lat="42.317035" lon="14.0077617"><ele>120.0</ele><time>2026-05-02T07:14:09.702Z</time></trkpt><trkpt lat="42.3169817" lon="14.007885"><ele>120.0</ele><time>2026-05-02T07:14:10.703Z</time></trkpt><trkpt lat="42.3169117" lon="14.008"><ele>120.0</ele><time>2026-05-02T07:14:11.702Z</time></trkpt><trkpt lat="42.3168167" lon="14.0080967"><ele>120.0</ele><time>2026-05-02T07:14:12.703Z</time></trkpt><trkpt lat="42.316715" lon="14.0082"><ele>120.0</ele><time>2026-05-02T07:14:13.703Z</time></trkpt><trkpt lat="42.316615" lon="14.0082983"><ele>120.0</ele><time>2026-05-02T07:14:14.703Z</time></trkpt><trkpt lat="42.3165183" lon="14.0084"><ele>118.83333333333333</ele><time>2026-05-02T07:14:15.702Z</time></trkpt><trkpt lat="42.316435" lon="14.0084983"><ele>117.66666666666666</ele><time>2026-05-02T07:14:16.703Z</time></trkpt><trkpt lat="42.3163517" lon="14.0085833"><ele>116.5</ele><time>2026-05-02T07:14:17.702Z</time></trkpt><trkpt lat="42.3162917" lon="14.0086383"><ele>115.33333333333333</ele><time>2026-05-02T07:14:18.702Z</time></trkpt><trkpt lat="42.31625" lon="14.0087067"><ele>114.16666666666666</ele><time>2026-05-02T07:14:19.703Z</time></trkpt><trkpt lat="42.316205" lon="14.0087733"><ele>113.0</ele><time>2026-05-02T07:14:20.702Z</time></trkpt><trkpt lat="42.3161467" lon="14.0088367"><ele>112.5</ele><time>2026-05-02T07:14:21.702Z</time></trkpt><trkpt lat="42.316055" lon="14.0089033"><ele>112.0</ele><time>2026-05-02T07:14:22.702Z</time></trkpt><trkpt lat="42.3159433" lon="14.0089683"><ele>111.5</ele><time>2026-05-02T07:14:23.703Z</time></trkpt><trkpt lat="42.315815" lon="14.00905"><ele>111.0</ele><time>2026-05-02T07:14:24.703Z</time></trkpt><trkpt lat="42.3156667" lon="14.0091533"><ele>109.66666666666666</ele><time>2026-05-02T07:14:25.702Z</time></trkpt><trkpt lat="42.3155183" lon="14.00928"><ele>108.33333333333333</ele><time>2026-05-02T07:14:26.703Z</time></trkpt><trkpt lat="42.3153717" lon="14.0094033"><ele>107.0</ele><time>2026-05-02T07:14:27.703Z</time></trkpt><trkpt lat="42.3152083" lon="14.0095367"><ele>107.0</ele><time>2026-05-02T07:14:28.703Z</time></trkpt><trkpt lat="42.31505" lon="14.0096733"><ele>107.0</ele><time>2026-05-02T07:14:29.703Z</time></trkpt><trkpt lat="42.3149017" lon="14.0097933"><ele>107.0</ele><time>2026-05-02T07:14:30.702Z</time></trkpt><trkpt lat="42.3147583" lon="14.0099117"><ele>106.0</ele><time>2026-05-02T07:14:31.703Z</time></trkpt><trkpt lat="42.3146217" lon="14.010025"><ele>105.0</ele><time>2026-05-02T07:14:32.702Z</time></trkpt><trkpt lat="42.3144933" lon="14.0101367"><ele>104.0</ele><time>2026-05-02T07:14:33.703Z</time></trkpt><trkpt lat="42.314355" lon="14.01025"><ele>104.0</ele><time>2026-05-02T07:14:34.703Z</time></trkpt><trkpt lat="42.3142217" lon="14.0103633"><ele>104.0</ele><time>2026-05-02T07:14:35.703Z</time></trkpt><trkpt lat="42.3140883" lon="14.01047"><ele>104.0</ele><time>2026-05-02T07:14:36.703Z</time></trkpt><trkpt lat="42.31396" lon="14.010575"><ele>104.0</ele><time>2026-05-02T07:14:37.703Z</time></trkpt><trkpt lat="42.3138383" lon="14.0106683"><ele>104.0</ele><time>2026-05-02T07:14:38.702Z</time></trkpt><trkpt lat="42.31373" lon="14.0107583"><ele>104.0</ele><time>2026-05-02T07:14:39.703Z</time></trkpt><trkpt lat="42.313615" lon="14.0108367"><ele>104.0</ele><time>2026-05-02T07:14:40.702Z</time></trkpt><trkpt lat="42.3134917" lon="14.0109167"><ele>103.33333333333333</ele><time>2026-05-02T07:14:41.702Z</time></trkpt><trkpt lat="42.313355" lon="14.0109883"><ele>102.66666666666666</ele><time>2026-05-02T07:14:42.702Z</time></trkpt><trkpt lat="42.313205" lon="14.011045"><ele>102.0</ele><time>2026-05-02T07:14:43.702Z</time></trkpt><trkpt lat="42.3130467" lon="14.0110867"><ele>102.0</ele><time>2026-05-02T07:14:44.703Z</time></trkpt><trkpt lat="42.3128933" lon="14.0111083"><ele>102.0</ele><time>2026-05-02T07:14:45.703Z</time></trkpt><trkpt lat="42.3127317" lon="14.0111333"><ele>102.0</ele><time>2026-05-02T07:14:46.703Z</time></trkpt><trkpt lat="42.312565" lon="14.0111567"><ele>102.0</ele><time>2026-05-02T07:14:47.703Z</time></trkpt><trkpt lat="42.3124017" lon="14.0111733"><ele>102.0</ele><time>2026-05-02T07:14:48.703Z</time></trkpt><trkpt lat="42.3122417" lon="14.0111733"><ele>102.0</ele><time>2026-05-02T07:14:49.703Z</time></trkpt><trkpt lat="42.3120767" lon="14.01117"><ele>102.33333333333334</ele><time>2026-05-02T07:14:50.703Z</time></trkpt><trkpt lat="42.3119067" lon="14.011145"><ele>102.66666666666667</ele><time>2026-05-02T07:14:51.702Z</time></trkpt><trkpt lat="42.311725" lon="14.0111133"><ele>103.0</ele><time>2026-05-02T07:14:52.703Z</time></trkpt><trkpt lat="42.31155" lon="14.0110783"><ele>102.33333333333334</ele><time>2026-05-02T07:14:53.703Z</time></trkpt><trkpt lat="42.3113733" lon="14.01105"><ele>101.66666666666666</ele><time>2026-05-02T07:14:54.702Z</time></trkpt><trkpt lat="42.3111933" lon="14.01102"><ele>101.0</ele><time>2026-05-02T07:14:55.703Z</time></trkpt><trkpt lat="42.3110133" lon="14.010985"><ele>101.0</ele><time>2026-05-02T07:14:56.702Z</time></trkpt><trkpt lat="42.3108333" lon="14.0109433"><ele>101.0</ele><time>2026-05-02T07:14:57.703Z</time></trkpt><trkpt lat="42.3106517" lon="14.0109083"><ele>101.0</ele><time>2026-05-02T07:14:58.703Z</time></trkpt><trkpt lat="42.3104783" lon="14.01087"><ele>101.0</ele><time>2026-05-02T07:14:59.703Z</time></trkpt><trkpt lat="42.3103017" lon="14.0108367"><ele>101.0</ele><time>2026-05-02T07:15:00.703Z</time></trkpt><trkpt lat="42.310125" lon="14.0107967"><ele>101.0</ele><time>2026-05-02T07:15:01.703Z</time></trkpt><trkpt lat="42.30995" lon="14.0107583"><ele>101.33333333333333</ele><time>2026-05-02T07:15:02.703Z</time></trkpt><trkpt lat="42.3097733" lon="14.010735"><ele>101.66666666666666</ele><time>2026-05-02T07:15:03.702Z</time></trkpt><trkpt lat="42.3096" lon="14.010705"><ele>102.0</ele><time>2026-05-02T07:15:04.702Z</time></trkpt><trkpt lat="42.3094217" lon="14.0106717"><ele>102.33333333333334</ele><time>2026-05-02T07:15:05.702Z</time></trkpt><trkpt lat="42.309245" lon="14.01064"><ele>102.66666666666667</ele><time>2026-05-02T07:15:06.703Z</time></trkpt><trkpt lat="42.3090767" lon="14.0106017"><ele>103.0</ele><time>2026-05-02T07:15:07.702Z</time></trkpt><trkpt lat="42.3089117" lon="14.01056"><ele>105.33333333333334</ele><time>2026-05-02T07:15:08.703Z</time></trkpt><trkpt lat="42.3087533" lon="14.010525"><ele>107.66666666666666</ele><time>2026-05-02T07:15:09.702Z</time></trkpt><trkpt lat="42.3086017" lon="14.0105033"><ele>110.0</ele><time>2026-05-02T07:15:10.702Z</time></trkpt><trkpt lat="42.3084583" lon="14.010495"><ele>110.0</ele><time>2026-05-02T07:15:11.702Z</time></trkpt><trkpt lat="42.3083317" lon="14.0105183"><ele>110.0</ele><time>2026-05-02T07:15:12.702Z</time></trkpt><trkpt lat="42.308215" lon="14.0105783"><ele>110.0</ele><time>2026-05-02T07:15:13.703Z</time></trkpt><trkpt lat="42.3081133" lon="14.0106767"><ele>110.0</ele><time>2026-05-02T07:15:14.703Z</time></trkpt><trkpt lat="42.3080133" lon="14.01078"><ele>110.8</ele><time>2026-05-02T07:15:15.703Z</time></trkpt><trkpt lat="42.307915" lon="14.0108633"><ele>111.6</ele><time>2026-05-02T07:15:16.703Z</time></trkpt><trkpt lat="42.3078117" lon="14.010925"><ele>112.4</ele><time>2026-05-02T07:15:17.702Z</time></trkpt><trkpt lat="42.3077083" lon="14.0109517"><ele>113.2</ele><time>2026-05-02T07:15:18.703Z</time></trkpt><trkpt lat="42.3075933" lon="14.0109417"><ele>114.0</ele><time>2026-05-02T07:15:19.703Z</time></trkpt><trkpt lat="42.30746" lon="14.0109"><ele>114.0</ele><time>2026-05-02T07:15:20.703Z</time></trkpt><trkpt lat="42.3073283" lon="14.0108267"><ele>114.0</ele><time>2026-05-02T07:15:21.702Z</time></trkpt><trkpt lat="42.30721" lon="14.01077"><ele>114.0</ele><time>2026-05-02T07:15:22.703Z</time></trkpt><trkpt lat="42.307105" lon="14.010715"><ele>114.0</ele><time>2026-05-02T07:15:23.703Z</time></trkpt><trkpt lat="42.3070133" lon="14.0106167"><ele>116.75</ele><time>2026-05-02T07:15:24.703Z</time></trkpt><trkpt lat="42.3069367" lon="14.010505"><ele>119.5</ele><time>2026-05-02T07:15:25.703Z</time></trkpt><trkpt lat="42.3068767" lon="14.0103783"><ele>122.25</ele><time>2026-05-02T07:15:26.702Z</time></trkpt><trkpt lat="42.3068317" lon="14.0102267"><ele>125.0</ele><time>2026-05-02T07:15:27.703Z</time></trkpt><trkpt lat="42.30678" lon="14.01006"><ele>126.0</ele><time>2026-05-02T07:15:28.702Z</time></trkpt><trkpt lat="42.30673" lon="14.0098767"><ele>127.0</ele><time>2026-05-02T07:15:29.703Z</time></trkpt><trkpt lat="42.306675" lon="14.00968"><ele>128.0</ele><time>2026-05-02T07:15:30.703Z</time></trkpt><trkpt lat="42.3066217" lon="14.0094867"><ele>128.0</ele><time>2026-05-02T07:15:31.702Z</time></trkpt><trkpt lat="42.3065717" lon="14.0093033"><ele>128.0</ele><time>2026-05-02T07:15:32.703Z</time></trkpt><trkpt lat="42.3065217" lon="14.0091183"><ele>128.0</ele><time>2026-05-02T07:15:33.702Z</time></trkpt><trkpt lat="42.3064733" lon="14.0089517"><ele>128.0</ele><time>2026-05-02T07:15:34.702Z</time></trkpt><trkpt lat="42.306425" lon="14.00879"><ele>132.0</ele><time>2026-05-02T07:15:35.703Z</time></trkpt><trkpt lat="42.306375" lon="14.00863"><ele>136.0</ele><time>2026-05-02T07:15:36.703Z</time></trkpt><trkpt lat="42.3063333" lon="14.0084567"><ele>140.0</ele><time>2026-05-02T07:15:37.702Z</time></trkpt><trkpt lat="42.3062933" lon="14.0082833"><ele>144.0</ele><time>2026-05-02T07:15:38.702Z</time></trkpt><trkpt lat="42.3062567" lon="14.0081167"><ele>144.5</ele><time>2026-05-02T07:15:39.702Z</time></trkpt><trkpt lat="42.3062183" lon="14.007955"><ele>145.0</ele><time>2026-05-02T07:15:40.703Z</time></trkpt><trkpt lat="42.3061767" lon="14.0077867"><ele>145.5</ele><time>2026-05-02T07:15:41.703Z</time></trkpt><trkpt lat="42.3061233" lon="14.0076067"><ele>146.0</ele><time>2026-05-02T07:15:42.702Z</time></trkpt><trkpt lat="42.306075" lon="14.007425"><ele>147.0</ele><time>2026-05-02T07:15:43.703Z</time></trkpt><trkpt lat="42.3060233" lon="14.0072383"><ele>148.0</ele><time>2026-05-02T07:15:44.702Z</time></trkpt><trkpt lat="42.3059583" lon="14.0070317"><ele>149.0</ele><time>2026-05-02T07:15:45.703Z</time></trkpt><trkpt lat="42.305875" lon="14.0068317"><ele>149.0</ele><time>2026-05-02T07:15:46.702Z</time></trkpt><trkpt lat="42.3057967" lon="14.0066617"><ele>149.0</ele><time>2026-05-02T07:15:47.703Z</time></trkpt><trkpt lat="42.3057267" lon="14.0065083"><ele>149.0</ele><time>2026-05-02T07:15:48.703Z</time></trkpt><trkpt lat="42.3056517" lon="14.0063483"><ele>149.0</ele><time>2026-05-02T07:15:49.702Z</time></trkpt><trkpt lat="42.3055617" lon="14.0061983"><ele>152.5</ele><time>2026-05-02T07:15:50.703Z</time></trkpt><trkpt lat="42.30547" lon="14.0060533"><ele>156.0</ele><time>2026-05-02T07:15:51.702Z</time></trkpt><trkpt lat="42.30538" lon="14.0059017"><ele>159.5</ele><time>2026-05-02T07:15:52.702Z</time></trkpt><trkpt lat="42.3052833" lon="14.0057417"><ele>163.0</ele><time>2026-05-02T07:15:53.702Z</time></trkpt><trkpt lat="42.3051967" lon="14.00558"><ele>163.0</ele><time>2026-05-02T07:15:54.703Z</time></trkpt><trkpt lat="42.3051133" lon="14.005415"><ele>163.0</ele><time>2026-05-02T07:15:55.702Z</time></trkpt><trkpt lat="42.3050383" lon="14.0052433"><ele>163.0</ele><time>2026-05-02T07:15:56.703Z</time></trkpt><trkpt lat="42.3049633" lon="14.0050633"><ele>163.0</ele><time>2026-05-02T07:15:57.702Z</time></trkpt><trkpt lat="42.3048867" lon="14.0048783"><ele>162.75</ele><time>2026-05-02T07:15:58.703Z</time></trkpt><trkpt lat="42.30482" lon="14.004705"><ele>162.5</ele><time>2026-05-02T07:15:59.702Z</time></trkpt><trkpt lat="42.3047483" lon="14.00455"><ele>162.25</ele><time>2026-05-02T07:16:00.703Z</time></trkpt><trkpt lat="42.304685" lon="14.004405"><ele>162.0</ele><time>2026-05-02T07:16:01.703Z</time></trkpt><trkpt lat="42.304625" lon="14.00427"><ele>164.0</ele><time>2026-05-02T07:16:02.702Z</time></trkpt><trkpt lat="42.3045567" lon="14.004135"><ele>166.0</ele><time>2026-05-02T07:16:03.702Z</time></trkpt><trkpt lat="42.3044817" lon="14.004015"><ele>168.0</ele><time>2026-05-02T07:16:04.703Z</time></trkpt><trkpt lat="42.3043983" lon="14.0039183"><ele>170.0</ele><time>2026-05-02T07:16:05.703Z</time></trkpt><trkpt lat="42.3043" lon="14.003865"><ele>170.0</ele><time>2026-05-02T07:16:06.703Z</time></trkpt><trkpt lat="42.304175" lon="14.0038183"><ele>170.0</ele><time>2026-05-02T07:16:07.703Z</time></trkpt><trkpt lat="42.304045" lon="14.0037717"><ele>170.0</ele><time>2026-05-02T07:16:08.703Z</time></trkpt><trkpt lat="42.3039017" lon="14.003715"><ele>170.0</ele><time>2026-05-02T07:16:09.703Z</time></trkpt><trkpt lat="42.3037617" lon="14.0036417"><ele>168.66666666666666</ele><time>2026-05-02T07:16:10.703Z</time></trkpt><trkpt lat="42.3036217" lon="14.0035483"><ele>167.33333333333334</ele><time>2026-05-02T07:16:11.703Z</time></trkpt><trkpt lat="42.303485" lon="14.003445"><ele>166.0</ele><time>2026-05-02T07:16:12.703Z</time></trkpt><trkpt lat="42.3033433" lon="14.0033483"><ele>167.0</ele><time>2026-05-02T07:16:13.703Z</time></trkpt><trkpt lat="42.3031933" lon="14.00326"><ele>168.0</ele><time>2026-05-02T07:16:14.702Z</time></trkpt><trkpt lat="42.3030467" lon="14.0031883"><ele>169.0</ele><time>2026-05-02T07:16:15.703Z</time></trkpt><trkpt lat="42.3029017" lon="14.003135"><ele>169.0</ele><time>2026-05-02T07:16:16.702Z</time></trkpt><trkpt lat="42.30276" lon="14.0031067"><ele>169.0</ele><time>2026-05-02T07:16:17.703Z</time></trkpt><trkpt lat="42.30261" lon="14.00309"><ele>169.0</ele><time>2026-05-02T07:16:18.703Z</time></trkpt><trkpt lat="42.3024583" lon="14.00308"><ele>169.0</ele><time>2026-05-02T07:16:19.702Z</time></trkpt><trkpt lat="42.302315" lon="14.0030667"><ele>166.5</ele><time>2026-05-02T07:16:20.703Z</time></trkpt><trkpt lat="42.30217" lon="14.0030633"><ele>164.0</ele><time>2026-05-02T07:16:21.702Z</time></trkpt><trkpt lat="42.3020267" lon="14.00305"><ele>161.5</ele><time>2026-05-02T07:16:22.702Z</time></trkpt><trkpt lat="42.3018933" lon="14.0030183"><ele>159.0</ele><time>2026-05-02T07:16:23.703Z</time></trkpt><trkpt lat="42.3017717" lon="14.002955"><ele>159.0</ele><time>2026-05-02T07:16:24.702Z</time></trkpt><trkpt lat="42.3016667" lon="14.0028733"><ele>159.0</ele><time>2026-05-02T07:16:25.703Z</time></trkpt><trkpt lat="42.301585" lon="14.0028033"><ele>159.0</ele><time>2026-05-02T07:16:26.703Z</time></trkpt><trkpt lat="42.3015333" lon="14.0027367"><ele>159.0</ele><time>2026-05-02T07:16:27.703Z</time></trkpt><trkpt lat="42.30149" lon="14.00266"><ele>159.0</ele><time>2026-05-02T07:16:28.703Z</time></trkpt><trkpt lat="42.3014567" lon="14.0025817"><ele>159.0</ele><time>2026-05-02T07:16:29.703Z</time></trkpt><trkpt lat="42.30143" lon="14.0024983"><ele>158.33333333333334</ele><time>2026-05-02T07:16:30.703Z</time></trkpt><trkpt lat="42.3014033" lon="14.0024017"><ele>157.66666666666666</ele><time>2026-05-02T07:16:31.703Z</time></trkpt><trkpt lat="42.301385" lon="14.0022983"><ele>157.0</ele><time>2026-05-02T07:16:32.703Z</time></trkpt><trkpt lat="42.30137" lon="14.0021833"><ele>156.33333333333331</ele><time>2026-05-02T07:16:33.702Z</time></trkpt><trkpt lat="42.3013533" lon="14.00205"><ele>155.66666666666666</ele><time>2026-05-02T07:16:34.702Z</time></trkpt><trkpt lat="42.3013267" lon="14.0019217"><ele>155.0</ele><time>2026-05-02T07:16:35.703Z</time></trkpt><trkpt lat="42.3012883" lon="14.0017983"><ele>156.5</ele><time>2026-05-02T07:16:36.703Z</time></trkpt><trkpt lat="42.3012483" lon="14.001665"><ele>158.0</ele><time>2026-05-02T07:16:37.703Z</time></trkpt><trkpt lat="42.3012" lon="14.0015217"><ele>159.5</ele><time>2026-05-02T07:16:38.702Z</time></trkpt><trkpt lat="42.30115" lon="14.001375"><ele>161.0</ele><time>2026-05-02T07:16:39.702Z</time></trkpt><trkpt lat="42.3011" lon="14.0012233"><ele>161.0</ele><time>2026-05-02T07:16:40.703Z</time></trkpt><trkpt lat="42.301035" lon="14.0010717"><ele>161.0</ele><time>2026-05-02T07:16:41.703Z</time></trkpt><trkpt lat="42.3009683" lon="14.000925"><ele>161.0</ele><time>2026-05-02T07:16:42.702Z</time></trkpt><trkpt lat="42.3009117" lon="14.0007917"><ele>161.0</ele><time>2026-05-02T07:16:43.702Z</time></trkpt><trkpt lat="42.30085" lon="14.0006533"><ele>160.25</ele><time>2026-05-02T07:16:44.702Z</time></trkpt><trkpt lat="42.30077" lon="14.0005267"><ele>159.5</ele><time>2026-05-02T07:16:45.702Z</time></trkpt><trkpt lat="42.3006767" lon="14.0004117"><ele>158.75</ele><time>2026-05-02T07:16:46.703Z</time></trkpt><trkpt lat="42.3005883" lon="14.0002983"><ele>158.0</ele><time>2026-05-02T07:16:47.702Z</time></trkpt><trkpt lat="42.3005" lon="14.000185"><ele>158.0</ele><time>2026-05-02T07:16:48.702Z</time></trkpt><trkpt lat="42.3004033" lon="14.00006"><ele>158.0</ele><time>2026-05-02T07:16:49.703Z</time></trkpt><trkpt lat="42.3003183" lon="13.99993"><ele>158.0</ele><time>2026-05-02T07:16:50.702Z</time></trkpt><trkpt lat="42.3002433" lon="13.9997917"><ele>158.0</ele><time>2026-05-02T07:16:51.702Z</time></trkpt><trkpt lat="42.3001733" lon="13.999645"><ele>158.0</ele><time>2026-05-02T07:16:52.702Z</time></trkpt><trkpt lat="42.3001133" lon="13.9994983"><ele>158.0</ele><time>2026-05-02T07:16:53.702Z</time></trkpt><trkpt lat="42.3000517" lon="13.9993567"><ele>158.0</ele><time>2026-05-02T07:16:54.702Z</time></trkpt><trkpt lat="42.2999917" lon="13.9992317"><ele>158.0</ele><time>2026-05-02T07:16:55.702Z</time></trkpt><trkpt lat="42.2999333" lon="13.9991067"><ele>158.5</ele><time>2026-05-02T07:16:56.702Z</time></trkpt><trkpt lat="42.2998667" lon="13.9989817"><ele>159.0</ele><time>2026-05-02T07:16:57.702Z</time></trkpt><trkpt lat="42.2998" lon="13.9988517"><ele>159.5</ele><time>2026-05-02T07:16:58.702Z</time></trkpt><trkpt lat="42.299735" lon="13.9987183"><ele>160.0</ele><time>2026-05-02T07:16:59.703Z</time></trkpt><trkpt lat="42.2996667" lon="13.99859"><ele>160.0</ele><time>2026-05-02T07:17:00.702Z</time></trkpt><trkpt lat="42.299595" lon="13.9984533"><ele>160.0</ele><time>2026-05-02T07:17:01.702Z</time></trkpt><trkpt lat="42.29952" lon="13.9983117"><ele>160.0</ele><time>2026-05-02T07:17:02.703Z</time></trkpt><trkpt lat="42.2994417" lon="13.9981717"><ele>160.0</ele><time>2026-05-02T07:17:03.702Z</time></trkpt><trkpt lat="42.2993617" lon="13.9980333"><ele>159.5</ele><time>2026-05-02T07:17:04.703Z</time></trkpt><trkpt lat="42.2992867" lon="13.9978933"><ele>159.0</ele><time>2026-05-02T07:17:05.702Z</time></trkpt><trkpt lat="42.2992283" lon="13.9977417"><ele>158.5</ele><time>2026-05-02T07:17:06.702Z</time></trkpt><trkpt lat="42.2991967" lon="13.9975717"><ele>158.0</ele><time>2026-05-02T07:17:07.703Z</time></trkpt><trkpt lat="42.2991817" lon="13.9973933"><ele>158.0</ele><time>2026-05-02T07:17:08.703Z</time></trkpt><trkpt lat="42.2991767" lon="13.9972217"><ele>158.0</ele><time>2026-05-02T07:17:09.703Z</time></trkpt><trkpt lat="42.299175" lon="13.9970517"><ele>158.0</ele><time>2026-05-02T07:17:10.703Z</time></trkpt><trkpt lat="42.2991717" lon="13.9968833"><ele>158.0</ele><time>2026-05-02T07:17:11.702Z</time></trkpt><trkpt lat="42.2991483" lon="13.9967233"><ele>157.5</ele><time>2026-05-02T07:17:12.703Z</time></trkpt><trkpt lat="42.299105" lon="13.9965783"><ele>157.0</ele><time>2026-05-02T07:17:13.703Z</time></trkpt><trkpt lat="42.2990333" lon="13.9964433"><ele>156.5</ele><time>2026-05-02T07:17:14.703Z</time></trkpt><trkpt lat="42.2989417" lon="13.9963167"><ele>156.0</ele><time>2026-05-02T07:17:15.703Z</time></trkpt><trkpt lat="42.2988367" lon="13.9962067"><ele>154.8</ele><time>2026-05-02T07:17:16.702Z</time></trkpt><trkpt lat="42.2987533" lon="13.9961033"><ele>153.6</ele><time>2026-05-02T07:17:17.702Z</time></trkpt><trkpt lat="42.2986983" lon="13.9960083"><ele>152.4</ele><time>2026-05-02T07:17:18.702Z</time></trkpt><trkpt lat="42.298645" lon="13.9959083"><ele>151.2</ele><time>2026-05-02T07:17:19.703Z</time></trkpt><trkpt lat="42.2986" lon="13.9957967"><ele>150.0</ele><time>2026-05-02T07:17:20.703Z</time></trkpt><trkpt lat="42.2985567" lon="13.9956833"><ele>150.0</ele><time>2026-05-02T07:17:21.703Z</time></trkpt><trkpt lat="42.29851" lon="13.995565"><ele>150.0</ele><time>2026-05-02T07:17:22.703Z</time></trkpt><trkpt lat="42.29844" lon="13.99543"><ele>150.0</ele><time>2026-05-02T07:17:23.702Z</time></trkpt><trkpt lat="42.2983633" lon="13.995285"><ele>150.0</ele><time>2026-05-02T07:17:24.702Z</time></trkpt><trkpt lat="42.2982883" lon="13.9951417"><ele>151.25</ele><time>2026-05-02T07:17:25.703Z</time></trkpt><trkpt lat="42.2982217" lon="13.9950017"><ele>152.5</ele><time>2026-05-02T07:17:26.703Z</time></trkpt><trkpt lat="42.2981483" lon="13.994865"><ele>153.75</ele><time>2026-05-02T07:17:27.703Z</time></trkpt><trkpt lat="42.2980667" lon="13.9947383"><ele>155.0</ele><time>2026-05-02T07:17:28.703Z</time></trkpt><trkpt lat="42.297985" lon="13.9946117"><ele>151.5</ele><time>2026-05-02T07:17:29.703Z</time></trkpt><trkpt lat="42.29791" lon="13.994475"><ele>148.0</ele><time>2026-05-02T07:17:30.702Z</time></trkpt><trkpt lat="42.2978417" lon="13.9943267"><ele>144.5</ele><time>2026-05-02T07:17:31.702Z</time></trkpt><trkpt lat="42.2977783" lon="13.994165"><ele>141.0</ele><time>2026-05-02T07:17:32.703Z</time></trkpt><trkpt lat="42.2977217" lon="13.9940033"><ele>141.0</ele><time>2026-05-02T07:17:33.702Z</time></trkpt><trkpt lat="42.29766" lon="13.9938583"><ele>141.0</ele><time>2026-05-02T07:17:34.703Z</time></trkpt><trkpt lat="42.29759" lon="13.9937167"><ele>141.0</ele><time>2026-05-02T07:17:35.702Z</time></trkpt><trkpt lat="42.29752" lon="13.993575"><ele>141.0</ele><time>2026-05-02T07:17:36.702Z</time></trkpt><trkpt lat="42.2974483" lon="13.9934333"><ele>142.75</ele><time>2026-05-02T07:17:37.703Z</time></trkpt><trkpt lat="42.2973783" lon="13.99329"><ele>144.5</ele><time>2026-05-02T07:17:38.703Z</time></trkpt><trkpt lat="42.297305" lon="13.9931483"><ele>146.25</ele><time>2026-05-02T07:17:39.703Z</time></trkpt><trkpt lat="42.2972317" lon="13.9929967"><ele>148.0</ele><time>2026-05-02T07:17:40.703Z</time></trkpt><trkpt lat="42.2971567" lon="13.9928467"><ele>145.25</ele><time>2026-05-02T07:17:41.703Z</time></trkpt><trkpt lat="42.2970867" lon="13.9926983"><ele>142.5</ele><time>2026-05-02T07:17:42.703Z</time></trkpt><trkpt lat="42.297015" lon="13.99255"><ele>139.75</ele><time>2026-05-02T07:17:43.702Z</time></trkpt><trkpt lat="42.296945" lon="13.9924067"><ele>137.0</ele><time>2026-05-02T07:17:44.703Z</time></trkpt><trkpt lat="42.2968883" lon="13.9922433"><ele>137.0</ele><time>2026-05-02T07:17:45.702Z</time></trkpt><trkpt lat="42.296835" lon="13.9920667"><ele>137.0</ele><time>2026-05-02T07:17:46.703Z</time></trkpt><trkpt lat="42.2967817" lon="13.9918867"><ele>137.0</ele><time>2026-05-02T07:17:47.702Z</time></trkpt><trkpt lat="42.2967383" lon="13.9917083"><ele>137.0</ele><time>2026-05-02T07:17:48.703Z</time></trkpt><trkpt lat="42.296705" lon="13.9915333"><ele>137.5</ele><time>2026-05-02T07:17:49.703Z</time></trkpt><trkpt lat="42.29668" lon="13.9913633"><ele>138.0</ele><time>2026-05-02T07:17:50.702Z</time></trkpt><trkpt lat="42.296665" lon="13.9912"><ele>138.5</ele><time>2026-05-02T07:17:51.702Z</time></trkpt><trkpt lat="42.296655" lon="13.9910317"><ele>139.0</ele><time>2026-05-02T07:17:52.703Z</time></trkpt><trkpt lat="42.2966483" lon="13.9908667"><ele>138.75</ele><time>2026-05-02T07:17:53.702Z</time></trkpt><trkpt lat="42.2966483" lon="13.9907083"><ele>138.5</ele><time>2026-05-02T07:17:54.702Z</time></trkpt><trkpt lat="42.2966333" lon="13.9905567"><ele>138.25</ele><time>2026-05-02T07:17:55.702Z</time></trkpt><trkpt lat="42.2966067" lon="13.9904067"><ele>138.0</ele><time>2026-05-02T07:17:56.703Z</time></trkpt><trkpt lat="42.2965617" lon="13.9902683"><ele>138.0</ele><time>2026-05-02T07:17:57.703Z</time></trkpt><trkpt lat="42.2964983" lon="13.9901433"><ele>138.0</ele><time>2026-05-02T07:17:58.703Z</time></trkpt><trkpt lat="42.2964233" lon="13.9900367"><ele>138.0</ele><time>2026-05-02T07:17:59.703Z</time></trkpt><trkpt lat="42.2963383" lon="13.9899533"><ele>138.0</ele><time>2026-05-02T07:18:00.702Z</time></trkpt><trkpt lat="42.2962433" lon="13.9899083"><ele>138.0</ele><time>2026-05-02T07:18:01.702Z</time></trkpt><trkpt lat="42.2961467" lon="13.9898783"><ele>136.0</ele><time>2026-05-02T07:18:02.703Z</time></trkpt><trkpt lat="42.29605" lon="13.9898417"><ele>134.0</ele><time>2026-05-02T07:18:03.702Z</time></trkpt><trkpt lat="42.2959567" lon="13.9897967"><ele>132.0</ele><time>2026-05-02T07:18:04.703Z</time></trkpt><trkpt lat="42.29586" lon="13.9897433"><ele>130.0</ele><time>2026-05-02T07:18:05.702Z</time></trkpt><trkpt lat="42.2957633" lon="13.9896667"><ele>128.0</ele><time>2026-05-02T07:18:06.703Z</time></trkpt><trkpt lat="42.2956617" lon="13.9895833"><ele>127.66666666666666</ele><time>2026-05-02T07:18:07.703Z</time></trkpt><trkpt lat="42.2955617" lon="13.9895017"><ele>127.33333333333333</ele><time>2026-05-02T07:18:08.703Z</time></trkpt><trkpt lat="42.2954767" lon="13.9894317"><ele>127.0</ele><time>2026-05-02T07:18:09.703Z</time></trkpt><trkpt lat="42.2954083" lon="13.989395"><ele>126.66666666666666</ele><time>2026-05-02T07:18:10.702Z</time></trkpt><trkpt lat="42.2953383" lon="13.989355"><ele>126.33333333333333</ele><time>2026-05-02T07:18:12.702Z</time></trkpt><trkpt lat="42.2952783" lon="13.989315"><ele>126.0</ele><time>2026-05-02T07:18:14.701Z</time></trkpt><trkpt lat="42.29519" lon="13.9893017"><ele>126.0</ele><time>2026-05-02T07:18:17.701Z</time></trkpt><trkpt lat="42.29509" lon="13.989345"><ele>126.0</ele><time>2026-05-02T07:18:19.701Z</time></trkpt><trkpt lat="42.2950267" lon="13.9893517"><ele>126.0</ele><time>2026-05-02T07:18:20.701Z</time></trkpt><trkpt lat="42.2949567" lon="13.989275"><ele>126.0</ele><time>2026-05-02T07:18:22.701Z</time></trkpt><trkpt lat="42.2949483" lon="13.9891883"><ele>126.0</ele><time>2026-05-02T07:18:23.701Z</time></trkpt><trkpt lat="42.2949433" lon="13.9890733"><ele>126.0</ele><time>2026-05-02T07:18:24.701Z</time></trkpt><trkpt lat="42.294925" lon="13.9889333"><ele>127.0</ele><time>2026-05-02T07:18:25.701Z</time></trkpt><trkpt lat="42.2948867" lon="13.9887717"><ele>128.0</ele><time>2026-05-02T07:18:26.701Z</time></trkpt><trkpt lat="42.2948383" lon="13.988585"><ele>129.0</ele><time>2026-05-02T07:18:27.702Z</time></trkpt><trkpt lat="42.2947933" lon="13.9883983"><ele>130.0</ele><time>2026-05-02T07:18:28.702Z</time></trkpt><trkpt lat="42.2947417" lon="13.9882067"><ele>131.0</ele><time>2026-05-02T07:18:29.702Z</time></trkpt><trkpt lat="42.294695" lon="13.988005"><ele>132.0</ele><time>2026-05-02T07:18:30.702Z</time></trkpt><trkpt lat="42.294645" lon="13.9878067"><ele>133.0</ele><time>2026-05-02T07:18:31.702Z</time></trkpt><trkpt lat="42.294585" lon="13.9876033"><ele>133.5</ele><time>2026-05-02T07:18:32.702Z</time></trkpt><trkpt lat="42.294525" lon="13.9874217"><ele>134.0</ele><time>2026-05-02T07:18:33.701Z</time></trkpt><trkpt lat="42.2944733" lon="13.9872517"><ele>134.5</ele><time>2026-05-02T07:18:34.702Z</time></trkpt><trkpt lat="42.2944283" lon="13.9871083"><ele>135.0</ele><time>2026-05-02T07:18:35.702Z</time></trkpt><trkpt lat="42.2944" lon="13.9870017"><ele>135.0</ele><time>2026-05-02T07:18:36.702Z</time></trkpt><trkpt lat="42.2943817" lon="13.986915"><ele>135.0</ele><time>2026-05-02T07:18:37.702Z</time></trkpt><trkpt lat="42.2943967" lon="13.986765"><ele>135.0</ele><time>2026-05-02T07:18:39.701Z</time></trkpt><trkpt lat="42.2943967" lon="13.986665"><ele>135.0</ele><time>2026-05-02T07:18:41.701Z</time></trkpt><trkpt lat="42.2943467" lon="13.9865367"><ele>135.0</ele><time>2026-05-02T07:18:43.701Z</time></trkpt><trkpt lat="42.2943133" lon="13.9864633"><ele>135.0</ele><time>2026-05-02T07:18:44.701Z</time></trkpt><trkpt lat="42.2942783" lon="13.986375"><ele>135.6</ele><time>2026-05-02T07:18:45.702Z</time></trkpt><trkpt lat="42.2942467" lon="13.98627"><ele>136.2</ele><time>2026-05-02T07:18:46.701Z</time></trkpt><trkpt lat="42.2942133" lon="13.9861483"><ele>136.8</ele><time>2026-05-02T07:18:47.702Z</time></trkpt><trkpt lat="42.2941767" lon="13.986005"><ele>137.4</ele><time>2026-05-02T07:18:48.702Z</time></trkpt><trkpt lat="42.2941383" lon="13.98585"><ele>138.0</ele><time>2026-05-02T07:18:49.701Z</time></trkpt><trkpt lat="42.2941" lon="13.9857083"><ele>138.6</ele><time>2026-05-02T07:18:50.702Z</time></trkpt><trkpt lat="42.2940633" lon="13.9855817"><ele>139.20000000000002</ele><time>2026-05-02T07:18:51.701Z</time></trkpt><trkpt lat="42.29403" lon="13.98547"><ele>139.8</ele><time>2026-05-02T07:18:52.702Z</time></trkpt><trkpt lat="42.294" lon="13.9853567"><ele>140.4</ele><time>2026-05-02T07:18:53.701Z</time></trkpt><trkpt lat="42.2939717" lon="13.9852433"><ele>141.0</ele><time>2026-05-02T07:18:54.702Z</time></trkpt><trkpt lat="42.293935" lon="13.9851167"><ele>142.4</ele><time>2026-05-02T07:18:55.702Z</time></trkpt><trkpt lat="42.2939017" lon="13.9849883"><ele>143.8</ele><time>2026-05-02T07:18:56.701Z</time></trkpt><trkpt lat="42.2938683" lon="13.9848667"><ele>145.20000000000002</ele><time>2026-05-02T07:18:57.702Z</time></trkpt><trkpt lat="42.2938217" lon="13.98477"><ele>146.6</ele><time>2026-05-02T07:18:58.701Z</time></trkpt><trkpt lat="42.2937717" lon="13.9846683"><ele>148.0</ele><time>2026-05-02T07:18:59.701Z</time></trkpt><trkpt lat="42.2937133" lon="13.9845567"><ele>148.0</ele><time>2026-05-02T07:19:00.701Z</time></trkpt><trkpt lat="42.2936533" lon="13.9844567"><ele>148.0</ele><time>2026-05-02T07:19:01.702Z</time></trkpt><trkpt lat="42.2935867" lon="13.9843567"><ele>148.0</ele><time>2026-05-02T07:19:02.701Z</time></trkpt><trkpt lat="42.2935233" lon="13.9842517"><ele>148.0</ele><time>2026-05-02T07:19:03.702Z</time></trkpt><trkpt lat="42.2934617" lon="13.9841533"><ele>148.0</ele><time>2026-05-02T07:19:04.701Z</time></trkpt><trkpt lat="42.2933967" lon="13.9840617"><ele>148.4</ele><time>2026-05-02T07:19:05.701Z</time></trkpt><trkpt lat="42.2933233" lon="13.9839783"><ele>148.8</ele><time>2026-05-02T07:19:06.702Z</time></trkpt><trkpt lat="42.293245" lon="13.98391"><ele>149.2</ele><time>2026-05-02T07:19:07.701Z</time></trkpt><trkpt lat="42.2931683" lon="13.9838467"><ele>149.6</ele><time>2026-05-02T07:19:08.701Z</time></trkpt><trkpt lat="42.293085" lon="13.9837767"><ele>150.0</ele><time>2026-05-02T07:19:09.701Z</time></trkpt><trkpt lat="42.2930083" lon="13.9836933"><ele>152.5</ele><time>2026-05-02T07:19:10.701Z</time></trkpt><trkpt lat="42.2929383" lon="13.983585"><ele>155.0</ele><time>2026-05-02T07:19:11.702Z</time></trkpt><trkpt lat="42.292865" lon="13.98345"><ele>157.5</ele><time>2026-05-02T07:19:12.701Z</time></trkpt><trkpt lat="42.2928" lon="13.9833067"><ele>160.0</ele><time>2026-05-02T07:19:13.702Z</time></trkpt><trkpt lat="42.292735" lon="13.98317"><ele>160.0</ele><time>2026-05-02T07:19:14.702Z</time></trkpt><trkpt lat="42.2926733" lon="13.9830517"><ele>160.0</ele><time>2026-05-02T07:19:15.702Z</time></trkpt><trkpt lat="42.29261" lon="13.9829383"><ele>160.0</ele><time>2026-05-02T07:19:16.701Z</time></trkpt><trkpt lat="42.2925483" lon="13.9828233"><ele>160.0</ele><time>2026-05-02T07:19:17.702Z</time></trkpt><trkpt lat="42.2924783" lon="13.9827033"><ele>160.0</ele><time>2026-05-02T07:19:18.702Z</time></trkpt><trkpt lat="42.29241" lon="13.982585"><ele>159.2</ele><time>2026-05-02T07:19:19.701Z</time></trkpt><trkpt lat="42.2923417" lon="13.98247"><ele>158.4</ele><time>2026-05-02T07:19:20.702Z</time></trkpt><trkpt lat="42.2922817" lon="13.9823567"><ele>157.6</ele><time>2026-05-02T07:19:21.701Z</time></trkpt><trkpt lat="42.292215" lon="13.98225"><ele>156.8</ele><time>2026-05-02T07:19:22.701Z</time></trkpt><trkpt lat="42.292155" lon="13.9821533"><ele>156.0</ele><time>2026-05-02T07:19:23.702Z</time></trkpt><trkpt lat="42.2921017" lon="13.9820667"><ele>157.83333333333334</ele><time>2026-05-02T07:19:24.701Z</time></trkpt><trkpt lat="42.2920467" lon="13.9819833"><ele>159.66666666666666</ele><time>2026-05-02T07:19:25.702Z</time></trkpt><trkpt lat="42.2919933" lon="13.981895"><ele>161.5</ele><time>2026-05-02T07:19:26.702Z</time></trkpt><trkpt lat="42.2919417" lon="13.9818133"><ele>163.33333333333331</ele><time>2026-05-02T07:19:27.701Z</time></trkpt><trkpt lat="42.2918883" lon="13.98173"><ele>165.16666666666666</ele><time>2026-05-02T07:19:28.701Z</time></trkpt><trkpt lat="42.2918333" lon="13.981655"><ele>167.0</ele><time>2026-05-02T07:19:29.701Z</time></trkpt><trkpt lat="42.291775" lon="13.9815733"><ele>167.0</ele><time>2026-05-02T07:19:30.702Z</time></trkpt><trkpt lat="42.2917117" lon="13.981485"><ele>167.0</ele><time>2026-05-02T07:19:31.702Z</time></trkpt><trkpt lat="42.2916483" lon="13.9813967"><ele>167.0</ele><time>2026-05-02T07:19:32.702Z</time></trkpt><trkpt lat="42.29159" lon="13.9813167"><ele>167.0</ele><time>2026-05-02T07:19:33.701Z</time></trkpt><trkpt lat="42.29154" lon="13.981245"><ele>167.0</ele><time>2026-05-02T07:19:34.701Z</time></trkpt><trkpt lat="42.29144" lon="13.9811467"><ele>168.5</ele><time>2026-05-02T07:19:36.701Z</time></trkpt><trkpt lat="42.29135" lon="13.98111"><ele>170.0</ele><time>2026-05-02T07:19:38.702Z</time></trkpt><trkpt lat="42.291245" lon="13.98112"><ele>171.5</ele><time>2026-05-02T07:19:40.702Z</time></trkpt><trkpt lat="42.2911817" lon="13.9811283"><ele>173.0</ele><time>2026-05-02T07:19:41.701Z</time></trkpt><trkpt lat="42.2911183" lon="13.9811017"><ele>174.5</ele><time>2026-05-02T07:19:42.702Z</time></trkpt><trkpt lat="42.2910433" lon="13.981065"><ele>176.0</ele><time>2026-05-02T07:19:43.701Z</time></trkpt><trkpt lat="42.290985" lon="13.9810067"><ele>176.0</ele><time>2026-05-02T07:19:44.701Z</time></trkpt><trkpt lat="42.2909417" lon="13.980935"><ele>176.0</ele><time>2026-05-02T07:19:45.702Z</time></trkpt><trkpt lat="42.2909133" lon="13.9808417"><ele>176.0</ele><time>2026-05-02T07:19:46.701Z</time></trkpt><trkpt lat="42.2909" lon="13.9807167"><ele>176.0</ele><time>2026-05-02T07:19:47.702Z</time></trkpt><trkpt lat="42.2908933" lon="13.9805683"><ele>176.0</ele><time>2026-05-02T07:19:48.702Z</time></trkpt><trkpt lat="42.2908883" lon="13.98041"><ele>174.75</ele><time>2026-05-02T07:19:49.702Z</time></trkpt><trkpt lat="42.2908683" lon="13.9802567"><ele>173.5</ele><time>2026-05-02T07:19:50.702Z</time></trkpt><trkpt lat="42.2908333" lon="13.9801117"><ele>172.25</ele><time>2026-05-02T07:19:51.701Z</time></trkpt><trkpt lat="42.2907767" lon="13.9799667"><ele>171.0</ele><time>2026-05-02T07:19:52.701Z</time></trkpt><trkpt lat="42.2907017" lon="13.9798367"><ele>171.0</ele><time>2026-05-02T07:19:53.702Z</time></trkpt><trkpt lat="42.2906117" lon="13.9797233"><ele>171.0</ele><time>2026-05-02T07:19:54.701Z</time></trkpt><trkpt lat="42.2905167" lon="13.97964"><ele>171.0</ele><time>2026-05-02T07:19:55.702Z</time></trkpt><trkpt lat="42.29043" lon="13.9795717"><ele>171.0</ele><time>2026-05-02T07:19:56.702Z</time></trkpt><trkpt lat="42.2903533" lon="13.9795017"><ele>171.0</ele><time>2026-05-02T07:19:57.701Z</time></trkpt><trkpt lat="42.2903067" lon="13.9794217"><ele>173.33333333333334</ele><time>2026-05-02T07:19:58.701Z</time></trkpt><trkpt lat="42.2902917" lon="13.9793333"><ele>175.66666666666666</ele><time>2026-05-02T07:19:59.702Z</time></trkpt><trkpt lat="42.2903033" lon="13.9792283"><ele>178.0</ele><time>2026-05-02T07:20:00.702Z</time></trkpt><trkpt lat="42.2903317" lon="13.9791183"><ele>180.33333333333331</ele><time>2026-05-02T07:20:01.702Z</time></trkpt><trkpt lat="42.29037" lon="13.9790033"><ele>182.66666666666666</ele><time>2026-05-02T07:20:02.701Z</time></trkpt><trkpt lat="42.29041" lon="13.9788933"><ele>185.0</ele><time>2026-05-02T07:20:03.701Z</time></trkpt><trkpt lat="42.29043" lon="13.97879"><ele>185.0</ele><time>2026-05-02T07:20:04.702Z</time></trkpt><trkpt lat="42.2904233" lon="13.9786917"><ele>185.0</ele><time>2026-05-02T07:20:05.702Z</time></trkpt><trkpt lat="42.2903317" lon="13.9785983"><ele>185.0</ele><time>2026-05-02T07:20:07.702Z</time></trkpt><trkpt lat="42.2902583" lon="13.978615"><ele>185.0</ele><time>2026-05-02T07:20:08.701Z</time></trkpt><trkpt lat="42.2901883" lon="13.9786617"><ele>185.0</ele><time>2026-05-02T07:20:09.701Z</time></trkpt><trkpt lat="42.2901083" lon="13.97873"><ele>185.0</ele><time>2026-05-02T07:20:10.702Z</time></trkpt><trkpt lat="42.2900333" lon="13.9787917"><ele>185.0</ele><time>2026-05-02T07:20:11.701Z</time></trkpt><trkpt lat="42.28996" lon="13.978835"><ele>185.0</ele><time>2026-05-02T07:20:12.701Z</time></trkpt><trkpt lat="42.2898983" lon="13.9788683"><ele>185.0</ele><time>2026-05-02T07:20:13.701Z</time></trkpt><trkpt lat="42.2897917" lon="13.9789233"><ele>185.0</ele><time>2026-05-02T07:20:15.702Z</time></trkpt><trkpt lat="42.2896917" lon="13.9788983"><ele>185.0</ele><time>2026-05-02T07:20:17.701Z</time></trkpt><trkpt lat="42.2895967" lon="13.9787733"><ele>186.85714285714283</ele><time>2026-05-02T07:20:19.701Z</time></trkpt><trkpt lat="42.2895617" lon="13.97868"><ele>188.71428571428572</ele><time>2026-05-02T07:20:20.702Z</time></trkpt><trkpt lat="42.2895383" lon="13.9785733"><ele>190.57142857142856</ele><time>2026-05-02T07:20:21.702Z</time></trkpt><trkpt lat="42.28952" lon="13.97847"><ele>192.42857142857142</ele><time>2026-05-02T07:20:22.702Z</time></trkpt><trkpt lat="42.2895067" lon="13.978375"><ele>194.28571428571428</ele><time>2026-05-02T07:20:23.702Z</time></trkpt><trkpt lat="42.2895017" lon="13.97829"><ele>196.14285714285714</ele><time>2026-05-02T07:20:24.702Z</time></trkpt><trkpt lat="42.289495" lon="13.978205"><ele>198.0</ele><time>2026-05-02T07:20:25.701Z</time></trkpt><trkpt lat="42.28948" lon="13.9781167"><ele>198.5</ele><time>2026-05-02T07:20:26.702Z</time></trkpt><trkpt lat="42.28946" lon="13.9780333"><ele>199.0</ele><time>2026-05-02T07:20:27.701Z</time></trkpt><trkpt lat="42.2894" lon="13.9779317"><ele>199.5</ele><time>2026-05-02T07:20:29.701Z</time></trkpt><trkpt lat="42.2893333" lon="13.9778867"><ele>200.0</ele><time>2026-05-02T07:20:31.701Z</time></trkpt><trkpt lat="42.2892567" lon="13.977875"><ele>200.5</ele><time>2026-05-02T07:20:33.701Z</time></trkpt><trkpt lat="42.289175" lon="13.9779"><ele>201.0</ele><time>2026-05-02T07:20:35.701Z</time></trkpt><trkpt lat="42.2890767" lon="13.9779533"><ele>201.0</ele><time>2026-05-02T07:20:37.702Z</time></trkpt><trkpt lat="42.2890183" lon="13.9779967"><ele>201.0</ele><time>2026-05-02T07:20:38.701Z</time></trkpt><trkpt lat="42.2889567" lon="13.97804"><ele>201.0</ele><time>2026-05-02T07:20:39.702Z</time></trkpt><trkpt lat="42.2889" lon="13.9780983"><ele>201.0</ele><time>2026-05-02T07:20:40.702Z</time></trkpt><trkpt lat="42.2888417" lon="13.978175"><ele>201.0</ele><time>2026-05-02T07:20:41.702Z</time></trkpt><trkpt lat="42.28879" lon="13.9782517"><ele>201.0</ele><time>2026-05-02T07:20:42.702Z</time></trkpt><trkpt lat="42.28875" lon="13.97833"><ele>201.0</ele><time>2026-05-02T07:20:43.702Z</time></trkpt><trkpt lat="42.28872" lon="13.9784117"><ele>203.60000000000002</ele><time>2026-05-02T07:20:44.701Z</time></trkpt><trkpt lat="42.2886633" lon="13.9785717"><ele>206.2</ele><time>2026-05-02T07:20:46.702Z</time></trkpt><trkpt lat="42.2886217" lon="13.9786583"><ele>208.79999999999998</ele><time>2026-05-02T07:20:47.702Z</time></trkpt><trkpt lat="42.2885817" lon="13.9787367"><ele>211.39999999999998</ele><time>2026-05-02T07:20:48.702Z</time></trkpt><trkpt lat="42.2885083" lon="13.978875"><ele>214.0</ele><time>2026-05-02T07:20:50.701Z</time></trkpt><trkpt lat="42.2884383" lon="13.9790067"><ele>213.99999999999997</ele><time>2026-05-02T07:20:52.701Z</time></trkpt><trkpt lat="42.2884133" lon="13.9791517"><ele>214.0</ele><time>2026-05-02T07:20:54.701Z</time></trkpt><trkpt lat="42.28841" lon="13.9792383"><ele>214.0</ele><time>2026-05-02T07:20:55.701Z</time></trkpt><trkpt lat="42.2884017" lon="13.9793367"><ele>214.0</ele><time>2026-05-02T07:20:56.701Z</time></trkpt><trkpt lat="42.2883933" lon="13.9794233"><ele>213.99999999999997</ele><time>2026-05-02T07:20:57.702Z</time></trkpt><trkpt lat="42.2883767" lon="13.9795783"><ele>214.0</ele><time>2026-05-02T07:20:59.701Z</time></trkpt><trkpt lat="42.2883733" lon="13.979665"><ele>214.79999999999998</ele><time>2026-05-02T07:21:00.702Z</time></trkpt><trkpt lat="42.2883667" lon="13.9798233"><ele>215.59999999999997</ele><time>2026-05-02T07:21:02.702Z</time></trkpt><trkpt lat="42.2883517" lon="13.9799767"><ele>216.4</ele><time>2026-05-02T07:21:04.701Z</time></trkpt><trkpt lat="42.2883517" lon="13.9800633"><ele>217.2</ele><time>2026-05-02T07:21:05.702Z</time></trkpt><trkpt lat="42.2883567" lon="13.98015"><ele>218.0</ele><time>2026-05-02T07:21:06.702Z</time></trkpt><trkpt lat="42.2884017" lon="13.9803"><ele>218.50000000000003</ele><time>2026-05-02T07:21:08.702Z</time></trkpt><trkpt lat="42.288435" lon="13.9803817"><ele>219.0</ele><time>2026-05-02T07:21:09.702Z</time></trkpt><trkpt lat="42.28847" lon="13.9804567"><ele>219.5</ele><time>2026-05-02T07:21:10.702Z</time></trkpt><trkpt lat="42.2884933" lon="13.9805467"><ele>220.0</ele><time>2026-05-02T07:21:11.702Z</time></trkpt><trkpt lat="42.288505" lon="13.9806417"><ele>220.50000000000003</ele><time>2026-05-02T07:21:12.701Z</time></trkpt><trkpt lat="42.28845" lon="13.9807833"><ele>221.0</ele><time>2026-05-02T07:21:14.701Z</time></trkpt><trkpt lat="42.2883967" lon="13.9808317"><ele>221.0</ele><time>2026-05-02T07:21:15.702Z</time></trkpt><trkpt lat="42.288275" lon="13.98081"><ele>221.00000000000003</ele><time>2026-05-02T07:21:17.702Z</time></trkpt><trkpt lat="42.2882167" lon="13.9807467"><ele>221.00000000000003</ele><time>2026-05-02T07:21:18.701Z</time></trkpt><trkpt lat="42.2881767" lon="13.9806683"><ele>221.0</ele><time>2026-05-02T07:21:19.702Z</time></trkpt><trkpt lat="42.28812" lon="13.9805383"><ele>221.0</ele><time>2026-05-02T07:21:21.701Z</time></trkpt><trkpt lat="42.28803" lon="13.9805083"><ele>225.00000000000003</ele><time>2026-05-02T07:21:23.702Z</time></trkpt><trkpt lat="42.2879517" lon="13.980585"><ele>229.0</ele><time>2026-05-02T07:21:25.702Z</time></trkpt><trkpt lat="42.2879367" lon="13.9807517"><ele>233.0</ele><time>2026-05-02T07:21:27.702Z</time></trkpt><trkpt lat="42.2879533" lon="13.98084"><ele>237.0</ele><time>2026-05-02T07:21:28.702Z</time></trkpt><trkpt lat="42.287965" lon="13.9809367"><ele>241.00000000000003</ele><time>2026-05-02T07:21:29.701Z</time></trkpt><trkpt lat="42.28798" lon="13.9810217"><ele>245.0</ele><time>2026-05-02T07:21:30.701Z</time></trkpt><trkpt lat="42.2880033" lon="13.9811733"><ele>246.6</ele><time>2026-05-02T07:21:32.702Z</time></trkpt><trkpt lat="42.2880317" lon="13.9813033"><ele>248.2</ele><time>2026-05-02T07:21:34.701Z</time></trkpt><trkpt lat="42.2880283" lon="13.9814017"><ele>249.8</ele><time>2026-05-02T07:21:36.701Z</time></trkpt><trkpt lat="42.2879683" lon="13.9814717"><ele>251.4</ele><time>2026-05-02T07:21:38.702Z</time></trkpt><trkpt lat="42.28786" lon="13.98145"><ele>253.0</ele><time>2026-05-02T07:21:40.701Z</time></trkpt><trkpt lat="42.28779" lon="13.9813167"><ele>252.99999999999997</ele><time>2026-05-02T07:21:42.702Z</time></trkpt><trkpt lat="42.28777" lon="13.9812317"><ele>253.0</ele><time>2026-05-02T07:21:43.702Z</time></trkpt><trkpt lat="42.28771" lon="13.9811217"><ele>253.0</ele><time>2026-05-02T07:21:45.702Z</time></trkpt><trkpt lat="42.2875883" lon="13.9810717"><ele>253.0</ele><time>2026-05-02T07:21:47.701Z</time></trkpt><trkpt lat="42.2875183" lon="13.9810533"><ele>252.99999999999997</ele><time>2026-05-02T07:21:48.701Z</time></trkpt><trkpt lat="42.2874483" lon="13.9810383"><ele>253.0</ele><time>2026-05-02T07:21:49.702Z</time></trkpt><trkpt lat="42.2873867" lon="13.981015"><ele>252.99999999999997</ele><time>2026-05-02T07:21:50.702Z</time></trkpt><trkpt lat="42.2873217" lon="13.98099"><ele>253.0</ele><time>2026-05-02T07:21:51.702Z</time></trkpt><trkpt lat="42.2872533" lon="13.9809667"><ele>253.0</ele><time>2026-05-02T07:21:52.702Z</time></trkpt><trkpt lat="42.2871883" lon="13.9809433"><ele>253.0</ele><time>2026-05-02T07:21:53.702Z</time></trkpt><trkpt lat="42.28709" lon="13.980905"><ele>252.99999999999997</ele><time>2026-05-02T07:21:55.702Z</time></trkpt><trkpt lat="42.2870017" lon="13.980805"><ele>253.0</ele><time>2026-05-02T07:21:57.702Z</time></trkpt><trkpt lat="42.2869767" lon="13.9806333"><ele>253.66666666666666</ele><time>2026-05-02T07:21:59.702Z</time></trkpt><trkpt lat="42.28698" lon="13.9805233"><ele>254.33333333333331</ele><time>2026-05-02T07:22:00.701Z</time></trkpt><trkpt lat="42.2869883" lon="13.9804183"><ele>255.0</ele><time>2026-05-02T07:22:01.701Z</time></trkpt><trkpt lat="42.2869967" lon="13.9803217"><ele>255.66666666666669</ele><time>2026-05-02T07:22:02.702Z</time></trkpt><trkpt lat="42.287" lon="13.980225"><ele>256.33333333333337</ele><time>2026-05-02T07:22:03.701Z</time></trkpt><trkpt lat="42.2869983" lon="13.9801233"><ele>257.0</ele><time>2026-05-02T07:22:04.702Z</time></trkpt><trkpt lat="42.28699" lon="13.9800217"><ele>257.1666666666667</ele><time>2026-05-02T07:22:05.702Z</time></trkpt><trkpt lat="42.2869783" lon="13.9799183"><ele>257.33333333333337</ele><time>2026-05-02T07:22:06.701Z</time></trkpt><trkpt lat="42.2869533" lon="13.979825"><ele>257.5</ele><time>2026-05-02T07:22:07.701Z</time></trkpt><trkpt lat="42.28692" lon="13.9797383"><ele>257.6666666666667</ele><time>2026-05-02T07:22:08.701Z</time></trkpt><trkpt lat="42.2868883" lon="13.9796567"><ele>257.8333333333333</ele><time>2026-05-02T07:22:09.702Z</time></trkpt><trkpt lat="42.2868567" lon="13.9794783"><ele>258.0</ele><time>2026-05-02T07:22:11.702Z</time></trkpt><trkpt lat="42.286845" lon="13.9793783"><ele>257.99999999999994</ele><time>2026-05-02T07:22:12.701Z</time></trkpt><trkpt lat="42.28684" lon="13.9792833"><ele>258.0</ele><time>2026-05-02T07:22:13.702Z</time></trkpt><trkpt lat="42.28683" lon="13.9791817"><ele>258.0</ele><time>2026-05-02T07:22:14.701Z</time></trkpt><trkpt lat="42.28682" lon="13.9790817"><ele>258.0</ele><time>2026-05-02T07:22:15.702Z</time></trkpt><trkpt lat="42.2868067" lon="13.9789767"><ele>258.0</ele><time>2026-05-02T07:22:16.701Z</time></trkpt><trkpt lat="42.2867917" lon="13.9788833"><ele>257.99999999999994</ele><time>2026-05-02T07:22:17.701Z</time></trkpt><trkpt lat="42.2867783" lon="13.9787933"><ele>258.0</ele><time>2026-05-02T07:22:18.702Z</time></trkpt><trkpt lat="42.28676" lon="13.978695"><ele>257.8333333333333</ele><time>2026-05-02T07:22:19.702Z</time></trkpt><trkpt lat="42.28673" lon="13.9785967"><ele>257.6666666666667</ele><time>2026-05-02T07:22:20.701Z</time></trkpt><trkpt lat="42.2866867" lon="13.9784933"><ele>257.5</ele><time>2026-05-02T07:22:21.701Z</time></trkpt><trkpt lat="42.28664" lon="13.9783933"><ele>257.33333333333337</ele><time>2026-05-02T07:22:22.7Z</time></trkpt><trkpt lat="42.2865883" lon="13.9782967"><ele>257.1666666666667</ele><time>2026-05-02T07:22:23.701Z</time></trkpt><trkpt lat="42.2865283" lon="13.978215"><ele>257.0</ele><time>2026-05-02T07:22:24.701Z</time></trkpt><trkpt lat="42.28645" lon="13.97813"><ele>258.6</ele><time>2026-05-02T07:22:25.7Z</time></trkpt><trkpt lat="42.286365" lon="13.9780383"><ele>260.2</ele><time>2026-05-02T07:22:26.701Z</time></trkpt><trkpt lat="42.2862817" lon="13.9779517"><ele>261.8</ele><time>2026-05-02T07:22:27.701Z</time></trkpt><trkpt lat="42.286205" lon="13.9778667"><ele>263.4</ele><time>2026-05-02T07:22:28.7Z</time></trkpt><trkpt lat="42.2861367" lon="13.9777667"><ele>265.0</ele><time>2026-05-02T07:22:29.7Z</time></trkpt><trkpt lat="42.2860833" lon="13.9776533"><ele>265.0</ele><time>2026-05-02T07:22:30.7Z</time></trkpt><trkpt lat="42.286035" lon="13.9775333"><ele>265.0</ele><time>2026-05-02T07:22:31.701Z</time></trkpt><trkpt lat="42.285975" lon="13.977415"><ele>265.0</ele><time>2026-05-02T07:22:32.701Z</time></trkpt><trkpt lat="42.2859033" lon="13.9773017"><ele>265.0</ele><time>2026-05-02T07:22:33.7Z</time></trkpt><trkpt lat="42.28582" lon="13.977205"><ele>265.0</ele><time>2026-05-02T07:22:34.7Z</time></trkpt><trkpt lat="42.28573" lon="13.9771233"><ele>264.8</ele><time>2026-05-02T07:22:35.7Z</time></trkpt><trkpt lat="42.2856467" lon="13.9770533"><ele>264.6</ele><time>2026-05-02T07:22:36.7Z</time></trkpt><trkpt lat="42.2855617" lon="13.9769867"><ele>264.4</ele><time>2026-05-02T07:22:37.7Z</time></trkpt><trkpt lat="42.28548" lon="13.9769233"><ele>264.2</ele><time>2026-05-02T07:22:38.701Z</time></trkpt><trkpt lat="42.28542" lon="13.9768433"><ele>264.0</ele><time>2026-05-02T07:22:39.701Z</time></trkpt><trkpt lat="42.285375" lon="13.9767617"><ele>264.8333333333333</ele><time>2026-05-02T07:22:40.7Z</time></trkpt><trkpt lat="42.28535" lon="13.9766783"><ele>265.6666666666667</ele><time>2026-05-02T07:22:41.701Z</time></trkpt><trkpt lat="42.2853483" lon="13.9765883"><ele>266.5</ele><time>2026-05-02T07:22:42.701Z</time></trkpt><trkpt lat="42.28536" lon="13.9764833"><ele>267.33333333333337</ele><time>2026-05-02T07:22:43.701Z</time></trkpt><trkpt lat="42.2853833" lon="13.9763617"><ele>268.1666666666667</ele><time>2026-05-02T07:22:44.701Z</time></trkpt><trkpt lat="42.2854" lon="13.9762367"><ele>269.0</ele><time>2026-05-02T07:22:45.7Z</time></trkpt><trkpt lat="42.28542" lon="13.976095"><ele>269.0</ele><time>2026-05-02T07:22:46.7Z</time></trkpt><trkpt lat="42.285425" lon="13.9759583"><ele>269.0</ele><time>2026-05-02T07:22:47.7Z</time></trkpt><trkpt lat="42.2854167" lon="13.97582"><ele>269.0</ele><time>2026-05-02T07:22:48.701Z</time></trkpt><trkpt lat="42.2853983" lon="13.9756667"><ele>269.0</ele><time>2026-05-02T07:22:49.701Z</time></trkpt><trkpt lat="42.2853767" lon="13.9755133"><ele>269.0</ele><time>2026-05-02T07:22:50.701Z</time></trkpt><trkpt lat="42.2853533" lon="13.9753567"><ele>270.25</ele><time>2026-05-02T07:22:51.701Z</time></trkpt><trkpt lat="42.2853283" lon="13.9752133"><ele>271.5</ele><time>2026-05-02T07:22:52.7Z</time></trkpt><trkpt lat="42.2852967" lon="13.9750717"><ele>272.75</ele><time>2026-05-02T07:22:53.701Z</time></trkpt><trkpt lat="42.2852467" lon="13.9749233"><ele>274.0</ele><time>2026-05-02T07:22:54.7Z</time></trkpt><trkpt lat="42.28519" lon="13.97477"><ele>274.5</ele><time>2026-05-02T07:22:55.7Z</time></trkpt><trkpt lat="42.2851167" lon="13.9746117"><ele>275.0</ele><time>2026-05-02T07:22:56.701Z</time></trkpt><trkpt lat="42.2850433" lon="13.9744683"><ele>275.5</ele><time>2026-05-02T07:22:57.701Z</time></trkpt><trkpt lat="42.2849817" lon="13.9743367"><ele>276.0</ele><time>2026-05-02T07:22:58.701Z</time></trkpt><trkpt lat="42.2849283" lon="13.9742117"><ele>276.2</ele><time>2026-05-02T07:22:59.701Z</time></trkpt><trkpt lat="42.2848767" lon="13.974095"><ele>276.40000000000003</ele><time>2026-05-02T07:23:00.701Z</time></trkpt><trkpt lat="42.2848267" lon="13.9739783"><ele>276.6</ele><time>2026-05-02T07:23:01.701Z</time></trkpt><trkpt lat="42.2847883" lon="13.9738733"><ele>276.8</ele><time>2026-05-02T07:23:02.701Z</time></trkpt><trkpt lat="42.2847533" lon="13.9737883"><ele>277.0</ele><time>2026-05-02T07:23:03.7Z</time></trkpt><trkpt lat="42.28471" lon="13.973635"><ele>278.8333333333333</ele><time>2026-05-02T07:23:05.7Z</time></trkpt><trkpt lat="42.2846783" lon="13.9735467"><ele>280.66666666666663</ele><time>2026-05-02T07:23:06.701Z</time></trkpt><trkpt lat="42.2846367" lon="13.973465"><ele>282.5</ele><time>2026-05-02T07:23:07.7Z</time></trkpt><trkpt lat="42.2845983" lon="13.973375"><ele>284.3333333333333</ele><time>2026-05-02T07:23:08.7Z</time></trkpt><trkpt lat="42.2845467" lon="13.9732833"><ele>286.1666666666667</ele><time>2026-05-02T07:23:09.7Z</time></trkpt><trkpt lat="42.28449" lon="13.9731867"><ele>288.0</ele><time>2026-05-02T07:23:10.701Z</time></trkpt><trkpt lat="42.2844233" lon="13.97311"><ele>288.6</ele><time>2026-05-02T07:23:11.7Z</time></trkpt><trkpt lat="42.2843467" lon="13.9730417"><ele>289.20000000000005</ele><time>2026-05-02T07:23:12.7Z</time></trkpt><trkpt lat="42.2842533" lon="13.9729717"><ele>289.8</ele><time>2026-05-02T07:23:13.7Z</time></trkpt><trkpt lat="42.2841433" lon="13.9729083"><ele>290.40000000000003</ele><time>2026-05-02T07:23:14.701Z</time></trkpt><trkpt lat="42.2840383" lon="13.9728417"><ele>291.0</ele><time>2026-05-02T07:23:15.701Z</time></trkpt><trkpt lat="42.2839383" lon="13.9727733"><ele>292.2</ele><time>2026-05-02T07:23:16.7Z</time></trkpt><trkpt lat="42.2838433" lon="13.9727267"><ele>293.40000000000003</ele><time>2026-05-02T07:23:17.7Z</time></trkpt><trkpt lat="42.283755" lon="13.97268"><ele>294.6</ele><time>2026-05-02T07:23:18.7Z</time></trkpt><trkpt lat="42.283675" lon="13.9726383"><ele>295.8</ele><time>2026-05-02T07:23:19.701Z</time></trkpt><trkpt lat="42.2835917" lon="13.9725933"><ele>297.0</ele><time>2026-05-02T07:23:20.7Z</time></trkpt><trkpt lat="42.283515" lon="13.97255"><ele>297.0</ele><time>2026-05-02T07:23:21.701Z</time></trkpt><trkpt lat="42.2834333" lon="13.9725233"><ele>297.0</ele><time>2026-05-02T07:23:22.7Z</time></trkpt><trkpt lat="42.2833467" lon="13.9725183"><ele>297.0</ele><time>2026-05-02T07:23:23.701Z</time></trkpt><trkpt lat="42.2832617" lon="13.9725117"><ele>297.0</ele><time>2026-05-02T07:23:24.701Z</time></trkpt><trkpt lat="42.28319" lon="13.9724783"><ele>297.0</ele><time>2026-05-02T07:23:25.7Z</time></trkpt><trkpt lat="42.2831333" lon="13.97242"><ele>297.0</ele><time>2026-05-02T07:23:26.7Z</time></trkpt><trkpt lat="42.2830867" lon="13.9723517"><ele>297.6666666666667</ele><time>2026-05-02T07:23:27.7Z</time></trkpt><trkpt lat="42.2830217" lon="13.9722383"><ele>298.3333333333333</ele><time>2026-05-02T07:23:29.701Z</time></trkpt><trkpt lat="42.2829833" lon="13.9721683"><ele>299.0</ele><time>2026-05-02T07:23:32.701Z</time></trkpt><trkpt lat="42.282935" lon="13.972075"><ele>299.66666666666663</ele><time>2026-05-02T07:23:40.701Z</time></trkpt><trkpt lat="42.2829233" lon="13.9719783"><ele>300.3333333333333</ele><time>2026-05-02T07:23:42.701Z</time></trkpt><trkpt lat="42.2829817" lon="13.97185"><ele>301.0</ele><time>2026-05-02T07:23:44.7Z</time></trkpt><trkpt lat="42.28303" lon="13.9717717"><ele>301.2</ele><time>2026-05-02T07:23:45.7Z</time></trkpt><trkpt lat="42.2830783" lon="13.97167"><ele>301.40000000000003</ele><time>2026-05-02T07:23:46.701Z</time></trkpt><trkpt lat="42.2831133" lon="13.9715383"><ele>301.6</ele><time>2026-05-02T07:23:47.7Z</time></trkpt><trkpt lat="42.283145" lon="13.971405"><ele>301.8</ele><time>2026-05-02T07:23:48.7Z</time></trkpt><trkpt lat="42.283185" lon="13.9712833"><ele>302.0</ele><time>2026-05-02T07:23:49.701Z</time></trkpt><trkpt lat="42.2832333" lon="13.9711717"><ele>299.8</ele><time>2026-05-02T07:23:50.701Z</time></trkpt><trkpt lat="42.283295" lon="13.9710717"><ele>297.6</ele><time>2026-05-02T07:23:51.7Z</time></trkpt><trkpt lat="42.2833733" lon="13.970975"><ele>295.40000000000003</ele><time>2026-05-02T07:23:52.701Z</time></trkpt><trkpt lat="42.28345" lon="13.970885"><ele>293.2</ele><time>2026-05-02T07:23:53.7Z</time></trkpt><trkpt lat="42.2835333" lon="13.97079"><ele>291.0</ele><time>2026-05-02T07:23:54.7Z</time></trkpt><trkpt lat="42.283615" lon="13.9706983"><ele>290.8</ele><time>2026-05-02T07:23:55.701Z</time></trkpt><trkpt lat="42.283695" lon="13.9706167"><ele>290.6</ele><time>2026-05-02T07:23:56.701Z</time></trkpt><trkpt lat="42.2837783" lon="13.970565"><ele>290.4</ele><time>2026-05-02T07:23:57.701Z</time></trkpt><trkpt lat="42.283875" lon="13.9705367"><ele>290.2</ele><time>2026-05-02T07:23:58.701Z</time></trkpt><trkpt lat="42.2839817" lon="13.970525"><ele>290.0</ele><time>2026-05-02T07:23:59.7Z</time></trkpt><trkpt lat="42.284095" lon="13.9705233"><ele>289.25</ele><time>2026-05-02T07:24:00.701Z</time></trkpt><trkpt lat="42.2842167" lon="13.9705133"><ele>288.5</ele><time>2026-05-02T07:24:01.701Z</time></trkpt><trkpt lat="42.2843417" lon="13.9704917"><ele>287.75</ele><time>2026-05-02T07:24:02.701Z</time></trkpt><trkpt lat="42.2844683" lon="13.9704633"><ele>287.0</ele><time>2026-05-02T07:24:03.7Z</time></trkpt><trkpt lat="42.2845967" lon="13.97043"><ele>287.0</ele><time>2026-05-02T07:24:04.701Z</time></trkpt><trkpt lat="42.2847267" lon="13.9703917"><ele>287.0</ele><time>2026-05-02T07:24:05.7Z</time></trkpt><trkpt lat="42.2848567" lon="13.9703467"><ele>287.0</ele><time>2026-05-02T07:24:06.7Z</time></trkpt><trkpt lat="42.2849817" lon="13.9703067"><ele>287.0</ele><time>2026-05-02T07:24:07.7Z</time></trkpt><trkpt lat="42.2850967" lon="13.9702667"><ele>287.1666666666667</ele><time>2026-05-02T07:24:08.701Z</time></trkpt><trkpt lat="42.285195" lon="13.97023"><ele>287.33333333333337</ele><time>2026-05-02T07:24:09.701Z</time></trkpt><trkpt lat="42.2852733" lon="13.9701783"><ele>287.5</ele><time>2026-05-02T07:24:10.701Z</time></trkpt><trkpt lat="42.2853317" lon="13.9701217"><ele>287.6666666666667</ele><time>2026-05-02T07:24:11.701Z</time></trkpt><trkpt lat="42.2853767" lon="13.9700467"><ele>287.8333333333333</ele><time>2026-05-02T07:24:12.701Z</time></trkpt><trkpt lat="42.285425" lon="13.9699517"><ele>288.0</ele><time>2026-05-02T07:24:13.7Z</time></trkpt><trkpt lat="42.2854733" lon="13.9698317"><ele>288.0</ele><time>2026-05-02T07:24:14.701Z</time></trkpt><trkpt lat="42.285525" lon="13.9697"><ele>288.0</ele><time>2026-05-02T07:24:15.7Z</time></trkpt><trkpt lat="42.2855783" lon="13.9695617"><ele>288.0</ele><time>2026-05-02T07:24:16.701Z</time></trkpt><trkpt lat="42.2856367" lon="13.9694133"><ele>288.0</ele><time>2026-05-02T07:24:17.7Z</time></trkpt><trkpt lat="42.2856967" lon="13.96927"><ele>289.6</ele><time>2026-05-02T07:24:18.701Z</time></trkpt><trkpt lat="42.285745" lon="13.96914"><ele>291.20000000000005</ele><time>2026-05-02T07:24:19.701Z</time></trkpt><trkpt lat="42.285785" lon="13.9690117"><ele>292.8</ele><time>2026-05-02T07:24:20.701Z</time></trkpt><trkpt lat="42.2858217" lon="13.9688933"><ele>294.40000000000003</ele><time>2026-05-02T07:24:21.701Z</time></trkpt><trkpt lat="42.2858617" lon="13.9687917"><ele>296.0</ele><time>2026-05-02T07:24:22.7Z</time></trkpt><trkpt lat="42.2859117" lon="13.9686967"><ele>296.0</ele><time>2026-05-02T07:24:23.701Z</time></trkpt><trkpt lat="42.285985" lon="13.9686067"><ele>296.0</ele><time>2026-05-02T07:24:24.7Z</time></trkpt><trkpt lat="42.28607" lon="13.9685183"><ele>296.0</ele><time>2026-05-02T07:24:25.7Z</time></trkpt><trkpt lat="42.2861467" lon="13.968415"><ele>296.0</ele><time>2026-05-02T07:24:26.701Z</time></trkpt><trkpt lat="42.2862217" lon="13.9682983"><ele>296.0</ele><time>2026-05-02T07:24:27.701Z</time></trkpt><trkpt lat="42.286285" lon="13.96818"><ele>297.2</ele><time>2026-05-02T07:24:28.7Z</time></trkpt><trkpt lat="42.2863533" lon="13.9680633"><ele>298.40000000000003</ele><time>2026-05-02T07:24:29.701Z</time></trkpt><trkpt lat="42.2864183" lon="13.96794"><ele>299.6</ele><time>2026-05-02T07:24:30.701Z</time></trkpt><trkpt lat="42.286475" lon="13.96781"><ele>300.8</ele><time>2026-05-02T07:24:31.701Z</time></trkpt><trkpt lat="42.2865317" lon="13.9676983"><ele>302.0</ele><time>2026-05-02T07:24:32.7Z</time></trkpt><trkpt lat="42.2865933" lon="13.9675867"><ele>300.8</ele><time>2026-05-02T07:24:33.701Z</time></trkpt><trkpt lat="42.2866633" lon="13.967465"><ele>299.6</ele><time>2026-05-02T07:24:34.701Z</time></trkpt><trkpt lat="42.286725" lon="13.9673683"><ele>298.40000000000003</ele><time>2026-05-02T07:24:35.701Z</time></trkpt><trkpt lat="42.2867917" lon="13.9672767"><ele>297.2</ele><time>2026-05-02T07:24:36.701Z</time></trkpt><trkpt lat="42.28686" lon="13.9671733"><ele>296.0</ele><time>2026-05-02T07:24:37.7Z</time></trkpt><trkpt lat="42.2869183" lon="13.9670717"><ele>296.0</ele><time>2026-05-02T07:24:38.7Z</time></trkpt><trkpt lat="42.2869567" lon="13.96697"><ele>296.0</ele><time>2026-05-02T07:24:39.701Z</time></trkpt><trkpt lat="42.28699" lon="13.9668467"><ele>296.0</ele><time>2026-05-02T07:24:40.7Z</time></trkpt><trkpt lat="42.286985" lon="13.9667"><ele>296.0</ele><time>2026-05-02T07:24:41.701Z</time></trkpt><trkpt lat="42.28696" lon="13.9665417"><ele>296.0</ele><time>2026-05-02T07:24:42.7Z</time></trkpt><trkpt lat="42.2869167" lon="13.9663883"><ele>298.75</ele><time>2026-05-02T07:24:43.7Z</time></trkpt><trkpt lat="42.2868717" lon="13.9662317"><ele>301.5</ele><time>2026-05-02T07:24:44.701Z</time></trkpt><trkpt lat="42.28683" lon="13.9660633"><ele>304.25</ele><time>2026-05-02T07:24:45.7Z</time></trkpt><trkpt lat="42.286785" lon="13.965905"><ele>307.0</ele><time>2026-05-02T07:24:46.701Z</time></trkpt><trkpt lat="42.28674" lon="13.9657533"><ele>308.0</ele><time>2026-05-02T07:24:47.701Z</time></trkpt><trkpt lat="42.2866967" lon="13.9656117"><ele>309.0</ele><time>2026-05-02T07:24:48.7Z</time></trkpt><trkpt lat="42.286655" lon="13.9654717"><ele>310.0</ele><time>2026-05-02T07:24:49.701Z</time></trkpt><trkpt lat="42.2866067" lon="13.9653233"><ele>311.0</ele><time>2026-05-02T07:24:50.701Z</time></trkpt><trkpt lat="42.2865767" lon="13.9651967"><ele>312.0</ele><time>2026-05-02T07:24:51.7Z</time></trkpt><trkpt lat="42.2865583" lon="13.9650667"><ele>312.25</ele><time>2026-05-02T07:24:52.701Z</time></trkpt><trkpt lat="42.2865517" lon="13.9649117"><ele>312.5</ele><time>2026-05-02T07:24:53.7Z</time></trkpt><trkpt lat="42.2865567" lon="13.9647417"><ele>312.75</ele><time>2026-05-02T07:24:54.701Z</time></trkpt><trkpt lat="42.28657" lon="13.9645783"><ele>313.0</ele><time>2026-05-02T07:24:55.701Z</time></trkpt><trkpt lat="42.2865867" lon="13.9644333"><ele>313.0</ele><time>2026-05-02T07:24:56.7Z</time></trkpt><trkpt lat="42.2866133" lon="13.96432"><ele>313.0</ele><time>2026-05-02T07:24:57.701Z</time></trkpt><trkpt lat="42.286655" lon="13.9642067"><ele>313.0</ele><time>2026-05-02T07:24:58.701Z</time></trkpt><trkpt lat="42.2867083" lon="13.964095"><ele>313.0</ele><time>2026-05-02T07:24:59.7Z</time></trkpt><trkpt lat="42.2867683" lon="13.964"><ele>313.0</ele><time>2026-05-02T07:25:00.701Z</time></trkpt><trkpt lat="42.28683" lon="13.9639167"><ele>313.3333333333333</ele><time>2026-05-02T07:25:01.701Z</time></trkpt><trkpt lat="42.2868817" lon="13.9638217"><ele>313.66666666666663</ele><time>2026-05-02T07:25:02.701Z</time></trkpt><trkpt lat="42.286915" lon="13.963715"><ele>314.0</ele><time>2026-05-02T07:25:03.7Z</time></trkpt><trkpt lat="42.2869333" lon="13.9636017"><ele>314.3333333333333</ele><time>2026-05-02T07:25:04.7Z</time></trkpt><trkpt lat="42.28693" lon="13.9634817"><ele>314.6666666666667</ele><time>2026-05-02T07:25:05.7Z</time></trkpt><trkpt lat="42.2869033" lon="13.9633617"><ele>315.0</ele><time>2026-05-02T07:25:06.701Z</time></trkpt><trkpt lat="42.2868433" lon="13.9632433"><ele>313.75</ele><time>2026-05-02T07:25:07.7Z</time></trkpt><trkpt lat="42.2867783" lon="13.9631133"><ele>312.5</ele><time>2026-05-02T07:25:08.7Z</time></trkpt><trkpt lat="42.2867133" lon="13.9629717"><ele>311.25</ele><time>2026-05-02T07:25:09.701Z</time></trkpt><trkpt lat="42.2866567" lon="13.9628217"><ele>310.0</ele><time>2026-05-02T07:25:10.7Z</time></trkpt><trkpt lat="42.2865983" lon="13.9626633"><ele>310.0</ele><time>2026-05-02T07:25:11.7Z</time></trkpt><trkpt lat="42.2865383" lon="13.9624967"><ele>310.0</ele><time>2026-05-02T07:25:12.701Z</time></trkpt><trkpt lat="42.2864817" lon="13.9623367"><ele>310.0</ele><time>2026-05-02T07:25:13.7Z</time></trkpt><trkpt lat="42.28642" lon="13.9621717"><ele>310.0</ele><time>2026-05-02T07:25:14.701Z</time></trkpt><trkpt lat="42.286365" lon="13.9620083"><ele>310.0</ele><time>2026-05-02T07:25:15.7Z</time></trkpt><trkpt lat="42.28632" lon="13.9618533"><ele>310.0</ele><time>2026-05-02T07:25:16.701Z</time></trkpt><trkpt lat="42.2862733" lon="13.9617"><ele>310.0</ele><time>2026-05-02T07:25:17.701Z</time></trkpt><trkpt lat="42.2862267" lon="13.96156"><ele>310.0</ele><time>2026-05-02T07:25:18.7Z</time></trkpt><trkpt lat="42.2861867" lon="13.9614417"><ele>309.2</ele><time>2026-05-02T07:25:19.7Z</time></trkpt><trkpt lat="42.2861617" lon="13.961325"><ele>308.4</ele><time>2026-05-02T07:25:20.7Z</time></trkpt><trkpt lat="42.2861417" lon="13.961195"><ele>307.6</ele><time>2026-05-02T07:25:21.701Z</time></trkpt><trkpt lat="42.2861317" lon="13.9610633"><ele>306.8</ele><time>2026-05-02T07:25:22.701Z</time></trkpt><trkpt lat="42.2861267" lon="13.960925"><ele>306.0</ele><time>2026-05-02T07:25:23.701Z</time></trkpt><trkpt lat="42.2861317" lon="13.9607867"><ele>305.5</ele><time>2026-05-02T07:25:24.7Z</time></trkpt><trkpt lat="42.286145" lon="13.9606383"><ele>305.0</ele><time>2026-05-02T07:25:25.701Z</time></trkpt><trkpt lat="42.28617" lon="13.9604767"><ele>304.5</ele><time>2026-05-02T07:25:26.7Z</time></trkpt><trkpt lat="42.2861983" lon="13.9603167"><ele>304.0</ele><time>2026-05-02T07:25:27.7Z</time></trkpt><trkpt lat="42.2862217" lon="13.96018"><ele>304.0</ele><time>2026-05-02T07:25:28.7Z</time></trkpt><trkpt lat="42.2862383" lon="13.9600817"><ele>304.0</ele><time>2026-05-02T07:25:29.701Z</time></trkpt><trkpt lat="42.2862517" lon="13.959975"><ele>304.0</ele><time>2026-05-02T07:25:31.7Z</time></trkpt><trkpt lat="42.2862633" lon="13.95981"><ele>304.0</ele><time>2026-05-02T07:25:51.7Z</time></trkpt><trkpt lat="42.2862717" lon="13.9596967"><ele>304.0</ele><time>2026-05-02T07:25:53.701Z</time></trkpt><trkpt lat="42.28628" lon="13.9595817"><ele>304.0</ele><time>2026-05-02T07:25:55.701Z</time></trkpt><trkpt lat="42.2862633" lon="13.9594167"><ele>304.0</ele><time>2026-05-02T07:25:57.701Z</time></trkpt><trkpt lat="42.2862383" lon="13.9593167"><ele>304.0</ele><time>2026-05-02T07:25:58.701Z</time></trkpt><trkpt lat="42.286205" lon="13.95922"><ele>304.0</ele><time>2026-05-02T07:25:59.701Z</time></trkpt><trkpt lat="42.2861583" lon="13.9591233"><ele>304.0</ele><time>2026-05-02T07:26:00.701Z</time></trkpt><trkpt lat="42.2861017" lon="13.9590333"><ele>304.0</ele><time>2026-05-02T07:26:01.701Z</time></trkpt><trkpt lat="42.28604" lon="13.9589483"><ele>304.0</ele><time>2026-05-02T07:26:02.7Z</time></trkpt><trkpt lat="42.28598" lon="13.9588717"><ele>302.66666666666663</ele><time>2026-05-02T07:26:03.7Z</time></trkpt><trkpt lat="42.2859217" lon="13.9588017"><ele>301.3333333333333</ele><time>2026-05-02T07:26:04.701Z</time></trkpt><trkpt lat="42.2858667" lon="13.9587367"><ele>300.0</ele><time>2026-05-02T07:26:05.701Z</time></trkpt><trkpt lat="42.2858183" lon="13.958675"><ele>298.6666666666667</ele><time>2026-05-02T07:26:06.701Z</time></trkpt><trkpt lat="42.2857717" lon="13.9586083"><ele>297.33333333333337</ele><time>2026-05-02T07:26:07.701Z</time></trkpt><trkpt lat="42.2856917" lon="13.9584983"><ele>296.0</ele><time>2026-05-02T07:26:09.701Z</time></trkpt><trkpt lat="42.2856383" lon="13.9583917"><ele>295.40000000000003</ele><time>2026-05-02T07:26:11.701Z</time></trkpt><trkpt lat="42.2855983" lon="13.958285"><ele>294.8</ele><time>2026-05-02T07:26:13.701Z</time></trkpt><trkpt lat="42.2855217" lon="13.9581683"><ele>294.20000000000005</ele><time>2026-05-02T07:26:15.701Z</time></trkpt><trkpt lat="42.285445" lon="13.9581333"><ele>293.6</ele><time>2026-05-02T07:26:16.701Z</time></trkpt><trkpt lat="42.2853483" lon="13.9580983"><ele>293.0</ele><time>2026-05-02T07:26:17.701Z</time></trkpt><trkpt lat="42.28526" lon="13.958055"><ele>293.0</ele><time>2026-05-02T07:26:18.7Z</time></trkpt><trkpt lat="42.2851783" lon="13.95802"><ele>293.0</ele><time>2026-05-02T07:26:19.699Z</time></trkpt><trkpt lat="42.2851083" lon="13.9579617"><ele>293.0</ele><time>2026-05-02T07:26:20.7Z</time></trkpt><trkpt lat="42.2850333" lon="13.9579117"><ele>293.0</ele><time>2026-05-02T07:26:21.7Z</time></trkpt><trkpt lat="42.2849417" lon="13.95786"><ele>293.0</ele><time>2026-05-02T07:26:22.7Z</time></trkpt><trkpt lat="42.284845" lon="13.9578083"><ele>292.0</ele><time>2026-05-02T07:26:23.7Z</time></trkpt><trkpt lat="42.2847417" lon="13.9577533"><ele>291.0</ele><time>2026-05-02T07:26:24.7Z</time></trkpt><trkpt lat="42.2846433" lon="13.9576817"><ele>290.0</ele><time>2026-05-02T07:26:25.7Z</time></trkpt><trkpt lat="42.28455" lon="13.95762"><ele>289.0</ele><time>2026-05-02T07:26:26.7Z</time></trkpt><trkpt lat="42.2844483" lon="13.9575583"><ele>288.0</ele><time>2026-05-02T07:26:27.699Z</time></trkpt><trkpt lat="42.2843533" lon="13.9574883"><ele>287.25</ele><time>2026-05-02T07:26:28.7Z</time></trkpt><trkpt lat="42.284265" lon="13.9574033"><ele>286.5</ele><time>2026-05-02T07:26:29.7Z</time></trkpt><trkpt lat="42.2841733" lon="13.9573083"><ele>285.75</ele><time>2026-05-02T07:26:30.699Z</time></trkpt><trkpt lat="42.2840933" lon="13.9571883"><ele>285.0</ele><time>2026-05-02T07:26:31.7Z</time></trkpt><trkpt lat="42.28401" lon="13.9570733"><ele>285.0</ele><time>2026-05-02T07:26:32.699Z</time></trkpt><trkpt lat="42.28392" lon="13.9569567"><ele>285.0</ele><time>2026-05-02T07:26:33.7Z</time></trkpt><trkpt lat="42.2838283" lon="13.9568317"><ele>285.0</ele><time>2026-05-02T07:26:34.699Z</time></trkpt><trkpt lat="42.28374" lon="13.956715"><ele>285.0</ele><time>2026-05-02T07:26:35.699Z</time></trkpt><trkpt lat="42.283655" lon="13.956605"><ele>283.0</ele><time>2026-05-02T07:26:36.7Z</time></trkpt><trkpt lat="42.2835733" lon="13.95649"><ele>281.0</ele><time>2026-05-02T07:26:37.699Z</time></trkpt><trkpt lat="42.2835" lon="13.9563667"><ele>279.0</ele><time>2026-05-02T07:26:38.7Z</time></trkpt><trkpt lat="42.28342" lon="13.9562483"><ele>277.0</ele><time>2026-05-02T07:26:39.699Z</time></trkpt><trkpt lat="42.2833367" lon="13.9561333"><ele>277.0</ele><time>2026-05-02T07:26:40.7Z</time></trkpt><trkpt lat="42.2832517" lon="13.95602"><ele>277.0</ele><time>2026-05-02T07:26:41.699Z</time></trkpt><trkpt lat="42.2831567" lon="13.9559017"><ele>277.0</ele><time>2026-05-02T07:26:42.7Z</time></trkpt><trkpt lat="42.2830517" lon="13.95578"><ele>277.0</ele><time>2026-05-02T07:26:43.7Z</time></trkpt><trkpt lat="42.2829433" lon="13.9556567"><ele>275.0</ele><time>2026-05-02T07:26:44.699Z</time></trkpt><trkpt lat="42.2828417" lon="13.955535"><ele>273.0</ele><time>2026-05-02T07:26:45.7Z</time></trkpt><trkpt lat="42.2827467" lon="13.95542"><ele>271.0</ele><time>2026-05-02T07:26:46.7Z</time></trkpt><trkpt lat="42.2826533" lon="13.9553017"><ele>269.0</ele><time>2026-05-02T07:26:47.699Z</time></trkpt><trkpt lat="42.282565" lon="13.955185"><ele>269.0</ele><time>2026-05-02T07:26:48.699Z</time></trkpt><trkpt lat="42.2824717" lon="13.9550833"><ele>269.0</ele><time>2026-05-02T07:26:49.699Z</time></trkpt><trkpt lat="42.2823717" lon="13.955"><ele>269.0</ele><time>2026-05-02T07:26:50.7Z</time></trkpt><trkpt lat="42.282265" lon="13.954945"><ele>269.0</ele><time>2026-05-02T07:26:51.7Z</time></trkpt><trkpt lat="42.282145" lon="13.9549183"><ele>267.0</ele><time>2026-05-02T07:26:52.699Z</time></trkpt><trkpt lat="42.2820167" lon="13.9549133"><ele>265.0</ele><time>2026-05-02T07:26:53.7Z</time></trkpt><trkpt lat="42.281895" lon="13.9549283"><ele>263.0</ele><time>2026-05-02T07:26:54.7Z</time></trkpt><trkpt lat="42.28178" lon="13.9549317"><ele>261.0</ele><time>2026-05-02T07:26:55.699Z</time></trkpt><trkpt lat="42.2816667" lon="13.9549283"><ele>261.0</ele><time>2026-05-02T07:26:56.699Z</time></trkpt><trkpt lat="42.2815567" lon="13.9549067"><ele>261.0</ele><time>2026-05-02T07:26:57.699Z</time></trkpt><trkpt lat="42.2814583" lon="13.95486"><ele>261.0</ele><time>2026-05-02T07:26:58.699Z</time></trkpt><trkpt lat="42.2813633" lon="13.954785"><ele>261.0</ele><time>2026-05-02T07:26:59.7Z</time></trkpt><trkpt lat="42.281265" lon="13.9546817"><ele>260.25</ele><time>2026-05-02T07:27:00.699Z</time></trkpt><trkpt lat="42.2811633" lon="13.9545783"><ele>259.5</ele><time>2026-05-02T07:27:01.699Z</time></trkpt><trkpt lat="42.28106" lon="13.9544833"><ele>258.75</ele><time>2026-05-02T07:27:02.699Z</time></trkpt><trkpt lat="42.2809483" lon="13.9544033"><ele>258.0</ele><time>2026-05-02T07:27:03.699Z</time></trkpt><trkpt lat="42.280825" lon="13.9543433"><ele>258.0</ele><time>2026-05-02T07:27:04.7Z</time></trkpt><trkpt lat="42.2807083" lon="13.9542783"><ele>258.0</ele><time>2026-05-02T07:27:05.7Z</time></trkpt><trkpt lat="42.2805983" lon="13.9541983"><ele>258.0</ele><time>2026-05-02T07:27:06.7Z</time></trkpt><trkpt lat="42.2804917" lon="13.9541183"><ele>258.0</ele><time>2026-05-02T07:27:07.699Z</time></trkpt><trkpt lat="42.280385" lon="13.9540433"><ele>255.2</ele><time>2026-05-02T07:27:08.699Z</time></trkpt><trkpt lat="42.280275" lon="13.9539833"><ele>252.4</ele><time>2026-05-02T07:27:09.7Z</time></trkpt><trkpt lat="42.2801717" lon="13.9539417"><ele>249.59999999999997</ele><time>2026-05-02T07:27:10.7Z</time></trkpt><trkpt lat="42.2800683" lon="13.9539167"><ele>246.79999999999998</ele><time>2026-05-02T07:27:11.7Z</time></trkpt><trkpt lat="42.27996" lon="13.953915"><ele>244.0</ele><time>2026-05-02T07:27:12.7Z</time></trkpt><trkpt lat="42.27985" lon="13.9539133"><ele>243.79999999999998</ele><time>2026-05-02T07:27:13.699Z</time></trkpt><trkpt lat="42.2797467" lon="13.9538933"><ele>243.59999999999997</ele><time>2026-05-02T07:27:14.699Z</time></trkpt><trkpt lat="42.2796517" lon="13.9538567"><ele>243.4</ele><time>2026-05-02T07:27:15.699Z</time></trkpt><trkpt lat="42.2795583" lon="13.9538183"><ele>243.2</ele><time>2026-05-02T07:27:16.7Z</time></trkpt><trkpt lat="42.2794667" lon="13.9537817"><ele>243.0</ele><time>2026-05-02T07:27:17.699Z</time></trkpt><trkpt lat="42.27937" lon="13.9537383"><ele>243.0</ele><time>2026-05-02T07:27:18.7Z</time></trkpt><trkpt lat="42.2792717" lon="13.9537067"><ele>243.0</ele><time>2026-05-02T07:27:19.7Z</time></trkpt><trkpt lat="42.27917" lon="13.9536817"><ele>243.0</ele><time>2026-05-02T07:27:20.7Z</time></trkpt><trkpt lat="42.279065" lon="13.9536483"><ele>243.0</ele><time>2026-05-02T07:27:21.699Z</time></trkpt><trkpt lat="42.27896" lon="13.9536167"><ele>243.0</ele><time>2026-05-02T07:27:22.7Z</time></trkpt><trkpt lat="42.2788567" lon="13.9535867"><ele>244.0</ele><time>2026-05-02T07:27:23.699Z</time></trkpt><trkpt lat="42.27876" lon="13.953555"><ele>245.0</ele><time>2026-05-02T07:27:24.699Z</time></trkpt><trkpt lat="42.2786683" lon="13.95352"><ele>246.0</ele><time>2026-05-02T07:27:25.7Z</time></trkpt><trkpt lat="42.2785733" lon="13.9534883"><ele>247.0</ele><time>2026-05-02T07:27:26.7Z</time></trkpt><trkpt lat="42.2784733" lon="13.953455"><ele>248.0</ele><time>2026-05-02T07:27:27.699Z</time></trkpt><trkpt lat="42.27838" lon="13.9534267"><ele>248.00000000000003</ele><time>2026-05-02T07:27:28.7Z</time></trkpt><trkpt lat="42.2782883" lon="13.9533983"><ele>248.0</ele><time>2026-05-02T07:27:29.7Z</time></trkpt><trkpt lat="42.278205" lon="13.95337"><ele>248.0</ele><time>2026-05-02T07:27:30.699Z</time></trkpt><trkpt lat="42.2781167" lon="13.9533417"><ele>248.0</ele><time>2026-05-02T07:27:31.7Z</time></trkpt><trkpt lat="42.2780333" lon="13.953315"><ele>248.00000000000003</ele><time>2026-05-02T07:27:32.699Z</time></trkpt><trkpt lat="42.27795" lon="13.9532917"><ele>248.0</ele><time>2026-05-02T07:27:33.7Z</time></trkpt><trkpt lat="42.2778667" lon="13.9532717"><ele>246.16666666666669</ele><time>2026-05-02T07:27:34.699Z</time></trkpt><trkpt lat="42.2777767" lon="13.9532567"><ele>244.33333333333334</ele><time>2026-05-02T07:27:35.699Z</time></trkpt><trkpt lat="42.2776917" lon="13.9532317"><ele>242.5</ele><time>2026-05-02T07:27:36.7Z</time></trkpt><trkpt lat="42.27761" lon="13.95321"><ele>240.66666666666669</ele><time>2026-05-02T07:27:37.7Z</time></trkpt><trkpt lat="42.2775417" lon="13.9531833"><ele>238.83333333333334</ele><time>2026-05-02T07:27:38.699Z</time></trkpt><trkpt lat="42.2774317" lon="13.9531333"><ele>237.0</ele><time>2026-05-02T07:27:40.699Z</time></trkpt><trkpt lat="42.2773533" lon="13.9530917"><ele>237.0</ele><time>2026-05-02T07:27:42.699Z</time></trkpt><trkpt lat="42.2772083" lon="13.953005"><ele>237.0</ele><time>2026-05-02T07:28:14.699Z</time></trkpt><trkpt lat="42.2772683" lon="13.952955"><ele>237.0</ele><time>2026-05-02T07:28:19.699Z</time></trkpt><trkpt lat="42.2773517" lon="13.95298"><ele>237.0</ele><time>2026-05-02T07:28:22.699Z</time></trkpt><trkpt lat="42.2774183" lon="13.953"><ele>237.0</ele><time>2026-05-02T07:28:24.7Z</time></trkpt><trkpt lat="42.2775017" lon="13.9530217"><ele>237.0</ele><time>2026-05-02T07:28:26.7Z</time></trkpt><trkpt lat="42.2775983" lon="13.9530117"><ele>237.0</ele><time>2026-05-02T07:28:28.7Z</time></trkpt><trkpt lat="42.27769" lon="13.9529767"><ele>237.0</ele><time>2026-05-02T07:28:30.7Z</time></trkpt><trkpt lat="42.2777817" lon="13.9528917"><ele>237.0</ele><time>2026-05-02T07:28:32.699Z</time></trkpt><trkpt lat="42.2778333" lon="13.9527817"><ele>237.0</ele><time>2026-05-02T07:28:34.7Z</time></trkpt><trkpt lat="42.27784" lon="13.9526317"><ele>234.0</ele><time>2026-05-02T07:28:36.699Z</time></trkpt><trkpt lat="42.2778183" lon="13.9524917"><ele>231.0</ele><time>2026-05-02T07:28:38.7Z</time></trkpt><trkpt lat="42.277755" lon="13.9523767"><ele>228.0</ele><time>2026-05-02T07:28:40.699Z</time></trkpt><trkpt lat="42.277655" lon="13.9522933"><ele>225.0</ele><time>2026-05-02T07:28:42.7Z</time></trkpt><trkpt lat="42.2775433" lon="13.9522283"><ele>225.0</ele><time>2026-05-02T07:28:44.699Z</time></trkpt><trkpt lat="42.277435" lon="13.9521717"><ele>225.0</ele><time>2026-05-02T07:28:46.699Z</time></trkpt><trkpt lat="42.27736" lon="13.952105"><ele>225.0</ele><time>2026-05-02T07:28:48.699Z</time></trkpt><trkpt lat="42.2773367" lon="13.9519733"><ele>225.0</ele><time>2026-05-02T07:28:50.699Z</time></trkpt><trkpt lat="42.277335" lon="13.9518617"><ele>225.0</ele><time>2026-05-02T07:28:52.7Z</time></trkpt><trkpt lat="42.27734" lon="13.9517717"><ele>223.0</ele><time>2026-05-02T07:28:54.7Z</time></trkpt><trkpt lat="42.2773533" lon="13.9516717"><ele>221.0</ele><time>2026-05-02T07:28:57.7Z</time></trkpt><trkpt lat="42.2773667" lon="13.9515867"><ele>219.0</ele><time>2026-05-02T07:28:59.699Z</time></trkpt><trkpt lat="42.2774217" lon="13.9514933"><ele>217.0</ele><time>2026-05-02T07:29:02.7Z</time></trkpt><trkpt lat="42.27751" lon="13.9514717"><ele>215.0</ele><time>2026-05-02T07:29:05.7Z</time></trkpt><trkpt lat="42.2775783" lon="13.951485"><ele>213.0</ele><time>2026-05-02T07:29:07.699Z</time></trkpt><trkpt lat="42.277655" lon="13.9515033"><ele>212.99999999999997</ele><time>2026-05-02T07:29:09.699Z</time></trkpt><trkpt lat="42.2777333" lon="13.9514983"><ele>213.0</ele><time>2026-05-02T07:29:12.699Z</time></trkpt><trkpt lat="42.2777567" lon="13.951415"><ele>213.0</ele><time>2026-05-02T07:29:14.699Z</time></trkpt><trkpt lat="42.27774" lon="13.9513133"><ele>213.0</ele><time>2026-05-02T07:29:16.7Z</time></trkpt><trkpt lat="42.2776817" lon="13.951215"><ele>213.0</ele><time>2026-05-02T07:29:18.699Z</time></trkpt><trkpt lat="42.2776367" lon="13.9511517"><ele>212.99999999999997</ele><time>2026-05-02T07:29:19.699Z</time></trkpt><trkpt lat="42.2776017" lon="13.95108"><ele>213.0</ele><time>2026-05-02T07:29:20.7Z</time></trkpt><trkpt lat="42.27755" lon="13.9509633"><ele>211.0</ele><time>2026-05-02T07:29:22.7Z</time></trkpt><trkpt lat="42.2774917" lon="13.9508417"><ele>209.0</ele><time>2026-05-02T07:29:24.699Z</time></trkpt><trkpt lat="42.2774533" lon="13.9507733"><ele>207.0</ele><time>2026-05-02T07:29:25.699Z</time></trkpt><trkpt lat="42.2773867" lon="13.95064"><ele>205.0</ele><time>2026-05-02T07:29:27.699Z</time></trkpt><trkpt lat="42.2773517" lon="13.9505667"><ele>203.0</ele><time>2026-05-02T07:29:28.7Z</time></trkpt><trkpt lat="42.2773133" lon="13.9504883"><ele>201.0</ele><time>2026-05-02T07:29:29.7Z</time></trkpt><trkpt lat="42.2772683" lon="13.9504067"><ele>201.0</ele><time>2026-05-02T07:29:30.699Z</time></trkpt><trkpt lat="42.2772233" lon="13.9503317"><ele>201.0</ele><time>2026-05-02T07:29:31.699Z</time></trkpt><trkpt lat="42.2771767" lon="13.950265"><ele>201.0</ele><time>2026-05-02T07:29:32.7Z</time></trkpt><trkpt lat="42.27713" lon="13.9502033"><ele>201.0</ele><time>2026-05-02T07:29:33.699Z</time></trkpt><trkpt lat="42.2770483" lon="13.9501017"><ele>201.0</ele><time>2026-05-02T07:29:35.7Z</time></trkpt><trkpt lat="42.27697" lon="13.9500483"><ele>201.0</ele><time>2026-05-02T07:29:37.7Z</time></trkpt><trkpt lat="42.2769167" lon="13.94998"><ele>199.4</ele><time>2026-05-02T07:29:40.699Z</time></trkpt><trkpt lat="42.27696" lon="13.949875"><ele>197.8</ele><time>2026-05-02T07:29:43.699Z</time></trkpt><trkpt lat="42.2770683" lon="13.9498533"><ele>196.20000000000002</ele><time>2026-05-02T07:29:45.7Z</time></trkpt><trkpt lat="42.277185" lon="13.9498633"><ele>194.60000000000002</ele><time>2026-05-02T07:29:47.7Z</time></trkpt><trkpt lat="42.2772833" lon="13.9498417"><ele>193.0</ele><time>2026-05-02T07:29:49.7Z</time></trkpt><trkpt lat="42.2773567" lon="13.9497733"><ele>193.0</ele><time>2026-05-02T07:29:51.7Z</time></trkpt><trkpt lat="42.2773983" lon="13.9496483"><ele>193.0</ele><time>2026-05-02T07:29:53.7Z</time></trkpt><trkpt lat="42.2773883" lon="13.949475"><ele>193.0</ele><time>2026-05-02T07:29:55.699Z</time></trkpt><trkpt lat="42.27732" lon="13.949355"><ele>193.0</ele><time>2026-05-02T07:29:57.7Z</time></trkpt><trkpt lat="42.277255" lon="13.949325"><ele>193.0</ele><time>2026-05-02T07:29:58.7Z</time></trkpt><trkpt lat="42.2771717" lon="13.9493133"><ele>192.99999999999997</ele><time>2026-05-02T07:29:59.7Z</time></trkpt><trkpt lat="42.277095" lon="13.9492933"><ele>193.0</ele><time>2026-05-02T07:30:00.699Z</time></trkpt><trkpt lat="42.2770317" lon="13.9492567"><ele>193.0</ele><time>2026-05-02T07:30:01.699Z</time></trkpt><trkpt lat="42.276965" lon="13.949195"><ele>193.0</ele><time>2026-05-02T07:30:02.699Z</time></trkpt><trkpt lat="42.2768983" lon="13.9491183"><ele>192.99999999999997</ele><time>2026-05-02T07:30:03.699Z</time></trkpt><trkpt lat="42.2768233" lon="13.94904"><ele>193.0</ele><time>2026-05-02T07:30:04.699Z</time></trkpt><trkpt lat="42.2767617" lon="13.9489667"><ele>192.66666666666666</ele><time>2026-05-02T07:30:05.7Z</time></trkpt><trkpt lat="42.2767083" lon="13.948895"><ele>192.33333333333331</ele><time>2026-05-02T07:30:06.699Z</time></trkpt><trkpt lat="42.2766617" lon="13.9488133"><ele>192.0</ele><time>2026-05-02T07:30:07.699Z</time></trkpt><trkpt lat="42.27663" lon="13.948705"><ele>191.66666666666666</ele><time>2026-05-02T07:30:08.699Z</time></trkpt><trkpt lat="42.276595" lon="13.9485733"><ele>191.33333333333331</ele><time>2026-05-02T07:30:09.699Z</time></trkpt><trkpt lat="42.2765683" lon="13.9484317"><ele>191.0</ele><time>2026-05-02T07:30:10.699Z</time></trkpt><trkpt lat="42.2765467" lon="13.9482917"><ele>191.0</ele><time>2026-05-02T07:30:11.698Z</time></trkpt><trkpt lat="42.276525" lon="13.948135"><ele>191.0</ele><time>2026-05-02T07:30:12.698Z</time></trkpt><trkpt lat="42.2765017" lon="13.9479767"><ele>191.0</ele><time>2026-05-02T07:30:13.698Z</time></trkpt><trkpt lat="42.2764783" lon="13.94782"><ele>191.0</ele><time>2026-05-02T07:30:14.698Z</time></trkpt><trkpt lat="42.2764583" lon="13.9476667"><ele>192.25</ele><time>2026-05-02T07:30:15.699Z</time></trkpt><trkpt lat="42.2764367" lon="13.9475017"><ele>193.5</ele><time>2026-05-02T07:30:16.699Z</time></trkpt><trkpt lat="42.276405" lon="13.9473433"><ele>194.75</ele><time>2026-05-02T07:30:17.698Z</time></trkpt><trkpt lat="42.2763833" lon="13.9471817"><ele>196.0</ele><time>2026-05-02T07:30:18.699Z</time></trkpt><trkpt lat="42.276365" lon="13.94703"><ele>195.5</ele><time>2026-05-02T07:30:19.698Z</time></trkpt><trkpt lat="42.276345" lon="13.9468583"><ele>195.0</ele><time>2026-05-02T07:30:20.698Z</time></trkpt><trkpt lat="42.2763167" lon="13.9466783"><ele>194.5</ele><time>2026-05-02T07:30:21.698Z</time></trkpt><trkpt lat="42.2762883" lon="13.9465333"><ele>194.0</ele><time>2026-05-02T07:30:22.698Z</time></trkpt><trkpt lat="42.2762633" lon="13.9464067"><ele>194.0</ele><time>2026-05-02T07:30:23.698Z</time></trkpt><trkpt lat="42.27623" lon="13.9462983"><ele>194.0</ele><time>2026-05-02T07:30:24.698Z</time></trkpt><trkpt lat="42.2761817" lon="13.94621"><ele>194.0</ele><time>2026-05-02T07:30:25.699Z</time></trkpt><trkpt lat="42.2761083" lon="13.9461333"><ele>194.0</ele><time>2026-05-02T07:30:26.699Z</time></trkpt><trkpt lat="42.2760117" lon="13.9460733"><ele>194.0</ele><time>2026-05-02T07:30:27.699Z</time></trkpt><trkpt lat="42.27591" lon="13.946005"><ele>194.0</ele><time>2026-05-02T07:30:28.699Z</time></trkpt><trkpt lat="42.275805" lon="13.945935"><ele>194.0</ele><time>2026-05-02T07:30:29.699Z</time></trkpt><trkpt lat="42.2757067" lon="13.945875"><ele>194.0</ele><time>2026-05-02T07:30:30.698Z</time></trkpt><trkpt lat="42.2756317" lon="13.9458183"><ele>194.0</ele><time>2026-05-02T07:30:31.698Z</time></trkpt><trkpt lat="42.2755633" lon="13.9457683"><ele>194.0</ele><time>2026-05-02T07:30:32.698Z</time></trkpt><trkpt lat="42.2755067" lon="13.9457"><ele>193.79999999999998</ele><time>2026-05-02T07:30:33.698Z</time></trkpt><trkpt lat="42.275475" lon="13.9456167"><ele>193.6</ele><time>2026-05-02T07:30:34.698Z</time></trkpt><trkpt lat="42.2754917" lon="13.9454483"><ele>193.4</ele><time>2026-05-02T07:30:36.699Z</time></trkpt><trkpt lat="42.275565" lon="13.9453683"><ele>193.2</ele><time>2026-05-02T07:30:38.699Z</time></trkpt><trkpt lat="42.2756383" lon="13.9453467"><ele>193.0</ele><time>2026-05-02T07:30:39.698Z</time></trkpt><trkpt lat="42.2757617" lon="13.9453333"><ele>197.0</ele><time>2026-05-02T07:30:40.699Z</time></trkpt><trkpt lat="42.2758933" lon="13.945305"><ele>201.0</ele><time>2026-05-02T07:30:41.699Z</time></trkpt><trkpt lat="42.2760267" lon="13.9452667"><ele>205.0</ele><time>2026-05-02T07:30:42.699Z</time></trkpt><trkpt lat="42.2761717" lon="13.945235"><ele>209.0</ele><time>2026-05-02T07:30:43.699Z</time></trkpt><trkpt lat="42.2763283" lon="13.9452067"><ele>210.6</ele><time>2026-05-02T07:30:44.698Z</time></trkpt><trkpt lat="42.2764717" lon="13.9451767"><ele>212.2</ele><time>2026-05-02T07:30:45.699Z</time></trkpt><trkpt lat="42.27659" lon="13.9451533"><ele>213.79999999999998</ele><time>2026-05-02T07:30:46.699Z</time></trkpt><trkpt lat="42.2766883" lon="13.9451333"><ele>215.39999999999998</ele><time>2026-05-02T07:30:47.698Z</time></trkpt><trkpt lat="42.276765" lon="13.9451133"><ele>217.0</ele><time>2026-05-02T07:30:48.698Z</time></trkpt><trkpt lat="42.276835" lon="13.9450867"><ele>216.99999999999997</ele><time>2026-05-02T07:30:49.698Z</time></trkpt><trkpt lat="42.2768967" lon="13.94505"><ele>217.0</ele><time>2026-05-02T07:30:50.699Z</time></trkpt><trkpt lat="42.2769817" lon="13.94493"><ele>217.0</ele><time>2026-05-02T07:30:52.699Z</time></trkpt><trkpt lat="42.2770117" lon="13.944835"><ele>217.0</ele><time>2026-05-02T07:30:53.699Z</time></trkpt><trkpt lat="42.27703" lon="13.94474"><ele>216.99999999999997</ele><time>2026-05-02T07:30:54.698Z</time></trkpt><trkpt lat="42.2770517" lon="13.9446467"><ele>217.0</ele><time>2026-05-02T07:30:55.699Z</time></trkpt><trkpt lat="42.2770733" lon="13.9445583"><ele>218.0</ele><time>2026-05-02T07:30:56.699Z</time></trkpt><trkpt lat="42.2771067" lon="13.9444017"><ele>219.0</ele><time>2026-05-02T07:30:58.699Z</time></trkpt><trkpt lat="42.2771283" lon="13.944305"><ele>220.0</ele><time>2026-05-02T07:30:59.699Z</time></trkpt><trkpt lat="42.27715" lon="13.944185"><ele>221.0</ele><time>2026-05-02T07:31:00.699Z</time></trkpt><trkpt lat="42.2771733" lon="13.944045"><ele>222.0</ele><time>2026-05-02T07:31:01.699Z</time></trkpt><trkpt lat="42.2771867" lon="13.9439133"><ele>222.2</ele><time>2026-05-02T07:31:02.698Z</time></trkpt><trkpt lat="42.2771917" lon="13.9437883"><ele>222.39999999999998</ele><time>2026-05-02T07:31:03.699Z</time></trkpt><trkpt lat="42.277185" lon="13.94365"><ele>222.60000000000002</ele><time>2026-05-02T07:31:04.698Z</time></trkpt><trkpt lat="42.2771683" lon="13.9435217"><ele>222.8</ele><time>2026-05-02T07:31:05.699Z</time></trkpt><trkpt lat="42.277145" lon="13.9434117"><ele>223.0</ele><time>2026-05-02T07:31:06.698Z</time></trkpt><trkpt lat="42.2771133" lon="13.9433133"><ele>223.99999999999997</ele><time>2026-05-02T07:31:07.698Z</time></trkpt><trkpt lat="42.2770667" lon="13.94323"><ele>225.0</ele><time>2026-05-02T07:31:08.699Z</time></trkpt><trkpt lat="42.277015" lon="13.9431667"><ele>226.0</ele><time>2026-05-02T07:31:09.698Z</time></trkpt><trkpt lat="42.27696" lon="13.9431083"><ele>227.0</ele><time>2026-05-02T07:31:10.699Z</time></trkpt><trkpt lat="42.2768967" lon="13.94306"><ele>227.99999999999997</ele><time>2026-05-02T07:31:11.699Z</time></trkpt><trkpt lat="42.2768317" lon="13.9430267"><ele>229.0</ele><time>2026-05-02T07:31:12.698Z</time></trkpt><trkpt lat="42.2767283" lon="13.9429917"><ele>228.99999999999997</ele><time>2026-05-02T07:31:14.699Z</time></trkpt><trkpt lat="42.27665" lon="13.942975"><ele>229.0</ele><time>2026-05-02T07:31:16.698Z</time></trkpt><trkpt lat="42.2765383" lon="13.942945"><ele>229.0</ele><time>2026-05-02T07:31:18.698Z</time></trkpt><trkpt lat="42.2764683" lon="13.942935"><ele>229.0</ele><time>2026-05-02T07:31:19.699Z</time></trkpt><trkpt lat="42.276395" lon="13.942915"><ele>228.99999999999997</ele><time>2026-05-02T07:31:20.699Z</time></trkpt><trkpt lat="42.2763233" lon="13.9428917"><ele>229.0</ele><time>2026-05-02T07:31:21.698Z</time></trkpt><trkpt lat="42.2762567" lon="13.942865"><ele>229.49999999999997</ele><time>2026-05-02T07:31:22.698Z</time></trkpt><trkpt lat="42.2761967" lon="13.942835"><ele>230.0</ele><time>2026-05-02T07:31:23.698Z</time></trkpt><trkpt lat="42.276145" lon="13.9427783"><ele>230.5</ele><time>2026-05-02T07:31:24.699Z</time></trkpt><trkpt lat="42.276105" lon="13.942685"><ele>231.0</ele><time>2026-05-02T07:31:25.698Z</time></trkpt><trkpt lat="42.2760717" lon="13.9425733"><ele>231.49999999999997</ele><time>2026-05-02T07:31:26.698Z</time></trkpt><trkpt lat="42.276035" lon="13.942435"><ele>232.0</ele><time>2026-05-02T07:31:27.698Z</time></trkpt><trkpt lat="42.2759883" lon="13.9422883"><ele>232.0</ele><time>2026-05-02T07:31:28.698Z</time></trkpt><trkpt lat="42.2759467" lon="13.9421517"><ele>232.0</ele><time>2026-05-02T07:31:29.699Z</time></trkpt><trkpt lat="42.2759033" lon="13.94202"><ele>232.0</ele><time>2026-05-02T07:31:30.698Z</time></trkpt><trkpt lat="42.27586" lon="13.9419"><ele>232.0</ele><time>2026-05-02T07:31:31.699Z</time></trkpt><trkpt lat="42.2758217" lon="13.9417917"><ele>232.0</ele><time>2026-05-02T07:31:32.699Z</time></trkpt><trkpt lat="42.275785" lon="13.9417067"><ele>234.6</ele><time>2026-05-02T07:31:33.699Z</time></trkpt><trkpt lat="42.2757267" lon="13.9415683"><ele>237.2</ele><time>2026-05-02T07:31:35.698Z</time></trkpt><trkpt lat="42.2757067" lon="13.9414267"><ele>239.8</ele><time>2026-05-02T07:31:37.698Z</time></trkpt><trkpt lat="42.2756833" lon="13.94126"><ele>242.4</ele><time>2026-05-02T07:31:39.698Z</time></trkpt><trkpt lat="42.2756617" lon="13.9411633"><ele>245.0</ele><time>2026-05-02T07:31:40.698Z</time></trkpt><trkpt lat="42.275635" lon="13.9410633"><ele>245.00000000000003</ele><time>2026-05-02T07:31:41.698Z</time></trkpt><trkpt lat="42.2756117" lon="13.9409633"><ele>245.0</ele><time>2026-05-02T07:31:42.698Z</time></trkpt><trkpt lat="42.2755967" lon="13.9408583"><ele>245.0</ele><time>2026-05-02T07:31:43.699Z</time></trkpt><trkpt lat="42.2755917" lon="13.9407517"><ele>245.0</ele><time>2026-05-02T07:31:44.699Z</time></trkpt><trkpt lat="42.27559" lon="13.9406433"><ele>245.00000000000003</ele><time>2026-05-02T07:31:45.699Z</time></trkpt><trkpt lat="42.2756" lon="13.940545"><ele>245.0</ele><time>2026-05-02T07:31:46.698Z</time></trkpt><trkpt lat="42.27561" lon="13.9404517"><ele>245.50000000000003</ele><time>2026-05-02T07:31:47.698Z</time></trkpt><trkpt lat="42.275625" lon="13.940355"><ele>246.0</ele><time>2026-05-02T07:31:48.698Z</time></trkpt><trkpt lat="42.2756367" lon="13.940265"><ele>246.5</ele><time>2026-05-02T07:31:49.699Z</time></trkpt><trkpt lat="42.2756517" lon="13.94012"><ele>247.0</ele><time>2026-05-02T07:31:51.699Z</time></trkpt><trkpt lat="42.2755983" lon="13.9400717"><ele>247.50000000000003</ele><time>2026-05-02T07:31:54.699Z</time></trkpt><trkpt lat="42.2754917" lon="13.9401233"><ele>248.0</ele><time>2026-05-02T07:31:56.699Z</time></trkpt><trkpt lat="42.2754117" lon="13.9401717"><ele>244.8</ele><time>2026-05-02T07:31:57.698Z</time></trkpt><trkpt lat="42.2753183" lon="13.9402217"><ele>241.60000000000002</ele><time>2026-05-02T07:31:58.698Z</time></trkpt><trkpt lat="42.2752267" lon="13.940275"><ele>238.39999999999998</ele><time>2026-05-02T07:31:59.699Z</time></trkpt><trkpt lat="42.2751333" lon="13.9403417"><ele>235.2</ele><time>2026-05-02T07:32:00.698Z</time></trkpt><trkpt lat="42.2750433" lon="13.940405"><ele>232.0</ele><time>2026-05-02T07:32:01.698Z</time></trkpt><trkpt lat="42.2749567" lon="13.940465"><ele>232.0</ele><time>2026-05-02T07:32:02.698Z</time></trkpt><trkpt lat="42.27487" lon="13.9405233"><ele>232.0</ele><time>2026-05-02T07:32:03.698Z</time></trkpt><trkpt lat="42.2747783" lon="13.94058"><ele>232.0</ele><time>2026-05-02T07:32:04.698Z</time></trkpt><trkpt lat="42.2746715" lon="13.9406376"><ele>232.0</ele><time>2026-05-02T07:32:05.699Z</time></trkpt><trkpt lat="42.2745555" lon="13.9406897"><ele>232.0</ele><time>2026-05-02T07:32:06.699Z</time></trkpt><trkpt lat="42.2744462" lon="13.9407309"><ele>230.0</ele><time>2026-05-02T07:32:07.698Z</time></trkpt><trkpt lat="42.2743507" lon="13.9407635"><ele>228.0</ele><time>2026-05-02T07:32:08.698Z</time></trkpt><trkpt lat="42.2742592" lon="13.9407922"><ele>226.0</ele><time>2026-05-02T07:32:09.699Z</time></trkpt><trkpt lat="42.2741672" lon="13.9408115"><ele>224.0</ele><time>2026-05-02T07:32:10.698Z</time></trkpt><trkpt lat="42.2740756" lon="13.9408169"><ele>222.0</ele><time>2026-05-02T07:32:11.699Z</time></trkpt><trkpt lat="42.2739896" lon="13.9408054"><ele>219.2</ele><time>2026-05-02T07:32:12.698Z</time></trkpt><trkpt lat="42.2739038" lon="13.9407846"><ele>216.39999999999998</ele><time>2026-05-02T07:32:13.698Z</time></trkpt><trkpt lat="42.2738169" lon="13.9407588"><ele>213.60000000000002</ele><time>2026-05-02T07:32:14.698Z</time></trkpt><trkpt lat="42.2737252" lon="13.9407316"><ele>210.8</ele><time>2026-05-02T07:32:15.698Z</time></trkpt><trkpt lat="42.273629" lon="13.9407037"><ele>208.0</ele><time>2026-05-02T07:32:16.699Z</time></trkpt><trkpt lat="42.2735306" lon="13.9406767"><ele>208.0</ele><time>2026-05-02T07:32:17.699Z</time></trkpt><trkpt lat="42.273431" lon="13.940647"><ele>208.0</ele><time>2026-05-02T07:32:18.698Z</time></trkpt><trkpt lat="42.2733252" lon="13.9406244"><ele>208.0</ele><time>2026-05-02T07:32:19.699Z</time></trkpt><trkpt lat="42.2732118" lon="13.9406109"><ele>208.0</ele><time>2026-05-02T07:32:20.699Z</time></trkpt><trkpt lat="42.2730935" lon="13.9405893"><ele>208.0</ele><time>2026-05-02T07:32:21.699Z</time></trkpt><trkpt lat="42.2729764" lon="13.9405617"><ele>205.8</ele><time>2026-05-02T07:32:22.698Z</time></trkpt><trkpt lat="42.2728609" lon="13.9405377"><ele>203.60000000000002</ele><time>2026-05-02T07:32:23.699Z</time></trkpt><trkpt lat="42.2727544" lon="13.9405149"><ele>201.39999999999998</ele><time>2026-05-02T07:32:24.699Z</time></trkpt><trkpt lat="42.27266" lon="13.940503"><ele>199.2</ele><time>2026-05-02T07:32:25.698Z</time></trkpt><trkpt lat="42.2725768" lon="13.9404952"><ele>197.0</ele><time>2026-05-02T07:32:26.698Z</time></trkpt><trkpt lat="42.2725064" lon="13.9404836"><ele>197.0</ele><time>2026-05-02T07:32:27.699Z</time></trkpt><trkpt lat="42.2724111" lon="13.9404202"><ele>197.0</ele><time>2026-05-02T07:32:29.698Z</time></trkpt><trkpt lat="42.2724016" lon="13.9403189"><ele>197.0</ele><time>2026-05-02T07:32:31.699Z</time></trkpt><trkpt lat="42.2724833" lon="13.940176"><ele>197.0</ele><time>2026-05-02T07:32:33.699Z</time></trkpt><trkpt lat="42.2725513" lon="13.9400866"><ele>197.0</ele><time>2026-05-02T07:32:34.698Z</time></trkpt><trkpt lat="42.2726284" lon="13.9399904"><ele>196.8</ele><time>2026-05-02T07:32:35.698Z</time></trkpt><trkpt lat="42.2727053" lon="13.9398973"><ele>196.6</ele><time>2026-05-02T07:32:36.699Z</time></trkpt><trkpt lat="42.2727806" lon="13.9398116"><ele>196.4</ele><time>2026-05-02T07:32:37.698Z</time></trkpt><trkpt lat="42.2728471" lon="13.9397271"><ele>196.20000000000002</ele><time>2026-05-02T07:32:38.699Z</time></trkpt><trkpt lat="42.2729059" lon="13.9396445"><ele>196.0</ele><time>2026-05-02T07:32:39.698Z</time></trkpt><trkpt lat="42.2729509" lon="13.93956"><ele>196.0</ele><time>2026-05-02T07:32:40.699Z</time></trkpt><trkpt lat="42.2729714" lon="13.9394766"><ele>196.0</ele><time>2026-05-02T07:32:41.699Z</time></trkpt><trkpt lat="42.2729716" lon="13.9393827"><ele>196.0</ele><time>2026-05-02T07:32:42.699Z</time></trkpt><trkpt lat="42.2729546" lon="13.9392892"><ele>196.0</ele><time>2026-05-02T07:32:43.699Z</time></trkpt><trkpt lat="42.2729228" lon="13.9392036"><ele>196.0</ele><time>2026-05-02T07:32:44.698Z</time></trkpt><trkpt lat="42.2728782" lon="13.9391188"><ele>196.0</ele><time>2026-05-02T07:32:45.699Z</time></trkpt><trkpt lat="42.2728215" lon="13.9390289"><ele>196.0</ele><time>2026-05-02T07:32:46.699Z</time></trkpt><trkpt lat="42.2727533" lon="13.9389324"><ele>194.60000000000002</ele><time>2026-05-02T07:32:47.699Z</time></trkpt><trkpt lat="42.272683" lon="13.9388401"><ele>193.2</ele><time>2026-05-02T07:32:48.698Z</time></trkpt><trkpt lat="42.2726205" lon="13.9387536"><ele>191.8</ele><time>2026-05-02T07:32:49.698Z</time></trkpt><trkpt lat="42.2725581" lon="13.9386703"><ele>190.39999999999998</ele><time>2026-05-02T07:32:50.698Z</time></trkpt><trkpt lat="42.2724796" lon="13.9386022"><ele>189.0</ele><time>2026-05-02T07:32:51.699Z</time></trkpt><trkpt lat="42.2723879" lon="13.9385457"><ele>189.0</ele><time>2026-05-02T07:32:52.698Z</time></trkpt><trkpt lat="42.2722873" lon="13.9384967"><ele>189.0</ele><time>2026-05-02T07:32:53.699Z</time></trkpt><trkpt lat="42.2721875" lon="13.9384564"><ele>189.0</ele><time>2026-05-02T07:32:54.698Z</time></trkpt><trkpt lat="42.2720915" lon="13.9384239"><ele>189.0</ele><time>2026-05-02T07:32:55.699Z</time></trkpt><trkpt lat="42.2720035" lon="13.9384019"><ele>189.0</ele><time>2026-05-02T07:32:56.698Z</time></trkpt><trkpt lat="42.2719273" lon="13.9383936"><ele>187.79999999999998</ele><time>2026-05-02T07:32:57.699Z</time></trkpt><trkpt lat="42.2718195" lon="13.9383857"><ele>186.6</ele><time>2026-05-02T07:32:59.699Z</time></trkpt><trkpt lat="42.2717531" lon="13.9382995"><ele>185.4</ele><time>2026-05-02T07:33:01.699Z</time></trkpt><trkpt lat="42.2717172" lon="13.9381281"><ele>184.2</ele><time>2026-05-02T07:33:03.699Z</time></trkpt><trkpt lat="42.2717006" lon="13.9380239"><ele>183.0</ele><time>2026-05-02T07:33:04.699Z</time></trkpt><trkpt lat="42.2716728" lon="13.9379411"><ele>181.5</ele><time>2026-05-02T07:33:05.699Z</time></trkpt><trkpt lat="42.2716312" lon="13.9378755"><ele>180.0</ele><time>2026-05-02T07:33:06.698Z</time></trkpt><trkpt lat="42.2715699" lon="13.9378399"><ele>178.5</ele><time>2026-05-02T07:33:07.699Z</time></trkpt><trkpt lat="42.2714867" lon="13.9378261"><ele>177.0</ele><time>2026-05-02T07:33:08.699Z</time></trkpt><trkpt lat="42.2713867" lon="13.937837"><ele>175.5</ele><time>2026-05-02T07:33:09.699Z</time></trkpt><trkpt lat="42.2712896" lon="13.9378577"><ele>174.0</ele><time>2026-05-02T07:33:10.699Z</time></trkpt><trkpt lat="42.2712063" lon="13.9378859"><ele>173.39999999999998</ele><time>2026-05-02T07:33:11.699Z</time></trkpt><trkpt lat="42.2711312" lon="13.9379389"><ele>172.8</ele><time>2026-05-02T07:33:12.698Z</time></trkpt><trkpt lat="42.2710647" lon="13.9380131"><ele>172.2</ele><time>2026-05-02T07:33:13.698Z</time></trkpt><trkpt lat="42.2710071" lon="13.9381197"><ele>171.60000000000002</ele><time>2026-05-02T07:33:14.698Z</time></trkpt><trkpt lat="42.270951" lon="13.938251"><ele>171.0</ele><time>2026-05-02T07:33:15.699Z</time></trkpt><trkpt lat="42.2709015" lon="13.9383972"><ele>171.0</ele><time>2026-05-02T07:33:16.699Z</time></trkpt><trkpt lat="42.2708594" lon="13.9385484"><ele>171.0</ele><time>2026-05-02T07:33:17.698Z</time></trkpt><trkpt lat="42.2708239" lon="13.9386962"><ele>171.0</ele><time>2026-05-02T07:33:18.698Z</time></trkpt><trkpt lat="42.2707858" lon="13.9388499"><ele>171.0</ele><time>2026-05-02T07:33:19.698Z</time></trkpt><trkpt lat="42.2707487" lon="13.9389948"><ele>171.0</ele><time>2026-05-02T07:33:20.699Z</time></trkpt><trkpt lat="42.2707122" lon="13.9391352"><ele>171.0</ele><time>2026-05-02T07:33:21.699Z</time></trkpt><trkpt lat="42.2706862" lon="13.9392815"><ele>171.0</ele><time>2026-05-02T07:33:22.698Z</time></trkpt><trkpt lat="42.2706675" lon="13.9394243"><ele>171.0</ele><time>2026-05-02T07:33:23.698Z</time></trkpt><trkpt lat="42.2706448" lon="13.939569"><ele>171.0</ele><time>2026-05-02T07:33:24.699Z</time></trkpt><trkpt lat="42.2706159" lon="13.9397219"><ele>167.5</ele><time>2026-05-02T07:33:25.699Z</time></trkpt><trkpt lat="42.2705668" lon="13.939871"><ele>164.0</ele><time>2026-05-02T07:33:26.699Z</time></trkpt><trkpt lat="42.2705107" lon="13.9400255"><ele>160.5</ele><time>2026-05-02T07:33:27.699Z</time></trkpt><trkpt lat="42.2704503" lon="13.9401788"><ele>157.0</ele><time>2026-05-02T07:33:28.699Z</time></trkpt><trkpt lat="42.2703922" lon="13.9403207"><ele>157.0</ele><time>2026-05-02T07:33:29.699Z</time></trkpt><trkpt lat="42.2703426" lon="13.9404669"><ele>157.0</ele><time>2026-05-02T07:33:30.699Z</time></trkpt><trkpt lat="42.2702932" lon="13.9406117"><ele>157.0</ele><time>2026-05-02T07:33:31.698Z</time></trkpt><trkpt lat="42.2702453" lon="13.9407469"><ele>157.0</ele><time>2026-05-02T07:33:32.699Z</time></trkpt><trkpt lat="42.2701978" lon="13.9408745"><ele>157.0</ele><time>2026-05-02T07:33:33.699Z</time></trkpt><trkpt lat="42.2701566" lon="13.9409954"><ele>157.0</ele><time>2026-05-02T07:33:34.699Z</time></trkpt><trkpt lat="42.2701236" lon="13.9411031"><ele>157.0</ele><time>2026-05-02T07:33:35.699Z</time></trkpt><trkpt lat="42.2700871" lon="13.9411968"><ele>157.0</ele><time>2026-05-02T07:33:36.698Z</time></trkpt><trkpt lat="42.2700403" lon="13.9412763"><ele>157.0</ele><time>2026-05-02T07:33:37.698Z</time></trkpt><trkpt lat="42.2699896" lon="13.9413521"><ele>157.0</ele><time>2026-05-02T07:33:38.699Z</time></trkpt><trkpt lat="42.2699417" lon="13.941435"><ele>157.0</ele><time>2026-05-02T07:33:39.698Z</time></trkpt><trkpt lat="42.2699133" lon="13.9415267"><ele>157.0</ele><time>2026-05-02T07:33:40.698Z</time></trkpt><trkpt lat="42.2699" lon="13.9416333"><ele>157.0</ele><time>2026-05-02T07:33:41.699Z</time></trkpt><trkpt lat="42.269905" lon="13.9417617"><ele>157.0</ele><time>2026-05-02T07:33:42.698Z</time></trkpt><trkpt lat="42.2699183" lon="13.9418917"><ele>157.0</ele><time>2026-05-02T07:33:43.699Z</time></trkpt><trkpt lat="42.26993" lon="13.9420083"><ele>157.0</ele><time>2026-05-02T07:33:44.698Z</time></trkpt><trkpt lat="42.2699233" lon="13.9421133"><ele>156.33333333333334</ele><time>2026-05-02T07:33:45.699Z</time></trkpt><trkpt lat="42.2699067" lon="13.9422"><ele>155.66666666666669</ele><time>2026-05-02T07:33:46.699Z</time></trkpt><trkpt lat="42.2698683" lon="13.9422767"><ele>155.0</ele><time>2026-05-02T07:33:47.698Z</time></trkpt><trkpt lat="42.2698" lon="13.9423267"><ele>154.33333333333334</ele><time>2026-05-02T07:33:48.699Z</time></trkpt><trkpt lat="42.26973" lon="13.942365"><ele>153.66666666666666</ele><time>2026-05-02T07:33:49.698Z</time></trkpt><trkpt lat="42.269655" lon="13.9423983"><ele>153.0</ele><time>2026-05-02T07:33:50.698Z</time></trkpt><trkpt lat="42.2695617" lon="13.9424317"><ele>152.20000000000002</ele><time>2026-05-02T07:33:51.699Z</time></trkpt><trkpt lat="42.2694567" lon="13.94247"><ele>151.4</ele><time>2026-05-02T07:33:52.699Z</time></trkpt><trkpt lat="42.2693517" lon="13.9424983"><ele>150.60000000000002</ele><time>2026-05-02T07:33:53.698Z</time></trkpt><trkpt lat="42.2692517" lon="13.94253"><ele>149.8</ele><time>2026-05-02T07:33:54.699Z</time></trkpt><trkpt lat="42.269155" lon="13.9425617"><ele>149.0</ele><time>2026-05-02T07:33:55.699Z</time></trkpt><trkpt lat="42.2690683" lon="13.9425867"><ele>149.0</ele><time>2026-05-02T07:33:56.698Z</time></trkpt><trkpt lat="42.2689867" lon="13.9426117"><ele>149.0</ele><time>2026-05-02T07:33:57.697Z</time></trkpt><trkpt lat="42.2689167" lon="13.9426317"><ele>149.0</ele><time>2026-05-02T07:33:58.698Z</time></trkpt><trkpt lat="42.2688117" lon="13.9426667"><ele>149.0</ele><time>2026-05-02T07:34:00.697Z</time></trkpt><trkpt lat="42.268715" lon="13.9426833"><ele>149.0</ele><time>2026-05-02T07:34:02.697Z</time></trkpt><trkpt lat="42.2686483" lon="13.9426783"><ele>149.0</ele><time>2026-05-02T07:34:03.697Z</time></trkpt><trkpt lat="42.2685717" lon="13.9426717"><ele>148.83333333333331</ele><time>2026-05-02T07:34:04.698Z</time></trkpt><trkpt lat="42.2684967" lon="13.9426567"><ele>148.66666666666666</ele><time>2026-05-02T07:34:05.697Z</time></trkpt><trkpt lat="42.2684283" lon="13.9426233"><ele>148.5</ele><time>2026-05-02T07:34:06.697Z</time></trkpt><trkpt lat="42.2683633" lon="13.94258"><ele>148.33333333333334</ele><time>2026-05-02T07:34:07.697Z</time></trkpt><trkpt lat="42.2682917" lon="13.9425267"><ele>148.16666666666669</ele><time>2026-05-02T07:34:08.697Z</time></trkpt><trkpt lat="42.268225" lon="13.9424483"><ele>148.0</ele><time>2026-05-02T07:34:09.697Z</time></trkpt><trkpt lat="42.2681667" lon="13.94238"><ele>148.0</ele><time>2026-05-02T07:34:10.697Z</time></trkpt><trkpt lat="42.26811" lon="13.9423367"><ele>148.0</ele><time>2026-05-02T07:34:11.698Z</time></trkpt><trkpt lat="42.2680483" lon="13.942315"><ele>148.0</ele><time>2026-05-02T07:34:12.698Z</time></trkpt><trkpt lat="42.2679733" lon="13.9423217"><ele>148.0</ele><time>2026-05-02T07:34:13.698Z</time></trkpt><trkpt lat="42.2678933" lon="13.942345"><ele>148.0</ele><time>2026-05-02T07:34:14.698Z</time></trkpt><trkpt lat="42.267825" lon="13.9423433"><ele>148.0</ele><time>2026-05-02T07:34:15.697Z</time></trkpt><trkpt lat="42.2677317" lon="13.9422733"><ele>149.42857142857144</ele><time>2026-05-02T07:34:17.698Z</time></trkpt><trkpt lat="42.2677067" lon="13.9421267"><ele>150.85714285714286</ele><time>2026-05-02T07:34:19.698Z</time></trkpt><trkpt lat="42.267695" lon="13.94204"><ele>152.28571428571428</ele><time>2026-05-02T07:34:20.697Z</time></trkpt><trkpt lat="42.26769" lon="13.9419433"><ele>153.71428571428572</ele><time>2026-05-02T07:34:21.698Z</time></trkpt><trkpt lat="42.2676767" lon="13.941855"><ele>155.14285714285714</ele><time>2026-05-02T07:34:22.698Z</time></trkpt><trkpt lat="42.2676583" lon="13.9417733"><ele>156.57142857142858</ele><time>2026-05-02T07:34:23.697Z</time></trkpt><trkpt lat="42.2676333" lon="13.9416933"><ele>158.0</ele><time>2026-05-02T07:34:24.697Z</time></trkpt><trkpt lat="42.267585" lon="13.94156"><ele>158.00000000000003</ele><time>2026-05-02T07:34:26.698Z</time></trkpt><trkpt lat="42.2675617" lon="13.94148"><ele>158.0</ele><time>2026-05-02T07:34:27.698Z</time></trkpt><trkpt lat="42.2675267" lon="13.9413983"><ele>158.0</ele><time>2026-05-02T07:34:28.698Z</time></trkpt><trkpt lat="42.2674767" lon="13.9413217"><ele>158.0</ele><time>2026-05-02T07:34:29.698Z</time></trkpt><trkpt lat="42.26743" lon="13.9412583"><ele>158.0</ele><time>2026-05-02T07:34:30.697Z</time></trkpt><trkpt lat="42.2673817" lon="13.9411983"><ele>158.00000000000003</ele><time>2026-05-02T07:34:31.698Z</time></trkpt><trkpt lat="42.2673333" lon="13.94113"><ele>158.0</ele><time>2026-05-02T07:34:32.697Z</time></trkpt><trkpt lat="42.2672933" lon="13.9410517"><ele>160.5</ele><time>2026-05-02T07:34:33.698Z</time></trkpt><trkpt lat="42.2672317" lon="13.94091"><ele>163.0</ele><time>2026-05-02T07:34:35.698Z</time></trkpt><trkpt lat="42.26719" lon="13.940845"><ele>165.5</ele><time>2026-05-02T07:34:36.697Z</time></trkpt><trkpt lat="42.26715" lon="13.9407733"><ele>168.0</ele><time>2026-05-02T07:34:37.697Z</time></trkpt><trkpt lat="42.2671117" lon="13.9407"><ele>170.5</ele><time>2026-05-02T07:34:38.697Z</time></trkpt><trkpt lat="42.2670817" lon="13.940625"><ele>173.0</ele><time>2026-05-02T07:34:39.697Z</time></trkpt><trkpt lat="42.2670433" lon="13.9405433"><ele>173.14285714285714</ele><time>2026-05-02T07:34:40.698Z</time></trkpt><trkpt lat="42.267005" lon="13.94046"><ele>173.2857142857143</ele><time>2026-05-02T07:34:41.697Z</time></trkpt><trkpt lat="42.2669683" lon="13.9403767"><ele>173.42857142857144</ele><time>2026-05-02T07:34:42.698Z</time></trkpt><trkpt lat="42.26694" lon="13.9402967"><ele>173.57142857142856</ele><time>2026-05-02T07:34:43.697Z</time></trkpt><trkpt lat="42.266915" lon="13.9402183"><ele>173.71428571428572</ele><time>2026-05-02T07:34:44.698Z</time></trkpt><trkpt lat="42.2668533" lon="13.9401383"><ele>173.85714285714286</ele><time>2026-05-02T07:34:46.697Z</time></trkpt><trkpt lat="42.2667767" lon="13.9401583"><ele>174.0</ele><time>2026-05-02T07:34:48.697Z</time></trkpt><trkpt lat="42.2667117" lon="13.9402967"><ele>174.0</ele><time>2026-05-02T07:34:50.697Z</time></trkpt><trkpt lat="42.2666833" lon="13.9403967"><ele>174.0</ele><time>2026-05-02T07:34:51.697Z</time></trkpt><trkpt lat="42.266655" lon="13.9405017"><ele>174.0</ele><time>2026-05-02T07:34:52.697Z</time></trkpt><trkpt lat="42.2666167" lon="13.94062"><ele>174.0</ele><time>2026-05-02T07:34:53.698Z</time></trkpt><trkpt lat="42.26657" lon="13.9407533"><ele>174.0</ele><time>2026-05-02T07:34:54.697Z</time></trkpt><trkpt lat="42.2665183" lon="13.9408933"><ele>173.79999999999998</ele><time>2026-05-02T07:34:55.698Z</time></trkpt><trkpt lat="42.266475" lon="13.9410267"><ele>173.6</ele><time>2026-05-02T07:34:56.697Z</time></trkpt><trkpt lat="42.2664267" lon="13.9411717"><ele>173.4</ele><time>2026-05-02T07:34:57.698Z</time></trkpt><trkpt lat="42.2663817" lon="13.941305"><ele>173.2</ele><time>2026-05-02T07:34:58.698Z</time></trkpt><trkpt lat="42.266355" lon="13.9414167"><ele>173.0</ele><time>2026-05-02T07:34:59.697Z</time></trkpt><trkpt lat="42.2663383" lon="13.9415233"><ele>176.33333333333331</ele><time>2026-05-02T07:35:00.698Z</time></trkpt><trkpt lat="42.2663367" lon="13.941625"><ele>179.66666666666666</ele><time>2026-05-02T07:35:01.697Z</time></trkpt><trkpt lat="42.26635" lon="13.94174"><ele>183.0</ele><time>2026-05-02T07:35:02.698Z</time></trkpt><trkpt lat="42.2663733" lon="13.94186"><ele>186.33333333333331</ele><time>2026-05-02T07:35:03.698Z</time></trkpt><trkpt lat="42.2663867" lon="13.94198"><ele>189.66666666666666</ele><time>2026-05-02T07:35:04.698Z</time></trkpt><trkpt lat="42.2664" lon="13.9420917"><ele>193.0</ele><time>2026-05-02T07:35:05.698Z</time></trkpt><trkpt lat="42.266415" lon="13.9422"><ele>193.66666666666666</ele><time>2026-05-02T07:35:06.698Z</time></trkpt><trkpt lat="42.2664267" lon="13.9423017"><ele>194.33333333333331</ele><time>2026-05-02T07:35:07.697Z</time></trkpt><trkpt lat="42.2664367" lon="13.9424183"><ele>195.0</ele><time>2026-05-02T07:35:08.698Z</time></trkpt><trkpt lat="42.2664467" lon="13.9425333"><ele>195.66666666666669</ele><time>2026-05-02T07:35:09.697Z</time></trkpt><trkpt lat="42.2664683" lon="13.9426533"><ele>196.33333333333334</ele><time>2026-05-02T07:35:10.697Z</time></trkpt><trkpt lat="42.26649" lon="13.9427867"><ele>197.0</ele><time>2026-05-02T07:35:11.697Z</time></trkpt><trkpt lat="42.26651" lon="13.94292"><ele>196.83333333333334</ele><time>2026-05-02T07:35:12.698Z</time></trkpt><trkpt lat="42.2665167" lon="13.9430367"><ele>196.66666666666669</ele><time>2026-05-02T07:35:13.697Z</time></trkpt><trkpt lat="42.2665233" lon="13.9431367"><ele>196.5</ele><time>2026-05-02T07:35:14.697Z</time></trkpt><trkpt lat="42.2665167" lon="13.9432567"><ele>196.33333333333331</ele><time>2026-05-02T07:35:16.697Z</time></trkpt><trkpt lat="42.2664317" lon="13.9432883"><ele>196.16666666666666</ele><time>2026-05-02T07:35:19.697Z</time></trkpt><trkpt lat="42.2663417" lon="13.9432917"><ele>196.0</ele><time>2026-05-02T07:35:21.698Z</time></trkpt><trkpt lat="42.2662717" lon="13.9433017"><ele>195.99999999999997</ele><time>2026-05-02T07:35:22.698Z</time></trkpt><trkpt lat="42.2661867" lon="13.9433117"><ele>196.0</ele><time>2026-05-02T07:35:23.698Z</time></trkpt><trkpt lat="42.2661033" lon="13.943315"><ele>196.0</ele><time>2026-05-02T07:35:24.697Z</time></trkpt><trkpt lat="42.2660217" lon="13.9433217"><ele>196.0</ele><time>2026-05-02T07:35:25.698Z</time></trkpt><trkpt lat="42.26595" lon="13.943325"><ele>195.99999999999997</ele><time>2026-05-02T07:35:26.698Z</time></trkpt><trkpt lat="42.2658633" lon="13.9433267"><ele>196.0</ele><time>2026-05-02T07:35:27.698Z</time></trkpt><trkpt lat="42.2657733" lon="13.943315"><ele>195.99999999999997</ele><time>2026-05-02T07:35:28.698Z</time></trkpt><trkpt lat="42.265695" lon="13.943285"><ele>196.0</ele><time>2026-05-02T07:35:29.697Z</time></trkpt><trkpt lat="42.2656217" lon="13.943225"><ele>196.0</ele><time>2026-05-02T07:35:30.697Z</time></trkpt><trkpt lat="42.2655467" lon="13.9431533"><ele>196.0</ele><time>2026-05-02T07:35:31.697Z</time></trkpt><trkpt lat="42.2654783" lon="13.9430817"><ele>195.99999999999997</ele><time>2026-05-02T07:35:32.697Z</time></trkpt><trkpt lat="42.2654167" lon="13.9430183"><ele>196.0</ele><time>2026-05-02T07:35:33.698Z</time></trkpt><trkpt lat="42.2653417" lon="13.9428817"><ele>195.42857142857142</ele><time>2026-05-02T07:35:35.698Z</time></trkpt><trkpt lat="42.2653133" lon="13.942805"><ele>194.85714285714286</ele><time>2026-05-02T07:35:36.698Z</time></trkpt><trkpt lat="42.2652833" lon="13.9427167"><ele>194.28571428571428</ele><time>2026-05-02T07:35:37.698Z</time></trkpt><trkpt lat="42.26525" lon="13.942625"><ele>193.71428571428572</ele><time>2026-05-02T07:35:38.697Z</time></trkpt><trkpt lat="42.2652083" lon="13.9425333"><ele>193.14285714285714</ele><time>2026-05-02T07:35:39.698Z</time></trkpt><trkpt lat="42.2651733" lon="13.94244"><ele>192.57142857142856</ele><time>2026-05-02T07:35:40.697Z</time></trkpt><trkpt lat="42.2651383" lon="13.942355"><ele>192.0</ele><time>2026-05-02T07:35:41.697Z</time></trkpt><trkpt lat="42.2651033" lon="13.9422667"><ele>194.14285714285714</ele><time>2026-05-02T07:35:42.698Z</time></trkpt><trkpt lat="42.2650717" lon="13.94218"><ele>196.28571428571428</ele><time>2026-05-02T07:35:43.697Z</time></trkpt><trkpt lat="42.265035" lon="13.9421"><ele>198.42857142857144</ele><time>2026-05-02T07:35:44.697Z</time></trkpt><trkpt lat="42.2650017" lon="13.942025"><ele>200.57142857142856</ele><time>2026-05-02T07:35:45.698Z</time></trkpt><trkpt lat="42.2649683" lon="13.94195"><ele>202.71428571428572</ele><time>2026-05-02T07:35:46.697Z</time></trkpt><trkpt lat="42.2649267" lon="13.94186"><ele>204.85714285714286</ele><time>2026-05-02T07:35:47.697Z</time></trkpt><trkpt lat="42.2648833" lon="13.9417683"><ele>207.0</ele><time>2026-05-02T07:35:48.697Z</time></trkpt><trkpt lat="42.26484" lon="13.9416833"><ele>207.5</ele><time>2026-05-02T07:35:49.698Z</time></trkpt><trkpt lat="42.2648017" lon="13.9415967"><ele>208.0</ele><time>2026-05-02T07:35:50.697Z</time></trkpt><trkpt lat="42.264775" lon="13.9415033"><ele>208.5</ele><time>2026-05-02T07:35:51.698Z</time></trkpt><trkpt lat="42.2647517" lon="13.9414067"><ele>209.0</ele><time>2026-05-02T07:35:52.698Z</time></trkpt><trkpt lat="42.2647383" lon="13.9413033"><ele>209.5</ele><time>2026-05-02T07:35:53.697Z</time></trkpt><trkpt lat="42.2647333" lon="13.9412033"><ele>210.0</ele><time>2026-05-02T07:35:54.698Z</time></trkpt><trkpt lat="42.2647317" lon="13.9411"><ele>210.0</ele><time>2026-05-02T07:35:55.697Z</time></trkpt><trkpt lat="42.26473" lon="13.9409933"><ele>210.0</ele><time>2026-05-02T07:35:56.698Z</time></trkpt><trkpt lat="42.26472" lon="13.9408867"><ele>210.0</ele><time>2026-05-02T07:35:57.698Z</time></trkpt><trkpt lat="42.2647033" lon="13.9407783"><ele>210.0</ele><time>2026-05-02T07:35:58.697Z</time></trkpt><trkpt lat="42.2646883" lon="13.9406717"><ele>210.0</ele><time>2026-05-02T07:35:59.697Z</time></trkpt><trkpt lat="42.2646667" lon="13.9405617"><ele>210.0</ele><time>2026-05-02T07:36:00.698Z</time></trkpt><trkpt lat="42.2646417" lon="13.9404417"><ele>212.4</ele><time>2026-05-02T07:36:01.697Z</time></trkpt><trkpt lat="42.264615" lon="13.9403183"><ele>214.8</ele><time>2026-05-02T07:36:02.698Z</time></trkpt><trkpt lat="42.2645883" lon="13.9401767"><ele>217.2</ele><time>2026-05-02T07:36:03.697Z</time></trkpt><trkpt lat="42.2645683" lon="13.9400333"><ele>219.6</ele><time>2026-05-02T07:36:04.698Z</time></trkpt><trkpt lat="42.26455" lon="13.9398967"><ele>222.0</ele><time>2026-05-02T07:36:05.698Z</time></trkpt><trkpt lat="42.264535" lon="13.9397617"><ele>222.83333333333334</ele><time>2026-05-02T07:36:06.698Z</time></trkpt><trkpt lat="42.2645183" lon="13.9396283"><ele>223.66666666666669</ele><time>2026-05-02T07:36:07.698Z</time></trkpt><trkpt lat="42.264495" lon="13.93952"><ele>224.5</ele><time>2026-05-02T07:36:08.697Z</time></trkpt><trkpt lat="42.2644717" lon="13.9394367"><ele>225.33333333333334</ele><time>2026-05-02T07:36:09.698Z</time></trkpt><trkpt lat="42.2644333" lon="13.9393483"><ele>226.16666666666669</ele><time>2026-05-02T07:36:10.697Z</time></trkpt><trkpt lat="42.2644" lon="13.9392567"><ele>227.0</ele><time>2026-05-02T07:36:11.697Z</time></trkpt><trkpt lat="42.2643783" lon="13.93917"><ele>228.66666666666669</ele><time>2026-05-02T07:36:12.698Z</time></trkpt><trkpt lat="42.26432" lon="13.939045"><ele>230.33333333333334</ele><time>2026-05-02T07:36:14.698Z</time></trkpt><trkpt lat="42.2642733" lon="13.93898"><ele>232.0</ele><time>2026-05-02T07:36:15.698Z</time></trkpt><trkpt lat="42.26422" lon="13.9389117"><ele>233.66666666666669</ele><time>2026-05-02T07:36:16.697Z</time></trkpt><trkpt lat="42.264165" lon="13.93884"><ele>235.33333333333334</ele><time>2026-05-02T07:36:17.698Z</time></trkpt><trkpt lat="42.2641183" lon="13.93878"><ele>237.0</ele><time>2026-05-02T07:36:18.697Z</time></trkpt><trkpt lat="42.2640717" lon="13.9387117"><ele>237.0</ele><time>2026-05-02T07:36:19.698Z</time></trkpt><trkpt lat="42.2640183" lon="13.9386383"><ele>237.0</ele><time>2026-05-02T07:36:20.697Z</time></trkpt><trkpt lat="42.263955" lon="13.9385617"><ele>237.0</ele><time>2026-05-02T07:36:21.698Z</time></trkpt><trkpt lat="42.263885" lon="13.938475"><ele>237.0</ele><time>2026-05-02T07:36:22.697Z</time></trkpt><trkpt lat="42.263815" lon="13.9383867"><ele>237.0</ele><time>2026-05-02T07:36:23.698Z</time></trkpt><trkpt lat="42.2637517" lon="13.9382967"><ele>237.0</ele><time>2026-05-02T07:36:24.698Z</time></trkpt><trkpt lat="42.263685" lon="13.9381967"><ele>237.39999999999998</ele><time>2026-05-02T07:36:25.698Z</time></trkpt><trkpt lat="42.2636183" lon="13.9380867"><ele>237.79999999999998</ele><time>2026-05-02T07:36:26.698Z</time></trkpt><trkpt lat="42.2635517" lon="13.937965"><ele>238.2</ele><time>2026-05-02T07:36:27.698Z</time></trkpt><trkpt lat="42.2634983" lon="13.937855"><ele>238.6</ele><time>2026-05-02T07:36:28.697Z</time></trkpt><trkpt lat="42.263455" lon="13.9377617"><ele>239.0</ele><time>2026-05-02T07:36:29.698Z</time></trkpt><trkpt lat="42.2634167" lon="13.937645"><ele>243.75</ele><time>2026-05-02T07:36:30.697Z</time></trkpt><trkpt lat="42.2633833" lon="13.93751"><ele>248.5</ele><time>2026-05-02T07:36:31.698Z</time></trkpt><trkpt lat="42.26335" lon="13.9373667"><ele>253.25</ele><time>2026-05-02T07:36:32.697Z</time></trkpt><trkpt lat="42.2633167" lon="13.9372033"><ele>258.0</ele><time>2026-05-02T07:36:33.698Z</time></trkpt><trkpt lat="42.2632967" lon="13.9370433"><ele>258.0</ele><time>2026-05-02T07:36:34.697Z</time></trkpt><trkpt lat="42.2632733" lon="13.9368917"><ele>258.0</ele><time>2026-05-02T07:36:35.698Z</time></trkpt><trkpt lat="42.2632417" lon="13.9367667"><ele>258.0</ele><time>2026-05-02T07:36:36.697Z</time></trkpt><trkpt lat="42.2631933" lon="13.93666"><ele>258.0</ele><time>2026-05-02T07:36:37.697Z</time></trkpt><trkpt lat="42.2631433" lon="13.9365683"><ele>258.0</ele><time>2026-05-02T07:36:38.697Z</time></trkpt><trkpt lat="42.2630883" lon="13.9365133"><ele>259.1666666666667</ele><time>2026-05-02T07:36:39.698Z</time></trkpt><trkpt lat="42.2630283" lon="13.936485"><ele>260.3333333333333</ele><time>2026-05-02T07:36:40.697Z</time></trkpt><trkpt lat="42.2629533" lon="13.9364717"><ele>261.5</ele><time>2026-05-02T07:36:41.698Z</time></trkpt><trkpt lat="42.26286" lon="13.9364583"><ele>262.66666666666663</ele><time>2026-05-02T07:36:42.697Z</time></trkpt><trkpt lat="42.2627667" lon="13.9364333"><ele>263.8333333333333</ele><time>2026-05-02T07:36:43.698Z</time></trkpt><trkpt lat="42.2626933" lon="13.9363917"><ele>265.0</ele><time>2026-05-02T07:36:44.698Z</time></trkpt><trkpt lat="42.262625" lon="13.9363283"><ele>265.0</ele><time>2026-05-02T07:36:45.697Z</time></trkpt><trkpt lat="42.2625667" lon="13.93626"><ele>265.0</ele><time>2026-05-02T07:36:46.697Z</time></trkpt><trkpt lat="42.2625233" lon="13.936195"><ele>265.0</ele><time>2026-05-02T07:36:47.697Z</time></trkpt><trkpt lat="42.262435" lon="13.9360433"><ele>265.0</ele><time>2026-05-02T07:36:49.697Z</time></trkpt><trkpt lat="42.2623733" lon="13.9359567"><ele>265.0</ele><time>2026-05-02T07:36:50.698Z</time></trkpt><trkpt lat="42.2622983" lon="13.935865"><ele>267.0</ele><time>2026-05-02T07:36:51.698Z</time></trkpt><trkpt lat="42.262215" lon="13.9357767"><ele>269.0</ele><time>2026-05-02T07:36:52.698Z</time></trkpt><trkpt lat="42.2621467" lon="13.93569"><ele>271.0</ele><time>2026-05-02T07:36:53.697Z</time></trkpt><trkpt lat="42.262095" lon="13.93561"><ele>273.0</ele><time>2026-05-02T07:36:54.698Z</time></trkpt><trkpt lat="42.2620767" lon="13.93545"><ele>275.0</ele><time>2026-05-02T07:36:56.697Z</time></trkpt><trkpt lat="42.2620933" lon="13.9353383"><ele>275.0</ele><time>2026-05-02T07:36:57.697Z</time></trkpt><trkpt lat="42.2621033" lon="13.9352183"><ele>275.0</ele><time>2026-05-02T07:36:58.698Z</time></trkpt><trkpt lat="42.2621083" lon="13.9351033"><ele>275.0</ele><time>2026-05-02T07:36:59.698Z</time></trkpt><trkpt lat="42.2621033" lon="13.934995"><ele>275.0</ele><time>2026-05-02T07:37:00.697Z</time></trkpt><trkpt lat="42.2621067" lon="13.9349083"><ele>275.0</ele><time>2026-05-02T07:37:01.697Z</time></trkpt><trkpt lat="42.26211" lon="13.9347483"><ele>275.0</ele><time>2026-05-02T07:37:03.697Z</time></trkpt><trkpt lat="42.2621067" lon="13.93465"><ele>276.1666666666667</ele><time>2026-05-02T07:37:04.697Z</time></trkpt><trkpt lat="42.2621033" lon="13.9345417"><ele>277.33333333333337</ele><time>2026-05-02T07:37:05.698Z</time></trkpt><trkpt lat="42.2621083" lon="13.934445"><ele>278.5</ele><time>2026-05-02T07:37:06.698Z</time></trkpt><trkpt lat="42.2620967" lon="13.9342917"><ele>279.6666666666667</ele><time>2026-05-02T07:37:08.698Z</time></trkpt><trkpt lat="42.2620633" lon="13.9341833"><ele>280.8333333333333</ele><time>2026-05-02T07:37:10.698Z</time></trkpt><trkpt lat="42.2619833" lon="13.93412"><ele>282.0</ele><time>2026-05-02T07:37:12.697Z</time></trkpt><trkpt lat="42.2618733" lon="13.93411"><ele>282.0</ele><time>2026-05-02T07:37:14.698Z</time></trkpt><trkpt lat="42.2617483" lon="13.9340967"><ele>282.0</ele><time>2026-05-02T07:37:16.698Z</time></trkpt><trkpt lat="42.2616617" lon="13.9340767"><ele>282.0</ele><time>2026-05-02T07:37:17.697Z</time></trkpt><trkpt lat="42.2615567" lon="13.9340383"><ele>282.0</ele><time>2026-05-02T07:37:18.698Z</time></trkpt><trkpt lat="42.2614417" lon="13.9339883"><ele>282.0</ele><time>2026-05-02T07:37:19.698Z</time></trkpt><trkpt lat="42.2613117" lon="13.9339333"><ele>282.0</ele><time>2026-05-02T07:37:20.697Z</time></trkpt><trkpt lat="42.26118" lon="13.93388"><ele>282.0</ele><time>2026-05-02T07:37:21.698Z</time></trkpt><trkpt lat="42.261055" lon="13.9338217"><ele>282.0</ele><time>2026-05-02T07:37:22.698Z</time></trkpt><trkpt lat="42.2609367" lon="13.9337667"><ele>282.0</ele><time>2026-05-02T07:37:23.698Z</time></trkpt><trkpt lat="42.2608267" lon="13.9337183"><ele>282.0</ele><time>2026-05-02T07:37:24.698Z</time></trkpt><trkpt lat="42.2607183" lon="13.9336667"><ele>282.0</ele><time>2026-05-02T07:37:25.697Z</time></trkpt><trkpt lat="42.260625" lon="13.9336217"><ele>282.0</ele><time>2026-05-02T07:37:26.697Z</time></trkpt><trkpt lat="42.2605167" lon="13.9335767"><ele>282.0</ele><time>2026-05-02T07:37:27.698Z</time></trkpt><trkpt lat="42.2604183" lon="13.9335533"><ele>282.0</ele><time>2026-05-02T07:37:28.697Z</time></trkpt><trkpt lat="42.260315" lon="13.9335417"><ele>282.4</ele><time>2026-05-02T07:37:29.698Z</time></trkpt><trkpt lat="42.2602033" lon="13.9335517"><ele>282.79999999999995</ele><time>2026-05-02T07:37:30.697Z</time></trkpt><trkpt lat="42.260085" lon="13.933565"><ele>283.2</ele><time>2026-05-02T07:37:31.697Z</time></trkpt><trkpt lat="42.2599717" lon="13.93357"><ele>283.59999999999997</ele><time>2026-05-02T07:37:32.697Z</time></trkpt><trkpt lat="42.2598667" lon="13.93357"><ele>284.0</ele><time>2026-05-02T07:37:33.698Z</time></trkpt><trkpt lat="42.2597667" lon="13.9335733"><ele>283.0</ele><time>2026-05-02T07:37:34.698Z</time></trkpt><trkpt lat="42.2596767" lon="13.933575"><ele>282.0</ele><time>2026-05-02T07:37:35.697Z</time></trkpt><trkpt lat="42.25959" lon="13.9335583"><ele>281.0</ele><time>2026-05-02T07:37:36.696Z</time></trkpt><trkpt lat="42.2594983" lon="13.93352"><ele>280.0</ele><time>2026-05-02T07:37:37.697Z</time></trkpt><trkpt lat="42.2594067" lon="13.9334683"><ele>279.0</ele><time>2026-05-02T07:37:38.697Z</time></trkpt><trkpt lat="42.2593167" lon="13.93341"><ele>282.75</ele><time>2026-05-02T07:37:39.696Z</time></trkpt><trkpt lat="42.259215" lon="13.9333467"><ele>286.5</ele><time>2026-05-02T07:37:40.697Z</time></trkpt><trkpt lat="42.2591083" lon="13.9332767"><ele>290.25</ele><time>2026-05-02T07:37:41.696Z</time></trkpt><trkpt lat="42.2590017" lon="13.9332067"><ele>294.0</ele><time>2026-05-02T07:37:42.696Z</time></trkpt><trkpt lat="42.2588917" lon="13.933145"><ele>294.0</ele><time>2026-05-02T07:37:43.697Z</time></trkpt><trkpt lat="42.2587917" lon="13.933105"><ele>294.0</ele><time>2026-05-02T07:37:44.696Z</time></trkpt><trkpt lat="42.2586833" lon="13.9330867"><ele>294.0</ele><time>2026-05-02T07:37:45.696Z</time></trkpt><trkpt lat="42.2585717" lon="13.9330817"><ele>294.0</ele><time>2026-05-02T07:37:46.696Z</time></trkpt><trkpt lat="42.2584567" lon="13.9330933"><ele>294.0</ele><time>2026-05-02T07:37:47.697Z</time></trkpt><trkpt lat="42.2583533" lon="13.93311"><ele>294.0</ele><time>2026-05-02T07:37:48.697Z</time></trkpt><trkpt lat="42.2582433" lon="13.9331317"><ele>294.0</ele><time>2026-05-02T07:37:49.696Z</time></trkpt><trkpt lat="42.2581217" lon="13.9331417"><ele>294.0</ele><time>2026-05-02T07:37:50.697Z</time></trkpt><trkpt lat="42.2579917" lon="13.9331383"><ele>294.0</ele><time>2026-05-02T07:37:51.696Z</time></trkpt><trkpt lat="42.2578583" lon="13.9331217"><ele>295.25</ele><time>2026-05-02T07:37:52.697Z</time></trkpt><trkpt lat="42.257725" lon="13.9331133"><ele>296.5</ele><time>2026-05-02T07:37:53.697Z</time></trkpt><trkpt lat="42.2576033" lon="13.9331267"><ele>297.75</ele><time>2026-05-02T07:37:54.696Z</time></trkpt><trkpt lat="42.257475" lon="13.93316"><ele>299.0</ele><time>2026-05-02T07:37:55.697Z</time></trkpt><trkpt lat="42.2573267" lon="13.9331933"><ele>300.25</ele><time>2026-05-02T07:37:56.697Z</time></trkpt><trkpt lat="42.2571717" lon="13.933235"><ele>301.5</ele><time>2026-05-02T07:37:57.696Z</time></trkpt><trkpt lat="42.2570317" lon="13.93328"><ele>302.75</ele><time>2026-05-02T07:37:58.697Z</time></trkpt><trkpt lat="42.25691" lon="13.933325"><ele>304.0</ele><time>2026-05-02T07:37:59.696Z</time></trkpt><trkpt lat="42.2567883" lon="13.93335"><ele>304.0</ele><time>2026-05-02T07:38:00.697Z</time></trkpt><trkpt lat="42.2566583" lon="13.9333533"><ele>304.0</ele><time>2026-05-02T07:38:01.697Z</time></trkpt><trkpt lat="42.2565483" lon="13.9333333"><ele>304.0</ele><time>2026-05-02T07:38:02.697Z</time></trkpt><trkpt lat="42.2564333" lon="13.9332967"><ele>304.0</ele><time>2026-05-02T07:38:03.696Z</time></trkpt><trkpt lat="42.2563183" lon="13.9332517"><ele>303.8</ele><time>2026-05-02T07:38:04.696Z</time></trkpt><trkpt lat="42.2561983" lon="13.9332067"><ele>303.59999999999997</ele><time>2026-05-02T07:38:05.697Z</time></trkpt><trkpt lat="42.2560917" lon="13.9331667"><ele>303.4</ele><time>2026-05-02T07:38:06.697Z</time></trkpt><trkpt lat="42.2559867" lon="13.9331333"><ele>303.2</ele><time>2026-05-02T07:38:07.697Z</time></trkpt><trkpt lat="42.2558883" lon="13.9330983"><ele>303.0</ele><time>2026-05-02T07:38:08.697Z</time></trkpt><trkpt lat="42.2558" lon="13.9330567"><ele>303.0</ele><time>2026-05-02T07:38:09.696Z</time></trkpt><trkpt lat="42.2557267" lon="13.9329933"><ele>303.0</ele><time>2026-05-02T07:38:10.697Z</time></trkpt><trkpt lat="42.2556683" lon="13.9329083"><ele>303.0</ele><time>2026-05-02T07:38:11.696Z</time></trkpt><trkpt lat="42.2556283" lon="13.9328067"><ele>303.0</ele><time>2026-05-02T07:38:12.696Z</time></trkpt><trkpt lat="42.25563" lon="13.9326767"><ele>303.0</ele><time>2026-05-02T07:38:13.696Z</time></trkpt><trkpt lat="42.255635" lon="13.9325333"><ele>303.4</ele><time>2026-05-02T07:38:14.697Z</time></trkpt><trkpt lat="42.2556217" lon="13.9323917"><ele>303.8</ele><time>2026-05-02T07:38:15.697Z</time></trkpt><trkpt lat="42.25558" lon="13.93225"><ele>304.2</ele><time>2026-05-02T07:38:16.697Z</time></trkpt><trkpt lat="42.25552" lon="13.9321283"><ele>304.6</ele><time>2026-05-02T07:38:17.696Z</time></trkpt><trkpt lat="42.2554533" lon="13.9320133"><ele>305.0</ele><time>2026-05-02T07:38:18.696Z</time></trkpt><trkpt lat="42.25537" lon="13.9319117"><ele>303.2</ele><time>2026-05-02T07:38:19.697Z</time></trkpt><trkpt lat="42.2552783" lon="13.9318367"><ele>301.4</ele><time>2026-05-02T07:38:20.697Z</time></trkpt><trkpt lat="42.2551817" lon="13.93178"><ele>299.6</ele><time>2026-05-02T07:38:21.697Z</time></trkpt><trkpt lat="42.2550783" lon="13.931745"><ele>297.8</ele><time>2026-05-02T07:38:22.697Z</time></trkpt><trkpt lat="42.254975" lon="13.93172"><ele>296.0</ele><time>2026-05-02T07:38:23.697Z</time></trkpt><trkpt lat="42.2548867" lon="13.9316733"><ele>296.0</ele><time>2026-05-02T07:38:24.696Z</time></trkpt><trkpt lat="42.2548083" lon="13.9316033"><ele>296.0</ele><time>2026-05-02T07:38:25.697Z</time></trkpt><trkpt lat="42.2547417" lon="13.9315283"><ele>296.0</ele><time>2026-05-02T07:38:26.696Z</time></trkpt><trkpt lat="42.2546317" lon="13.9314717"><ele>296.0</ele><time>2026-05-02T07:38:28.696Z</time></trkpt><trkpt lat="42.2545517" lon="13.931485"><ele>296.0</ele><time>2026-05-02T07:38:29.696Z</time></trkpt><trkpt lat="42.2544517" lon="13.9315133"><ele>295.0</ele><time>2026-05-02T07:38:30.696Z</time></trkpt><trkpt lat="42.2543467" lon="13.9315483"><ele>294.0</ele><time>2026-05-02T07:38:31.697Z</time></trkpt><trkpt lat="42.2542383" lon="13.9315933"><ele>293.0</ele><time>2026-05-02T07:38:32.697Z</time></trkpt><trkpt lat="42.25413" lon="13.9316183"><ele>292.0</ele><time>2026-05-02T07:38:33.697Z</time></trkpt><trkpt lat="42.254025" lon="13.931635"><ele>291.0</ele><time>2026-05-02T07:38:34.696Z</time></trkpt><trkpt lat="42.25392" lon="13.9316367"><ele>290.40000000000003</ele><time>2026-05-02T07:38:35.696Z</time></trkpt><trkpt lat="42.2538083" lon="13.9316383"><ele>289.8</ele><time>2026-05-02T07:38:36.697Z</time></trkpt><trkpt lat="42.253695" lon="13.9316183"><ele>289.20000000000005</ele><time>2026-05-02T07:38:37.696Z</time></trkpt><trkpt lat="42.2536017" lon="13.9315817"><ele>288.6</ele><time>2026-05-02T07:38:38.697Z</time></trkpt><trkpt lat="42.253515" lon="13.931525"><ele>288.0</ele><time>2026-05-02T07:38:39.696Z</time></trkpt><trkpt lat="42.2534283" lon="13.9314583"><ele>288.0</ele><time>2026-05-02T07:38:40.696Z</time></trkpt><trkpt lat="42.2533317" lon="13.9313883"><ele>288.0</ele><time>2026-05-02T07:38:41.696Z</time></trkpt><trkpt lat="42.253225" lon="13.9313283"><ele>288.0</ele><time>2026-05-02T07:38:42.696Z</time></trkpt><trkpt lat="42.2531233" lon="13.931275"><ele>288.0</ele><time>2026-05-02T07:38:43.696Z</time></trkpt><trkpt lat="42.2530117" lon="13.93124"><ele>288.0</ele><time>2026-05-02T07:38:44.697Z</time></trkpt><trkpt lat="42.2529033" lon="13.93121"><ele>286.8</ele><time>2026-05-02T07:38:45.697Z</time></trkpt><trkpt lat="42.2527967" lon="13.93118"><ele>285.6</ele><time>2026-05-02T07:38:46.697Z</time></trkpt><trkpt lat="42.2526867" lon="13.931155"><ele>284.4</ele><time>2026-05-02T07:38:47.697Z</time></trkpt><trkpt lat="42.2525883" lon="13.9311383"><ele>283.2</ele><time>2026-05-02T07:38:48.697Z</time></trkpt><trkpt lat="42.2525083" lon="13.931115"><ele>282.0</ele><time>2026-05-02T07:38:49.697Z</time></trkpt><trkpt lat="42.2524333" lon="13.9310733"><ele>282.0</ele><time>2026-05-02T07:38:50.697Z</time></trkpt><trkpt lat="42.2523633" lon="13.9310217"><ele>282.0</ele><time>2026-05-02T07:38:51.696Z</time></trkpt><trkpt lat="42.2523183" lon="13.9309467"><ele>282.0</ele><time>2026-05-02T07:38:52.696Z</time></trkpt><trkpt lat="42.2522983" lon="13.93085"><ele>282.0</ele><time>2026-05-02T07:38:53.697Z</time></trkpt><trkpt lat="42.2522817" lon="13.9307217"><ele>282.0</ele><time>2026-05-02T07:38:54.696Z</time></trkpt><trkpt lat="42.252255" lon="13.9305733"><ele>282.0</ele><time>2026-05-02T07:38:55.696Z</time></trkpt><trkpt lat="42.2522117" lon="13.930425"><ele>280.6</ele><time>2026-05-02T07:38:56.697Z</time></trkpt><trkpt lat="42.25216" lon="13.9302983"><ele>279.2</ele><time>2026-05-02T07:38:57.697Z</time></trkpt><trkpt lat="42.252095" lon="13.9301883"><ele>277.8</ele><time>2026-05-02T07:38:58.697Z</time></trkpt><trkpt lat="42.25202" lon="13.9300867"><ele>276.4</ele><time>2026-05-02T07:38:59.696Z</time></trkpt><trkpt lat="42.2519517" lon="13.93001"><ele>275.0</ele><time>2026-05-02T07:39:00.696Z</time></trkpt><trkpt lat="42.2518783" lon="13.9299667"><ele>275.0</ele><time>2026-05-02T07:39:01.697Z</time></trkpt><trkpt lat="42.2517917" lon="13.9299383"><ele>275.0</ele><time>2026-05-02T07:39:02.697Z</time></trkpt><trkpt lat="42.251695" lon="13.929915"><ele>275.0</ele><time>2026-05-02T07:39:03.696Z</time></trkpt><trkpt lat="42.2515983" lon="13.929895"><ele>275.0</ele><time>2026-05-02T07:39:04.696Z</time></trkpt><trkpt lat="42.2515083" lon="13.92986"><ele>275.0</ele><time>2026-05-02T07:39:05.697Z</time></trkpt><trkpt lat="42.25143" lon="13.9298133"><ele>271.2</ele><time>2026-05-02T07:39:06.697Z</time></trkpt><trkpt lat="42.2513567" lon="13.92976"><ele>267.4</ele><time>2026-05-02T07:39:07.696Z</time></trkpt><trkpt lat="42.2512933" lon="13.929705"><ele>263.6</ele><time>2026-05-02T07:39:08.696Z</time></trkpt><trkpt lat="42.2511733" lon="13.92968"><ele>259.8</ele><time>2026-05-02T07:39:10.696Z</time></trkpt><trkpt lat="42.2510767" lon="13.9297967"><ele>256.0</ele><time>2026-05-02T07:39:12.696Z</time></trkpt><trkpt lat="42.2509867" lon="13.9299"><ele>256.0</ele><time>2026-05-02T07:39:14.696Z</time></trkpt><trkpt lat="42.2508917" lon="13.9298383"><ele>256.0</ele><time>2026-05-02T07:39:16.696Z</time></trkpt><trkpt lat="42.2508833" lon="13.9296767"><ele>256.0</ele><time>2026-05-02T07:39:18.696Z</time></trkpt><trkpt lat="42.2509333" lon="13.9295867"><ele>256.0</ele><time>2026-05-02T07:39:19.696Z</time></trkpt><trkpt lat="42.250995" lon="13.929485"><ele>256.0</ele><time>2026-05-02T07:39:20.696Z</time></trkpt><trkpt lat="42.251045" lon="13.929365"><ele>255.99999999999997</ele><time>2026-05-02T07:39:21.696Z</time></trkpt><trkpt lat="42.2510833" lon="13.929245"><ele>256.0</ele><time>2026-05-02T07:39:22.697Z</time></trkpt><trkpt lat="42.2511167" lon="13.92913"><ele>256.0</ele><time>2026-05-02T07:39:23.696Z</time></trkpt><trkpt lat="42.251155" lon="13.9290283"><ele>256.0</ele><time>2026-05-02T07:39:24.697Z</time></trkpt><trkpt lat="42.2511483" lon="13.9288933"><ele>255.99999999999997</ele><time>2026-05-02T07:39:26.697Z</time></trkpt><trkpt lat="42.2510733" lon="13.9289033"><ele>256.0</ele><time>2026-05-02T07:39:28.697Z</time></trkpt><trkpt lat="42.2510283" lon="13.9289817"><ele>256.0</ele><time>2026-05-02T07:39:29.696Z</time></trkpt><trkpt lat="42.2509917" lon="13.929095"><ele>256.0</ele><time>2026-05-02T07:39:30.697Z</time></trkpt><trkpt lat="42.2509383" lon="13.9292267"><ele>256.0</ele><time>2026-05-02T07:39:31.696Z</time></trkpt><trkpt lat="42.250845" lon="13.92934"><ele>256.0</ele><time>2026-05-02T07:39:32.697Z</time></trkpt><trkpt lat="42.2507383" lon="13.9294333"><ele>256.0</ele><time>2026-05-02T07:39:33.697Z</time></trkpt><trkpt lat="42.2506467" lon="13.9295383"><ele>256.0</ele><time>2026-05-02T07:39:34.697Z</time></trkpt><trkpt lat="42.2505667" lon="13.929675"><ele>256.0</ele><time>2026-05-02T07:39:35.697Z</time></trkpt><trkpt lat="42.250515" lon="13.92984"><ele>256.0</ele><time>2026-05-02T07:39:36.696Z</time></trkpt><trkpt lat="42.2505" lon="13.9300083"><ele>254.25</ele><time>2026-05-02T07:39:37.696Z</time></trkpt><trkpt lat="42.2505183" lon="13.930175"><ele>252.5</ele><time>2026-05-02T07:39:38.697Z</time></trkpt><trkpt lat="42.2505633" lon="13.9303317"><ele>250.75</ele><time>2026-05-02T07:39:39.697Z</time></trkpt><trkpt lat="42.2506383" lon="13.9304833"><ele>249.0</ele><time>2026-05-02T07:39:40.696Z</time></trkpt><trkpt lat="42.250715" lon="13.93062"><ele>249.0</ele><time>2026-05-02T07:39:41.697Z</time></trkpt><trkpt lat="42.2507717" lon="13.93077"><ele>249.0</ele><time>2026-05-02T07:39:42.696Z</time></trkpt><trkpt lat="42.250785" lon="13.930945"><ele>249.0</ele><time>2026-05-02T07:39:43.697Z</time></trkpt><trkpt lat="42.2507667" lon="13.931135"><ele>249.0</ele><time>2026-05-02T07:39:44.697Z</time></trkpt><trkpt lat="42.250725" lon="13.9313317"><ele>249.33333333333331</ele><time>2026-05-02T07:39:45.696Z</time></trkpt><trkpt lat="42.2506733" lon="13.93153"><ele>249.66666666666666</ele><time>2026-05-02T07:39:46.696Z</time></trkpt><trkpt lat="42.2506017" lon="13.9317117"><ele>250.0</ele><time>2026-05-02T07:39:47.697Z</time></trkpt><trkpt lat="42.25053" lon="13.9318833"><ele>243.75</ele><time>2026-05-02T07:39:48.697Z</time></trkpt><trkpt lat="42.2504633" lon="13.9320533"><ele>237.5</ele><time>2026-05-02T07:39:49.696Z</time></trkpt><trkpt lat="42.25041" lon="13.9322217"><ele>231.25</ele><time>2026-05-02T07:39:50.697Z</time></trkpt><trkpt lat="42.2503617" lon="13.9323717"><ele>225.0</ele><time>2026-05-02T07:39:51.697Z</time></trkpt><trkpt lat="42.2503283" lon="13.9325117"><ele>224.0</ele><time>2026-05-02T07:39:52.696Z</time></trkpt><trkpt lat="42.2503" lon="13.9326267"><ele>223.0</ele><time>2026-05-02T07:39:53.696Z</time></trkpt><trkpt lat="42.2502833" lon="13.9327133"><ele>222.0</ele><time>2026-05-02T07:39:54.696Z</time></trkpt><trkpt lat="42.2502617" lon="13.9328283"><ele>221.0</ele><time>2026-05-02T07:39:56.697Z</time></trkpt><trkpt lat="42.250305" lon="13.9329433"><ele>220.0</ele><time>2026-05-02T07:39:58.696Z</time></trkpt><trkpt lat="42.2503667" lon="13.9330083"><ele>219.0</ele><time>2026-05-02T07:39:59.697Z</time></trkpt><trkpt lat="42.2504433" lon="13.9330783"><ele>219.0</ele><time>2026-05-02T07:40:00.696Z</time></trkpt><trkpt lat="42.2505083" lon="13.9331417"><ele>219.0</ele><time>2026-05-02T07:40:01.697Z</time></trkpt><trkpt lat="42.2505733" lon="13.9331967"><ele>219.0</ele><time>2026-05-02T07:40:02.696Z</time></trkpt><trkpt lat="42.2506517" lon="13.933265"><ele>219.0</ele><time>2026-05-02T07:40:03.697Z</time></trkpt><trkpt lat="42.2507317" lon="13.933325"><ele>219.0</ele><time>2026-05-02T07:40:04.696Z</time></trkpt><trkpt lat="42.25082" lon="13.9333767"><ele>219.0</ele><time>2026-05-02T07:40:05.697Z</time></trkpt><trkpt lat="42.2509167" lon="13.933425"><ele>217.75</ele><time>2026-05-02T07:40:06.697Z</time></trkpt><trkpt lat="42.2510367" lon="13.9334667"><ele>216.5</ele><time>2026-05-02T07:40:07.697Z</time></trkpt><trkpt lat="42.2511683" lon="13.9335183"><ele>215.25</ele><time>2026-05-02T07:40:08.696Z</time></trkpt><trkpt lat="42.2513" lon="13.9335883"><ele>214.0</ele><time>2026-05-02T07:40:09.697Z</time></trkpt><trkpt lat="42.2514117" lon="13.9336617"><ele>216.79999999999998</ele><time>2026-05-02T07:40:10.697Z</time></trkpt><trkpt lat="42.2515183" lon="13.9337267"><ele>219.59999999999997</ele><time>2026-05-02T07:40:11.697Z</time></trkpt><trkpt lat="42.2516133" lon="13.93379"><ele>222.4</ele><time>2026-05-02T07:40:12.696Z</time></trkpt><trkpt lat="42.2517117" lon="13.933855"><ele>225.2</ele><time>2026-05-02T07:40:13.697Z</time></trkpt><trkpt lat="42.251815" lon="13.93391"><ele>228.0</ele><time>2026-05-02T07:40:14.696Z</time></trkpt><trkpt lat="42.2519267" lon="13.9339667"><ele>228.0</ele><time>2026-05-02T07:40:15.696Z</time></trkpt><trkpt lat="42.2520433" lon="13.93403"><ele>228.0</ele><time>2026-05-02T07:40:16.697Z</time></trkpt><trkpt lat="42.2521567" lon="13.934085"><ele>228.0</ele><time>2026-05-02T07:40:17.696Z</time></trkpt><trkpt lat="42.25226" lon="13.9341383"><ele>228.0</ele><time>2026-05-02T07:40:18.697Z</time></trkpt><trkpt lat="42.2523467" lon="13.93419"><ele>230.83333333333334</ele><time>2026-05-02T07:40:19.696Z</time></trkpt><trkpt lat="42.2524167" lon="13.9342467"><ele>233.66666666666669</ele><time>2026-05-02T07:40:20.697Z</time></trkpt><trkpt lat="42.2524633" lon="13.9343233"><ele>236.5</ele><time>2026-05-02T07:40:21.697Z</time></trkpt><trkpt lat="42.2524883" lon="13.9344133"><ele>239.33333333333334</ele><time>2026-05-02T07:40:22.697Z</time></trkpt><trkpt lat="42.2524867" lon="13.934515"><ele>242.16666666666669</ele><time>2026-05-02T07:40:23.697Z</time></trkpt><trkpt lat="42.2524633" lon="13.9346433"><ele>245.0</ele><time>2026-05-02T07:40:24.697Z</time></trkpt><trkpt lat="42.2524467" lon="13.9347817"><ele>245.0</ele><time>2026-05-02T07:40:25.696Z</time></trkpt><trkpt lat="42.2524383" lon="13.9349083"><ele>245.0</ele><time>2026-05-02T07:40:26.696Z</time></trkpt><trkpt lat="42.2524217" lon="13.93502"><ele>245.0</ele><time>2026-05-02T07:40:27.697Z</time></trkpt><trkpt lat="42.252395" lon="13.9351267"><ele>245.0</ele><time>2026-05-02T07:40:28.697Z</time></trkpt><trkpt lat="42.2523417" lon="13.935235"><ele>245.0</ele><time>2026-05-02T07:40:29.696Z</time></trkpt><trkpt lat="42.2522567" lon="13.9353333"><ele>244.25</ele><time>2026-05-02T07:40:30.696Z</time></trkpt><trkpt lat="42.2521533" lon="13.935435"><ele>243.5</ele><time>2026-05-02T07:40:31.697Z</time></trkpt><trkpt lat="42.2520467" lon="13.935535"><ele>242.75</ele><time>2026-05-02T07:40:32.696Z</time></trkpt><trkpt lat="42.25194" lon="13.93563"><ele>242.0</ele><time>2026-05-02T07:40:33.697Z</time></trkpt><trkpt lat="42.2518417" lon="13.9357133"><ele>242.0</ele><time>2026-05-02T07:40:34.697Z</time></trkpt><trkpt lat="42.2517483" lon="13.9358017"><ele>242.0</ele><time>2026-05-02T07:40:35.696Z</time></trkpt><trkpt lat="42.25166" lon="13.9358917"><ele>242.0</ele><time>2026-05-02T07:40:36.697Z</time></trkpt><trkpt lat="42.251565" lon="13.9359917"><ele>242.0</ele><time>2026-05-02T07:40:37.696Z</time></trkpt><trkpt lat="42.251475" lon="13.9360817"><ele>244.0</ele><time>2026-05-02T07:40:38.697Z</time></trkpt><trkpt lat="42.25138" lon="13.93618"><ele>246.0</ele><time>2026-05-02T07:40:39.696Z</time></trkpt><trkpt lat="42.2512867" lon="13.93629"><ele>248.0</ele><time>2026-05-02T07:40:40.696Z</time></trkpt><trkpt lat="42.251185" lon="13.9363917"><ele>250.0</ele><time>2026-05-02T07:40:41.697Z</time></trkpt><trkpt lat="42.251095" lon="13.9365017"><ele>250.0</ele><time>2026-05-02T07:40:42.697Z</time></trkpt><trkpt lat="42.2510067" lon="13.9366"><ele>250.0</ele><time>2026-05-02T07:40:43.696Z</time></trkpt><trkpt lat="42.250925" lon="13.93669"><ele>250.0</ele><time>2026-05-02T07:40:44.697Z</time></trkpt><trkpt lat="42.2508483" lon="13.93678"><ele>250.0</ele><time>2026-05-02T07:40:45.697Z</time></trkpt><trkpt lat="42.2507733" lon="13.936865"><ele>250.0</ele><time>2026-05-02T07:40:46.696Z</time></trkpt><trkpt lat="42.2506983" lon="13.93694"><ele>252.33333333333331</ele><time>2026-05-02T07:40:47.696Z</time></trkpt><trkpt lat="42.250635" lon="13.9370133"><ele>254.66666666666666</ele><time>2026-05-02T07:40:48.696Z</time></trkpt><trkpt lat="42.250585" lon="13.9370783"><ele>257.0</ele><time>2026-05-02T07:40:49.697Z</time></trkpt><trkpt lat="42.2505383" lon="13.9371533"><ele>259.3333333333333</ele><time>2026-05-02T07:40:51.697Z</time></trkpt><trkpt lat="42.2506083" lon="13.9371183"><ele>261.6666666666667</ele><time>2026-05-02T07:41:04.696Z</time></trkpt><trkpt lat="42.2506517" lon="13.9370317"><ele>264.0</ele><time>2026-05-02T07:41:07.697Z</time></trkpt><trkpt lat="42.25076" lon="13.93691"><ele>264.0</ele><time>2026-05-02T07:41:09.697Z</time></trkpt><trkpt lat="42.2508267" lon="13.9368367"><ele>264.0</ele><time>2026-05-02T07:41:10.697Z</time></trkpt><trkpt lat="42.2508967" lon="13.936755"><ele>264.0</ele><time>2026-05-02T07:41:11.696Z</time></trkpt><trkpt lat="42.250965" lon="13.9366767"><ele>264.0</ele><time>2026-05-02T07:41:12.695Z</time></trkpt><trkpt lat="42.2510367" lon="13.9365933"><ele>264.0</ele><time>2026-05-02T07:41:13.696Z</time></trkpt><trkpt lat="42.251105" lon="13.93651"><ele>263.8</ele><time>2026-05-02T07:41:14.696Z</time></trkpt><trkpt lat="42.251175" lon="13.9364133"><ele>263.59999999999997</ele><time>2026-05-02T07:41:15.696Z</time></trkpt><trkpt lat="42.25125" lon="13.9363183"><ele>263.4</ele><time>2026-05-02T07:41:16.696Z</time></trkpt><trkpt lat="42.25133" lon="13.936235"><ele>263.2</ele><time>2026-05-02T07:41:17.696Z</time></trkpt><trkpt lat="42.2514117" lon="13.9361583"><ele>263.0</ele><time>2026-05-02T07:41:18.696Z</time></trkpt><trkpt lat="42.251485" lon="13.93608"><ele>263.0</ele><time>2026-05-02T07:41:19.695Z</time></trkpt><trkpt lat="42.2515633" lon="13.936"><ele>263.0</ele><time>2026-05-02T07:41:20.696Z</time></trkpt><trkpt lat="42.2516417" lon="13.9359233"><ele>263.0</ele><time>2026-05-02T07:41:21.696Z</time></trkpt><trkpt lat="42.2517267" lon="13.935845"><ele>263.0</ele><time>2026-05-02T07:41:22.696Z</time></trkpt><trkpt lat="42.2518133" lon="13.9357683"><ele>263.0</ele><time>2026-05-02T07:41:23.695Z</time></trkpt><trkpt lat="42.25191" lon="13.9356833"><ele>258.8</ele><time>2026-05-02T07:41:24.695Z</time></trkpt><trkpt lat="42.252" lon="13.9356"><ele>254.60000000000002</ele><time>2026-05-02T07:41:25.696Z</time></trkpt><trkpt lat="42.2520783" lon="13.9355233"><ele>250.39999999999998</ele><time>2026-05-02T07:41:26.696Z</time></trkpt><trkpt lat="42.2521467" lon="13.93545"><ele>246.2</ele><time>2026-05-02T07:41:27.695Z</time></trkpt><trkpt lat="42.2522133" lon="13.9353783"><ele>242.0</ele><time>2026-05-02T07:41:28.695Z</time></trkpt><trkpt lat="42.2522867" lon="13.935305"><ele>242.50000000000003</ele><time>2026-05-02T07:41:29.695Z</time></trkpt><trkpt lat="42.2523533" lon="13.9352233"><ele>243.0</ele><time>2026-05-02T07:41:30.695Z</time></trkpt><trkpt lat="42.252405" lon="13.9351433"><ele>243.5</ele><time>2026-05-02T07:41:31.696Z</time></trkpt><trkpt lat="42.2524267" lon="13.9350467"><ele>244.0</ele><time>2026-05-02T07:41:32.695Z</time></trkpt><trkpt lat="42.2524467" lon="13.9348983"><ele>244.50000000000003</ele><time>2026-05-02T07:41:34.696Z</time></trkpt><trkpt lat="42.25245" lon="13.9347833"><ele>245.0</ele><time>2026-05-02T07:41:52.695Z</time></trkpt><trkpt lat="42.2523617" lon="13.934755"><ele>241.83333333333334</ele><time>2026-05-02T07:42:05.696Z</time></trkpt><trkpt lat="42.2522867" lon="13.9347583"><ele>238.66666666666669</ele><time>2026-05-02T07:42:08.696Z</time></trkpt><trkpt lat="42.25222" lon="13.9347683"><ele>235.5</ele><time>2026-05-02T07:42:11.695Z</time></trkpt><trkpt lat="42.2521417" lon="13.9347883"><ele>232.33333333333331</ele><time>2026-05-02T07:42:15.696Z</time></trkpt><trkpt lat="42.252045" lon="13.9348017"><ele>229.16666666666666</ele><time>2026-05-02T07:43:05.695Z</time></trkpt><trkpt lat="42.25196" lon="13.9348083"><ele>226.0</ele><time>2026-05-02T07:43:09.696Z</time></trkpt><trkpt lat="42.2518783" lon="13.9348233"><ele>226.0</ele><time>2026-05-02T07:43:13.696Z</time></trkpt><trkpt lat="42.2518083" lon="13.93483"><ele>226.0</ele><time>2026-05-02T07:43:17.696Z</time></trkpt><trkpt lat="42.2517433" lon="13.9348167"><ele>226.0</ele><time>2026-05-02T07:43:22.695Z</time></trkpt><trkpt lat="42.2516667" lon="13.934805"><ele>226.0</ele><time>2026-05-02T07:43:26.695Z</time></trkpt><trkpt lat="42.2516" lon="13.9348067"><ele>226.0</ele><time>2026-05-02T07:43:29.695Z</time></trkpt><trkpt lat="42.2515117" lon="13.9348183"><ele>226.0</ele><time>2026-05-02T07:43:32.696Z</time></trkpt><trkpt lat="42.2514467" lon="13.9348267"><ele>226.0</ele><time>2026-05-02T07:43:34.695Z</time></trkpt><trkpt lat="42.2513817" lon="13.934825"><ele>222.83333333333331</ele><time>2026-05-02T07:43:37.695Z</time></trkpt><trkpt lat="42.2512967" lon="13.9348267"><ele>219.66666666666666</ele><time>2026-05-02T07:43:40.696Z</time></trkpt><trkpt lat="42.2512183" lon="13.9348417"><ele>216.5</ele><time>2026-05-02T07:43:43.695Z</time></trkpt><trkpt lat="42.2511517" lon="13.9348717"><ele>213.33333333333331</ele><time>2026-05-02T07:43:46.696Z</time></trkpt><trkpt lat="42.251075" lon="13.934895"><ele>210.16666666666666</ele><time>2026-05-02T07:43:49.696Z</time></trkpt><trkpt lat="42.2510117" lon="13.9349217"><ele>207.0</ele><time>2026-05-02T07:43:52.696Z</time></trkpt><trkpt lat="42.2509233" lon="13.934935"><ele>207.00000000000003</ele><time>2026-05-02T07:43:55.695Z</time></trkpt><trkpt lat="42.2508433" lon="13.934945"><ele>207.0</ele><time>2026-05-02T07:43:58.695Z</time></trkpt><trkpt lat="42.2507717" lon="13.93495"><ele>207.0</ele><time>2026-05-02T07:44:00.696Z</time></trkpt><trkpt lat="42.2507067" lon="13.9349467"><ele>207.0</ele><time>2026-05-02T07:44:02.696Z</time></trkpt><trkpt lat="42.2506433" lon="13.9349367"><ele>207.0</ele><time>2026-05-02T07:44:04.695Z</time></trkpt><trkpt lat="42.250565" lon="13.9349167"><ele>207.00000000000003</ele><time>2026-05-02T07:44:06.696Z</time></trkpt><trkpt lat="42.250485" lon="13.9349067"><ele>207.0</ele><time>2026-05-02T07:44:08.696Z</time></trkpt><trkpt lat="42.2504133" lon="13.9349033"><ele>204.66666666666666</ele><time>2026-05-02T07:44:10.696Z</time></trkpt><trkpt lat="42.2503267" lon="13.9349133"><ele>202.33333333333331</ele><time>2026-05-02T07:44:12.696Z</time></trkpt><trkpt lat="42.250245" lon="13.9349517"><ele>200.0</ele><time>2026-05-02T07:44:14.695Z</time></trkpt><trkpt lat="42.2501567" lon="13.934985"><ele>197.66666666666666</ele><time>2026-05-02T07:44:16.695Z</time></trkpt><trkpt lat="42.2500733" lon="13.9350017"><ele>195.33333333333331</ele><time>2026-05-02T07:44:18.696Z</time></trkpt><trkpt lat="42.250005" lon="13.934995"><ele>193.0</ele><time>2026-05-02T07:44:20.695Z</time></trkpt><trkpt lat="42.2499167" lon="13.9349533"><ele>192.99999999999997</ele><time>2026-05-02T07:44:23.696Z</time></trkpt><trkpt lat="42.2498517" lon="13.934925"><ele>193.0</ele><time>2026-05-02T07:44:25.695Z</time></trkpt><trkpt lat="42.249785" lon="13.9348917"><ele>193.0</ele><time>2026-05-02T07:44:27.696Z</time></trkpt><trkpt lat="42.2497067" lon="13.93487"><ele>193.0</ele><time>2026-05-02T07:44:30.695Z</time></trkpt><trkpt lat="42.2496067" lon="13.9348967"><ele>192.99999999999997</ele><time>2026-05-02T07:44:33.695Z</time></trkpt><trkpt lat="42.24954" lon="13.9349283"><ele>193.0</ele><time>2026-05-02T07:44:35.696Z</time></trkpt><trkpt lat="42.2494633" lon="13.9349683"><ele>191.14285714285717</ele><time>2026-05-02T07:44:37.696Z</time></trkpt><trkpt lat="42.2494" lon="13.9349917"><ele>189.28571428571428</ele><time>2026-05-02T07:44:39.696Z</time></trkpt><trkpt lat="42.2493383" lon="13.9350117"><ele>187.42857142857144</ele><time>2026-05-02T07:44:41.694Z</time></trkpt><trkpt lat="42.249275" lon="13.9350233"><ele>185.57142857142858</ele><time>2026-05-02T07:44:43.694Z</time></trkpt><trkpt lat="42.2492067" lon="13.9350283"><ele>183.71428571428572</ele><time>2026-05-02T07:44:45.695Z</time></trkpt><trkpt lat="42.2491383" lon="13.9350383"><ele>181.85714285714286</ele><time>2026-05-02T07:44:47.695Z</time></trkpt><trkpt lat="42.2490467" lon="13.9350167"><ele>180.0</ele><time>2026-05-02T07:44:50.695Z</time></trkpt><trkpt lat="42.2489667" lon="13.9349683"><ele>178.5</ele><time>2026-05-02T07:44:53.695Z</time></trkpt><trkpt lat="42.24889" lon="13.93496"><ele>177.0</ele><time>2026-05-02T07:44:56.695Z</time></trkpt><trkpt lat="42.248815" lon="13.934985"><ele>175.5</ele><time>2026-05-02T07:44:58.694Z</time></trkpt><trkpt lat="42.2487383" lon="13.935015"><ele>174.0</ele><time>2026-05-02T07:45:00.694Z</time></trkpt><trkpt lat="42.2486633" lon="13.9350583"><ele>172.5</ele><time>2026-05-02T07:45:02.694Z</time></trkpt><trkpt lat="42.2485983" lon="13.9351383"><ele>171.0</ele><time>2026-05-02T07:45:04.695Z</time></trkpt><trkpt lat="42.24855" lon="13.9352483"><ele>168.8</ele><time>2026-05-02T07:45:06.695Z</time></trkpt><trkpt lat="42.2484933" lon="13.9353383"><ele>166.60000000000002</ele><time>2026-05-02T07:45:08.695Z</time></trkpt><trkpt lat="42.2484183" lon="13.9354067"><ele>164.4</ele><time>2026-05-02T07:45:10.694Z</time></trkpt><trkpt lat="42.2483333" lon="13.9354517"><ele>162.2</ele><time>2026-05-02T07:45:12.695Z</time></trkpt><trkpt lat="42.2482283" lon="13.9355017"><ele>160.0</ele><time>2026-05-02T07:45:14.695Z</time></trkpt><trkpt lat="42.2481517" lon="13.9355867"><ele>160.0</ele><time>2026-05-02T07:45:16.694Z</time></trkpt><trkpt lat="42.2481333" lon="13.93573"><ele>160.0</ele><time>2026-05-02T07:45:18.694Z</time></trkpt><trkpt lat="42.2481517" lon="13.9358217"><ele>160.0</ele><time>2026-05-02T07:45:19.695Z</time></trkpt><trkpt lat="42.2481683" lon="13.9359067"><ele>160.0</ele><time>2026-05-02T07:45:20.695Z</time></trkpt><trkpt lat="42.2481933" lon="13.9360017"><ele>160.0</ele><time>2026-05-02T07:45:21.695Z</time></trkpt><trkpt lat="42.2482083" lon="13.9361"><ele>160.0</ele><time>2026-05-02T07:45:22.695Z</time></trkpt><trkpt lat="42.248215" lon="13.9361967"><ele>159.4</ele><time>2026-05-02T07:45:23.695Z</time></trkpt><trkpt lat="42.2482167" lon="13.9362833"><ele>158.8</ele><time>2026-05-02T07:45:24.694Z</time></trkpt><trkpt lat="42.2482033" lon="13.9364417"><ele>158.2</ele><time>2026-05-02T07:45:26.695Z</time></trkpt><trkpt lat="42.2481783" lon="13.93652"><ele>157.6</ele><time>2026-05-02T07:45:27.695Z</time></trkpt><trkpt lat="42.2481283" lon="13.9366617"><ele>157.0</ele><time>2026-05-02T07:45:29.695Z</time></trkpt><trkpt lat="42.2480583" lon="13.936805"><ele>153.79999999999998</ele><time>2026-05-02T07:45:31.695Z</time></trkpt><trkpt lat="42.24801" lon="13.9368817"><ele>150.6</ele><time>2026-05-02T07:45:32.695Z</time></trkpt><trkpt lat="42.2479633" lon="13.9369433"><ele>147.39999999999998</ele><time>2026-05-02T07:45:33.694Z</time></trkpt><trkpt lat="42.2478833" lon="13.9370283"><ele>144.2</ele><time>2026-05-02T07:45:35.695Z</time></trkpt><trkpt lat="42.2477883" lon="13.9370933"><ele>141.0</ele><time>2026-05-02T07:45:37.695Z</time></trkpt><trkpt lat="42.2476783" lon="13.9371633"><ele>141.0</ele><time>2026-05-02T07:45:39.694Z</time></trkpt><trkpt lat="42.24757" lon="13.93725"><ele>141.0</ele><time>2026-05-02T07:45:41.694Z</time></trkpt><trkpt lat="42.24751" lon="13.9372867"><ele>141.0</ele><time>2026-05-02T07:45:42.694Z</time></trkpt><trkpt lat="42.2474483" lon="13.9373167"><ele>141.0</ele><time>2026-05-02T07:45:43.695Z</time></trkpt><trkpt lat="42.2473833" lon="13.93732"><ele>141.0</ele><time>2026-05-02T07:45:44.695Z</time></trkpt><trkpt lat="42.2473117" lon="13.9373067"><ele>141.0</ele><time>2026-05-02T07:45:45.695Z</time></trkpt><trkpt lat="42.24725" lon="13.93727"><ele>141.33333333333334</ele><time>2026-05-02T07:45:46.695Z</time></trkpt><trkpt lat="42.24719" lon="13.93722"><ele>141.66666666666666</ele><time>2026-05-02T07:45:47.694Z</time></trkpt><trkpt lat="42.2471383" lon="13.9371667"><ele>142.0</ele><time>2026-05-02T07:45:48.694Z</time></trkpt><trkpt lat="42.2470533" lon="13.9371"><ele>142.33333333333331</ele><time>2026-05-02T07:45:50.694Z</time></trkpt><trkpt lat="42.2469883" lon="13.93708"><ele>142.66666666666666</ele><time>2026-05-02T07:45:53.694Z</time></trkpt><trkpt lat="42.246925" lon="13.9369933"><ele>143.0</ele><time>2026-05-02T07:45:59.694Z</time></trkpt><trkpt lat="42.246865" lon="13.93695"><ele>143.0</ele><time>2026-05-02T07:46:03.695Z</time></trkpt><trkpt lat="42.246825" lon="13.9368733"><ele>143.0</ele><time>2026-05-02T07:46:10.695Z</time></trkpt><trkpt lat="42.2467867" lon="13.9367883"><ele>143.0</ele><time>2026-05-02T07:46:13.694Z</time></trkpt><trkpt lat="42.2467417" lon="13.936645"><ele>143.0</ele><time>2026-05-02T07:46:15.694Z</time></trkpt><trkpt lat="42.2467067" lon="13.936555"><ele>143.0</ele><time>2026-05-02T07:46:16.695Z</time></trkpt><trkpt lat="42.2466617" lon="13.9364533"><ele>143.0</ele><time>2026-05-02T07:46:17.694Z</time></trkpt><trkpt lat="42.2466217" lon="13.9363717"><ele>142.83333333333331</ele><time>2026-05-02T07:46:18.694Z</time></trkpt><trkpt lat="42.2465417" lon="13.9362783"><ele>142.66666666666666</ele><time>2026-05-02T07:46:20.695Z</time></trkpt><trkpt lat="42.24647" lon="13.9362667"><ele>142.5</ele><time>2026-05-02T07:46:22.695Z</time></trkpt><trkpt lat="42.2464217" lon="13.9363283"><ele>142.33333333333334</ele><time>2026-05-02T07:46:24.695Z</time></trkpt><trkpt lat="42.2463733" lon="13.9364567"><ele>142.16666666666669</ele><time>2026-05-02T07:46:26.694Z</time></trkpt><trkpt lat="42.2463383" lon="13.936535"><ele>142.0</ele><time>2026-05-02T07:46:27.694Z</time></trkpt><trkpt lat="42.2462817" lon="13.93664"><ele>144.0</ele><time>2026-05-02T07:46:29.694Z</time></trkpt><trkpt lat="42.2462567" lon="13.9367683"><ele>146.0</ele><time>2026-05-02T07:47:19.695Z</time></trkpt><trkpt lat="42.246255" lon="13.9368733"><ele>148.0</ele><time>2026-05-02T07:47:20.695Z</time></trkpt><trkpt lat="42.24626" lon="13.9370083"><ele>150.0</ele><time>2026-05-02T07:47:21.695Z</time></trkpt><trkpt lat="42.246265" lon="13.9371217"><ele>152.0</ele><time>2026-05-02T07:47:22.695Z</time></trkpt><trkpt lat="42.2462533" lon="13.937225"><ele>154.0</ele><time>2026-05-02T07:47:23.695Z</time></trkpt><trkpt lat="42.246225" lon="13.937335"><ele>154.0</ele><time>2026-05-02T07:47:24.695Z</time></trkpt><trkpt lat="42.2461717" lon="13.9374467"><ele>154.0</ele><time>2026-05-02T07:47:25.695Z</time></trkpt><trkpt lat="42.246095" lon="13.9375517"><ele>154.0</ele><time>2026-05-02T07:47:26.694Z</time></trkpt><trkpt lat="42.2460033" lon="13.9376617"><ele>154.0</ele><time>2026-05-02T07:47:27.694Z</time></trkpt><trkpt lat="42.2459283" lon="13.9377517"><ele>154.0</ele><time>2026-05-02T07:47:28.694Z</time></trkpt><trkpt lat="42.2458717" lon="13.9377983"><ele>154.0</ele><time>2026-05-02T07:47:29.694Z</time></trkpt><trkpt lat="42.245795" lon="13.9376783"><ele>154.0</ele><time>2026-05-02T07:47:34.695Z</time></trkpt><trkpt lat="42.2457633" lon="13.9375733"><ele>154.0</ele><time>2026-05-02T07:47:35.695Z</time></trkpt><trkpt lat="42.24572" lon="13.9374467"><ele>154.0</ele><time>2026-05-02T07:47:36.695Z</time></trkpt><trkpt lat="42.2456767" lon="13.9373217"><ele>154.0</ele><time>2026-05-02T07:47:37.694Z</time></trkpt><trkpt lat="42.245635" lon="13.93721"><ele>154.16666666666669</ele><time>2026-05-02T07:47:38.694Z</time></trkpt><trkpt lat="42.2455883" lon="13.9371217"><ele>154.33333333333334</ele><time>2026-05-02T07:47:39.694Z</time></trkpt><trkpt lat="42.2455583" lon="13.9370317"><ele>154.5</ele><time>2026-05-02T07:47:40.694Z</time></trkpt><trkpt lat="42.2455033" lon="13.9369017"><ele>154.66666666666666</ele><time>2026-05-02T07:47:42.694Z</time></trkpt><trkpt lat="42.24546" lon="13.936775"><ele>154.83333333333331</ele><time>2026-05-02T07:47:44.695Z</time></trkpt><trkpt lat="42.245415" lon="13.9366917"><ele>155.0</ele><time>2026-05-02T07:47:46.695Z</time></trkpt><trkpt lat="42.2453867" lon="13.9365483"><ele>155.4</ele><time>2026-05-02T07:50:07.693Z</time></trkpt><trkpt lat="42.2453567" lon="13.9364533"><ele>155.8</ele><time>2026-05-02T07:50:08.693Z</time></trkpt><trkpt lat="42.2453183" lon="13.936335"><ele>156.2</ele><time>2026-05-02T07:50:09.694Z</time></trkpt><trkpt lat="42.24528" lon="13.9362083"><ele>156.6</ele><time>2026-05-02T07:50:10.693Z</time></trkpt><trkpt lat="42.2452383" lon="13.9360717"><ele>157.0</ele><time>2026-05-02T07:50:11.693Z</time></trkpt><trkpt lat="42.245185" lon="13.9359267"><ele>157.6</ele><time>2026-05-02T07:50:12.693Z</time></trkpt><trkpt lat="42.2451367" lon="13.935785"><ele>158.2</ele><time>2026-05-02T07:50:13.694Z</time></trkpt><trkpt lat="42.24509" lon="13.9356417"><ele>158.8</ele><time>2026-05-02T07:50:14.694Z</time></trkpt><trkpt lat="42.245045" lon="13.9355133"><ele>159.4</ele><time>2026-05-02T07:50:15.693Z</time></trkpt><trkpt lat="42.245005" lon="13.9354133"><ele>160.0</ele><time>2026-05-02T07:50:16.693Z</time></trkpt><trkpt lat="42.2449683" lon="13.9353217"><ele>160.0</ele><time>2026-05-02T07:50:17.694Z</time></trkpt><trkpt lat="42.2449283" lon="13.935235"><ele>160.0</ele><time>2026-05-02T07:50:18.693Z</time></trkpt><trkpt lat="42.2448333" lon="13.935135"><ele>160.0</ele><time>2026-05-02T07:50:20.694Z</time></trkpt><trkpt lat="42.2447383" lon="13.93507"><ele>160.0</ele><time>2026-05-02T07:50:22.694Z</time></trkpt><trkpt lat="42.2446667" lon="13.935"><ele>160.0</ele><time>2026-05-02T07:50:24.694Z</time></trkpt><trkpt lat="42.2445983" lon="13.9349767"><ele>163.0</ele><time>2026-05-02T07:50:25.694Z</time></trkpt><trkpt lat="42.24441" lon="13.9351"><ele>166.0</ele><time>2026-05-02T07:50:26.693Z</time></trkpt><trkpt lat="42.2443383" lon="13.9354267"><ele>166.0</ele><time>2026-05-02T07:50:27.694Z</time></trkpt><trkpt lat="42.2443833" lon="13.935705"><ele>166.0</ele><time>2026-05-02T07:50:28.694Z</time></trkpt><trkpt lat="42.244395" lon="13.9359283"><ele>166.0</ele><time>2026-05-02T07:50:29.694Z</time></trkpt><trkpt lat="42.244365" lon="13.9360867"><ele>165.20000000000002</ele><time>2026-05-02T07:50:30.694Z</time></trkpt><trkpt lat="42.24434" lon="13.93625"><ele>164.4</ele><time>2026-05-02T07:50:31.694Z</time></trkpt><trkpt lat="42.2443083" lon="13.9364"><ele>163.6</ele><time>2026-05-02T07:50:32.693Z</time></trkpt><trkpt lat="42.244255" lon="13.936525"><ele>162.8</ele><time>2026-05-02T07:50:33.693Z</time></trkpt><trkpt lat="42.2442067" lon="13.9366467"><ele>162.0</ele><time>2026-05-02T07:50:34.694Z</time></trkpt><trkpt lat="42.2441567" lon="13.936755"><ele>161.6</ele><time>2026-05-02T07:50:35.694Z</time></trkpt><trkpt lat="42.24411" lon="13.9368483"><ele>161.2</ele><time>2026-05-02T07:50:36.694Z</time></trkpt><trkpt lat="42.2440667" lon="13.936925"><ele>160.8</ele><time>2026-05-02T07:50:37.693Z</time></trkpt><trkpt lat="42.2439683" lon="13.9369633"><ele>160.4</ele><time>2026-05-02T07:50:39.694Z</time></trkpt><trkpt lat="42.2438683" lon="13.9368483"><ele>160.0</ele><time>2026-05-02T07:50:41.693Z</time></trkpt><trkpt lat="42.2438283" lon="13.936725"><ele>161.25</ele><time>2026-05-02T07:50:42.694Z</time></trkpt><trkpt lat="42.24378" lon="13.9365783"><ele>162.5</ele><time>2026-05-02T07:50:43.693Z</time></trkpt><trkpt lat="42.24374" lon="13.9363983"><ele>163.75</ele><time>2026-05-02T07:50:44.693Z</time></trkpt><trkpt lat="42.243695" lon="13.93622"><ele>165.0</ele><time>2026-05-02T07:50:45.693Z</time></trkpt><trkpt lat="42.2436517" lon="13.936045"><ele>165.5</ele><time>2026-05-02T07:50:46.693Z</time></trkpt><trkpt lat="42.2436167" lon="13.935865"><ele>166.0</ele><time>2026-05-02T07:50:47.693Z</time></trkpt><trkpt lat="42.2435767" lon="13.9356867"><ele>166.5</ele><time>2026-05-02T07:50:48.694Z</time></trkpt><trkpt lat="42.2435317" lon="13.935525"><ele>167.0</ele><time>2026-05-02T07:50:49.693Z</time></trkpt><trkpt lat="42.24349" lon="13.93536"><ele>167.0</ele><time>2026-05-02T07:50:50.693Z</time></trkpt><trkpt lat="42.2434383" lon="13.935205"><ele>167.0</ele><time>2026-05-02T07:50:51.694Z</time></trkpt><trkpt lat="42.2433983" lon="13.9350483"><ele>167.0</ele><time>2026-05-02T07:50:52.694Z</time></trkpt><trkpt lat="42.243355" lon="13.9348933"><ele>167.0</ele><time>2026-05-02T07:50:53.694Z</time></trkpt><trkpt lat="42.24331" lon="13.9347417"><ele>167.5</ele><time>2026-05-02T07:50:54.693Z</time></trkpt><trkpt lat="42.2432767" lon="13.93459"><ele>168.0</ele><time>2026-05-02T07:50:55.693Z</time></trkpt><trkpt lat="42.2432333" lon="13.93444"><ele>168.5</ele><time>2026-05-02T07:50:56.693Z</time></trkpt><trkpt lat="42.2431967" lon="13.9342833"><ele>169.0</ele><time>2026-05-02T07:50:57.693Z</time></trkpt><trkpt lat="42.2431567" lon="13.934125"><ele>170.5</ele><time>2026-05-02T07:50:58.694Z</time></trkpt><trkpt lat="42.2431233" lon="13.933955"><ele>172.0</ele><time>2026-05-02T07:50:59.694Z</time></trkpt><trkpt lat="42.2430833" lon="13.933795"><ele>173.5</ele><time>2026-05-02T07:51:00.693Z</time></trkpt><trkpt lat="42.2430433" lon="13.9336267"><ele>175.0</ele><time>2026-05-02T07:51:01.694Z</time></trkpt><trkpt lat="42.24301" lon="13.9334517"><ele>175.5</ele><time>2026-05-02T07:51:02.694Z</time></trkpt><trkpt lat="42.2429683" lon="13.9332867"><ele>176.0</ele><time>2026-05-02T07:51:03.694Z</time></trkpt><trkpt lat="42.2429283" lon="13.9331283"><ele>176.5</ele><time>2026-05-02T07:51:04.694Z</time></trkpt><trkpt lat="42.2428883" lon="13.932965"><ele>177.0</ele><time>2026-05-02T07:51:05.694Z</time></trkpt><trkpt lat="42.2428433" lon="13.9328133"><ele>177.0</ele><time>2026-05-02T07:51:06.693Z</time></trkpt><trkpt lat="42.24281" lon="13.9326567"><ele>177.0</ele><time>2026-05-02T07:51:07.694Z</time></trkpt><trkpt lat="42.2427783" lon="13.9325167"><ele>177.0</ele><time>2026-05-02T07:51:08.694Z</time></trkpt><trkpt lat="42.2427367" lon="13.9323917"><ele>177.0</ele><time>2026-05-02T07:51:09.693Z</time></trkpt><trkpt lat="42.2427033" lon="13.9322617"><ele>177.0</ele><time>2026-05-02T07:51:10.693Z</time></trkpt><trkpt lat="42.2426683" lon="13.9321267"><ele>177.33333333333334</ele><time>2026-05-02T07:51:11.692Z</time></trkpt><trkpt lat="42.24263" lon="13.932"><ele>177.66666666666666</ele><time>2026-05-02T07:51:12.692Z</time></trkpt><trkpt lat="42.242605" lon="13.9318783"><ele>178.0</ele><time>2026-05-02T07:51:13.692Z</time></trkpt><trkpt lat="42.2425817" lon="13.931775"><ele>178.33333333333331</ele><time>2026-05-02T07:51:14.693Z</time></trkpt><trkpt lat="42.242565" lon="13.93169"><ele>178.66666666666666</ele><time>2026-05-02T07:51:15.693Z</time></trkpt><trkpt lat="42.2425333" lon="13.9315717"><ele>179.0</ele><time>2026-05-02T07:51:17.692Z</time></trkpt><trkpt lat="42.242495" lon="13.9314417"><ele>179.39999999999998</ele><time>2026-05-02T07:51:19.692Z</time></trkpt><trkpt lat="42.2424567" lon="13.9312883"><ele>179.8</ele><time>2026-05-02T07:51:21.693Z</time></trkpt><trkpt lat="42.2424333" lon="13.931205"><ele>180.2</ele><time>2026-05-02T07:51:22.692Z</time></trkpt><trkpt lat="42.2424067" lon="13.9310933"><ele>180.60000000000002</ele><time>2026-05-02T07:51:23.693Z</time></trkpt><trkpt lat="42.2423717" lon="13.9309617"><ele>181.0</ele><time>2026-05-02T07:51:24.692Z</time></trkpt><trkpt lat="42.2423233" lon="13.9307967"><ele>181.33333333333334</ele><time>2026-05-02T07:51:25.693Z</time></trkpt><trkpt lat="42.2422717" lon="13.9306"><ele>181.66666666666666</ele><time>2026-05-02T07:51:26.693Z</time></trkpt><trkpt lat="42.24223" lon="13.9303917"><ele>182.0</ele><time>2026-05-02T07:51:27.693Z</time></trkpt><trkpt lat="42.2421867" lon="13.9301983"><ele>182.0</ele><time>2026-05-02T07:51:28.693Z</time></trkpt><trkpt lat="42.2421467" lon="13.9300117"><ele>182.0</ele><time>2026-05-02T07:51:29.693Z</time></trkpt><trkpt lat="42.242105" lon="13.9298333"><ele>182.0</ele><time>2026-05-02T07:51:30.692Z</time></trkpt><trkpt lat="42.2420683" lon="13.9296583"><ele>182.0</ele><time>2026-05-02T07:51:31.693Z</time></trkpt><trkpt lat="42.24202" lon="13.92949"><ele>182.0</ele><time>2026-05-02T07:51:32.693Z</time></trkpt><trkpt lat="42.2419733" lon="13.92933"><ele>182.0</ele><time>2026-05-02T07:51:33.693Z</time></trkpt><trkpt lat="42.2419283" lon="13.9291817"><ele>182.0</ele><time>2026-05-02T07:51:34.693Z</time></trkpt><trkpt lat="42.2419" lon="13.9290283"><ele>182.0</ele><time>2026-05-02T07:51:35.692Z</time></trkpt><trkpt lat="42.2418817" lon="13.9288883"><ele>182.0</ele><time>2026-05-02T07:51:36.692Z</time></trkpt><trkpt lat="42.2418467" lon="13.9287717"><ele>182.0</ele><time>2026-05-02T07:51:37.693Z</time></trkpt><trkpt lat="42.2418067" lon="13.928665"><ele>182.0</ele><time>2026-05-02T07:51:38.692Z</time></trkpt><trkpt lat="42.24177" lon="13.9285417"><ele>182.0</ele><time>2026-05-02T07:51:39.692Z</time></trkpt><trkpt lat="42.2417367" lon="13.9283883"><ele>182.0</ele><time>2026-05-02T07:51:40.692Z</time></trkpt><trkpt lat="42.241695" lon="13.9282267"><ele>183.0</ele><time>2026-05-02T07:51:41.693Z</time></trkpt><trkpt lat="42.2416417" lon="13.92806"><ele>184.0</ele><time>2026-05-02T07:51:42.692Z</time></trkpt><trkpt lat="42.2416017" lon="13.9278967"><ele>185.0</ele><time>2026-05-02T07:51:43.693Z</time></trkpt><trkpt lat="42.2415667" lon="13.9277467"><ele>186.0</ele><time>2026-05-02T07:51:44.692Z</time></trkpt><trkpt lat="42.2415183" lon="13.9276033"><ele>186.0</ele><time>2026-05-02T07:51:45.692Z</time></trkpt><trkpt lat="42.2414867" lon="13.927445"><ele>186.0</ele><time>2026-05-02T07:51:46.693Z</time></trkpt><trkpt lat="42.2414517" lon="13.9273067"><ele>186.0</ele><time>2026-05-02T07:51:47.693Z</time></trkpt><trkpt lat="42.2414217" lon="13.9271633"><ele>186.0</ele><time>2026-05-02T07:51:48.693Z</time></trkpt><trkpt lat="42.2413933" lon="13.9270267"><ele>186.0</ele><time>2026-05-02T07:51:49.693Z</time></trkpt><trkpt lat="42.24137" lon="13.9269117"><ele>186.0</ele><time>2026-05-02T07:51:50.693Z</time></trkpt><trkpt lat="42.2413433" lon="13.92682"><ele>186.0</ele><time>2026-05-02T07:51:51.692Z</time></trkpt><trkpt lat="42.2413067" lon="13.9267383"><ele>186.0</ele><time>2026-05-02T07:51:52.692Z</time></trkpt><trkpt lat="42.2412667" lon="13.9266033"><ele>186.0</ele><time>2026-05-02T07:51:54.692Z</time></trkpt><trkpt lat="42.2412317" lon="13.9265133"><ele>186.0</ele><time>2026-05-02T07:52:33.692Z</time></trkpt><trkpt lat="42.241265" lon="13.926395"><ele>186.0</ele><time>2026-05-02T07:52:35.692Z</time></trkpt><trkpt lat="42.2413667" lon="13.9263633"><ele>186.20000000000002</ele><time>2026-05-02T07:52:37.693Z</time></trkpt><trkpt lat="42.241445" lon="13.9263667"><ele>186.4</ele><time>2026-05-02T07:52:38.693Z</time></trkpt><trkpt lat="42.2415333" lon="13.92638"><ele>186.6</ele><time>2026-05-02T07:52:39.693Z</time></trkpt><trkpt lat="42.24163" lon="13.9264"><ele>186.8</ele><time>2026-05-02T07:52:40.692Z</time></trkpt><trkpt lat="42.2417467" lon="13.9264067"><ele>187.0</ele><time>2026-05-02T07:52:41.692Z</time></trkpt><trkpt lat="42.241865" lon="13.9264317"><ele>187.0</ele><time>2026-05-02T07:52:42.692Z</time></trkpt><trkpt lat="42.2419833" lon="13.9264717"><ele>187.0</ele><time>2026-05-02T07:52:43.692Z</time></trkpt><trkpt lat="42.2420883" lon="13.9265133"><ele>187.0</ele><time>2026-05-02T07:52:44.692Z</time></trkpt><trkpt lat="42.2421817" lon="13.9265617"><ele>187.0</ele><time>2026-05-02T07:52:45.692Z</time></trkpt><trkpt lat="42.2422617" lon="13.9266117"><ele>187.0</ele><time>2026-05-02T07:52:46.693Z</time></trkpt><trkpt lat="42.2423383" lon="13.9266817"><ele>186.6</ele><time>2026-05-02T07:52:47.693Z</time></trkpt><trkpt lat="42.2424183" lon="13.9267617"><ele>186.2</ele><time>2026-05-02T07:52:48.693Z</time></trkpt><trkpt lat="42.2424917" lon="13.9268517"><ele>185.8</ele><time>2026-05-02T07:52:49.692Z</time></trkpt><trkpt lat="42.242565" lon="13.9269383"><ele>185.4</ele><time>2026-05-02T07:52:50.692Z</time></trkpt><trkpt lat="42.2426333" lon="13.9270233"><ele>185.0</ele><time>2026-05-02T07:52:51.692Z</time></trkpt><trkpt lat="42.242695" lon="13.9271017"><ele>185.0</ele><time>2026-05-02T07:52:52.693Z</time></trkpt><trkpt lat="42.24275" lon="13.9271883"><ele>185.0</ele><time>2026-05-02T07:52:53.692Z</time></trkpt><trkpt lat="42.2428117" lon="13.9272867"><ele>185.0</ele><time>2026-05-02T07:52:54.692Z</time></trkpt><trkpt lat="42.2428783" lon="13.9273883"><ele>185.0</ele><time>2026-05-02T07:52:55.693Z</time></trkpt><trkpt lat="42.242945" lon="13.9274933"><ele>185.0</ele><time>2026-05-02T07:52:56.692Z</time></trkpt><trkpt lat="42.2430267" lon="13.9275817"><ele>184.6</ele><time>2026-05-02T07:52:57.692Z</time></trkpt><trkpt lat="42.2430933" lon="13.9276783"><ele>184.2</ele><time>2026-05-02T07:52:58.692Z</time></trkpt><trkpt lat="42.2431567" lon="13.9277667"><ele>183.8</ele><time>2026-05-02T07:52:59.693Z</time></trkpt><trkpt lat="42.2432167" lon="13.9278533"><ele>183.4</ele><time>2026-05-02T07:53:00.692Z</time></trkpt><trkpt lat="42.24328" lon="13.9279417"><ele>183.0</ele><time>2026-05-02T07:53:01.693Z</time></trkpt><trkpt lat="42.2433533" lon="13.9280267"><ele>182.60000000000002</ele><time>2026-05-02T07:53:02.693Z</time></trkpt><trkpt lat="42.2434283" lon="13.9281233"><ele>182.20000000000002</ele><time>2026-05-02T07:53:03.692Z</time></trkpt><trkpt lat="42.243505" lon="13.92822"><ele>181.8</ele><time>2026-05-02T07:53:04.693Z</time></trkpt><trkpt lat="42.2435783" lon="13.92831"><ele>181.4</ele><time>2026-05-02T07:53:05.693Z</time></trkpt><trkpt lat="42.243655" lon="13.92837"><ele>181.0</ele><time>2026-05-02T07:53:06.692Z</time></trkpt><trkpt lat="42.2437367" lon="13.9284017"><ele>180.83333333333334</ele><time>2026-05-02T07:53:07.692Z</time></trkpt><trkpt lat="42.2438267" lon="13.9284167"><ele>180.66666666666669</ele><time>2026-05-02T07:53:08.693Z</time></trkpt><trkpt lat="42.243915" lon="13.928415"><ele>180.5</ele><time>2026-05-02T07:53:09.692Z</time></trkpt><trkpt lat="42.243995" lon="13.928395"><ele>180.33333333333334</ele><time>2026-05-02T07:53:10.692Z</time></trkpt><trkpt lat="42.2440683" lon="13.92835"><ele>180.16666666666666</ele><time>2026-05-02T07:53:11.692Z</time></trkpt><trkpt lat="42.2441417" lon="13.9283117"><ele>180.0</ele><time>2026-05-02T07:53:12.692Z</time></trkpt><trkpt lat="42.24421" lon="13.9282767"><ele>179.6</ele><time>2026-05-02T07:53:13.693Z</time></trkpt><trkpt lat="42.24427" lon="13.9282267"><ele>179.2</ele><time>2026-05-02T07:53:14.693Z</time></trkpt><trkpt lat="42.244335" lon="13.9281317"><ele>178.8</ele><time>2026-05-02T07:53:16.693Z</time></trkpt><trkpt lat="42.2444283" lon="13.9279767"><ele>178.4</ele><time>2026-05-02T07:53:31.693Z</time></trkpt><trkpt lat="42.2444467" lon="13.92783"><ele>178.0</ele><time>2026-05-02T07:53:33.692Z</time></trkpt><trkpt lat="42.244465" lon="13.9277017"><ele>178.0</ele><time>2026-05-02T07:53:35.693Z</time></trkpt><trkpt lat="42.2444717" lon="13.9276067"><ele>178.0</ele><time>2026-05-02T07:53:37.693Z</time></trkpt><trkpt lat="42.24449" lon="13.927445"><ele>178.0</ele><time>2026-05-02T07:53:39.693Z</time></trkpt><trkpt lat="42.2445033" lon="13.9273433"><ele>178.0</ele><time>2026-05-02T07:53:40.693Z</time></trkpt><trkpt lat="42.2445167" lon="13.9272417"><ele>178.0</ele><time>2026-05-02T07:53:41.692Z</time></trkpt><trkpt lat="42.2445317" lon="13.927155"><ele>178.0</ele><time>2026-05-02T07:53:42.693Z</time></trkpt><trkpt lat="42.2445517" lon="13.9270117"><ele>179.4</ele><time>2026-05-02T07:53:44.693Z</time></trkpt><trkpt lat="42.2445867" lon="13.9268517"><ele>180.8</ele><time>2026-05-02T07:53:46.693Z</time></trkpt><trkpt lat="42.2446083" lon="13.9267633"><ele>182.2</ele><time>2026-05-02T07:53:47.693Z</time></trkpt><trkpt lat="42.2446567" lon="13.926635"><ele>183.6</ele><time>2026-05-02T07:53:49.693Z</time></trkpt><trkpt lat="42.2446933" lon="13.9265533"><ele>185.0</ele><time>2026-05-02T07:53:52.693Z</time></trkpt><trkpt lat="42.2447333" lon="13.926425"><ele>186.33333333333331</ele><time>2026-05-02T07:53:54.693Z</time></trkpt><trkpt lat="42.24476" lon="13.9262967"><ele>187.66666666666666</ele><time>2026-05-02T07:53:56.693Z</time></trkpt><trkpt lat="42.24476" lon="13.92621"><ele>189.0</ele><time>2026-05-02T07:53:59.692Z</time></trkpt><trkpt lat="42.2448133" lon="13.926095"><ele>190.33333333333331</ele><time>2026-05-02T08:23:25.687Z</time></trkpt><trkpt lat="42.2448117" lon="13.92621"><ele>191.66666666666666</ele><time>2026-05-02T08:23:41.688Z</time></trkpt><trkpt lat="42.2447767" lon="13.9262983"><ele>193.0</ele><time>2026-05-02T08:23:44.688Z</time></trkpt><trkpt lat="42.2447483" lon="13.9263833"><ele>192.99999999999997</ele><time>2026-05-02T08:23:46.687Z</time></trkpt><trkpt lat="42.2447267" lon="13.926465"><ele>193.0</ele><time>2026-05-02T08:23:48.688Z</time></trkpt><trkpt lat="42.2447033" lon="13.9265533"><ele>193.0</ele><time>2026-05-02T08:23:52.687Z</time></trkpt><trkpt lat="42.2446717" lon="13.9266467"><ele>193.0</ele><time>2026-05-02T08:23:56.687Z</time></trkpt><trkpt lat="42.244635" lon="13.9267417"><ele>192.99999999999997</ele><time>2026-05-02T08:23:58.687Z</time></trkpt><trkpt lat="42.2445867" lon="13.9268333"><ele>193.0</ele><time>2026-05-02T08:24:01.687Z</time></trkpt><trkpt lat="42.2446267" lon="13.926955"><ele>191.66666666666666</ele><time>2026-05-02T08:24:12.687Z</time></trkpt><trkpt lat="42.2446967" lon="13.92695"><ele>190.33333333333331</ele><time>2026-05-02T08:24:14.687Z</time></trkpt><trkpt lat="42.2448117" lon="13.92693"><ele>189.0</ele><time>2026-05-02T08:24:16.687Z</time></trkpt><trkpt lat="42.244885" lon="13.926915"><ele>187.66666666666666</ele><time>2026-05-02T08:24:17.687Z</time></trkpt><trkpt lat="42.2449583" lon="13.9268983"><ele>186.33333333333331</ele><time>2026-05-02T08:24:18.688Z</time></trkpt><trkpt lat="42.24503" lon="13.9268783"><ele>185.0</ele><time>2026-05-02T08:24:19.688Z</time></trkpt><trkpt lat="42.2451033" lon="13.9268633"><ele>182.0</ele><time>2026-05-02T08:24:20.688Z</time></trkpt><trkpt lat="42.2451867" lon="13.9268567"><ele>179.0</ele><time>2026-05-02T08:24:21.688Z</time></trkpt><trkpt lat="42.2452717" lon="13.926855"><ele>176.0</ele><time>2026-05-02T08:24:22.688Z</time></trkpt><trkpt lat="42.245345" lon="13.9268683"><ele>173.0</ele><time>2026-05-02T08:24:23.688Z</time></trkpt><trkpt lat="42.245415" lon="13.9268733"><ele>170.0</ele><time>2026-05-02T08:24:24.688Z</time></trkpt><trkpt lat="42.245495" lon="13.926875"><ele>167.0</ele><time>2026-05-02T08:24:25.687Z</time></trkpt><trkpt lat="42.2455717" lon="13.9268767"><ele>166.0</ele><time>2026-05-02T08:24:26.687Z</time></trkpt><trkpt lat="42.2456417" lon="13.9268733"><ele>165.0</ele><time>2026-05-02T08:24:27.687Z</time></trkpt><trkpt lat="42.245715" lon="13.9268733"><ele>164.0</ele><time>2026-05-02T08:24:28.688Z</time></trkpt><trkpt lat="42.2457867" lon="13.926865"><ele>163.0</ele><time>2026-05-02T08:24:29.688Z</time></trkpt><trkpt lat="42.2458533" lon="13.926865"><ele>162.0</ele><time>2026-05-02T08:24:30.688Z</time></trkpt><trkpt lat="42.2459217" lon="13.9268667"><ele>161.0</ele><time>2026-05-02T08:24:31.687Z</time></trkpt><trkpt lat="42.2460233" lon="13.9268883"><ele>161.0</ele><time>2026-05-02T08:24:33.688Z</time></trkpt><trkpt lat="42.2461" lon="13.926935"><ele>161.0</ele><time>2026-05-02T08:24:36.688Z</time></trkpt><trkpt lat="42.246155" lon="13.9270467"><ele>161.0</ele><time>2026-05-02T08:24:38.687Z</time></trkpt><trkpt lat="42.2461717" lon="13.92714"><ele>161.0</ele><time>2026-05-02T08:24:39.688Z</time></trkpt><trkpt lat="42.24617" lon="13.9272483"><ele>161.0</ele><time>2026-05-02T08:24:40.688Z</time></trkpt><trkpt lat="42.2461633" lon="13.9273533"><ele>161.0</ele><time>2026-05-02T08:24:41.687Z</time></trkpt><trkpt lat="42.2461617" lon="13.927445"><ele>161.0</ele><time>2026-05-02T08:24:42.688Z</time></trkpt><trkpt lat="42.2461567" lon="13.9275317"><ele>161.0</ele><time>2026-05-02T08:24:43.687Z</time></trkpt><trkpt lat="42.2461483" lon="13.9276183"><ele>161.0</ele><time>2026-05-02T08:24:44.687Z</time></trkpt><trkpt lat="42.246135" lon="13.9277067"><ele>161.0</ele><time>2026-05-02T08:24:45.688Z</time></trkpt><trkpt lat="42.2461217" lon="13.9278"><ele>161.0</ele><time>2026-05-02T08:24:46.688Z</time></trkpt><trkpt lat="42.24611" lon="13.9278967"><ele>161.0</ele><time>2026-05-02T08:24:47.688Z</time></trkpt><trkpt lat="42.2461133" lon="13.92799"><ele>161.0</ele><time>2026-05-02T08:24:48.687Z</time></trkpt><trkpt lat="42.24612" lon="13.92809"><ele>161.0</ele><time>2026-05-02T08:24:50.687Z</time></trkpt><trkpt lat="42.2461633" lon="13.928"><ele>161.0</ele><time>2026-05-02T08:24:53.687Z</time></trkpt><trkpt lat="42.2461517" lon="13.9278833"><ele>161.0</ele><time>2026-05-02T08:24:54.688Z</time></trkpt><trkpt lat="42.2461333" lon="13.9277517"><ele>161.0</ele><time>2026-05-02T08:24:55.687Z</time></trkpt><trkpt lat="42.2461367" lon="13.9276017"><ele>161.0</ele><time>2026-05-02T08:24:56.687Z</time></trkpt><trkpt lat="42.2461533" lon="13.927445"><ele>161.0</ele><time>2026-05-02T08:24:57.688Z</time></trkpt><trkpt lat="42.2461633" lon="13.9272967"><ele>161.0</ele><time>2026-05-02T08:24:58.687Z</time></trkpt><trkpt lat="42.24617" lon="13.92718"><ele>161.0</ele><time>2026-05-02T08:24:59.687Z</time></trkpt><trkpt lat="42.24617" lon="13.9270683"><ele>161.0</ele><time>2026-05-02T08:25:00.687Z</time></trkpt><trkpt lat="42.246165" lon="13.926975"><ele>161.0</ele><time>2026-05-02T08:25:01.687Z</time></trkpt><trkpt lat="42.2461483" lon="13.9268317"><ele>161.0</ele><time>2026-05-02T08:25:03.686Z</time></trkpt><trkpt lat="42.2461433" lon="13.92673"><ele>161.0</ele><time>2026-05-02T08:25:05.687Z</time></trkpt><trkpt lat="42.2461183" lon="13.9266483"><ele>161.0</ele><time>2026-05-02T08:25:07.687Z</time></trkpt><trkpt lat="42.24605" lon="13.9266133"><ele>161.0</ele><time>2026-05-02T08:25:09.686Z</time></trkpt><trkpt lat="42.2459483" lon="13.9266183"><ele>161.0</ele><time>2026-05-02T08:25:11.687Z</time></trkpt><trkpt lat="42.2458367" lon="13.92661"><ele>161.0</ele><time>2026-05-02T08:25:13.687Z</time></trkpt><trkpt lat="42.24575" lon="13.92659"><ele>160.8</ele><time>2026-05-02T08:25:15.686Z</time></trkpt><trkpt lat="42.2456783" lon="13.926525"><ele>160.60000000000002</ele><time>2026-05-02T08:25:24.686Z</time></trkpt><trkpt lat="42.245635" lon="13.9264183"><ele>160.4</ele><time>2026-05-02T08:25:26.686Z</time></trkpt><trkpt lat="42.2456117" lon="13.9262533"><ele>160.2</ele><time>2026-05-02T08:25:28.687Z</time></trkpt><trkpt lat="42.245605" lon="13.9261533"><ele>160.0</ele><time>2026-05-02T08:25:29.687Z</time></trkpt><trkpt lat="42.2456017" lon="13.92604"><ele>161.0</ele><time>2026-05-02T08:25:30.687Z</time></trkpt><trkpt lat="42.245595" lon="13.9259183"><ele>162.0</ele><time>2026-05-02T08:25:31.686Z</time></trkpt><trkpt lat="42.2455883" lon="13.9257933"><ele>163.0</ele><time>2026-05-02T08:25:32.687Z</time></trkpt><trkpt lat="42.24558" lon="13.92567"><ele>164.0</ele><time>2026-05-02T08:25:33.686Z</time></trkpt><trkpt lat="42.2455767" lon="13.9255583"><ele>165.0</ele><time>2026-05-02T08:25:34.687Z</time></trkpt><trkpt lat="42.2455733" lon="13.9254383"><ele>166.0</ele><time>2026-05-02T08:25:35.687Z</time></trkpt><trkpt lat="42.2455783" lon="13.9253083"><ele>165.60000000000002</ele><time>2026-05-02T08:25:36.686Z</time></trkpt><trkpt lat="42.24559" lon="13.9251733"><ele>165.2</ele><time>2026-05-02T08:25:37.686Z</time></trkpt><trkpt lat="42.2456133" lon="13.9250467"><ele>164.8</ele><time>2026-05-02T08:25:38.687Z</time></trkpt><trkpt lat="42.24564" lon="13.9249167"><ele>164.39999999999998</ele><time>2026-05-02T08:25:39.686Z</time></trkpt><trkpt lat="42.2456667" lon="13.9248"><ele>164.0</ele><time>2026-05-02T08:25:40.687Z</time></trkpt><trkpt lat="42.2456933" lon="13.9246767"><ele>164.0</ele><time>2026-05-02T08:25:41.686Z</time></trkpt><trkpt lat="42.2457217" lon="13.9245667"><ele>164.0</ele><time>2026-05-02T08:25:42.687Z</time></trkpt><trkpt lat="42.2457583" lon="13.9244617"><ele>164.0</ele><time>2026-05-02T08:25:43.687Z</time></trkpt><trkpt lat="42.24581" lon="13.92437"><ele>164.0</ele><time>2026-05-02T08:25:44.687Z</time></trkpt><trkpt lat="42.2458717" lon="13.9242917"><ele>164.0</ele><time>2026-05-02T08:25:45.687Z</time></trkpt><trkpt lat="42.24593" lon="13.92421"><ele>164.0</ele><time>2026-05-02T08:25:46.686Z</time></trkpt><trkpt lat="42.24598" lon="13.9241433"><ele>164.0</ele><time>2026-05-02T08:25:47.687Z</time></trkpt><trkpt lat="42.2460283" lon="13.9240583"><ele>164.0</ele><time>2026-05-02T08:25:48.687Z</time></trkpt><trkpt lat="42.2460683" lon="13.9239683"><ele>164.0</ele><time>2026-05-02T08:25:49.686Z</time></trkpt><trkpt lat="42.2461017" lon="13.9238667"><ele>164.0</ele><time>2026-05-02T08:25:50.687Z</time></trkpt><trkpt lat="42.246125" lon="13.923735"><ele>164.0</ele><time>2026-05-02T08:25:51.687Z</time></trkpt><trkpt lat="42.2461333" lon="13.9235817"><ele>164.0</ele><time>2026-05-02T08:25:52.686Z</time></trkpt><trkpt lat="42.2461333" lon="13.9234183"><ele>164.0</ele><time>2026-05-02T08:25:53.687Z</time></trkpt><trkpt lat="42.2461267" lon="13.9232567"><ele>164.0</ele><time>2026-05-02T08:25:54.687Z</time></trkpt><trkpt lat="42.246125" lon="13.9230917"><ele>164.0</ele><time>2026-05-02T08:25:55.687Z</time></trkpt><trkpt lat="42.24612" lon="13.9229233"><ele>164.5</ele><time>2026-05-02T08:25:56.687Z</time></trkpt><trkpt lat="42.2461117" lon="13.922755"><ele>165.0</ele><time>2026-05-02T08:25:57.687Z</time></trkpt><trkpt lat="42.2461" lon="13.9225767"><ele>165.5</ele><time>2026-05-02T08:25:58.687Z</time></trkpt><trkpt lat="42.2461" lon="13.9224"><ele>166.0</ele><time>2026-05-02T08:25:59.687Z</time></trkpt><trkpt lat="42.2461017" lon="13.9222317"><ele>166.20000000000002</ele><time>2026-05-02T08:26:00.686Z</time></trkpt><trkpt lat="42.2460967" lon="13.9220933"><ele>166.4</ele><time>2026-05-02T08:26:01.687Z</time></trkpt><trkpt lat="42.2460817" lon="13.9219817"><ele>166.6</ele><time>2026-05-02T08:26:02.687Z</time></trkpt><trkpt lat="42.2460567" lon="13.92187"><ele>166.8</ele><time>2026-05-02T08:26:03.686Z</time></trkpt><trkpt lat="42.246025" lon="13.9217467"><ele>167.0</ele><time>2026-05-02T08:26:04.687Z</time></trkpt><trkpt lat="42.2459917" lon="13.92162"><ele>167.39999999999998</ele><time>2026-05-02T08:26:05.687Z</time></trkpt><trkpt lat="42.24596" lon="13.9214967"><ele>167.79999999999998</ele><time>2026-05-02T08:26:06.686Z</time></trkpt><trkpt lat="42.24593" lon="13.9213733"><ele>168.2</ele><time>2026-05-02T08:26:07.687Z</time></trkpt><trkpt lat="42.2459033" lon="13.92126"><ele>168.6</ele><time>2026-05-02T08:26:08.687Z</time></trkpt><trkpt lat="42.2458817" lon="13.9211433"><ele>169.0</ele><time>2026-05-02T08:26:09.687Z</time></trkpt><trkpt lat="42.2458517" lon="13.9210267"><ele>169.0</ele><time>2026-05-02T08:26:10.686Z</time></trkpt><trkpt lat="42.2458117" lon="13.9209183"><ele>169.0</ele><time>2026-05-02T08:26:11.687Z</time></trkpt><trkpt lat="42.2457667" lon="13.920805"><ele>169.0</ele><time>2026-05-02T08:26:12.687Z</time></trkpt><trkpt lat="42.24571" lon="13.9206933"><ele>169.0</ele><time>2026-05-02T08:26:13.687Z</time></trkpt><trkpt lat="42.2456517" lon="13.9205917"><ele>169.0</ele><time>2026-05-02T08:26:14.687Z</time></trkpt><trkpt lat="42.2455967" lon="13.920485"><ele>170.33333333333334</ele><time>2026-05-02T08:26:15.686Z</time></trkpt><trkpt lat="42.2455483" lon="13.9203817"><ele>171.66666666666669</ele><time>2026-05-02T08:26:16.686Z</time></trkpt><trkpt lat="42.245515" lon="13.9202767"><ele>173.0</ele><time>2026-05-02T08:26:17.686Z</time></trkpt><trkpt lat="42.24549" lon="13.9201783"><ele>174.33333333333334</ele><time>2026-05-02T08:26:18.687Z</time></trkpt><trkpt lat="42.245475" lon="13.9200833"><ele>175.66666666666666</ele><time>2026-05-02T08:26:19.687Z</time></trkpt><trkpt lat="42.24546" lon="13.91999"><ele>177.0</ele><time>2026-05-02T08:26:20.686Z</time></trkpt><trkpt lat="42.24544" lon="13.9198933"><ele>177.0</ele><time>2026-05-02T08:26:21.687Z</time></trkpt><trkpt lat="42.2454033" lon="13.9198033"><ele>177.0</ele><time>2026-05-02T08:26:22.687Z</time></trkpt><trkpt lat="42.2453617" lon="13.91971"><ele>177.0</ele><time>2026-05-02T08:26:23.686Z</time></trkpt><trkpt lat="42.2453183" lon="13.9196017"><ele>177.0</ele><time>2026-05-02T08:26:24.686Z</time></trkpt><trkpt lat="42.2452783" lon="13.9194767"><ele>177.0</ele><time>2026-05-02T08:26:25.687Z</time></trkpt><trkpt lat="42.2452417" lon="13.9193483"><ele>176.6</ele><time>2026-05-02T08:26:26.687Z</time></trkpt><trkpt lat="42.24522" lon="13.9192233"><ele>176.2</ele><time>2026-05-02T08:26:27.687Z</time></trkpt><trkpt lat="42.2452283" lon="13.9190967"><ele>175.8</ele><time>2026-05-02T08:26:28.686Z</time></trkpt><trkpt lat="42.2452433" lon="13.9189533"><ele>175.4</ele><time>2026-05-02T08:26:29.686Z</time></trkpt><trkpt lat="42.24526" lon="13.918805"><ele>175.0</ele><time>2026-05-02T08:26:30.686Z</time></trkpt><trkpt lat="42.24528" lon="13.9186633"><ele>175.0</ele><time>2026-05-02T08:26:31.686Z</time></trkpt><trkpt lat="42.2453117" lon="13.918505"><ele>175.0</ele><time>2026-05-02T08:26:32.686Z</time></trkpt><trkpt lat="42.245345" lon="13.9183533"><ele>175.0</ele><time>2026-05-02T08:26:33.687Z</time></trkpt><trkpt lat="42.24538" lon="13.9182133"><ele>175.0</ele><time>2026-05-02T08:26:34.687Z</time></trkpt><trkpt lat="42.2454017" lon="13.918095"><ele>175.0</ele><time>2026-05-02T08:26:35.687Z</time></trkpt><trkpt lat="42.2454217" lon="13.9179783"><ele>174.83333333333334</ele><time>2026-05-02T08:26:36.686Z</time></trkpt><trkpt lat="42.2454283" lon="13.917875"><ele>174.66666666666669</ele><time>2026-05-02T08:26:37.687Z</time></trkpt><trkpt lat="42.245415" lon="13.9177717"><ele>174.5</ele><time>2026-05-02T08:26:38.687Z</time></trkpt><trkpt lat="42.2454" lon="13.91767"><ele>174.33333333333334</ele><time>2026-05-02T08:26:39.687Z</time></trkpt><trkpt lat="42.24537" lon="13.91758"><ele>174.16666666666666</ele><time>2026-05-02T08:26:40.686Z</time></trkpt><trkpt lat="42.2453283" lon="13.91749"><ele>174.0</ele><time>2026-05-02T08:26:41.687Z</time></trkpt><trkpt lat="42.2452767" lon="13.9174017"><ele>174.0</ele><time>2026-05-02T08:26:42.687Z</time></trkpt><trkpt lat="42.2452167" lon="13.9173017"><ele>174.0</ele><time>2026-05-02T08:26:43.686Z</time></trkpt><trkpt lat="42.2451433" lon="13.9171933"><ele>174.0</ele><time>2026-05-02T08:26:44.687Z</time></trkpt><trkpt lat="42.2450717" lon="13.9170867"><ele>174.0</ele><time>2026-05-02T08:26:45.687Z</time></trkpt><trkpt lat="42.245005" lon="13.9169867"><ele>174.0</ele><time>2026-05-02T08:26:46.687Z</time></trkpt><trkpt lat="42.2449483" lon="13.9168683"><ele>174.83333333333334</ele><time>2026-05-02T08:26:47.687Z</time></trkpt><trkpt lat="42.244895" lon="13.916735"><ele>175.66666666666666</ele><time>2026-05-02T08:26:48.687Z</time></trkpt><trkpt lat="42.2448483" lon="13.9166183"><ele>176.5</ele><time>2026-05-02T08:26:49.686Z</time></trkpt><trkpt lat="42.2448017" lon="13.9165283"><ele>177.33333333333331</ele><time>2026-05-02T08:26:50.686Z</time></trkpt><trkpt lat="42.2447567" lon="13.91646"><ele>178.16666666666666</ele><time>2026-05-02T08:26:51.686Z</time></trkpt><trkpt lat="42.2447033" lon="13.9164133"><ele>179.0</ele><time>2026-05-02T08:26:52.687Z</time></trkpt><trkpt lat="42.244635" lon="13.91638"><ele>179.0</ele><time>2026-05-02T08:26:53.686Z</time></trkpt><trkpt lat="42.2445583" lon="13.9163533"><ele>179.0</ele><time>2026-05-02T08:26:54.687Z</time></trkpt><trkpt lat="42.2444883" lon="13.9163317"><ele>179.0</ele><time>2026-05-02T08:26:55.686Z</time></trkpt><trkpt lat="42.244425" lon="13.9163033"><ele>179.0</ele><time>2026-05-02T08:26:56.686Z</time></trkpt><trkpt lat="42.2443267" lon="13.9162283"><ele>179.0</ele><time>2026-05-02T08:26:58.687Z</time></trkpt><trkpt lat="42.2442617" lon="13.9160733"><ele>179.0</ele><time>2026-05-02T08:27:00.687Z</time></trkpt><trkpt lat="42.24423" lon="13.9159533"><ele>179.0</ele><time>2026-05-02T08:27:01.687Z</time></trkpt><trkpt lat="42.2442017" lon="13.9158367"><ele>179.0</ele><time>2026-05-02T08:27:02.687Z</time></trkpt><trkpt lat="42.2441683" lon="13.915715"><ele>179.0</ele><time>2026-05-02T08:27:03.686Z</time></trkpt><trkpt lat="42.2441317" lon="13.9156033"><ele>179.0</ele><time>2026-05-02T08:27:04.686Z</time></trkpt><trkpt lat="42.2440867" lon="13.9155033"><ele>179.16666666666666</ele><time>2026-05-02T08:27:05.686Z</time></trkpt><trkpt lat="42.24404" lon="13.9154117"><ele>179.33333333333331</ele><time>2026-05-02T08:27:06.687Z</time></trkpt><trkpt lat="42.2439883" lon="13.9153333"><ele>179.5</ele><time>2026-05-02T08:27:07.687Z</time></trkpt><trkpt lat="42.2439217" lon="13.9152583"><ele>179.66666666666666</ele><time>2026-05-02T08:27:08.687Z</time></trkpt><trkpt lat="42.2438433" lon="13.915205"><ele>179.83333333333334</ele><time>2026-05-02T08:27:09.687Z</time></trkpt><trkpt lat="42.2437583" lon="13.9151467"><ele>180.0</ele><time>2026-05-02T08:27:10.687Z</time></trkpt><trkpt lat="42.24368" lon="13.9150717"><ele>181.0</ele><time>2026-05-02T08:27:11.687Z</time></trkpt><trkpt lat="42.2436017" lon="13.9149883"><ele>182.0</ele><time>2026-05-02T08:27:12.687Z</time></trkpt><trkpt lat="42.2435367" lon="13.9149"><ele>183.0</ele><time>2026-05-02T08:27:13.687Z</time></trkpt><trkpt lat="42.2434867" lon="13.914815"><ele>184.0</ele><time>2026-05-02T08:27:14.686Z</time></trkpt><trkpt lat="42.243445" lon="13.91474"><ele>185.0</ele><time>2026-05-02T08:27:15.686Z</time></trkpt><trkpt lat="42.2433983" lon="13.91468"><ele>186.0</ele><time>2026-05-02T08:27:16.686Z</time></trkpt><trkpt lat="42.2433517" lon="13.9146217"><ele>186.0</ele><time>2026-05-02T08:27:17.687Z</time></trkpt><trkpt lat="42.24327" lon="13.9145133"><ele>186.0</ele><time>2026-05-02T08:27:19.686Z</time></trkpt><trkpt lat="42.2432417" lon="13.9143517"><ele>186.0</ele><time>2026-05-02T08:27:21.686Z</time></trkpt><trkpt lat="42.24323" lon="13.9142367"><ele>186.0</ele><time>2026-05-02T08:27:22.686Z</time></trkpt><trkpt lat="42.2432167" lon="13.914115"><ele>186.0</ele><time>2026-05-02T08:27:23.687Z</time></trkpt><trkpt lat="42.243205" lon="13.9139967"><ele>186.71428571428572</ele><time>2026-05-02T08:27:24.686Z</time></trkpt><trkpt lat="42.243195" lon="13.9138917"><ele>187.42857142857144</ele><time>2026-05-02T08:27:25.687Z</time></trkpt><trkpt lat="42.2431867" lon="13.9138067"><ele>188.14285714285717</ele><time>2026-05-02T08:27:26.686Z</time></trkpt><trkpt lat="42.2431767" lon="13.9137183"><ele>188.85714285714286</ele><time>2026-05-02T08:27:27.686Z</time></trkpt><trkpt lat="42.2431633" lon="13.9136217"><ele>189.57142857142856</ele><time>2026-05-02T08:27:28.687Z</time></trkpt><trkpt lat="42.2431567" lon="13.9135367"><ele>190.2857142857143</ele><time>2026-05-02T08:27:29.686Z</time></trkpt><trkpt lat="42.2431367" lon="13.91344"><ele>191.0</ele><time>2026-05-02T08:27:30.686Z</time></trkpt><trkpt lat="42.243115" lon="13.9133333"><ele>191.0</ele><time>2026-05-02T08:27:31.687Z</time></trkpt><trkpt lat="42.243085" lon="13.9132233"><ele>191.0</ele><time>2026-05-02T08:27:32.687Z</time></trkpt><trkpt lat="42.2430433" lon="13.91312"><ele>191.0</ele><time>2026-05-02T08:27:33.687Z</time></trkpt><trkpt lat="42.2429867" lon="13.9130133"><ele>191.0</ele><time>2026-05-02T08:27:34.687Z</time></trkpt><trkpt lat="42.242925" lon="13.9129133"><ele>191.0</ele><time>2026-05-02T08:27:35.687Z</time></trkpt><trkpt lat="42.242865" lon="13.9128167"><ele>191.0</ele><time>2026-05-02T08:27:36.686Z</time></trkpt><trkpt lat="42.242815" lon="13.912715"><ele>191.0</ele><time>2026-05-02T08:27:37.686Z</time></trkpt><trkpt lat="42.2427767" lon="13.9126033"><ele>191.0</ele><time>2026-05-02T08:27:38.687Z</time></trkpt><trkpt lat="42.2427367" lon="13.9124867"><ele>191.0</ele><time>2026-05-02T08:27:39.687Z</time></trkpt><trkpt lat="42.2427083" lon="13.912375"><ele>191.0</ele><time>2026-05-02T08:27:40.687Z</time></trkpt><trkpt lat="42.24267" lon="13.9122967"><ele>191.0</ele><time>2026-05-02T08:27:41.687Z</time></trkpt><trkpt lat="42.2426167" lon="13.9121767"><ele>191.16666666666666</ele><time>2026-05-02T08:27:43.687Z</time></trkpt><trkpt lat="42.242545" lon="13.9121183"><ele>191.33333333333331</ele><time>2026-05-02T08:27:46.686Z</time></trkpt><trkpt lat="42.2424483" lon="13.912195"><ele>191.5</ele><time>2026-05-02T08:27:48.687Z</time></trkpt><trkpt lat="42.242385" lon="13.9122667"><ele>191.66666666666666</ele><time>2026-05-02T08:27:49.686Z</time></trkpt><trkpt lat="42.2423267" lon="13.9123317"><ele>191.83333333333334</ele><time>2026-05-02T08:27:50.686Z</time></trkpt><trkpt lat="42.24226" lon="13.912405"><ele>192.0</ele><time>2026-05-02T08:27:51.686Z</time></trkpt><trkpt lat="42.2421983" lon="13.912485"><ele>194.8</ele><time>2026-05-02T08:27:52.686Z</time></trkpt><trkpt lat="42.24214" lon="13.9125783"><ele>197.6</ele><time>2026-05-02T08:27:53.686Z</time></trkpt><trkpt lat="42.242095" lon="13.91268"><ele>200.4</ele><time>2026-05-02T08:27:54.686Z</time></trkpt><trkpt lat="42.2420717" lon="13.912795"><ele>203.20000000000002</ele><time>2026-05-02T08:27:55.686Z</time></trkpt><trkpt lat="42.2420567" lon="13.9129233"><ele>206.0</ele><time>2026-05-02T08:27:56.686Z</time></trkpt><trkpt lat="42.242035" lon="13.91307"><ele>206.0</ele><time>2026-05-02T08:27:57.686Z</time></trkpt><trkpt lat="42.242005" lon="13.9132283"><ele>206.0</ele><time>2026-05-02T08:27:58.685Z</time></trkpt><trkpt lat="42.2419783" lon="13.9134067"><ele>206.0</ele><time>2026-05-02T08:27:59.686Z</time></trkpt><trkpt lat="42.241945" lon="13.9135867"><ele>206.0</ele><time>2026-05-02T08:28:00.686Z</time></trkpt><trkpt lat="42.24192" lon="13.9137567"><ele>205.60000000000002</ele><time>2026-05-02T08:28:01.685Z</time></trkpt><trkpt lat="42.2418967" lon="13.9139133"><ele>205.2</ele><time>2026-05-02T08:28:02.685Z</time></trkpt><trkpt lat="42.2418833" lon="13.9140717"><ele>204.8</ele><time>2026-05-02T08:28:03.685Z</time></trkpt><trkpt lat="42.24189" lon="13.914215"><ele>204.39999999999998</ele><time>2026-05-02T08:28:04.686Z</time></trkpt><trkpt lat="42.2418917" lon="13.91434"><ele>204.0</ele><time>2026-05-02T08:28:05.686Z</time></trkpt><trkpt lat="42.2418883" lon="13.9144667"><ele>203.66666666666666</ele><time>2026-05-02T08:28:06.685Z</time></trkpt><trkpt lat="42.24187" lon="13.9145717"><ele>203.33333333333331</ele><time>2026-05-02T08:28:07.685Z</time></trkpt><trkpt lat="42.2418267" lon="13.9146767"><ele>203.0</ele><time>2026-05-02T08:28:08.686Z</time></trkpt><trkpt lat="42.2417717" lon="13.9147583"><ele>202.66666666666666</ele><time>2026-05-02T08:28:09.686Z</time></trkpt><trkpt lat="42.24172" lon="13.9148317"><ele>202.33333333333331</ele><time>2026-05-02T08:28:10.685Z</time></trkpt><trkpt lat="42.241665" lon="13.9148867"><ele>202.0</ele><time>2026-05-02T08:28:11.686Z</time></trkpt><trkpt lat="42.2415517" lon="13.9148867"><ele>202.0</ele><time>2026-05-02T08:28:13.686Z</time></trkpt><trkpt lat="42.2414983" lon="13.9148067"><ele>202.0</ele><time>2026-05-02T08:28:14.685Z</time></trkpt><trkpt lat="42.2414433" lon="13.9146917"><ele>202.0</ele><time>2026-05-02T08:28:15.686Z</time></trkpt><trkpt lat="42.2413833" lon="13.9145733"><ele>202.0</ele><time>2026-05-02T08:28:16.686Z</time></trkpt><trkpt lat="42.24132" lon="13.9144717"><ele>202.0</ele><time>2026-05-02T08:28:17.686Z</time></trkpt><trkpt lat="42.2412633" lon="13.9144"><ele>204.39999999999998</ele><time>2026-05-02T08:28:18.685Z</time></trkpt><trkpt lat="42.2412083" lon="13.9143283"><ele>206.79999999999998</ele><time>2026-05-02T08:28:19.686Z</time></trkpt><trkpt lat="42.2411567" lon="13.914245"><ele>209.2</ele><time>2026-05-02T08:28:20.686Z</time></trkpt><trkpt lat="42.2411117" lon="13.9141417"><ele>211.6</ele><time>2026-05-02T08:28:21.686Z</time></trkpt><trkpt lat="42.2410717" lon="13.9140083"><ele>214.0</ele><time>2026-05-02T08:28:22.685Z</time></trkpt><trkpt lat="42.2410367" lon="13.913865"><ele>214.79999999999998</ele><time>2026-05-02T08:28:23.686Z</time></trkpt><trkpt lat="42.2410083" lon="13.91372"><ele>215.59999999999997</ele><time>2026-05-02T08:28:24.686Z</time></trkpt><trkpt lat="42.2409767" lon="13.9135767"><ele>216.4</ele><time>2026-05-02T08:28:25.685Z</time></trkpt><trkpt lat="42.240935" lon="13.9134467"><ele>217.2</ele><time>2026-05-02T08:28:26.686Z</time></trkpt><trkpt lat="42.2408933" lon="13.9133283"><ele>218.0</ele><time>2026-05-02T08:28:27.686Z</time></trkpt><trkpt lat="42.2408467" lon="13.9132167"><ele>219.60000000000002</ele><time>2026-05-02T08:28:28.685Z</time></trkpt><trkpt lat="42.2407933" lon="13.9131183"><ele>221.20000000000002</ele><time>2026-05-02T08:28:29.686Z</time></trkpt><trkpt lat="42.240735" lon="13.9130067"><ele>222.8</ele><time>2026-05-02T08:28:30.685Z</time></trkpt><trkpt lat="42.24067" lon="13.9129017"><ele>224.4</ele><time>2026-05-02T08:28:31.686Z</time></trkpt><trkpt lat="42.2406" lon="13.9128067"><ele>226.0</ele><time>2026-05-02T08:28:32.685Z</time></trkpt><trkpt lat="42.2405333" lon="13.9127133"><ele>226.0</ele><time>2026-05-02T08:28:33.686Z</time></trkpt><trkpt lat="42.2404633" lon="13.9126333"><ele>226.00000000000003</ele><time>2026-05-02T08:28:34.686Z</time></trkpt><trkpt lat="42.2404017" lon="13.9125533"><ele>226.00000000000003</ele><time>2026-05-02T08:28:35.685Z</time></trkpt><trkpt lat="42.2403267" lon="13.9124617"><ele>226.0</ele><time>2026-05-02T08:28:36.686Z</time></trkpt><trkpt lat="42.240255" lon="13.91237"><ele>226.0</ele><time>2026-05-02T08:28:37.686Z</time></trkpt><trkpt lat="42.24019" lon="13.9122767"><ele>228.4</ele><time>2026-05-02T08:28:38.685Z</time></trkpt><trkpt lat="42.2401233" lon="13.9121767"><ele>230.8</ele><time>2026-05-02T08:28:39.685Z</time></trkpt><trkpt lat="42.2400533" lon="13.9120717"><ele>233.20000000000002</ele><time>2026-05-02T08:28:40.686Z</time></trkpt><trkpt lat="42.2399867" lon="13.9119833"><ele>235.60000000000002</ele><time>2026-05-02T08:28:41.685Z</time></trkpt><trkpt lat="42.2399283" lon="13.91191"><ele>238.0</ele><time>2026-05-02T08:28:42.686Z</time></trkpt><trkpt lat="42.2398517" lon="13.9118033"><ele>238.60000000000002</ele><time>2026-05-02T08:28:44.686Z</time></trkpt><trkpt lat="42.23981" lon="13.91168"><ele>239.20000000000002</ele><time>2026-05-02T08:28:46.686Z</time></trkpt><trkpt lat="42.2397567" lon="13.9115533"><ele>239.8</ele><time>2026-05-02T08:28:48.685Z</time></trkpt><trkpt lat="42.239715" lon="13.9114383"><ele>240.4</ele><time>2026-05-02T08:28:50.685Z</time></trkpt><trkpt lat="42.2396767" lon="13.9113033"><ele>241.0</ele><time>2026-05-02T08:28:52.686Z</time></trkpt><trkpt lat="42.2396517" lon="13.9112167"><ele>242.60000000000002</ele><time>2026-05-02T08:28:53.685Z</time></trkpt><trkpt lat="42.2396183" lon="13.9111267"><ele>244.20000000000002</ele><time>2026-05-02T08:28:54.685Z</time></trkpt><trkpt lat="42.2395867" lon="13.9110383"><ele>245.79999999999998</ele><time>2026-05-02T08:28:55.686Z</time></trkpt><trkpt lat="42.2395533" lon="13.910955"><ele>247.39999999999998</ele><time>2026-05-02T08:28:56.686Z</time></trkpt><trkpt lat="42.2394867" lon="13.91082"><ele>249.0</ele><time>2026-05-02T08:28:58.685Z</time></trkpt><trkpt lat="42.239395" lon="13.9106867"><ele>249.16666666666666</ele><time>2026-05-02T08:29:00.686Z</time></trkpt><trkpt lat="42.2393283" lon="13.9106167"><ele>249.33333333333331</ele><time>2026-05-02T08:29:01.685Z</time></trkpt><trkpt lat="42.2392767" lon="13.9105583"><ele>249.5</ele><time>2026-05-02T08:29:02.686Z</time></trkpt><trkpt lat="42.2392317" lon="13.910485"><ele>249.66666666666666</ele><time>2026-05-02T08:29:03.685Z</time></trkpt><trkpt lat="42.2391717" lon="13.9103833"><ele>249.83333333333331</ele><time>2026-05-02T08:29:04.686Z</time></trkpt><trkpt lat="42.2391117" lon="13.9102867"><ele>250.0</ele><time>2026-05-02T08:29:05.685Z</time></trkpt><trkpt lat="42.2390417" lon="13.9101867"><ele>249.99999999999997</ele><time>2026-05-02T08:29:06.686Z</time></trkpt><trkpt lat="42.2389817" lon="13.9101033"><ele>250.0</ele><time>2026-05-02T08:29:07.686Z</time></trkpt><trkpt lat="42.2389217" lon="13.9100167"><ele>250.0</ele><time>2026-05-02T08:29:08.685Z</time></trkpt><trkpt lat="42.2388567" lon="13.9099367"><ele>250.0</ele><time>2026-05-02T08:29:09.685Z</time></trkpt><trkpt lat="42.238795" lon="13.90987"><ele>249.99999999999997</ele><time>2026-05-02T08:29:10.686Z</time></trkpt><trkpt lat="42.2387367" lon="13.909815"><ele>250.0</ele><time>2026-05-02T08:29:11.685Z</time></trkpt><trkpt lat="42.2386667" lon="13.909755"><ele>253.0</ele><time>2026-05-02T08:29:12.685Z</time></trkpt><trkpt lat="42.238585" lon="13.9096883"><ele>256.0</ele><time>2026-05-02T08:29:13.686Z</time></trkpt><trkpt lat="42.2385083" lon="13.909625"><ele>259.0</ele><time>2026-05-02T08:29:14.685Z</time></trkpt><trkpt lat="42.23844" lon="13.9095533"><ele>262.0</ele><time>2026-05-02T08:29:15.686Z</time></trkpt><trkpt lat="42.2383683" lon="13.9094833"><ele>265.0</ele><time>2026-05-02T08:29:16.686Z</time></trkpt><trkpt lat="42.2382983" lon="13.9094017"><ele>264.99999999999994</ele><time>2026-05-02T08:29:17.685Z</time></trkpt><trkpt lat="42.23823" lon="13.909325"><ele>265.0</ele><time>2026-05-02T08:29:18.685Z</time></trkpt><trkpt lat="42.23817" lon="13.9092583"><ele>265.0</ele><time>2026-05-02T08:29:19.685Z</time></trkpt><trkpt lat="42.238115" lon="13.90921"><ele>265.0</ele><time>2026-05-02T08:29:20.686Z</time></trkpt><trkpt lat="42.2380567" lon="13.9091767"><ele>265.0</ele><time>2026-05-02T08:29:21.686Z</time></trkpt><trkpt lat="42.23799" lon="13.90914"><ele>264.99999999999994</ele><time>2026-05-02T08:29:22.686Z</time></trkpt><trkpt lat="42.23792" lon="13.909135"><ele>265.0</ele><time>2026-05-02T08:29:23.685Z</time></trkpt><trkpt lat="42.2378517" lon="13.9091417"><ele>266.8333333333333</ele><time>2026-05-02T08:29:24.685Z</time></trkpt><trkpt lat="42.2377417" lon="13.9091633"><ele>268.66666666666663</ele><time>2026-05-02T08:29:26.686Z</time></trkpt><trkpt lat="42.2376667" lon="13.9091417"><ele>270.5</ele><time>2026-05-02T08:29:28.686Z</time></trkpt><trkpt lat="42.2376133" lon="13.9090433"><ele>272.3333333333333</ele><time>2026-05-02T08:29:30.685Z</time></trkpt><trkpt lat="42.237585" lon="13.90895"><ele>274.1666666666667</ele><time>2026-05-02T08:29:31.685Z</time></trkpt><trkpt lat="42.23755" lon="13.9088383"><ele>276.0</ele><time>2026-05-02T08:29:32.685Z</time></trkpt><trkpt lat="42.2375067" lon="13.9087233"><ele>276.0</ele><time>2026-05-02T08:29:33.685Z</time></trkpt><trkpt lat="42.23746" lon="13.9085983"><ele>276.0</ele><time>2026-05-02T08:29:34.686Z</time></trkpt><trkpt lat="42.2374167" lon="13.908485"><ele>276.0</ele><time>2026-05-02T08:29:35.685Z</time></trkpt><trkpt lat="42.237375" lon="13.90838"><ele>276.0</ele><time>2026-05-02T08:29:36.685Z</time></trkpt><trkpt lat="42.2373317" lon="13.9082733"><ele>276.0</ele><time>2026-05-02T08:29:37.685Z</time></trkpt><trkpt lat="42.2372883" lon="13.9081717"><ele>276.42857142857144</ele><time>2026-05-02T08:29:38.686Z</time></trkpt><trkpt lat="42.2372483" lon="13.9080733"><ele>276.8571428571429</ele><time>2026-05-02T08:29:39.685Z</time></trkpt><trkpt lat="42.23721" lon="13.9079883"><ele>277.2857142857143</ele><time>2026-05-02T08:29:40.686Z</time></trkpt><trkpt lat="42.237175" lon="13.9079117"><ele>277.7142857142857</ele><time>2026-05-02T08:29:41.686Z</time></trkpt><trkpt lat="42.237135" lon="13.9078317"><ele>278.1428571428571</ele><time>2026-05-02T08:29:42.685Z</time></trkpt><trkpt lat="42.2371" lon="13.9077533"><ele>278.57142857142856</ele><time>2026-05-02T08:29:43.686Z</time></trkpt><trkpt lat="42.2370583" lon="13.9076867"><ele>279.0</ele><time>2026-05-02T08:29:44.686Z</time></trkpt><trkpt lat="42.236995" lon="13.9075517"><ele>279.0</ele><time>2026-05-02T08:29:46.685Z</time></trkpt><trkpt lat="42.2369283" lon="13.90742"><ele>279.0</ele><time>2026-05-02T08:29:48.685Z</time></trkpt><trkpt lat="42.23686" lon="13.9072867"><ele>279.0</ele><time>2026-05-02T08:29:50.686Z</time></trkpt><trkpt lat="42.2368067" lon="13.9071433"><ele>279.0</ele><time>2026-05-02T08:29:52.686Z</time></trkpt><trkpt lat="42.2367533" lon="13.9070017"><ele>279.0</ele><time>2026-05-02T08:29:54.686Z</time></trkpt><trkpt lat="42.2366867" lon="13.9068583"><ele>279.0</ele><time>2026-05-02T08:29:56.685Z</time></trkpt><trkpt lat="42.2366483" lon="13.9067767"><ele>279.0</ele><time>2026-05-02T08:29:57.686Z</time></trkpt><trkpt lat="42.2365967" lon="13.9067033"><ele>279.0</ele><time>2026-05-02T08:29:58.686Z</time></trkpt><trkpt lat="42.23654" lon="13.9066317"><ele>279.0</ele><time>2026-05-02T08:29:59.685Z</time></trkpt><trkpt lat="42.2364833" lon="13.9065517"><ele>279.0</ele><time>2026-05-02T08:30:00.686Z</time></trkpt><trkpt lat="42.2364267" lon="13.9064783"><ele>278.5</ele><time>2026-05-02T08:30:01.686Z</time></trkpt><trkpt lat="42.2363767" lon="13.9064233"><ele>278.0</ele><time>2026-05-02T08:30:02.686Z</time></trkpt><trkpt lat="42.236305" lon="13.9063133"><ele>277.5</ele><time>2026-05-02T08:30:04.685Z</time></trkpt><trkpt lat="42.236275" lon="13.9062267"><ele>277.0</ele><time>2026-05-02T08:30:05.686Z</time></trkpt><trkpt lat="42.23624" lon="13.9061117"><ele>276.5</ele><time>2026-05-02T08:30:06.686Z</time></trkpt><trkpt lat="42.2362" lon="13.905985"><ele>276.0</ele><time>2026-05-02T08:30:07.685Z</time></trkpt><trkpt lat="42.2361683" lon="13.9058517"><ele>279.0</ele><time>2026-05-02T08:30:08.686Z</time></trkpt><trkpt lat="42.2361367" lon="13.9057117"><ele>282.0</ele><time>2026-05-02T08:30:09.685Z</time></trkpt><trkpt lat="42.2361" lon="13.9055767"><ele>285.0</ele><time>2026-05-02T08:30:10.685Z</time></trkpt><trkpt lat="42.2360533" lon="13.9054267"><ele>288.0</ele><time>2026-05-02T08:30:11.686Z</time></trkpt><trkpt lat="42.2359867" lon="13.9052733"><ele>288.0</ele><time>2026-05-02T08:30:12.685Z</time></trkpt><trkpt lat="42.2359233" lon="13.9051117"><ele>288.0</ele><time>2026-05-02T08:30:13.685Z</time></trkpt><trkpt lat="42.2358617" lon="13.90496"><ele>288.0</ele><time>2026-05-02T08:30:14.686Z</time></trkpt><trkpt lat="42.2358017" lon="13.9048283"><ele>288.0</ele><time>2026-05-02T08:30:15.686Z</time></trkpt><trkpt lat="42.23574" lon="13.9047"><ele>287.5</ele><time>2026-05-02T08:30:16.685Z</time></trkpt><trkpt lat="42.235685" lon="13.90458"><ele>287.0</ele><time>2026-05-02T08:30:17.686Z</time></trkpt><trkpt lat="42.2356217" lon="13.90445"><ele>286.5</ele><time>2026-05-02T08:30:18.686Z</time></trkpt><trkpt lat="42.235555" lon="13.90431"><ele>286.0</ele><time>2026-05-02T08:30:19.686Z</time></trkpt><trkpt lat="42.23549" lon="13.90417"><ele>288.3333333333333</ele><time>2026-05-02T08:30:20.685Z</time></trkpt><trkpt lat="42.2354283" lon="13.9040083"><ele>290.6666666666667</ele><time>2026-05-02T08:30:21.686Z</time></trkpt><trkpt lat="42.2353667" lon="13.9038217"><ele>293.0</ele><time>2026-05-02T08:30:22.685Z</time></trkpt><trkpt lat="42.2353267" lon="13.9035917"><ele>293.6666666666667</ele><time>2026-05-02T08:30:23.685Z</time></trkpt><trkpt lat="42.235295" lon="13.9033567"><ele>294.3333333333333</ele><time>2026-05-02T08:30:24.686Z</time></trkpt><trkpt lat="42.2352633" lon="13.9031383"><ele>295.0</ele><time>2026-05-02T08:30:25.685Z</time></trkpt><trkpt lat="42.2352417" lon="13.902965"><ele>295.0</ele><time>2026-05-02T08:30:26.686Z</time></trkpt><trkpt lat="42.2352317" lon="13.9028483"><ele>295.0</ele><time>2026-05-02T08:30:27.686Z</time></trkpt><trkpt lat="42.2352717" lon="13.902745"><ele>295.0</ele><time>2026-05-02T08:30:29.685Z</time></trkpt><trkpt lat="42.23536" lon="13.902825"><ele>295.0</ele><time>2026-05-02T08:30:31.685Z</time></trkpt><trkpt lat="42.2354033" lon="13.902935"><ele>295.0</ele><time>2026-05-02T08:30:32.685Z</time></trkpt><trkpt lat="42.2354367" lon="13.90308"><ele>295.0</ele><time>2026-05-02T08:30:33.685Z</time></trkpt><trkpt lat="42.2354667" lon="13.90324"><ele>295.0</ele><time>2026-05-02T08:30:34.686Z</time></trkpt><trkpt lat="42.2355083" lon="13.9034067"><ele>295.0</ele><time>2026-05-02T08:30:35.685Z</time></trkpt><trkpt lat="42.23556" lon="13.9035667"><ele>295.0</ele><time>2026-05-02T08:30:36.686Z</time></trkpt><trkpt lat="42.235615" lon="13.90371"><ele>296.16666666666663</ele><time>2026-05-02T08:30:37.686Z</time></trkpt><trkpt lat="42.2356667" lon="13.9038317"><ele>297.3333333333333</ele><time>2026-05-02T08:30:38.685Z</time></trkpt><trkpt lat="42.2357183" lon="13.9039083"><ele>298.5</ele><time>2026-05-02T08:30:39.685Z</time></trkpt><trkpt lat="42.2357833" lon="13.9039317"><ele>299.6666666666667</ele><time>2026-05-02T08:30:40.686Z</time></trkpt><trkpt lat="42.235845" lon="13.9039133"><ele>300.83333333333337</ele><time>2026-05-02T08:30:41.685Z</time></trkpt><trkpt lat="42.2359083" lon="13.9037617"><ele>302.0</ele><time>2026-05-02T08:30:43.686Z</time></trkpt><trkpt lat="42.2359033" lon="13.9036083"><ele>302.0</ele><time>2026-05-02T08:30:44.685Z</time></trkpt><trkpt lat="42.2358883" lon="13.9034267"><ele>302.0</ele><time>2026-05-02T08:30:45.686Z</time></trkpt><trkpt lat="42.235865" lon="13.90324"><ele>302.0</ele><time>2026-05-02T08:30:46.686Z</time></trkpt><trkpt lat="42.2358433" lon="13.90304"><ele>302.0</ele><time>2026-05-02T08:30:47.686Z</time></trkpt><trkpt lat="42.2358283" lon="13.9028417"><ele>303.5</ele><time>2026-05-02T08:30:48.686Z</time></trkpt><trkpt lat="42.2358183" lon="13.9026517"><ele>305.0</ele><time>2026-05-02T08:30:49.685Z</time></trkpt><trkpt lat="42.2358067" lon="13.9024717"><ele>306.5</ele><time>2026-05-02T08:30:50.685Z</time></trkpt><trkpt lat="42.2357933" lon="13.90229"><ele>308.0</ele><time>2026-05-02T08:30:51.684Z</time></trkpt><trkpt lat="42.2357817" lon="13.9021083"><ele>310.0</ele><time>2026-05-02T08:30:52.684Z</time></trkpt><trkpt lat="42.23576" lon="13.9019333"><ele>312.0</ele><time>2026-05-02T08:30:53.684Z</time></trkpt><trkpt lat="42.2357467" lon="13.9017617"><ele>314.0</ele><time>2026-05-02T08:30:54.684Z</time></trkpt><trkpt lat="42.2357283" lon="13.9015917"><ele>316.0</ele><time>2026-05-02T08:30:55.685Z</time></trkpt><trkpt lat="42.2357133" lon="13.90142"><ele>317.5</ele><time>2026-05-02T08:30:56.685Z</time></trkpt><trkpt lat="42.2357" lon="13.9012367"><ele>319.0</ele><time>2026-05-02T08:30:57.684Z</time></trkpt><trkpt lat="42.2356933" lon="13.9010417"><ele>320.5</ele><time>2026-05-02T08:30:58.685Z</time></trkpt><trkpt lat="42.2356833" lon="13.9008517"><ele>322.0</ele><time>2026-05-02T08:30:59.684Z</time></trkpt><trkpt lat="42.2356717" lon="13.90066"><ele>323.75</ele><time>2026-05-02T08:31:00.684Z</time></trkpt><trkpt lat="42.2356617" lon="13.9004717"><ele>325.5</ele><time>2026-05-02T08:31:01.684Z</time></trkpt><trkpt lat="42.235655" lon="13.900295"><ele>327.25</ele><time>2026-05-02T08:31:02.684Z</time></trkpt><trkpt lat="42.2356467" lon="13.9001217"><ele>329.0</ele><time>2026-05-02T08:31:03.684Z</time></trkpt><trkpt lat="42.2356517" lon="13.899955"><ele>329.75</ele><time>2026-05-02T08:31:04.684Z</time></trkpt><trkpt lat="42.2356583" lon="13.89979"><ele>330.5</ele><time>2026-05-02T08:31:05.685Z</time></trkpt><trkpt lat="42.2356833" lon="13.8996233"><ele>331.25</ele><time>2026-05-02T08:31:06.685Z</time></trkpt><trkpt lat="42.2357133" lon="13.899465"><ele>332.0</ele><time>2026-05-02T08:31:07.684Z</time></trkpt><trkpt lat="42.2357267" lon="13.8993117"><ele>333.6</ele><time>2026-05-02T08:31:08.684Z</time></trkpt><trkpt lat="42.2357167" lon="13.8991867"><ele>335.20000000000005</ele><time>2026-05-02T08:31:09.684Z</time></trkpt><trkpt lat="42.235715" lon="13.899065"><ele>336.8</ele><time>2026-05-02T08:31:10.685Z</time></trkpt><trkpt lat="42.235715" lon="13.8989267"><ele>338.4</ele><time>2026-05-02T08:31:11.685Z</time></trkpt><trkpt lat="42.2356983" lon="13.8987717"><ele>340.0</ele><time>2026-05-02T08:31:12.685Z</time></trkpt><trkpt lat="42.2356967" lon="13.8986233"><ele>340.0</ele><time>2026-05-02T08:31:13.684Z</time></trkpt><trkpt lat="42.23569" lon="13.8984883"><ele>340.0</ele><time>2026-05-02T08:31:14.685Z</time></trkpt><trkpt lat="42.23568" lon="13.898355"><ele>340.0</ele><time>2026-05-02T08:31:15.685Z</time></trkpt><trkpt lat="42.2356617" lon="13.8982267"><ele>340.0</ele><time>2026-05-02T08:31:16.685Z</time></trkpt><trkpt lat="42.2356517" lon="13.898105"><ele>340.0</ele><time>2026-05-02T08:31:17.684Z</time></trkpt><trkpt lat="42.2356317" lon="13.8979733"><ele>342.6</ele><time>2026-05-02T08:31:18.685Z</time></trkpt><trkpt lat="42.2356233" lon="13.897825"><ele>345.2</ele><time>2026-05-02T08:31:19.684Z</time></trkpt><trkpt lat="42.23562" lon="13.897685"><ele>347.79999999999995</ele><time>2026-05-02T08:31:20.685Z</time></trkpt><trkpt lat="42.23564" lon="13.897535"><ele>350.4</ele><time>2026-05-02T08:31:21.685Z</time></trkpt><trkpt lat="42.2356683" lon="13.89738"><ele>353.0</ele><time>2026-05-02T08:31:22.684Z</time></trkpt><trkpt lat="42.2356983" lon="13.8972183"><ele>353.0</ele><time>2026-05-02T08:31:23.685Z</time></trkpt><trkpt lat="42.2357233" lon="13.8970717"><ele>353.0</ele><time>2026-05-02T08:31:24.684Z</time></trkpt><trkpt lat="42.2357567" lon="13.8969267"><ele>353.0</ele><time>2026-05-02T08:31:25.684Z</time></trkpt><trkpt lat="42.2357917" lon="13.8967967"><ele>353.0</ele><time>2026-05-02T08:31:26.684Z</time></trkpt><trkpt lat="42.2358283" lon="13.89665"><ele>353.0</ele><time>2026-05-02T08:31:27.684Z</time></trkpt><trkpt lat="42.2358633" lon="13.8965"><ele>353.0</ele><time>2026-05-02T08:31:28.685Z</time></trkpt><trkpt lat="42.2358867" lon="13.8963483"><ele>353.0</ele><time>2026-05-02T08:31:29.685Z</time></trkpt><trkpt lat="42.23591" lon="13.89619"><ele>353.0</ele><time>2026-05-02T08:31:30.684Z</time></trkpt><trkpt lat="42.23592" lon="13.8960367"><ele>353.0</ele><time>2026-05-02T08:31:31.684Z</time></trkpt><trkpt lat="42.23593" lon="13.8958867"><ele>352.2</ele><time>2026-05-02T08:31:32.684Z</time></trkpt><trkpt lat="42.2359483" lon="13.8957417"><ele>351.4</ele><time>2026-05-02T08:31:33.684Z</time></trkpt><trkpt lat="42.23597" lon="13.8956117"><ele>350.59999999999997</ele><time>2026-05-02T08:31:34.684Z</time></trkpt><trkpt lat="42.2359933" lon="13.895475"><ele>349.79999999999995</ele><time>2026-05-02T08:31:35.685Z</time></trkpt><trkpt lat="42.23601" lon="13.8953283"><ele>349.0</ele><time>2026-05-02T08:31:36.684Z</time></trkpt><trkpt lat="42.23603" lon="13.895175"><ele>348.6</ele><time>2026-05-02T08:31:37.685Z</time></trkpt><trkpt lat="42.2360433" lon="13.8950117"><ele>348.2</ele><time>2026-05-02T08:31:38.684Z</time></trkpt><trkpt lat="42.23605" lon="13.8948567"><ele>347.8</ele><time>2026-05-02T08:31:39.684Z</time></trkpt><trkpt lat="42.2360683" lon="13.894705"><ele>347.40000000000003</ele><time>2026-05-02T08:31:40.685Z</time></trkpt><trkpt lat="42.236085" lon="13.8945783"><ele>347.0</ele><time>2026-05-02T08:31:41.685Z</time></trkpt><trkpt lat="42.2361" lon="13.8944583"><ele>347.0</ele><time>2026-05-02T08:31:42.685Z</time></trkpt><trkpt lat="42.2361317" lon="13.8943517"><ele>347.0</ele><time>2026-05-02T08:31:43.685Z</time></trkpt><trkpt lat="42.236175" lon="13.8942317"><ele>347.0</ele><time>2026-05-02T08:31:44.684Z</time></trkpt><trkpt lat="42.2362133" lon="13.8940833"><ele>347.0</ele><time>2026-05-02T08:31:45.685Z</time></trkpt><trkpt lat="42.2362267" lon="13.89391"><ele>347.0</ele><time>2026-05-02T08:31:46.685Z</time></trkpt><trkpt lat="42.236235" lon="13.8937217"><ele>346.75</ele><time>2026-05-02T08:31:47.685Z</time></trkpt><trkpt lat="42.2362383" lon="13.89354"><ele>346.5</ele><time>2026-05-02T08:31:48.685Z</time></trkpt><trkpt lat="42.2362267" lon="13.893355"><ele>346.25</ele><time>2026-05-02T08:31:49.685Z</time></trkpt><trkpt lat="42.236215" lon="13.8931767"><ele>346.0</ele><time>2026-05-02T08:31:50.685Z</time></trkpt><trkpt lat="42.2362083" lon="13.892995"><ele>346.0</ele><time>2026-05-02T08:31:51.685Z</time></trkpt><trkpt lat="42.2362067" lon="13.8928217"><ele>346.0</ele><time>2026-05-02T08:31:52.685Z</time></trkpt><trkpt lat="42.2361967" lon="13.8926583"><ele>346.0</ele><time>2026-05-02T08:31:53.684Z</time></trkpt><trkpt lat="42.236185" lon="13.8924883"><ele>346.0</ele><time>2026-05-02T08:31:54.684Z</time></trkpt><trkpt lat="42.2361733" lon="13.8923233"><ele>347.5</ele><time>2026-05-02T08:31:55.685Z</time></trkpt><trkpt lat="42.2361567" lon="13.8921667"><ele>349.0</ele><time>2026-05-02T08:31:56.685Z</time></trkpt><trkpt lat="42.2361233" lon="13.8920133"><ele>350.5</ele><time>2026-05-02T08:31:57.685Z</time></trkpt><trkpt lat="42.23608" lon="13.8918667"><ele>352.0</ele><time>2026-05-02T08:31:58.684Z</time></trkpt><trkpt lat="42.2360267" lon="13.8917183"><ele>354.0</ele><time>2026-05-02T08:31:59.684Z</time></trkpt><trkpt lat="42.2359717" lon="13.891565"><ele>356.0</ele><time>2026-05-02T08:32:00.685Z</time></trkpt><trkpt lat="42.2359167" lon="13.8914133"><ele>358.0</ele><time>2026-05-02T08:32:01.684Z</time></trkpt><trkpt lat="42.23585" lon="13.8912667"><ele>360.0</ele><time>2026-05-02T08:32:02.684Z</time></trkpt><trkpt lat="42.23579" lon="13.8911033"><ele>360.0</ele><time>2026-05-02T08:32:03.685Z</time></trkpt><trkpt lat="42.2357433" lon="13.890925"><ele>360.0</ele><time>2026-05-02T08:32:04.685Z</time></trkpt><trkpt lat="42.2357033" lon="13.8907267"><ele>360.0</ele><time>2026-05-02T08:32:05.685Z</time></trkpt><trkpt lat="42.23568" lon="13.89052"><ele>360.0</ele><time>2026-05-02T08:32:06.684Z</time></trkpt><trkpt lat="42.235655" lon="13.890315"><ele>361.5</ele><time>2026-05-02T08:32:07.684Z</time></trkpt><trkpt lat="42.2356183" lon="13.8901183"><ele>363.0</ele><time>2026-05-02T08:32:08.685Z</time></trkpt><trkpt lat="42.235565" lon="13.8899433"><ele>364.5</ele><time>2026-05-02T08:32:09.685Z</time></trkpt><trkpt lat="42.235495" lon="13.8897717"><ele>366.0</ele><time>2026-05-02T08:32:10.685Z</time></trkpt><trkpt lat="42.235415" lon="13.889595"><ele>366.0</ele><time>2026-05-02T08:32:11.684Z</time></trkpt><trkpt lat="42.2353317" lon="13.889415"><ele>366.0</ele><time>2026-05-02T08:32:12.685Z</time></trkpt><trkpt lat="42.2352417" lon="13.8892333"><ele>366.0</ele><time>2026-05-02T08:32:13.685Z</time></trkpt><trkpt lat="42.23516" lon="13.889045"><ele>369.3333333333333</ele><time>2026-05-02T08:32:14.685Z</time></trkpt><trkpt lat="42.2350683" lon="13.8888533"><ele>372.66666666666663</ele><time>2026-05-02T08:32:15.685Z</time></trkpt><trkpt lat="42.2349683" lon="13.8886617"><ele>376.0</ele><time>2026-05-02T08:32:16.684Z</time></trkpt><trkpt lat="42.2348567" lon="13.8884817"><ele>378.0</ele><time>2026-05-02T08:32:17.685Z</time></trkpt><trkpt lat="42.234745" lon="13.8882983"><ele>380.0</ele><time>2026-05-02T08:32:18.685Z</time></trkpt><trkpt lat="42.2346333" lon="13.88812"><ele>382.0</ele><time>2026-05-02T08:32:19.684Z</time></trkpt><trkpt lat="42.234525" lon="13.88794"><ele>382.0</ele><time>2026-05-02T08:32:20.685Z</time></trkpt><trkpt lat="42.2344167" lon="13.8877567"><ele>382.0</ele><time>2026-05-02T08:32:21.684Z</time></trkpt><trkpt lat="42.234315" lon="13.8875867"><ele>382.0</ele><time>2026-05-02T08:32:22.685Z</time></trkpt><trkpt lat="42.2342117" lon="13.8874233"><ele>382.3333333333333</ele><time>2026-05-02T08:32:23.685Z</time></trkpt><trkpt lat="42.2341117" lon="13.8872617"><ele>382.6666666666667</ele><time>2026-05-02T08:32:24.684Z</time></trkpt><trkpt lat="42.23401" lon="13.8871"><ele>383.0</ele><time>2026-05-02T08:32:25.684Z</time></trkpt><trkpt lat="42.2339133" lon="13.8869467"><ele>383.0</ele><time>2026-05-02T08:32:26.685Z</time></trkpt><trkpt lat="42.23382" lon="13.8868233"><ele>383.0</ele><time>2026-05-02T08:32:27.685Z</time></trkpt><trkpt lat="42.23373" lon="13.8867317"><ele>383.0</ele><time>2026-05-02T08:32:28.685Z</time></trkpt><trkpt lat="42.2336417" lon="13.8866733"><ele>383.0</ele><time>2026-05-02T08:32:29.685Z</time></trkpt><trkpt lat="42.233565" lon="13.8866133"><ele>383.0</ele><time>2026-05-02T08:32:30.685Z</time></trkpt><trkpt lat="42.2335017" lon="13.8865467"><ele>386.79999999999995</ele><time>2026-05-02T08:32:31.685Z</time></trkpt><trkpt lat="42.23347" lon="13.8864617"><ele>390.6</ele><time>2026-05-02T08:32:32.684Z</time></trkpt><trkpt lat="42.2334617" lon="13.88637"><ele>394.4</ele><time>2026-05-02T08:32:33.684Z</time></trkpt><trkpt lat="42.2335417" lon="13.8862467"><ele>398.20000000000005</ele><time>2026-05-02T08:32:35.685Z</time></trkpt><trkpt lat="42.233635" lon="13.8862533"><ele>402.0</ele><time>2026-05-02T08:32:36.684Z</time></trkpt><trkpt lat="42.2337417" lon="13.8862983"><ele>402.0</ele><time>2026-05-02T08:32:37.685Z</time></trkpt><trkpt lat="42.2338667" lon="13.886385"><ele>402.0</ele><time>2026-05-02T08:32:38.685Z</time></trkpt><trkpt lat="42.2340033" lon="13.8865"><ele>402.0</ele><time>2026-05-02T08:32:39.684Z</time></trkpt><trkpt lat="42.23414" lon="13.8866317"><ele>401.75</ele><time>2026-05-02T08:32:40.685Z</time></trkpt><trkpt lat="42.2342617" lon="13.8867767"><ele>401.5</ele><time>2026-05-02T08:32:41.685Z</time></trkpt><trkpt lat="42.23436" lon="13.8869167"><ele>401.25</ele><time>2026-05-02T08:32:42.684Z</time></trkpt><trkpt lat="42.234445" lon="13.8870083"><ele>401.0</ele><time>2026-05-02T08:32:43.684Z</time></trkpt><trkpt lat="42.234525" lon="13.8870583"><ele>400.99999999999994</ele><time>2026-05-02T08:32:44.685Z</time></trkpt><trkpt lat="42.2345967" lon="13.8870633"><ele>401.0</ele><time>2026-05-02T08:32:45.684Z</time></trkpt><trkpt lat="42.23466" lon="13.8870183"><ele>401.0</ele><time>2026-05-02T08:32:46.685Z</time></trkpt><trkpt lat="42.234695" lon="13.886935"><ele>401.0</ele><time>2026-05-02T08:32:47.684Z</time></trkpt><trkpt lat="42.2346833" lon="13.8868083"><ele>400.99999999999994</ele><time>2026-05-02T08:32:48.684Z</time></trkpt><trkpt lat="42.2346367" lon="13.8866933"><ele>401.0</ele><time>2026-05-02T08:32:49.685Z</time></trkpt><trkpt lat="42.2345533" lon="13.8865883"><ele>405.0</ele><time>2026-05-02T08:32:50.685Z</time></trkpt><trkpt lat="42.234445" lon="13.8864783"><ele>409.0</ele><time>2026-05-02T08:32:51.684Z</time></trkpt><trkpt lat="42.2343433" lon="13.8863433"><ele>413.0</ele><time>2026-05-02T08:32:52.684Z</time></trkpt><trkpt lat="42.2342617" lon="13.886195"><ele>417.0</ele><time>2026-05-02T08:32:53.684Z</time></trkpt><trkpt lat="42.2341883" lon="13.8860517"><ele>416.25</ele><time>2026-05-02T08:32:54.685Z</time></trkpt><trkpt lat="42.2341167" lon="13.8858967"><ele>415.5</ele><time>2026-05-02T08:32:55.685Z</time></trkpt><trkpt lat="42.234055" lon="13.8857183"><ele>414.75</ele><time>2026-05-02T08:32:56.684Z</time></trkpt><trkpt lat="42.2339967" lon="13.8855367"><ele>414.0</ele><time>2026-05-02T08:32:57.684Z</time></trkpt><trkpt lat="42.2339583" lon="13.885345"><ele>414.0</ele><time>2026-05-02T08:32:58.685Z</time></trkpt><trkpt lat="42.2339333" lon="13.8851517"><ele>414.0</ele><time>2026-05-02T08:32:59.684Z</time></trkpt><trkpt lat="42.2339033" lon="13.884955"><ele>414.0</ele><time>2026-05-02T08:33:00.684Z</time></trkpt><trkpt lat="42.2338767" lon="13.884765"><ele>414.0</ele><time>2026-05-02T08:33:01.685Z</time></trkpt><trkpt lat="42.233845" lon="13.8845783"><ele>417.5</ele><time>2026-05-02T08:33:02.684Z</time></trkpt><trkpt lat="42.23381" lon="13.8843917"><ele>421.0</ele><time>2026-05-02T08:33:03.684Z</time></trkpt><trkpt lat="42.2337783" lon="13.8842117"><ele>424.5</ele><time>2026-05-02T08:33:04.685Z</time></trkpt><trkpt lat="42.233745" lon="13.88403"><ele>428.0</ele><time>2026-05-02T08:33:05.684Z</time></trkpt><trkpt lat="42.2337083" lon="13.8838583"><ele>432.25</ele><time>2026-05-02T08:33:06.685Z</time></trkpt><trkpt lat="42.2336733" lon="13.8836917"><ele>436.5</ele><time>2026-05-02T08:33:07.685Z</time></trkpt><trkpt lat="42.2336367" lon="13.8835283"><ele>440.75</ele><time>2026-05-02T08:33:08.684Z</time></trkpt><trkpt lat="42.2336033" lon="13.8833567"><ele>445.0</ele><time>2026-05-02T08:33:09.684Z</time></trkpt><trkpt lat="42.2335767" lon="13.883185"><ele>449.0</ele><time>2026-05-02T08:33:10.684Z</time></trkpt><trkpt lat="42.2335483" lon="13.8830167"><ele>453.0</ele><time>2026-05-02T08:33:11.685Z</time></trkpt><trkpt lat="42.2335333" lon="13.8828433"><ele>457.0</ele><time>2026-05-02T08:33:12.685Z</time></trkpt><trkpt lat="42.2335367" lon="13.8826533"><ele>461.0</ele><time>2026-05-02T08:33:13.685Z</time></trkpt><trkpt lat="42.233555" lon="13.8824567"><ele>465.66666666666663</ele><time>2026-05-02T08:33:14.684Z</time></trkpt><trkpt lat="42.2335767" lon="13.8822583"><ele>470.33333333333337</ele><time>2026-05-02T08:33:15.684Z</time></trkpt><trkpt lat="42.2336017" lon="13.8820367"><ele>475.0</ele><time>2026-05-02T08:33:16.684Z</time></trkpt><trkpt lat="42.2336283" lon="13.8818167"><ele>476.33333333333337</ele><time>2026-05-02T08:33:17.684Z</time></trkpt><trkpt lat="42.2336583" lon="13.8816117"><ele>477.66666666666663</ele><time>2026-05-02T08:33:18.684Z</time></trkpt><trkpt lat="42.2336917" lon="13.8814033"><ele>479.0</ele><time>2026-05-02T08:33:19.684Z</time></trkpt><trkpt lat="42.2337233" lon="13.881205"><ele>479.0</ele><time>2026-05-02T08:33:20.684Z</time></trkpt><trkpt lat="42.2337633" lon="13.8810033"><ele>479.0</ele><time>2026-05-02T08:33:21.684Z</time></trkpt><trkpt lat="42.2337983" lon="13.8808067"><ele>479.0</ele><time>2026-05-02T08:33:22.685Z</time></trkpt><trkpt lat="42.23382" lon="13.8806083"><ele>478.66666666666663</ele><time>2026-05-02T08:33:23.685Z</time></trkpt><trkpt lat="42.2338083" lon="13.8803967"><ele>478.33333333333337</ele><time>2026-05-02T08:33:24.685Z</time></trkpt><trkpt lat="42.2337833" lon="13.8801883"><ele>478.0</ele><time>2026-05-02T08:33:25.684Z</time></trkpt><trkpt lat="42.2337467" lon="13.879995"><ele>477.5</ele><time>2026-05-02T08:33:26.684Z</time></trkpt><trkpt lat="42.233715" lon="13.8798067"><ele>477.0</ele><time>2026-05-02T08:33:27.684Z</time></trkpt><trkpt lat="42.2336933" lon="13.8796117"><ele>476.5</ele><time>2026-05-02T08:33:28.685Z</time></trkpt><trkpt lat="42.2336817" lon="13.8794267"><ele>476.0</ele><time>2026-05-02T08:33:29.684Z</time></trkpt><trkpt lat="42.2336983" lon="13.8792317"><ele>475.66666666666663</ele><time>2026-05-02T08:33:30.684Z</time></trkpt><trkpt lat="42.2337333" lon="13.87903"><ele>475.33333333333337</ele><time>2026-05-02T08:33:31.685Z</time></trkpt><trkpt lat="42.2337883" lon="13.8788333"><ele>475.0</ele><time>2026-05-02T08:33:32.685Z</time></trkpt><trkpt lat="42.233845" lon="13.878625"><ele>474.6666666666667</ele><time>2026-05-02T08:33:33.684Z</time></trkpt><trkpt lat="42.2338983" lon="13.8784083"><ele>474.33333333333337</ele><time>2026-05-02T08:33:34.685Z</time></trkpt><trkpt lat="42.23394" lon="13.8781967"><ele>474.0</ele><time>2026-05-02T08:33:35.685Z</time></trkpt><trkpt lat="42.2339783" lon="13.8779867"><ele>470.66666666666663</ele><time>2026-05-02T08:33:36.684Z</time></trkpt><trkpt lat="42.234015" lon="13.87777"><ele>467.3333333333333</ele><time>2026-05-02T08:33:37.684Z</time></trkpt><trkpt lat="42.23405" lon="13.8775483"><ele>464.0</ele><time>2026-05-02T08:33:38.684Z</time></trkpt><trkpt lat="42.2340733" lon="13.87733"><ele>464.0</ele><time>2026-05-02T08:33:39.683Z</time></trkpt><trkpt lat="42.2340933" lon="13.8771167"><ele>464.0</ele><time>2026-05-02T08:33:40.684Z</time></trkpt><trkpt lat="42.23411" lon="13.8769083"><ele>464.0</ele><time>2026-05-02T08:33:41.684Z</time></trkpt><trkpt lat="42.2341267" lon="13.876715"><ele>464.5</ele><time>2026-05-02T08:33:42.684Z</time></trkpt><trkpt lat="42.2341567" lon="13.8765333"><ele>465.0</ele><time>2026-05-02T08:33:43.683Z</time></trkpt><trkpt lat="42.2342133" lon="13.8763583"><ele>465.5</ele><time>2026-05-02T08:33:44.684Z</time></trkpt><trkpt lat="42.2342833" lon="13.87618"><ele>466.0</ele><time>2026-05-02T08:33:45.683Z</time></trkpt><trkpt lat="42.23437" lon="13.8760067"><ele>469.33333333333337</ele><time>2026-05-02T08:33:46.683Z</time></trkpt><trkpt lat="42.23447" lon="13.8758317"><ele>472.66666666666663</ele><time>2026-05-02T08:33:47.684Z</time></trkpt><trkpt lat="42.234585" lon="13.8756633"><ele>476.0</ele><time>2026-05-02T08:33:48.683Z</time></trkpt><trkpt lat="42.2346917" lon="13.8754917"><ele>473.0</ele><time>2026-05-02T08:33:49.683Z</time></trkpt><trkpt lat="42.2348067" lon="13.8753333"><ele>470.0</ele><time>2026-05-02T08:33:50.683Z</time></trkpt><trkpt lat="42.234935" lon="13.8752017"><ele>467.0</ele><time>2026-05-02T08:33:51.684Z</time></trkpt><trkpt lat="42.2350633" lon="13.8750683"><ele>467.0</ele><time>2026-05-02T08:33:52.684Z</time></trkpt><trkpt lat="42.2352033" lon="13.8749517"><ele>467.0</ele><time>2026-05-02T08:33:53.684Z</time></trkpt><trkpt lat="42.235335" lon="13.8748383"><ele>467.0</ele><time>2026-05-02T08:33:54.683Z</time></trkpt><trkpt lat="42.23545" lon="13.8747333"><ele>467.0</ele><time>2026-05-02T08:33:55.683Z</time></trkpt><trkpt lat="42.2355483" lon="13.8746183"><ele>467.00000000000006</ele><time>2026-05-02T08:33:56.684Z</time></trkpt><trkpt lat="42.2356217" lon="13.87451"><ele>467.00000000000006</ele><time>2026-05-02T08:33:57.683Z</time></trkpt><trkpt lat="42.2356617" lon="13.874405"><ele>467.0</ele><time>2026-05-02T08:33:58.684Z</time></trkpt><trkpt lat="42.2356767" lon="13.874295"><ele>467.0</ele><time>2026-05-02T08:33:59.683Z</time></trkpt><trkpt lat="42.2356567" lon="13.87417"><ele>470.0</ele><time>2026-05-02T08:34:00.684Z</time></trkpt><trkpt lat="42.2356" lon="13.8740517"><ele>473.00000000000006</ele><time>2026-05-02T08:34:01.684Z</time></trkpt><trkpt lat="42.23551" lon="13.8739483"><ele>476.00000000000006</ele><time>2026-05-02T08:34:02.683Z</time></trkpt><trkpt lat="42.235425" lon="13.8738583"><ele>479.0</ele><time>2026-05-02T08:34:03.684Z</time></trkpt><trkpt lat="42.2353733" lon="13.87376"><ele>482.0</ele><time>2026-05-02T08:34:04.684Z</time></trkpt><trkpt lat="42.2353433" lon="13.8736567"><ele>482.0</ele><time>2026-05-02T08:34:05.684Z</time></trkpt><trkpt lat="42.2353517" lon="13.8735533"><ele>482.00000000000006</ele><time>2026-05-02T08:34:06.684Z</time></trkpt><trkpt lat="42.2353867" lon="13.8734533"><ele>482.00000000000006</ele><time>2026-05-02T08:34:07.683Z</time></trkpt><trkpt lat="42.235455" lon="13.8733517"><ele>482.0</ele><time>2026-05-02T08:34:08.684Z</time></trkpt><trkpt lat="42.2355517" lon="13.8732683"><ele>482.0</ele><time>2026-05-02T08:34:09.683Z</time></trkpt><trkpt lat="42.2356417" lon="13.8732183"><ele>476.75</ele><time>2026-05-02T08:34:10.683Z</time></trkpt><trkpt lat="42.2357617" lon="13.8732083"><ele>471.5</ele><time>2026-05-02T08:34:11.683Z</time></trkpt><trkpt lat="42.235905" lon="13.8732283"><ele>466.25</ele><time>2026-05-02T08:34:12.684Z</time></trkpt><trkpt lat="42.23606" lon="13.873275"><ele>461.0</ele><time>2026-05-02T08:34:13.684Z</time></trkpt><trkpt lat="42.23622" lon="13.8733233"><ele>461.0</ele><time>2026-05-02T08:34:14.684Z</time></trkpt><trkpt lat="42.2363783" lon="13.8733633"><ele>461.0</ele><time>2026-05-02T08:34:15.684Z</time></trkpt><trkpt lat="42.23655" lon="13.8734"><ele>461.0</ele><time>2026-05-02T08:34:16.684Z</time></trkpt><trkpt lat="42.2367283" lon="13.8734133"><ele>461.25</ele><time>2026-05-02T08:34:17.684Z</time></trkpt><trkpt lat="42.236885" lon="13.8734017"><ele>461.5</ele><time>2026-05-02T08:34:18.683Z</time></trkpt><trkpt lat="42.23702" lon="13.8733383"><ele>461.75</ele><time>2026-05-02T08:34:19.683Z</time></trkpt><trkpt lat="42.2371467" lon="13.8732533"><ele>462.0</ele><time>2026-05-02T08:34:20.683Z</time></trkpt><trkpt lat="42.2372933" lon="13.873145"><ele>460.75</ele><time>2026-05-02T08:34:21.683Z</time></trkpt><trkpt lat="42.23743" lon="13.8730567"><ele>459.5</ele><time>2026-05-02T08:34:22.683Z</time></trkpt><trkpt lat="42.2375483" lon="13.87298"><ele>458.25</ele><time>2026-05-02T08:34:23.684Z</time></trkpt><trkpt lat="42.2376517" lon="13.872885"><ele>457.0</ele><time>2026-05-02T08:34:24.683Z</time></trkpt><trkpt lat="42.2377283" lon="13.872755"><ele>461.0</ele><time>2026-05-02T08:34:25.683Z</time></trkpt><trkpt lat="42.237795" lon="13.8725933"><ele>465.0</ele><time>2026-05-02T08:34:26.683Z</time></trkpt><trkpt lat="42.2378483" lon="13.8724017"><ele>469.0</ele><time>2026-05-02T08:34:27.684Z</time></trkpt><trkpt lat="42.2379033" lon="13.8721983"><ele>473.0</ele><time>2026-05-02T08:34:28.684Z</time></trkpt><trkpt lat="42.237965" lon="13.8720167"><ele>473.0</ele><time>2026-05-02T08:34:29.684Z</time></trkpt><trkpt lat="42.2380233" lon="13.8718633"><ele>473.0</ele><time>2026-05-02T08:34:30.684Z</time></trkpt><trkpt lat="42.2380833" lon="13.871715"><ele>473.0</ele><time>2026-05-02T08:34:31.684Z</time></trkpt><trkpt lat="42.238145" lon="13.871575"><ele>473.0</ele><time>2026-05-02T08:34:32.684Z</time></trkpt><trkpt lat="42.2382217" lon="13.8714333"><ele>473.25</ele><time>2026-05-02T08:34:33.683Z</time></trkpt><trkpt lat="42.2383133" lon="13.871295"><ele>473.5</ele><time>2026-05-02T08:34:34.683Z</time></trkpt><trkpt lat="42.2384133" lon="13.8711533"><ele>473.75</ele><time>2026-05-02T08:34:35.684Z</time></trkpt><trkpt lat="42.2385" lon="13.8710167"><ele>474.0</ele><time>2026-05-02T08:34:36.684Z</time></trkpt><trkpt lat="42.23858" lon="13.8709017"><ele>476.6666666666667</ele><time>2026-05-02T08:34:37.683Z</time></trkpt><trkpt lat="42.2386517" lon="13.8708033"><ele>479.33333333333337</ele><time>2026-05-02T08:34:38.683Z</time></trkpt><trkpt lat="42.2387" lon="13.87073"><ele>482.0</ele><time>2026-05-02T08:34:39.684Z</time></trkpt><trkpt lat="42.2387183" lon="13.870625"><ele>484.6666666666667</ele><time>2026-05-02T08:34:41.684Z</time></trkpt><trkpt lat="42.23862" lon="13.870595"><ele>487.33333333333337</ele><time>2026-05-02T08:34:43.683Z</time></trkpt><trkpt lat="42.2385333" lon="13.8706133"><ele>490.0</ele><time>2026-05-02T08:34:44.683Z</time></trkpt><trkpt lat="42.2384017" lon="13.8706417"><ele>490.0</ele><time>2026-05-02T08:34:45.684Z</time></trkpt><trkpt lat="42.238265" lon="13.87067"><ele>490.0</ele><time>2026-05-02T08:34:46.683Z</time></trkpt><trkpt lat="42.238135" lon="13.8706983"><ele>490.0</ele><time>2026-05-02T08:34:47.683Z</time></trkpt><trkpt lat="42.2380167" lon="13.8707333"><ele>490.0</ele><time>2026-05-02T08:34:48.683Z</time></trkpt><trkpt lat="42.2379183" lon="13.8707867"><ele>489.2</ele><time>2026-05-02T08:34:49.684Z</time></trkpt><trkpt lat="42.2378333" lon="13.87085"><ele>488.4</ele><time>2026-05-02T08:34:50.684Z</time></trkpt><trkpt lat="42.2377533" lon="13.8709117"><ele>487.6</ele><time>2026-05-02T08:34:51.683Z</time></trkpt><trkpt lat="42.2376833" lon="13.87096"><ele>486.8</ele><time>2026-05-02T08:34:52.684Z</time></trkpt><trkpt lat="42.2376133" lon="13.8709933"><ele>486.0</ele><time>2026-05-02T08:34:53.683Z</time></trkpt><trkpt lat="42.2375067" lon="13.8709717"><ele>488.8</ele><time>2026-05-02T08:34:55.684Z</time></trkpt><trkpt lat="42.2374883" lon="13.8708367"><ele>491.6</ele><time>2026-05-02T08:34:57.683Z</time></trkpt><trkpt lat="42.2375333" lon="13.8707383"><ele>494.4</ele><time>2026-05-02T08:34:58.683Z</time></trkpt><trkpt lat="42.23761" lon="13.8706267"><ele>497.2</ele><time>2026-05-02T08:34:59.684Z</time></trkpt><trkpt lat="42.237695" lon="13.8705117"><ele>500.0</ele><time>2026-05-02T08:35:00.684Z</time></trkpt><trkpt lat="42.2377817" lon="13.8703933"><ele>500.0</ele><time>2026-05-02T08:35:01.684Z</time></trkpt><trkpt lat="42.2378567" lon="13.8702783"><ele>500.0</ele><time>2026-05-02T08:35:02.683Z</time></trkpt><trkpt lat="42.2379183" lon="13.8701833"><ele>500.0</ele><time>2026-05-02T08:35:03.683Z</time></trkpt><trkpt lat="42.2379617" lon="13.8700917"><ele>500.0</ele><time>2026-05-02T08:35:04.684Z</time></trkpt><trkpt lat="42.2379917" lon="13.87001"><ele>500.0</ele><time>2026-05-02T08:35:05.684Z</time></trkpt><trkpt lat="42.2379717" lon="13.86986"><ele>503.0</ele><time>2026-05-02T08:35:07.684Z</time></trkpt><trkpt lat="42.237915" lon="13.86978"><ele>506.0</ele><time>2026-05-02T08:35:08.683Z</time></trkpt><trkpt lat="42.2378233" lon="13.8697233"><ele>509.0</ele><time>2026-05-02T08:35:09.683Z</time></trkpt><trkpt lat="42.2377083" lon="13.8696783"><ele>512.0</ele><time>2026-05-02T08:35:10.683Z</time></trkpt><trkpt lat="42.2375867" lon="13.8696367"><ele>515.0</ele><time>2026-05-02T08:35:11.684Z</time></trkpt><trkpt lat="42.2374617" lon="13.8695733"><ele>515.0</ele><time>2026-05-02T08:35:12.683Z</time></trkpt><trkpt lat="42.2373367" lon="13.8694967"><ele>515.0</ele><time>2026-05-02T08:35:13.684Z</time></trkpt><trkpt lat="42.2372067" lon="13.86942"><ele>515.0</ele><time>2026-05-02T08:35:14.684Z</time></trkpt><trkpt lat="42.2370733" lon="13.869345"><ele>515.0</ele><time>2026-05-02T08:35:15.684Z</time></trkpt><trkpt lat="42.2369383" lon="13.8692617"><ele>519.75</ele><time>2026-05-02T08:35:16.684Z</time></trkpt><trkpt lat="42.2368033" lon="13.8691767"><ele>524.5</ele><time>2026-05-02T08:35:17.684Z</time></trkpt><trkpt lat="42.23668" lon="13.8690883"><ele>529.25</ele><time>2026-05-02T08:35:18.684Z</time></trkpt><trkpt lat="42.2365717" lon="13.8690017"><ele>534.0</ele><time>2026-05-02T08:35:19.684Z</time></trkpt><trkpt lat="42.2364733" lon="13.868925"><ele>534.6666666666666</ele><time>2026-05-02T08:35:20.684Z</time></trkpt><trkpt lat="42.2363867" lon="13.8688583"><ele>535.3333333333334</ele><time>2026-05-02T08:35:21.684Z</time></trkpt><trkpt lat="42.2363133" lon="13.8688083"><ele>536.0</ele><time>2026-05-02T08:35:22.683Z</time></trkpt><trkpt lat="42.23625" lon="13.8687583"><ele>536.6666666666667</ele><time>2026-05-02T08:35:23.683Z</time></trkpt><trkpt lat="42.236205" lon="13.8686883"><ele>537.3333333333334</ele><time>2026-05-02T08:35:24.683Z</time></trkpt><trkpt lat="42.2362033" lon="13.868535"><ele>538.0</ele><time>2026-05-02T08:35:26.684Z</time></trkpt><trkpt lat="42.2363417" lon="13.8684317"><ele>538.0</ele><time>2026-05-02T08:35:28.684Z</time></trkpt><trkpt lat="42.23646" lon="13.8683783"><ele>538.0</ele><time>2026-05-02T08:35:29.683Z</time></trkpt><trkpt lat="42.236585" lon="13.868315"><ele>538.0</ele><time>2026-05-02T08:35:30.683Z</time></trkpt><trkpt lat="42.2367117" lon="13.868255"><ele>538.0</ele><time>2026-05-02T08:35:31.684Z</time></trkpt><trkpt lat="42.2368333" lon="13.8682"><ele>540.4</ele><time>2026-05-02T08:35:32.684Z</time></trkpt><trkpt lat="42.2369267" lon="13.8681533"><ele>542.8</ele><time>2026-05-02T08:35:33.683Z</time></trkpt><trkpt lat="42.2370033" lon="13.8681167"><ele>545.2</ele><time>2026-05-02T08:35:34.684Z</time></trkpt><trkpt lat="42.2370717" lon="13.8680333"><ele>547.6</ele><time>2026-05-02T08:35:36.683Z</time></trkpt><trkpt lat="42.2370083" lon="13.867915"><ele>550.0</ele><time>2026-05-02T08:35:38.683Z</time></trkpt><trkpt lat="42.2369383" lon="13.8678567"><ele>550.0</ele><time>2026-05-02T08:35:39.684Z</time></trkpt><trkpt lat="42.23685" lon="13.8678033"><ele>550.0</ele><time>2026-05-02T08:35:40.684Z</time></trkpt><trkpt lat="42.2367467" lon="13.86774"><ele>550.0</ele><time>2026-05-02T08:35:41.683Z</time></trkpt><trkpt lat="42.236645" lon="13.867665"><ele>550.0</ele><time>2026-05-02T08:35:42.684Z</time></trkpt><trkpt lat="42.2365417" lon="13.8675867"><ele>550.0</ele><time>2026-05-02T08:35:43.684Z</time></trkpt><trkpt lat="42.2364533" lon="13.86748"><ele>551.4</ele><time>2026-05-02T08:35:44.684Z</time></trkpt><trkpt lat="42.2363783" lon="13.8673433"><ele>552.8</ele><time>2026-05-02T08:35:45.683Z</time></trkpt><trkpt lat="42.23632" lon="13.867205"><ele>554.2</ele><time>2026-05-02T08:35:46.684Z</time></trkpt><trkpt lat="42.2362667" lon="13.8670783"><ele>555.6</ele><time>2026-05-02T08:35:47.684Z</time></trkpt><trkpt lat="42.2362167" lon="13.8669767"><ele>557.0</ele><time>2026-05-02T08:35:48.684Z</time></trkpt><trkpt lat="42.23616" lon="13.86689"><ele>557.0</ele><time>2026-05-02T08:35:49.684Z</time></trkpt><trkpt lat="42.2360967" lon="13.866835"><ele>557.0</ele><time>2026-05-02T08:35:50.684Z</time></trkpt><trkpt lat="42.2360217" lon="13.8668"><ele>557.0</ele><time>2026-05-02T08:35:51.684Z</time></trkpt><trkpt lat="42.235925" lon="13.86679"><ele>557.0</ele><time>2026-05-02T08:35:52.684Z</time></trkpt><trkpt lat="42.2358167" lon="13.8668117"><ele>557.0</ele><time>2026-05-02T08:35:53.684Z</time></trkpt><trkpt lat="42.23573" lon="13.8668467"><ele>557.0</ele><time>2026-05-02T08:35:54.683Z</time></trkpt><trkpt lat="42.235665" lon="13.8668633"><ele>557.0</ele><time>2026-05-02T08:35:55.684Z</time></trkpt><trkpt lat="42.2355983" lon="13.8668733"><ele>557.0</ele><time>2026-05-02T08:35:56.684Z</time></trkpt><trkpt lat="42.235535" lon="13.8668833"><ele>557.0</ele><time>2026-05-02T08:35:57.683Z</time></trkpt><trkpt lat="42.2354267" lon="13.8668567"><ele>557.0</ele><time>2026-05-02T08:35:59.683Z</time></trkpt><trkpt lat="42.2353733" lon="13.8667733"><ele>557.0</ele><time>2026-05-02T08:36:01.684Z</time></trkpt><trkpt lat="42.235445" lon="13.8666717"><ele>560.1666666666666</ele><time>2026-05-02T08:36:03.683Z</time></trkpt><trkpt lat="42.2355133" lon="13.8666333"><ele>563.3333333333333</ele><time>2026-05-02T08:36:04.683Z</time></trkpt><trkpt lat="42.2355733" lon="13.866605"><ele>566.5</ele><time>2026-05-02T08:36:05.684Z</time></trkpt><trkpt lat="42.2356433" lon="13.8665583"><ele>569.6666666666666</ele><time>2026-05-02T08:36:07.683Z</time></trkpt><trkpt lat="42.2356083" lon="13.866485"><ele>572.8333333333334</ele><time>2026-05-02T08:36:11.684Z</time></trkpt><trkpt lat="42.2355617" lon="13.8666"><ele>576.0</ele><time>2026-05-02T08:36:14.684Z</time></trkpt><trkpt lat="42.2354717" lon="13.866665"><ele>576.0</ele><time>2026-05-02T08:36:16.683Z</time></trkpt><trkpt lat="42.23539" lon="13.8667483"><ele>576.0</ele><time>2026-05-02T08:36:18.684Z</time></trkpt><trkpt lat="42.2353933" lon="13.8668533"><ele>576.0</ele><time>2026-05-02T08:36:23.684Z</time></trkpt><trkpt lat="42.23547" lon="13.86691"><ele>576.0</ele><time>2026-05-02T08:36:33.683Z</time></trkpt><trkpt lat="42.23541" lon="13.86684"><ele>576.0</ele><time>2026-05-02T08:36:58.682Z</time></trkpt><trkpt lat="42.2354083" lon="13.8667317"><ele>576.0</ele><time>2026-05-02T08:37:00.682Z</time></trkpt><trkpt lat="42.235495" lon="13.8666517"><ele>576.0</ele><time>2026-05-02T08:37:02.683Z</time></trkpt><trkpt lat="42.2355833" lon="13.8665883"><ele>576.0</ele><time>2026-05-02T08:37:04.683Z</time></trkpt><trkpt lat="42.235565" lon="13.866485"><ele>576.0</ele><time>2026-05-02T08:37:07.682Z</time></trkpt><trkpt lat="42.2354733" lon="13.86646"><ele>576.0</ele><time>2026-05-02T08:37:09.683Z</time></trkpt><trkpt lat="42.2353717" lon="13.86641"><ele>576.0</ele><time>2026-05-02T08:37:11.682Z</time></trkpt><trkpt lat="42.2352783" lon="13.866305"><ele>576.0</ele><time>2026-05-02T08:37:13.682Z</time></trkpt><trkpt lat="42.2352383" lon="13.866235"><ele>576.0</ele><time>2026-05-02T08:37:14.683Z</time></trkpt><trkpt lat="42.2351917" lon="13.8661633"><ele>576.0</ele><time>2026-05-02T08:37:15.682Z</time></trkpt><trkpt lat="42.2351417" lon="13.86608"><ele>576.0</ele><time>2026-05-02T08:37:16.683Z</time></trkpt><trkpt lat="42.235085" lon="13.8659883"><ele>576.0</ele><time>2026-05-02T08:37:17.682Z</time></trkpt><trkpt lat="42.235035" lon="13.865885"><ele>576.0</ele><time>2026-05-02T08:37:18.683Z</time></trkpt><trkpt lat="42.2349833" lon="13.865785"><ele>575.0</ele><time>2026-05-02T08:37:19.683Z</time></trkpt><trkpt lat="42.2349217" lon="13.8656967"><ele>574.0</ele><time>2026-05-02T08:37:20.683Z</time></trkpt><trkpt lat="42.2348667" lon="13.8655967"><ele>573.0</ele><time>2026-05-02T08:37:21.682Z</time></trkpt><trkpt lat="42.2347967" lon="13.8654983"><ele>572.0</ele><time>2026-05-02T08:37:22.683Z</time></trkpt><trkpt lat="42.2347283" lon="13.86541"><ele>571.0</ele><time>2026-05-02T08:37:23.682Z</time></trkpt><trkpt lat="42.23465" lon="13.865325"><ele>571.0</ele><time>2026-05-02T08:37:24.683Z</time></trkpt><trkpt lat="42.2345683" lon="13.8652417"><ele>571.0</ele><time>2026-05-02T08:37:25.682Z</time></trkpt><trkpt lat="42.2344917" lon="13.8651583"><ele>571.0</ele><time>2026-05-02T08:37:26.683Z</time></trkpt><trkpt lat="42.2344317" lon="13.8650617"><ele>571.0</ele><time>2026-05-02T08:37:27.682Z</time></trkpt><trkpt lat="42.2343817" lon="13.8649467"><ele>571.0</ele><time>2026-05-02T08:37:28.682Z</time></trkpt><trkpt lat="42.2343283" lon="13.8648233"><ele>574.6</ele><time>2026-05-02T08:37:29.682Z</time></trkpt><trkpt lat="42.2342667" lon="13.8646983"><ele>578.2</ele><time>2026-05-02T08:37:30.682Z</time></trkpt><trkpt lat="42.2342067" lon="13.8645717"><ele>581.8</ele><time>2026-05-02T08:37:31.683Z</time></trkpt><trkpt lat="42.2341417" lon="13.864455"><ele>585.4</ele><time>2026-05-02T08:37:32.683Z</time></trkpt><trkpt lat="42.2340833" lon="13.864335"><ele>589.0</ele><time>2026-05-02T08:37:33.683Z</time></trkpt><trkpt lat="42.2340433" lon="13.8642067"><ele>588.8</ele><time>2026-05-02T08:37:34.682Z</time></trkpt><trkpt lat="42.234" lon="13.8640767"><ele>588.5999999999999</ele><time>2026-05-02T08:37:35.682Z</time></trkpt><trkpt lat="42.2339533" lon="13.8639483"><ele>588.4</ele><time>2026-05-02T08:37:36.683Z</time></trkpt><trkpt lat="42.2339117" lon="13.8638233"><ele>588.1999999999999</ele><time>2026-05-02T08:37:37.683Z</time></trkpt><trkpt lat="42.233865" lon="13.8637"><ele>588.0</ele><time>2026-05-02T08:37:38.683Z</time></trkpt><trkpt lat="42.2338183" lon="13.86359"><ele>588.0</ele><time>2026-05-02T08:37:39.682Z</time></trkpt><trkpt lat="42.2337733" lon="13.8634933"><ele>588.0</ele><time>2026-05-02T08:37:40.682Z</time></trkpt><trkpt lat="42.2337217" lon="13.8634167"><ele>588.0</ele><time>2026-05-02T08:37:41.682Z</time></trkpt><trkpt lat="42.233675" lon="13.8633383"><ele>588.0</ele><time>2026-05-02T08:37:42.682Z</time></trkpt><trkpt lat="42.23363" lon="13.8632683"><ele>588.0</ele><time>2026-05-02T08:37:43.682Z</time></trkpt><trkpt lat="42.2335767" lon="13.8631883"><ele>588.0</ele><time>2026-05-02T08:37:44.682Z</time></trkpt><trkpt lat="42.2335233" lon="13.86311"><ele>590.3333333333334</ele><time>2026-05-02T08:37:45.682Z</time></trkpt><trkpt lat="42.2334683" lon="13.86304"><ele>592.6666666666666</ele><time>2026-05-02T08:37:46.683Z</time></trkpt><trkpt lat="42.2334183" lon="13.8629633"><ele>595.0</ele><time>2026-05-02T08:37:47.682Z</time></trkpt><trkpt lat="42.23337" lon="13.8628883"><ele>597.3333333333333</ele><time>2026-05-02T08:37:48.682Z</time></trkpt><trkpt lat="42.2333067" lon="13.8628217"><ele>599.6666666666666</ele><time>2026-05-02T08:37:49.682Z</time></trkpt><trkpt lat="42.233195" lon="13.8626983"><ele>602.0</ele><time>2026-05-02T08:37:51.683Z</time></trkpt><trkpt lat="42.23314" lon="13.8626467"><ele>602.0</ele><time>2026-05-02T08:37:52.683Z</time></trkpt><trkpt lat="42.2330883" lon="13.8625833"><ele>602.0</ele><time>2026-05-02T08:37:53.682Z</time></trkpt><trkpt lat="42.2330367" lon="13.8625133"><ele>602.0</ele><time>2026-05-02T08:37:54.683Z</time></trkpt><trkpt lat="42.2329817" lon="13.8624367"><ele>602.0</ele><time>2026-05-02T08:37:55.683Z</time></trkpt><trkpt lat="42.2329233" lon="13.86234"><ele>602.0</ele><time>2026-05-02T08:37:56.683Z</time></trkpt><trkpt lat="42.2328783" lon="13.8622183"><ele>602.0</ele><time>2026-05-02T08:37:57.683Z</time></trkpt><trkpt lat="42.2328367" lon="13.862085"><ele>602.0</ele><time>2026-05-02T08:37:58.683Z</time></trkpt><trkpt lat="42.2327917" lon="13.8619667"><ele>602.0</ele><time>2026-05-02T08:37:59.683Z</time></trkpt><trkpt lat="42.232755" lon="13.8618417"><ele>602.0</ele><time>2026-05-02T08:38:00.682Z</time></trkpt><trkpt lat="42.23272" lon="13.8617217"><ele>602.0</ele><time>2026-05-02T08:38:01.683Z</time></trkpt><trkpt lat="42.2326717" lon="13.8616033"><ele>602.0</ele><time>2026-05-02T08:38:02.682Z</time></trkpt><trkpt lat="42.2326283" lon="13.86149"><ele>604.5</ele><time>2026-05-02T08:38:03.683Z</time></trkpt><trkpt lat="42.232585" lon="13.861375"><ele>607.0</ele><time>2026-05-02T08:38:04.683Z</time></trkpt><trkpt lat="42.2325333" lon="13.8612667"><ele>609.5</ele><time>2026-05-02T08:38:05.683Z</time></trkpt><trkpt lat="42.2324933" lon="13.861165"><ele>612.0</ele><time>2026-05-02T08:38:06.683Z</time></trkpt><trkpt lat="42.232455" lon="13.8610717"><ele>614.5</ele><time>2026-05-02T08:38:07.682Z</time></trkpt><trkpt lat="42.2324167" lon="13.860965"><ele>617.0</ele><time>2026-05-02T08:38:08.682Z</time></trkpt><trkpt lat="42.2323867" lon="13.8608367"><ele>618.6</ele><time>2026-05-02T08:38:09.682Z</time></trkpt><trkpt lat="42.2323633" lon="13.860695"><ele>620.2</ele><time>2026-05-02T08:38:10.682Z</time></trkpt><trkpt lat="42.2323617" lon="13.86056"><ele>621.8</ele><time>2026-05-02T08:38:11.683Z</time></trkpt><trkpt lat="42.2323583" lon="13.8604383"><ele>623.4</ele><time>2026-05-02T08:38:12.682Z</time></trkpt><trkpt lat="42.2323617" lon="13.860315"><ele>625.0</ele><time>2026-05-02T08:38:13.683Z</time></trkpt><trkpt lat="42.23237" lon="13.8601967"><ele>626.0</ele><time>2026-05-02T08:38:14.682Z</time></trkpt><trkpt lat="42.2323733" lon="13.8600917"><ele>627.0</ele><time>2026-05-02T08:38:15.683Z</time></trkpt><trkpt lat="42.2323567" lon="13.860005"><ele>628.0</ele><time>2026-05-02T08:38:16.683Z</time></trkpt><trkpt lat="42.2323217" lon="13.85993"><ele>629.0</ele><time>2026-05-02T08:38:17.682Z</time></trkpt><trkpt lat="42.2321983" lon="13.8598667"><ele>630.0</ele><time>2026-05-02T08:38:19.682Z</time></trkpt><trkpt lat="42.23211" lon="13.859875"><ele>631.0</ele><time>2026-05-02T08:38:20.682Z</time></trkpt><trkpt lat="42.232015" lon="13.8598633"><ele>631.6</ele><time>2026-05-02T08:38:21.683Z</time></trkpt><trkpt lat="42.2319183" lon="13.8598283"><ele>632.2</ele><time>2026-05-02T08:38:22.682Z</time></trkpt><trkpt lat="42.231815" lon="13.85979"><ele>632.8</ele><time>2026-05-02T08:38:23.683Z</time></trkpt><trkpt lat="42.2317167" lon="13.859775"><ele>633.4</ele><time>2026-05-02T08:38:24.683Z</time></trkpt><trkpt lat="42.2316183" lon="13.85979"><ele>634.0</ele><time>2026-05-02T08:38:25.682Z</time></trkpt><trkpt lat="42.2315067" lon="13.8598333"><ele>636.0</ele><time>2026-05-02T08:38:26.682Z</time></trkpt><trkpt lat="42.23139" lon="13.8598967"><ele>638.0</ele><time>2026-05-02T08:38:27.682Z</time></trkpt><trkpt lat="42.2312867" lon="13.8599567"><ele>640.0</ele><time>2026-05-02T08:38:28.683Z</time></trkpt><trkpt lat="42.2312033" lon="13.8599983"><ele>642.0</ele><time>2026-05-02T08:38:29.682Z</time></trkpt><trkpt lat="42.23114" lon="13.8600183"><ele>644.0</ele><time>2026-05-02T08:38:30.682Z</time></trkpt><trkpt lat="42.2310283" lon="13.85999"><ele>644.0</ele><time>2026-05-02T08:38:32.683Z</time></trkpt><trkpt lat="42.230945" lon="13.8598567"><ele>644.0</ele><time>2026-05-02T08:38:34.682Z</time></trkpt><trkpt lat="42.230895" lon="13.85973"><ele>644.0</ele><time>2026-05-02T08:38:36.683Z</time></trkpt><trkpt lat="42.2308367" lon="13.8596683"><ele>644.0</ele><time>2026-05-02T08:38:38.683Z</time></trkpt><trkpt lat="42.23075" lon="13.8595933"><ele>644.0</ele><time>2026-05-02T08:38:40.683Z</time></trkpt><trkpt lat="42.2306533" lon="13.8595267"><ele>644.6</ele><time>2026-05-02T08:38:42.683Z</time></trkpt><trkpt lat="42.2305583" lon="13.8594733"><ele>645.2</ele><time>2026-05-02T08:38:44.683Z</time></trkpt><trkpt lat="42.2304833" lon="13.8594233"><ele>645.8000000000001</ele><time>2026-05-02T08:38:46.683Z</time></trkpt><trkpt lat="42.2303917" lon="13.85934"><ele>646.4000000000001</ele><time>2026-05-02T08:38:48.682Z</time></trkpt><trkpt lat="42.2303033" lon="13.8592583"><ele>647.0</ele><time>2026-05-02T08:38:50.682Z</time></trkpt><trkpt lat="42.2302317" lon="13.859205"><ele>650.0</ele><time>2026-05-02T08:38:52.683Z</time></trkpt><trkpt lat="42.2301483" lon="13.8591367"><ele>653.0</ele><time>2026-05-02T08:38:54.682Z</time></trkpt><trkpt lat="42.230045" lon="13.8590617"><ele>656.0</ele><time>2026-05-02T08:38:56.683Z</time></trkpt><trkpt lat="42.2299867" lon="13.8590283"><ele>659.0</ele><time>2026-05-02T08:38:57.683Z</time></trkpt><trkpt lat="42.2298817" lon="13.858955"><ele>662.0</ele><time>2026-05-02T08:38:59.683Z</time></trkpt><trkpt lat="42.2297633" lon="13.8589267"><ele>663.8333333333333</ele><time>2026-05-02T08:39:01.683Z</time></trkpt><trkpt lat="42.2296883" lon="13.8589183"><ele>665.6666666666666</ele><time>2026-05-02T08:39:02.682Z</time></trkpt><trkpt lat="42.22961" lon="13.8588967"><ele>667.5</ele><time>2026-05-02T08:39:03.682Z</time></trkpt><trkpt lat="42.2295367" lon="13.8588733"><ele>669.3333333333334</ele><time>2026-05-02T08:39:04.682Z</time></trkpt><trkpt lat="42.2294633" lon="13.8588583"><ele>671.1666666666667</ele><time>2026-05-02T08:39:05.683Z</time></trkpt><trkpt lat="42.2294" lon="13.85883"><ele>673.0</ele><time>2026-05-02T08:39:06.682Z</time></trkpt><trkpt lat="42.2293033" lon="13.8587183"><ele>673.0</ele><time>2026-05-02T08:39:08.682Z</time></trkpt><trkpt lat="42.2292317" lon="13.85859"><ele>673.0</ele><time>2026-05-02T08:39:10.683Z</time></trkpt><trkpt lat="42.2291717" lon="13.8584483"><ele>673.0</ele><time>2026-05-02T08:39:12.683Z</time></trkpt><trkpt lat="42.2291233" lon="13.8583517"><ele>673.0</ele><time>2026-05-02T08:39:14.682Z</time></trkpt><trkpt lat="42.22908" lon="13.858275"><ele>673.0</ele><time>2026-05-02T08:39:17.682Z</time></trkpt><trkpt lat="42.2290117" lon="13.8581533"><ele>676.0</ele><time>2026-05-02T08:39:19.682Z</time></trkpt><trkpt lat="42.2289583" lon="13.8580667"><ele>679.0</ele><time>2026-05-02T08:39:20.681Z</time></trkpt><trkpt lat="42.2289017" lon="13.857985"><ele>682.0</ele><time>2026-05-02T08:39:21.682Z</time></trkpt><trkpt lat="42.2288467" lon="13.8579183"><ele>685.0</ele><time>2026-05-02T08:39:22.681Z</time></trkpt><trkpt lat="42.2287967" lon="13.857865"><ele>688.0</ele><time>2026-05-02T08:39:23.681Z</time></trkpt><trkpt lat="42.2287433" lon="13.8578133"><ele>691.0</ele><time>2026-05-02T08:39:24.682Z</time></trkpt><trkpt lat="42.2286817" lon="13.8577633"><ele>694.0</ele><time>2026-05-02T08:39:25.682Z</time></trkpt><trkpt lat="42.2286217" lon="13.8577233"><ele>694.0</ele><time>2026-05-02T08:39:26.681Z</time></trkpt><trkpt lat="42.2285617" lon="13.8576783"><ele>694.0</ele><time>2026-05-02T08:39:27.681Z</time></trkpt><trkpt lat="42.2284483" lon="13.8576633"><ele>694.0</ele><time>2026-05-02T08:39:29.681Z</time></trkpt><trkpt lat="42.228385" lon="13.857695"><ele>694.0</ele><time>2026-05-02T08:39:30.681Z</time></trkpt><trkpt lat="42.2283183" lon="13.857735"><ele>694.0</ele><time>2026-05-02T08:39:31.681Z</time></trkpt><trkpt lat="42.2281983" lon="13.85774"><ele>694.0</ele><time>2026-05-02T08:39:33.682Z</time></trkpt><trkpt lat="42.2281417" lon="13.8576983"><ele>698.6666666666667</ele><time>2026-05-02T08:39:34.682Z</time></trkpt><trkpt lat="42.2280783" lon="13.8576467"><ele>703.3333333333334</ele><time>2026-05-02T08:39:35.681Z</time></trkpt><trkpt lat="42.2280033" lon="13.8575867"><ele>708.0</ele><time>2026-05-02T08:39:36.682Z</time></trkpt><trkpt lat="42.2279333" lon="13.85753"><ele>712.6666666666666</ele><time>2026-05-02T08:39:37.682Z</time></trkpt><trkpt lat="42.2278767" lon="13.85747"><ele>717.3333333333333</ele><time>2026-05-02T08:39:38.681Z</time></trkpt><trkpt lat="42.2278233" lon="13.8574017"><ele>722.0</ele><time>2026-05-02T08:39:39.682Z</time></trkpt><trkpt lat="42.2277683" lon="13.8573283"><ele>722.8333333333333</ele><time>2026-05-02T08:39:40.682Z</time></trkpt><trkpt lat="42.22772" lon="13.8572383"><ele>723.6666666666666</ele><time>2026-05-02T08:39:41.682Z</time></trkpt><trkpt lat="42.2276783" lon="13.857145"><ele>724.5</ele><time>2026-05-02T08:39:42.681Z</time></trkpt><trkpt lat="42.2276383" lon="13.8570533"><ele>725.3333333333334</ele><time>2026-05-02T08:39:43.682Z</time></trkpt><trkpt lat="42.2276017" lon="13.8569633"><ele>726.1666666666667</ele><time>2026-05-02T08:39:44.682Z</time></trkpt><trkpt lat="42.2275683" lon="13.8568667"><ele>727.0</ele><time>2026-05-02T08:39:45.681Z</time></trkpt><trkpt lat="42.2275233" lon="13.8567917"><ele>728.0</ele><time>2026-05-02T08:39:46.681Z</time></trkpt><trkpt lat="42.2274133" lon="13.8567017"><ele>729.0</ele><time>2026-05-02T08:39:48.682Z</time></trkpt><trkpt lat="42.22733" lon="13.8566917"><ele>730.0</ele><time>2026-05-02T08:39:49.681Z</time></trkpt><trkpt lat="42.22724" lon="13.8566933"><ele>731.0</ele><time>2026-05-02T08:39:50.682Z</time></trkpt><trkpt lat="42.22715" lon="13.8567083"><ele>732.0</ele><time>2026-05-02T08:39:51.681Z</time></trkpt><trkpt lat="42.227085" lon="13.8567133"><ele>736.2</ele><time>2026-05-02T08:39:52.681Z</time></trkpt><trkpt lat="42.2269717" lon="13.856655"><ele>740.4000000000001</ele><time>2026-05-02T08:39:54.682Z</time></trkpt><trkpt lat="42.22691" lon="13.856595"><ele>744.5999999999999</ele><time>2026-05-02T08:39:55.682Z</time></trkpt><trkpt lat="42.226825" lon="13.8565167"><ele>748.8</ele><time>2026-05-02T08:39:56.681Z</time></trkpt><trkpt lat="42.2267483" lon="13.8564467"><ele>753.0</ele><time>2026-05-02T08:39:57.682Z</time></trkpt><trkpt lat="42.22668" lon="13.85639"><ele>753.0</ele><time>2026-05-02T08:39:58.682Z</time></trkpt><trkpt lat="42.22662" lon="13.856325"><ele>753.0</ele><time>2026-05-02T08:39:59.682Z</time></trkpt><trkpt lat="42.2265667" lon="13.8562333"><ele>753.0</ele><time>2026-05-02T08:40:00.681Z</time></trkpt><trkpt lat="42.2265133" lon="13.856125"><ele>753.0</ele><time>2026-05-02T08:40:01.682Z</time></trkpt><trkpt lat="42.2264467" lon="13.8560083"><ele>753.0</ele><time>2026-05-02T08:40:02.682Z</time></trkpt><trkpt lat="42.2263733" lon="13.8558917"><ele>756.2</ele><time>2026-05-02T08:40:03.682Z</time></trkpt><trkpt lat="42.2263033" lon="13.8557867"><ele>759.4</ele><time>2026-05-02T08:40:04.681Z</time></trkpt><trkpt lat="42.22623" lon="13.8556817"><ele>762.6</ele><time>2026-05-02T08:40:05.682Z</time></trkpt><trkpt lat="42.2261633" lon="13.855585"><ele>765.8000000000001</ele><time>2026-05-02T08:40:06.682Z</time></trkpt><trkpt lat="42.2261017" lon="13.8554917"><ele>769.0</ele><time>2026-05-02T08:40:07.682Z</time></trkpt><trkpt lat="42.2260433" lon="13.8554283"><ele>769.0</ele><time>2026-05-02T08:40:08.682Z</time></trkpt><trkpt lat="42.2259867" lon="13.855375"><ele>769.0</ele><time>2026-05-02T08:40:09.682Z</time></trkpt><trkpt lat="42.22593" lon="13.855335"><ele>769.0</ele><time>2026-05-02T08:40:10.681Z</time></trkpt><trkpt lat="42.225815" lon="13.855285"><ele>769.0</ele><time>2026-05-02T08:40:12.682Z</time></trkpt><trkpt lat="42.2257067" lon="13.8552633"><ele>769.0</ele><time>2026-05-02T08:40:14.681Z</time></trkpt><trkpt lat="42.2255967" lon="13.8552367"><ele>771.8000000000001</ele><time>2026-05-02T08:40:16.681Z</time></trkpt><trkpt lat="42.2254817" lon="13.8552067"><ele>774.6</ele><time>2026-05-02T08:40:18.682Z</time></trkpt><trkpt lat="42.2254117" lon="13.85515"><ele>777.4</ele><time>2026-05-02T08:40:20.681Z</time></trkpt><trkpt lat="42.22538" lon="13.8550217"><ele>780.2</ele><time>2026-05-02T08:40:23.681Z</time></trkpt><trkpt lat="42.22534" lon="13.8549"><ele>783.0</ele><time>2026-05-02T08:40:25.682Z</time></trkpt><trkpt lat="42.2252833" lon="13.8547917"><ele>783.0</ele><time>2026-05-02T08:40:27.681Z</time></trkpt><trkpt lat="42.22525" lon="13.8546833"><ele>783.0</ele><time>2026-05-02T08:40:29.682Z</time></trkpt><trkpt lat="42.2252233" lon="13.854575"><ele>783.0</ele><time>2026-05-02T08:40:31.682Z</time></trkpt><trkpt lat="42.2251867" lon="13.8544883"><ele>783.0</ele><time>2026-05-02T08:40:38.681Z</time></trkpt><trkpt lat="42.225155" lon="13.854375"><ele>783.0</ele><time>2026-05-02T08:41:12.682Z</time></trkpt><trkpt lat="42.2251" lon="13.8542633"><ele>783.0</ele><time>2026-05-02T08:41:14.681Z</time></trkpt><trkpt lat="42.225055" lon="13.854145"><ele>783.8571428571428</ele><time>2026-05-02T08:41:16.682Z</time></trkpt><trkpt lat="42.225035" lon="13.8540433"><ele>784.7142857142858</ele><time>2026-05-02T08:41:19.682Z</time></trkpt><trkpt lat="42.2250083" lon="13.8539617"><ele>785.5714285714286</ele><time>2026-05-02T08:41:46.682Z</time></trkpt><trkpt lat="42.2249717" lon="13.8538567"><ele>786.4285714285713</ele><time>2026-05-02T08:44:30.681Z</time></trkpt><trkpt lat="42.224965" lon="13.853765"><ele>787.2857142857142</ele><time>2026-05-02T08:44:35.681Z</time></trkpt><trkpt lat="42.2249667" lon="13.8536783"><ele>788.1428571428571</ele><time>2026-05-02T08:44:38.681Z</time></trkpt><trkpt lat="42.2249567" lon="13.8535717"><ele>789.0</ele><time>2026-05-02T08:44:41.68Z</time></trkpt><trkpt lat="42.2249617" lon="13.853425"><ele>789.2</ele><time>2026-05-02T08:44:44.681Z</time></trkpt><trkpt lat="42.2250017" lon="13.853265"><ele>789.4000000000001</ele><time>2026-05-02T08:44:46.681Z</time></trkpt><trkpt lat="42.2250383" lon="13.8531517"><ele>789.6</ele><time>2026-05-02T08:44:47.68Z</time></trkpt><trkpt lat="42.22508" lon="13.8530317"><ele>789.8</ele><time>2026-05-02T08:44:48.681Z</time></trkpt><trkpt lat="42.2251317" lon="13.8529267"><ele>790.0</ele><time>2026-05-02T08:44:49.681Z</time></trkpt><trkpt lat="42.2251783" lon="13.8528267"><ele>790.0</ele><time>2026-05-02T08:44:50.681Z</time></trkpt><trkpt lat="42.2252317" lon="13.85273"><ele>790.0</ele><time>2026-05-02T08:44:51.681Z</time></trkpt><trkpt lat="42.2252933" lon="13.852645"><ele>790.0</ele><time>2026-05-02T08:44:52.681Z</time></trkpt><trkpt lat="42.2253567" lon="13.8525583"><ele>790.0</ele><time>2026-05-02T08:44:53.68Z</time></trkpt><trkpt lat="42.22542" lon="13.8524633"><ele>790.0</ele><time>2026-05-02T08:44:54.681Z</time></trkpt><trkpt lat="42.2254783" lon="13.8523567"><ele>790.3333333333333</ele><time>2026-05-02T08:44:55.681Z</time></trkpt><trkpt lat="42.225515" lon="13.8522533"><ele>790.6666666666666</ele><time>2026-05-02T08:44:56.681Z</time></trkpt><trkpt lat="42.225535" lon="13.8521617"><ele>791.0</ele><time>2026-05-02T08:44:57.68Z</time></trkpt><trkpt lat="42.2255467" lon="13.8520717"><ele>791.3333333333333</ele><time>2026-05-02T08:44:58.681Z</time></trkpt><trkpt lat="42.2255533" lon="13.851975"><ele>791.6666666666666</ele><time>2026-05-02T08:44:59.681Z</time></trkpt><trkpt lat="42.2255617" lon="13.8518633"><ele>792.0</ele><time>2026-05-02T08:45:00.681Z</time></trkpt><trkpt lat="42.2255767" lon="13.8517433"><ele>794.6</ele><time>2026-05-02T08:45:01.681Z</time></trkpt><trkpt lat="42.22559" lon="13.8516017"><ele>797.2</ele><time>2026-05-02T08:45:02.681Z</time></trkpt><trkpt lat="42.2256033" lon="13.8514567"><ele>799.8</ele><time>2026-05-02T08:45:03.681Z</time></trkpt><trkpt lat="42.2256217" lon="13.8513133"><ele>802.4</ele><time>2026-05-02T08:45:04.681Z</time></trkpt><trkpt lat="42.2256267" lon="13.85118"><ele>805.0</ele><time>2026-05-02T08:45:05.681Z</time></trkpt><trkpt lat="42.2256283" lon="13.8510733"><ele>808.2</ele><time>2026-05-02T08:45:06.68Z</time></trkpt><trkpt lat="42.22562" lon="13.850955"><ele>811.4</ele><time>2026-05-02T08:45:07.681Z</time></trkpt><trkpt lat="42.22561" lon="13.85081"><ele>814.5999999999999</ele><time>2026-05-02T08:45:08.681Z</time></trkpt><trkpt lat="42.2255933" lon="13.850655"><ele>817.8</ele><time>2026-05-02T08:45:09.68Z</time></trkpt><trkpt lat="42.2255733" lon="13.8504967"><ele>821.0</ele><time>2026-05-02T08:45:10.681Z</time></trkpt><trkpt lat="42.2255583" lon="13.8503467"><ele>821.0</ele><time>2026-05-02T08:45:11.68Z</time></trkpt><trkpt lat="42.2255433" lon="13.85019"><ele>821.0</ele><time>2026-05-02T08:45:12.681Z</time></trkpt><trkpt lat="42.22553" lon="13.8500567"><ele>821.0</ele><time>2026-05-02T08:45:13.681Z</time></trkpt><trkpt lat="42.2255183" lon="13.8499283"><ele>821.0</ele><time>2026-05-02T08:45:14.68Z</time></trkpt><trkpt lat="42.2254967" lon="13.8497917"><ele>821.0</ele><time>2026-05-02T08:45:15.681Z</time></trkpt><trkpt lat="42.2254667" lon="13.8496633"><ele>824.4</ele><time>2026-05-02T08:45:16.681Z</time></trkpt><trkpt lat="42.2254467" lon="13.8495683"><ele>827.8</ele><time>2026-05-02T08:45:17.681Z</time></trkpt><trkpt lat="42.2254817" lon="13.84942"><ele>831.1999999999999</ele><time>2026-05-02T08:45:19.68Z</time></trkpt><trkpt lat="42.225595" lon="13.849335"><ele>834.5999999999999</ele><time>2026-05-02T08:45:21.681Z</time></trkpt><trkpt lat="42.2256767" lon="13.8493117"><ele>838.0</ele><time>2026-05-02T08:45:22.681Z</time></trkpt><trkpt lat="42.225775" lon="13.8493017"><ele>845.4</ele><time>2026-05-02T08:45:23.681Z</time></trkpt><trkpt lat="42.2258767" lon="13.849265"><ele>852.8</ele><time>2026-05-02T08:45:24.68Z</time></trkpt><trkpt lat="42.2259733" lon="13.8492217"><ele>860.2</ele><time>2026-05-02T08:45:25.68Z</time></trkpt><trkpt lat="42.226065" lon="13.84918"><ele>867.6</ele><time>2026-05-02T08:45:26.68Z</time></trkpt><trkpt lat="42.2261533" lon="13.8491483"><ele>875.0</ele><time>2026-05-02T08:45:27.68Z</time></trkpt><trkpt lat="42.2262533" lon="13.849125"><ele>875.0</ele><time>2026-05-02T08:45:28.68Z</time></trkpt><trkpt lat="42.226355" lon="13.8491117"><ele>875.0</ele><time>2026-05-02T08:45:29.679Z</time></trkpt><trkpt lat="42.2264617" lon="13.8490917"><ele>875.0</ele><time>2026-05-02T08:45:30.679Z</time></trkpt><trkpt lat="42.226575" lon="13.8490633"><ele>875.0</ele><time>2026-05-02T08:45:31.679Z</time></trkpt><trkpt lat="42.2266767" lon="13.8490417"><ele>875.0</ele><time>2026-05-02T08:45:32.68Z</time></trkpt><trkpt lat="42.2267783" lon="13.849025"><ele>874.0</ele><time>2026-05-02T08:45:33.679Z</time></trkpt><trkpt lat="42.2268867" lon="13.8490067"><ele>873.0</ele><time>2026-05-02T08:45:34.679Z</time></trkpt><trkpt lat="42.226995" lon="13.8489867"><ele>872.0</ele><time>2026-05-02T08:45:35.679Z</time></trkpt><trkpt lat="42.2271017" lon="13.84896"><ele>871.0</ele><time>2026-05-02T08:45:36.679Z</time></trkpt><trkpt lat="42.2272167" lon="13.84893"><ele>870.0</ele><time>2026-05-02T08:45:37.679Z</time></trkpt><trkpt lat="42.22733" lon="13.8488983"><ele>868.5</ele><time>2026-05-02T08:45:38.68Z</time></trkpt><trkpt lat="42.2274217" lon="13.8488733"><ele>867.0</ele><time>2026-05-02T08:45:39.679Z</time></trkpt><trkpt lat="42.2275017" lon="13.8488583"><ele>865.5</ele><time>2026-05-02T08:45:40.679Z</time></trkpt><trkpt lat="42.2275833" lon="13.8488583"><ele>864.0</ele><time>2026-05-02T08:45:41.679Z</time></trkpt><trkpt lat="42.2276683" lon="13.8488817"><ele>862.5</ele><time>2026-05-02T08:45:42.68Z</time></trkpt><trkpt lat="42.2277483" lon="13.8489167"><ele>861.0</ele><time>2026-05-02T08:45:43.68Z</time></trkpt><trkpt lat="42.22784" lon="13.8489583"><ele>861.0</ele><time>2026-05-02T08:45:44.679Z</time></trkpt><trkpt lat="42.2279283" lon="13.8489867"><ele>860.9999999999999</ele><time>2026-05-02T08:45:45.68Z</time></trkpt><trkpt lat="42.2280117" lon="13.8490117"><ele>860.9999999999999</ele><time>2026-05-02T08:45:46.68Z</time></trkpt><trkpt lat="42.2281117" lon="13.84903"><ele>861.0</ele><time>2026-05-02T08:45:47.68Z</time></trkpt><trkpt lat="42.2282133" lon="13.849045"><ele>861.0</ele><time>2026-05-02T08:45:48.679Z</time></trkpt><trkpt lat="42.2283033" lon="13.849055"><ele>862.6666666666666</ele><time>2026-05-02T08:45:49.68Z</time></trkpt><trkpt lat="42.22839" lon="13.8490617"><ele>864.3333333333333</ele><time>2026-05-02T08:45:50.68Z</time></trkpt><trkpt lat="42.228465" lon="13.8490383"><ele>866.0</ele><time>2026-05-02T08:45:51.68Z</time></trkpt><trkpt lat="42.2285483" lon="13.849005"><ele>867.6666666666666</ele><time>2026-05-02T08:45:52.68Z</time></trkpt><trkpt lat="42.228635" lon="13.8489633"><ele>869.3333333333333</ele><time>2026-05-02T08:45:53.68Z</time></trkpt><trkpt lat="42.22872" lon="13.8489417"><ele>871.0</ele><time>2026-05-02T08:45:54.679Z</time></trkpt><trkpt lat="42.2288" lon="13.8489517"><ele>871.0</ele><time>2026-05-02T08:45:55.68Z</time></trkpt><trkpt lat="42.2288783" lon="13.8489967"><ele>870.9999999999999</ele><time>2026-05-02T08:45:56.68Z</time></trkpt><trkpt lat="42.2289733" lon="13.849065"><ele>870.9999999999999</ele><time>2026-05-02T08:45:57.68Z</time></trkpt><trkpt lat="42.229085" lon="13.84913"><ele>871.0</ele><time>2026-05-02T08:45:58.679Z</time></trkpt><trkpt lat="42.229195" lon="13.8492017"><ele>871.0</ele><time>2026-05-02T08:45:59.679Z</time></trkpt><trkpt lat="42.229285" lon="13.8492767"><ele>872.8333333333333</ele><time>2026-05-02T08:46:00.679Z</time></trkpt><trkpt lat="42.2293633" lon="13.8493267"><ele>874.6666666666666</ele><time>2026-05-02T08:46:01.679Z</time></trkpt><trkpt lat="42.2294583" lon="13.84935"><ele>876.5</ele><time>2026-05-02T08:46:03.679Z</time></trkpt><trkpt lat="42.229535" lon="13.8493483"><ele>878.3333333333333</ele><time>2026-05-02T08:46:05.679Z</time></trkpt><trkpt lat="42.2295983" lon="13.8493133"><ele>880.1666666666666</ele><time>2026-05-02T08:46:08.68Z</time></trkpt><trkpt lat="42.2296617" lon="13.84929"><ele>882.0</ele><time>2026-05-02T08:46:10.68Z</time></trkpt><trkpt lat="42.2297717" lon="13.8492367"><ele>882.8</ele><time>2026-05-02T08:46:12.68Z</time></trkpt><trkpt lat="42.2298433" lon="13.8491933"><ele>883.6</ele><time>2026-05-02T08:46:13.679Z</time></trkpt><trkpt lat="42.2299183" lon="13.8491467"><ele>884.3999999999999</ele><time>2026-05-02T08:46:14.679Z</time></trkpt><trkpt lat="42.2300133" lon="13.8491083"><ele>885.1999999999999</ele><time>2026-05-02T08:46:15.679Z</time></trkpt><trkpt lat="42.2301267" lon="13.8490483"><ele>886.0</ele><time>2026-05-02T08:46:16.679Z</time></trkpt><trkpt lat="42.230235" lon="13.8489867"><ele>886.0</ele><time>2026-05-02T08:46:17.679Z</time></trkpt><trkpt lat="42.2303533" lon="13.848915"><ele>886.0</ele><time>2026-05-02T08:46:18.68Z</time></trkpt><trkpt lat="42.2304983" lon="13.84884"><ele>886.0</ele><time>2026-05-02T08:46:19.68Z</time></trkpt><trkpt lat="42.2306433" lon="13.8487817"><ele>886.0</ele><time>2026-05-02T08:46:20.68Z</time></trkpt><trkpt lat="42.2307783" lon="13.8487217"><ele>886.0</ele><time>2026-05-02T08:46:21.679Z</time></trkpt><trkpt lat="42.2309183" lon="13.8486533"><ele>886.0</ele><time>2026-05-02T08:46:22.68Z</time></trkpt><trkpt lat="42.231055" lon="13.84859"><ele>886.0</ele><time>2026-05-02T08:46:23.68Z</time></trkpt><trkpt lat="42.2311867" lon="13.8485533"><ele>886.0</ele><time>2026-05-02T08:46:24.679Z</time></trkpt><trkpt lat="42.231295" lon="13.8485067"><ele>890.0</ele><time>2026-05-02T08:46:25.68Z</time></trkpt><trkpt lat="42.2313967" lon="13.8484583"><ele>893.9999999999999</ele><time>2026-05-02T08:46:26.68Z</time></trkpt><trkpt lat="42.2314867" lon="13.8484267"><ele>897.9999999999999</ele><time>2026-05-02T08:46:27.679Z</time></trkpt><trkpt lat="42.23158" lon="13.8484167"><ele>902.0</ele><time>2026-05-02T08:46:28.68Z</time></trkpt><trkpt lat="42.23167" lon="13.8484133"><ele>906.0</ele><time>2026-05-02T08:46:29.679Z</time></trkpt><trkpt lat="42.231765" lon="13.8484017"><ele>906.0</ele><time>2026-05-02T08:46:30.679Z</time></trkpt><trkpt lat="42.2318517" lon="13.8483917"><ele>906.0</ele><time>2026-05-02T08:46:31.679Z</time></trkpt><trkpt lat="42.231925" lon="13.8483783"><ele>906.0</ele><time>2026-05-02T08:46:32.68Z</time></trkpt><trkpt lat="42.2320383" lon="13.8483133"><ele>906.0</ele><time>2026-05-02T08:46:34.68Z</time></trkpt><trkpt lat="42.232085" lon="13.8482467"><ele>906.0</ele><time>2026-05-02T08:46:35.679Z</time></trkpt><trkpt lat="42.2321317" lon="13.84818"><ele>906.0</ele><time>2026-05-02T08:46:36.679Z</time></trkpt><trkpt lat="42.23219" lon="13.8481267"><ele>906.0</ele><time>2026-05-02T08:46:37.68Z</time></trkpt><trkpt lat="42.2323033" lon="13.84806"><ele>906.0</ele><time>2026-05-02T08:46:39.68Z</time></trkpt><trkpt lat="42.2323683" lon="13.848055"><ele>906.0</ele><time>2026-05-02T08:46:40.679Z</time></trkpt><trkpt lat="42.2324333" lon="13.8480583"><ele>906.0</ele><time>2026-05-02T08:46:41.68Z</time></trkpt><trkpt lat="42.2324983" lon="13.8480583"><ele>906.0</ele><time>2026-05-02T08:46:42.68Z</time></trkpt><trkpt lat="42.2325683" lon="13.8480617"><ele>906.0</ele><time>2026-05-02T08:46:44.679Z</time></trkpt><trkpt lat="42.2325233" lon="13.847985"><ele>906.0</ele><time>2026-05-02T08:47:01.679Z</time></trkpt><trkpt lat="42.2324567" lon="13.8479017"><ele>905.9999999999999</ele><time>2026-05-02T08:47:03.68Z</time></trkpt><trkpt lat="42.2323733" lon="13.847815"><ele>905.9999999999999</ele><time>2026-05-02T08:47:05.679Z</time></trkpt><trkpt lat="42.23227" lon="13.847715"><ele>906.0</ele><time>2026-05-02T08:47:07.68Z</time></trkpt><trkpt lat="42.2322117" lon="13.84767"><ele>906.0</ele><time>2026-05-02T08:47:08.68Z</time></trkpt><trkpt lat="42.2321483" lon="13.84762"><ele>910.1666666666666</ele><time>2026-05-02T08:47:09.679Z</time></trkpt><trkpt lat="42.2320867" lon="13.8475633"><ele>914.3333333333333</ele><time>2026-05-02T08:47:10.68Z</time></trkpt><trkpt lat="42.2320233" lon="13.847505"><ele>918.5</ele><time>2026-05-02T08:47:11.679Z</time></trkpt><trkpt lat="42.2319533" lon="13.847445"><ele>922.6666666666666</ele><time>2026-05-02T08:47:12.68Z</time></trkpt><trkpt lat="42.2318767" lon="13.8473833"><ele>926.8333333333333</ele><time>2026-05-02T08:47:13.68Z</time></trkpt><trkpt lat="42.2318017" lon="13.847335"><ele>931.0</ele><time>2026-05-02T08:47:14.679Z</time></trkpt><trkpt lat="42.2317283" lon="13.8473183"><ele>931.0</ele><time>2026-05-02T08:47:15.68Z</time></trkpt><trkpt lat="42.2316617" lon="13.8473067"><ele>931.0</ele><time>2026-05-02T08:47:16.68Z</time></trkpt><trkpt lat="42.2315833" lon="13.847305"><ele>931.0</ele><time>2026-05-02T08:47:17.68Z</time></trkpt><trkpt lat="42.23151" lon="13.8472967"><ele>931.0</ele><time>2026-05-02T08:47:18.68Z</time></trkpt><trkpt lat="42.23144" lon="13.8472833"><ele>931.0</ele><time>2026-05-02T08:47:19.68Z</time></trkpt><trkpt lat="42.231375" lon="13.8472583"><ele>931.0</ele><time>2026-05-02T08:47:20.68Z</time></trkpt><trkpt lat="42.2313167" lon="13.8472133"><ele>931.0</ele><time>2026-05-02T08:47:21.68Z</time></trkpt><trkpt lat="42.2312583" lon="13.8471517"><ele>930.9999999999999</ele><time>2026-05-02T08:47:22.679Z</time></trkpt><trkpt lat="42.2312033" lon="13.8470867"><ele>931.0</ele><time>2026-05-02T08:47:23.679Z</time></trkpt><trkpt lat="42.231145" lon="13.8470333"><ele>931.0</ele><time>2026-05-02T08:47:24.679Z</time></trkpt><trkpt lat="42.231035" lon="13.8469533"><ele>931.0</ele><time>2026-05-02T08:47:26.68Z</time></trkpt><trkpt lat="42.2309683" lon="13.8469417"><ele>930.9999999999999</ele><time>2026-05-02T08:47:27.679Z</time></trkpt><trkpt lat="42.2309017" lon="13.8469383"><ele>931.0</ele><time>2026-05-02T08:47:28.679Z</time></trkpt><trkpt lat="42.230835" lon="13.8469617"><ele>931.0</ele><time>2026-05-02T08:47:29.68Z</time></trkpt><trkpt lat="42.230755" lon="13.8470183"><ele>930.9999999999999</ele><time>2026-05-02T08:47:31.68Z</time></trkpt><trkpt lat="42.230615" lon="13.847075"><ele>930.9999999999999</ele><time>2026-05-02T09:01:16.676Z</time></trkpt><trkpt lat="42.2305217" lon="13.8470833"><ele>931.0</ele><time>2026-05-02T09:01:18.675Z</time></trkpt><trkpt lat="42.23043" lon="13.8471167"><ele>931.0</ele><time>2026-05-02T09:01:20.675Z</time></trkpt><trkpt lat="42.2303567" lon="13.84713"><ele>931.5999999999999</ele><time>2026-05-02T09:01:29.676Z</time></trkpt><trkpt lat="42.23024" lon="13.8471583"><ele>932.1999999999999</ele><time>2026-05-02T09:01:31.676Z</time></trkpt><trkpt lat="42.2301633" lon="13.847185"><ele>932.8000000000001</ele><time>2026-05-02T09:01:32.676Z</time></trkpt><trkpt lat="42.230075" lon="13.8472233"><ele>933.4000000000001</ele><time>2026-05-02T09:01:33.676Z</time></trkpt><trkpt lat="42.2299783" lon="13.847265"><ele>934.0</ele><time>2026-05-02T09:01:34.675Z</time></trkpt><trkpt lat="42.22987" lon="13.8473133"><ele>935.2</ele><time>2026-05-02T09:01:35.675Z</time></trkpt><trkpt lat="42.2297633" lon="13.847365"><ele>936.4000000000001</ele><time>2026-05-02T09:01:36.676Z</time></trkpt><trkpt lat="42.229665" lon="13.8474117"><ele>937.6</ele><time>2026-05-02T09:01:37.675Z</time></trkpt><trkpt lat="42.2295717" lon="13.847455"><ele>938.8</ele><time>2026-05-02T09:01:38.676Z</time></trkpt><trkpt lat="42.2294867" lon="13.8474967"><ele>940.0</ele><time>2026-05-02T09:01:39.676Z</time></trkpt><trkpt lat="42.229415" lon="13.8475283"><ele>940.0</ele><time>2026-05-02T09:01:40.676Z</time></trkpt><trkpt lat="42.2293483" lon="13.8475583"><ele>939.9999999999999</ele><time>2026-05-02T09:01:41.675Z</time></trkpt><trkpt lat="42.2292833" lon="13.8475767"><ele>940.0</ele><time>2026-05-02T09:01:42.675Z</time></trkpt><trkpt lat="42.2292133" lon="13.8475933"><ele>940.0</ele><time>2026-05-02T09:01:43.676Z</time></trkpt><trkpt lat="42.2291467" lon="13.847605"><ele>939.9999999999999</ele><time>2026-05-02T09:01:44.675Z</time></trkpt><trkpt lat="42.2290733" lon="13.8476133"><ele>940.0</ele><time>2026-05-02T09:01:45.675Z</time></trkpt><trkpt lat="42.2289933" lon="13.8476283"><ele>940.0</ele><time>2026-05-02T09:01:46.676Z</time></trkpt><trkpt lat="42.228905" lon="13.8476517"><ele>933.2</ele><time>2026-05-02T09:01:47.675Z</time></trkpt><trkpt lat="42.2288067" lon="13.8476717"><ele>926.4</ele><time>2026-05-02T09:01:48.676Z</time></trkpt><trkpt lat="42.2287" lon="13.8476983"><ele>919.5999999999999</ele><time>2026-05-02T09:01:49.676Z</time></trkpt><trkpt lat="42.2285917" lon="13.84773"><ele>912.8</ele><time>2026-05-02T09:01:50.676Z</time></trkpt><trkpt lat="42.2284783" lon="13.8477667"><ele>906.0</ele><time>2026-05-02T09:01:51.676Z</time></trkpt><trkpt lat="42.2283567" lon="13.8477883"><ele>906.0</ele><time>2026-05-02T09:01:52.676Z</time></trkpt><trkpt lat="42.22824" lon="13.8478"><ele>905.9999999999999</ele><time>2026-05-02T09:01:53.675Z</time></trkpt><trkpt lat="42.22813" lon="13.84781"><ele>905.9999999999999</ele><time>2026-05-02T09:01:54.676Z</time></trkpt><trkpt lat="42.228025" lon="13.8478167"><ele>906.0</ele><time>2026-05-02T09:01:55.676Z</time></trkpt><trkpt lat="42.22792" lon="13.8478217"><ele>906.0</ele><time>2026-05-02T09:01:56.676Z</time></trkpt><trkpt lat="42.2278283" lon="13.84782"><ele>905.4</ele><time>2026-05-02T09:01:57.675Z</time></trkpt><trkpt lat="42.2277383" lon="13.8478"><ele>904.8</ele><time>2026-05-02T09:01:58.676Z</time></trkpt><trkpt lat="42.22764" lon="13.847785"><ele>904.1999999999999</ele><time>2026-05-02T09:01:59.675Z</time></trkpt><trkpt lat="42.22753" lon="13.8477683"><ele>903.5999999999999</ele><time>2026-05-02T09:02:00.676Z</time></trkpt><trkpt lat="42.2274017" lon="13.8477617"><ele>903.0</ele><time>2026-05-02T09:02:01.675Z</time></trkpt><trkpt lat="42.2272617" lon="13.8477533"><ele>903.0</ele><time>2026-05-02T09:02:02.676Z</time></trkpt><trkpt lat="42.2271117" lon="13.8477533"><ele>903.0</ele><time>2026-05-02T09:02:03.676Z</time></trkpt><trkpt lat="42.22697" lon="13.847745"><ele>903.0</ele><time>2026-05-02T09:02:04.676Z</time></trkpt><trkpt lat="42.22683" lon="13.8477367"><ele>903.0</ele><time>2026-05-02T09:02:05.675Z</time></trkpt><trkpt lat="42.22668" lon="13.8477417"><ele>903.0</ele><time>2026-05-02T09:02:06.676Z</time></trkpt><trkpt lat="42.2265283" lon="13.84775"><ele>903.0</ele><time>2026-05-02T09:02:07.675Z</time></trkpt><trkpt lat="42.22638" lon="13.8477467"><ele>903.0</ele><time>2026-05-02T09:02:08.676Z</time></trkpt><trkpt lat="42.2262267" lon="13.8477533"><ele>903.5</ele><time>2026-05-02T09:02:09.676Z</time></trkpt><trkpt lat="42.226085" lon="13.8477567"><ele>904.0</ele><time>2026-05-02T09:02:10.676Z</time></trkpt><trkpt lat="42.2259583" lon="13.847765"><ele>904.5</ele><time>2026-05-02T09:02:11.676Z</time></trkpt><trkpt lat="42.2258317" lon="13.84776"><ele>905.0</ele><time>2026-05-02T09:02:12.676Z</time></trkpt><trkpt lat="42.2257083" lon="13.8477433"><ele>902.4</ele><time>2026-05-02T09:02:13.676Z</time></trkpt><trkpt lat="42.2256017" lon="13.84772"><ele>899.8</ele><time>2026-05-02T09:02:14.675Z</time></trkpt><trkpt lat="42.2255" lon="13.8476767"><ele>897.2</ele><time>2026-05-02T09:02:15.676Z</time></trkpt><trkpt lat="42.2253983" lon="13.847615"><ele>894.6</ele><time>2026-05-02T09:02:16.676Z</time></trkpt><trkpt lat="42.2252883" lon="13.8475617"><ele>892.0</ele><time>2026-05-02T09:02:17.675Z</time></trkpt><trkpt lat="42.2251633" lon="13.847505"><ele>893.8</ele><time>2026-05-02T09:02:18.675Z</time></trkpt><trkpt lat="42.2250517" lon="13.8474483"><ele>895.6</ele><time>2026-05-02T09:02:19.675Z</time></trkpt><trkpt lat="42.2249517" lon="13.8474017"><ele>897.3999999999999</ele><time>2026-05-02T09:02:20.676Z</time></trkpt><trkpt lat="42.22486" lon="13.8473633"><ele>899.1999999999999</ele><time>2026-05-02T09:02:21.676Z</time></trkpt><trkpt lat="42.2247817" lon="13.8473267"><ele>901.0</ele><time>2026-05-02T09:02:22.676Z</time></trkpt><trkpt lat="42.2247233" lon="13.8472733"><ele>900.9999999999999</ele><time>2026-05-02T09:02:23.676Z</time></trkpt><trkpt lat="42.224665" lon="13.8471183"><ele>901.0</ele><time>2026-05-02T09:02:25.676Z</time></trkpt><trkpt lat="42.2246583" lon="13.8470183"><ele>901.0</ele><time>2026-05-02T09:02:26.675Z</time></trkpt><trkpt lat="42.2246567" lon="13.8469217"><ele>901.0</ele><time>2026-05-02T09:02:27.675Z</time></trkpt><trkpt lat="42.2246633" lon="13.84683"><ele>900.9999999999999</ele><time>2026-05-02T09:02:28.676Z</time></trkpt><trkpt lat="42.2246883" lon="13.8467467"><ele>901.0</ele><time>2026-05-02T09:02:29.676Z</time></trkpt><trkpt lat="42.2247267" lon="13.84666"><ele>904.1666666666666</ele><time>2026-05-02T09:02:30.675Z</time></trkpt><trkpt lat="42.2247717" lon="13.8465767"><ele>907.3333333333333</ele><time>2026-05-02T09:02:31.675Z</time></trkpt><trkpt lat="42.2248233" lon="13.846495"><ele>910.5</ele><time>2026-05-02T09:02:32.675Z</time></trkpt><trkpt lat="42.2248783" lon="13.846415"><ele>913.6666666666667</ele><time>2026-05-02T09:02:33.676Z</time></trkpt><trkpt lat="42.22494" lon="13.8463283"><ele>916.8333333333334</ele><time>2026-05-02T09:02:34.676Z</time></trkpt><trkpt lat="42.2250117" lon="13.8462333"><ele>920.0</ele><time>2026-05-02T09:02:35.675Z</time></trkpt><trkpt lat="42.2250833" lon="13.8461517"><ele>923.4</ele><time>2026-05-02T09:02:36.676Z</time></trkpt><trkpt lat="42.2251667" lon="13.8460783"><ele>926.8</ele><time>2026-05-02T09:02:37.676Z</time></trkpt><trkpt lat="42.2252533" lon="13.84601"><ele>930.2</ele><time>2026-05-02T09:02:38.676Z</time></trkpt><trkpt lat="42.2253583" lon="13.8459317"><ele>933.6</ele><time>2026-05-02T09:02:39.675Z</time></trkpt><trkpt lat="42.225455" lon="13.84586"><ele>937.0</ele><time>2026-05-02T09:02:40.675Z</time></trkpt><trkpt lat="42.2255617" lon="13.8457733"><ele>940.25</ele><time>2026-05-02T09:02:41.676Z</time></trkpt><trkpt lat="42.2256717" lon="13.8457033"><ele>943.5</ele><time>2026-05-02T09:02:42.676Z</time></trkpt><trkpt lat="42.2257833" lon="13.845635"><ele>946.75</ele><time>2026-05-02T09:02:43.676Z</time></trkpt><trkpt lat="42.2258833" lon="13.8455683"><ele>950.0</ele><time>2026-05-02T09:02:44.676Z</time></trkpt><trkpt lat="42.22597" lon="13.845495"><ele>950.0</ele><time>2026-05-02T09:02:45.675Z</time></trkpt><trkpt lat="42.2260567" lon="13.8454233"><ele>950.0</ele><time>2026-05-02T09:02:46.676Z</time></trkpt><trkpt lat="42.2261383" lon="13.8453467"><ele>950.0</ele><time>2026-05-02T09:02:47.676Z</time></trkpt><trkpt lat="42.2262217" lon="13.845275"><ele>950.0</ele><time>2026-05-02T09:02:48.676Z</time></trkpt><trkpt lat="42.2263033" lon="13.84519"><ele>950.0</ele><time>2026-05-02T09:02:49.675Z</time></trkpt><trkpt lat="42.2263883" lon="13.8451067"><ele>952.8</ele><time>2026-05-02T09:02:50.675Z</time></trkpt><trkpt lat="42.22647" lon="13.8450233"><ele>955.6</ele><time>2026-05-02T09:02:51.675Z</time></trkpt><trkpt lat="42.22656" lon="13.8449333"><ele>958.4000000000001</ele><time>2026-05-02T09:02:52.676Z</time></trkpt><trkpt lat="42.2266517" lon="13.8448517"><ele>961.2</ele><time>2026-05-02T09:02:53.676Z</time></trkpt><trkpt lat="42.2267383" lon="13.84478"><ele>964.0</ele><time>2026-05-02T09:02:54.676Z</time></trkpt><trkpt lat="42.2268317" lon="13.8447017"><ele>964.0</ele><time>2026-05-02T09:02:55.676Z</time></trkpt><trkpt lat="42.2269233" lon="13.84463"><ele>964.0000000000001</ele><time>2026-05-02T09:02:56.676Z</time></trkpt><trkpt lat="42.2270167" lon="13.84455"><ele>964.0000000000001</ele><time>2026-05-02T09:02:57.675Z</time></trkpt><trkpt lat="42.2271067" lon="13.8444683"><ele>964.0</ele><time>2026-05-02T09:02:58.676Z</time></trkpt><trkpt lat="42.227195" lon="13.84438"><ele>964.0</ele><time>2026-05-02T09:02:59.675Z</time></trkpt><trkpt lat="42.2272883" lon="13.8443067"><ele>967.0</ele><time>2026-05-02T09:03:00.675Z</time></trkpt><trkpt lat="42.2273867" lon="13.8442417"><ele>970.0000000000001</ele><time>2026-05-02T09:03:01.675Z</time></trkpt><trkpt lat="42.227475" lon="13.8441817"><ele>973.0000000000001</ele><time>2026-05-02T09:03:02.675Z</time></trkpt><trkpt lat="42.2275383" lon="13.8441367"><ele>976.0</ele><time>2026-05-02T09:03:03.676Z</time></trkpt><trkpt lat="42.227595" lon="13.8440867"><ele>979.0</ele><time>2026-05-02T09:03:04.676Z</time></trkpt><trkpt lat="42.22766" lon="13.8439717"><ele>978.9999999999999</ele><time>2026-05-02T09:03:06.676Z</time></trkpt><trkpt lat="42.2276567" lon="13.8438667"><ele>979.0</ele><time>2026-05-02T09:03:08.676Z</time></trkpt><trkpt lat="42.227605" lon="13.8437983"><ele>979.0</ele><time>2026-05-02T09:03:10.675Z</time></trkpt><trkpt lat="42.227525" lon="13.8437783"><ele>979.0</ele><time>2026-05-02T09:03:12.676Z</time></trkpt><trkpt lat="42.22742" lon="13.8438"><ele>978.9999999999999</ele><time>2026-05-02T09:03:14.675Z</time></trkpt><trkpt lat="42.22735" lon="13.8438233"><ele>979.0</ele><time>2026-05-02T09:03:15.676Z</time></trkpt><trkpt lat="42.2272733" lon="13.8438317"><ele>979.9999999999999</ele><time>2026-05-02T09:03:16.676Z</time></trkpt><trkpt lat="42.2271967" lon="13.843835"><ele>981.0</ele><time>2026-05-02T09:03:17.676Z</time></trkpt><trkpt lat="42.227115" lon="13.8438283"><ele>982.0</ele><time>2026-05-02T09:03:18.675Z</time></trkpt><trkpt lat="42.227035" lon="13.84382"><ele>983.0</ele><time>2026-05-02T09:03:19.675Z</time></trkpt><trkpt lat="42.2269483" lon="13.843815"><ele>983.9999999999999</ele><time>2026-05-02T09:03:20.675Z</time></trkpt><trkpt lat="42.22687" lon="13.8438067"><ele>985.0</ele><time>2026-05-02T09:03:21.675Z</time></trkpt><trkpt lat="42.226805" lon="13.8437967"><ele>985.0</ele><time>2026-05-02T09:03:22.675Z</time></trkpt><trkpt lat="42.2267083" lon="13.8437833"><ele>985.0</ele><time>2026-05-02T09:03:24.675Z</time></trkpt><trkpt lat="42.2266267" lon="13.8438183"><ele>985.0</ele><time>2026-05-02T09:03:32.676Z</time></trkpt><trkpt lat="42.2265746" lon="13.8438759"><ele>985.0</ele><time>2026-05-02T09:03:34.705Z</time></trkpt><trkpt lat="42.2263812" lon="13.8439511"><ele>986.25</ele><time>2026-05-02T09:03:37.676Z</time></trkpt><trkpt lat="42.2262874" lon="13.8439924"><ele>987.5</ele><time>2026-05-02T09:03:38.675Z</time></trkpt><trkpt lat="42.2261809" lon="13.8440439"><ele>988.75</ele><time>2026-05-02T09:03:39.675Z</time></trkpt><trkpt lat="42.2260714" lon="13.8441039"><ele>990.0</ele><time>2026-05-02T09:03:40.676Z</time></trkpt><trkpt lat="42.2259569" lon="13.8441583"><ele>990.0</ele><time>2026-05-02T09:03:41.675Z</time></trkpt><trkpt lat="42.2258316" lon="13.8442123"><ele>990.0</ele><time>2026-05-02T09:03:42.675Z</time></trkpt><trkpt lat="42.2257166" lon="13.8442567"><ele>990.0</ele><time>2026-05-02T09:03:43.676Z</time></trkpt><trkpt lat="42.2256149" lon="13.8442995"><ele>990.0</ele><time>2026-05-02T09:03:44.675Z</time></trkpt><trkpt lat="42.2255294" lon="13.8443483"><ele>986.4</ele><time>2026-05-02T09:03:45.675Z</time></trkpt><trkpt lat="42.2254516" lon="13.8444005"><ele>982.8</ele><time>2026-05-02T09:03:46.675Z</time></trkpt><trkpt lat="42.225395" lon="13.8444437"><ele>979.2</ele><time>2026-05-02T09:03:47.674Z</time></trkpt><trkpt lat="42.2253121" lon="13.8445043"><ele>975.6</ele><time>2026-05-02T09:03:49.674Z</time></trkpt><trkpt lat="42.22518" lon="13.8445572"><ele>972.0</ele><time>2026-05-02T09:03:51.675Z</time></trkpt><trkpt lat="42.2250935" lon="13.8445688"><ele>972.0</ele><time>2026-05-02T09:03:52.674Z</time></trkpt><trkpt lat="42.2250079" lon="13.8445723"><ele>972.0</ele><time>2026-05-02T09:03:53.675Z</time></trkpt><trkpt lat="42.2249217" lon="13.8445633"><ele>972.0</ele><time>2026-05-02T09:03:54.675Z</time></trkpt><trkpt lat="42.2248333" lon="13.8445583"><ele>972.0</ele><time>2026-05-02T09:03:55.675Z</time></trkpt><trkpt lat="42.2247533" lon="13.8445483"><ele>972.0</ele><time>2026-05-02T09:03:56.674Z</time></trkpt><trkpt lat="42.2246933" lon="13.8445217"><ele>972.0</ele><time>2026-05-02T09:03:57.675Z</time></trkpt><trkpt lat="42.2246317" lon="13.8444117"><ele>968.8</ele><time>2026-05-02T09:03:59.675Z</time></trkpt><trkpt lat="42.2246317" lon="13.8442583"><ele>965.6</ele><time>2026-05-02T09:04:01.674Z</time></trkpt><trkpt lat="42.2246583" lon="13.8441633"><ele>962.3999999999999</ele><time>2026-05-02T09:04:02.674Z</time></trkpt><trkpt lat="42.2247033" lon="13.8440567"><ele>959.1999999999999</ele><time>2026-05-02T09:04:03.674Z</time></trkpt><trkpt lat="42.22475" lon="13.84393"><ele>956.0</ele><time>2026-05-02T09:04:04.675Z</time></trkpt><trkpt lat="42.2248017" lon="13.8437867"><ele>959.75</ele><time>2026-05-02T09:04:05.674Z</time></trkpt><trkpt lat="42.2248517" lon="13.8436417"><ele>963.5</ele><time>2026-05-02T09:04:06.675Z</time></trkpt><trkpt lat="42.224905" lon="13.8434933"><ele>967.25</ele><time>2026-05-02T09:04:07.674Z</time></trkpt><trkpt lat="42.2249617" lon="13.84336"><ele>971.0</ele><time>2026-05-02T09:04:08.675Z</time></trkpt><trkpt lat="42.2250283" lon="13.8432433"><ele>971.0</ele><time>2026-05-02T09:04:09.674Z</time></trkpt><trkpt lat="42.225105" lon="13.8431367"><ele>970.9999999999999</ele><time>2026-05-02T09:04:10.675Z</time></trkpt><trkpt lat="42.22519" lon="13.84303"><ele>970.9999999999999</ele><time>2026-05-02T09:04:11.675Z</time></trkpt><trkpt lat="42.2252717" lon="13.8429267"><ele>971.0</ele><time>2026-05-02T09:04:12.674Z</time></trkpt><trkpt lat="42.2253383" lon="13.84282"><ele>971.0</ele><time>2026-05-02T09:04:13.674Z</time></trkpt><trkpt lat="42.2254033" lon="13.8427117"><ele>970.4</ele><time>2026-05-02T09:04:14.675Z</time></trkpt><trkpt lat="42.22547" lon="13.842605"><ele>969.8</ele><time>2026-05-02T09:04:15.674Z</time></trkpt><trkpt lat="42.2255483" lon="13.8424983"><ele>969.1999999999999</ele><time>2026-05-02T09:04:16.674Z</time></trkpt><trkpt lat="42.2256233" lon="13.8424033"><ele>968.5999999999999</ele><time>2026-05-02T09:04:17.674Z</time></trkpt><trkpt lat="42.2257067" lon="13.8423217"><ele>968.0</ele><time>2026-05-02T09:04:18.674Z</time></trkpt><trkpt lat="42.22579" lon="13.8422417"><ele>968.0000000000001</ele><time>2026-05-02T09:04:19.674Z</time></trkpt><trkpt lat="42.2258683" lon="13.8421733"><ele>968.0</ele><time>2026-05-02T09:04:20.674Z</time></trkpt><trkpt lat="42.225945" lon="13.8421167"><ele>968.0</ele><time>2026-05-02T09:04:21.675Z</time></trkpt><trkpt lat="42.22603" lon="13.8420817"><ele>968.0</ele><time>2026-05-02T09:04:22.675Z</time></trkpt><trkpt lat="42.226115" lon="13.8420533"><ele>968.0000000000001</ele><time>2026-05-02T09:04:23.674Z</time></trkpt><trkpt lat="42.226195" lon="13.842035"><ele>968.0</ele><time>2026-05-02T09:04:24.675Z</time></trkpt><trkpt lat="42.22628" lon="13.8420333"><ele>968.0</ele><time>2026-05-02T09:04:25.675Z</time></trkpt><trkpt lat="42.22637" lon="13.8420417"><ele>968.0</ele><time>2026-05-02T09:04:26.675Z</time></trkpt><trkpt lat="42.2264683" lon="13.8420483"><ele>968.0</ele><time>2026-05-02T09:04:27.674Z</time></trkpt><trkpt lat="42.2265783" lon="13.8420533"><ele>968.0</ele><time>2026-05-02T09:04:28.674Z</time></trkpt><trkpt lat="42.22669" lon="13.842045"><ele>968.0</ele><time>2026-05-02T09:04:29.674Z</time></trkpt><trkpt lat="42.2268067" lon="13.8420367"><ele>969.0</ele><time>2026-05-02T09:04:30.675Z</time></trkpt><trkpt lat="42.2269233" lon="13.8420317"><ele>970.0</ele><time>2026-05-02T09:04:31.674Z</time></trkpt><trkpt lat="42.2270433" lon="13.8420233"><ele>971.0</ele><time>2026-05-02T09:04:32.674Z</time></trkpt><trkpt lat="42.2271567" lon="13.8420083"><ele>972.0</ele><time>2026-05-02T09:04:33.675Z</time></trkpt><trkpt lat="42.2272717" lon="13.8420067"><ele>970.4000000000001</ele><time>2026-05-02T09:04:34.675Z</time></trkpt><trkpt lat="42.2273917" lon="13.8419967"><ele>968.8000000000001</ele><time>2026-05-02T09:04:35.675Z</time></trkpt><trkpt lat="42.227505" lon="13.8419883"><ele>967.2</ele><time>2026-05-02T09:04:36.674Z</time></trkpt><trkpt lat="42.22761" lon="13.8419817"><ele>965.6</ele><time>2026-05-02T09:04:37.675Z</time></trkpt><trkpt lat="42.2277033" lon="13.8419633"><ele>964.0</ele><time>2026-05-02T09:04:38.674Z</time></trkpt><trkpt lat="42.2278017" lon="13.841935"><ele>964.0</ele><time>2026-05-02T09:04:39.675Z</time></trkpt><trkpt lat="42.2278983" lon="13.84191"><ele>964.0000000000001</ele><time>2026-05-02T09:04:40.674Z</time></trkpt><trkpt lat="42.227995" lon="13.8418783"><ele>964.0000000000001</ele><time>2026-05-02T09:04:41.675Z</time></trkpt><trkpt lat="42.2281017" lon="13.8418367"><ele>964.0</ele><time>2026-05-02T09:04:42.675Z</time></trkpt><trkpt lat="42.2282083" lon="13.8417933"><ele>964.0</ele><time>2026-05-02T09:04:43.674Z</time></trkpt><trkpt lat="42.228305" lon="13.8417567"><ele>958.6666666666666</ele><time>2026-05-02T09:04:44.674Z</time></trkpt><trkpt lat="42.2283967" lon="13.8417017"><ele>953.3333333333333</ele><time>2026-05-02T09:04:45.674Z</time></trkpt><trkpt lat="42.2284717" lon="13.8416467"><ele>948.0</ele><time>2026-05-02T09:04:46.674Z</time></trkpt><trkpt lat="42.2285333" lon="13.841595"><ele>942.6666666666667</ele><time>2026-05-02T09:04:47.675Z</time></trkpt><trkpt lat="42.2285933" lon="13.8415217"><ele>937.3333333333334</ele><time>2026-05-02T09:04:48.674Z</time></trkpt><trkpt lat="42.2286533" lon="13.8414217"><ele>932.0</ele><time>2026-05-02T09:04:49.674Z</time></trkpt><trkpt lat="42.228715" lon="13.8412983"><ele>932.0</ele><time>2026-05-02T09:04:50.674Z</time></trkpt><trkpt lat="42.2287733" lon="13.84115"><ele>932.0</ele><time>2026-05-02T09:04:51.675Z</time></trkpt><trkpt lat="42.228835" lon="13.8409917"><ele>932.0</ele><time>2026-05-02T09:04:52.674Z</time></trkpt><trkpt lat="42.22889" lon="13.84082"><ele>932.0</ele><time>2026-05-02T09:04:53.674Z</time></trkpt><trkpt lat="42.2289517" lon="13.84066"><ele>933.25</ele><time>2026-05-02T09:04:54.675Z</time></trkpt><trkpt lat="42.22901" lon="13.840495"><ele>934.5</ele><time>2026-05-02T09:04:55.674Z</time></trkpt><trkpt lat="42.2290683" lon="13.840335"><ele>935.75</ele><time>2026-05-02T09:04:56.674Z</time></trkpt><trkpt lat="42.2291283" lon="13.8401717"><ele>937.0</ele><time>2026-05-02T09:04:57.675Z</time></trkpt><trkpt lat="42.2291883" lon="13.8400017"><ele>931.25</ele><time>2026-05-02T09:04:58.674Z</time></trkpt><trkpt lat="42.22925" lon="13.839835"><ele>925.5</ele><time>2026-05-02T09:04:59.675Z</time></trkpt><trkpt lat="42.2293117" lon="13.8396733"><ele>919.75</ele><time>2026-05-02T09:05:00.674Z</time></trkpt><trkpt lat="42.2293833" lon="13.83952"><ele>914.0</ele><time>2026-05-02T09:05:01.675Z</time></trkpt><trkpt lat="42.2294617" lon="13.8393967"><ele>918.0</ele><time>2026-05-02T09:05:02.674Z</time></trkpt><trkpt lat="42.2295483" lon="13.8392717"><ele>922.0</ele><time>2026-05-02T09:05:03.675Z</time></trkpt><trkpt lat="42.2296383" lon="13.8391367"><ele>926.0</ele><time>2026-05-02T09:05:04.675Z</time></trkpt><trkpt lat="42.22973" lon="13.8389917"><ele>930.0</ele><time>2026-05-02T09:05:05.674Z</time></trkpt><trkpt lat="42.2298267" lon="13.83885"><ele>930.0</ele><time>2026-05-02T09:05:06.675Z</time></trkpt><trkpt lat="42.22992" lon="13.8387017"><ele>930.0</ele><time>2026-05-02T09:05:07.675Z</time></trkpt><trkpt lat="42.230005" lon="13.8385567"><ele>930.0</ele><time>2026-05-02T09:05:08.674Z</time></trkpt><trkpt lat="42.23008" lon="13.8383967"><ele>930.0</ele><time>2026-05-02T09:05:09.674Z</time></trkpt><trkpt lat="42.2301467" lon="13.8382517"><ele>921.5</ele><time>2026-05-02T09:05:10.674Z</time></trkpt><trkpt lat="42.2302083" lon="13.8381167"><ele>913.0</ele><time>2026-05-02T09:05:11.674Z</time></trkpt><trkpt lat="42.2302783" lon="13.8379883"><ele>904.5</ele><time>2026-05-02T09:05:12.675Z</time></trkpt><trkpt lat="42.230355" lon="13.83788"><ele>896.0</ele><time>2026-05-02T09:05:13.674Z</time></trkpt><trkpt lat="42.2304417" lon="13.8377767"><ele>896.0</ele><time>2026-05-02T09:05:14.675Z</time></trkpt><trkpt lat="42.2305383" lon="13.837685"><ele>895.9999999999999</ele><time>2026-05-02T09:05:15.675Z</time></trkpt><trkpt lat="42.2306333" lon="13.8376067"><ele>895.9999999999999</ele><time>2026-05-02T09:05:16.674Z</time></trkpt><trkpt lat="42.230725" lon="13.8375383"><ele>896.0</ele><time>2026-05-02T09:05:17.674Z</time></trkpt><trkpt lat="42.2308183" lon="13.8374683"><ele>896.0</ele><time>2026-05-02T09:05:18.674Z</time></trkpt><trkpt lat="42.2309083" lon="13.8374083"><ele>894.5</ele><time>2026-05-02T09:05:19.675Z</time></trkpt><trkpt lat="42.2309983" lon="13.8373517"><ele>893.0</ele><time>2026-05-02T09:05:20.674Z</time></trkpt><trkpt lat="42.2311033" lon="13.8373083"><ele>891.5</ele><time>2026-05-02T09:05:21.675Z</time></trkpt><trkpt lat="42.2312167" lon="13.8372717"><ele>890.0</ele><time>2026-05-02T09:05:22.675Z</time></trkpt><trkpt lat="42.2313417" lon="13.8372317"><ele>892.5</ele><time>2026-05-02T09:05:23.675Z</time></trkpt><trkpt lat="42.231475" lon="13.837195"><ele>895.0</ele><time>2026-05-02T09:05:24.674Z</time></trkpt><trkpt lat="42.2316133" lon="13.8371617"><ele>897.5</ele><time>2026-05-02T09:05:25.674Z</time></trkpt><trkpt lat="42.2317533" lon="13.8371317"><ele>900.0</ele><time>2026-05-02T09:05:26.675Z</time></trkpt><trkpt lat="42.2318867" lon="13.837105"><ele>900.0</ele><time>2026-05-02T09:05:27.674Z</time></trkpt><trkpt lat="42.2320233" lon="13.8370867"><ele>900.0</ele><time>2026-05-02T09:05:28.674Z</time></trkpt><trkpt lat="42.2321517" lon="13.837085"><ele>900.0</ele><time>2026-05-02T09:05:29.675Z</time></trkpt><trkpt lat="42.232265" lon="13.8370933"><ele>900.0</ele><time>2026-05-02T09:05:30.675Z</time></trkpt><trkpt lat="42.232365" lon="13.8371083"><ele>900.0</ele><time>2026-05-02T09:05:31.675Z</time></trkpt><trkpt lat="42.2324417" lon="13.8371183"><ele>900.0</ele><time>2026-05-02T09:05:32.675Z</time></trkpt><trkpt lat="42.232535" lon="13.8370917"><ele>900.0</ele><time>2026-05-02T09:05:34.674Z</time></trkpt><trkpt lat="42.2325217" lon="13.8370083"><ele>900.0</ele><time>2026-05-02T09:05:36.675Z</time></trkpt><trkpt lat="42.2324" lon="13.836945"><ele>900.0</ele><time>2026-05-02T09:05:38.674Z</time></trkpt><trkpt lat="42.2322983" lon="13.8369067"><ele>900.0</ele><time>2026-05-02T09:05:39.675Z</time></trkpt><trkpt lat="42.2321817" lon="13.8368667"><ele>900.0</ele><time>2026-05-02T09:05:40.674Z</time></trkpt><trkpt lat="42.2320517" lon="13.8368283"><ele>900.0</ele><time>2026-05-02T09:05:41.675Z</time></trkpt><trkpt lat="42.2319083" lon="13.8367867"><ele>900.0</ele><time>2026-05-02T09:05:42.674Z</time></trkpt><trkpt lat="42.2317683" lon="13.8367517"><ele>890.5</ele><time>2026-05-02T09:05:43.675Z</time></trkpt><trkpt lat="42.2316283" lon="13.8367133"><ele>881.0</ele><time>2026-05-02T09:05:44.675Z</time></trkpt><trkpt lat="42.2314933" lon="13.8366783"><ele>871.5</ele><time>2026-05-02T09:05:45.675Z</time></trkpt><trkpt lat="42.2313683" lon="13.8366517"><ele>862.0</ele><time>2026-05-02T09:05:46.674Z</time></trkpt><trkpt lat="42.2312417" lon="13.8366333"><ele>859.75</ele><time>2026-05-02T09:05:47.675Z</time></trkpt><trkpt lat="42.2311083" lon="13.8366233"><ele>857.5</ele><time>2026-05-02T09:05:48.674Z</time></trkpt><trkpt lat="42.230985" lon="13.83663"><ele>855.25</ele><time>2026-05-02T09:05:49.675Z</time></trkpt><trkpt lat="42.2308633" lon="13.836645"><ele>853.0</ele><time>2026-05-02T09:05:50.674Z</time></trkpt><trkpt lat="42.23074" lon="13.8366883"><ele>855.5</ele><time>2026-05-02T09:05:51.674Z</time></trkpt><trkpt lat="42.230605" lon="13.8367533"><ele>858.0</ele><time>2026-05-02T09:05:52.675Z</time></trkpt><trkpt lat="42.2304667" lon="13.8368267"><ele>860.5</ele><time>2026-05-02T09:05:53.675Z</time></trkpt><trkpt lat="42.2303233" lon="13.8369067"><ele>863.0</ele><time>2026-05-02T09:05:54.675Z</time></trkpt><trkpt lat="42.23018" lon="13.8369817"><ele>863.0</ele><time>2026-05-02T09:05:55.674Z</time></trkpt><trkpt lat="42.230035" lon="13.83706"><ele>863.0</ele><time>2026-05-02T09:05:56.675Z</time></trkpt><trkpt lat="42.2298933" lon="13.8371317"><ele>863.0</ele><time>2026-05-02T09:05:57.675Z</time></trkpt><trkpt lat="42.2297467" lon="13.8372133"><ele>856.75</ele><time>2026-05-02T09:05:58.675Z</time></trkpt><trkpt lat="42.22961" lon="13.837295"><ele>850.5</ele><time>2026-05-02T09:05:59.674Z</time></trkpt><trkpt lat="42.229475" lon="13.8373617"><ele>844.25</ele><time>2026-05-02T09:06:00.675Z</time></trkpt><trkpt lat="42.2293383" lon="13.83743"><ele>838.0</ele><time>2026-05-02T09:06:01.674Z</time></trkpt><trkpt lat="42.2292033" lon="13.8374883"><ele>838.0</ele><time>2026-05-02T09:06:02.674Z</time></trkpt><trkpt lat="42.2290733" lon="13.837555"><ele>838.0</ele><time>2026-05-02T09:06:03.674Z</time></trkpt><trkpt lat="42.2289417" lon="13.8376167"><ele>838.0</ele><time>2026-05-02T09:06:04.675Z</time></trkpt><trkpt lat="42.2288217" lon="13.83768"><ele>838.0</ele><time>2026-05-02T09:06:05.675Z</time></trkpt><trkpt lat="42.2287167" lon="13.83775"><ele>836.8333333333333</ele><time>2026-05-02T09:06:06.674Z</time></trkpt><trkpt lat="42.22863" lon="13.8378"><ele>835.6666666666666</ele><time>2026-05-02T09:06:07.675Z</time></trkpt><trkpt lat="42.2285617" lon="13.837825"><ele>834.5</ele><time>2026-05-02T09:06:08.674Z</time></trkpt><trkpt lat="42.2284933" lon="13.8377967"><ele>833.3333333333333</ele><time>2026-05-02T09:06:10.675Z</time></trkpt><trkpt lat="42.2285383" lon="13.8377083"><ele>832.1666666666666</ele><time>2026-05-02T09:06:12.675Z</time></trkpt><trkpt lat="42.2285983" lon="13.8376667"><ele>831.0</ele><time>2026-05-02T09:06:13.674Z</time></trkpt><trkpt lat="42.2286833" lon="13.8376083"><ele>831.0</ele><time>2026-05-02T09:06:14.674Z</time></trkpt><trkpt lat="42.22877" lon="13.8375333"><ele>831.0</ele><time>2026-05-02T09:06:15.674Z</time></trkpt><trkpt lat="42.2288667" lon="13.8374367"><ele>831.0</ele><time>2026-05-02T09:06:16.674Z</time></trkpt><trkpt lat="42.2289717" lon="13.83733"><ele>831.0</ele><time>2026-05-02T09:06:17.674Z</time></trkpt><trkpt lat="42.2290767" lon="13.8372233"><ele>832.75</ele><time>2026-05-02T09:06:18.675Z</time></trkpt><trkpt lat="42.2291833" lon="13.837125"><ele>834.5</ele><time>2026-05-02T09:06:19.674Z</time></trkpt><trkpt lat="42.2292967" lon="13.8370267"><ele>836.25</ele><time>2026-05-02T09:06:20.675Z</time></trkpt><trkpt lat="42.2294133" lon="13.8369217"><ele>838.0</ele><time>2026-05-02T09:06:21.675Z</time></trkpt><trkpt lat="42.22952" lon="13.8368117"><ele>836.0</ele><time>2026-05-02T09:06:22.675Z</time></trkpt><trkpt lat="42.2296233" lon="13.8366917"><ele>834.0</ele><time>2026-05-02T09:06:23.675Z</time></trkpt><trkpt lat="42.2297217" lon="13.836575"><ele>832.0</ele><time>2026-05-02T09:06:24.674Z</time></trkpt><trkpt lat="42.2298183" lon="13.8364483"><ele>830.0</ele><time>2026-05-02T09:06:25.675Z</time></trkpt><trkpt lat="42.2299283" lon="13.836315"><ele>830.0</ele><time>2026-05-02T09:06:26.674Z</time></trkpt><trkpt lat="42.230045" lon="13.8361817"><ele>830.0</ele><time>2026-05-02T09:06:27.674Z</time></trkpt><trkpt lat="42.2301683" lon="13.8360533"><ele>830.0</ele><time>2026-05-02T09:06:28.674Z</time></trkpt><trkpt lat="42.2302917" lon="13.8359233"><ele>827.75</ele><time>2026-05-02T09:06:29.674Z</time></trkpt><trkpt lat="42.2304133" lon="13.8357967"><ele>825.5</ele><time>2026-05-02T09:06:30.675Z</time></trkpt><trkpt lat="42.2305367" lon="13.8356783"><ele>823.25</ele><time>2026-05-02T09:06:31.674Z</time></trkpt><trkpt lat="42.2306533" lon="13.8355717"><ele>821.0</ele><time>2026-05-02T09:06:32.674Z</time></trkpt><trkpt lat="42.2307767" lon="13.8354783"><ele>821.0</ele><time>2026-05-02T09:06:33.674Z</time></trkpt><trkpt lat="42.2309" lon="13.835395"><ele>821.0</ele><time>2026-05-02T09:06:34.675Z</time></trkpt><trkpt lat="42.2310183" lon="13.835335"><ele>821.0</ele><time>2026-05-02T09:06:35.674Z</time></trkpt><trkpt lat="42.2311367" lon="13.8352867"><ele>821.0</ele><time>2026-05-02T09:06:36.674Z</time></trkpt><trkpt lat="42.231255" lon="13.8352467"><ele>821.0</ele><time>2026-05-02T09:06:37.675Z</time></trkpt><trkpt lat="42.2313767" lon="13.8352167"><ele>821.0</ele><time>2026-05-02T09:06:38.675Z</time></trkpt><trkpt lat="42.231505" lon="13.835185"><ele>821.0</ele><time>2026-05-02T09:06:39.675Z</time></trkpt><trkpt lat="42.23163" lon="13.83517"><ele>821.0</ele><time>2026-05-02T09:06:40.674Z</time></trkpt><trkpt lat="42.2317483" lon="13.8351483"><ele>818.0000000000001</ele><time>2026-05-02T09:06:41.674Z</time></trkpt><trkpt lat="42.2318417" lon="13.8351317"><ele>815.0</ele><time>2026-05-02T09:06:42.674Z</time></trkpt><trkpt lat="42.2319133" lon="13.8351133"><ele>812.0</ele><time>2026-05-02T09:06:43.675Z</time></trkpt><trkpt lat="42.231975" lon="13.835035"><ele>809.0</ele><time>2026-05-02T09:06:45.675Z</time></trkpt><trkpt lat="42.2318917" lon="13.8349617"><ele>806.0000000000001</ele><time>2026-05-02T09:06:47.675Z</time></trkpt><trkpt lat="42.2318067" lon="13.8349583"><ele>803.0</ele><time>2026-05-02T09:06:48.675Z</time></trkpt><trkpt lat="42.2316983" lon="13.8349667"><ele>803.0</ele><time>2026-05-02T09:06:49.675Z</time></trkpt><trkpt lat="42.2315867" lon="13.8349683"><ele>803.0</ele><time>2026-05-02T09:06:50.674Z</time></trkpt><trkpt lat="42.2314833" lon="13.83495"><ele>803.0</ele><time>2026-05-02T09:06:51.675Z</time></trkpt><trkpt lat="42.2313833" lon="13.8349283"><ele>803.0</ele><time>2026-05-02T09:06:52.675Z</time></trkpt><trkpt lat="42.2312883" lon="13.8348933"><ele>803.0</ele><time>2026-05-02T09:06:53.675Z</time></trkpt><trkpt lat="42.2311917" lon="13.8348683"><ele>800.8</ele><time>2026-05-02T09:06:54.675Z</time></trkpt><trkpt lat="42.2310967" lon="13.8348633"><ele>798.5999999999999</ele><time>2026-05-02T09:06:55.674Z</time></trkpt><trkpt lat="42.2309933" lon="13.8348733"><ele>796.4000000000001</ele><time>2026-05-02T09:06:56.675Z</time></trkpt><trkpt lat="42.2308767" lon="13.8349"><ele>794.2</ele><time>2026-05-02T09:06:57.674Z</time></trkpt><trkpt lat="42.2307483" lon="13.83493"><ele>792.0</ele><time>2026-05-02T09:06:58.674Z</time></trkpt><trkpt lat="42.2306167" lon="13.83496"><ele>788.75</ele><time>2026-05-02T09:06:59.675Z</time></trkpt><trkpt lat="42.23048" lon="13.8349983"><ele>785.5</ele><time>2026-05-02T09:07:00.674Z</time></trkpt><trkpt lat="42.2303517" lon="13.8350417"><ele>782.25</ele><time>2026-05-02T09:07:01.675Z</time></trkpt><trkpt lat="42.2302183" lon="13.8350817"><ele>779.0</ele><time>2026-05-02T09:07:02.675Z</time></trkpt><trkpt lat="42.2300983" lon="13.8351233"><ele>779.25</ele><time>2026-05-02T09:07:03.675Z</time></trkpt><trkpt lat="42.22997" lon="13.8351717"><ele>779.5</ele><time>2026-05-02T09:07:04.675Z</time></trkpt><trkpt lat="42.2298467" lon="13.835215"><ele>779.75</ele><time>2026-05-02T09:07:05.674Z</time></trkpt><trkpt lat="42.2297233" lon="13.83526"><ele>780.0</ele><time>2026-05-02T09:07:06.675Z</time></trkpt><trkpt lat="42.2296083" lon="13.8353083"><ele>780.0</ele><time>2026-05-02T09:07:07.675Z</time></trkpt><trkpt lat="42.2294833" lon="13.8353633"><ele>780.0</ele><time>2026-05-02T09:07:08.674Z</time></trkpt><trkpt lat="42.229365" lon="13.835425"><ele>780.0</ele><time>2026-05-02T09:07:09.674Z</time></trkpt><trkpt lat="42.22925" lon="13.835495"><ele>780.0</ele><time>2026-05-02T09:07:10.674Z</time></trkpt><trkpt lat="42.2291417" lon="13.835575"><ele>780.0</ele><time>2026-05-02T09:07:11.673Z</time></trkpt><trkpt lat="42.22903" lon="13.835655"><ele>780.0</ele><time>2026-05-02T09:07:12.673Z</time></trkpt><trkpt lat="42.2289233" lon="13.8357317"><ele>780.0</ele><time>2026-05-02T09:07:13.673Z</time></trkpt><trkpt lat="42.22882" lon="13.8357983"><ele>780.0</ele><time>2026-05-02T09:07:14.674Z</time></trkpt><trkpt lat="42.2287117" lon="13.8358567"><ele>777.8</ele><time>2026-05-02T09:07:15.674Z</time></trkpt><trkpt lat="42.228605" lon="13.8359083"><ele>775.6</ele><time>2026-05-02T09:07:16.674Z</time></trkpt><trkpt lat="42.228515" lon="13.8359667"><ele>773.4000000000001</ele><time>2026-05-02T09:07:17.674Z</time></trkpt><trkpt lat="42.22844" lon="13.8360083"><ele>771.2</ele><time>2026-05-02T09:07:18.673Z</time></trkpt><trkpt lat="42.2283717" lon="13.83603"><ele>769.0</ele><time>2026-05-02T09:07:19.674Z</time></trkpt><trkpt lat="42.22825" lon="13.836005"><ele>769.0</ele><time>2026-05-02T09:07:21.674Z</time></trkpt><trkpt lat="42.22819" lon="13.83597"><ele>769.0</ele><time>2026-05-02T09:07:22.673Z</time></trkpt><trkpt lat="42.2281167" lon="13.8359283"><ele>769.0</ele><time>2026-05-02T09:07:23.674Z</time></trkpt><trkpt lat="42.2280317" lon="13.8358817"><ele>769.0</ele><time>2026-05-02T09:07:24.674Z</time></trkpt><trkpt lat="42.22794" lon="13.8358233"><ele>769.0</ele><time>2026-05-02T09:07:25.674Z</time></trkpt><trkpt lat="42.2278367" lon="13.835755"><ele>770.0</ele><time>2026-05-02T09:07:26.674Z</time></trkpt><trkpt lat="42.2277217" lon="13.8356867"><ele>771.0</ele><time>2026-05-02T09:07:27.674Z</time></trkpt><trkpt lat="42.227595" lon="13.8356067"><ele>772.0</ele><time>2026-05-02T09:07:28.673Z</time></trkpt><trkpt lat="42.2274767" lon="13.835535"><ele>773.0</ele><time>2026-05-02T09:07:29.674Z</time></trkpt><trkpt lat="42.2273567" lon="13.835465"><ele>772.0</ele><time>2026-05-02T09:07:30.674Z</time></trkpt><trkpt lat="42.2272433" lon="13.8354067"><ele>771.0</ele><time>2026-05-02T09:07:31.674Z</time></trkpt><trkpt lat="42.2271483" lon="13.835365"><ele>770.0</ele><time>2026-05-02T09:07:32.673Z</time></trkpt><trkpt lat="42.2270633" lon="13.8353467"><ele>769.0</ele><time>2026-05-02T09:07:33.674Z</time></trkpt><trkpt lat="42.2269883" lon="13.8353383"><ele>768.0</ele><time>2026-05-02T09:07:34.673Z</time></trkpt><trkpt lat="42.22691" lon="13.8353417"><ele>768.0</ele><time>2026-05-02T09:07:35.673Z</time></trkpt><trkpt lat="42.2268367" lon="13.83536"><ele>768.0</ele><time>2026-05-02T09:07:36.674Z</time></trkpt><trkpt lat="42.2267417" lon="13.835385"><ele>768.0</ele><time>2026-05-02T09:07:37.673Z</time></trkpt><trkpt lat="42.2266333" lon="13.8354133"><ele>768.0</ele><time>2026-05-02T09:07:38.673Z</time></trkpt><trkpt lat="42.2265217" lon="13.835445"><ele>768.0</ele><time>2026-05-02T09:07:39.673Z</time></trkpt><trkpt lat="42.226415" lon="13.835485"><ele>764.4</ele><time>2026-05-02T09:07:40.674Z</time></trkpt><trkpt lat="42.2263267" lon="13.83552"><ele>760.8</ele><time>2026-05-02T09:07:41.673Z</time></trkpt><trkpt lat="42.2262333" lon="13.8355517"><ele>757.2</ele><time>2026-05-02T09:07:42.673Z</time></trkpt><trkpt lat="42.2261483" lon="13.835585"><ele>753.6</ele><time>2026-05-02T09:07:43.674Z</time></trkpt><trkpt lat="42.2260617" lon="13.8356133"><ele>750.0</ele><time>2026-05-02T09:07:44.673Z</time></trkpt><trkpt lat="42.22597" lon="13.83565"><ele>750.0</ele><time>2026-05-02T09:07:45.673Z</time></trkpt><trkpt lat="42.2258783" lon="13.8356933"><ele>750.0</ele><time>2026-05-02T09:07:46.674Z</time></trkpt><trkpt lat="42.2257767" lon="13.83575"><ele>750.0</ele><time>2026-05-02T09:07:47.673Z</time></trkpt><trkpt lat="42.2256767" lon="13.83581"><ele>750.0</ele><time>2026-05-02T09:07:48.674Z</time></trkpt><trkpt lat="42.2255667" lon="13.83588"><ele>750.0</ele><time>2026-05-02T09:07:49.674Z</time></trkpt><trkpt lat="42.22546" lon="13.8359533"><ele>748.0</ele><time>2026-05-02T09:07:50.674Z</time></trkpt><trkpt lat="42.2253633" lon="13.8360417"><ele>746.0</ele><time>2026-05-02T09:07:51.674Z</time></trkpt><trkpt lat="42.2252583" lon="13.836145"><ele>744.0</ele><time>2026-05-02T09:07:52.673Z</time></trkpt><trkpt lat="42.2251533" lon="13.8362433"><ele>742.0</ele><time>2026-05-02T09:07:53.674Z</time></trkpt><trkpt lat="42.2250433" lon="13.8363383"><ele>742.0</ele><time>2026-05-02T09:07:54.673Z</time></trkpt><trkpt lat="42.2249317" lon="13.8364317"><ele>742.0</ele><time>2026-05-02T09:07:55.674Z</time></trkpt><trkpt lat="42.2248217" lon="13.83652"><ele>742.0</ele><time>2026-05-02T09:07:56.674Z</time></trkpt><trkpt lat="42.22472" lon="13.836605"><ele>742.0</ele><time>2026-05-02T09:07:57.673Z</time></trkpt><trkpt lat="42.2246367" lon="13.83671"><ele>737.5</ele><time>2026-05-02T09:07:58.674Z</time></trkpt><trkpt lat="42.2245567" lon="13.8368417"><ele>733.0</ele><time>2026-05-02T09:07:59.674Z</time></trkpt><trkpt lat="42.2244833" lon="13.83699"><ele>728.5</ele><time>2026-05-02T09:08:00.673Z</time></trkpt><trkpt lat="42.2244117" lon="13.8371333"><ele>724.0</ele><time>2026-05-02T09:08:01.673Z</time></trkpt><trkpt lat="42.2243317" lon="13.8372617"><ele>724.0</ele><time>2026-05-02T09:08:02.674Z</time></trkpt><trkpt lat="42.224255" lon="13.8373833"><ele>724.0</ele><time>2026-05-02T09:08:03.673Z</time></trkpt><trkpt lat="42.2241783" lon="13.8375133"><ele>724.0</ele><time>2026-05-02T09:08:04.674Z</time></trkpt><trkpt lat="42.22411" lon="13.8376533"><ele>724.0</ele><time>2026-05-02T09:08:05.673Z</time></trkpt><trkpt lat="42.2240383" lon="13.8378017"><ele>720.6</ele><time>2026-05-02T09:08:06.674Z</time></trkpt><trkpt lat="42.2239733" lon="13.837945"><ele>717.2</ele><time>2026-05-02T09:08:07.673Z</time></trkpt><trkpt lat="42.223905" lon="13.8380583"><ele>713.8000000000001</ele><time>2026-05-02T09:08:08.673Z</time></trkpt><trkpt lat="42.22383" lon="13.8381617"><ele>710.4000000000001</ele><time>2026-05-02T09:08:09.673Z</time></trkpt><trkpt lat="42.2237533" lon="13.8382467"><ele>707.0</ele><time>2026-05-02T09:08:10.674Z</time></trkpt><trkpt lat="42.2236717" lon="13.8383267"><ele>707.0</ele><time>2026-05-02T09:08:11.674Z</time></trkpt><trkpt lat="42.2235817" lon="13.8384017"><ele>707.0</ele><time>2026-05-02T09:08:12.673Z</time></trkpt><trkpt lat="42.22349" lon="13.8384667"><ele>707.0</ele><time>2026-05-02T09:08:13.673Z</time></trkpt><trkpt lat="42.2233917" lon="13.8385183"><ele>707.0</ele><time>2026-05-02T09:08:14.673Z</time></trkpt><trkpt lat="42.2232833" lon="13.8385667"><ele>707.0</ele><time>2026-05-02T09:08:15.673Z</time></trkpt><trkpt lat="42.22316" lon="13.8386183"><ele>707.75</ele><time>2026-05-02T09:08:16.673Z</time></trkpt><trkpt lat="42.22303" lon="13.8386733"><ele>708.5</ele><time>2026-05-02T09:08:17.674Z</time></trkpt><trkpt lat="42.2228967" lon="13.8387217"><ele>709.25</ele><time>2026-05-02T09:08:18.674Z</time></trkpt><trkpt lat="42.222775" lon="13.83877"><ele>710.0</ele><time>2026-05-02T09:08:19.673Z</time></trkpt><trkpt lat="42.22265" lon="13.8388233"><ele>710.0</ele><time>2026-05-02T09:08:20.673Z</time></trkpt><trkpt lat="42.2225383" lon="13.8388817"><ele>710.0</ele><time>2026-05-02T09:08:21.674Z</time></trkpt><trkpt lat="42.2224367" lon="13.8389433"><ele>710.0</ele><time>2026-05-02T09:08:22.674Z</time></trkpt><trkpt lat="42.2223433" lon="13.839015"><ele>710.0</ele><time>2026-05-02T09:08:23.673Z</time></trkpt><trkpt lat="42.222255" lon="13.8390917"><ele>710.0</ele><time>2026-05-02T09:08:24.674Z</time></trkpt><trkpt lat="42.22219" lon="13.83917"><ele>705.0</ele><time>2026-05-02T09:08:25.674Z</time></trkpt><trkpt lat="42.2221367" lon="13.8392383"><ele>700.0</ele><time>2026-05-02T09:08:26.673Z</time></trkpt><trkpt lat="42.2220367" lon="13.8392983"><ele>695.0</ele><time>2026-05-02T09:08:28.673Z</time></trkpt><trkpt lat="42.2219683" lon="13.8392083"><ele>690.0</ele><time>2026-05-02T09:08:30.673Z</time></trkpt><trkpt lat="42.2220017" lon="13.83903"><ele>685.0</ele><time>2026-05-02T09:08:32.674Z</time></trkpt><trkpt lat="42.2220467" lon="13.83891"><ele>685.0</ele><time>2026-05-02T09:08:33.673Z</time></trkpt><trkpt lat="42.2221" lon="13.8387833"><ele>685.0</ele><time>2026-05-02T09:08:34.674Z</time></trkpt><trkpt lat="42.22216" lon="13.838645"><ele>685.0</ele><time>2026-05-02T09:08:35.674Z</time></trkpt><trkpt lat="42.2222217" lon="13.8385117"><ele>685.0</ele><time>2026-05-02T09:08:36.674Z</time></trkpt><trkpt lat="42.2222883" lon="13.83838"><ele>687.25</ele><time>2026-05-02T09:08:37.673Z</time></trkpt><trkpt lat="42.2223633" lon="13.8382717"><ele>689.5</ele><time>2026-05-02T09:08:38.673Z</time></trkpt><trkpt lat="42.222445" lon="13.8381617"><ele>691.75</ele><time>2026-05-02T09:08:39.673Z</time></trkpt><trkpt lat="42.2225333" lon="13.838045"><ele>694.0</ele><time>2026-05-02T09:08:40.674Z</time></trkpt><trkpt lat="42.2226267" lon="13.8379333"><ele>694.0</ele><time>2026-05-02T09:08:41.674Z</time></trkpt><trkpt lat="42.2227183" lon="13.8378217"><ele>694.0</ele><time>2026-05-02T09:08:42.674Z</time></trkpt><trkpt lat="42.2227983" lon="13.83771"><ele>694.0</ele><time>2026-05-02T09:08:43.674Z</time></trkpt><trkpt lat="42.22287" lon="13.8376017"><ele>694.0</ele><time>2026-05-02T09:08:44.673Z</time></trkpt><trkpt lat="42.2229267" lon="13.8374883"><ele>694.0</ele><time>2026-05-02T09:08:45.673Z</time></trkpt><trkpt lat="42.22297" lon="13.83737"><ele>689.2</ele><time>2026-05-02T09:08:46.674Z</time></trkpt><trkpt lat="42.2230067" lon="13.8372517"><ele>684.4000000000001</ele><time>2026-05-02T09:08:47.674Z</time></trkpt><trkpt lat="42.2230333" lon="13.8371133"><ele>679.6</ele><time>2026-05-02T09:08:48.673Z</time></trkpt><trkpt lat="42.2230633" lon="13.8369667"><ele>674.8</ele><time>2026-05-02T09:08:49.674Z</time></trkpt><trkpt lat="42.2230817" lon="13.8368117"><ele>670.0</ele><time>2026-05-02T09:08:50.673Z</time></trkpt><trkpt lat="42.2231" lon="13.83666"><ele>667.6</ele><time>2026-05-02T09:08:51.674Z</time></trkpt><trkpt lat="42.2231067" lon="13.8365067"><ele>665.2</ele><time>2026-05-02T09:08:52.673Z</time></trkpt><trkpt lat="42.2231067" lon="13.8363683"><ele>662.8</ele><time>2026-05-02T09:08:53.674Z</time></trkpt><trkpt lat="42.2231183" lon="13.8362467"><ele>660.4</ele><time>2026-05-02T09:08:54.673Z</time></trkpt><trkpt lat="42.2231233" lon="13.836135"><ele>658.0</ele><time>2026-05-02T09:08:55.674Z</time></trkpt><trkpt lat="42.2230933" lon="13.8359983"><ele>658.0</ele><time>2026-05-02T09:08:57.673Z</time></trkpt><trkpt lat="42.2230083" lon="13.8360067"><ele>658.0</ele><time>2026-05-02T09:08:59.673Z</time></trkpt><trkpt lat="42.2229433" lon="13.8360767"><ele>658.0</ele><time>2026-05-02T09:09:00.674Z</time></trkpt><trkpt lat="42.2228783" lon="13.8361917"><ele>658.0</ele><time>2026-05-02T09:09:01.673Z</time></trkpt><trkpt lat="42.2228167" lon="13.83632"><ele>658.0</ele><time>2026-05-02T09:09:02.674Z</time></trkpt><trkpt lat="42.2227567" lon="13.8364433"><ele>658.0</ele><time>2026-05-02T09:09:03.673Z</time></trkpt><trkpt lat="42.2226933" lon="13.8365567"><ele>658.0</ele><time>2026-05-02T09:09:04.674Z</time></trkpt><trkpt lat="42.222635" lon="13.8366517"><ele>658.0</ele><time>2026-05-02T09:09:05.673Z</time></trkpt><trkpt lat="42.2225733" lon="13.83672"><ele>658.0</ele><time>2026-05-02T09:09:06.674Z</time></trkpt><trkpt lat="42.2225067" lon="13.836775"><ele>658.0</ele><time>2026-05-02T09:09:07.673Z</time></trkpt><trkpt lat="42.22243" lon="13.8368317"><ele>658.0</ele><time>2026-05-02T09:09:08.673Z</time></trkpt><trkpt lat="42.2223467" lon="13.83689"><ele>657.75</ele><time>2026-05-02T09:09:09.673Z</time></trkpt><trkpt lat="42.2222517" lon="13.8369517"><ele>657.5</ele><time>2026-05-02T09:09:10.673Z</time></trkpt><trkpt lat="42.2221467" lon="13.83701"><ele>657.25</ele><time>2026-05-02T09:09:11.673Z</time></trkpt><trkpt lat="42.2220317" lon="13.83707"><ele>657.0</ele><time>2026-05-02T09:09:12.673Z</time></trkpt><trkpt lat="42.221915" lon="13.8371367"><ele>657.0</ele><time>2026-05-02T09:09:13.673Z</time></trkpt><trkpt lat="42.2218017" lon="13.8372017"><ele>657.0</ele><time>2026-05-02T09:09:14.673Z</time></trkpt><trkpt lat="42.221685" lon="13.8372717"><ele>657.0</ele><time>2026-05-02T09:09:15.674Z</time></trkpt><trkpt lat="42.2215717" lon="13.8373383"><ele>657.0</ele><time>2026-05-02T09:09:16.674Z</time></trkpt><trkpt lat="42.22147" lon="13.8373983"><ele>652.3333333333334</ele><time>2026-05-02T09:09:17.674Z</time></trkpt><trkpt lat="42.2213833" lon="13.837445"><ele>647.6666666666666</ele><time>2026-05-02T09:09:18.674Z</time></trkpt><trkpt lat="42.2213133" lon="13.837485"><ele>643.0</ele><time>2026-05-02T09:09:19.674Z</time></trkpt><trkpt lat="42.2212183" lon="13.8374783"><ele>638.3333333333333</ele><time>2026-05-02T09:09:21.674Z</time></trkpt><trkpt lat="42.2212117" lon="13.8373767"><ele>633.6666666666666</ele><time>2026-05-02T09:09:23.674Z</time></trkpt><trkpt lat="42.2212667" lon="13.8373017"><ele>629.0</ele><time>2026-05-02T09:09:24.674Z</time></trkpt><trkpt lat="42.2213567" lon="13.83721"><ele>629.0</ele><time>2026-05-02T09:09:25.674Z</time></trkpt><trkpt lat="42.2214567" lon="13.8371033"><ele>629.0</ele><time>2026-05-02T09:09:26.673Z</time></trkpt><trkpt lat="42.2215583" lon="13.8369717"><ele>629.0</ele><time>2026-05-02T09:09:27.674Z</time></trkpt><trkpt lat="42.221655" lon="13.8368417"><ele>629.0</ele><time>2026-05-02T09:09:28.674Z</time></trkpt><trkpt lat="42.2217517" lon="13.836715"><ele>632.0</ele><time>2026-05-02T09:09:29.673Z</time></trkpt><trkpt lat="42.2218367" lon="13.8365833"><ele>635.0</ele><time>2026-05-02T09:09:30.673Z</time></trkpt><trkpt lat="42.2219167" lon="13.836445"><ele>638.0</ele><time>2026-05-02T09:09:31.674Z</time></trkpt><trkpt lat="42.2219883" lon="13.836305"><ele>641.0</ele><time>2026-05-02T09:09:32.673Z</time></trkpt><trkpt lat="42.2220483" lon="13.83618"><ele>641.0</ele><time>2026-05-02T09:09:33.673Z</time></trkpt><trkpt lat="42.2221" lon="13.83609"><ele>641.0</ele><time>2026-05-02T09:09:34.673Z</time></trkpt><trkpt lat="42.2221367" lon="13.835965"><ele>641.0</ele><time>2026-05-02T09:09:36.674Z</time></trkpt><trkpt lat="42.22206" lon="13.8359367"><ele>641.0</ele><time>2026-05-02T09:09:38.674Z</time></trkpt><trkpt lat="42.2219983" lon="13.835975"><ele>641.0</ele><time>2026-05-02T09:09:39.674Z</time></trkpt><trkpt lat="42.2219217" lon="13.8360533"><ele>641.0</ele><time>2026-05-02T09:09:40.673Z</time></trkpt><trkpt lat="42.2218283" lon="13.8361567"><ele>641.0</ele><time>2026-05-02T09:09:41.674Z</time></trkpt><trkpt lat="42.2217167" lon="13.8362767"><ele>641.0</ele><time>2026-05-02T09:09:42.673Z</time></trkpt><trkpt lat="42.2216017" lon="13.8363967"><ele>641.0</ele><time>2026-05-02T09:09:43.673Z</time></trkpt><trkpt lat="42.22149" lon="13.836495"><ele>641.0</ele><time>2026-05-02T09:09:44.674Z</time></trkpt><trkpt lat="42.2213783" lon="13.8365883"><ele>638.0</ele><time>2026-05-02T09:09:45.674Z</time></trkpt><trkpt lat="42.2212733" lon="13.8366733"><ele>635.0</ele><time>2026-05-02T09:09:46.673Z</time></trkpt><trkpt lat="42.2211633" lon="13.836745"><ele>632.0</ele><time>2026-05-02T09:09:47.673Z</time></trkpt><trkpt lat="42.2210633" lon="13.8368217"><ele>629.0</ele><time>2026-05-02T09:09:48.674Z</time></trkpt><trkpt lat="42.220975" lon="13.8369"><ele>629.0</ele><time>2026-05-02T09:09:49.673Z</time></trkpt><trkpt lat="42.2208883" lon="13.837"><ele>629.0</ele><time>2026-05-02T09:09:50.673Z</time></trkpt><trkpt lat="42.2208083" lon="13.8371133"><ele>629.0</ele><time>2026-05-02T09:09:51.673Z</time></trkpt><trkpt lat="42.22073" lon="13.837235"><ele>629.0</ele><time>2026-05-02T09:09:52.674Z</time></trkpt><trkpt lat="42.2206533" lon="13.83736"><ele>618.25</ele><time>2026-05-02T09:09:53.674Z</time></trkpt><trkpt lat="42.22058" lon="13.8374917"><ele>607.5</ele><time>2026-05-02T09:09:54.674Z</time></trkpt><trkpt lat="42.2205183" lon="13.8376417"><ele>596.75</ele><time>2026-05-02T09:09:55.674Z</time></trkpt><trkpt lat="42.22046" lon="13.8377983"><ele>586.0</ele><time>2026-05-02T09:09:56.673Z</time></trkpt><trkpt lat="42.2204167" lon="13.8379533"><ele>586.0</ele><time>2026-05-02T09:09:57.674Z</time></trkpt><trkpt lat="42.220375" lon="13.8381067"><ele>586.0</ele><time>2026-05-02T09:09:58.673Z</time></trkpt><trkpt lat="42.2203367" lon="13.8382567"><ele>586.0</ele><time>2026-05-02T09:09:59.674Z</time></trkpt><trkpt lat="42.2203117" lon="13.8383917"><ele>586.0</ele><time>2026-05-02T09:10:00.674Z</time></trkpt><trkpt lat="42.2203083" lon="13.83851"><ele>586.0</ele><time>2026-05-02T09:10:01.673Z</time></trkpt><trkpt lat="42.2203133" lon="13.8386217"><ele>588.1666666666667</ele><time>2026-05-02T09:10:02.674Z</time></trkpt><trkpt lat="42.2203117" lon="13.838725"><ele>590.3333333333334</ele><time>2026-05-02T09:10:03.674Z</time></trkpt><trkpt lat="42.2203" lon="13.8388133"><ele>592.5</ele><time>2026-05-02T09:10:04.674Z</time></trkpt><trkpt lat="42.2202733" lon="13.838905"><ele>594.6666666666666</ele><time>2026-05-02T09:10:05.673Z</time></trkpt><trkpt lat="42.22022" lon="13.8390133"><ele>596.8333333333333</ele><time>2026-05-02T09:10:06.674Z</time></trkpt><trkpt lat="42.2201533" lon="13.839135"><ele>599.0</ele><time>2026-05-02T09:10:07.673Z</time></trkpt><trkpt lat="42.2200783" lon="13.8392667"><ele>604.75</ele><time>2026-05-02T09:10:08.673Z</time></trkpt><trkpt lat="42.22001" lon="13.8393917"><ele>610.5</ele><time>2026-05-02T09:10:09.673Z</time></trkpt><trkpt lat="42.219935" lon="13.83951"><ele>616.25</ele><time>2026-05-02T09:10:10.674Z</time></trkpt><trkpt lat="42.2198583" lon="13.839625"><ele>622.0</ele><time>2026-05-02T09:10:11.674Z</time></trkpt><trkpt lat="42.2197717" lon="13.8397467"><ele>617.0</ele><time>2026-05-02T09:10:12.674Z</time></trkpt><trkpt lat="42.2196817" lon="13.8398633"><ele>612.0</ele><time>2026-05-02T09:10:13.673Z</time></trkpt><trkpt lat="42.2195883" lon="13.8399783"><ele>607.0</ele><time>2026-05-02T09:10:14.674Z</time></trkpt><trkpt lat="42.2195" lon="13.8400933"><ele>602.0</ele><time>2026-05-02T09:10:15.674Z</time></trkpt><trkpt lat="42.2194133" lon="13.8402067"><ele>602.0</ele><time>2026-05-02T09:10:16.673Z</time></trkpt><trkpt lat="42.219335" lon="13.8403217"><ele>602.0</ele><time>2026-05-02T09:10:17.674Z</time></trkpt><trkpt lat="42.219265" lon="13.8404317"><ele>602.0</ele><time>2026-05-02T09:10:18.673Z</time></trkpt><trkpt lat="42.2192117" lon="13.8405283"><ele>602.0</ele><time>2026-05-02T09:10:19.674Z</time></trkpt><trkpt lat="42.21917" lon="13.8405967"><ele>602.0</ele><time>2026-05-02T09:10:20.674Z</time></trkpt><trkpt lat="42.2190933" lon="13.8406333"><ele>602.0</ele><time>2026-05-02T09:10:22.673Z</time></trkpt><trkpt lat="42.2190467" lon="13.8405383"><ele>602.0</ele><time>2026-05-02T09:10:24.673Z</time></trkpt><trkpt lat="42.21911" lon="13.8403517"><ele>602.0</ele><time>2026-05-02T09:10:26.673Z</time></trkpt><trkpt lat="42.2191783" lon="13.8402267"><ele>602.0</ele><time>2026-05-02T09:10:27.674Z</time></trkpt><trkpt lat="42.219245" lon="13.84009"><ele>594.75</ele><time>2026-05-02T09:10:28.673Z</time></trkpt><trkpt lat="42.219305" lon="13.83993"><ele>587.5</ele><time>2026-05-02T09:10:29.673Z</time></trkpt><trkpt lat="42.21937" lon="13.839765"><ele>580.25</ele><time>2026-05-02T09:10:30.673Z</time></trkpt><trkpt lat="42.219435" lon="13.8395983"><ele>573.0</ele><time>2026-05-02T09:10:31.673Z</time></trkpt><trkpt lat="42.2194967" lon="13.8394367"><ele>568.0</ele><time>2026-05-02T09:10:32.674Z</time></trkpt><trkpt lat="42.219555" lon="13.8392767"><ele>563.0</ele><time>2026-05-02T09:10:33.673Z</time></trkpt><trkpt lat="42.2196117" lon="13.839125"><ele>558.0</ele><time>2026-05-02T09:10:34.673Z</time></trkpt><trkpt lat="42.2196717" lon="13.8389917"><ele>553.0</ele><time>2026-05-02T09:10:35.674Z</time></trkpt><trkpt lat="42.2197217" lon="13.8388767"><ele>553.0</ele><time>2026-05-02T09:10:36.674Z</time></trkpt><trkpt lat="42.219755" lon="13.83878"><ele>553.0</ele><time>2026-05-02T09:10:37.674Z</time></trkpt><trkpt lat="42.21977" lon="13.8386817"><ele>553.0</ele><time>2026-05-02T09:10:38.674Z</time></trkpt><trkpt lat="42.21976" lon="13.8385733"><ele>553.0</ele><time>2026-05-02T09:10:39.673Z</time></trkpt><trkpt lat="42.2197317" lon="13.8384433"><ele>553.0</ele><time>2026-05-02T09:10:40.672Z</time></trkpt><trkpt lat="42.219705" lon="13.8383033"><ele>553.0</ele><time>2026-05-02T09:10:41.673Z</time></trkpt><trkpt lat="42.21969" lon="13.83815"><ele>548.25</ele><time>2026-05-02T09:10:42.672Z</time></trkpt><trkpt lat="42.219675" lon="13.83798"><ele>543.5</ele><time>2026-05-02T09:10:43.673Z</time></trkpt><trkpt lat="42.21968" lon="13.8378133"><ele>538.75</ele><time>2026-05-02T09:10:44.672Z</time></trkpt><trkpt lat="42.2196833" lon="13.8376467"><ele>534.0</ele><time>2026-05-02T09:10:45.672Z</time></trkpt><trkpt lat="42.21968" lon="13.8374883"><ele>531.75</ele><time>2026-05-02T09:10:46.673Z</time></trkpt><trkpt lat="42.2196867" lon="13.83733"><ele>529.5</ele><time>2026-05-02T09:10:47.672Z</time></trkpt><trkpt lat="42.2197" lon="13.8371817"><ele>527.25</ele><time>2026-05-02T09:10:48.672Z</time></trkpt><trkpt lat="42.2197217" lon="13.8370333"><ele>525.0</ele><time>2026-05-02T09:10:49.673Z</time></trkpt><trkpt lat="42.219745" lon="13.8368883"><ele>522.2</ele><time>2026-05-02T09:10:50.672Z</time></trkpt><trkpt lat="42.2197717" lon="13.83675"><ele>519.4</ele><time>2026-05-02T09:10:51.672Z</time></trkpt><trkpt lat="42.2198017" lon="13.8366183"><ele>516.6</ele><time>2026-05-02T09:10:52.672Z</time></trkpt><trkpt lat="42.21984" lon="13.8364883"><ele>513.8</ele><time>2026-05-02T09:10:53.673Z</time></trkpt><trkpt lat="42.2198833" lon="13.836365"><ele>511.0</ele><time>2026-05-02T09:10:54.673Z</time></trkpt><trkpt lat="42.2199333" lon="13.8362433"><ele>515.1666666666667</ele><time>2026-05-02T09:10:55.673Z</time></trkpt><trkpt lat="42.21998" lon="13.83613"><ele>519.3333333333334</ele><time>2026-05-02T09:10:56.672Z</time></trkpt><trkpt lat="42.22003" lon="13.8360283"><ele>523.5</ele><time>2026-05-02T09:10:57.672Z</time></trkpt><trkpt lat="42.2200883" lon="13.8359417"><ele>527.6666666666666</ele><time>2026-05-02T09:10:58.673Z</time></trkpt><trkpt lat="42.2201367" lon="13.8358683"><ele>531.8333333333333</ele><time>2026-05-02T09:10:59.673Z</time></trkpt><trkpt lat="42.22015" lon="13.8357767"><ele>536.0</ele><time>2026-05-02T09:11:01.672Z</time></trkpt><trkpt lat="42.22005" lon="13.8357967"><ele>536.0</ele><time>2026-05-02T09:11:03.673Z</time></trkpt><trkpt lat="42.2199717" lon="13.835865"><ele>536.0</ele><time>2026-05-02T09:11:04.673Z</time></trkpt><trkpt lat="42.2198883" lon="13.83596"><ele>536.0</ele><time>2026-05-02T09:11:05.672Z</time></trkpt><trkpt lat="42.2198033" lon="13.83607"><ele>536.0</ele><time>2026-05-02T09:11:06.673Z</time></trkpt><trkpt lat="42.2197283" lon="13.83619"><ele>536.0</ele><time>2026-05-02T09:11:07.673Z</time></trkpt><trkpt lat="42.2196567" lon="13.8363133"><ele>533.25</ele><time>2026-05-02T09:11:08.673Z</time></trkpt><trkpt lat="42.2195833" lon="13.8364367"><ele>530.5</ele><time>2026-05-02T09:11:09.672Z</time></trkpt><trkpt lat="42.2195133" lon="13.8365683"><ele>527.75</ele><time>2026-05-02T09:11:10.672Z</time></trkpt><trkpt lat="42.21945" lon="13.83671"><ele>525.0</ele><time>2026-05-02T09:11:11.673Z</time></trkpt><trkpt lat="42.219385" lon="13.8368467"><ele>525.0</ele><time>2026-05-02T09:11:12.673Z</time></trkpt><trkpt lat="42.2193233" lon="13.836985"><ele>525.0</ele><time>2026-05-02T09:11:13.673Z</time></trkpt><trkpt lat="42.2192567" lon="13.83713"><ele>525.0</ele><time>2026-05-02T09:11:14.673Z</time></trkpt><trkpt lat="42.2192" lon="13.837275"><ele>525.0</ele><time>2026-05-02T09:11:15.673Z</time></trkpt><trkpt lat="42.2191433" lon="13.8374183"><ele>525.0</ele><time>2026-05-02T09:11:16.673Z</time></trkpt><trkpt lat="42.219095" lon="13.8375733"><ele>525.0</ele><time>2026-05-02T09:11:17.672Z</time></trkpt><trkpt lat="42.2190617" lon="13.8377367"><ele>525.0</ele><time>2026-05-02T09:11:18.672Z</time></trkpt><trkpt lat="42.2190433" lon="13.8379033"><ele>525.0</ele><time>2026-05-02T09:11:19.672Z</time></trkpt><trkpt lat="42.2190233" lon="13.8380517"><ele>526.8</ele><time>2026-05-02T09:11:20.672Z</time></trkpt><trkpt lat="42.2190133" lon="13.838185"><ele>528.6</ele><time>2026-05-02T09:11:21.673Z</time></trkpt><trkpt lat="42.2189917" lon="13.8383067"><ele>530.4</ele><time>2026-05-02T09:11:22.672Z</time></trkpt><trkpt lat="42.2189517" lon="13.8384033"><ele>532.2</ele><time>2026-05-02T09:11:23.673Z</time></trkpt><trkpt lat="42.2188917" lon="13.8384917"><ele>534.0</ele><time>2026-05-02T09:11:24.672Z</time></trkpt><trkpt lat="42.218815" lon="13.8385767"><ele>526.75</ele><time>2026-05-02T09:11:25.672Z</time></trkpt><trkpt lat="42.21872" lon="13.8386617"><ele>519.5</ele><time>2026-05-02T09:11:26.672Z</time></trkpt><trkpt lat="42.218615" lon="13.8387633"><ele>512.25</ele><time>2026-05-02T09:11:27.673Z</time></trkpt><trkpt lat="42.2185067" lon="13.8388883"><ele>505.0</ele><time>2026-05-02T09:11:28.672Z</time></trkpt><trkpt lat="42.2184017" lon="13.839025"><ele>505.0</ele><time>2026-05-02T09:11:29.672Z</time></trkpt><trkpt lat="42.2183083" lon="13.8391633"><ele>505.0</ele><time>2026-05-02T09:11:30.672Z</time></trkpt><trkpt lat="42.2182117" lon="13.839305"><ele>505.0</ele><time>2026-05-02T09:11:31.673Z</time></trkpt><trkpt lat="42.218105" lon="13.8394417"><ele>505.0</ele><time>2026-05-02T09:11:32.673Z</time></trkpt><trkpt lat="42.2179933" lon="13.83957"><ele>501.5</ele><time>2026-05-02T09:11:33.673Z</time></trkpt><trkpt lat="42.2178867" lon="13.8397"><ele>498.0</ele><time>2026-05-02T09:11:34.673Z</time></trkpt><trkpt lat="42.2177817" lon="13.8398233"><ele>494.5</ele><time>2026-05-02T09:11:35.673Z</time></trkpt><trkpt lat="42.217665" lon="13.8399433"><ele>491.0</ele><time>2026-05-02T09:11:36.672Z</time></trkpt><trkpt lat="42.21755" lon="13.8400567"><ele>488.25</ele><time>2026-05-02T09:11:37.673Z</time></trkpt><trkpt lat="42.21743" lon="13.8401667"><ele>485.5</ele><time>2026-05-02T09:11:38.672Z</time></trkpt><trkpt lat="42.217305" lon="13.8402833"><ele>482.75</ele><time>2026-05-02T09:11:39.673Z</time></trkpt><trkpt lat="42.2171833" lon="13.840395"><ele>480.0</ele><time>2026-05-02T09:11:40.673Z</time></trkpt><trkpt lat="42.21707" lon="13.8405017"><ele>480.0</ele><time>2026-05-02T09:11:41.673Z</time></trkpt><trkpt lat="42.2169633" lon="13.840585"><ele>480.0</ele><time>2026-05-02T09:11:42.673Z</time></trkpt><trkpt lat="42.2168583" lon="13.8406567"><ele>480.0</ele><time>2026-05-02T09:11:43.672Z</time></trkpt><trkpt lat="42.2167683" lon="13.8407217"><ele>480.0</ele><time>2026-05-02T09:11:44.672Z</time></trkpt><trkpt lat="42.216685" lon="13.8407783"><ele>480.0</ele><time>2026-05-02T09:11:45.673Z</time></trkpt><trkpt lat="42.2166167" lon="13.8408267"><ele>480.0</ele><time>2026-05-02T09:11:46.673Z</time></trkpt><trkpt lat="42.2165433" lon="13.8408617"><ele>480.0</ele><time>2026-05-02T09:11:47.672Z</time></trkpt><trkpt lat="42.2164617" lon="13.8409"><ele>480.0</ele><time>2026-05-02T09:11:48.673Z</time></trkpt><trkpt lat="42.2163667" lon="13.8409517"><ele>480.0</ele><time>2026-05-02T09:11:49.672Z</time></trkpt><trkpt lat="42.2162583" lon="13.8410183"><ele>480.0</ele><time>2026-05-02T09:11:50.673Z</time></trkpt><trkpt lat="42.2161583" lon="13.8410817"><ele>477.5</ele><time>2026-05-02T09:11:51.673Z</time></trkpt><trkpt lat="42.216055" lon="13.8411433"><ele>475.0</ele><time>2026-05-02T09:11:52.672Z</time></trkpt><trkpt lat="42.2159483" lon="13.841195"><ele>472.5</ele><time>2026-05-02T09:11:53.672Z</time></trkpt><trkpt lat="42.2158367" lon="13.8412333"><ele>470.0</ele><time>2026-05-02T09:11:54.673Z</time></trkpt><trkpt lat="42.2157283" lon="13.841255"><ele>466.3333333333333</ele><time>2026-05-02T09:11:55.673Z</time></trkpt><trkpt lat="42.215625" lon="13.84127"><ele>462.66666666666663</ele><time>2026-05-02T09:11:56.673Z</time></trkpt><trkpt lat="42.2155433" lon="13.8412567"><ele>459.0</ele><time>2026-05-02T09:11:57.672Z</time></trkpt><trkpt lat="42.2154667" lon="13.8412267"><ele>455.33333333333337</ele><time>2026-05-02T09:11:58.673Z</time></trkpt><trkpt lat="42.2154" lon="13.8411683"><ele>451.6666666666667</ele><time>2026-05-02T09:11:59.672Z</time></trkpt><trkpt lat="42.2153417" lon="13.8410567"><ele>448.0</ele><time>2026-05-02T09:12:00.673Z</time></trkpt><trkpt lat="42.2152933" lon="13.84092"><ele>446.59999999999997</ele><time>2026-05-02T09:12:01.673Z</time></trkpt><trkpt lat="42.21524" lon="13.840775"><ele>445.19999999999993</ele><time>2026-05-02T09:12:02.673Z</time></trkpt><trkpt lat="42.2151933" lon="13.8406417"><ele>443.8</ele><time>2026-05-02T09:12:03.673Z</time></trkpt><trkpt lat="42.2151633" lon="13.8405283"><ele>442.4</ele><time>2026-05-02T09:12:04.672Z</time></trkpt><trkpt lat="42.2151533" lon="13.8404217"><ele>441.0</ele><time>2026-05-02T09:12:05.673Z</time></trkpt><trkpt lat="42.2151733" lon="13.8403233"><ele>441.0</ele><time>2026-05-02T09:12:06.672Z</time></trkpt><trkpt lat="42.21522" lon="13.84024"><ele>441.0</ele><time>2026-05-02T09:12:07.673Z</time></trkpt><trkpt lat="42.2153083" lon="13.8401483"><ele>441.0</ele><time>2026-05-02T09:12:08.673Z</time></trkpt><trkpt lat="42.215415" lon="13.8400467"><ele>441.0</ele><time>2026-05-02T09:12:09.673Z</time></trkpt><trkpt lat="42.2155283" lon="13.8399533"><ele>440.5</ele><time>2026-05-02T09:12:10.673Z</time></trkpt><trkpt lat="42.2156317" lon="13.8398567"><ele>440.0</ele><time>2026-05-02T09:12:11.673Z</time></trkpt><trkpt lat="42.21572" lon="13.8397533"><ele>439.5</ele><time>2026-05-02T09:12:12.673Z</time></trkpt><trkpt lat="42.2157967" lon="13.8396483"><ele>439.0</ele><time>2026-05-02T09:12:13.673Z</time></trkpt><trkpt lat="42.2158617" lon="13.8395333"><ele>437.75</ele><time>2026-05-02T09:12:14.672Z</time></trkpt><trkpt lat="42.21592" lon="13.839415"><ele>436.5</ele><time>2026-05-02T09:12:15.673Z</time></trkpt><trkpt lat="42.2159817" lon="13.839285"><ele>435.25</ele><time>2026-05-02T09:12:16.672Z</time></trkpt><trkpt lat="42.21604" lon="13.8391417"><ele>434.0</ele><time>2026-05-02T09:12:17.672Z</time></trkpt><trkpt lat="42.2161083" lon="13.8389983"><ele>434.0</ele><time>2026-05-02T09:12:18.672Z</time></trkpt><trkpt lat="42.2161683" lon="13.8388433"><ele>434.0</ele><time>2026-05-02T09:12:19.673Z</time></trkpt><trkpt lat="42.216225" lon="13.838685"><ele>434.0</ele><time>2026-05-02T09:12:20.672Z</time></trkpt><trkpt lat="42.2162733" lon="13.8385267"><ele>434.0</ele><time>2026-05-02T09:12:21.672Z</time></trkpt><trkpt lat="42.21633" lon="13.83836"><ele>433.75</ele><time>2026-05-02T09:12:22.672Z</time></trkpt><trkpt lat="42.2163767" lon="13.8381933"><ele>433.5</ele><time>2026-05-02T09:12:23.673Z</time></trkpt><trkpt lat="42.21642" lon="13.8380167"><ele>433.25</ele><time>2026-05-02T09:12:24.672Z</time></trkpt><trkpt lat="42.2164567" lon="13.83784"><ele>433.0</ele><time>2026-05-02T09:12:25.672Z</time></trkpt><trkpt lat="42.2164967" lon="13.8376633"><ele>430.5</ele><time>2026-05-02T09:12:26.673Z</time></trkpt><trkpt lat="42.216535" lon="13.8374933"><ele>428.0</ele><time>2026-05-02T09:12:27.672Z</time></trkpt><trkpt lat="42.2165883" lon="13.83732"><ele>425.5</ele><time>2026-05-02T09:12:28.673Z</time></trkpt><trkpt lat="42.2166233" lon="13.8371533"><ele>423.0</ele><time>2026-05-02T09:12:29.672Z</time></trkpt><trkpt lat="42.2166567" lon="13.8369833"><ele>423.0</ele><time>2026-05-02T09:12:30.673Z</time></trkpt><trkpt lat="42.216695" lon="13.8368167"><ele>423.0</ele><time>2026-05-02T09:12:31.673Z</time></trkpt><trkpt lat="42.2167417" lon="13.836645"><ele>423.0</ele><time>2026-05-02T09:12:32.672Z</time></trkpt><trkpt lat="42.2167967" lon="13.836475"><ele>423.0</ele><time>2026-05-02T09:12:33.673Z</time></trkpt><trkpt lat="42.216865" lon="13.8362917"><ele>419.0</ele><time>2026-05-02T09:12:34.672Z</time></trkpt><trkpt lat="42.216945" lon="13.8361117"><ele>415.0</ele><time>2026-05-02T09:12:35.672Z</time></trkpt><trkpt lat="42.21703" lon="13.835935"><ele>411.0</ele><time>2026-05-02T09:12:36.673Z</time></trkpt><trkpt lat="42.2171233" lon="13.8357533"><ele>411.0</ele><time>2026-05-02T09:12:37.673Z</time></trkpt><trkpt lat="42.21722" lon="13.835585"><ele>411.0</ele><time>2026-05-02T09:12:38.672Z</time></trkpt><trkpt lat="42.21731" lon="13.8354283"><ele>411.0</ele><time>2026-05-02T09:12:39.672Z</time></trkpt><trkpt lat="42.2173883" lon="13.8352867"><ele>411.0</ele><time>2026-05-02T09:12:40.673Z</time></trkpt><trkpt lat="42.2174583" lon="13.8351633"><ele>408.6</ele><time>2026-05-02T09:12:41.672Z</time></trkpt><trkpt lat="42.21752" lon="13.835045"><ele>406.20000000000005</ele><time>2026-05-02T09:12:42.672Z</time></trkpt><trkpt lat="42.2175667" lon="13.8349233"><ele>403.79999999999995</ele><time>2026-05-02T09:12:43.672Z</time></trkpt><trkpt lat="42.217585" lon="13.83479"><ele>401.4</ele><time>2026-05-02T09:12:44.673Z</time></trkpt><trkpt lat="42.2175867" lon="13.834635"><ele>399.0</ele><time>2026-05-02T09:12:45.673Z</time></trkpt><trkpt lat="42.21757" lon="13.8344517"><ele>396.33333333333337</ele><time>2026-05-02T09:12:46.673Z</time></trkpt><trkpt lat="42.217545" lon="13.8342417"><ele>393.6666666666667</ele><time>2026-05-02T09:12:47.672Z</time></trkpt><trkpt lat="42.2175133" lon="13.8340283"><ele>391.0</ele><time>2026-05-02T09:12:48.672Z</time></trkpt><trkpt lat="42.2174917" lon="13.8338117"><ele>391.0</ele><time>2026-05-02T09:12:49.672Z</time></trkpt><trkpt lat="42.2174733" lon="13.8336033"><ele>391.0</ele><time>2026-05-02T09:12:50.673Z</time></trkpt><trkpt lat="42.2174533" lon="13.8333983"><ele>391.0</ele><time>2026-05-02T09:12:51.673Z</time></trkpt><trkpt lat="42.2174333" lon="13.8331933"><ele>389.0</ele><time>2026-05-02T09:12:52.673Z</time></trkpt><trkpt lat="42.217425" lon="13.832995"><ele>387.0</ele><time>2026-05-02T09:12:53.673Z</time></trkpt><trkpt lat="42.21743" lon="13.832795"><ele>385.0</ele><time>2026-05-02T09:12:54.672Z</time></trkpt><trkpt lat="42.2174467" lon="13.8325967"><ele>383.0</ele><time>2026-05-02T09:12:55.673Z</time></trkpt><trkpt lat="42.2174667" lon="13.83239"><ele>380.6666666666667</ele><time>2026-05-02T09:12:56.673Z</time></trkpt><trkpt lat="42.217485" lon="13.8321817"><ele>378.3333333333333</ele><time>2026-05-02T09:12:57.672Z</time></trkpt><trkpt lat="42.2175" lon="13.8319733"><ele>376.0</ele><time>2026-05-02T09:12:58.673Z</time></trkpt><trkpt lat="42.2175167" lon="13.8317683"><ele>375.0</ele><time>2026-05-02T09:12:59.673Z</time></trkpt><trkpt lat="42.2175367" lon="13.8315783"><ele>374.0</ele><time>2026-05-02T09:13:00.672Z</time></trkpt><trkpt lat="42.2175583" lon="13.8313883"><ele>373.0</ele><time>2026-05-02T09:13:01.672Z</time></trkpt><trkpt lat="42.2175867" lon="13.83121"><ele>372.0</ele><time>2026-05-02T09:13:02.673Z</time></trkpt><trkpt lat="42.2176233" lon="13.8310317"><ele>371.25</ele><time>2026-05-02T09:13:03.672Z</time></trkpt><trkpt lat="42.2176717" lon="13.8308633"><ele>370.5</ele><time>2026-05-02T09:13:04.673Z</time></trkpt><trkpt lat="42.2177183" lon="13.8307117"><ele>369.75</ele><time>2026-05-02T09:13:05.673Z</time></trkpt><trkpt lat="42.2177633" lon="13.83057"><ele>369.0</ele><time>2026-05-02T09:13:06.672Z</time></trkpt><trkpt lat="42.2178033" lon="13.83045"><ele>369.0</ele><time>2026-05-02T09:13:07.673Z</time></trkpt><trkpt lat="42.2178467" lon="13.8303483"><ele>369.0</ele><time>2026-05-02T09:13:08.673Z</time></trkpt><trkpt lat="42.2178933" lon="13.83024"><ele>369.0</ele><time>2026-05-02T09:13:09.672Z</time></trkpt><trkpt lat="42.2179383" lon="13.8301167"><ele>369.0</ele><time>2026-05-02T09:13:10.672Z</time></trkpt><trkpt lat="42.2179833" lon="13.8299817"><ele>369.0</ele><time>2026-05-02T09:13:11.673Z</time></trkpt><trkpt lat="42.2180217" lon="13.829835"><ele>367.75</ele><time>2026-05-02T09:13:12.673Z</time></trkpt><trkpt lat="42.21805" lon="13.8296767"><ele>366.5</ele><time>2026-05-02T09:13:13.672Z</time></trkpt><trkpt lat="42.2180517" lon="13.829515"><ele>365.25</ele><time>2026-05-02T09:13:14.673Z</time></trkpt><trkpt lat="42.21804" lon="13.829355"><ele>364.0</ele><time>2026-05-02T09:13:15.672Z</time></trkpt><trkpt lat="42.2180283" lon="13.829195"><ele>363.25</ele><time>2026-05-02T09:13:16.673Z</time></trkpt><trkpt lat="42.21801" lon="13.8290317"><ele>362.5</ele><time>2026-05-02T09:13:17.672Z</time></trkpt><trkpt lat="42.2179933" lon="13.8288683"><ele>361.75</ele><time>2026-05-02T09:13:18.673Z</time></trkpt><trkpt lat="42.2179783" lon="13.8287017"><ele>361.0</ele><time>2026-05-02T09:13:19.672Z</time></trkpt><trkpt lat="42.2179617" lon="13.8285317"><ele>359.75</ele><time>2026-05-02T09:13:20.673Z</time></trkpt><trkpt lat="42.21795" lon="13.8283617"><ele>358.5</ele><time>2026-05-02T09:13:21.673Z</time></trkpt><trkpt lat="42.2179333" lon="13.8281817"><ele>357.25</ele><time>2026-05-02T09:13:22.673Z</time></trkpt><trkpt lat="42.2179233" lon="13.8280067"><ele>356.0</ele><time>2026-05-02T09:13:23.673Z</time></trkpt><trkpt lat="42.2179183" lon="13.82784"><ele>356.0</ele><time>2026-05-02T09:13:24.673Z</time></trkpt><trkpt lat="42.2179067" lon="13.8276683"><ele>356.0</ele><time>2026-05-02T09:13:25.673Z</time></trkpt><trkpt lat="42.2179017" lon="13.8274983"><ele>356.0</ele><time>2026-05-02T09:13:26.673Z</time></trkpt><trkpt lat="42.2178983" lon="13.8273283"><ele>356.0</ele><time>2026-05-02T09:13:27.672Z</time></trkpt><trkpt lat="42.217895" lon="13.8271683"><ele>354.6</ele><time>2026-05-02T09:13:28.673Z</time></trkpt><trkpt lat="42.2178983" lon="13.8270317"><ele>353.20000000000005</ele><time>2026-05-02T09:13:29.672Z</time></trkpt><trkpt lat="42.2178867" lon="13.82692"><ele>351.79999999999995</ele><time>2026-05-02T09:13:30.673Z</time></trkpt><trkpt lat="42.21786" lon="13.826835"><ele>350.4</ele><time>2026-05-02T09:13:31.673Z</time></trkpt><trkpt lat="42.21776" lon="13.82672"><ele>349.0</ele><time>2026-05-02T09:13:33.673Z</time></trkpt><trkpt lat="42.2176917" lon="13.8266567"><ele>347.6</ele><time>2026-05-02T09:13:34.673Z</time></trkpt><trkpt lat="42.21761" lon="13.8265933"><ele>346.2</ele><time>2026-05-02T09:13:35.672Z</time></trkpt><trkpt lat="42.2175333" lon="13.8265317"><ele>344.8</ele><time>2026-05-02T09:13:36.673Z</time></trkpt><trkpt lat="42.21746" lon="13.826495"><ele>343.40000000000003</ele><time>2026-05-02T09:13:37.673Z</time></trkpt><trkpt lat="42.21738" lon="13.82641"><ele>342.0</ele><time>2026-05-02T09:13:39.673Z</time></trkpt><trkpt lat="42.2173783" lon="13.8262883"><ele>342.0</ele><time>2026-05-02T09:13:41.673Z</time></trkpt><trkpt lat="42.217445" lon="13.826135"><ele>342.0</ele><time>2026-05-02T09:13:43.672Z</time></trkpt><trkpt lat="42.2175133" lon="13.82604"><ele>342.0</ele><time>2026-05-02T09:13:44.673Z</time></trkpt><trkpt lat="42.2175833" lon="13.8259417"><ele>342.0</ele><time>2026-05-02T09:13:45.672Z</time></trkpt><trkpt lat="42.217655" lon="13.8258433"><ele>342.0</ele><time>2026-05-02T09:13:46.673Z</time></trkpt><trkpt lat="42.2177117" lon="13.8257433"><ele>339.8</ele><time>2026-05-02T09:13:47.672Z</time></trkpt><trkpt lat="42.2177617" lon="13.8256267"><ele>337.6</ele><time>2026-05-02T09:13:48.673Z</time></trkpt><trkpt lat="42.2177833" lon="13.8255167"><ele>335.40000000000003</ele><time>2026-05-02T09:13:49.672Z</time></trkpt><trkpt lat="42.21778" lon="13.825405"><ele>333.20000000000005</ele><time>2026-05-02T09:13:50.672Z</time></trkpt><trkpt lat="42.2177367" lon="13.8252983"><ele>331.0</ele><time>2026-05-02T09:13:51.673Z</time></trkpt><trkpt lat="42.21767" lon="13.825205"><ele>331.0</ele><time>2026-05-02T09:13:52.672Z</time></trkpt><trkpt lat="42.2175883" lon="13.8251517"><ele>331.0</ele><time>2026-05-02T09:13:53.673Z</time></trkpt><trkpt lat="42.21749" lon="13.8251217"><ele>331.0</ele><time>2026-05-02T09:13:54.673Z</time></trkpt><trkpt lat="42.21739" lon="13.8250983"><ele>331.0</ele><time>2026-05-02T09:13:55.673Z</time></trkpt><trkpt lat="42.2173" lon="13.8250633"><ele>331.0</ele><time>2026-05-02T09:13:56.672Z</time></trkpt><trkpt lat="42.21723" lon="13.8250433"><ele>329.20000000000005</ele><time>2026-05-02T09:13:57.673Z</time></trkpt><trkpt lat="42.2171583" lon="13.8249933"><ele>327.40000000000003</ele><time>2026-05-02T09:13:58.672Z</time></trkpt><trkpt lat="42.2170883" lon="13.8249183"><ele>325.6</ele><time>2026-05-02T09:13:59.673Z</time></trkpt><trkpt lat="42.2170083" lon="13.8248117"><ele>323.8</ele><time>2026-05-02T09:14:00.673Z</time></trkpt><trkpt lat="42.2169333" lon="13.82467"><ele>322.0</ele><time>2026-05-02T09:14:01.672Z</time></trkpt><trkpt lat="42.2168683" lon="13.824515"><ele>322.0</ele><time>2026-05-02T09:14:02.671Z</time></trkpt><trkpt lat="42.2168033" lon="13.82436"><ele>322.0</ele><time>2026-05-02T09:14:03.671Z</time></trkpt><trkpt lat="42.216735" lon="13.824195"><ele>322.0</ele><time>2026-05-02T09:14:04.672Z</time></trkpt><trkpt lat="42.2166667" lon="13.8240267"><ele>322.0</ele><time>2026-05-02T09:14:05.671Z</time></trkpt><trkpt lat="42.2166" lon="13.82386"><ele>321.25</ele><time>2026-05-02T09:14:06.672Z</time></trkpt><trkpt lat="42.2165333" lon="13.8237017"><ele>320.5</ele><time>2026-05-02T09:14:07.672Z</time></trkpt><trkpt lat="42.2164733" lon="13.823555"><ele>319.75</ele><time>2026-05-02T09:14:08.671Z</time></trkpt><trkpt lat="42.216415" lon="13.8234167"><ele>319.0</ele><time>2026-05-02T09:14:09.672Z</time></trkpt><trkpt lat="42.2163567" lon="13.82328"><ele>318.2</ele><time>2026-05-02T09:14:10.672Z</time></trkpt><trkpt lat="42.2163067" lon="13.823145"><ele>317.4</ele><time>2026-05-02T09:14:11.672Z</time></trkpt><trkpt lat="42.2162533" lon="13.8230183"><ele>316.6</ele><time>2026-05-02T09:14:12.671Z</time></trkpt><trkpt lat="42.2162" lon="13.82289"><ele>315.8</ele><time>2026-05-02T09:14:13.672Z</time></trkpt><trkpt lat="42.216145" lon="13.8227633"><ele>315.0</ele><time>2026-05-02T09:14:14.672Z</time></trkpt><trkpt lat="42.2160833" lon="13.8226383"><ele>315.0</ele><time>2026-05-02T09:14:15.672Z</time></trkpt><trkpt lat="42.2160167" lon="13.82252"><ele>315.0</ele><time>2026-05-02T09:14:16.672Z</time></trkpt><trkpt lat="42.215945" lon="13.822415"><ele>315.0</ele><time>2026-05-02T09:14:17.671Z</time></trkpt><trkpt lat="42.2158633" lon="13.82234"><ele>315.0</ele><time>2026-05-02T09:14:18.672Z</time></trkpt><trkpt lat="42.2157733" lon="13.8222933"><ele>315.0</ele><time>2026-05-02T09:14:19.672Z</time></trkpt><trkpt lat="42.215675" lon="13.8222867"><ele>315.5</ele><time>2026-05-02T09:14:20.672Z</time></trkpt><trkpt lat="42.21557" lon="13.8222967"><ele>316.0</ele><time>2026-05-02T09:14:21.671Z</time></trkpt><trkpt lat="42.2154533" lon="13.82234"><ele>316.5</ele><time>2026-05-02T09:14:22.671Z</time></trkpt><trkpt lat="42.21534" lon="13.8223917"><ele>317.0</ele><time>2026-05-02T09:14:23.672Z</time></trkpt><trkpt lat="42.2152317" lon="13.8224533"><ele>317.0</ele><time>2026-05-02T09:14:24.672Z</time></trkpt><trkpt lat="42.215125" lon="13.82252"><ele>317.0</ele><time>2026-05-02T09:14:25.671Z</time></trkpt><trkpt lat="42.2150267" lon="13.8225817"><ele>317.0</ele><time>2026-05-02T09:14:26.671Z</time></trkpt><trkpt lat="42.2149283" lon="13.8226317"><ele>317.0</ele><time>2026-05-02T09:14:27.672Z</time></trkpt><trkpt lat="42.2148317" lon="13.8226767"><ele>317.0</ele><time>2026-05-02T09:14:28.672Z</time></trkpt><trkpt lat="42.21474" lon="13.8227233"><ele>317.0</ele><time>2026-05-02T09:14:29.672Z</time></trkpt><trkpt lat="42.2146567" lon="13.8227583"><ele>317.0</ele><time>2026-05-02T09:14:30.672Z</time></trkpt><trkpt lat="42.2145783" lon="13.8227783"><ele>317.0</ele><time>2026-05-02T09:14:31.672Z</time></trkpt><trkpt lat="42.2144967" lon="13.8227683"><ele>317.0</ele><time>2026-05-02T09:14:32.672Z</time></trkpt><trkpt lat="42.214425" lon="13.8227383"><ele>317.0</ele><time>2026-05-02T09:14:33.671Z</time></trkpt><trkpt lat="42.2143667" lon="13.82269"><ele>317.0</ele><time>2026-05-02T09:14:34.671Z</time></trkpt><trkpt lat="42.2142783" lon="13.8226083"><ele>317.0</ele><time>2026-05-02T09:14:36.672Z</time></trkpt><trkpt lat="42.214205" lon="13.8224933"><ele>317.0</ele><time>2026-05-02T09:14:38.672Z</time></trkpt><trkpt lat="42.214165" lon="13.8224233"><ele>317.0</ele><time>2026-05-02T09:14:39.672Z</time></trkpt><trkpt lat="42.2141017" lon="13.8223083"><ele>317.0</ele><time>2026-05-02T09:14:41.672Z</time></trkpt><trkpt lat="42.21406" lon="13.8221833"><ele>317.0</ele><time>2026-05-02T09:14:43.672Z</time></trkpt><trkpt lat="42.214065" lon="13.8220583"><ele>317.0</ele><time>2026-05-02T09:14:45.671Z</time></trkpt><trkpt lat="42.2141417" lon="13.8219517"><ele>317.0</ele><time>2026-05-02T09:14:47.672Z</time></trkpt><trkpt lat="42.2142" lon="13.82189"><ele>317.0</ele><time>2026-05-02T09:14:48.672Z</time></trkpt><trkpt lat="42.2142617" lon="13.8218133"><ele>317.0</ele><time>2026-05-02T09:14:49.671Z</time></trkpt><trkpt lat="42.21433" lon="13.82172"><ele>317.0</ele><time>2026-05-02T09:14:50.671Z</time></trkpt><trkpt lat="42.2144033" lon="13.821625"><ele>317.33333333333337</ele><time>2026-05-02T09:14:51.671Z</time></trkpt><trkpt lat="42.2144717" lon="13.8215367"><ele>317.6666666666667</ele><time>2026-05-02T09:14:52.671Z</time></trkpt><trkpt lat="42.2145283" lon="13.8214533"><ele>318.0</ele><time>2026-05-02T09:14:53.671Z</time></trkpt><trkpt lat="42.2145767" lon="13.8213767"><ele>318.3333333333333</ele><time>2026-05-02T09:14:54.672Z</time></trkpt><trkpt lat="42.2146433" lon="13.8213"><ele>318.66666666666663</ele><time>2026-05-02T09:14:55.671Z</time></trkpt><trkpt lat="42.2147167" lon="13.821195"><ele>319.0</ele><time>2026-05-02T09:14:56.671Z</time></trkpt><trkpt lat="42.2147933" lon="13.8210867"><ele>319.0</ele><time>2026-05-02T09:14:57.671Z</time></trkpt><trkpt lat="42.214865" lon="13.82099"><ele>319.0</ele><time>2026-05-02T09:14:58.672Z</time></trkpt><trkpt lat="42.2149217" lon="13.8208883"><ele>319.0</ele><time>2026-05-02T09:14:59.672Z</time></trkpt><trkpt lat="42.2149617" lon="13.820805"><ele>319.0</ele><time>2026-05-02T09:15:00.672Z</time></trkpt><trkpt lat="42.2149933" lon="13.82067"><ele>319.0</ele><time>2026-05-02T09:15:02.671Z</time></trkpt><trkpt lat="42.2149867" lon="13.8205683"><ele>319.0</ele><time>2026-05-02T09:15:05.672Z</time></trkpt><trkpt lat="42.2149383" lon="13.820485"><ele>319.0</ele><time>2026-05-02T09:15:09.671Z</time></trkpt><trkpt lat="42.2150067" lon="13.8204933"><ele>319.0</ele><time>2026-05-02T09:17:23.671Z</time></trkpt><trkpt lat="42.21513" lon="13.8204117"><ele>319.0</ele><time>2026-05-02T09:20:14.671Z</time></trkpt><trkpt lat="42.215195" lon="13.8203383"><ele>319.0</ele><time>2026-05-02T09:25:30.669Z</time></trkpt><trkpt lat="42.2152633" lon="13.8202933"><ele>319.0</ele><time>2026-05-02T09:25:32.668Z</time></trkpt><trkpt lat="42.2153217" lon="13.8202517"><ele>319.0</ele><time>2026-05-02T09:25:33.668Z</time></trkpt><trkpt lat="42.21539" lon="13.8201817"><ele>319.0</ele><time>2026-05-02T09:25:34.669Z</time></trkpt><trkpt lat="42.21546" lon="13.82009"><ele>319.0</ele><time>2026-05-02T09:25:35.669Z</time></trkpt><trkpt lat="42.2155383" lon="13.8199867"><ele>319.0</ele><time>2026-05-02T09:25:36.668Z</time></trkpt><trkpt lat="42.2156217" lon="13.8198633"><ele>319.0</ele><time>2026-05-02T09:25:37.668Z</time></trkpt><trkpt lat="42.2157117" lon="13.8197317"><ele>319.0</ele><time>2026-05-02T09:25:38.668Z</time></trkpt><trkpt lat="42.215805" lon="13.8195933"><ele>319.0</ele><time>2026-05-02T09:25:39.668Z</time></trkpt><trkpt lat="42.2158917" lon="13.81946"><ele>319.0</ele><time>2026-05-02T09:25:40.669Z</time></trkpt><trkpt lat="42.215985" lon="13.819325"><ele>319.0</ele><time>2026-05-02T09:25:41.669Z</time></trkpt><trkpt lat="42.2160617" lon="13.819205"><ele>319.2</ele><time>2026-05-02T09:25:42.669Z</time></trkpt><trkpt lat="42.2161317" lon="13.8190967"><ele>319.4</ele><time>2026-05-02T09:25:43.669Z</time></trkpt><trkpt lat="42.2161917" lon="13.818995"><ele>319.6</ele><time>2026-05-02T09:25:44.668Z</time></trkpt><trkpt lat="42.2162283" lon="13.8188917"><ele>319.8</ele><time>2026-05-02T09:25:45.668Z</time></trkpt><trkpt lat="42.216245" lon="13.81878"><ele>320.0</ele><time>2026-05-02T09:25:46.669Z</time></trkpt><trkpt lat="42.2162367" lon="13.8186567"><ele>320.0</ele><time>2026-05-02T09:25:47.668Z</time></trkpt><trkpt lat="42.2162267" lon="13.818535"><ele>320.0</ele><time>2026-05-02T09:25:48.667Z</time></trkpt><trkpt lat="42.2162283" lon="13.8184233"><ele>320.0</ele><time>2026-05-02T09:25:49.667Z</time></trkpt><trkpt lat="42.21626" lon="13.818335"><ele>320.0</ele><time>2026-05-02T09:25:50.668Z</time></trkpt><trkpt lat="42.21631" lon="13.8182383"><ele>320.0</ele><time>2026-05-02T09:25:51.668Z</time></trkpt><trkpt lat="42.21638" lon="13.8181467"><ele>320.0</ele><time>2026-05-02T09:25:52.668Z</time></trkpt><trkpt lat="42.2164717" lon="13.8180417"><ele>319.5</ele><time>2026-05-02T09:25:53.668Z</time></trkpt><trkpt lat="42.2165817" lon="13.8179333"><ele>319.0</ele><time>2026-05-02T09:25:54.668Z</time></trkpt><trkpt lat="42.216705" lon="13.8178283"><ele>318.5</ele><time>2026-05-02T09:25:55.668Z</time></trkpt><trkpt lat="42.2168417" lon="13.8177183"><ele>318.0</ele><time>2026-05-02T09:25:56.667Z</time></trkpt><trkpt lat="42.2169967" lon="13.81763"><ele>318.3333333333333</ele><time>2026-05-02T09:25:57.668Z</time></trkpt><trkpt lat="42.2171583" lon="13.8175467"><ele>318.66666666666663</ele><time>2026-05-02T09:25:58.668Z</time></trkpt><trkpt lat="42.2173283" lon="13.8174667"><ele>319.0</ele><time>2026-05-02T09:25:59.667Z</time></trkpt><trkpt lat="42.2175017" lon="13.8174017"><ele>319.0</ele><time>2026-05-02T09:26:00.667Z</time></trkpt><trkpt lat="42.2176783" lon="13.8173567"><ele>319.0</ele><time>2026-05-02T09:26:01.668Z</time></trkpt><trkpt lat="42.21785" lon="13.8173267"><ele>319.0</ele><time>2026-05-02T09:26:02.668Z</time></trkpt><trkpt lat="42.2180233" lon="13.817295"><ele>318.66666666666663</ele><time>2026-05-02T09:26:03.668Z</time></trkpt><trkpt lat="42.218205" lon="13.8172617"><ele>318.3333333333333</ele><time>2026-05-02T09:26:04.668Z</time></trkpt><trkpt lat="42.2183817" lon="13.8172217"><ele>318.0</ele><time>2026-05-02T09:26:05.667Z</time></trkpt><trkpt lat="42.2185567" lon="13.8171867"><ele>318.0</ele><time>2026-05-02T09:26:06.668Z</time></trkpt><trkpt lat="42.21873" lon="13.8171517"><ele>318.0</ele><time>2026-05-02T09:26:07.667Z</time></trkpt><trkpt lat="42.218905" lon="13.8171217"><ele>318.0</ele><time>2026-05-02T09:26:08.668Z</time></trkpt><trkpt lat="42.2190883" lon="13.8170917"><ele>318.3333333333333</ele><time>2026-05-02T09:26:09.667Z</time></trkpt><trkpt lat="42.21927" lon="13.8170583"><ele>318.66666666666663</ele><time>2026-05-02T09:26:10.668Z</time></trkpt><trkpt lat="42.21945" lon="13.817035"><ele>319.0</ele><time>2026-05-02T09:26:11.667Z</time></trkpt><trkpt lat="42.2196333" lon="13.817025"><ele>318.66666666666663</ele><time>2026-05-02T09:26:12.668Z</time></trkpt><trkpt lat="42.2198233" lon="13.81703"><ele>318.3333333333333</ele><time>2026-05-02T09:26:13.667Z</time></trkpt><trkpt lat="42.220015" lon="13.8170517"><ele>318.0</ele><time>2026-05-02T09:26:14.667Z</time></trkpt><trkpt lat="42.220205" lon="13.81709"><ele>318.0</ele><time>2026-05-02T09:26:15.668Z</time></trkpt><trkpt lat="42.220405" lon="13.8171433"><ele>318.0</ele><time>2026-05-02T09:26:16.667Z</time></trkpt><trkpt lat="42.2206033" lon="13.8171983"><ele>318.0</ele><time>2026-05-02T09:26:17.667Z</time></trkpt><trkpt lat="42.22079" lon="13.81726"><ele>317.6666666666667</ele><time>2026-05-02T09:26:18.667Z</time></trkpt><trkpt lat="42.2209833" lon="13.8173133"><ele>317.33333333333337</ele><time>2026-05-02T09:26:19.668Z</time></trkpt><trkpt lat="42.2211617" lon="13.81736"><ele>317.0</ele><time>2026-05-02T09:26:20.667Z</time></trkpt><trkpt lat="42.221345" lon="13.817395"><ele>317.0</ele><time>2026-05-02T09:26:21.667Z</time></trkpt><trkpt lat="42.221525" lon="13.8174233"><ele>317.0</ele><time>2026-05-02T09:26:22.667Z</time></trkpt><trkpt lat="42.221705" lon="13.81744"><ele>317.0</ele><time>2026-05-02T09:26:23.668Z</time></trkpt><trkpt lat="42.2218867" lon="13.8174417"><ele>317.0</ele><time>2026-05-02T09:26:24.667Z</time></trkpt><trkpt lat="42.2220683" lon="13.81743"><ele>317.0</ele><time>2026-05-02T09:26:25.668Z</time></trkpt><trkpt lat="42.2222517" lon="13.8173983"><ele>317.0</ele><time>2026-05-02T09:26:26.667Z</time></trkpt><trkpt lat="42.222435" lon="13.8173417"><ele>318.0</ele><time>2026-05-02T09:26:27.667Z</time></trkpt><trkpt lat="42.2226233" lon="13.81727"><ele>319.0</ele><time>2026-05-02T09:26:28.668Z</time></trkpt><trkpt lat="42.2227933" lon="13.817195"><ele>320.0</ele><time>2026-05-02T09:26:29.667Z</time></trkpt><trkpt lat="42.222965" lon="13.81711"><ele>320.0</ele><time>2026-05-02T09:26:30.668Z</time></trkpt><trkpt lat="42.2231283" lon="13.8170067"><ele>320.0</ele><time>2026-05-02T09:26:31.668Z</time></trkpt><trkpt lat="42.2232817" lon="13.81689"><ele>320.0</ele><time>2026-05-02T09:26:32.667Z</time></trkpt><trkpt lat="42.223435" lon="13.816775"><ele>320.33333333333337</ele><time>2026-05-02T09:26:33.668Z</time></trkpt><trkpt lat="42.2235883" lon="13.8166483"><ele>320.6666666666667</ele><time>2026-05-02T09:26:34.668Z</time></trkpt><trkpt lat="42.2237467" lon="13.81652"><ele>321.0</ele><time>2026-05-02T09:26:35.668Z</time></trkpt><trkpt lat="42.2238967" lon="13.8163883"><ele>319.3333333333333</ele><time>2026-05-02T09:26:36.667Z</time></trkpt><trkpt lat="42.22405" lon="13.8162633"><ele>317.66666666666663</ele><time>2026-05-02T09:26:37.668Z</time></trkpt><trkpt lat="42.2241983" lon="13.8161417"><ele>316.0</ele><time>2026-05-02T09:26:38.667Z</time></trkpt><trkpt lat="42.2243433" lon="13.816015"><ele>317.3333333333333</ele><time>2026-05-02T09:26:39.668Z</time></trkpt><trkpt lat="42.2244883" lon="13.8159017"><ele>318.6666666666667</ele><time>2026-05-02T09:26:40.668Z</time></trkpt><trkpt lat="42.2246283" lon="13.8157967"><ele>320.0</ele><time>2026-05-02T09:26:41.668Z</time></trkpt><trkpt lat="42.22477" lon="13.8157067"><ele>319.0</ele><time>2026-05-02T09:26:42.667Z</time></trkpt><trkpt lat="42.2249233" lon="13.81561"><ele>318.0</ele><time>2026-05-02T09:26:43.668Z</time></trkpt><trkpt lat="42.2250817" lon="13.8155267"><ele>317.0</ele><time>2026-05-02T09:26:44.668Z</time></trkpt><trkpt lat="42.225245" lon="13.8154567"><ele>317.0</ele><time>2026-05-02T09:26:45.668Z</time></trkpt><trkpt lat="42.2254183" lon="13.8154017"><ele>317.0</ele><time>2026-05-02T09:26:46.668Z</time></trkpt><trkpt lat="42.2255967" lon="13.8153517"><ele>317.0</ele><time>2026-05-02T09:26:47.668Z</time></trkpt><trkpt lat="42.225775" lon="13.8153033"><ele>317.0</ele><time>2026-05-02T09:26:48.668Z</time></trkpt><trkpt lat="42.22595" lon="13.8152567"><ele>317.0</ele><time>2026-05-02T09:26:49.667Z</time></trkpt><trkpt lat="42.2261267" lon="13.8152067"><ele>317.0</ele><time>2026-05-02T09:26:50.667Z</time></trkpt><trkpt lat="42.2263067" lon="13.8151583"><ele>319.0</ele><time>2026-05-02T09:26:51.668Z</time></trkpt><trkpt lat="42.2264883" lon="13.8151033"><ele>321.0</ele><time>2026-05-02T09:26:52.667Z</time></trkpt><trkpt lat="42.2266667" lon="13.81506"><ele>323.0</ele><time>2026-05-02T09:26:53.668Z</time></trkpt><trkpt lat="42.2268467" lon="13.8150133"><ele>323.0</ele><time>2026-05-02T09:26:54.668Z</time></trkpt><trkpt lat="42.227025" lon="13.814975"><ele>323.0</ele><time>2026-05-02T09:26:55.668Z</time></trkpt><trkpt lat="42.2272017" lon="13.814935"><ele>323.0</ele><time>2026-05-02T09:26:56.668Z</time></trkpt><trkpt lat="42.22738" lon="13.814905"><ele>321.6666666666667</ele><time>2026-05-02T09:26:57.667Z</time></trkpt><trkpt lat="42.2275667" lon="13.8148733"><ele>320.3333333333333</ele><time>2026-05-02T09:26:58.668Z</time></trkpt><trkpt lat="42.2277533" lon="13.8148533"><ele>319.0</ele><time>2026-05-02T09:26:59.668Z</time></trkpt><trkpt lat="42.2279317" lon="13.814835"><ele>319.0</ele><time>2026-05-02T09:27:00.667Z</time></trkpt><trkpt lat="42.2281017" lon="13.814815"><ele>319.0</ele><time>2026-05-02T09:27:01.668Z</time></trkpt><trkpt lat="42.2282567" lon="13.8148"><ele>319.0</ele><time>2026-05-02T09:27:02.667Z</time></trkpt><trkpt lat="42.2283917" lon="13.8147867"><ele>319.0</ele><time>2026-05-02T09:27:03.668Z</time></trkpt><trkpt lat="42.2285067" lon="13.8147867"><ele>319.0</ele><time>2026-05-02T09:27:04.668Z</time></trkpt><trkpt lat="42.228615" lon="13.8148017"><ele>319.0</ele><time>2026-05-02T09:27:05.667Z</time></trkpt><trkpt lat="42.228715" lon="13.8148217"><ele>319.0</ele><time>2026-05-02T09:27:06.668Z</time></trkpt><trkpt lat="42.22881" lon="13.8148467"><ele>319.0</ele><time>2026-05-02T09:27:07.667Z</time></trkpt><trkpt lat="42.2289" lon="13.81488"><ele>319.4</ele><time>2026-05-02T09:27:08.668Z</time></trkpt><trkpt lat="42.228985" lon="13.814925"><ele>319.79999999999995</ele><time>2026-05-02T09:27:09.667Z</time></trkpt><trkpt lat="42.2290633" lon="13.8149733"><ele>320.20000000000005</ele><time>2026-05-02T09:27:10.667Z</time></trkpt><trkpt lat="42.229145" lon="13.8150217"><ele>320.6</ele><time>2026-05-02T09:27:11.667Z</time></trkpt><trkpt lat="42.2292167" lon="13.8150517"><ele>321.0</ele><time>2026-05-02T09:27:12.668Z</time></trkpt><trkpt lat="42.229325" lon="13.8150967"><ele>321.0</ele><time>2026-05-02T09:27:14.667Z</time></trkpt><trkpt lat="42.229395" lon="13.8151367"><ele>321.0</ele><time>2026-05-02T09:27:16.667Z</time></trkpt><trkpt lat="42.2294617" lon="13.815185"><ele>321.0</ele><time>2026-05-02T09:27:19.668Z</time></trkpt><trkpt lat="42.22953" lon="13.8152467"><ele>321.0</ele><time>2026-05-02T09:27:21.668Z</time></trkpt><trkpt lat="42.2296233" lon="13.8153683"><ele>321.0</ele><time>2026-05-02T09:27:23.668Z</time></trkpt><trkpt lat="42.2296817" lon="13.8154583"><ele>320.5</ele><time>2026-05-02T09:27:24.667Z</time></trkpt><trkpt lat="42.229735" lon="13.8155517"><ele>320.0</ele><time>2026-05-02T09:27:25.667Z</time></trkpt><trkpt lat="42.2297917" lon="13.8156433"><ele>319.5</ele><time>2026-05-02T09:27:26.667Z</time></trkpt><trkpt lat="42.2298417" lon="13.8157317"><ele>319.0</ele><time>2026-05-02T09:27:27.668Z</time></trkpt><trkpt lat="42.2298833" lon="13.8158133"><ele>318.5</ele><time>2026-05-02T09:27:28.667Z</time></trkpt><trkpt lat="42.2299183" lon="13.815885"><ele>318.0</ele><time>2026-05-02T09:27:29.668Z</time></trkpt><trkpt lat="42.2299517" lon="13.8160033"><ele>317.7142857142857</ele><time>2026-05-02T09:27:31.668Z</time></trkpt><trkpt lat="42.2299517" lon="13.81609"><ele>317.42857142857144</ele><time>2026-05-02T09:27:32.668Z</time></trkpt><trkpt lat="42.229945" lon="13.8161917"><ele>317.14285714285717</ele><time>2026-05-02T09:27:33.668Z</time></trkpt><trkpt lat="42.2299367" lon="13.8162917"><ele>316.8571428571429</ele><time>2026-05-02T09:27:34.668Z</time></trkpt><trkpt lat="42.2299267" lon="13.8163967"><ele>316.57142857142856</ele><time>2026-05-02T09:27:35.668Z</time></trkpt><trkpt lat="42.2299183" lon="13.8165083"><ele>316.28571428571433</ele><time>2026-05-02T09:27:36.667Z</time></trkpt><trkpt lat="42.2299167" lon="13.8165967"><ele>316.0</ele><time>2026-05-02T09:27:37.668Z</time></trkpt><trkpt lat="42.2299267" lon="13.8167267"><ele>315.5</ele><time>2026-05-02T09:27:39.667Z</time></trkpt><trkpt lat="42.2299433" lon="13.8168567"><ele>315.0</ele><time>2026-05-02T09:27:41.668Z</time></trkpt><trkpt lat="42.22997" lon="13.817035"><ele>314.5</ele><time>2026-05-02T09:27:43.668Z</time></trkpt><trkpt lat="42.2299917" lon="13.8171667"><ele>314.0</ele><time>2026-05-02T09:27:44.667Z</time></trkpt><trkpt lat="42.2300167" lon="13.8173267"><ele>314.0</ele><time>2026-05-02T09:27:45.667Z</time></trkpt><trkpt lat="42.2300333" lon="13.8174967"><ele>314.0</ele><time>2026-05-02T09:27:46.667Z</time></trkpt><trkpt lat="42.2300483" lon="13.8176817"><ele>314.0</ele><time>2026-05-02T09:27:47.668Z</time></trkpt><trkpt lat="42.2300667" lon="13.8178783"><ele>314.0</ele><time>2026-05-02T09:27:48.668Z</time></trkpt><trkpt lat="42.230075" lon="13.8180783"><ele>314.25</ele><time>2026-05-02T09:27:49.668Z</time></trkpt><trkpt lat="42.2300933" lon="13.8182733"><ele>314.5</ele><time>2026-05-02T09:27:50.667Z</time></trkpt><trkpt lat="42.2301033" lon="13.8184733"><ele>314.75</ele><time>2026-05-02T09:27:51.667Z</time></trkpt><trkpt lat="42.2301067" lon="13.8186633"><ele>315.0</ele><time>2026-05-02T09:27:52.668Z</time></trkpt><trkpt lat="42.23011" lon="13.8188433"><ele>315.0</ele><time>2026-05-02T09:27:53.668Z</time></trkpt><trkpt lat="42.2301167" lon="13.819015"><ele>315.0</ele><time>2026-05-02T09:27:54.668Z</time></trkpt><trkpt lat="42.2301233" lon="13.81917"><ele>315.0</ele><time>2026-05-02T09:27:55.668Z</time></trkpt><trkpt lat="42.230135" lon="13.8193167"><ele>315.0</ele><time>2026-05-02T09:27:56.667Z</time></trkpt><trkpt lat="42.2301367" lon="13.819445"><ele>315.0</ele><time>2026-05-02T09:27:57.668Z</time></trkpt><trkpt lat="42.2301417" lon="13.8195417"><ele>315.5</ele><time>2026-05-02T09:27:58.668Z</time></trkpt><trkpt lat="42.23015" lon="13.8196283"><ele>316.0</ele><time>2026-05-02T09:28:01.667Z</time></trkpt><trkpt lat="42.23023" lon="13.8196617"><ele>316.5</ele><time>2026-05-02T09:28:04.667Z</time></trkpt><trkpt lat="42.2302967" lon="13.8196483"><ele>317.0</ele><time>2026-05-02T09:28:05.667Z</time></trkpt><trkpt lat="42.2303817" lon="13.81963"><ele>317.5</ele><time>2026-05-02T09:28:06.667Z</time></trkpt><trkpt lat="42.23047" lon="13.819615"><ele>318.0</ele><time>2026-05-02T09:28:07.668Z</time></trkpt><trkpt lat="42.2305717" lon="13.8195967"><ele>319.4</ele><time>2026-05-02T09:28:08.668Z</time></trkpt><trkpt lat="42.23068" lon="13.81958"><ele>320.8</ele><time>2026-05-02T09:28:09.667Z</time></trkpt><trkpt lat="42.2307967" lon="13.81957"><ele>322.2</ele><time>2026-05-02T09:28:10.668Z</time></trkpt><trkpt lat="42.2309117" lon="13.8195567"><ele>323.6</ele><time>2026-05-02T09:28:11.668Z</time></trkpt><trkpt lat="42.2310133" lon="13.8195317"><ele>325.0</ele><time>2026-05-02T09:28:12.668Z</time></trkpt><trkpt lat="42.231105" lon="13.8194883"><ele>325.0</ele><time>2026-05-02T09:28:13.667Z</time></trkpt><trkpt lat="42.2311883" lon="13.8194417"><ele>325.0</ele><time>2026-05-02T09:28:14.667Z</time></trkpt><trkpt lat="42.23127" lon="13.8193833"><ele>325.0</ele><time>2026-05-02T09:28:15.667Z</time></trkpt><trkpt lat="42.2313533" lon="13.8193233"><ele>325.0</ele><time>2026-05-02T09:28:16.667Z</time></trkpt><trkpt lat="42.2314433" lon="13.8192717"><ele>325.0</ele><time>2026-05-02T09:28:17.668Z</time></trkpt><trkpt lat="42.2315383" lon="13.8192167"><ele>324.0</ele><time>2026-05-02T09:28:18.667Z</time></trkpt><trkpt lat="42.2316367" lon="13.8191733"><ele>323.0</ele><time>2026-05-02T09:28:19.668Z</time></trkpt><trkpt lat="42.2317417" lon="13.819135"><ele>322.0</ele><time>2026-05-02T09:28:20.667Z</time></trkpt><trkpt lat="42.23185" lon="13.8191067"><ele>321.0</ele><time>2026-05-02T09:28:21.668Z</time></trkpt><trkpt lat="42.2319683" lon="13.8190833"><ele>320.0</ele><time>2026-05-02T09:28:22.667Z</time></trkpt><trkpt lat="42.2320917" lon="13.8190683"><ele>320.0</ele><time>2026-05-02T09:28:23.666Z</time></trkpt><trkpt lat="42.2322217" lon="13.81906"><ele>320.0</ele><time>2026-05-02T09:28:24.666Z</time></trkpt><trkpt lat="42.2323583" lon="13.81905"><ele>320.0</ele><time>2026-05-02T09:28:25.667Z</time></trkpt><trkpt lat="42.2325" lon="13.819045"><ele>320.0</ele><time>2026-05-02T09:28:26.666Z</time></trkpt><trkpt lat="42.232645" lon="13.8190333"><ele>320.25</ele><time>2026-05-02T09:28:27.667Z</time></trkpt><trkpt lat="42.2327883" lon="13.8190183"><ele>320.5</ele><time>2026-05-02T09:28:28.666Z</time></trkpt><trkpt lat="42.232925" lon="13.818985"><ele>320.75</ele><time>2026-05-02T09:28:29.667Z</time></trkpt><trkpt lat="42.2330667" lon="13.81893"><ele>321.0</ele><time>2026-05-02T09:28:30.666Z</time></trkpt><trkpt lat="42.2332067" lon="13.8188617"><ele>323.5</ele><time>2026-05-02T09:28:31.666Z</time></trkpt><trkpt lat="42.23335" lon="13.818795"><ele>326.0</ele><time>2026-05-02T09:28:32.666Z</time></trkpt><trkpt lat="42.2334867" lon="13.8187267"><ele>328.5</ele><time>2026-05-02T09:28:33.666Z</time></trkpt><trkpt lat="42.23362" lon="13.81866"><ele>331.0</ele><time>2026-05-02T09:28:34.666Z</time></trkpt><trkpt lat="42.2337483" lon="13.8185867"><ele>331.0</ele><time>2026-05-02T09:28:35.667Z</time></trkpt><trkpt lat="42.2338817" lon="13.8185017"><ele>331.0</ele><time>2026-05-02T09:28:36.666Z</time></trkpt><trkpt lat="42.2340167" lon="13.818415"><ele>331.0</ele><time>2026-05-02T09:28:37.667Z</time></trkpt><trkpt lat="42.2341467" lon="13.8183233"><ele>331.0</ele><time>2026-05-02T09:28:38.667Z</time></trkpt><trkpt lat="42.2342717" lon="13.818225"><ele>329.75</ele><time>2026-05-02T09:28:39.666Z</time></trkpt><trkpt lat="42.2343917" lon="13.8181233"><ele>328.5</ele><time>2026-05-02T09:28:40.666Z</time></trkpt><trkpt lat="42.2345067" lon="13.8180067"><ele>327.25</ele><time>2026-05-02T09:28:41.666Z</time></trkpt><trkpt lat="42.2346133" lon="13.81789"><ele>326.0</ele><time>2026-05-02T09:28:42.666Z</time></trkpt><trkpt lat="42.2347133" lon="13.81776"><ele>324.75</ele><time>2026-05-02T09:28:43.667Z</time></trkpt><trkpt lat="42.23481" lon="13.8176283"><ele>323.5</ele><time>2026-05-02T09:28:44.666Z</time></trkpt><trkpt lat="42.23491" lon="13.8174817"><ele>322.25</ele><time>2026-05-02T09:28:45.667Z</time></trkpt><trkpt lat="42.235" lon="13.8173233"><ele>321.0</ele><time>2026-05-02T09:28:46.666Z</time></trkpt><trkpt lat="42.2350767" lon="13.817175"><ele>321.0</ele><time>2026-05-02T09:28:47.667Z</time></trkpt><trkpt lat="42.2351467" lon="13.8170283"><ele>321.0</ele><time>2026-05-02T09:28:48.666Z</time></trkpt><trkpt lat="42.2352067" lon="13.8168933"><ele>321.0</ele><time>2026-05-02T09:28:49.666Z</time></trkpt><trkpt lat="42.235255" lon="13.8167667"><ele>321.0</ele><time>2026-05-02T09:28:50.666Z</time></trkpt><trkpt lat="42.2353017" lon="13.8166683"><ele>321.0</ele><time>2026-05-02T09:28:51.666Z</time></trkpt><trkpt lat="42.2353417" lon="13.816585"><ele>321.1666666666667</ele><time>2026-05-02T09:28:52.666Z</time></trkpt><trkpt lat="42.2353883" lon="13.8165133"><ele>321.3333333333333</ele><time>2026-05-02T09:28:53.666Z</time></trkpt><trkpt lat="42.23544" lon="13.8164367"><ele>321.5</ele><time>2026-05-02T09:28:54.667Z</time></trkpt><trkpt lat="42.2355" lon="13.8163717"><ele>321.66666666666663</ele><time>2026-05-02T09:28:55.666Z</time></trkpt><trkpt lat="42.2355717" lon="13.816315"><ele>321.8333333333333</ele><time>2026-05-02T09:28:56.667Z</time></trkpt><trkpt lat="42.2356467" lon="13.8162667"><ele>322.0</ele><time>2026-05-02T09:28:57.666Z</time></trkpt><trkpt lat="42.2357317" lon="13.8162317"><ele>322.0</ele><time>2026-05-02T09:28:58.667Z</time></trkpt><trkpt lat="42.2358267" lon="13.8162133"><ele>322.0</ele><time>2026-05-02T09:28:59.666Z</time></trkpt><trkpt lat="42.23593" lon="13.8162183"><ele>322.0</ele><time>2026-05-02T09:29:00.667Z</time></trkpt><trkpt lat="42.2360367" lon="13.8162533"><ele>322.0</ele><time>2026-05-02T09:29:01.667Z</time></trkpt><trkpt lat="42.236135" lon="13.81632"><ele>322.0</ele><time>2026-05-02T09:29:02.667Z</time></trkpt><trkpt lat="42.2362383" lon="13.816395"><ele>322.0</ele><time>2026-05-02T09:29:03.667Z</time></trkpt><trkpt lat="42.2363417" lon="13.81649"><ele>322.0</ele><time>2026-05-02T09:29:04.666Z</time></trkpt><trkpt lat="42.23645" lon="13.816575"><ele>322.0</ele><time>2026-05-02T09:29:05.667Z</time></trkpt><trkpt lat="42.236565" lon="13.816645"><ele>322.0</ele><time>2026-05-02T09:29:06.667Z</time></trkpt><trkpt lat="42.2366833" lon="13.816695"><ele>321.5</ele><time>2026-05-02T09:29:07.667Z</time></trkpt><trkpt lat="42.2368067" lon="13.8167233"><ele>321.0</ele><time>2026-05-02T09:29:08.666Z</time></trkpt><trkpt lat="42.23693" lon="13.8167317"><ele>320.5</ele><time>2026-05-02T09:29:09.666Z</time></trkpt><trkpt lat="42.2370517" lon="13.816725"><ele>320.0</ele><time>2026-05-02T09:29:10.666Z</time></trkpt><trkpt lat="42.2371733" lon="13.8167033"><ele>320.0</ele><time>2026-05-02T09:29:11.666Z</time></trkpt><trkpt lat="42.2372983" lon="13.8166633"><ele>320.0</ele><time>2026-05-02T09:29:12.666Z</time></trkpt><trkpt lat="42.237425" lon="13.8166067"><ele>320.0</ele><time>2026-05-02T09:29:13.666Z</time></trkpt><trkpt lat="42.2375467" lon="13.81655"><ele>320.0</ele><time>2026-05-02T09:29:14.667Z</time></trkpt><trkpt lat="42.2376633" lon="13.816495"><ele>319.75</ele><time>2026-05-02T09:29:15.667Z</time></trkpt><trkpt lat="42.2377867" lon="13.816425"><ele>319.5</ele><time>2026-05-02T09:29:16.667Z</time></trkpt><trkpt lat="42.23792" lon="13.81637"><ele>319.25</ele><time>2026-05-02T09:29:17.666Z</time></trkpt><trkpt lat="42.238055" lon="13.816305"><ele>319.0</ele><time>2026-05-02T09:29:18.666Z</time></trkpt><trkpt lat="42.238185" lon="13.8162467"><ele>319.0</ele><time>2026-05-02T09:29:19.666Z</time></trkpt><trkpt lat="42.2383067" lon="13.8161833"><ele>319.0</ele><time>2026-05-02T09:29:20.667Z</time></trkpt><trkpt lat="42.23842" lon="13.8161317"><ele>319.0</ele><time>2026-05-02T09:29:21.666Z</time></trkpt><trkpt lat="42.2385433" lon="13.8160967"><ele>319.0</ele><time>2026-05-02T09:29:22.666Z</time></trkpt><trkpt lat="42.238665" lon="13.8160833"><ele>319.0</ele><time>2026-05-02T09:29:23.666Z</time></trkpt><trkpt lat="42.2387833" lon="13.81609"><ele>319.0</ele><time>2026-05-02T09:29:24.667Z</time></trkpt><trkpt lat="42.23889" lon="13.8161083"><ele>319.0</ele><time>2026-05-02T09:29:25.667Z</time></trkpt><trkpt lat="42.238985" lon="13.8161233"><ele>319.0</ele><time>2026-05-02T09:29:26.667Z</time></trkpt><trkpt lat="42.2390783" lon="13.8161383"><ele>319.0</ele><time>2026-05-02T09:29:27.666Z</time></trkpt><trkpt lat="42.2391567" lon="13.816155"><ele>319.66666666666663</ele><time>2026-05-02T09:29:28.666Z</time></trkpt><trkpt lat="42.239225" lon="13.8161633"><ele>320.3333333333333</ele><time>2026-05-02T09:29:29.666Z</time></trkpt><trkpt lat="42.2393117" lon="13.8161917"><ele>321.0</ele><time>2026-05-02T09:29:31.667Z</time></trkpt><trkpt lat="42.2393683" lon="13.8162367"><ele>321.6666666666667</ele><time>2026-05-02T09:29:33.667Z</time></trkpt><trkpt lat="42.2394333" lon="13.8163217"><ele>322.33333333333337</ele><time>2026-05-02T09:29:35.667Z</time></trkpt><trkpt lat="42.239475" lon="13.8164333"><ele>323.0</ele><time>2026-05-02T09:29:37.666Z</time></trkpt><trkpt lat="42.23957" lon="13.8164767"><ele>323.0</ele><time>2026-05-02T09:29:39.667Z</time></trkpt><trkpt lat="42.2396417" lon="13.8164767"><ele>323.0</ele><time>2026-05-02T09:29:40.667Z</time></trkpt><trkpt lat="42.2397233" lon="13.8164617"><ele>323.0</ele><time>2026-05-02T09:29:41.667Z</time></trkpt><trkpt lat="42.2398167" lon="13.8164267"><ele>323.0</ele><time>2026-05-02T09:29:42.667Z</time></trkpt><trkpt lat="42.2399083" lon="13.816385"><ele>323.0</ele><time>2026-05-02T09:29:43.666Z</time></trkpt><trkpt lat="42.2400017" lon="13.81634"><ele>323.0</ele><time>2026-05-02T09:29:44.667Z</time></trkpt><trkpt lat="42.2400867" lon="13.8163083"><ele>323.6666666666667</ele><time>2026-05-02T09:29:45.667Z</time></trkpt><trkpt lat="42.2401733" lon="13.8163"><ele>324.33333333333337</ele><time>2026-05-02T09:29:46.667Z</time></trkpt><trkpt lat="42.2402683" lon="13.8163017"><ele>325.0</ele><time>2026-05-02T09:29:47.666Z</time></trkpt><trkpt lat="42.2403633" lon="13.8163033"><ele>325.6666666666667</ele><time>2026-05-02T09:29:48.667Z</time></trkpt><trkpt lat="42.2404383" lon="13.8163033"><ele>326.3333333333333</ele><time>2026-05-02T09:29:49.667Z</time></trkpt><trkpt lat="42.240505" lon="13.8163033"><ele>327.0</ele><time>2026-05-02T09:29:50.666Z</time></trkpt><trkpt lat="42.2405733" lon="13.8163017"><ele>327.2857142857143</ele><time>2026-05-02T09:29:51.666Z</time></trkpt><trkpt lat="42.2406417" lon="13.8162983"><ele>327.57142857142856</ele><time>2026-05-02T09:29:52.667Z</time></trkpt><trkpt lat="42.2407067" lon="13.816295"><ele>327.8571428571429</ele><time>2026-05-02T09:29:53.667Z</time></trkpt><trkpt lat="42.2407733" lon="13.8162933"><ele>328.1428571428571</ele><time>2026-05-02T09:29:54.666Z</time></trkpt><trkpt lat="42.2408433" lon="13.8162917"><ele>328.42857142857144</ele><time>2026-05-02T09:29:55.667Z</time></trkpt><trkpt lat="42.2409117" lon="13.8162883"><ele>328.7142857142857</ele><time>2026-05-02T09:29:56.666Z</time></trkpt><trkpt lat="42.2409817" lon="13.8162833"><ele>329.0</ele><time>2026-05-02T09:29:57.667Z</time></trkpt><trkpt lat="42.2410483" lon="13.8162767"><ele>329.0</ele><time>2026-05-02T09:29:58.666Z</time></trkpt><trkpt lat="42.241115" lon="13.8162667"><ele>329.0</ele><time>2026-05-02T09:29:59.666Z</time></trkpt><trkpt lat="42.2411767" lon="13.8162467"><ele>329.0</ele><time>2026-05-02T09:30:00.666Z</time></trkpt><trkpt lat="42.24124" lon="13.8162267"><ele>329.0</ele><time>2026-05-02T09:30:01.667Z</time></trkpt><trkpt lat="42.2413017" lon="13.816205"><ele>329.0</ele><time>2026-05-02T09:30:02.666Z</time></trkpt><trkpt lat="42.241415" lon="13.81614"><ele>329.0</ele><time>2026-05-02T09:30:04.666Z</time></trkpt><trkpt lat="42.241535" lon="13.816015"><ele>327.6666666666667</ele><time>2026-05-02T09:30:06.666Z</time></trkpt><trkpt lat="42.241595" lon="13.8159283"><ele>326.33333333333337</ele><time>2026-05-02T09:30:07.666Z</time></trkpt><trkpt lat="42.24164" lon="13.8158483"><ele>325.0</ele><time>2026-05-02T09:30:08.667Z</time></trkpt><trkpt lat="42.24167" lon="13.8157733"><ele>323.6666666666667</ele><time>2026-05-02T09:30:09.667Z</time></trkpt><trkpt lat="42.2416883" lon="13.815685"><ele>322.3333333333333</ele><time>2026-05-02T09:30:10.666Z</time></trkpt><trkpt lat="42.2416867" lon="13.8155733"><ele>321.0</ele><time>2026-05-02T09:30:11.667Z</time></trkpt><trkpt lat="42.2416967" lon="13.8154583"><ele>321.0</ele><time>2026-05-02T09:30:12.667Z</time></trkpt><trkpt lat="42.2417217" lon="13.81534"><ele>321.0</ele><time>2026-05-02T09:30:13.666Z</time></trkpt><trkpt lat="42.24176" lon="13.8152267"><ele>321.0</ele><time>2026-05-02T09:30:14.667Z</time></trkpt><trkpt lat="42.2417917" lon="13.8151267"><ele>321.0</ele><time>2026-05-02T09:30:15.666Z</time></trkpt><trkpt lat="42.2418217" lon="13.8150433"><ele>321.0</ele><time>2026-05-02T09:30:16.667Z</time></trkpt><trkpt lat="42.2418617" lon="13.8149183"><ele>321.0</ele><time>2026-05-02T09:30:18.667Z</time></trkpt><trkpt lat="42.241885" lon="13.8148283"><ele>320.6666666666667</ele><time>2026-05-02T09:30:20.667Z</time></trkpt><trkpt lat="42.2419067" lon="13.8147433"><ele>320.3333333333333</ele><time>2026-05-02T09:30:22.667Z</time></trkpt><trkpt lat="42.24195" lon="13.8146067"><ele>320.0</ele><time>2026-05-02T09:30:24.667Z</time></trkpt><trkpt lat="42.2420433" lon="13.8145117"><ele>319.66666666666663</ele><time>2026-05-02T09:30:26.667Z</time></trkpt><trkpt lat="42.24211" lon="13.8144883"><ele>319.3333333333333</ele><time>2026-05-02T09:30:27.667Z</time></trkpt><trkpt lat="42.24218" lon="13.814485"><ele>319.0</ele><time>2026-05-02T09:30:28.667Z</time></trkpt><trkpt lat="42.2422517" lon="13.814475"><ele>319.2</ele><time>2026-05-02T09:30:29.667Z</time></trkpt><trkpt lat="42.2423283" lon="13.8144383"><ele>319.4</ele><time>2026-05-02T09:30:30.667Z</time></trkpt><trkpt lat="42.2424067" lon="13.814365"><ele>319.6</ele><time>2026-05-02T09:30:31.666Z</time></trkpt><trkpt lat="42.2424917" lon="13.81429"><ele>319.8</ele><time>2026-05-02T09:30:32.666Z</time></trkpt><trkpt lat="42.2425733" lon="13.81421"><ele>320.0</ele><time>2026-05-02T09:30:33.667Z</time></trkpt><trkpt lat="42.2426567" lon="13.8141283"><ele>320.0</ele><time>2026-05-02T09:30:34.667Z</time></trkpt><trkpt lat="42.24273" lon="13.8140483"><ele>320.0</ele><time>2026-05-02T09:30:35.667Z</time></trkpt><trkpt lat="42.2428067" lon="13.813965"><ele>320.0</ele><time>2026-05-02T09:30:36.666Z</time></trkpt><trkpt lat="42.242885" lon="13.8138817"><ele>320.0</ele><time>2026-05-02T09:30:37.666Z</time></trkpt><trkpt lat="42.242955" lon="13.8138067"><ele>320.0</ele><time>2026-05-02T09:30:38.666Z</time></trkpt><trkpt lat="42.2430183" lon="13.8137317"><ele>320.0</ele><time>2026-05-02T09:30:39.667Z</time></trkpt><trkpt lat="42.2430717" lon="13.8136667"><ele>320.0</ele><time>2026-05-02T09:30:40.666Z</time></trkpt><trkpt lat="42.2431567" lon="13.8135717"><ele>320.0</ele><time>2026-05-02T09:30:42.667Z</time></trkpt><trkpt lat="42.2432383" lon="13.8134467"><ele>320.0</ele><time>2026-05-02T09:30:50.667Z</time></trkpt><trkpt lat="42.24332" lon="13.81335"><ele>320.0</ele><time>2026-05-02T09:30:52.667Z</time></trkpt><trkpt lat="42.2433767" lon="13.8132917"><ele>320.83333333333337</ele><time>2026-05-02T09:30:53.666Z</time></trkpt><trkpt lat="42.2434367" lon="13.8132217"><ele>321.6666666666667</ele><time>2026-05-02T09:30:54.666Z</time></trkpt><trkpt lat="42.2435" lon="13.8131483"><ele>322.5</ele><time>2026-05-02T09:30:55.666Z</time></trkpt><trkpt lat="42.2435667" lon="13.8130717"><ele>323.3333333333333</ele><time>2026-05-02T09:30:56.666Z</time></trkpt><trkpt lat="42.2436283" lon="13.81301"><ele>324.16666666666663</ele><time>2026-05-02T09:30:57.667Z</time></trkpt><trkpt lat="42.243695" lon="13.8129617"><ele>325.0</ele><time>2026-05-02T09:30:58.666Z</time></trkpt><trkpt lat="42.2437683" lon="13.8129283"><ele>325.0</ele><time>2026-05-02T09:30:59.667Z</time></trkpt><trkpt lat="42.2438467" lon="13.812905"><ele>325.0</ele><time>2026-05-02T09:31:00.666Z</time></trkpt><trkpt lat="42.2439283" lon="13.8128783"><ele>325.0</ele><time>2026-05-02T09:31:01.667Z</time></trkpt><trkpt lat="42.2440117" lon="13.81284"><ele>325.0</ele><time>2026-05-02T09:31:02.667Z</time></trkpt><trkpt lat="42.2441" lon="13.8127833"><ele>325.0</ele><time>2026-05-02T09:31:03.667Z</time></trkpt><trkpt lat="42.2441833" lon="13.812725"><ele>325.0</ele><time>2026-05-02T09:31:04.667Z</time></trkpt><trkpt lat="42.244265" lon="13.8126783"><ele>324.2</ele><time>2026-05-02T09:31:05.667Z</time></trkpt><trkpt lat="42.2443567" lon="13.8126467"><ele>323.4</ele><time>2026-05-02T09:31:06.666Z</time></trkpt><trkpt lat="42.2444517" lon="13.812625"><ele>322.6</ele><time>2026-05-02T09:31:07.666Z</time></trkpt><trkpt lat="42.24455" lon="13.8126067"><ele>321.8</ele><time>2026-05-02T09:31:08.666Z</time></trkpt><trkpt lat="42.2446417" lon="13.81258"><ele>321.0</ele><time>2026-05-02T09:31:09.666Z</time></trkpt><trkpt lat="42.2447233" lon="13.8125333"><ele>322.1666666666667</ele><time>2026-05-02T09:31:10.666Z</time></trkpt><trkpt lat="42.244805" lon="13.812475"><ele>323.3333333333333</ele><time>2026-05-02T09:31:11.665Z</time></trkpt><trkpt lat="42.2448833" lon="13.8124"><ele>324.5</ele><time>2026-05-02T09:31:12.666Z</time></trkpt><trkpt lat="42.2449483" lon="13.8123133"><ele>325.66666666666663</ele><time>2026-05-02T09:31:13.666Z</time></trkpt><trkpt lat="42.2450067" lon="13.81223"><ele>326.8333333333333</ele><time>2026-05-02T09:31:14.665Z</time></trkpt><trkpt lat="42.2450483" lon="13.812135"><ele>328.0</ele><time>2026-05-02T09:31:15.665Z</time></trkpt><trkpt lat="42.24508" lon="13.8120167"><ele>328.0</ele><time>2026-05-02T09:31:16.666Z</time></trkpt><trkpt lat="42.2451017" lon="13.81188"><ele>328.0</ele><time>2026-05-02T09:31:17.666Z</time></trkpt><trkpt lat="42.2451283" lon="13.81175"><ele>328.0</ele><time>2026-05-02T09:31:18.665Z</time></trkpt><trkpt lat="42.2451617" lon="13.8116383"><ele>328.0</ele><time>2026-05-02T09:31:19.665Z</time></trkpt><trkpt lat="42.2452017" lon="13.8115283"><ele>328.0</ele><time>2026-05-02T09:31:20.665Z</time></trkpt><trkpt lat="42.245255" lon="13.8114317"><ele>327.2</ele><time>2026-05-02T09:31:21.666Z</time></trkpt><trkpt lat="42.245325" lon="13.8113533"><ele>326.4</ele><time>2026-05-02T09:31:22.665Z</time></trkpt><trkpt lat="42.2454067" lon="13.8112733"><ele>325.59999999999997</ele><time>2026-05-02T09:31:23.666Z</time></trkpt><trkpt lat="42.2454933" lon="13.8111967"><ele>324.79999999999995</ele><time>2026-05-02T09:31:24.666Z</time></trkpt><trkpt lat="42.2455783" lon="13.8111083"><ele>324.0</ele><time>2026-05-02T09:31:25.666Z</time></trkpt><trkpt lat="42.24566" lon="13.811"><ele>324.25</ele><time>2026-05-02T09:31:26.665Z</time></trkpt><trkpt lat="42.2457433" lon="13.8108867"><ele>324.5</ele><time>2026-05-02T09:31:27.665Z</time></trkpt><trkpt lat="42.24582" lon="13.8107733"><ele>324.75</ele><time>2026-05-02T09:31:28.665Z</time></trkpt><trkpt lat="42.2459117" lon="13.8106617"><ele>325.0</ele><time>2026-05-02T09:31:29.665Z</time></trkpt><trkpt lat="42.245995" lon="13.8105633"><ele>325.0</ele><time>2026-05-02T09:31:30.665Z</time></trkpt><trkpt lat="42.24608" lon="13.8104667"><ele>325.0</ele><time>2026-05-02T09:31:31.666Z</time></trkpt><trkpt lat="42.2461667" lon="13.8103667"><ele>325.0</ele><time>2026-05-02T09:31:32.665Z</time></trkpt><trkpt lat="42.2462517" lon="13.8102567"><ele>325.0</ele><time>2026-05-02T09:31:33.665Z</time></trkpt><trkpt lat="42.246325" lon="13.8101417"><ele>325.0</ele><time>2026-05-02T09:31:34.665Z</time></trkpt><trkpt lat="42.24639" lon="13.81002"><ele>325.0</ele><time>2026-05-02T09:31:35.666Z</time></trkpt><trkpt lat="42.24644" lon="13.8098933"><ele>325.0</ele><time>2026-05-02T09:31:36.665Z</time></trkpt><trkpt lat="42.246485" lon="13.8097567"><ele>325.0</ele><time>2026-05-02T09:31:37.665Z</time></trkpt><trkpt lat="42.246525" lon="13.8096133"><ele>325.0</ele><time>2026-05-02T09:31:38.665Z</time></trkpt><trkpt lat="42.2465667" lon="13.8094683"><ele>324.75</ele><time>2026-05-02T09:31:39.665Z</time></trkpt><trkpt lat="42.246605" lon="13.8093233"><ele>324.5</ele><time>2026-05-02T09:31:40.665Z</time></trkpt><trkpt lat="42.2466483" lon="13.8091667"><ele>324.25</ele><time>2026-05-02T09:31:41.666Z</time></trkpt><trkpt lat="42.2466917" lon="13.8090133"><ele>324.0</ele><time>2026-05-02T09:31:42.666Z</time></trkpt><trkpt lat="42.2467383" lon="13.808835"><ele>324.0</ele><time>2026-05-02T09:31:43.666Z</time></trkpt><trkpt lat="42.2467783" lon="13.808655"><ele>324.0</ele><time>2026-05-02T09:31:44.666Z</time></trkpt><trkpt lat="42.24681" lon="13.8084933"><ele>324.0</ele><time>2026-05-02T09:31:45.666Z</time></trkpt><trkpt lat="42.2468383" lon="13.8083533"><ele>324.0</ele><time>2026-05-02T09:31:46.665Z</time></trkpt><trkpt lat="42.246865" lon="13.8082483"><ele>324.1666666666667</ele><time>2026-05-02T09:31:47.665Z</time></trkpt><trkpt lat="42.2468967" lon="13.8081567"><ele>324.3333333333333</ele><time>2026-05-02T09:31:48.665Z</time></trkpt><trkpt lat="42.2469317" lon="13.8080767"><ele>324.5</ele><time>2026-05-02T09:31:49.665Z</time></trkpt><trkpt lat="42.246975" lon="13.8080033"><ele>324.66666666666663</ele><time>2026-05-02T09:31:50.665Z</time></trkpt><trkpt lat="42.2470267" lon="13.8079267"><ele>324.8333333333333</ele><time>2026-05-02T09:31:51.666Z</time></trkpt><trkpt lat="42.24709" lon="13.8078433"><ele>325.0</ele><time>2026-05-02T09:31:52.666Z</time></trkpt><trkpt lat="42.2471567" lon="13.8077667"><ele>325.0</ele><time>2026-05-02T09:31:53.665Z</time></trkpt><trkpt lat="42.2472217" lon="13.8076817"><ele>325.0</ele><time>2026-05-02T09:31:54.666Z</time></trkpt><trkpt lat="42.2472967" lon="13.807605"><ele>325.0</ele><time>2026-05-02T09:31:55.666Z</time></trkpt><trkpt lat="42.2473717" lon="13.8075333"><ele>325.0</ele><time>2026-05-02T09:31:56.666Z</time></trkpt><trkpt lat="42.24745" lon="13.80747"><ele>325.0</ele><time>2026-05-02T09:31:57.666Z</time></trkpt><trkpt lat="42.24753" lon="13.807415"><ele>325.5</ele><time>2026-05-02T09:31:58.666Z</time></trkpt><trkpt lat="42.2475967" lon="13.8073583"><ele>326.0</ele><time>2026-05-02T09:31:59.665Z</time></trkpt><trkpt lat="42.2476467" lon="13.8072967"><ele>326.5</ele><time>2026-05-02T09:32:00.665Z</time></trkpt><trkpt lat="42.2477217" lon="13.80716"><ele>327.0</ele><time>2026-05-02T09:32:02.666Z</time></trkpt><trkpt lat="42.24775" lon="13.80707"><ele>327.5</ele><time>2026-05-02T09:32:03.665Z</time></trkpt><trkpt lat="42.24777" lon="13.8069617"><ele>328.0</ele><time>2026-05-02T09:32:04.665Z</time></trkpt><trkpt lat="42.24778" lon="13.8068283"><ele>327.66666666666663</ele><time>2026-05-02T09:32:05.665Z</time></trkpt><trkpt lat="42.2477917" lon="13.80671"><ele>327.3333333333333</ele><time>2026-05-02T09:32:06.665Z</time></trkpt><trkpt lat="42.2478133" lon="13.8065967"><ele>327.0</ele><time>2026-05-02T09:32:07.665Z</time></trkpt><trkpt lat="42.247845" lon="13.806505"><ele>326.6666666666667</ele><time>2026-05-02T09:32:08.665Z</time></trkpt><trkpt lat="42.2478817" lon="13.8064083"><ele>326.33333333333337</ele><time>2026-05-02T09:32:09.666Z</time></trkpt><trkpt lat="42.2479267" lon="13.8063133"><ele>326.0</ele><time>2026-05-02T09:32:10.666Z</time></trkpt><trkpt lat="42.2479783" lon="13.8062083"><ele>326.0</ele><time>2026-05-02T09:32:11.666Z</time></trkpt><trkpt lat="42.2480383" lon="13.806095"><ele>326.0</ele><time>2026-05-02T09:32:12.666Z</time></trkpt><trkpt lat="42.2480983" lon="13.80598"><ele>326.0</ele><time>2026-05-02T09:32:13.666Z</time></trkpt><trkpt lat="42.24816" lon="13.805865"><ele>326.0</ele><time>2026-05-02T09:32:14.666Z</time></trkpt><trkpt lat="42.2482167" lon="13.8057617"><ele>326.0</ele><time>2026-05-02T09:32:15.665Z</time></trkpt><trkpt lat="42.248285" lon="13.8056567"><ele>327.8</ele><time>2026-05-02T09:32:16.666Z</time></trkpt><trkpt lat="42.248355" lon="13.8055567"><ele>329.6</ele><time>2026-05-02T09:32:17.666Z</time></trkpt><trkpt lat="42.2484117" lon="13.8054533"><ele>331.4</ele><time>2026-05-02T09:32:18.665Z</time></trkpt><trkpt lat="42.2484783" lon="13.805375"><ele>333.2</ele><time>2026-05-02T09:32:19.665Z</time></trkpt><trkpt lat="42.2485483" lon="13.805315"><ele>335.0</ele><time>2026-05-02T09:32:20.665Z</time></trkpt><trkpt lat="42.2486267" lon="13.8052717"><ele>335.0</ele><time>2026-05-02T09:32:21.666Z</time></trkpt><trkpt lat="42.248715" lon="13.805235"><ele>335.0</ele><time>2026-05-02T09:32:22.666Z</time></trkpt><trkpt lat="42.2488" lon="13.805205"><ele>335.0</ele><time>2026-05-02T09:32:23.666Z</time></trkpt><trkpt lat="42.248875" lon="13.8051817"><ele>335.0</ele><time>2026-05-02T09:32:24.666Z</time></trkpt><trkpt lat="42.24894" lon="13.805165"><ele>335.0</ele><time>2026-05-02T09:32:25.666Z</time></trkpt><trkpt lat="42.2490517" lon="13.8051267"><ele>335.0</ele><time>2026-05-02T09:32:27.666Z</time></trkpt><trkpt lat="42.24916" lon="13.8050433"><ele>335.33333333333337</ele><time>2026-05-02T09:32:29.666Z</time></trkpt><trkpt lat="42.2492067" lon="13.8049833"><ele>335.6666666666667</ele><time>2026-05-02T09:32:30.665Z</time></trkpt><trkpt lat="42.2492617" lon="13.8049133"><ele>336.0</ele><time>2026-05-02T09:32:31.665Z</time></trkpt><trkpt lat="42.2493133" lon="13.8048483"><ele>336.3333333333333</ele><time>2026-05-02T09:32:32.665Z</time></trkpt><trkpt lat="42.2493667" lon="13.8048"><ele>336.66666666666663</ele><time>2026-05-02T09:32:33.665Z</time></trkpt><trkpt lat="42.2494783" lon="13.804795"><ele>337.0</ele><time>2026-05-02T09:32:35.666Z</time></trkpt><trkpt lat="42.24954" lon="13.8048367"><ele>337.0</ele><time>2026-05-02T09:32:36.666Z</time></trkpt><trkpt lat="42.2496117" lon="13.8049017"><ele>337.0</ele><time>2026-05-02T09:32:37.665Z</time></trkpt><trkpt lat="42.2497" lon="13.8049733"><ele>337.0</ele><time>2026-05-02T09:32:38.665Z</time></trkpt><trkpt lat="42.2497983" lon="13.8050133"><ele>337.0</ele><time>2026-05-02T09:32:39.665Z</time></trkpt><trkpt lat="42.2499067" lon="13.8050183"><ele>337.0</ele><time>2026-05-02T09:32:40.665Z</time></trkpt><trkpt lat="42.2500183" lon="13.8050117"><ele>337.5</ele><time>2026-05-02T09:32:41.666Z</time></trkpt><trkpt lat="42.2501317" lon="13.8050033"><ele>338.0</ele><time>2026-05-02T09:32:42.665Z</time></trkpt><trkpt lat="42.25024" lon="13.805"><ele>338.5</ele><time>2026-05-02T09:32:43.665Z</time></trkpt><trkpt lat="42.250355" lon="13.8049933"><ele>339.0</ele><time>2026-05-02T09:32:44.665Z</time></trkpt><trkpt lat="42.2504717" lon="13.8049833"><ele>339.0</ele><time>2026-05-02T09:32:45.665Z</time></trkpt><trkpt lat="42.25059" lon="13.8049767"><ele>339.0</ele><time>2026-05-02T09:32:46.665Z</time></trkpt><trkpt lat="42.2507133" lon="13.804965"><ele>339.0</ele><time>2026-05-02T09:32:47.666Z</time></trkpt><trkpt lat="42.250825" lon="13.8049583"><ele>339.0</ele><time>2026-05-02T09:32:48.666Z</time></trkpt><trkpt lat="42.2509233" lon="13.804975"><ele>341.0</ele><time>2026-05-02T09:32:49.666Z</time></trkpt><trkpt lat="42.2510183" lon="13.8050083"><ele>343.0</ele><time>2026-05-02T09:32:50.665Z</time></trkpt><trkpt lat="42.251105" lon="13.8050833"><ele>345.0</ele><time>2026-05-02T09:32:51.666Z</time></trkpt><trkpt lat="42.25117" lon="13.8051767"><ele>347.0</ele><time>2026-05-02T09:32:52.666Z</time></trkpt><trkpt lat="42.2512033" lon="13.8052917"><ele>349.0</ele><time>2026-05-02T09:32:53.665Z</time></trkpt><trkpt lat="42.2512217" lon="13.80545"><ele>349.0</ele><time>2026-05-02T09:32:54.666Z</time></trkpt><trkpt lat="42.2512383" lon="13.805625"><ele>349.0</ele><time>2026-05-02T09:32:55.666Z</time></trkpt><trkpt lat="42.2512617" lon="13.805795"><ele>349.0</ele><time>2026-05-02T09:32:56.666Z</time></trkpt><trkpt lat="42.251285" lon="13.8059733"><ele>349.0</ele><time>2026-05-02T09:32:57.666Z</time></trkpt><trkpt lat="42.2513333" lon="13.806135"><ele>349.0</ele><time>2026-05-02T09:32:58.666Z</time></trkpt><trkpt lat="42.2513967" lon="13.8062917"><ele>349.0</ele><time>2026-05-02T09:32:59.665Z</time></trkpt><trkpt lat="42.2514633" lon="13.8064533"><ele>349.0</ele><time>2026-05-02T09:33:00.665Z</time></trkpt><trkpt lat="42.2515333" lon="13.8066183"><ele>349.0</ele><time>2026-05-02T09:33:01.666Z</time></trkpt><trkpt lat="42.2516083" lon="13.8067883"><ele>351.0</ele><time>2026-05-02T09:33:02.666Z</time></trkpt><trkpt lat="42.251685" lon="13.8069567"><ele>353.0</ele><time>2026-05-02T09:33:03.666Z</time></trkpt><trkpt lat="42.2517533" lon="13.807125"><ele>355.0</ele><time>2026-05-02T09:33:04.666Z</time></trkpt><trkpt lat="42.2518217" lon="13.80729"><ele>357.0</ele><time>2026-05-02T09:33:05.665Z</time></trkpt><trkpt lat="42.2518933" lon="13.80744"><ele>357.0</ele><time>2026-05-02T09:33:06.665Z</time></trkpt><trkpt lat="42.2519633" lon="13.807585"><ele>357.0</ele><time>2026-05-02T09:33:07.666Z</time></trkpt><trkpt lat="42.2520317" lon="13.8077217"><ele>357.0</ele><time>2026-05-02T09:33:08.666Z</time></trkpt><trkpt lat="42.2521" lon="13.8078617"><ele>357.0</ele><time>2026-05-02T09:33:09.666Z</time></trkpt><trkpt lat="42.252165" lon="13.8080033"><ele>357.0</ele><time>2026-05-02T09:33:10.665Z</time></trkpt><trkpt lat="42.2522383" lon="13.80814"><ele>357.0</ele><time>2026-05-02T09:33:11.666Z</time></trkpt><trkpt lat="42.2523183" lon="13.8082733"><ele>357.0</ele><time>2026-05-02T09:33:12.666Z</time></trkpt><trkpt lat="42.2523983" lon="13.808405"><ele>357.0</ele><time>2026-05-02T09:33:13.665Z</time></trkpt><trkpt lat="42.252475" lon="13.8085333"><ele>358.8</ele><time>2026-05-02T09:33:14.666Z</time></trkpt><trkpt lat="42.25255" lon="13.808655"><ele>360.6</ele><time>2026-05-02T09:33:15.666Z</time></trkpt><trkpt lat="42.25262" lon="13.80877"><ele>362.40000000000003</ele><time>2026-05-02T09:33:16.666Z</time></trkpt><trkpt lat="42.2526717" lon="13.80888"><ele>364.20000000000005</ele><time>2026-05-02T09:33:17.666Z</time></trkpt><trkpt lat="42.2527133" lon="13.8089817"><ele>366.0</ele><time>2026-05-02T09:33:18.665Z</time></trkpt><trkpt lat="42.2527467" lon="13.809075"><ele>366.0</ele><time>2026-05-02T09:33:19.666Z</time></trkpt><trkpt lat="42.2527783" lon="13.8091567"><ele>366.0</ele><time>2026-05-02T09:33:20.665Z</time></trkpt><trkpt lat="42.2528483" lon="13.8092567"><ele>366.0</ele><time>2026-05-02T09:33:22.665Z</time></trkpt><trkpt lat="42.2529117" lon="13.8093383"><ele>366.0</ele><time>2026-05-02T09:33:24.665Z</time></trkpt><trkpt lat="42.2529833" lon="13.8094583"><ele>366.0</ele><time>2026-05-02T09:33:26.666Z</time></trkpt><trkpt lat="42.2530383" lon="13.8095217"><ele>366.0</ele><time>2026-05-02T09:33:27.666Z</time></trkpt><trkpt lat="42.2531" lon="13.8095867"><ele>367.8</ele><time>2026-05-02T09:33:28.666Z</time></trkpt><trkpt lat="42.2531633" lon="13.8096533"><ele>369.6</ele><time>2026-05-02T09:33:29.666Z</time></trkpt><trkpt lat="42.2532233" lon="13.8097267"><ele>371.4</ele><time>2026-05-02T09:33:30.665Z</time></trkpt><trkpt lat="42.2532883" lon="13.80981"><ele>373.2</ele><time>2026-05-02T09:33:31.665Z</time></trkpt><trkpt lat="42.2533667" lon="13.809905"><ele>375.0</ele><time>2026-05-02T09:33:32.666Z</time></trkpt><trkpt lat="42.2534567" lon="13.8099983"><ele>375.0</ele><time>2026-05-02T09:33:33.666Z</time></trkpt><trkpt lat="42.2535483" lon="13.81008"><ele>375.0</ele><time>2026-05-02T09:33:34.665Z</time></trkpt><trkpt lat="42.2536367" lon="13.8101533"><ele>375.0</ele><time>2026-05-02T09:33:35.666Z</time></trkpt><trkpt lat="42.253715" lon="13.8102233"><ele>375.0</ele><time>2026-05-02T09:33:36.666Z</time></trkpt><trkpt lat="42.2537833" lon="13.8103017"><ele>375.0</ele><time>2026-05-02T09:33:37.665Z</time></trkpt><trkpt lat="42.25385" lon="13.8103883"><ele>374.8333333333333</ele><time>2026-05-02T09:33:38.665Z</time></trkpt><trkpt lat="42.2539117" lon="13.8104733"><ele>374.6666666666667</ele><time>2026-05-02T09:33:39.665Z</time></trkpt><trkpt lat="42.25397" lon="13.8105567"><ele>374.5</ele><time>2026-05-02T09:33:40.666Z</time></trkpt><trkpt lat="42.2540283" lon="13.8106317"><ele>374.33333333333337</ele><time>2026-05-02T09:33:41.665Z</time></trkpt><trkpt lat="42.2540867" lon="13.810705"><ele>374.1666666666667</ele><time>2026-05-02T09:33:42.666Z</time></trkpt><trkpt lat="42.25415" lon="13.8107717"><ele>374.0</ele><time>2026-05-02T09:33:43.666Z</time></trkpt><trkpt lat="42.25421" lon="13.8108367"><ele>375.0</ele><time>2026-05-02T09:33:44.666Z</time></trkpt><trkpt lat="42.2542717" lon="13.810895"><ele>376.0</ele><time>2026-05-02T09:33:45.666Z</time></trkpt><trkpt lat="42.2543317" lon="13.81096"><ele>377.0</ele><time>2026-05-02T09:33:46.666Z</time></trkpt><trkpt lat="42.2543867" lon="13.8110317"><ele>378.0</ele><time>2026-05-02T09:33:47.665Z</time></trkpt><trkpt lat="42.25444" lon="13.81111"><ele>379.0</ele><time>2026-05-02T09:33:48.665Z</time></trkpt><trkpt lat="42.2544833" lon="13.811195"><ele>380.0</ele><time>2026-05-02T09:33:49.665Z</time></trkpt><trkpt lat="42.254525" lon="13.8112733"><ele>380.1666666666667</ele><time>2026-05-02T09:33:50.665Z</time></trkpt><trkpt lat="42.2545583" lon="13.8113517"><ele>380.33333333333337</ele><time>2026-05-02T09:33:51.666Z</time></trkpt><trkpt lat="42.25459" lon="13.8114283"><ele>380.5</ele><time>2026-05-02T09:33:52.665Z</time></trkpt><trkpt lat="42.2546133" lon="13.8115083"><ele>380.6666666666667</ele><time>2026-05-02T09:33:53.665Z</time></trkpt><trkpt lat="42.2546383" lon="13.8115967"><ele>380.8333333333333</ele><time>2026-05-02T09:33:54.666Z</time></trkpt><trkpt lat="42.2546817" lon="13.8117317"><ele>381.0</ele><time>2026-05-02T09:33:56.665Z</time></trkpt><trkpt lat="42.2547567" lon="13.8117833"><ele>382.3333333333333</ele><time>2026-05-02T09:33:59.665Z</time></trkpt><trkpt lat="42.2548133" lon="13.8117367"><ele>383.66666666666663</ele><time>2026-05-02T09:34:24.664Z</time></trkpt><trkpt lat="42.2548633" lon="13.8116517"><ele>385.0</ele><time>2026-05-02T09:34:26.664Z</time></trkpt><trkpt lat="42.2549467" lon="13.81152"><ele>386.3333333333333</ele><time>2026-05-02T09:34:28.665Z</time></trkpt><trkpt lat="42.25499" lon="13.8114383"><ele>387.66666666666663</ele><time>2026-05-02T09:34:29.664Z</time></trkpt><trkpt lat="42.2550317" lon="13.81135"><ele>389.0</ele><time>2026-05-02T09:34:30.664Z</time></trkpt><trkpt lat="42.255085" lon="13.811255"><ele>389.0</ele><time>2026-05-02T09:34:31.665Z</time></trkpt><trkpt lat="42.2551433" lon="13.81116"><ele>389.0</ele><time>2026-05-02T09:34:32.665Z</time></trkpt><trkpt lat="42.2551933" lon="13.8110533"><ele>389.0</ele><time>2026-05-02T09:34:33.664Z</time></trkpt><trkpt lat="42.2552433" lon="13.8109367"><ele>389.0</ele><time>2026-05-02T09:34:34.665Z</time></trkpt><trkpt lat="42.2552917" lon="13.810805"><ele>389.0</ele><time>2026-05-02T09:34:35.664Z</time></trkpt><trkpt lat="42.2553317" lon="13.8106867"><ele>389.2</ele><time>2026-05-02T09:34:36.665Z</time></trkpt><trkpt lat="42.2553717" lon="13.8105817"><ele>389.4</ele><time>2026-05-02T09:34:37.664Z</time></trkpt><trkpt lat="42.2554183" lon="13.81049"><ele>389.6</ele><time>2026-05-02T09:34:38.665Z</time></trkpt><trkpt lat="42.25548" lon="13.8103783"><ele>389.8</ele><time>2026-05-02T09:34:39.664Z</time></trkpt><trkpt lat="42.255555" lon="13.8102717"><ele>390.0</ele><time>2026-05-02T09:34:40.664Z</time></trkpt><trkpt lat="42.25563" lon="13.8101617"><ele>389.5</ele><time>2026-05-02T09:34:41.664Z</time></trkpt><trkpt lat="42.255705" lon="13.810045"><ele>389.0</ele><time>2026-05-02T09:34:42.665Z</time></trkpt><trkpt lat="42.255785" lon="13.809925"><ele>388.5</ele><time>2026-05-02T09:34:43.664Z</time></trkpt><trkpt lat="42.25586" lon="13.8097917"><ele>388.0</ele><time>2026-05-02T09:34:44.664Z</time></trkpt><trkpt lat="42.2559283" lon="13.8096533"><ele>388.0</ele><time>2026-05-02T09:34:45.664Z</time></trkpt><trkpt lat="42.2559917" lon="13.8095267"><ele>388.0</ele><time>2026-05-02T09:34:46.664Z</time></trkpt><trkpt lat="42.256055" lon="13.809395"><ele>388.0</ele><time>2026-05-02T09:34:47.665Z</time></trkpt><trkpt lat="42.25612" lon="13.8092683"><ele>388.0</ele><time>2026-05-02T09:34:48.665Z</time></trkpt><trkpt lat="42.25619" lon="13.80916"><ele>387.75</ele><time>2026-05-02T09:34:49.664Z</time></trkpt><trkpt lat="42.2562717" lon="13.8090567"><ele>387.5</ele><time>2026-05-02T09:34:50.665Z</time></trkpt><trkpt lat="42.2563683" lon="13.80895"><ele>387.25</ele><time>2026-05-02T09:34:51.665Z</time></trkpt><trkpt lat="42.2564583" lon="13.8088467"><ele>387.0</ele><time>2026-05-02T09:34:52.665Z</time></trkpt><trkpt lat="42.2565367" lon="13.8087583"><ele>387.0</ele><time>2026-05-02T09:34:53.665Z</time></trkpt><trkpt lat="42.2566133" lon="13.8086717"><ele>387.0</ele><time>2026-05-02T09:34:54.665Z</time></trkpt><trkpt lat="42.2566883" lon="13.8086"><ele>387.0</ele><time>2026-05-02T09:34:55.665Z</time></trkpt><trkpt lat="42.2567633" lon="13.8085533"><ele>387.0</ele><time>2026-05-02T09:34:56.664Z</time></trkpt><trkpt lat="42.2568383" lon="13.8085383"><ele>387.0</ele><time>2026-05-02T09:34:57.665Z</time></trkpt><trkpt lat="42.2569167" lon="13.8085133"><ele>387.0</ele><time>2026-05-02T09:34:58.665Z</time></trkpt><trkpt lat="42.2569967" lon="13.8084683"><ele>386.25</ele><time>2026-05-02T09:34:59.664Z</time></trkpt><trkpt lat="42.2570833" lon="13.8083917"><ele>385.5</ele><time>2026-05-02T09:35:00.664Z</time></trkpt><trkpt lat="42.257185" lon="13.8082983"><ele>384.75</ele><time>2026-05-02T09:35:01.665Z</time></trkpt><trkpt lat="42.2572967" lon="13.8082083"><ele>384.0</ele><time>2026-05-02T09:35:02.665Z</time></trkpt><trkpt lat="42.2573983" lon="13.8081167"><ele>384.0</ele><time>2026-05-02T09:35:03.664Z</time></trkpt><trkpt lat="42.2575067" lon="13.808045"><ele>384.0</ele><time>2026-05-02T09:35:04.664Z</time></trkpt><trkpt lat="42.2576317" lon="13.807955"><ele>384.0</ele><time>2026-05-02T09:35:05.664Z</time></trkpt><trkpt lat="42.257755" lon="13.8078483"><ele>384.0</ele><time>2026-05-02T09:35:06.664Z</time></trkpt><trkpt lat="42.2578733" lon="13.8077383"><ele>382.5</ele><time>2026-05-02T09:35:07.664Z</time></trkpt><trkpt lat="42.2579783" lon="13.8076383"><ele>381.0</ele><time>2026-05-02T09:35:08.665Z</time></trkpt><trkpt lat="42.25808" lon="13.8075433"><ele>379.5</ele><time>2026-05-02T09:35:09.664Z</time></trkpt><trkpt lat="42.25818" lon="13.8074567"><ele>378.0</ele><time>2026-05-02T09:35:10.664Z</time></trkpt><trkpt lat="42.2582817" lon="13.8073967"><ele>378.0</ele><time>2026-05-02T09:35:11.665Z</time></trkpt><trkpt lat="42.258395" lon="13.8073483"><ele>378.0</ele><time>2026-05-02T09:35:12.665Z</time></trkpt><trkpt lat="42.2585167" lon="13.8073117"><ele>378.0</ele><time>2026-05-02T09:35:13.665Z</time></trkpt><trkpt lat="42.2586417" lon="13.807275"><ele>378.0</ele><time>2026-05-02T09:35:14.665Z</time></trkpt><trkpt lat="42.2587667" lon="13.80724"><ele>378.0</ele><time>2026-05-02T09:35:15.665Z</time></trkpt><trkpt lat="42.2589017" lon="13.8071883"><ele>378.0</ele><time>2026-05-02T09:35:16.664Z</time></trkpt><trkpt lat="42.2590283" lon="13.807125"><ele>378.0</ele><time>2026-05-02T09:35:17.665Z</time></trkpt><trkpt lat="42.2591617" lon="13.8070533"><ele>378.0</ele><time>2026-05-02T09:35:18.664Z</time></trkpt><trkpt lat="42.25929" lon="13.8069683"><ele>377.75</ele><time>2026-05-02T09:35:19.664Z</time></trkpt><trkpt lat="42.259415" lon="13.8068833"><ele>377.5</ele><time>2026-05-02T09:35:20.665Z</time></trkpt><trkpt lat="42.2595367" lon="13.8068033"><ele>377.25</ele><time>2026-05-02T09:35:21.665Z</time></trkpt><trkpt lat="42.2596633" lon="13.8067317"><ele>377.0</ele><time>2026-05-02T09:35:22.665Z</time></trkpt><trkpt lat="42.2597883" lon="13.8066683"><ele>377.0</ele><time>2026-05-02T09:35:23.665Z</time></trkpt><trkpt lat="42.2599167" lon="13.806605"><ele>377.0</ele><time>2026-05-02T09:35:24.664Z</time></trkpt><trkpt lat="42.2600383" lon="13.8065333"><ele>377.0</ele><time>2026-05-02T09:35:25.664Z</time></trkpt><trkpt lat="42.2601617" lon="13.8064517"><ele>377.0</ele><time>2026-05-02T09:35:26.665Z</time></trkpt><trkpt lat="42.26028" lon="13.806365"><ele>377.0</ele><time>2026-05-02T09:35:27.665Z</time></trkpt><trkpt lat="42.2603933" lon="13.8062733"><ele>377.0</ele><time>2026-05-02T09:35:28.665Z</time></trkpt><trkpt lat="42.2605083" lon="13.806185"><ele>377.0</ele><time>2026-05-02T09:35:29.664Z</time></trkpt><trkpt lat="42.26062" lon="13.806095"><ele>377.0</ele><time>2026-05-02T09:35:30.664Z</time></trkpt><trkpt lat="42.26073" lon="13.8060167"><ele>376.5</ele><time>2026-05-02T09:35:31.665Z</time></trkpt><trkpt lat="42.2608367" lon="13.8059417"><ele>376.0</ele><time>2026-05-02T09:35:32.664Z</time></trkpt><trkpt lat="42.2609233" lon="13.8058883"><ele>375.5</ele><time>2026-05-02T09:35:33.664Z</time></trkpt><trkpt lat="42.260985" lon="13.8058533"><ele>375.0</ele><time>2026-05-02T09:35:34.665Z</time></trkpt><trkpt lat="42.2610483" lon="13.8057817"><ele>374.5</ele><time>2026-05-02T09:35:36.664Z</time></trkpt><trkpt lat="42.261085" lon="13.8057117"><ele>374.0</ele><time>2026-05-02T09:35:38.665Z</time></trkpt><trkpt lat="42.2611683" lon="13.80565"><ele>374.0</ele><time>2026-05-02T09:35:41.665Z</time></trkpt><trkpt lat="42.26124" lon="13.805625"><ele>374.0</ele><time>2026-05-02T09:35:43.665Z</time></trkpt><trkpt lat="42.2613367" lon="13.80559"><ele>374.0</ele><time>2026-05-02T09:35:45.664Z</time></trkpt><trkpt lat="42.2614433" lon="13.8055483"><ele>374.0</ele><time>2026-05-02T09:35:47.665Z</time></trkpt><trkpt lat="42.2615533" lon="13.8054917"><ele>374.0</ele><time>2026-05-02T09:35:49.664Z</time></trkpt><trkpt lat="42.2616633" lon="13.8054533"><ele>373.5</ele><time>2026-05-02T09:35:51.665Z</time></trkpt><trkpt lat="42.2617783" lon="13.8054117"><ele>373.0</ele><time>2026-05-02T09:35:53.664Z</time></trkpt><trkpt lat="42.261895" lon="13.8053633"><ele>372.5</ele><time>2026-05-02T09:35:55.664Z</time></trkpt><trkpt lat="42.26196" lon="13.8053367"><ele>372.0</ele><time>2026-05-02T09:35:56.664Z</time></trkpt><trkpt lat="42.2620233" lon="13.805315"><ele>371.5</ele><time>2026-05-02T09:35:57.664Z</time></trkpt><trkpt lat="42.26209" lon="13.805295"><ele>371.0</ele><time>2026-05-02T09:35:58.664Z</time></trkpt><trkpt lat="42.2621567" lon="13.8052717"><ele>371.0</ele><time>2026-05-02T09:35:59.665Z</time></trkpt><trkpt lat="42.2622183" lon="13.8052533"><ele>371.0</ele><time>2026-05-02T09:36:00.665Z</time></trkpt><trkpt lat="42.2622933" lon="13.8052483"><ele>371.0</ele><time>2026-05-02T09:36:02.665Z</time></trkpt><trkpt lat="42.262375" lon="13.8052717"><ele>371.0</ele><time>2026-05-02T09:36:05.664Z</time></trkpt><trkpt lat="42.26244" lon="13.805305"><ele>371.0</ele><time>2026-05-02T09:36:07.664Z</time></trkpt><trkpt lat="42.26252" lon="13.80532"><ele>371.0</ele><time>2026-05-02T09:36:10.665Z</time></trkpt><trkpt lat="42.2626017" lon="13.8052917"><ele>370.83333333333337</ele><time>2026-05-02T09:36:12.664Z</time></trkpt><trkpt lat="42.2627033" lon="13.80526"><ele>370.6666666666667</ele><time>2026-05-02T09:36:14.664Z</time></trkpt><trkpt lat="42.2627667" lon="13.8052417"><ele>370.5</ele><time>2026-05-02T09:36:15.664Z</time></trkpt><trkpt lat="42.2628417" lon="13.805225"><ele>370.3333333333333</ele><time>2026-05-02T09:36:16.664Z</time></trkpt><trkpt lat="42.2629317" lon="13.8052033"><ele>370.16666666666663</ele><time>2026-05-02T09:36:17.665Z</time></trkpt><trkpt lat="42.2630317" lon="13.8051783"><ele>370.0</ele><time>2026-05-02T09:36:18.665Z</time></trkpt><trkpt lat="42.26314" lon="13.8051533"><ele>368.75</ele><time>2026-05-02T09:36:19.664Z</time></trkpt><trkpt lat="42.2632567" lon="13.80513"><ele>367.5</ele><time>2026-05-02T09:36:20.664Z</time></trkpt><trkpt lat="42.2633767" lon="13.8051117"><ele>366.25</ele><time>2026-05-02T09:36:21.664Z</time></trkpt><trkpt lat="42.2634917" lon="13.8050983"><ele>365.0</ele><time>2026-05-02T09:36:22.665Z</time></trkpt><trkpt lat="42.2636083" lon="13.8050867"><ele>365.0</ele><time>2026-05-02T09:36:23.665Z</time></trkpt><trkpt lat="42.2637233" lon="13.8050633"><ele>365.0</ele><time>2026-05-02T09:36:24.664Z</time></trkpt><trkpt lat="42.2638333" lon="13.8050367"><ele>365.0</ele><time>2026-05-02T09:36:25.665Z</time></trkpt><trkpt lat="42.2639533" lon="13.8050233"><ele>365.0</ele><time>2026-05-02T09:36:26.664Z</time></trkpt><trkpt lat="42.26408" lon="13.80501"><ele>364.25</ele><time>2026-05-02T09:36:27.664Z</time></trkpt><trkpt lat="42.264205" lon="13.8050067"><ele>363.5</ele><time>2026-05-02T09:36:28.665Z</time></trkpt><trkpt lat="42.26433" lon="13.8050067"><ele>362.75</ele><time>2026-05-02T09:36:29.665Z</time></trkpt><trkpt lat="42.2644633" lon="13.8049933"><ele>362.0</ele><time>2026-05-02T09:36:30.664Z</time></trkpt><trkpt lat="42.2646083" lon="13.8049717"><ele>362.0</ele><time>2026-05-02T09:36:31.664Z</time></trkpt><trkpt lat="42.2647767" lon="13.8049367"><ele>362.0</ele><time>2026-05-02T09:36:32.664Z</time></trkpt><trkpt lat="42.2649733" lon="13.8048817"><ele>362.0</ele><time>2026-05-02T09:36:33.665Z</time></trkpt><trkpt lat="42.2651867" lon="13.804805"><ele>360.6666666666667</ele><time>2026-05-02T09:36:34.665Z</time></trkpt><trkpt lat="42.2653783" lon="13.8047367"><ele>359.3333333333333</ele><time>2026-05-02T09:36:35.665Z</time></trkpt><trkpt lat="42.265555" lon="13.8046683"><ele>358.0</ele><time>2026-05-02T09:36:36.665Z</time></trkpt><trkpt lat="42.2657117" lon="13.804615"><ele>357.5</ele><time>2026-05-02T09:36:37.665Z</time></trkpt><trkpt lat="42.2658483" lon="13.8045667"><ele>357.0</ele><time>2026-05-02T09:36:38.664Z</time></trkpt><trkpt lat="42.26598" lon="13.8045217"><ele>356.5</ele><time>2026-05-02T09:36:39.664Z</time></trkpt><trkpt lat="42.266105" lon="13.804475"><ele>356.0</ele><time>2026-05-02T09:36:40.665Z</time></trkpt><trkpt lat="42.2662217" lon="13.804425"><ele>356.0</ele><time>2026-05-02T09:36:41.665Z</time></trkpt><trkpt lat="42.2663367" lon="13.804355"><ele>356.0</ele><time>2026-05-02T09:36:42.665Z</time></trkpt><trkpt lat="42.2664617" lon="13.8042617"><ele>356.0</ele><time>2026-05-02T09:36:43.665Z</time></trkpt><trkpt lat="42.2665783" lon="13.804165"><ele>356.0</ele><time>2026-05-02T09:36:44.664Z</time></trkpt><trkpt lat="42.266685" lon="13.80407"><ele>355.8</ele><time>2026-05-02T09:36:45.664Z</time></trkpt><trkpt lat="42.2667817" lon="13.8039633"><ele>355.6</ele><time>2026-05-02T09:36:46.665Z</time></trkpt><trkpt lat="42.2668633" lon="13.80386"><ele>355.4</ele><time>2026-05-02T09:36:47.665Z</time></trkpt><trkpt lat="42.2669233" lon="13.8037617"><ele>355.2</ele><time>2026-05-02T09:36:48.664Z</time></trkpt><trkpt lat="42.2669717" lon="13.8036583"><ele>355.0</ele><time>2026-05-02T09:36:49.664Z</time></trkpt><trkpt lat="42.2670083" lon="13.803535"><ele>354.3333333333333</ele><time>2026-05-02T09:36:50.663Z</time></trkpt><trkpt lat="42.2670333" lon="13.80341"><ele>353.66666666666663</ele><time>2026-05-02T09:36:51.664Z</time></trkpt><trkpt lat="42.267075" lon="13.80329"><ele>353.0</ele><time>2026-05-02T09:36:52.663Z</time></trkpt><trkpt lat="42.2671233" lon="13.8031867"><ele>352.3333333333333</ele><time>2026-05-02T09:36:53.663Z</time></trkpt><trkpt lat="42.2671733" lon="13.8031017"><ele>351.6666666666667</ele><time>2026-05-02T09:36:54.663Z</time></trkpt><trkpt lat="42.26722" lon="13.80303"><ele>351.0</ele><time>2026-05-02T09:36:55.663Z</time></trkpt><trkpt lat="42.2672667" lon="13.8029617"><ele>351.5</ele><time>2026-05-02T09:36:56.664Z</time></trkpt><trkpt lat="42.2673117" lon="13.8029"><ele>352.0</ele><time>2026-05-02T09:36:57.663Z</time></trkpt><trkpt lat="42.26738" lon="13.802795"><ele>352.5</ele><time>2026-05-02T09:36:59.663Z</time></trkpt><trkpt lat="42.26744" lon="13.8027417"><ele>353.0</ele><time>2026-05-02T09:37:02.663Z</time></trkpt><trkpt lat="42.267475" lon="13.802645"><ele>353.5</ele><time>2026-05-02T09:37:42.663Z</time></trkpt><trkpt lat="42.2674933" lon="13.8025467"><ele>354.0</ele><time>2026-05-02T09:37:44.664Z</time></trkpt><trkpt lat="42.2675717" lon="13.802415"><ele>354.0</ele><time>2026-05-02T09:37:46.663Z</time></trkpt><trkpt lat="42.26763" lon="13.8023267"><ele>354.0</ele><time>2026-05-02T09:37:47.664Z</time></trkpt><trkpt lat="42.26769" lon="13.802245"><ele>354.0</ele><time>2026-05-02T09:37:48.663Z</time></trkpt><trkpt lat="42.2677467" lon="13.80217"><ele>354.0</ele><time>2026-05-02T09:37:49.663Z</time></trkpt><trkpt lat="42.2677967" lon="13.8020967"><ele>354.0</ele><time>2026-05-02T09:37:50.664Z</time></trkpt><trkpt lat="42.2678533" lon="13.8020283"><ele>354.0</ele><time>2026-05-02T09:37:51.663Z</time></trkpt><trkpt lat="42.2679133" lon="13.8019617"><ele>354.0</ele><time>2026-05-02T09:37:52.664Z</time></trkpt><trkpt lat="42.2679667" lon="13.8018967"><ele>354.0</ele><time>2026-05-02T09:37:53.664Z</time></trkpt><trkpt lat="42.268025" lon="13.8018283"><ele>354.0</ele><time>2026-05-02T09:37:54.663Z</time></trkpt><trkpt lat="42.2680933" lon="13.8017567"><ele>354.0</ele><time>2026-05-02T09:37:55.663Z</time></trkpt><trkpt lat="42.2681683" lon="13.801675"><ele>354.0</ele><time>2026-05-02T09:37:56.664Z</time></trkpt><trkpt lat="42.268255" lon="13.8015817"><ele>354.0</ele><time>2026-05-02T09:37:57.663Z</time></trkpt><trkpt lat="42.2683383" lon="13.80149"><ele>353.75</ele><time>2026-05-02T09:37:58.663Z</time></trkpt><trkpt lat="42.26843" lon="13.8013967"><ele>353.5</ele><time>2026-05-02T09:37:59.663Z</time></trkpt><trkpt lat="42.2685283" lon="13.8013017"><ele>353.25</ele><time>2026-05-02T09:38:00.663Z</time></trkpt><trkpt lat="42.2686233" lon="13.8012033"><ele>353.0</ele><time>2026-05-02T09:38:01.663Z</time></trkpt><trkpt lat="42.268715" lon="13.801105"><ele>353.0</ele><time>2026-05-02T09:38:02.664Z</time></trkpt><trkpt lat="42.2688067" lon="13.8010067"><ele>353.0</ele><time>2026-05-02T09:38:03.664Z</time></trkpt><trkpt lat="42.2689" lon="13.800915"><ele>353.0</ele><time>2026-05-02T09:38:04.664Z</time></trkpt><trkpt lat="42.269" lon="13.80083"><ele>353.0</ele><time>2026-05-02T09:38:05.663Z</time></trkpt><trkpt lat="42.2691017" lon="13.8007467"><ele>352.79999999999995</ele><time>2026-05-02T09:38:06.664Z</time></trkpt><trkpt lat="42.269205" lon="13.8006833"><ele>352.6</ele><time>2026-05-02T09:38:07.664Z</time></trkpt><trkpt lat="42.269305" lon="13.80063"><ele>352.4</ele><time>2026-05-02T09:38:08.664Z</time></trkpt><trkpt lat="42.26941" lon="13.80059"><ele>352.20000000000005</ele><time>2026-05-02T09:38:09.664Z</time></trkpt><trkpt lat="42.26952" lon="13.8005517"><ele>352.0</ele><time>2026-05-02T09:38:10.663Z</time></trkpt><trkpt lat="42.2696117" lon="13.8005"><ele>352.0</ele><time>2026-05-02T09:38:11.664Z</time></trkpt><trkpt lat="42.269705" lon="13.800415"><ele>352.0</ele><time>2026-05-02T09:38:12.664Z</time></trkpt><trkpt lat="42.2697933" lon="13.80032"><ele>352.0</ele><time>2026-05-02T09:38:13.664Z</time></trkpt><trkpt lat="42.2698883" lon="13.8002083"><ele>352.0</ele><time>2026-05-02T09:38:14.664Z</time></trkpt><trkpt lat="42.2699783" lon="13.8000933"><ele>350.75</ele><time>2026-05-02T09:38:15.664Z</time></trkpt><trkpt lat="42.27007" lon="13.7999883"><ele>349.5</ele><time>2026-05-02T09:38:16.663Z</time></trkpt><trkpt lat="42.27016" lon="13.799895"><ele>348.25</ele><time>2026-05-02T09:38:17.663Z</time></trkpt><trkpt lat="42.27025" lon="13.7998033"><ele>347.0</ele><time>2026-05-02T09:38:18.663Z</time></trkpt><trkpt lat="42.2703467" lon="13.7997217"><ele>347.0</ele><time>2026-05-02T09:38:19.664Z</time></trkpt><trkpt lat="42.270445" lon="13.7996483"><ele>347.0</ele><time>2026-05-02T09:38:20.664Z</time></trkpt><trkpt lat="42.27055" lon="13.7995767"><ele>347.0</ele><time>2026-05-02T09:38:21.664Z</time></trkpt><trkpt lat="42.270655" lon="13.79952"><ele>347.0</ele><time>2026-05-02T09:38:22.663Z</time></trkpt><trkpt lat="42.270765" lon="13.7994683"><ele>347.75</ele><time>2026-05-02T09:38:23.664Z</time></trkpt><trkpt lat="42.2708983" lon="13.7994233"><ele>348.5</ele><time>2026-05-02T09:38:24.664Z</time></trkpt><trkpt lat="42.271025" lon="13.7993783"><ele>349.25</ele><time>2026-05-02T09:38:25.664Z</time></trkpt><trkpt lat="42.271155" lon="13.7993267"><ele>350.0</ele><time>2026-05-02T09:38:26.663Z</time></trkpt><trkpt lat="42.2712933" lon="13.799265"><ele>349.5</ele><time>2026-05-02T09:38:27.663Z</time></trkpt><trkpt lat="42.2714333" lon="13.7992017"><ele>349.0</ele><time>2026-05-02T09:38:28.664Z</time></trkpt><trkpt lat="42.2715717" lon="13.7991317"><ele>348.5</ele><time>2026-05-02T09:38:29.664Z</time></trkpt><trkpt lat="42.2717117" lon="13.7990467"><ele>348.0</ele><time>2026-05-02T09:38:30.664Z</time></trkpt><trkpt lat="42.2718517" lon="13.7989783"><ele>348.0</ele><time>2026-05-02T09:38:31.664Z</time></trkpt><trkpt lat="42.2719817" lon="13.798905"><ele>348.0</ele><time>2026-05-02T09:38:32.663Z</time></trkpt><trkpt lat="42.27212" lon="13.7988233"><ele>348.0</ele><time>2026-05-02T09:38:33.664Z</time></trkpt><trkpt lat="42.2722383" lon="13.7987467"><ele>348.0</ele><time>2026-05-02T09:38:34.663Z</time></trkpt><trkpt lat="42.2723467" lon="13.798665"><ele>347.75</ele><time>2026-05-02T09:38:35.663Z</time></trkpt><trkpt lat="42.2724617" lon="13.798575"><ele>347.5</ele><time>2026-05-02T09:38:36.664Z</time></trkpt><trkpt lat="42.272575" lon="13.7984933"><ele>347.25</ele><time>2026-05-02T09:38:37.663Z</time></trkpt><trkpt lat="42.272685" lon="13.7984033"><ele>347.0</ele><time>2026-05-02T09:38:38.664Z</time></trkpt><trkpt lat="42.2727933" lon="13.79831"><ele>347.0</ele><time>2026-05-02T09:38:39.664Z</time></trkpt><trkpt lat="42.2729" lon="13.7982183"><ele>347.0</ele><time>2026-05-02T09:38:40.664Z</time></trkpt><trkpt lat="42.272995" lon="13.7981367"><ele>347.0</ele><time>2026-05-02T09:38:41.664Z</time></trkpt><trkpt lat="42.2730917" lon="13.7980683"><ele>347.0</ele><time>2026-05-02T09:38:42.663Z</time></trkpt><trkpt lat="42.27321" lon="13.7980067"><ele>348.25</ele><time>2026-05-02T09:38:43.664Z</time></trkpt><trkpt lat="42.2733383" lon="13.7979383"><ele>349.5</ele><time>2026-05-02T09:38:44.664Z</time></trkpt><trkpt lat="42.2734717" lon="13.7978617"><ele>350.75</ele><time>2026-05-02T09:38:45.664Z</time></trkpt><trkpt lat="42.2735933" lon="13.797775"><ele>352.0</ele><time>2026-05-02T09:38:46.663Z</time></trkpt><trkpt lat="42.2737117" lon="13.7976917"><ele>350.75</ele><time>2026-05-02T09:38:47.664Z</time></trkpt><trkpt lat="42.273835" lon="13.7976067"><ele>349.5</ele><time>2026-05-02T09:38:48.664Z</time></trkpt><trkpt lat="42.2739517" lon="13.7975233"><ele>348.25</ele><time>2026-05-02T09:38:49.664Z</time></trkpt><trkpt lat="42.2740683" lon="13.79744"><ele>347.0</ele><time>2026-05-02T09:38:50.664Z</time></trkpt><trkpt lat="42.2741733" lon="13.7973567"><ele>347.0</ele><time>2026-05-02T09:38:51.663Z</time></trkpt><trkpt lat="42.2742633" lon="13.7972667"><ele>347.0</ele><time>2026-05-02T09:38:52.663Z</time></trkpt><trkpt lat="42.2743567" lon="13.797165"><ele>347.0</ele><time>2026-05-02T09:38:53.664Z</time></trkpt><trkpt lat="42.2744517" lon="13.79707"><ele>347.0</ele><time>2026-05-02T09:38:54.663Z</time></trkpt><trkpt lat="42.2745433" lon="13.7969833"><ele>347.0</ele><time>2026-05-02T09:38:55.664Z</time></trkpt><trkpt lat="42.274645" lon="13.7969067"><ele>347.0</ele><time>2026-05-02T09:38:56.664Z</time></trkpt><trkpt lat="42.2747567" lon="13.7968317"><ele>347.0</ele><time>2026-05-02T09:38:57.664Z</time></trkpt><trkpt lat="42.2748683" lon="13.7967533"><ele>347.0</ele><time>2026-05-02T09:38:58.663Z</time></trkpt><trkpt lat="42.2749717" lon="13.796685"><ele>347.0</ele><time>2026-05-02T09:38:59.664Z</time></trkpt><trkpt lat="42.2750667" lon="13.7966167"><ele>347.0</ele><time>2026-05-02T09:39:00.664Z</time></trkpt><trkpt lat="42.2751517" lon="13.79652"><ele>347.0</ele><time>2026-05-02T09:39:01.663Z</time></trkpt><trkpt lat="42.2752383" lon="13.79641"><ele>347.0</ele><time>2026-05-02T09:39:02.663Z</time></trkpt><trkpt lat="42.275325" lon="13.7963267"><ele>347.0</ele><time>2026-05-02T09:39:03.664Z</time></trkpt><trkpt lat="42.2754117" lon="13.796275"><ele>347.0</ele><time>2026-05-02T09:39:04.664Z</time></trkpt><trkpt lat="42.275505" lon="13.7962383"><ele>347.0</ele><time>2026-05-02T09:39:05.664Z</time></trkpt><trkpt lat="42.2756033" lon="13.7962067"><ele>347.0</ele><time>2026-05-02T09:39:06.664Z</time></trkpt><trkpt lat="42.275695" lon="13.796175"><ele>347.0</ele><time>2026-05-02T09:39:07.664Z</time></trkpt><trkpt lat="42.2757783" lon="13.79612"><ele>347.0</ele><time>2026-05-02T09:39:08.663Z</time></trkpt><trkpt lat="42.2758717" lon="13.79604"><ele>347.0</ele><time>2026-05-02T09:39:09.663Z</time></trkpt><trkpt lat="42.2759667" lon="13.7959433"><ele>347.0</ele><time>2026-05-02T09:39:10.664Z</time></trkpt><trkpt lat="42.27607" lon="13.7958317"><ele>347.0</ele><time>2026-05-02T09:39:11.664Z</time></trkpt><trkpt lat="42.2761683" lon="13.795715"><ele>347.0</ele><time>2026-05-02T09:39:12.663Z</time></trkpt><trkpt lat="42.2762633" lon="13.795615"><ele>347.0</ele><time>2026-05-02T09:39:13.664Z</time></trkpt><trkpt lat="42.2763533" lon="13.7955083"><ele>347.0</ele><time>2026-05-02T09:39:14.663Z</time></trkpt><trkpt lat="42.2764433" lon="13.7954167"><ele>347.0</ele><time>2026-05-02T09:39:15.664Z</time></trkpt><trkpt lat="42.2765417" lon="13.7953467"><ele>347.0</ele><time>2026-05-02T09:39:16.664Z</time></trkpt><trkpt lat="42.276645" lon="13.7952933"><ele>347.25</ele><time>2026-05-02T09:39:17.664Z</time></trkpt><trkpt lat="42.2767633" lon="13.7952433"><ele>347.5</ele><time>2026-05-02T09:39:18.664Z</time></trkpt><trkpt lat="42.2768883" lon="13.7951983"><ele>347.75</ele><time>2026-05-02T09:39:19.663Z</time></trkpt><trkpt lat="42.2770083" lon="13.795165"><ele>348.0</ele><time>2026-05-02T09:39:20.664Z</time></trkpt><trkpt lat="42.2771267" lon="13.79514"><ele>348.0</ele><time>2026-05-02T09:39:21.663Z</time></trkpt><trkpt lat="42.2772533" lon="13.7951317"><ele>348.0</ele><time>2026-05-02T09:39:22.664Z</time></trkpt><trkpt lat="42.2773683" lon="13.7951217"><ele>348.0</ele><time>2026-05-02T09:39:23.663Z</time></trkpt><trkpt lat="42.2774733" lon="13.7951"><ele>348.0</ele><time>2026-05-02T09:39:24.664Z</time></trkpt><trkpt lat="42.2775733" lon="13.7950817"><ele>348.0</ele><time>2026-05-02T09:39:25.664Z</time></trkpt><trkpt lat="42.27768" lon="13.79508"><ele>348.25</ele><time>2026-05-02T09:39:26.663Z</time></trkpt><trkpt lat="42.2777933" lon="13.7950933"><ele>348.5</ele><time>2026-05-02T09:39:27.663Z</time></trkpt><trkpt lat="42.2779017" lon="13.7951133"><ele>348.75</ele><time>2026-05-02T09:39:28.663Z</time></trkpt><trkpt lat="42.278015" lon="13.7951483"><ele>349.0</ele><time>2026-05-02T09:39:29.663Z</time></trkpt><trkpt lat="42.2781383" lon="13.795185"><ele>350.5</ele><time>2026-05-02T09:39:30.664Z</time></trkpt><trkpt lat="42.2782667" lon="13.7952133"><ele>352.0</ele><time>2026-05-02T09:39:31.663Z</time></trkpt><trkpt lat="42.2783867" lon="13.7952417"><ele>353.5</ele><time>2026-05-02T09:39:32.663Z</time></trkpt><trkpt lat="42.2785083" lon="13.7952683"><ele>355.0</ele><time>2026-05-02T09:39:33.663Z</time></trkpt><trkpt lat="42.2786283" lon="13.795285"><ele>355.0</ele><time>2026-05-02T09:39:34.664Z</time></trkpt><trkpt lat="42.278725" lon="13.7952967"><ele>355.0</ele><time>2026-05-02T09:39:35.662Z</time></trkpt><trkpt lat="42.278805" lon="13.7952867"><ele>355.0</ele><time>2026-05-02T09:39:36.663Z</time></trkpt><trkpt lat="42.2788917" lon="13.7952633"><ele>355.0</ele><time>2026-05-02T09:39:37.662Z</time></trkpt><trkpt lat="42.278985" lon="13.7952333"><ele>355.0</ele><time>2026-05-02T09:39:38.663Z</time></trkpt><trkpt lat="42.2790867" lon="13.795205"><ele>354.4</ele><time>2026-05-02T09:39:39.662Z</time></trkpt><trkpt lat="42.2791883" lon="13.7951783"><ele>353.8</ele><time>2026-05-02T09:39:40.662Z</time></trkpt><trkpt lat="42.2792833" lon="13.7951517"><ele>353.20000000000005</ele><time>2026-05-02T09:39:41.662Z</time></trkpt><trkpt lat="42.2793717" lon="13.7951217"><ele>352.6</ele><time>2026-05-02T09:39:42.663Z</time></trkpt><trkpt lat="42.279455" lon="13.7950567"><ele>352.0</ele><time>2026-05-02T09:39:43.663Z</time></trkpt><trkpt lat="42.2795317" lon="13.7949883"><ele>350.0</ele><time>2026-05-02T09:39:44.662Z</time></trkpt><trkpt lat="42.2796033" lon="13.7949317"><ele>348.0</ele><time>2026-05-02T09:39:45.663Z</time></trkpt><trkpt lat="42.27968" lon="13.794875"><ele>346.0</ele><time>2026-05-02T09:39:46.662Z</time></trkpt><trkpt lat="42.2797617" lon="13.7948067"><ele>344.0</ele><time>2026-05-02T09:39:47.663Z</time></trkpt><trkpt lat="42.2798417" lon="13.7947367"><ele>342.0</ele><time>2026-05-02T09:39:48.662Z</time></trkpt><trkpt lat="42.2799183" lon="13.7946717"><ele>342.0</ele><time>2026-05-02T09:39:49.663Z</time></trkpt><trkpt lat="42.2800017" lon="13.794595"><ele>342.0</ele><time>2026-05-02T09:39:50.662Z</time></trkpt><trkpt lat="42.2800933" lon="13.7945067"><ele>342.0</ele><time>2026-05-02T09:39:51.663Z</time></trkpt><trkpt lat="42.2801883" lon="13.794425"><ele>342.0</ele><time>2026-05-02T09:39:52.662Z</time></trkpt><trkpt lat="42.280285" lon="13.7943417"><ele>342.0</ele><time>2026-05-02T09:39:53.663Z</time></trkpt><trkpt lat="42.280385" lon="13.7942583"><ele>342.0</ele><time>2026-05-02T09:39:54.663Z</time></trkpt><trkpt lat="42.2804833" lon="13.79417"><ele>342.0</ele><time>2026-05-02T09:39:55.663Z</time></trkpt><trkpt lat="42.2805833" lon="13.7940817"><ele>342.0</ele><time>2026-05-02T09:39:56.662Z</time></trkpt><trkpt lat="42.2806867" lon="13.7939983"><ele>342.0</ele><time>2026-05-02T09:39:57.662Z</time></trkpt><trkpt lat="42.2807867" lon="13.79392"><ele>342.0</ele><time>2026-05-02T09:39:58.662Z</time></trkpt><trkpt lat="42.2808917" lon="13.7938533"><ele>342.0</ele><time>2026-05-02T09:39:59.663Z</time></trkpt><trkpt lat="42.2809967" lon="13.7937917"><ele>342.0</ele><time>2026-05-02T09:40:00.662Z</time></trkpt><trkpt lat="42.2811017" lon="13.7937333"><ele>342.0</ele><time>2026-05-02T09:40:01.663Z</time></trkpt><trkpt lat="42.281205" lon="13.7936783"><ele>342.0</ele><time>2026-05-02T09:40:02.663Z</time></trkpt><trkpt lat="42.2813117" lon="13.7936233"><ele>342.0</ele><time>2026-05-02T09:40:03.662Z</time></trkpt><trkpt lat="42.2814167" lon="13.7935667"><ele>342.0</ele><time>2026-05-02T09:40:04.663Z</time></trkpt><trkpt lat="42.2815183" lon="13.7935117"><ele>342.0</ele><time>2026-05-02T09:40:05.662Z</time></trkpt><trkpt lat="42.2816217" lon="13.7934483"><ele>342.0</ele><time>2026-05-02T09:40:06.663Z</time></trkpt><trkpt lat="42.281725" lon="13.7933717"><ele>342.0</ele><time>2026-05-02T09:40:07.663Z</time></trkpt><trkpt lat="42.2818433" lon="13.793285"><ele>342.0</ele><time>2026-05-02T09:40:08.662Z</time></trkpt><trkpt lat="42.2819733" lon="13.7931833"><ele>342.0</ele><time>2026-05-02T09:40:09.663Z</time></trkpt><trkpt lat="42.2821083" lon="13.7930733"><ele>342.0</ele><time>2026-05-02T09:40:10.663Z</time></trkpt><trkpt lat="42.28224" lon="13.792955"><ele>342.0</ele><time>2026-05-02T09:40:11.663Z</time></trkpt><trkpt lat="42.282365" lon="13.7928267"><ele>342.0</ele><time>2026-05-02T09:40:12.663Z</time></trkpt><trkpt lat="42.2824617" lon="13.792695"><ele>342.20000000000005</ele><time>2026-05-02T09:40:13.662Z</time></trkpt><trkpt lat="42.2825383" lon="13.7925733"><ele>342.4</ele><time>2026-05-02T09:40:14.662Z</time></trkpt><trkpt lat="42.2825883" lon="13.792455"><ele>342.6</ele><time>2026-05-02T09:40:15.663Z</time></trkpt><trkpt lat="42.282625" lon="13.7923383"><ele>342.79999999999995</ele><time>2026-05-02T09:40:16.663Z</time></trkpt><trkpt lat="42.28266" lon="13.79224"><ele>343.0</ele><time>2026-05-02T09:40:17.663Z</time></trkpt><trkpt lat="42.2827167" lon="13.7921533"><ele>343.0</ele><time>2026-05-02T09:40:18.663Z</time></trkpt><trkpt lat="42.2827967" lon="13.7920583"><ele>343.0</ele><time>2026-05-02T09:40:19.662Z</time></trkpt><trkpt lat="42.2828917" lon="13.791965"><ele>343.0</ele><time>2026-05-02T09:40:20.662Z</time></trkpt><trkpt lat="42.2829983" lon="13.7918733"><ele>343.0</ele><time>2026-05-02T09:40:21.663Z</time></trkpt><trkpt lat="42.2831067" lon="13.7917783"><ele>344.0</ele><time>2026-05-02T09:40:22.663Z</time></trkpt><trkpt lat="42.2832083" lon="13.791685"><ele>345.0</ele><time>2026-05-02T09:40:23.662Z</time></trkpt><trkpt lat="42.283315" lon="13.791595"><ele>346.0</ele><time>2026-05-02T09:40:24.662Z</time></trkpt><trkpt lat="42.2834183" lon="13.7915033"><ele>347.0</ele><time>2026-05-02T09:40:25.663Z</time></trkpt><trkpt lat="42.283515" lon="13.79142"><ele>347.0</ele><time>2026-05-02T09:40:26.663Z</time></trkpt><trkpt lat="42.2836017" lon="13.7913533"><ele>347.0</ele><time>2026-05-02T09:40:27.663Z</time></trkpt><trkpt lat="42.2836733" lon="13.7913017"><ele>347.0</ele><time>2026-05-02T09:40:28.663Z</time></trkpt><trkpt lat="42.283745" lon="13.7912217"><ele>347.0</ele><time>2026-05-02T09:40:30.662Z</time></trkpt><trkpt lat="42.2836683" lon="13.7910933"><ele>347.0</ele><time>2026-05-02T09:40:33.662Z</time></trkpt><trkpt lat="42.2836" lon="13.79103"><ele>347.25</ele><time>2026-05-02T09:40:34.663Z</time></trkpt><trkpt lat="42.2835167" lon="13.790955"><ele>347.5</ele><time>2026-05-02T09:40:35.662Z</time></trkpt><trkpt lat="42.2834167" lon="13.79086"><ele>347.75</ele><time>2026-05-02T09:40:36.663Z</time></trkpt><trkpt lat="42.2833233" lon="13.7907567"><ele>348.0</ele><time>2026-05-02T09:40:37.662Z</time></trkpt><trkpt lat="42.2832383" lon="13.7906517"><ele>348.0</ele><time>2026-05-02T09:40:38.663Z</time></trkpt><trkpt lat="42.2831783" lon="13.7905583"><ele>348.0</ele><time>2026-05-02T09:40:39.662Z</time></trkpt><trkpt lat="42.2831267" lon="13.7904817"><ele>348.0</ele><time>2026-05-02T09:40:40.662Z</time></trkpt><trkpt lat="42.283065" lon="13.7903867"><ele>348.0</ele><time>2026-05-02T09:40:42.662Z</time></trkpt><trkpt lat="42.2830417" lon="13.79029"><ele>348.0</ele><time>2026-05-02T09:40:44.663Z</time></trkpt><trkpt lat="42.2830633" lon="13.790115"><ele>348.0</ele><time>2026-05-02T09:40:46.662Z</time></trkpt><trkpt lat="42.2830733" lon="13.7900217"><ele>348.0</ele><time>2026-05-02T09:40:47.663Z</time></trkpt><trkpt lat="42.283085" lon="13.78988"><ele>348.0</ele><time>2026-05-02T09:40:49.663Z</time></trkpt><trkpt lat="42.2831083" lon="13.78978"><ele>348.0</ele><time>2026-05-02T09:40:51.663Z</time></trkpt><trkpt lat="42.283155" lon="13.789685"><ele>348.0</ele><time>2026-05-02T09:40:53.662Z</time></trkpt><trkpt lat="42.2831967" lon="13.7895467"><ele>348.0</ele><time>2026-05-02T09:40:55.663Z</time></trkpt><trkpt lat="42.2832183" lon="13.789405"><ele>347.4</ele><time>2026-05-02T09:40:57.663Z</time></trkpt><trkpt lat="42.283235" lon="13.7892817"><ele>346.79999999999995</ele><time>2026-05-02T09:40:59.662Z</time></trkpt><trkpt lat="42.28326" lon="13.789145"><ele>346.2</ele><time>2026-05-02T09:41:01.662Z</time></trkpt><trkpt lat="42.2832933" lon="13.7890067"><ele>345.6</ele><time>2026-05-02T09:41:03.663Z</time></trkpt><trkpt lat="42.2833417" lon="13.7888317"><ele>345.0</ele><time>2026-05-02T09:41:05.662Z</time></trkpt><trkpt lat="42.283365" lon="13.78872"><ele>345.0</ele><time>2026-05-02T09:41:06.662Z</time></trkpt><trkpt lat="42.283385" lon="13.788615"><ele>345.0</ele><time>2026-05-02T09:41:07.662Z</time></trkpt><trkpt lat="42.2834" lon="13.7885117"><ele>345.0</ele><time>2026-05-02T09:41:08.663Z</time></trkpt><trkpt lat="42.28341" lon="13.7884017"><ele>345.0</ele><time>2026-05-02T09:41:09.663Z</time></trkpt><trkpt lat="42.2834083" lon="13.7883"><ele>345.0</ele><time>2026-05-02T09:41:10.662Z</time></trkpt><trkpt lat="42.283405" lon="13.788195"><ele>345.0</ele><time>2026-05-02T09:41:11.662Z</time></trkpt><trkpt lat="42.28339" lon="13.788085"><ele>344.2</ele><time>2026-05-02T09:41:12.663Z</time></trkpt><trkpt lat="42.2833667" lon="13.7879667"><ele>343.4</ele><time>2026-05-02T09:41:13.663Z</time></trkpt><trkpt lat="42.283335" lon="13.7878467"><ele>342.6</ele><time>2026-05-02T09:41:14.662Z</time></trkpt><trkpt lat="42.2832917" lon="13.7877383"><ele>341.8</ele><time>2026-05-02T09:41:15.662Z</time></trkpt><trkpt lat="42.283245" lon="13.78763"><ele>341.0</ele><time>2026-05-02T09:41:16.663Z</time></trkpt><trkpt lat="42.2831933" lon="13.787535"><ele>341.0</ele><time>2026-05-02T09:41:17.662Z</time></trkpt><trkpt lat="42.2831417" lon="13.787455"><ele>341.0</ele><time>2026-05-02T09:41:18.663Z</time></trkpt><trkpt lat="42.2830917" lon="13.7873717"><ele>341.0</ele><time>2026-05-02T09:41:19.663Z</time></trkpt><trkpt lat="42.2830467" lon="13.7872933"><ele>341.0</ele><time>2026-05-02T09:41:20.663Z</time></trkpt><trkpt lat="42.2830067" lon="13.787225"><ele>341.0</ele><time>2026-05-02T09:41:21.662Z</time></trkpt><trkpt lat="42.2829583" lon="13.78715"><ele>341.0</ele><time>2026-05-02T09:41:22.662Z</time></trkpt><trkpt lat="42.2829067" lon="13.7870517"><ele>341.0</ele><time>2026-05-02T09:41:23.662Z</time></trkpt><trkpt lat="42.2828483" lon="13.78693"><ele>341.0</ele><time>2026-05-02T09:41:24.662Z</time></trkpt><trkpt lat="42.282785" lon="13.7867817"><ele>341.0</ele><time>2026-05-02T09:41:25.663Z</time></trkpt><trkpt lat="42.2827167" lon="13.7866283"><ele>341.0</ele><time>2026-05-02T09:41:26.663Z</time></trkpt><trkpt lat="42.2826583" lon="13.7864867"><ele>341.0</ele><time>2026-05-02T09:41:27.663Z</time></trkpt><trkpt lat="42.2826083" lon="13.7863467"><ele>341.0</ele><time>2026-05-02T09:41:28.662Z</time></trkpt><trkpt lat="42.2825567" lon="13.7862017"><ele>341.0</ele><time>2026-05-02T09:41:29.663Z</time></trkpt><trkpt lat="42.2825083" lon="13.7860483"><ele>341.0</ele><time>2026-05-02T09:41:30.662Z</time></trkpt><trkpt lat="42.2824567" lon="13.785895"><ele>340.75</ele><time>2026-05-02T09:41:31.663Z</time></trkpt><trkpt lat="42.2824017" lon="13.7857367"><ele>340.5</ele><time>2026-05-02T09:41:32.663Z</time></trkpt><trkpt lat="42.2823533" lon="13.785565"><ele>340.25</ele><time>2026-05-02T09:41:33.663Z</time></trkpt><trkpt lat="42.2823117" lon="13.78539"><ele>340.0</ele><time>2026-05-02T09:41:34.663Z</time></trkpt><trkpt lat="42.2822667" lon="13.7852133"><ele>340.0</ele><time>2026-05-02T09:41:35.663Z</time></trkpt><trkpt lat="42.28222" lon="13.7850383"><ele>340.0</ele><time>2026-05-02T09:41:36.663Z</time></trkpt><trkpt lat="42.2821633" lon="13.7848467"><ele>340.0</ele><time>2026-05-02T09:41:37.663Z</time></trkpt><trkpt lat="42.28211" lon="13.7846433"><ele>340.0</ele><time>2026-05-02T09:41:38.662Z</time></trkpt><trkpt lat="42.2820633" lon="13.7844433"><ele>340.0</ele><time>2026-05-02T09:41:39.662Z</time></trkpt><trkpt lat="42.2820167" lon="13.784255"><ele>340.0</ele><time>2026-05-02T09:41:40.663Z</time></trkpt><trkpt lat="42.28197" lon="13.784065"><ele>340.0</ele><time>2026-05-02T09:41:41.663Z</time></trkpt><trkpt lat="42.2819183" lon="13.7838683"><ele>340.0</ele><time>2026-05-02T09:41:42.662Z</time></trkpt><trkpt lat="42.2818717" lon="13.78367"><ele>340.0</ele><time>2026-05-02T09:41:43.662Z</time></trkpt><trkpt lat="42.2818267" lon="13.7834733"><ele>339.66666666666663</ele><time>2026-05-02T09:41:44.662Z</time></trkpt><trkpt lat="42.28177" lon="13.783275"><ele>339.3333333333333</ele><time>2026-05-02T09:41:45.663Z</time></trkpt><trkpt lat="42.2817083" lon="13.7830767"><ele>339.0</ele><time>2026-05-02T09:41:46.663Z</time></trkpt><trkpt lat="42.281645" lon="13.78288"><ele>339.0</ele><time>2026-05-02T09:41:47.663Z</time></trkpt><trkpt lat="42.2815767" lon="13.7826833"><ele>339.0</ele><time>2026-05-02T09:41:48.663Z</time></trkpt><trkpt lat="42.281505" lon="13.78249"><ele>339.0</ele><time>2026-05-02T09:41:49.662Z</time></trkpt><trkpt lat="42.28143" lon="13.782295"><ele>340.0</ele><time>2026-05-02T09:41:50.663Z</time></trkpt><trkpt lat="42.2813583" lon="13.782095"><ele>341.0</ele><time>2026-05-02T09:41:51.663Z</time></trkpt><trkpt lat="42.281295" lon="13.781905"><ele>342.0</ele><time>2026-05-02T09:41:52.662Z</time></trkpt><trkpt lat="42.2812367" lon="13.7817133"><ele>342.0</ele><time>2026-05-02T09:41:53.662Z</time></trkpt><trkpt lat="42.2811717" lon="13.7815167"><ele>342.0</ele><time>2026-05-02T09:41:54.662Z</time></trkpt><trkpt lat="42.2811067" lon="13.78133"><ele>342.0</ele><time>2026-05-02T09:41:55.663Z</time></trkpt><trkpt lat="42.2810467" lon="13.7811383"><ele>341.75</ele><time>2026-05-02T09:41:56.663Z</time></trkpt><trkpt lat="42.280995" lon="13.78093"><ele>341.5</ele><time>2026-05-02T09:41:57.662Z</time></trkpt><trkpt lat="42.280945" lon="13.7807383"><ele>341.25</ele><time>2026-05-02T09:41:58.663Z</time></trkpt><trkpt lat="42.2809033" lon="13.780565"><ele>341.0</ele><time>2026-05-02T09:41:59.663Z</time></trkpt><trkpt lat="42.2808633" lon="13.780395"><ele>341.0</ele><time>2026-05-02T09:42:00.663Z</time></trkpt><trkpt lat="42.28083" lon="13.780225"><ele>341.0</ele><time>2026-05-02T09:42:01.662Z</time></trkpt><trkpt lat="42.2807917" lon="13.780065"><ele>341.0</ele><time>2026-05-02T09:42:02.663Z</time></trkpt><trkpt lat="42.2807467" lon="13.7798983"><ele>341.0</ele><time>2026-05-02T09:42:03.662Z</time></trkpt><trkpt lat="42.28069" lon="13.7797333"><ele>342.0</ele><time>2026-05-02T09:42:04.662Z</time></trkpt><trkpt lat="42.2806233" lon="13.7795767"><ele>343.0</ele><time>2026-05-02T09:42:05.663Z</time></trkpt><trkpt lat="42.2805033" lon="13.7792667"><ele>344.0</ele><time>2026-05-02T09:42:07.662Z</time></trkpt><trkpt lat="42.2804533" lon="13.7791117"><ele>344.25</ele><time>2026-05-02T09:42:08.663Z</time></trkpt><trkpt lat="42.2804167" lon="13.7789417"><ele>344.5</ele><time>2026-05-02T09:42:09.663Z</time></trkpt><trkpt lat="42.2803817" lon="13.7787533"><ele>344.75</ele><time>2026-05-02T09:42:10.663Z</time></trkpt><trkpt lat="42.2803533" lon="13.7785517"><ele>345.0</ele><time>2026-05-02T09:42:11.662Z</time></trkpt><trkpt lat="42.2803333" lon="13.7783217"><ele>345.0</ele><time>2026-05-02T09:42:12.662Z</time></trkpt><trkpt lat="42.2803017" lon="13.7780633"><ele>345.0</ele><time>2026-05-02T09:42:13.662Z</time></trkpt><trkpt lat="42.2802717" lon="13.7778117"><ele>345.0</ele><time>2026-05-02T09:42:14.663Z</time></trkpt><trkpt lat="42.2802383" lon="13.77757"><ele>345.3333333333333</ele><time>2026-05-02T09:42:15.662Z</time></trkpt><trkpt lat="42.280205" lon="13.7773467"><ele>345.66666666666663</ele><time>2026-05-02T09:42:16.662Z</time></trkpt><trkpt lat="42.28017" lon="13.7771333"><ele>346.0</ele><time>2026-05-02T09:42:17.663Z</time></trkpt><trkpt lat="42.2801283" lon="13.7769183"><ele>346.0</ele><time>2026-05-02T09:42:18.662Z</time></trkpt><trkpt lat="42.2800833" lon="13.7767017"><ele>346.0</ele><time>2026-05-02T09:42:19.662Z</time></trkpt><trkpt lat="42.2800467" lon="13.7764817"><ele>346.0</ele><time>2026-05-02T09:42:20.663Z</time></trkpt><trkpt lat="42.280015" lon="13.7762567"><ele>346.0</ele><time>2026-05-02T09:42:21.662Z</time></trkpt><trkpt lat="42.2799917" lon="13.7760483"><ele>346.0</ele><time>2026-05-02T09:42:22.662Z</time></trkpt><trkpt lat="42.2799767" lon="13.7758583"><ele>346.0</ele><time>2026-05-02T09:42:23.662Z</time></trkpt><trkpt lat="42.2799717" lon="13.775695"><ele>346.0</ele><time>2026-05-02T09:42:24.662Z</time></trkpt><trkpt lat="42.2799783" lon="13.7755683"><ele>346.0</ele><time>2026-05-02T09:42:25.662Z</time></trkpt><trkpt lat="42.2799917" lon="13.77543"><ele>346.0</ele><time>2026-05-02T09:42:27.662Z</time></trkpt><trkpt lat="42.280045" lon="13.7753617"><ele>346.0</ele><time>2026-05-02T09:42:29.661Z</time></trkpt><trkpt lat="42.2801717" lon="13.7752767"><ele>346.0</ele><time>2026-05-02T09:42:31.662Z</time></trkpt><trkpt lat="42.2802767" lon="13.7752033"><ele>346.0</ele><time>2026-05-02T09:42:32.661Z</time></trkpt><trkpt lat="42.2803967" lon="13.7751233"><ele>346.0</ele><time>2026-05-02T09:42:33.662Z</time></trkpt><trkpt lat="42.28052" lon="13.775035"><ele>346.0</ele><time>2026-05-02T09:42:34.662Z</time></trkpt><trkpt lat="42.2806367" lon="13.7749583"><ele>346.0</ele><time>2026-05-02T09:42:35.662Z</time></trkpt><trkpt lat="42.2807433" lon="13.7748817"><ele>346.0</ele><time>2026-05-02T09:42:36.661Z</time></trkpt><trkpt lat="42.2808483" lon="13.7748133"><ele>346.20000000000005</ele><time>2026-05-02T09:42:37.662Z</time></trkpt><trkpt lat="42.2809483" lon="13.7747467"><ele>346.40000000000003</ele><time>2026-05-02T09:42:38.661Z</time></trkpt><trkpt lat="42.281045" lon="13.7746833"><ele>346.6</ele><time>2026-05-02T09:42:39.661Z</time></trkpt><trkpt lat="42.2811367" lon="13.7746217"><ele>346.8</ele><time>2026-05-02T09:42:40.662Z</time></trkpt><trkpt lat="42.2812217" lon="13.7745667"><ele>347.0</ele><time>2026-05-02T09:42:41.662Z</time></trkpt><trkpt lat="42.2812983" lon="13.774515"><ele>347.0</ele><time>2026-05-02T09:42:42.661Z</time></trkpt><trkpt lat="42.2813667" lon="13.774475"><ele>347.0</ele><time>2026-05-02T09:42:43.662Z</time></trkpt><trkpt lat="42.2814517" lon="13.77444"><ele>347.0</ele><time>2026-05-02T09:42:45.661Z</time></trkpt><trkpt lat="42.2815517" lon="13.7743767"><ele>347.0</ele><time>2026-05-02T09:43:07.661Z</time></trkpt><trkpt lat="42.28154" lon="13.7742567"><ele>347.0</ele><time>2026-05-02T09:43:10.662Z</time></trkpt><trkpt lat="42.2814533" lon="13.7741433"><ele>347.8</ele><time>2026-05-02T09:43:12.662Z</time></trkpt><trkpt lat="42.2814" lon="13.77408"><ele>348.6</ele><time>2026-05-02T09:43:13.662Z</time></trkpt><trkpt lat="42.281335" lon="13.7740067"><ele>349.40000000000003</ele><time>2026-05-02T09:43:14.662Z</time></trkpt><trkpt lat="42.28126" lon="13.773915"><ele>350.20000000000005</ele><time>2026-05-02T09:43:15.661Z</time></trkpt><trkpt lat="42.28117" lon="13.7737867"><ele>351.0</ele><time>2026-05-02T09:43:16.661Z</time></trkpt><trkpt lat="42.2810517" lon="13.7736267"><ele>353.3333333333333</ele><time>2026-05-02T09:43:17.661Z</time></trkpt><trkpt lat="42.2809233" lon="13.77345"><ele>355.66666666666663</ele><time>2026-05-02T09:43:18.662Z</time></trkpt><trkpt lat="42.2808033" lon="13.7732583"><ele>358.0</ele><time>2026-05-02T09:43:19.661Z</time></trkpt><trkpt lat="42.2806967" lon="13.7730567"><ele>357.0</ele><time>2026-05-02T09:43:20.661Z</time></trkpt><trkpt lat="42.2805983" lon="13.7728567"><ele>356.0</ele><time>2026-05-02T09:43:21.662Z</time></trkpt><trkpt lat="42.2804967" lon="13.772665"><ele>355.0</ele><time>2026-05-02T09:43:22.662Z</time></trkpt><trkpt lat="42.2804083" lon="13.7724833"><ele>355.0</ele><time>2026-05-02T09:43:23.661Z</time></trkpt><trkpt lat="42.2803217" lon="13.7723267"><ele>355.0</ele><time>2026-05-02T09:43:24.662Z</time></trkpt><trkpt lat="42.2802383" lon="13.7722"><ele>355.0</ele><time>2026-05-02T09:43:25.661Z</time></trkpt><trkpt lat="42.2801317" lon="13.7721017"><ele>355.0</ele><time>2026-05-02T09:43:26.662Z</time></trkpt><trkpt lat="42.2800133" lon="13.7720133"><ele>355.0</ele><time>2026-05-02T09:43:27.661Z</time></trkpt><trkpt lat="42.2798967" lon="13.771925"><ele>355.0</ele><time>2026-05-02T09:43:28.661Z</time></trkpt><trkpt lat="42.2797917" lon="13.7718267"><ele>355.0</ele><time>2026-05-02T09:43:29.661Z</time></trkpt><trkpt lat="42.2797033" lon="13.7717017"><ele>355.0</ele><time>2026-05-02T09:43:30.661Z</time></trkpt><trkpt lat="42.2796267" lon="13.7715567"><ele>355.5</ele><time>2026-05-02T09:43:31.662Z</time></trkpt><trkpt lat="42.2795567" lon="13.7713917"><ele>356.0</ele><time>2026-05-02T09:43:32.662Z</time></trkpt><trkpt lat="42.27949" lon="13.7712083"><ele>356.5</ele><time>2026-05-02T09:43:33.662Z</time></trkpt><trkpt lat="42.2794233" lon="13.77102"><ele>357.0</ele><time>2026-05-02T09:43:34.662Z</time></trkpt><trkpt lat="42.2793583" lon="13.7708383"><ele>357.5</ele><time>2026-05-02T09:43:35.661Z</time></trkpt><trkpt lat="42.2793" lon="13.770655"><ele>358.0</ele><time>2026-05-02T09:43:36.662Z</time></trkpt><trkpt lat="42.27924" lon="13.770475"><ele>358.5</ele><time>2026-05-02T09:43:37.661Z</time></trkpt><trkpt lat="42.27918" lon="13.7703067"><ele>359.0</ele><time>2026-05-02T09:43:38.661Z</time></trkpt><trkpt lat="42.2791183" lon="13.7701467"><ele>359.25</ele><time>2026-05-02T09:43:39.661Z</time></trkpt><trkpt lat="42.2790683" lon="13.769985"><ele>359.5</ele><time>2026-05-02T09:43:40.662Z</time></trkpt><trkpt lat="42.2790133" lon="13.76983"><ele>359.75</ele><time>2026-05-02T09:43:41.661Z</time></trkpt><trkpt lat="42.27896" lon="13.7696783"><ele>360.0</ele><time>2026-05-02T09:43:42.661Z</time></trkpt><trkpt lat="42.2789167" lon="13.7695483"><ele>360.0</ele><time>2026-05-02T09:43:43.662Z</time></trkpt><trkpt lat="42.27889" lon="13.7694433"><ele>360.0</ele><time>2026-05-02T09:43:44.662Z</time></trkpt><trkpt lat="42.2789067" lon="13.7693033"><ele>360.0</ele><time>2026-05-02T09:43:46.662Z</time></trkpt><trkpt lat="42.2790133" lon="13.76917"><ele>360.0</ele><time>2026-05-02T09:43:48.662Z</time></trkpt><trkpt lat="42.2791067" lon="13.7691"><ele>360.0</ele><time>2026-05-02T09:43:49.662Z</time></trkpt><trkpt lat="42.279215" lon="13.7690267"><ele>360.75</ele><time>2026-05-02T09:43:50.662Z</time></trkpt><trkpt lat="42.27933" lon="13.7689383"><ele>361.5</ele><time>2026-05-02T09:43:51.661Z</time></trkpt><trkpt lat="42.2794583" lon="13.7688417"><ele>362.25</ele><time>2026-05-02T09:43:52.662Z</time></trkpt><trkpt lat="42.2795933" lon="13.7687333"><ele>363.0</ele><time>2026-05-02T09:43:53.662Z</time></trkpt><trkpt lat="42.2797333" lon="13.76863"><ele>364.3333333333333</ele><time>2026-05-02T09:43:54.662Z</time></trkpt><trkpt lat="42.2798717" lon="13.76852"><ele>365.66666666666663</ele><time>2026-05-02T09:43:55.661Z</time></trkpt><trkpt lat="42.2800033" lon="13.7684017"><ele>367.0</ele><time>2026-05-02T09:43:56.661Z</time></trkpt><trkpt lat="42.280125" lon="13.7682617"><ele>367.0</ele><time>2026-05-02T09:43:57.661Z</time></trkpt><trkpt lat="42.280245" lon="13.7681117"><ele>367.0</ele><time>2026-05-02T09:43:58.662Z</time></trkpt><trkpt lat="42.2803567" lon="13.7679683"><ele>367.0</ele><time>2026-05-02T09:43:59.661Z</time></trkpt><trkpt lat="42.2804717" lon="13.7678217"><ele>368.3333333333333</ele><time>2026-05-02T09:44:00.662Z</time></trkpt><trkpt lat="42.28059" lon="13.7676767"><ele>369.6666666666667</ele><time>2026-05-02T09:44:01.662Z</time></trkpt><trkpt lat="42.280715" lon="13.7675383"><ele>371.0</ele><time>2026-05-02T09:44:02.662Z</time></trkpt><trkpt lat="42.2808517" lon="13.7674017"><ele>371.0</ele><time>2026-05-02T09:44:03.661Z</time></trkpt><trkpt lat="42.2809883" lon="13.7672783"><ele>371.0</ele><time>2026-05-02T09:44:04.662Z</time></trkpt><trkpt lat="42.2811267" lon="13.767155"><ele>371.0</ele><time>2026-05-02T09:44:05.661Z</time></trkpt><trkpt lat="42.2812633" lon="13.7670333"><ele>371.0</ele><time>2026-05-02T09:44:06.661Z</time></trkpt><trkpt lat="42.281395" lon="13.7669117"><ele>371.0</ele><time>2026-05-02T09:44:07.662Z</time></trkpt><trkpt lat="42.281515" lon="13.7667967"><ele>371.0</ele><time>2026-05-02T09:44:08.661Z</time></trkpt><trkpt lat="42.2816183" lon="13.7666967"><ele>371.0</ele><time>2026-05-02T09:44:09.661Z</time></trkpt><trkpt lat="42.2817067" lon="13.7665983"><ele>372.25</ele><time>2026-05-02T09:44:10.662Z</time></trkpt><trkpt lat="42.2817867" lon="13.7664933"><ele>373.5</ele><time>2026-05-02T09:44:11.662Z</time></trkpt><trkpt lat="42.2818717" lon="13.76637"><ele>374.75</ele><time>2026-05-02T09:44:12.662Z</time></trkpt><trkpt lat="42.2819617" lon="13.7662367"><ele>376.0</ele><time>2026-05-02T09:44:13.661Z</time></trkpt><trkpt lat="42.2820633" lon="13.76609"><ele>377.3333333333333</ele><time>2026-05-02T09:44:14.662Z</time></trkpt><trkpt lat="42.2821717" lon="13.7659283"><ele>378.6666666666667</ele><time>2026-05-02T09:44:15.662Z</time></trkpt><trkpt lat="42.2822817" lon="13.7657667"><ele>380.0</ele><time>2026-05-02T09:44:16.662Z</time></trkpt><trkpt lat="42.2823917" lon="13.7656033"><ele>380.0</ele><time>2026-05-02T09:44:17.662Z</time></trkpt><trkpt lat="42.2825017" lon="13.765445"><ele>380.0</ele><time>2026-05-02T09:44:18.662Z</time></trkpt><trkpt lat="42.2826033" lon="13.7652883"><ele>380.0</ele><time>2026-05-02T09:44:19.662Z</time></trkpt><trkpt lat="42.2827067" lon="13.7651267"><ele>381.33333333333337</ele><time>2026-05-02T09:44:20.662Z</time></trkpt><trkpt lat="42.28281" lon="13.764965"><ele>382.6666666666667</ele><time>2026-05-02T09:44:21.662Z</time></trkpt><trkpt lat="42.2829183" lon="13.7648067"><ele>384.0</ele><time>2026-05-02T09:44:22.662Z</time></trkpt><trkpt lat="42.2830233" lon="13.7646567"><ele>384.25</ele><time>2026-05-02T09:44:23.662Z</time></trkpt><trkpt lat="42.2831233" lon="13.7645117"><ele>384.5</ele><time>2026-05-02T09:44:24.662Z</time></trkpt><trkpt lat="42.2832117" lon="13.7643683"><ele>384.75</ele><time>2026-05-02T09:44:25.661Z</time></trkpt><trkpt lat="42.2832917" lon="13.764245"><ele>385.0</ele><time>2026-05-02T09:44:26.661Z</time></trkpt><trkpt lat="42.2833667" lon="13.7641267"><ele>385.4</ele><time>2026-05-02T09:44:27.661Z</time></trkpt><trkpt lat="42.283435" lon="13.7640233"><ele>385.8</ele><time>2026-05-02T09:44:28.662Z</time></trkpt><trkpt lat="42.2834917" lon="13.7639333"><ele>386.20000000000005</ele><time>2026-05-02T09:44:29.662Z</time></trkpt><trkpt lat="42.2835333" lon="13.7638583"><ele>386.6</ele><time>2026-05-02T09:44:30.662Z</time></trkpt><trkpt lat="42.2835283" lon="13.7637367"><ele>387.0</ele><time>2026-05-02T09:44:38.662Z</time></trkpt><trkpt lat="42.2834117" lon="13.76372"><ele>387.0</ele><time>2026-05-02T09:44:40.661Z</time></trkpt><trkpt lat="42.2833333" lon="13.76371"><ele>387.0</ele><time>2026-05-02T09:44:41.662Z</time></trkpt><trkpt lat="42.2832567" lon="13.7637017"><ele>387.0</ele><time>2026-05-02T09:44:42.662Z</time></trkpt><trkpt lat="42.2831767" lon="13.7636933"><ele>387.0</ele><time>2026-05-02T09:44:43.662Z</time></trkpt><trkpt lat="42.2830967" lon="13.763685"><ele>387.0</ele><time>2026-05-02T09:44:44.662Z</time></trkpt><trkpt lat="42.28303" lon="13.7636783"><ele>387.0</ele><time>2026-05-02T09:44:45.662Z</time></trkpt><trkpt lat="42.282915" lon="13.7636883"><ele>387.6666666666667</ele><time>2026-05-02T09:44:47.661Z</time></trkpt><trkpt lat="42.2828317" lon="13.7637217"><ele>388.33333333333337</ele><time>2026-05-02T09:44:49.662Z</time></trkpt><trkpt lat="42.28275" lon="13.76372"><ele>389.0</ele><time>2026-05-02T09:46:04.661Z</time></trkpt><trkpt lat="42.2826667" lon="13.7636883"><ele>389.6666666666667</ele><time>2026-05-02T09:46:06.661Z</time></trkpt><trkpt lat="42.2825717" lon="13.7636517"><ele>390.33333333333337</ele><time>2026-05-02T09:46:08.661Z</time></trkpt><trkpt lat="42.2824983" lon="13.7636"><ele>391.0</ele><time>2026-05-02T09:46:16.661Z</time></trkpt><trkpt lat="42.2824367" lon="13.7635783"><ele>390.99999999999994</ele><time>2026-05-02T09:46:21.661Z</time></trkpt><trkpt lat="42.28236" lon="13.7635467"><ele>391.0</ele><time>2026-05-02T09:46:25.661Z</time></trkpt><trkpt lat="42.2822767" lon="13.7635383"><ele>391.0</ele><time>2026-05-02T09:46:28.661Z</time></trkpt><trkpt lat="42.2822067" lon="13.76356"><ele>391.0</ele><time>2026-05-02T09:46:31.66Z</time></trkpt><trkpt lat="42.2821383" lon="13.76356"><ele>391.0</ele><time>2026-05-02T09:46:33.66Z</time></trkpt><trkpt lat="42.2820683" lon="13.7635567"><ele>390.99999999999994</ele><time>2026-05-02T09:46:35.66Z</time></trkpt><trkpt lat="42.282005" lon="13.7635733"><ele>391.0</ele><time>2026-05-02T09:46:37.66Z</time></trkpt><trkpt lat="42.2819383" lon="13.76357"><ele>393.33333333333337</ele><time>2026-05-02T09:47:09.66Z</time></trkpt><trkpt lat="42.281865" lon="13.7635633"><ele>395.6666666666667</ele><time>2026-05-02T09:47:11.661Z</time></trkpt><trkpt lat="42.2817983" lon="13.763565"><ele>398.0</ele><time>2026-05-02T09:47:13.661Z</time></trkpt><trkpt lat="42.28173" lon="13.763555"><ele>400.33333333333337</ele><time>2026-05-02T09:47:15.661Z</time></trkpt><trkpt lat="42.2816383" lon="13.76355"><ele>402.6666666666667</ele><time>2026-05-02T09:47:18.66Z</time></trkpt><trkpt lat="42.2815483" lon="13.763595"><ele>405.0</ele><time>2026-05-02T09:47:20.66Z</time></trkpt><trkpt lat="42.2814733" lon="13.76363"><ele>408.8</ele><time>2026-05-02T09:47:22.66Z</time></trkpt><trkpt lat="42.281405" lon="13.7636417"><ele>412.6</ele><time>2026-05-02T09:47:24.66Z</time></trkpt><trkpt lat="42.28132" lon="13.76364"><ele>416.4</ele><time>2026-05-02T09:47:26.661Z</time></trkpt><trkpt lat="42.28122" lon="13.7636583"><ele>420.2</ele><time>2026-05-02T09:47:28.66Z</time></trkpt><trkpt lat="42.2811033" lon="13.76362"><ele>424.0</ele><time>2026-05-02T09:47:30.66Z</time></trkpt><trkpt lat="42.2810333" lon="13.763575"><ele>424.0</ele><time>2026-05-02T09:47:32.66Z</time></trkpt><trkpt lat="42.28097" lon="13.7635583"><ele>424.0</ele><time>2026-05-02T09:47:34.661Z</time></trkpt><trkpt lat="42.2809" lon="13.7635517"><ele>424.0</ele><time>2026-05-02T09:47:36.661Z</time></trkpt><trkpt lat="42.2808133" lon="13.76353"><ele>424.0</ele><time>2026-05-02T09:47:38.661Z</time></trkpt><trkpt lat="42.2806983" lon="13.76349"><ele>424.0</ele><time>2026-05-02T09:47:40.661Z</time></trkpt><trkpt lat="42.28059" lon="13.7634433"><ele>428.0</ele><time>2026-05-02T09:47:42.66Z</time></trkpt><trkpt lat="42.280495" lon="13.7634067"><ele>432.0</ele><time>2026-05-02T09:47:44.66Z</time></trkpt><trkpt lat="42.2804083" lon="13.7633967"><ele>436.0</ele><time>2026-05-02T09:47:46.661Z</time></trkpt><trkpt lat="42.2803217" lon="13.7633967"><ele>440.0</ele><time>2026-05-02T09:47:48.661Z</time></trkpt><trkpt lat="42.2802283" lon="13.76334"><ele>444.0</ele><time>2026-05-02T09:47:50.66Z</time></trkpt><trkpt lat="42.2801333" lon="13.763245"><ele>444.0</ele><time>2026-05-02T09:47:52.66Z</time></trkpt><trkpt lat="42.2800783" lon="13.7631783"><ele>444.0</ele><time>2026-05-02T09:47:53.661Z</time></trkpt><trkpt lat="42.2800183" lon="13.7631033"><ele>444.0</ele><time>2026-05-02T09:47:54.66Z</time></trkpt><trkpt lat="42.2799417" lon="13.7630217"><ele>444.0</ele><time>2026-05-02T09:47:55.66Z</time></trkpt><trkpt lat="42.279855" lon="13.7629283"><ele>444.0</ele><time>2026-05-02T09:47:56.66Z</time></trkpt><trkpt lat="42.27977" lon="13.762835"><ele>445.5</ele><time>2026-05-02T09:47:57.66Z</time></trkpt><trkpt lat="42.279695" lon="13.7627617"><ele>447.0</ele><time>2026-05-02T09:47:58.66Z</time></trkpt><trkpt lat="42.2796217" lon="13.76269"><ele>448.5</ele><time>2026-05-02T09:47:59.661Z</time></trkpt><trkpt lat="42.27954" lon="13.76263"><ele>450.0</ele><time>2026-05-02T09:48:00.66Z</time></trkpt><trkpt lat="42.2794667" lon="13.7625883"><ele>451.5</ele><time>2026-05-02T09:48:01.661Z</time></trkpt><trkpt lat="42.27939" lon="13.76256"><ele>453.0</ele><time>2026-05-02T09:48:02.66Z</time></trkpt><trkpt lat="42.2792933" lon="13.7625167"><ele>454.75</ele><time>2026-05-02T09:48:03.66Z</time></trkpt><trkpt lat="42.2791917" lon="13.7624633"><ele>456.5</ele><time>2026-05-02T09:48:04.66Z</time></trkpt><trkpt lat="42.2790767" lon="13.76241"><ele>458.25</ele><time>2026-05-02T09:48:05.66Z</time></trkpt><trkpt lat="42.2789683" lon="13.7623567"><ele>460.0</ele><time>2026-05-02T09:48:06.66Z</time></trkpt><trkpt lat="42.278865" lon="13.76231"><ele>461.8</ele><time>2026-05-02T09:48:07.659Z</time></trkpt><trkpt lat="42.2787667" lon="13.7622733"><ele>463.6</ele><time>2026-05-02T09:48:08.66Z</time></trkpt><trkpt lat="42.27866" lon="13.7622383"><ele>465.4</ele><time>2026-05-02T09:48:09.66Z</time></trkpt><trkpt lat="42.27856" lon="13.7621967"><ele>467.2</ele><time>2026-05-02T09:48:10.659Z</time></trkpt><trkpt lat="42.2784817" lon="13.7621483"><ele>469.0</ele><time>2026-05-02T09:48:11.659Z</time></trkpt><trkpt lat="42.2784133" lon="13.7620933"><ele>469.00000000000006</ele><time>2026-05-02T09:48:12.659Z</time></trkpt><trkpt lat="42.27835" lon="13.7620233"><ele>469.0</ele><time>2026-05-02T09:48:13.659Z</time></trkpt><trkpt lat="42.2783033" lon="13.7619583"><ele>469.0</ele><time>2026-05-02T09:48:14.66Z</time></trkpt><trkpt lat="42.2782263" lon="13.7618501"><ele>469.0</ele><time>2026-05-02T09:48:16.66Z</time></trkpt><trkpt lat="42.278173" lon="13.7617934"><ele>469.00000000000006</ele><time>2026-05-02T09:48:18.66Z</time></trkpt><trkpt lat="42.2780767" lon="13.7617667"><ele>469.0</ele><time>2026-05-02T09:49:38.659Z</time></trkpt><trkpt lat="42.2779667" lon="13.7617267"><ele>470.33333333333337</ele><time>2026-05-02T09:49:40.66Z</time></trkpt><trkpt lat="42.27789" lon="13.76171"><ele>471.6666666666667</ele><time>2026-05-02T09:49:41.659Z</time></trkpt><trkpt lat="42.2778167" lon="13.76169"><ele>473.0</ele><time>2026-05-02T09:49:42.66Z</time></trkpt><trkpt lat="42.2777367" lon="13.761675"><ele>474.33333333333337</ele><time>2026-05-02T09:49:43.659Z</time></trkpt><trkpt lat="42.2776567" lon="13.7616867"><ele>475.6666666666667</ele><time>2026-05-02T09:49:44.659Z</time></trkpt><trkpt lat="42.27757" lon="13.7617167"><ele>477.0</ele><time>2026-05-02T09:49:45.659Z</time></trkpt><trkpt lat="42.2774783" lon="13.7617583"><ele>477.0</ele><time>2026-05-02T09:49:46.659Z</time></trkpt><trkpt lat="42.27738" lon="13.76178"><ele>477.00000000000006</ele><time>2026-05-02T09:49:47.66Z</time></trkpt><trkpt lat="42.277275" lon="13.7617817"><ele>477.00000000000006</ele><time>2026-05-02T09:49:48.659Z</time></trkpt><trkpt lat="42.2771617" lon="13.7617617"><ele>477.0</ele><time>2026-05-02T09:49:49.659Z</time></trkpt><trkpt lat="42.2770483" lon="13.761745"><ele>477.0</ele><time>2026-05-02T09:49:50.66Z</time></trkpt><trkpt lat="42.2769317" lon="13.7617417"><ele>478.8</ele><time>2026-05-02T09:49:51.66Z</time></trkpt><trkpt lat="42.2768167" lon="13.7617467"><ele>480.6</ele><time>2026-05-02T09:49:52.659Z</time></trkpt><trkpt lat="42.27671" lon="13.761745"><ele>482.40000000000003</ele><time>2026-05-02T09:49:53.66Z</time></trkpt><trkpt lat="42.2766083" lon="13.7617233"><ele>484.20000000000005</ele><time>2026-05-02T09:49:54.659Z</time></trkpt><trkpt lat="42.276515" lon="13.7616767"><ele>486.0</ele><time>2026-05-02T09:49:55.66Z</time></trkpt><trkpt lat="42.2764167" lon="13.7616167"><ele>489.25</ele><time>2026-05-02T09:49:56.66Z</time></trkpt><trkpt lat="42.2763133" lon="13.7615583"><ele>492.5</ele><time>2026-05-02T09:49:57.66Z</time></trkpt><trkpt lat="42.2761967" lon="13.7615083"><ele>495.75</ele><time>2026-05-02T09:49:58.66Z</time></trkpt><trkpt lat="42.2760767" lon="13.7614483"><ele>499.0</ele><time>2026-05-02T09:49:59.66Z</time></trkpt><trkpt lat="42.27596" lon="13.76137"><ele>499.0</ele><time>2026-05-02T09:50:00.66Z</time></trkpt><trkpt lat="42.2758583" lon="13.7612833"><ele>499.0</ele><time>2026-05-02T09:50:01.659Z</time></trkpt><trkpt lat="42.2757617" lon="13.7611967"><ele>499.0</ele><time>2026-05-02T09:50:02.659Z</time></trkpt><trkpt lat="42.2756583" lon="13.7611167"><ele>499.0</ele><time>2026-05-02T09:50:03.66Z</time></trkpt><trkpt lat="42.2755517" lon="13.7610433"><ele>500.0</ele><time>2026-05-02T09:50:04.66Z</time></trkpt><trkpt lat="42.275445" lon="13.76097"><ele>501.0</ele><time>2026-05-02T09:50:05.659Z</time></trkpt><trkpt lat="42.2753333" lon="13.760895"><ele>502.0</ele><time>2026-05-02T09:50:06.66Z</time></trkpt><trkpt lat="42.275225" lon="13.76082"><ele>503.0</ele><time>2026-05-02T09:50:07.66Z</time></trkpt><trkpt lat="42.2751067" lon="13.7607483"><ele>503.0</ele><time>2026-05-02T09:50:08.66Z</time></trkpt><trkpt lat="42.274995" lon="13.7606817"><ele>502.99999999999994</ele><time>2026-05-02T09:50:09.66Z</time></trkpt><trkpt lat="42.2749" lon="13.7606217"><ele>502.99999999999994</ele><time>2026-05-02T09:50:10.659Z</time></trkpt><trkpt lat="42.274825" lon="13.7605783"><ele>503.0</ele><time>2026-05-02T09:50:11.659Z</time></trkpt><trkpt lat="42.2747633" lon="13.7605483"><ele>503.0</ele><time>2026-05-02T09:50:12.66Z</time></trkpt><trkpt lat="42.2747017" lon="13.7604883"><ele>502.99999999999994</ele><time>2026-05-02T09:50:14.66Z</time></trkpt><trkpt lat="42.2747217" lon="13.760405"><ele>503.0</ele><time>2026-05-02T09:50:16.659Z</time></trkpt><trkpt lat="42.27481" lon="13.7602967"><ele>503.0</ele><time>2026-05-02T09:50:18.659Z</time></trkpt><trkpt lat="42.2748667" lon="13.7602267"><ele>503.0</ele><time>2026-05-02T09:50:19.66Z</time></trkpt><trkpt lat="42.2749283" lon="13.7601467"><ele>502.99999999999994</ele><time>2026-05-02T09:50:20.66Z</time></trkpt><trkpt lat="42.2749933" lon="13.7600583"><ele>503.0</ele><time>2026-05-02T09:50:21.659Z</time></trkpt><trkpt lat="42.2750667" lon="13.759965"><ele>503.0</ele><time>2026-05-02T09:50:22.659Z</time></trkpt><trkpt lat="42.27514" lon="13.759855"><ele>503.0</ele><time>2026-05-02T09:50:23.66Z</time></trkpt><trkpt lat="42.27522" lon="13.7597367"><ele>503.0</ele><time>2026-05-02T09:50:24.66Z</time></trkpt><trkpt lat="42.2753" lon="13.75961"><ele>503.0</ele><time>2026-05-02T09:50:25.659Z</time></trkpt><trkpt lat="42.2753817" lon="13.7594733"><ele>503.75</ele><time>2026-05-02T09:50:26.66Z</time></trkpt><trkpt lat="42.27546" lon="13.7593417"><ele>504.5</ele><time>2026-05-02T09:50:27.66Z</time></trkpt><trkpt lat="42.2755417" lon="13.75921"><ele>505.25</ele><time>2026-05-02T09:50:28.659Z</time></trkpt><trkpt lat="42.2756283" lon="13.7590867"><ele>506.0</ele><time>2026-05-02T09:50:29.659Z</time></trkpt><trkpt lat="42.27572" lon="13.75897"><ele>503.49999999999994</ele><time>2026-05-02T09:50:30.659Z</time></trkpt><trkpt lat="42.2757983" lon="13.758865"><ele>501.0</ele><time>2026-05-02T09:50:31.66Z</time></trkpt><trkpt lat="42.2758633" lon="13.758785"><ele>498.5</ele><time>2026-05-02T09:50:32.66Z</time></trkpt><trkpt lat="42.2759167" lon="13.7587233"><ele>496.0</ele><time>2026-05-02T09:50:33.66Z</time></trkpt><trkpt lat="42.27595" lon="13.75865"><ele>493.49999999999994</ele><time>2026-05-02T09:50:35.66Z</time></trkpt><trkpt lat="42.2758683" lon="13.75862"><ele>491.0</ele><time>2026-05-02T09:50:38.66Z</time></trkpt><trkpt lat="42.275795" lon="13.75863"><ele>491.0</ele><time>2026-05-02T09:50:40.659Z</time></trkpt><trkpt lat="42.2757" lon="13.75865"><ele>491.0</ele><time>2026-05-02T09:50:42.659Z</time></trkpt><trkpt lat="42.2755983" lon="13.7586767"><ele>491.0</ele><time>2026-05-02T09:50:44.659Z</time></trkpt><trkpt lat="42.2754767" lon="13.75871"><ele>491.0</ele><time>2026-05-02T09:50:46.66Z</time></trkpt><trkpt lat="42.2753517" lon="13.7587433"><ele>493.49999999999994</ele><time>2026-05-02T09:50:48.66Z</time></trkpt><trkpt lat="42.2752867" lon="13.7587567"><ele>496.0</ele><time>2026-05-02T09:50:49.659Z</time></trkpt><trkpt lat="42.2752083" lon="13.7587683"><ele>498.5</ele><time>2026-05-02T09:50:50.659Z</time></trkpt><trkpt lat="42.275135" lon="13.75878"><ele>501.0</ele><time>2026-05-02T09:50:51.659Z</time></trkpt><trkpt lat="42.2750517" lon="13.7588033"><ele>503.49999999999994</ele><time>2026-05-02T09:50:52.659Z</time></trkpt><trkpt lat="42.2749667" lon="13.7588233"><ele>506.0</ele><time>2026-05-02T09:50:53.66Z</time></trkpt><trkpt lat="42.2748783" lon="13.758835"><ele>505.99999999999994</ele><time>2026-05-02T09:50:54.66Z</time></trkpt><trkpt lat="42.2748067" lon="13.7588433"><ele>506.0</ele><time>2026-05-02T09:50:55.658Z</time></trkpt><trkpt lat="42.2747017" lon="13.758865"><ele>506.0</ele><time>2026-05-02T09:50:57.659Z</time></trkpt><trkpt lat="42.2746083" lon="13.7589033"><ele>506.0</ele><time>2026-05-02T09:50:59.659Z</time></trkpt><trkpt lat="42.2745467" lon="13.7589267"><ele>505.99999999999994</ele><time>2026-05-02T09:51:00.658Z</time></trkpt><trkpt lat="42.2744383" lon="13.75894"><ele>506.0</ele><time>2026-05-02T09:51:02.659Z</time></trkpt><trkpt lat="42.2743717" lon="13.7589567"><ele>507.8</ele><time>2026-05-02T09:52:24.659Z</time></trkpt><trkpt lat="42.274275" lon="13.7589683"><ele>509.6</ele><time>2026-05-02T09:52:28.659Z</time></trkpt><trkpt lat="42.2741867" lon="13.7590017"><ele>511.4</ele><time>2026-05-02T09:52:30.658Z</time></trkpt><trkpt lat="42.2740967" lon="13.7590633"><ele>513.2</ele><time>2026-05-02T09:52:32.659Z</time></trkpt><trkpt lat="42.2740083" lon="13.7591283"><ele>515.0</ele><time>2026-05-02T09:52:34.659Z</time></trkpt><trkpt lat="42.2739667" lon="13.7592167"><ele>515.0</ele><time>2026-05-02T09:52:36.659Z</time></trkpt><trkpt lat="42.2739583" lon="13.7593217"><ele>515.0</ele><time>2026-05-02T09:52:38.659Z</time></trkpt><trkpt lat="42.2739367" lon="13.7594017"><ele>515.0</ele><time>2026-05-02T09:52:40.659Z</time></trkpt><trkpt lat="42.2739067" lon="13.7594917"><ele>515.0</ele><time>2026-05-02T09:52:55.658Z</time></trkpt><trkpt lat="42.2738533" lon="13.75961"><ele>515.0</ele><time>2026-05-02T09:52:57.659Z</time></trkpt><trkpt lat="42.273775" lon="13.7597067"><ele>515.0</ele><time>2026-05-02T09:52:59.658Z</time></trkpt><trkpt lat="42.2737117" lon="13.7597533"><ele>516.8</ele><time>2026-05-02T09:53:01.659Z</time></trkpt><trkpt lat="42.273605" lon="13.75975"><ele>518.6</ele><time>2026-05-02T09:53:04.659Z</time></trkpt><trkpt lat="42.2735083" lon="13.7597117"><ele>520.4</ele><time>2026-05-02T09:53:06.659Z</time></trkpt><trkpt lat="42.273395" lon="13.759705"><ele>522.2</ele><time>2026-05-02T09:53:08.659Z</time></trkpt><trkpt lat="42.2733083" lon="13.75972"><ele>524.0</ele><time>2026-05-02T09:53:09.659Z</time></trkpt><trkpt lat="42.2732083" lon="13.759745"><ele>524.0</ele><time>2026-05-02T09:53:10.659Z</time></trkpt><trkpt lat="42.2731183" lon="13.7597717"><ele>524.0</ele><time>2026-05-02T09:53:11.658Z</time></trkpt><trkpt lat="42.2730367" lon="13.7597883"><ele>524.0</ele><time>2026-05-02T09:53:12.658Z</time></trkpt><trkpt lat="42.2729567" lon="13.7597867"><ele>524.0</ele><time>2026-05-02T09:53:13.659Z</time></trkpt><trkpt lat="42.2728733" lon="13.7597667"><ele>524.0</ele><time>2026-05-02T09:53:14.659Z</time></trkpt><trkpt lat="42.2727833" lon="13.7597383"><ele>524.0</ele><time>2026-05-02T09:53:15.659Z</time></trkpt><trkpt lat="42.2726917" lon="13.7597017"><ele>524.5</ele><time>2026-05-02T09:53:16.658Z</time></trkpt><trkpt lat="42.2726083" lon="13.7596683"><ele>525.0</ele><time>2026-05-02T09:53:17.659Z</time></trkpt><trkpt lat="42.2725317" lon="13.759635"><ele>525.5</ele><time>2026-05-02T09:53:18.658Z</time></trkpt><trkpt lat="42.2724683" lon="13.7596033"><ele>526.0</ele><time>2026-05-02T09:53:19.659Z</time></trkpt><trkpt lat="42.2724067" lon="13.759575"><ele>526.5</ele><time>2026-05-02T09:53:20.659Z</time></trkpt><trkpt lat="42.2723367" lon="13.7595417"><ele>527.0</ele><time>2026-05-02T09:53:21.658Z</time></trkpt><trkpt lat="42.272265" lon="13.7595033"><ele>527.3333333333333</ele><time>2026-05-02T09:53:22.658Z</time></trkpt><trkpt lat="42.27219" lon="13.75946"><ele>527.6666666666666</ele><time>2026-05-02T09:53:23.658Z</time></trkpt><trkpt lat="42.272115" lon="13.7594133"><ele>528.0</ele><time>2026-05-02T09:53:24.659Z</time></trkpt><trkpt lat="42.2720483" lon="13.75936"><ele>528.3333333333334</ele><time>2026-05-02T09:53:25.659Z</time></trkpt><trkpt lat="42.2719933" lon="13.7592917"><ele>528.6666666666667</ele><time>2026-05-02T09:53:26.659Z</time></trkpt><trkpt lat="42.2719617" lon="13.7592083"><ele>529.0</ele><time>2026-05-02T09:53:27.659Z</time></trkpt><trkpt lat="42.2719367" lon="13.75912"><ele>529.8</ele><time>2026-05-02T09:53:28.659Z</time></trkpt><trkpt lat="42.2718667" lon="13.7589883"><ele>530.5999999999999</ele><time>2026-05-02T09:53:30.659Z</time></trkpt><trkpt lat="42.271795" lon="13.7589083"><ele>531.4</ele><time>2026-05-02T09:53:32.658Z</time></trkpt><trkpt lat="42.2717317" lon="13.7588667"><ele>532.1999999999999</ele><time>2026-05-02T09:53:35.658Z</time></trkpt><trkpt lat="42.2716533" lon="13.7588333"><ele>533.0</ele><time>2026-05-02T09:53:37.659Z</time></trkpt><trkpt lat="42.2715433" lon="13.7587783"><ele>533.0</ele><time>2026-05-02T09:53:39.658Z</time></trkpt><trkpt lat="42.2714767" lon="13.758755"><ele>533.0</ele><time>2026-05-02T09:53:40.659Z</time></trkpt><trkpt lat="42.2714017" lon="13.7587367"><ele>533.0</ele><time>2026-05-02T09:53:41.659Z</time></trkpt><trkpt lat="42.2713083" lon="13.7587217"><ele>533.0</ele><time>2026-05-02T09:53:42.658Z</time></trkpt><trkpt lat="42.271205" lon="13.7587117"><ele>533.0</ele><time>2026-05-02T09:53:43.659Z</time></trkpt><trkpt lat="42.2710883" lon="13.75871"><ele>532.5</ele><time>2026-05-02T09:53:44.658Z</time></trkpt><trkpt lat="42.2709733" lon="13.7587"><ele>532.0</ele><time>2026-05-02T09:53:45.659Z</time></trkpt><trkpt lat="42.2708567" lon="13.7587"><ele>531.5</ele><time>2026-05-02T09:53:46.659Z</time></trkpt><trkpt lat="42.270745" lon="13.7586983"><ele>531.0</ele><time>2026-05-02T09:53:47.659Z</time></trkpt><trkpt lat="42.27063" lon="13.7587067"><ele>531.25</ele><time>2026-05-02T09:53:48.658Z</time></trkpt><trkpt lat="42.270515" lon="13.758725"><ele>531.5</ele><time>2026-05-02T09:53:49.659Z</time></trkpt><trkpt lat="42.2703967" lon="13.75875"><ele>531.75</ele><time>2026-05-02T09:53:50.659Z</time></trkpt><trkpt lat="42.2702683" lon="13.75878"><ele>532.0</ele><time>2026-05-02T09:53:51.658Z</time></trkpt><trkpt lat="42.270125" lon="13.7588117"><ele>532.0</ele><time>2026-05-02T09:53:52.657Z</time></trkpt><trkpt lat="42.2699817" lon="13.75884"><ele>532.0</ele><time>2026-05-02T09:53:53.658Z</time></trkpt><trkpt lat="42.2698517" lon="13.75888"><ele>532.0</ele><time>2026-05-02T09:53:54.658Z</time></trkpt><trkpt lat="42.2697383" lon="13.7589317"><ele>532.0</ele><time>2026-05-02T09:53:55.658Z</time></trkpt><trkpt lat="42.2696333" lon="13.759"><ele>532.2</ele><time>2026-05-02T09:53:56.658Z</time></trkpt><trkpt lat="42.2695267" lon="13.759065"><ele>532.4000000000001</ele><time>2026-05-02T09:53:57.658Z</time></trkpt><trkpt lat="42.2694167" lon="13.7591183"><ele>532.5999999999999</ele><time>2026-05-02T09:53:58.658Z</time></trkpt><trkpt lat="42.2693117" lon="13.7591583"><ele>532.8</ele><time>2026-05-02T09:53:59.657Z</time></trkpt><trkpt lat="42.2692183" lon="13.7591933"><ele>533.0</ele><time>2026-05-02T09:54:00.657Z</time></trkpt><trkpt lat="42.26913" lon="13.7592283"><ele>533.0</ele><time>2026-05-02T09:54:01.658Z</time></trkpt><trkpt lat="42.2690583" lon="13.759275"><ele>533.0</ele><time>2026-05-02T09:54:02.657Z</time></trkpt><trkpt lat="42.2689917" lon="13.75939"><ele>533.0</ele><time>2026-05-02T09:54:04.658Z</time></trkpt><trkpt lat="42.268975" lon="13.75953"><ele>533.0</ele><time>2026-05-02T09:54:06.658Z</time></trkpt><trkpt lat="42.2689467" lon="13.75964"><ele>533.0</ele><time>2026-05-02T09:54:08.657Z</time></trkpt><trkpt lat="42.2689" lon="13.7597167"><ele>533.8</ele><time>2026-05-02T09:54:10.657Z</time></trkpt><trkpt lat="42.2688567" lon="13.75985"><ele>534.5999999999999</ele><time>2026-05-02T09:54:12.657Z</time></trkpt><trkpt lat="42.268815" lon="13.7600217"><ele>535.4000000000001</ele><time>2026-05-02T09:54:14.657Z</time></trkpt><trkpt lat="42.2687883" lon="13.7601183"><ele>536.2</ele><time>2026-05-02T09:54:15.658Z</time></trkpt><trkpt lat="42.2687583" lon="13.7602183"><ele>537.0</ele><time>2026-05-02T09:54:16.658Z</time></trkpt><trkpt lat="42.2687317" lon="13.7603167"><ele>537.0</ele><time>2026-05-02T09:54:17.657Z</time></trkpt><trkpt lat="42.2687067" lon="13.7604133"><ele>537.0</ele><time>2026-05-02T09:54:18.657Z</time></trkpt><trkpt lat="42.2686783" lon="13.7605117"><ele>537.0</ele><time>2026-05-02T09:54:19.657Z</time></trkpt><trkpt lat="42.2686533" lon="13.7606117"><ele>537.0</ele><time>2026-05-02T09:54:20.658Z</time></trkpt><trkpt lat="42.268625" lon="13.7607033"><ele>537.0</ele><time>2026-05-02T09:54:21.658Z</time></trkpt><trkpt lat="42.2685967" lon="13.7607967"><ele>537.0</ele><time>2026-05-02T09:54:22.658Z</time></trkpt><trkpt lat="42.26857" lon="13.7608867"><ele>537.0</ele><time>2026-05-02T09:54:23.657Z</time></trkpt><trkpt lat="42.2685483" lon="13.76097"><ele>537.0</ele><time>2026-05-02T09:54:24.658Z</time></trkpt><trkpt lat="42.2685217" lon="13.76105"><ele>537.0</ele><time>2026-05-02T09:54:25.657Z</time></trkpt><trkpt lat="42.26848" lon="13.7611833"><ele>537.0</ele><time>2026-05-02T09:54:27.657Z</time></trkpt><trkpt lat="42.2684567" lon="13.7612633"><ele>537.0</ele><time>2026-05-02T09:54:29.657Z</time></trkpt><trkpt lat="42.2685217" lon="13.76117"><ele>537.0</ele><time>2026-05-02T09:54:35.658Z</time></trkpt><trkpt lat="42.2685417" lon="13.761085"><ele>537.0</ele><time>2026-05-02T09:54:36.657Z</time></trkpt><trkpt lat="42.2685617" lon="13.7610017"><ele>537.0</ele><time>2026-05-02T09:54:37.657Z</time></trkpt><trkpt lat="42.26859" lon="13.7609067"><ele>537.0</ele><time>2026-05-02T09:54:38.657Z</time></trkpt><trkpt lat="42.2686167" lon="13.7607933"><ele>537.0</ele><time>2026-05-02T09:54:39.657Z</time></trkpt><trkpt lat="42.26865" lon="13.7606633"><ele>537.0</ele><time>2026-05-02T09:54:40.657Z</time></trkpt><trkpt lat="42.2686817" lon="13.7605267"><ele>537.0</ele><time>2026-05-02T09:54:41.657Z</time></trkpt><trkpt lat="42.2687183" lon="13.760395"><ele>537.0</ele><time>2026-05-02T09:54:42.657Z</time></trkpt><trkpt lat="42.2687567" lon="13.7602683"><ele>537.0</ele><time>2026-05-02T09:54:43.658Z</time></trkpt><trkpt lat="42.2687967" lon="13.7601417"><ele>537.0</ele><time>2026-05-02T09:54:44.658Z</time></trkpt><trkpt lat="42.2688283" lon="13.760025"><ele>537.0</ele><time>2026-05-02T09:54:45.658Z</time></trkpt><trkpt lat="42.2688567" lon="13.7599233"><ele>537.0</ele><time>2026-05-02T09:54:46.657Z</time></trkpt><trkpt lat="42.2688833" lon="13.75982"><ele>537.1666666666666</ele><time>2026-05-02T09:54:47.658Z</time></trkpt><trkpt lat="42.2689" lon="13.7597083"><ele>537.3333333333334</ele><time>2026-05-02T09:54:48.658Z</time></trkpt><trkpt lat="42.2689017" lon="13.759595"><ele>537.5</ele><time>2026-05-02T09:54:49.658Z</time></trkpt><trkpt lat="42.268875" lon="13.7594917"><ele>537.6666666666667</ele><time>2026-05-02T09:54:50.658Z</time></trkpt><trkpt lat="42.26883" lon="13.75942"><ele>537.8333333333334</ele><time>2026-05-02T09:54:51.657Z</time></trkpt><trkpt lat="42.2687467" lon="13.7593633"><ele>538.0</ele><time>2026-05-02T09:54:53.657Z</time></trkpt><trkpt lat="42.2686833" lon="13.7594367"><ele>538.0</ele><time>2026-05-02T09:54:56.657Z</time></trkpt><trkpt lat="42.2686383" lon="13.759535"><ele>538.0</ele><time>2026-05-02T09:54:58.658Z</time></trkpt><trkpt lat="42.2685867" lon="13.75965"><ele>538.0</ele><time>2026-05-02T09:55:00.658Z</time></trkpt><trkpt lat="42.2685367" lon="13.7597567"><ele>538.0</ele><time>2026-05-02T09:55:02.657Z</time></trkpt><trkpt lat="42.2684683" lon="13.75988"><ele>538.0</ele><time>2026-05-02T09:55:04.657Z</time></trkpt><trkpt lat="42.26839" lon="13.76002"><ele>538.0</ele><time>2026-05-02T09:55:06.658Z</time></trkpt><trkpt lat="42.2683483" lon="13.7601033"><ele>538.0</ele><time>2026-05-02T09:55:07.657Z</time></trkpt><trkpt lat="42.2682983" lon="13.7601817"><ele>538.0</ele><time>2026-05-02T09:55:08.658Z</time></trkpt><trkpt lat="42.2682483" lon="13.7602483"><ele>538.0</ele><time>2026-05-02T09:55:09.657Z</time></trkpt><trkpt lat="42.268195" lon="13.7603183"><ele>538.0</ele><time>2026-05-02T09:55:10.657Z</time></trkpt><trkpt lat="42.268145" lon="13.7603833"><ele>538.0</ele><time>2026-05-02T09:55:11.658Z</time></trkpt><trkpt lat="42.2680983" lon="13.7604433"><ele>538.0</ele><time>2026-05-02T09:55:12.658Z</time></trkpt><trkpt lat="42.26805" lon="13.760505"><ele>538.6666666666667</ele><time>2026-05-02T09:55:13.657Z</time></trkpt><trkpt lat="42.2679583" lon="13.760625"><ele>539.3333333333334</ele><time>2026-05-02T09:55:15.658Z</time></trkpt><trkpt lat="42.2679067" lon="13.7606883"><ele>540.0</ele><time>2026-05-02T09:55:16.658Z</time></trkpt><trkpt lat="42.2678533" lon="13.76076"><ele>540.6666666666666</ele><time>2026-05-02T09:55:17.657Z</time></trkpt><trkpt lat="42.2677933" lon="13.76084"><ele>541.3333333333333</ele><time>2026-05-02T09:55:18.658Z</time></trkpt><trkpt lat="42.2677417" lon="13.7609217"><ele>542.0</ele><time>2026-05-02T09:55:19.658Z</time></trkpt><trkpt lat="42.2676917" lon="13.7609967"><ele>541.8571428571429</ele><time>2026-05-02T09:55:20.658Z</time></trkpt><trkpt lat="42.26764" lon="13.76107"><ele>541.7142857142858</ele><time>2026-05-02T09:55:21.657Z</time></trkpt><trkpt lat="42.26759" lon="13.7611467"><ele>541.5714285714287</ele><time>2026-05-02T09:55:22.658Z</time></trkpt><trkpt lat="42.2675467" lon="13.7612183"><ele>541.4285714285714</ele><time>2026-05-02T09:55:23.657Z</time></trkpt><trkpt lat="42.2675033" lon="13.761295"><ele>541.2857142857143</ele><time>2026-05-02T09:55:24.658Z</time></trkpt><trkpt lat="42.26746" lon="13.7613717"><ele>541.1428571428572</ele><time>2026-05-02T09:55:25.657Z</time></trkpt><trkpt lat="42.2674167" lon="13.761445"><ele>541.0</ele><time>2026-05-02T09:55:26.657Z</time></trkpt><trkpt lat="42.2673283" lon="13.7615533"><ele>540.8</ele><time>2026-05-02T09:55:28.658Z</time></trkpt><trkpt lat="42.267225" lon="13.7616317"><ele>540.6</ele><time>2026-05-02T09:55:30.658Z</time></trkpt><trkpt lat="42.26713" lon="13.7617017"><ele>540.4</ele><time>2026-05-02T09:55:32.658Z</time></trkpt><trkpt lat="42.267065" lon="13.7617517"><ele>540.2</ele><time>2026-05-02T09:55:34.657Z</time></trkpt><trkpt lat="42.2670017" lon="13.76182"><ele>540.0</ele><time>2026-05-02T09:55:45.658Z</time></trkpt><trkpt lat="42.26694" lon="13.76193"><ele>541.6</ele><time>2026-05-02T09:55:47.658Z</time></trkpt><trkpt lat="42.2669033" lon="13.76202"><ele>543.2</ele><time>2026-05-02T09:55:48.658Z</time></trkpt><trkpt lat="42.2668617" lon="13.762115"><ele>544.8</ele><time>2026-05-02T09:55:49.658Z</time></trkpt><trkpt lat="42.2668117" lon="13.7622183"><ele>546.4</ele><time>2026-05-02T09:55:50.657Z</time></trkpt><trkpt lat="42.26676" lon="13.762325"><ele>548.0</ele><time>2026-05-02T09:55:51.658Z</time></trkpt><trkpt lat="42.2666917" lon="13.762435"><ele>548.0</ele><time>2026-05-02T09:55:52.658Z</time></trkpt><trkpt lat="42.2666217" lon="13.76254"><ele>548.0</ele><time>2026-05-02T09:55:53.657Z</time></trkpt><trkpt lat="42.2665383" lon="13.762625"><ele>548.0</ele><time>2026-05-02T09:55:54.658Z</time></trkpt><trkpt lat="42.2664483" lon="13.7627067"><ele>548.0</ele><time>2026-05-02T09:55:55.658Z</time></trkpt><trkpt lat="42.266365" lon="13.76281"><ele>548.0</ele><time>2026-05-02T09:55:56.657Z</time></trkpt><trkpt lat="42.2662883" lon="13.7629017"><ele>549.4</ele><time>2026-05-02T09:55:57.657Z</time></trkpt><trkpt lat="42.2662" lon="13.7629817"><ele>550.8</ele><time>2026-05-02T09:55:58.658Z</time></trkpt><trkpt lat="42.2661067" lon="13.7630417"><ele>552.2</ele><time>2026-05-02T09:55:59.657Z</time></trkpt><trkpt lat="42.266005" lon="13.7630833"><ele>553.6</ele><time>2026-05-02T09:56:00.657Z</time></trkpt><trkpt lat="42.2659017" lon="13.7631083"><ele>555.0</ele><time>2026-05-02T09:56:01.657Z</time></trkpt><trkpt lat="42.2657917" lon="13.763135"><ele>555.0</ele><time>2026-05-02T09:56:02.657Z</time></trkpt><trkpt lat="42.2656833" lon="13.7631733"><ele>555.0</ele><time>2026-05-02T09:56:03.657Z</time></trkpt><trkpt lat="42.2655817" lon="13.76323"><ele>555.0</ele><time>2026-05-02T09:56:04.658Z</time></trkpt><trkpt lat="42.26548" lon="13.7632967"><ele>555.0</ele><time>2026-05-02T09:56:05.658Z</time></trkpt><trkpt lat="42.2653733" lon="13.763355"><ele>557.0</ele><time>2026-05-02T09:56:06.657Z</time></trkpt><trkpt lat="42.2652467" lon="13.76338"><ele>559.0</ele><time>2026-05-02T09:56:07.658Z</time></trkpt><trkpt lat="42.2651083" lon="13.7633733"><ele>561.0</ele><time>2026-05-02T09:56:08.657Z</time></trkpt><trkpt lat="42.2649583" lon="13.7633517"><ele>563.0</ele><time>2026-05-02T09:56:09.657Z</time></trkpt><trkpt lat="42.2648267" lon="13.7633317"><ele>563.25</ele><time>2026-05-02T09:56:10.658Z</time></trkpt><trkpt lat="42.2647017" lon="13.7633333"><ele>563.5</ele><time>2026-05-02T09:56:11.657Z</time></trkpt><trkpt lat="42.2645783" lon="13.763355"><ele>563.75</ele><time>2026-05-02T09:56:12.658Z</time></trkpt><trkpt lat="42.2644467" lon="13.763405"><ele>564.0</ele><time>2026-05-02T09:56:13.658Z</time></trkpt><trkpt lat="42.2643067" lon="13.763475"><ele>568.3333333333334</ele><time>2026-05-02T09:56:14.658Z</time></trkpt><trkpt lat="42.2641667" lon="13.7635417"><ele>572.6666666666667</ele><time>2026-05-02T09:56:15.657Z</time></trkpt><trkpt lat="42.2640267" lon="13.7636233"><ele>577.0</ele><time>2026-05-02T09:56:16.657Z</time></trkpt><trkpt lat="42.263885" lon="13.7637217"><ele>577.0</ele><time>2026-05-02T09:56:17.658Z</time></trkpt><trkpt lat="42.263745" lon="13.7638383"><ele>577.0</ele><time>2026-05-02T09:56:18.658Z</time></trkpt><trkpt lat="42.2636133" lon="13.7639483"><ele>577.0</ele><time>2026-05-02T09:56:19.658Z</time></trkpt><trkpt lat="42.2634867" lon="13.7640483"><ele>577.0</ele><time>2026-05-02T09:56:20.658Z</time></trkpt><trkpt lat="42.2633533" lon="13.76415"><ele>577.0</ele><time>2026-05-02T09:56:21.657Z</time></trkpt><trkpt lat="42.263225" lon="13.764245"><ele>577.0</ele><time>2026-05-02T09:56:22.657Z</time></trkpt><trkpt lat="42.2630967" lon="13.7643317"><ele>577.0</ele><time>2026-05-02T09:56:23.657Z</time></trkpt><trkpt lat="42.2629667" lon="13.7644167"><ele>580.75</ele><time>2026-05-02T09:56:24.657Z</time></trkpt><trkpt lat="42.2628333" lon="13.7644967"><ele>584.5</ele><time>2026-05-02T09:56:25.657Z</time></trkpt><trkpt lat="42.262705" lon="13.764565"><ele>588.25</ele><time>2026-05-02T09:56:26.657Z</time></trkpt><trkpt lat="42.26257" lon="13.7646017"><ele>592.0</ele><time>2026-05-02T09:56:27.658Z</time></trkpt><trkpt lat="42.26243" lon="13.7646217"><ele>592.3333333333334</ele><time>2026-05-02T09:56:28.657Z</time></trkpt><trkpt lat="42.2622633" lon="13.7646667"><ele>592.6666666666666</ele><time>2026-05-02T09:56:29.657Z</time></trkpt><trkpt lat="42.2620983" lon="13.7647283"><ele>593.0</ele><time>2026-05-02T09:56:30.658Z</time></trkpt><trkpt lat="42.261945" lon="13.7647983"><ele>593.0</ele><time>2026-05-02T09:56:31.657Z</time></trkpt><trkpt lat="42.2618033" lon="13.76486"><ele>593.0</ele><time>2026-05-02T09:56:32.658Z</time></trkpt><trkpt lat="42.26165" lon="13.7649067"><ele>593.0</ele><time>2026-05-02T09:56:33.658Z</time></trkpt><trkpt lat="42.2614917" lon="13.7649417"><ele>591.0</ele><time>2026-05-02T09:56:34.657Z</time></trkpt><trkpt lat="42.2613417" lon="13.76499"><ele>589.0</ele><time>2026-05-02T09:56:35.658Z</time></trkpt><trkpt lat="42.2611917" lon="13.7650333"><ele>587.0</ele><time>2026-05-02T09:56:36.657Z</time></trkpt><trkpt lat="42.261045" lon="13.7650667"><ele>587.0</ele><time>2026-05-02T09:56:37.657Z</time></trkpt><trkpt lat="42.2608933" lon="13.7651017"><ele>587.0</ele><time>2026-05-02T09:56:38.658Z</time></trkpt><trkpt lat="42.2607467" lon="13.7651483"><ele>587.0</ele><time>2026-05-02T09:56:39.657Z</time></trkpt><trkpt lat="42.2606083" lon="13.76521"><ele>593.0</ele><time>2026-05-02T09:56:40.657Z</time></trkpt><trkpt lat="42.2604733" lon="13.76527"><ele>599.0</ele><time>2026-05-02T09:56:41.658Z</time></trkpt><trkpt lat="42.2603367" lon="13.76532"><ele>605.0</ele><time>2026-05-02T09:56:42.658Z</time></trkpt><trkpt lat="42.2601983" lon="13.7653817"><ele>611.0</ele><time>2026-05-02T09:56:43.658Z</time></trkpt><trkpt lat="42.26007" lon="13.7654433"><ele>611.0</ele><time>2026-05-02T09:56:44.658Z</time></trkpt><trkpt lat="42.2599483" lon="13.7654933"><ele>611.0</ele><time>2026-05-02T09:56:45.658Z</time></trkpt><trkpt lat="42.25984" lon="13.76555"><ele>611.0</ele><time>2026-05-02T09:56:46.658Z</time></trkpt><trkpt lat="42.2597267" lon="13.765595"><ele>611.0</ele><time>2026-05-02T09:56:47.657Z</time></trkpt><trkpt lat="42.2596217" lon="13.7656267"><ele>610.6</ele><time>2026-05-02T09:56:48.657Z</time></trkpt><trkpt lat="42.2595167" lon="13.765635"><ele>610.2</ele><time>2026-05-02T09:56:49.658Z</time></trkpt><trkpt lat="42.25942" lon="13.765615"><ele>609.8</ele><time>2026-05-02T09:56:50.658Z</time></trkpt><trkpt lat="42.2593183" lon="13.76558"><ele>609.4</ele><time>2026-05-02T09:56:51.656Z</time></trkpt><trkpt lat="42.259215" lon="13.76554"><ele>609.0</ele><time>2026-05-02T09:56:52.657Z</time></trkpt><trkpt lat="42.2591133" lon="13.765505"><ele>609.0</ele><time>2026-05-02T09:56:53.657Z</time></trkpt><trkpt lat="42.25902" lon="13.765475"><ele>609.0</ele><time>2026-05-02T09:56:54.657Z</time></trkpt><trkpt lat="42.258935" lon="13.7654567"><ele>609.0</ele><time>2026-05-02T09:56:55.656Z</time></trkpt><trkpt lat="42.2588533" lon="13.7654383"><ele>609.0</ele><time>2026-05-02T09:56:56.656Z</time></trkpt><trkpt lat="42.2587617" lon="13.76542"><ele>609.0</ele><time>2026-05-02T09:56:57.657Z</time></trkpt><trkpt lat="42.2586667" lon="13.7654"><ele>608.8</ele><time>2026-05-02T09:56:58.656Z</time></trkpt><trkpt lat="42.258575" lon="13.765385"><ele>608.5999999999999</ele><time>2026-05-02T09:56:59.656Z</time></trkpt><trkpt lat="42.2585017" lon="13.7653717"><ele>608.4</ele><time>2026-05-02T09:57:00.656Z</time></trkpt><trkpt lat="42.258395" lon="13.7653583"><ele>608.1999999999999</ele><time>2026-05-02T09:57:02.657Z</time></trkpt><trkpt lat="42.2583033" lon="13.7653383"><ele>608.0</ele><time>2026-05-02T09:57:04.657Z</time></trkpt><trkpt lat="42.2581867" lon="13.7653"><ele>608.0</ele><time>2026-05-02T09:57:06.657Z</time></trkpt><trkpt lat="42.258115" lon="13.7652733"><ele>608.0</ele><time>2026-05-02T09:57:07.656Z</time></trkpt><trkpt lat="42.2580417" lon="13.765235"><ele>608.0</ele><time>2026-05-02T09:57:08.656Z</time></trkpt><trkpt lat="42.2579733" lon="13.76519"><ele>608.0</ele><time>2026-05-02T09:57:09.657Z</time></trkpt><trkpt lat="42.2579133" lon="13.7651433"><ele>608.0</ele><time>2026-05-02T09:57:10.657Z</time></trkpt><trkpt lat="42.257855" lon="13.7651"><ele>608.0</ele><time>2026-05-02T09:57:11.657Z</time></trkpt><trkpt lat="42.2577933" lon="13.7650667"><ele>608.0</ele><time>2026-05-02T09:57:12.656Z</time></trkpt><trkpt lat="42.2577283" lon="13.765035"><ele>609.3333333333333</ele><time>2026-05-02T09:57:13.657Z</time></trkpt><trkpt lat="42.2576567" lon="13.7650017"><ele>610.6666666666666</ele><time>2026-05-02T09:57:14.656Z</time></trkpt><trkpt lat="42.257575" lon="13.76496"><ele>612.0</ele><time>2026-05-02T09:57:15.657Z</time></trkpt><trkpt lat="42.2574917" lon="13.7649233"><ele>613.3333333333334</ele><time>2026-05-02T09:57:16.657Z</time></trkpt><trkpt lat="42.2574117" lon="13.7648883"><ele>614.6666666666667</ele><time>2026-05-02T09:57:17.657Z</time></trkpt><trkpt lat="42.2573467" lon="13.7648583"><ele>616.0</ele><time>2026-05-02T09:57:18.656Z</time></trkpt><trkpt lat="42.2572417" lon="13.7648067"><ele>616.8</ele><time>2026-05-02T09:57:20.656Z</time></trkpt><trkpt lat="42.257165" lon="13.7647567"><ele>617.6</ele><time>2026-05-02T09:57:22.656Z</time></trkpt><trkpt lat="42.2570733" lon="13.76471"><ele>618.4</ele><time>2026-05-02T09:57:24.657Z</time></trkpt><trkpt lat="42.2570133" lon="13.7646767"><ele>619.2</ele><time>2026-05-02T09:57:25.656Z</time></trkpt><trkpt lat="42.2568983" lon="13.764655"><ele>620.0</ele><time>2026-05-02T09:57:27.657Z</time></trkpt><trkpt lat="42.2567683" lon="13.7646983"><ele>620.0</ele><time>2026-05-02T09:57:29.657Z</time></trkpt><trkpt lat="42.2566983" lon="13.7647233"><ele>620.0</ele><time>2026-05-02T09:57:30.657Z</time></trkpt><trkpt lat="42.2565817" lon="13.76476"><ele>620.0</ele><time>2026-05-02T09:57:32.656Z</time></trkpt><trkpt lat="42.256475" lon="13.7647783"><ele>620.0</ele><time>2026-05-02T09:57:34.656Z</time></trkpt><trkpt lat="42.2563717" lon="13.7647717"><ele>620.0</ele><time>2026-05-02T09:57:36.656Z</time></trkpt><trkpt lat="42.256265" lon="13.7647733"><ele>621.1428571428571</ele><time>2026-05-02T09:57:38.657Z</time></trkpt><trkpt lat="42.2562" lon="13.7647683"><ele>622.2857142857142</ele><time>2026-05-02T09:57:39.657Z</time></trkpt><trkpt lat="42.2561317" lon="13.7647633"><ele>623.4285714285713</ele><time>2026-05-02T09:57:40.657Z</time></trkpt><trkpt lat="42.256065" lon="13.7647533"><ele>624.5714285714286</ele><time>2026-05-02T09:57:41.656Z</time></trkpt><trkpt lat="42.2560017" lon="13.7647433"><ele>625.7142857142857</ele><time>2026-05-02T09:57:42.656Z</time></trkpt><trkpt lat="42.2559333" lon="13.7647317"><ele>626.8571428571428</ele><time>2026-05-02T09:57:43.657Z</time></trkpt><trkpt lat="42.2558617" lon="13.7647267"><ele>628.0</ele><time>2026-05-02T09:57:44.656Z</time></trkpt><trkpt lat="42.25579" lon="13.7647183"><ele>627.9999999999999</ele><time>2026-05-02T09:57:45.656Z</time></trkpt><trkpt lat="42.2557117" lon="13.7647083"><ele>628.0</ele><time>2026-05-02T09:57:46.656Z</time></trkpt><trkpt lat="42.2556367" lon="13.7646933"><ele>628.0</ele><time>2026-05-02T09:57:47.657Z</time></trkpt><trkpt lat="42.2555583" lon="13.7646833"><ele>628.0</ele><time>2026-05-02T09:57:48.657Z</time></trkpt><trkpt lat="42.2554867" lon="13.7646667"><ele>628.0</ele><time>2026-05-02T09:57:49.656Z</time></trkpt><trkpt lat="42.2554217" lon="13.7646517"><ele>627.9999999999999</ele><time>2026-05-02T09:57:50.656Z</time></trkpt><trkpt lat="42.2553517" lon="13.7646317"><ele>628.0</ele><time>2026-05-02T09:57:51.656Z</time></trkpt><trkpt lat="42.255285" lon="13.7646017"><ele>628.8333333333334</ele><time>2026-05-02T09:57:52.657Z</time></trkpt><trkpt lat="42.2552167" lon="13.764565"><ele>629.6666666666667</ele><time>2026-05-02T09:57:53.656Z</time></trkpt><trkpt lat="42.2551483" lon="13.7645333"><ele>630.5</ele><time>2026-05-02T09:57:54.656Z</time></trkpt><trkpt lat="42.2550783" lon="13.76451"><ele>631.3333333333334</ele><time>2026-05-02T09:57:55.657Z</time></trkpt><trkpt lat="42.255" lon="13.7645183"><ele>632.1666666666666</ele><time>2026-05-02T09:57:56.657Z</time></trkpt><trkpt lat="42.254915" lon="13.7645433"><ele>633.0</ele><time>2026-05-02T09:57:57.657Z</time></trkpt><trkpt lat="42.2548217" lon="13.7645633"><ele>635.2</ele><time>2026-05-02T09:57:58.657Z</time></trkpt><trkpt lat="42.2547233" lon="13.7645617"><ele>637.4</ele><time>2026-05-02T09:57:59.656Z</time></trkpt><trkpt lat="42.2546333" lon="13.7645333"><ele>639.6</ele><time>2026-05-02T09:58:00.657Z</time></trkpt><trkpt lat="42.25454" lon="13.7645067"><ele>641.8000000000001</ele><time>2026-05-02T09:58:01.657Z</time></trkpt><trkpt lat="42.2544367" lon="13.76449"><ele>644.0</ele><time>2026-05-02T09:58:02.656Z</time></trkpt><trkpt lat="42.2543233" lon="13.76448"><ele>644.0</ele><time>2026-05-02T09:58:03.657Z</time></trkpt><trkpt lat="42.25421" lon="13.7644717"><ele>644.0</ele><time>2026-05-02T09:58:04.657Z</time></trkpt><trkpt lat="42.254115" lon="13.7644633"><ele>644.0</ele><time>2026-05-02T09:58:05.657Z</time></trkpt><trkpt lat="42.25404" lon="13.7644467"><ele>644.0</ele><time>2026-05-02T09:58:06.656Z</time></trkpt><trkpt lat="42.2539617" lon="13.76442"><ele>644.0</ele><time>2026-05-02T09:58:07.656Z</time></trkpt><trkpt lat="42.2538883" lon="13.7643867"><ele>644.0</ele><time>2026-05-02T09:58:08.657Z</time></trkpt><trkpt lat="42.2538167" lon="13.7643533"><ele>645.4000000000001</ele><time>2026-05-02T09:58:09.657Z</time></trkpt><trkpt lat="42.2537517" lon="13.7643183"><ele>646.8</ele><time>2026-05-02T09:58:10.657Z</time></trkpt><trkpt lat="42.25369" lon="13.7642883"><ele>648.2</ele><time>2026-05-02T09:58:11.656Z</time></trkpt><trkpt lat="42.2535867" lon="13.7641967"><ele>649.5999999999999</ele><time>2026-05-02T09:58:13.656Z</time></trkpt><trkpt lat="42.2535133" lon="13.7640717"><ele>651.0</ele><time>2026-05-02T09:58:15.656Z</time></trkpt><trkpt lat="42.2534383" lon="13.76393"><ele>651.0</ele><time>2026-05-02T09:58:17.657Z</time></trkpt><trkpt lat="42.25339" lon="13.76386"><ele>651.0</ele><time>2026-05-02T09:58:18.656Z</time></trkpt><trkpt lat="42.2533383" lon="13.76379"><ele>651.0</ele><time>2026-05-02T09:58:19.657Z</time></trkpt><trkpt lat="42.2532833" lon="13.7637167"><ele>651.0</ele><time>2026-05-02T09:58:20.656Z</time></trkpt><trkpt lat="42.2532233" lon="13.7636583"><ele>651.0</ele><time>2026-05-02T09:58:21.656Z</time></trkpt><trkpt lat="42.2531583" lon="13.763615"><ele>651.0</ele><time>2026-05-02T09:58:22.656Z</time></trkpt><trkpt lat="42.253095" lon="13.76358"><ele>651.0</ele><time>2026-05-02T09:58:23.657Z</time></trkpt><trkpt lat="42.253015" lon="13.76355"><ele>652.4</ele><time>2026-05-02T09:58:24.657Z</time></trkpt><trkpt lat="42.252925" lon="13.7635133"><ele>653.8</ele><time>2026-05-02T09:58:25.657Z</time></trkpt><trkpt lat="42.252835" lon="13.76348"><ele>655.1999999999999</ele><time>2026-05-02T09:58:26.656Z</time></trkpt><trkpt lat="42.2527383" lon="13.7634567"><ele>656.5999999999999</ele><time>2026-05-02T09:58:27.656Z</time></trkpt><trkpt lat="42.2526517" lon="13.7634367"><ele>658.0</ele><time>2026-05-02T09:58:28.656Z</time></trkpt><trkpt lat="42.2525633" lon="13.7634317"><ele>658.0</ele><time>2026-05-02T09:58:29.656Z</time></trkpt><trkpt lat="42.2524767" lon="13.7634183"><ele>658.0</ele><time>2026-05-02T09:58:30.656Z</time></trkpt><trkpt lat="42.252405" lon="13.7633983"><ele>658.0</ele><time>2026-05-02T09:58:31.657Z</time></trkpt><trkpt lat="42.2522867" lon="13.7633567"><ele>658.0</ele><time>2026-05-02T09:58:33.657Z</time></trkpt><trkpt lat="42.2522117" lon="13.7633317"><ele>658.0</ele><time>2026-05-02T09:58:34.657Z</time></trkpt><trkpt lat="42.2521417" lon="13.7632983"><ele>658.0</ele><time>2026-05-02T09:58:35.656Z</time></trkpt><trkpt lat="42.2520683" lon="13.7632567"><ele>657.5</ele><time>2026-05-02T09:58:36.656Z</time></trkpt><trkpt lat="42.2519883" lon="13.763205"><ele>657.0</ele><time>2026-05-02T09:58:37.657Z</time></trkpt><trkpt lat="42.251915" lon="13.7631483"><ele>656.5</ele><time>2026-05-02T09:58:38.657Z</time></trkpt><trkpt lat="42.2518533" lon="13.7630783"><ele>656.0</ele><time>2026-05-02T09:58:39.657Z</time></trkpt><trkpt lat="42.2517933" lon="13.763005"><ele>655.5</ele><time>2026-05-02T09:58:40.656Z</time></trkpt><trkpt lat="42.25174" lon="13.7629267"><ele>655.0</ele><time>2026-05-02T09:58:41.657Z</time></trkpt><trkpt lat="42.2516867" lon="13.7628417"><ele>655.0</ele><time>2026-05-02T09:58:42.657Z</time></trkpt><trkpt lat="42.2516267" lon="13.7627567"><ele>655.0</ele><time>2026-05-02T09:58:43.656Z</time></trkpt><trkpt lat="42.2515483" lon="13.7626833"><ele>655.0</ele><time>2026-05-02T09:58:44.657Z</time></trkpt><trkpt lat="42.2514733" lon="13.7626083"><ele>655.0</ele><time>2026-05-02T09:58:45.657Z</time></trkpt><trkpt lat="42.251395" lon="13.7625383"><ele>655.0</ele><time>2026-05-02T09:58:46.656Z</time></trkpt><trkpt lat="42.2513183" lon="13.7624667"><ele>658.0</ele><time>2026-05-02T09:58:47.656Z</time></trkpt><trkpt lat="42.2512417" lon="13.7624017"><ele>661.0</ele><time>2026-05-02T09:58:48.657Z</time></trkpt><trkpt lat="42.2511733" lon="13.762345"><ele>664.0</ele><time>2026-05-02T09:58:49.657Z</time></trkpt><trkpt lat="42.251105" lon="13.7622967"><ele>667.0</ele><time>2026-05-02T09:58:50.656Z</time></trkpt><trkpt lat="42.251025" lon="13.7622567"><ele>670.0</ele><time>2026-05-02T09:58:51.656Z</time></trkpt><trkpt lat="42.2509433" lon="13.7622267"><ele>673.0</ele><time>2026-05-02T09:58:52.657Z</time></trkpt><trkpt lat="42.250865" lon="13.7622017"><ele>673.0</ele><time>2026-05-02T09:58:53.657Z</time></trkpt><trkpt lat="42.25075" lon="13.7622067"><ele>673.0</ele><time>2026-05-02T09:58:55.657Z</time></trkpt><trkpt lat="42.25067" lon="13.7622967"><ele>673.0</ele><time>2026-05-02T09:58:57.657Z</time></trkpt><trkpt lat="42.2506433" lon="13.7623767"><ele>673.0</ele><time>2026-05-02T09:58:58.656Z</time></trkpt><trkpt lat="42.2506083" lon="13.7624567"><ele>673.0</ele><time>2026-05-02T09:58:59.657Z</time></trkpt><trkpt lat="42.2505633" lon="13.76253"><ele>673.0</ele><time>2026-05-02T09:59:00.657Z</time></trkpt><trkpt lat="42.250505" lon="13.7625967"><ele>672.2</ele><time>2026-05-02T09:59:01.656Z</time></trkpt><trkpt lat="42.2504233" lon="13.7626483"><ele>671.4</ele><time>2026-05-02T09:59:02.657Z</time></trkpt><trkpt lat="42.2503283" lon="13.7626833"><ele>670.6</ele><time>2026-05-02T09:59:03.657Z</time></trkpt><trkpt lat="42.250225" lon="13.7627033"><ele>669.8000000000001</ele><time>2026-05-02T09:59:04.657Z</time></trkpt><trkpt lat="42.2501283" lon="13.7627183"><ele>669.0</ele><time>2026-05-02T09:59:05.657Z</time></trkpt><trkpt lat="42.2500433" lon="13.7627383"><ele>669.0</ele><time>2026-05-02T09:59:06.656Z</time></trkpt><trkpt lat="42.2499683" lon="13.7627617"><ele>669.0</ele><time>2026-05-02T09:59:07.656Z</time></trkpt><trkpt lat="42.249895" lon="13.76279"><ele>669.0</ele><time>2026-05-02T09:59:08.657Z</time></trkpt><trkpt lat="42.2498167" lon="13.762825"><ele>669.0</ele><time>2026-05-02T09:59:09.656Z</time></trkpt><trkpt lat="42.2497367" lon="13.7628683"><ele>669.0</ele><time>2026-05-02T09:59:10.657Z</time></trkpt><trkpt lat="42.249665" lon="13.7629167"><ele>669.0</ele><time>2026-05-02T09:59:11.657Z</time></trkpt><trkpt lat="42.24959" lon="13.7629883"><ele>671.5</ele><time>2026-05-02T09:59:12.656Z</time></trkpt><trkpt lat="42.2495183" lon="13.7630533"><ele>674.0</ele><time>2026-05-02T09:59:13.657Z</time></trkpt><trkpt lat="42.2494483" lon="13.7631283"><ele>676.5</ele><time>2026-05-02T09:59:14.657Z</time></trkpt><trkpt lat="42.2493833" lon="13.7631933"><ele>679.0</ele><time>2026-05-02T09:59:15.657Z</time></trkpt><trkpt lat="42.2493133" lon="13.763255"><ele>681.5</ele><time>2026-05-02T09:59:16.656Z</time></trkpt><trkpt lat="42.2492417" lon="13.7633117"><ele>684.0</ele><time>2026-05-02T09:59:17.656Z</time></trkpt><trkpt lat="42.2491683" lon="13.7633533"><ele>684.0</ele><time>2026-05-02T09:59:18.657Z</time></trkpt><trkpt lat="42.2490933" lon="13.7633933"><ele>684.0</ele><time>2026-05-02T09:59:19.657Z</time></trkpt><trkpt lat="42.249015" lon="13.76344"><ele>684.0</ele><time>2026-05-02T09:59:20.656Z</time></trkpt><trkpt lat="42.2489367" lon="13.7634883"><ele>684.0</ele><time>2026-05-02T09:59:21.656Z</time></trkpt><trkpt lat="42.248855" lon="13.7635433"><ele>684.0</ele><time>2026-05-02T09:59:22.656Z</time></trkpt><trkpt lat="42.2487767" lon="13.763605"><ele>684.0</ele><time>2026-05-02T09:59:23.656Z</time></trkpt><trkpt lat="42.248705" lon="13.7636667"><ele>684.6666666666666</ele><time>2026-05-02T09:59:24.657Z</time></trkpt><trkpt lat="42.2486433" lon="13.7637217"><ele>685.3333333333334</ele><time>2026-05-02T09:59:25.657Z</time></trkpt><trkpt lat="42.248585" lon="13.7637783"><ele>686.0</ele><time>2026-05-02T09:59:26.657Z</time></trkpt><trkpt lat="42.24853" lon="13.763835"><ele>686.6666666666667</ele><time>2026-05-02T09:59:27.657Z</time></trkpt><trkpt lat="42.24847" lon="13.7639033"><ele>687.3333333333334</ele><time>2026-05-02T09:59:28.657Z</time></trkpt><trkpt lat="42.2484017" lon="13.7639783"><ele>688.0</ele><time>2026-05-02T09:59:29.657Z</time></trkpt><trkpt lat="42.24834" lon="13.7640567"><ele>688.0</ele><time>2026-05-02T09:59:30.657Z</time></trkpt><trkpt lat="42.2482733" lon="13.7641367"><ele>688.0</ele><time>2026-05-02T09:59:31.656Z</time></trkpt><trkpt lat="42.24821" lon="13.764215"><ele>688.0</ele><time>2026-05-02T09:59:32.657Z</time></trkpt><trkpt lat="42.2481517" lon="13.7642817"><ele>688.0</ele><time>2026-05-02T09:59:33.657Z</time></trkpt><trkpt lat="42.2480867" lon="13.7643417"><ele>688.0</ele><time>2026-05-02T09:59:34.657Z</time></trkpt><trkpt lat="42.248025" lon="13.76441"><ele>688.0</ele><time>2026-05-02T09:59:35.656Z</time></trkpt><trkpt lat="42.247965" lon="13.7644783"><ele>689.1428571428572</ele><time>2026-05-02T09:59:36.657Z</time></trkpt><trkpt lat="42.2479017" lon="13.7645483"><ele>690.2857142857143</ele><time>2026-05-02T09:59:37.656Z</time></trkpt><trkpt lat="42.24785" lon="13.7646117"><ele>691.4285714285714</ele><time>2026-05-02T09:59:38.656Z</time></trkpt><trkpt lat="42.2478017" lon="13.7646867"><ele>692.5714285714287</ele><time>2026-05-02T09:59:39.657Z</time></trkpt><trkpt lat="42.247765" lon="13.7647683"><ele>693.7142857142858</ele><time>2026-05-02T09:59:40.657Z</time></trkpt><trkpt lat="42.24773" lon="13.7648483"><ele>694.8571428571429</ele><time>2026-05-02T09:59:41.656Z</time></trkpt><trkpt lat="42.2476967" lon="13.764925"><ele>696.0</ele><time>2026-05-02T09:59:42.656Z</time></trkpt><trkpt lat="42.2476583" lon="13.764995"><ele>696.0</ele><time>2026-05-02T09:59:43.656Z</time></trkpt><trkpt lat="42.2476117" lon="13.7650567"><ele>696.0</ele><time>2026-05-02T09:59:44.657Z</time></trkpt><trkpt lat="42.2475583" lon="13.7651117"><ele>696.0</ele><time>2026-05-02T09:59:45.657Z</time></trkpt><trkpt lat="42.2475033" lon="13.7651633"><ele>696.0</ele><time>2026-05-02T09:59:46.656Z</time></trkpt><trkpt lat="42.24739" lon="13.7652483"><ele>696.0</ele><time>2026-05-02T09:59:48.656Z</time></trkpt><trkpt lat="42.2473317" lon="13.7652917"><ele>696.0</ele><time>2026-05-02T09:59:49.656Z</time></trkpt><trkpt lat="42.2472317" lon="13.7653667"><ele>699.1999999999999</ele><time>2026-05-02T09:59:51.657Z</time></trkpt><trkpt lat="42.24713" lon="13.7654333"><ele>702.4</ele><time>2026-05-02T09:59:53.657Z</time></trkpt><trkpt lat="42.2470033" lon="13.7654783"><ele>705.6</ele><time>2026-05-02T09:59:55.657Z</time></trkpt><trkpt lat="42.246945" lon="13.765515"><ele>708.8</ele><time>2026-05-02T09:59:56.657Z</time></trkpt><trkpt lat="42.2468317" lon="13.7655983"><ele>712.0</ele><time>2026-05-02T09:59:58.656Z</time></trkpt><trkpt lat="42.2467633" lon="13.76565"><ele>712.0</ele><time>2026-05-02T09:59:59.656Z</time></trkpt><trkpt lat="42.2467017" lon="13.7656983"><ele>712.0</ele><time>2026-05-02T10:00:00.657Z</time></trkpt><trkpt lat="42.2466" lon="13.7657917"><ele>712.0</ele><time>2026-05-02T10:00:02.657Z</time></trkpt><trkpt lat="42.2465083" lon="13.76586"><ele>712.0</ele><time>2026-05-02T10:00:04.656Z</time></trkpt><trkpt lat="42.2464183" lon="13.7659617"><ele>712.0</ele><time>2026-05-02T10:00:06.655Z</time></trkpt><trkpt lat="42.2463467" lon="13.7660767"><ele>713.6</ele><time>2026-05-02T10:00:08.656Z</time></trkpt><trkpt lat="42.2462633" lon="13.7662"><ele>715.2</ele><time>2026-05-02T10:00:10.656Z</time></trkpt><trkpt lat="42.2461867" lon="13.766305"><ele>716.8</ele><time>2026-05-02T10:00:12.655Z</time></trkpt><trkpt lat="42.2461167" lon="13.766395"><ele>718.4</ele><time>2026-05-02T10:00:14.655Z</time></trkpt><trkpt lat="42.24603" lon="13.7664933"><ele>720.0</ele><time>2026-05-02T10:00:16.656Z</time></trkpt><trkpt lat="42.2459333" lon="13.766535"><ele>720.0</ele><time>2026-05-02T10:00:18.656Z</time></trkpt><trkpt lat="42.2458133" lon="13.7665517"><ele>720.0</ele><time>2026-05-02T10:00:20.656Z</time></trkpt><trkpt lat="42.2457433" lon="13.7665783"><ele>720.0</ele><time>2026-05-02T10:00:21.656Z</time></trkpt><trkpt lat="42.2456733" lon="13.766605"><ele>720.0</ele><time>2026-05-02T10:00:22.655Z</time></trkpt><trkpt lat="42.2456067" lon="13.7666317"><ele>720.0</ele><time>2026-05-02T10:00:23.656Z</time></trkpt><trkpt lat="42.24554" lon="13.7666633"><ele>720.0</ele><time>2026-05-02T10:00:24.655Z</time></trkpt><trkpt lat="42.2454733" lon="13.766695"><ele>719.8</ele><time>2026-05-02T10:00:25.655Z</time></trkpt><trkpt lat="42.24541" lon="13.766735"><ele>719.6</ele><time>2026-05-02T10:00:26.656Z</time></trkpt><trkpt lat="42.245355" lon="13.76678"><ele>719.4000000000001</ele><time>2026-05-02T10:00:27.656Z</time></trkpt><trkpt lat="42.24526" lon="13.7668317"><ele>719.2</ele><time>2026-05-02T10:00:29.655Z</time></trkpt><trkpt lat="42.2451517" lon="13.7668517"><ele>719.0</ele><time>2026-05-02T10:00:31.655Z</time></trkpt><trkpt lat="42.24504" lon="13.7668817"><ele>719.0</ele><time>2026-05-02T10:00:33.656Z</time></trkpt><trkpt lat="42.2449333" lon="13.76692"><ele>719.0</ele><time>2026-05-02T10:00:35.655Z</time></trkpt><trkpt lat="42.2448433" lon="13.7669517"><ele>719.0</ele><time>2026-05-02T10:00:37.656Z</time></trkpt><trkpt lat="42.2447283" lon="13.7669867"><ele>719.0</ele><time>2026-05-02T10:00:39.656Z</time></trkpt><trkpt lat="42.244665" lon="13.76701"><ele>719.0</ele><time>2026-05-02T10:00:40.656Z</time></trkpt><trkpt lat="42.24459" lon="13.7670283"><ele>720.6666666666666</ele><time>2026-05-02T10:00:41.655Z</time></trkpt><trkpt lat="42.2445133" lon="13.7670467"><ele>722.3333333333333</ele><time>2026-05-02T10:00:42.655Z</time></trkpt><trkpt lat="42.244445" lon="13.76705"><ele>724.0</ele><time>2026-05-02T10:00:43.655Z</time></trkpt><trkpt lat="42.2443433" lon="13.7670567"><ele>725.6666666666666</ele><time>2026-05-02T10:00:45.655Z</time></trkpt><trkpt lat="42.2442517" lon="13.76707"><ele>727.3333333333334</ele><time>2026-05-02T10:00:47.656Z</time></trkpt><trkpt lat="42.2441867" lon="13.7670817"><ele>729.0</ele><time>2026-05-02T10:00:49.656Z</time></trkpt><trkpt lat="42.2440917" lon="13.767105"><ele>729.0</ele><time>2026-05-02T10:00:59.656Z</time></trkpt><trkpt lat="42.2439783" lon="13.7671217"><ele>729.0</ele><time>2026-05-02T10:01:01.655Z</time></trkpt><trkpt lat="42.2439167" lon="13.76714"><ele>729.0</ele><time>2026-05-02T10:01:02.656Z</time></trkpt><trkpt lat="42.2437967" lon="13.7671933"><ele>729.0</ele><time>2026-05-02T10:01:04.655Z</time></trkpt><trkpt lat="42.243735" lon="13.7672183"><ele>729.0</ele><time>2026-05-02T10:01:05.656Z</time></trkpt><trkpt lat="42.2436267" lon="13.7672367"><ele>731.5</ele><time>2026-05-02T10:01:07.656Z</time></trkpt><trkpt lat="42.24356" lon="13.7672567"><ele>734.0</ele><time>2026-05-02T10:01:09.656Z</time></trkpt><trkpt lat="42.2434833" lon="13.76727"><ele>736.5</ele><time>2026-05-02T10:01:11.656Z</time></trkpt><trkpt lat="42.2433567" lon="13.7672883"><ele>739.0</ele><time>2026-05-02T10:01:13.656Z</time></trkpt><trkpt lat="42.24328" lon="13.7673167"><ele>741.5</ele><time>2026-05-02T10:01:14.655Z</time></trkpt><trkpt lat="42.2431983" lon="13.767335"><ele>744.0</ele><time>2026-05-02T10:01:15.656Z</time></trkpt><trkpt lat="42.2431083" lon="13.7673417"><ele>746.6</ele><time>2026-05-02T10:01:16.655Z</time></trkpt><trkpt lat="42.24301" lon="13.7673467"><ele>749.2</ele><time>2026-05-02T10:01:17.655Z</time></trkpt><trkpt lat="42.2429267" lon="13.7673417"><ele>751.8000000000001</ele><time>2026-05-02T10:01:18.656Z</time></trkpt><trkpt lat="42.24285" lon="13.7673417"><ele>754.4000000000001</ele><time>2026-05-02T10:01:19.656Z</time></trkpt><trkpt lat="42.24276" lon="13.7673583"><ele>757.0</ele><time>2026-05-02T10:01:20.655Z</time></trkpt><trkpt lat="42.2426567" lon="13.7673883"><ele>757.0</ele><time>2026-05-02T10:01:21.656Z</time></trkpt><trkpt lat="42.2425483" lon="13.7674117"><ele>757.0</ele><time>2026-05-02T10:01:22.655Z</time></trkpt><trkpt lat="42.242445" lon="13.7674333"><ele>757.0</ele><time>2026-05-02T10:01:23.656Z</time></trkpt><trkpt lat="42.2423417" lon="13.76747"><ele>757.0</ele><time>2026-05-02T10:01:24.655Z</time></trkpt><trkpt lat="42.2422433" lon="13.7675083"><ele>757.0</ele><time>2026-05-02T10:01:25.655Z</time></trkpt><trkpt lat="42.2421517" lon="13.7675467"><ele>757.0</ele><time>2026-05-02T10:01:26.656Z</time></trkpt><trkpt lat="42.2420533" lon="13.7676"><ele>757.0</ele><time>2026-05-02T10:01:27.655Z</time></trkpt><trkpt lat="42.2419617" lon="13.767655"><ele>757.0</ele><time>2026-05-02T10:01:28.656Z</time></trkpt><trkpt lat="42.241855" lon="13.767725"><ele>757.0</ele><time>2026-05-02T10:01:29.655Z</time></trkpt><trkpt lat="42.2417583" lon="13.7678117"><ele>757.0</ele><time>2026-05-02T10:01:30.655Z</time></trkpt><trkpt lat="42.241665" lon="13.76789"><ele>757.0</ele><time>2026-05-02T10:01:31.655Z</time></trkpt><trkpt lat="42.241585" lon="13.7679733"><ele>757.0</ele><time>2026-05-02T10:01:32.655Z</time></trkpt><trkpt lat="42.2415117" lon="13.768075"><ele>757.0</ele><time>2026-05-02T10:01:33.655Z</time></trkpt><trkpt lat="42.2414333" lon="13.768195"><ele>757.0</ele><time>2026-05-02T10:01:34.656Z</time></trkpt><trkpt lat="42.2413533" lon="13.76833"><ele>761.5</ele><time>2026-05-02T10:01:35.656Z</time></trkpt><trkpt lat="42.2412767" lon="13.768455"><ele>766.0</ele><time>2026-05-02T10:01:36.656Z</time></trkpt><trkpt lat="42.2411983" lon="13.7685817"><ele>770.5</ele><time>2026-05-02T10:01:37.656Z</time></trkpt><trkpt lat="42.2411183" lon="13.7686983"><ele>775.0</ele><time>2026-05-02T10:01:38.656Z</time></trkpt><trkpt lat="42.2410383" lon="13.768805"><ele>774.9999999999999</ele><time>2026-05-02T10:01:39.655Z</time></trkpt><trkpt lat="42.24098" lon="13.768895"><ele>775.0</ele><time>2026-05-02T10:01:40.655Z</time></trkpt><trkpt lat="42.2409367" lon="13.7689883"><ele>775.0</ele><time>2026-05-02T10:01:41.656Z</time></trkpt><trkpt lat="42.2409" lon="13.7690833"><ele>775.0</ele><time>2026-05-02T10:01:42.656Z</time></trkpt><trkpt lat="42.2408633" lon="13.7691717"><ele>774.9999999999999</ele><time>2026-05-02T10:01:43.655Z</time></trkpt><trkpt lat="42.24083" lon="13.769245"><ele>775.0</ele><time>2026-05-02T10:01:44.655Z</time></trkpt><trkpt lat="42.2407567" lon="13.7693417"><ele>774.9999999999999</ele><time>2026-05-02T10:01:46.655Z</time></trkpt><trkpt lat="42.2406933" lon="13.7693567"><ele>775.0</ele><time>2026-05-02T10:01:52.656Z</time></trkpt><trkpt lat="42.2406267" lon="13.7693717"><ele>775.0</ele><time>2026-05-02T10:01:54.655Z</time></trkpt><trkpt lat="42.2405417" lon="13.7693517"><ele>775.0</ele><time>2026-05-02T10:01:56.655Z</time></trkpt><trkpt lat="42.2404633" lon="13.7693033"><ele>774.9999999999999</ele><time>2026-05-02T10:01:58.656Z</time></trkpt><trkpt lat="42.240365" lon="13.7692567"><ele>775.0</ele><time>2026-05-02T10:02:00.655Z</time></trkpt><trkpt lat="42.2402533" lon="13.769225"><ele>777.8</ele><time>2026-05-02T10:02:02.655Z</time></trkpt><trkpt lat="42.24019" lon="13.7692183"><ele>780.6</ele><time>2026-05-02T10:02:03.656Z</time></trkpt><trkpt lat="42.24008" lon="13.7692183"><ele>783.4000000000001</ele><time>2026-05-02T10:02:05.656Z</time></trkpt><trkpt lat="42.2399483" lon="13.7691967"><ele>786.2</ele><time>2026-05-02T10:02:07.655Z</time></trkpt><trkpt lat="42.23987" lon="13.7691917"><ele>789.0</ele><time>2026-05-02T10:02:08.655Z</time></trkpt><trkpt lat="42.2397817" lon="13.769185"><ele>791.6666666666666</ele><time>2026-05-02T10:02:09.656Z</time></trkpt><trkpt lat="42.2396867" lon="13.7691717"><ele>794.3333333333333</ele><time>2026-05-02T10:02:10.655Z</time></trkpt><trkpt lat="42.2395967" lon="13.769145"><ele>797.0</ele><time>2026-05-02T10:02:11.656Z</time></trkpt><trkpt lat="42.239515" lon="13.7691117"><ele>799.6666666666666</ele><time>2026-05-02T10:02:12.656Z</time></trkpt><trkpt lat="42.23944" lon="13.7690933"><ele>802.3333333333333</ele><time>2026-05-02T10:02:13.656Z</time></trkpt><trkpt lat="42.239375" lon="13.769105"><ele>805.0</ele><time>2026-05-02T10:02:14.656Z</time></trkpt><trkpt lat="42.239315" lon="13.7691383"><ele>804.9999999999999</ele><time>2026-05-02T10:02:15.655Z</time></trkpt><trkpt lat="42.2392617" lon="13.7691917"><ele>805.0</ele><time>2026-05-02T10:02:16.656Z</time></trkpt><trkpt lat="42.239175" lon="13.7692867"><ele>805.0</ele><time>2026-05-02T10:02:18.656Z</time></trkpt><trkpt lat="42.2391167" lon="13.769325"><ele>805.0</ele><time>2026-05-02T10:02:19.655Z</time></trkpt><trkpt lat="42.23905" lon="13.7693667"><ele>804.9999999999999</ele><time>2026-05-02T10:02:20.656Z</time></trkpt><trkpt lat="42.238975" lon="13.7694033"><ele>805.0</ele><time>2026-05-02T10:02:21.655Z</time></trkpt><trkpt lat="42.23889" lon="13.76943"><ele>804.8333333333333</ele><time>2026-05-02T10:02:22.656Z</time></trkpt><trkpt lat="42.23881" lon="13.7694417"><ele>804.6666666666666</ele><time>2026-05-02T10:02:23.656Z</time></trkpt><trkpt lat="42.2387267" lon="13.769435"><ele>804.5</ele><time>2026-05-02T10:02:24.655Z</time></trkpt><trkpt lat="42.2386367" lon="13.7694283"><ele>804.3333333333333</ele><time>2026-05-02T10:02:25.656Z</time></trkpt><trkpt lat="42.2385417" lon="13.7694333"><ele>804.1666666666666</ele><time>2026-05-02T10:02:26.655Z</time></trkpt><trkpt lat="42.238445" lon="13.769455"><ele>804.0</ele><time>2026-05-02T10:02:27.656Z</time></trkpt><trkpt lat="42.238355" lon="13.7694833"><ele>804.0</ele><time>2026-05-02T10:02:28.656Z</time></trkpt><trkpt lat="42.2382783" lon="13.769525"><ele>804.0</ele><time>2026-05-02T10:02:29.656Z</time></trkpt><trkpt lat="42.2381967" lon="13.7695667"><ele>804.0</ele><time>2026-05-02T10:02:30.656Z</time></trkpt><trkpt lat="42.23811" lon="13.7696067"><ele>804.0</ele><time>2026-05-02T10:02:31.655Z</time></trkpt><trkpt lat="42.2380183" lon="13.7696567"><ele>804.0</ele><time>2026-05-02T10:02:32.655Z</time></trkpt><trkpt lat="42.2379217" lon="13.7697167"><ele>807.4000000000001</ele><time>2026-05-02T10:02:33.655Z</time></trkpt><trkpt lat="42.237835" lon="13.7697833"><ele>810.8</ele><time>2026-05-02T10:02:34.655Z</time></trkpt><trkpt lat="42.237745" lon="13.7698367"><ele>814.2</ele><time>2026-05-02T10:02:35.656Z</time></trkpt><trkpt lat="42.23766" lon="13.7698733"><ele>817.5999999999999</ele><time>2026-05-02T10:02:36.655Z</time></trkpt><trkpt lat="42.2375783" lon="13.7699083"><ele>821.0</ele><time>2026-05-02T10:02:37.656Z</time></trkpt><trkpt lat="42.2374983" lon="13.7699267"><ele>821.0000000000001</ele><time>2026-05-02T10:02:38.655Z</time></trkpt><trkpt lat="42.2374183" lon="13.76993"><ele>821.0</ele><time>2026-05-02T10:02:39.655Z</time></trkpt><trkpt lat="42.2373367" lon="13.769935"><ele>821.0</ele><time>2026-05-02T10:02:40.655Z</time></trkpt><trkpt lat="42.2372633" lon="13.7699533"><ele>821.0</ele><time>2026-05-02T10:02:41.656Z</time></trkpt><trkpt lat="42.2372033" lon="13.76998"><ele>821.0</ele><time>2026-05-02T10:02:42.656Z</time></trkpt><trkpt lat="42.2371417" lon="13.77001"><ele>821.0000000000001</ele><time>2026-05-02T10:02:43.655Z</time></trkpt><trkpt lat="42.237075" lon="13.77005"><ele>821.0</ele><time>2026-05-02T10:02:44.656Z</time></trkpt><trkpt lat="42.2370133" lon="13.77011"><ele>822.0000000000001</ele><time>2026-05-02T10:02:45.656Z</time></trkpt><trkpt lat="42.2369617" lon="13.77018"><ele>823.0</ele><time>2026-05-02T10:02:46.655Z</time></trkpt><trkpt lat="42.236915" lon="13.7702517"><ele>824.0</ele><time>2026-05-02T10:02:47.655Z</time></trkpt><trkpt lat="42.236865" lon="13.77031"><ele>825.0</ele><time>2026-05-02T10:02:48.656Z</time></trkpt><trkpt lat="42.2368117" lon="13.7703683"><ele>826.0</ele><time>2026-05-02T10:02:49.655Z</time></trkpt><trkpt lat="42.2367533" lon="13.7704117"><ele>827.0000000000001</ele><time>2026-05-02T10:02:50.655Z</time></trkpt><trkpt lat="42.2366933" lon="13.7704467"><ele>828.0</ele><time>2026-05-02T10:02:51.656Z</time></trkpt><trkpt lat="42.2366267" lon="13.770475"><ele>828.0</ele><time>2026-05-02T10:02:52.656Z</time></trkpt><trkpt lat="42.236555" lon="13.7705083"><ele>828.0</ele><time>2026-05-02T10:02:53.656Z</time></trkpt><trkpt lat="42.2364783" lon="13.770535"><ele>828.0</ele><time>2026-05-02T10:02:54.656Z</time></trkpt><trkpt lat="42.23639" lon="13.77056"><ele>828.0</ele><time>2026-05-02T10:02:55.655Z</time></trkpt><trkpt lat="42.2363" lon="13.7705783"><ele>828.0</ele><time>2026-05-02T10:02:56.656Z</time></trkpt><trkpt lat="42.236215" lon="13.7705933"><ele>828.0</ele><time>2026-05-02T10:02:57.656Z</time></trkpt><trkpt lat="42.23613" lon="13.7706133"><ele>829.1666666666666</ele><time>2026-05-02T10:02:58.656Z</time></trkpt><trkpt lat="42.2360433" lon="13.770645"><ele>830.3333333333333</ele><time>2026-05-02T10:02:59.655Z</time></trkpt><trkpt lat="42.2359633" lon="13.7706767"><ele>831.5</ele><time>2026-05-02T10:03:00.656Z</time></trkpt><trkpt lat="42.2359" lon="13.77071"><ele>832.6666666666666</ele><time>2026-05-02T10:03:01.655Z</time></trkpt><trkpt lat="42.2358283" lon="13.7707617"><ele>833.8333333333333</ele><time>2026-05-02T10:03:03.656Z</time></trkpt><trkpt lat="42.23583" lon="13.77087"><ele>835.0</ele><time>2026-05-02T10:04:05.655Z</time></trkpt><trkpt lat="42.2358417" lon="13.77096"><ele>836.0</ele><time>2026-05-02T10:04:07.655Z</time></trkpt><trkpt lat="42.2358567" lon="13.7711083"><ele>837.0</ele><time>2026-05-02T10:04:09.654Z</time></trkpt><trkpt lat="42.2358817" lon="13.7712717"><ele>838.0</ele><time>2026-05-02T10:04:11.655Z</time></trkpt><trkpt lat="42.2358917" lon="13.7713583"><ele>839.0</ele><time>2026-05-02T10:04:12.655Z</time></trkpt><trkpt lat="42.2358983" lon="13.7714467"><ele>840.0</ele><time>2026-05-02T10:04:13.654Z</time></trkpt><trkpt lat="42.2359067" lon="13.7716067"><ele>840.0</ele><time>2026-05-02T10:04:15.654Z</time></trkpt><trkpt lat="42.2359017" lon="13.7717433"><ele>840.0</ele><time>2026-05-02T10:04:17.654Z</time></trkpt><trkpt lat="42.235865" lon="13.7718983"><ele>840.0</ele><time>2026-05-02T10:04:19.655Z</time></trkpt><trkpt lat="42.2358333" lon="13.7719867"><ele>840.0</ele><time>2026-05-02T10:04:20.654Z</time></trkpt><trkpt lat="42.235795" lon="13.7720667"><ele>840.0</ele><time>2026-05-02T10:04:21.655Z</time></trkpt><trkpt lat="42.2357517" lon="13.7721383"><ele>840.0</ele><time>2026-05-02T10:04:22.654Z</time></trkpt><trkpt lat="42.2357017" lon="13.772205"><ele>840.0</ele><time>2026-05-02T10:04:23.654Z</time></trkpt><trkpt lat="42.2356483" lon="13.7722817"><ele>840.0</ele><time>2026-05-02T10:04:24.655Z</time></trkpt><trkpt lat="42.2356" lon="13.7723583"><ele>840.0</ele><time>2026-05-02T10:04:25.654Z</time></trkpt><trkpt lat="42.23556" lon="13.77244"><ele>840.0</ele><time>2026-05-02T10:04:26.655Z</time></trkpt><trkpt lat="42.2354933" lon="13.772595"><ele>840.0</ele><time>2026-05-02T10:04:28.654Z</time></trkpt><trkpt lat="42.235455" lon="13.77267"><ele>840.0</ele><time>2026-05-02T10:04:29.655Z</time></trkpt><trkpt lat="42.2354117" lon="13.7727383"><ele>840.0</ele><time>2026-05-02T10:04:30.654Z</time></trkpt><trkpt lat="42.2353133" lon="13.772845"><ele>840.0</ele><time>2026-05-02T10:04:32.654Z</time></trkpt><trkpt lat="42.2352617" lon="13.7728983"><ele>840.0</ele><time>2026-05-02T10:04:33.654Z</time></trkpt><trkpt lat="42.2352117" lon="13.7729533"><ele>840.0</ele><time>2026-05-02T10:04:34.655Z</time></trkpt><trkpt lat="42.2351317" lon="13.7730683"><ele>840.0</ele><time>2026-05-02T10:04:36.655Z</time></trkpt><trkpt lat="42.2350817" lon="13.77315"><ele>840.0</ele><time>2026-05-02T10:04:38.654Z</time></trkpt><trkpt lat="42.2350533" lon="13.7732383"><ele>840.0</ele><time>2026-05-02T10:04:58.655Z</time></trkpt><trkpt lat="42.2350267" lon="13.7733483"><ele>840.0</ele><time>2026-05-02T10:05:00.654Z</time></trkpt><trkpt lat="42.23503" lon="13.7734883"><ele>840.0</ele><time>2026-05-02T10:05:02.654Z</time></trkpt><trkpt lat="42.23506" lon="13.7736567"><ele>840.0</ele><time>2026-05-02T10:05:04.654Z</time></trkpt><trkpt lat="42.2350817" lon="13.77375"><ele>840.5714285714286</ele><time>2026-05-02T10:05:05.655Z</time></trkpt><trkpt lat="42.2351067" lon="13.7738383"><ele>841.1428571428571</ele><time>2026-05-02T10:05:06.654Z</time></trkpt><trkpt lat="42.235145" lon="13.7739083"><ele>841.7142857142858</ele><time>2026-05-02T10:05:07.655Z</time></trkpt><trkpt lat="42.2351917" lon="13.7739783"><ele>842.2857142857142</ele><time>2026-05-02T10:05:08.654Z</time></trkpt><trkpt lat="42.235245" lon="13.7740433"><ele>842.8571428571429</ele><time>2026-05-02T10:05:09.654Z</time></trkpt><trkpt lat="42.2353017" lon="13.77411"><ele>843.4285714285714</ele><time>2026-05-02T10:05:10.655Z</time></trkpt><trkpt lat="42.23535" lon="13.7741783"><ele>844.0</ele><time>2026-05-02T10:05:11.654Z</time></trkpt><trkpt lat="42.2353933" lon="13.7742417"><ele>843.9999999999999</ele><time>2026-05-02T10:05:12.655Z</time></trkpt><trkpt lat="42.2354233" lon="13.7743167"><ele>844.0</ele><time>2026-05-02T10:05:13.655Z</time></trkpt><trkpt lat="42.235445" lon="13.7744017"><ele>844.0</ele><time>2026-05-02T10:05:14.655Z</time></trkpt><trkpt lat="42.23547" lon="13.7745067"><ele>844.0</ele><time>2026-05-02T10:05:15.655Z</time></trkpt><trkpt lat="42.23549" lon="13.7746333"><ele>843.9999999999999</ele><time>2026-05-02T10:05:16.654Z</time></trkpt><trkpt lat="42.23551" lon="13.77476"><ele>844.0</ele><time>2026-05-02T10:05:17.654Z</time></trkpt><trkpt lat="42.2355233" lon="13.7748733"><ele>843.6</ele><time>2026-05-02T10:05:18.654Z</time></trkpt><trkpt lat="42.2355367" lon="13.7749917"><ele>843.2</ele><time>2026-05-02T10:05:19.654Z</time></trkpt><trkpt lat="42.2355283" lon="13.775115"><ele>842.8000000000001</ele><time>2026-05-02T10:05:20.654Z</time></trkpt><trkpt lat="42.235515" lon="13.775245"><ele>842.4000000000001</ele><time>2026-05-02T10:05:21.655Z</time></trkpt><trkpt lat="42.2354933" lon="13.775375"><ele>842.0</ele><time>2026-05-02T10:05:22.654Z</time></trkpt><trkpt lat="42.2354733" lon="13.7754833"><ele>842.0000000000001</ele><time>2026-05-02T10:05:23.655Z</time></trkpt><trkpt lat="42.2354467" lon="13.7755883"><ele>842.0</ele><time>2026-05-02T10:05:24.655Z</time></trkpt><trkpt lat="42.2354017" lon="13.7756933"><ele>842.0</ele><time>2026-05-02T10:05:25.655Z</time></trkpt><trkpt lat="42.235345" lon="13.7757933"><ele>842.0</ele><time>2026-05-02T10:05:26.655Z</time></trkpt><trkpt lat="42.2352917" lon="13.7758817"><ele>842.0000000000001</ele><time>2026-05-02T10:05:27.655Z</time></trkpt><trkpt lat="42.2352267" lon="13.775965"><ele>842.0</ele><time>2026-05-02T10:05:28.655Z</time></trkpt><trkpt lat="42.235145" lon="13.776025"><ele>844.0</ele><time>2026-05-02T10:05:29.654Z</time></trkpt><trkpt lat="42.23505" lon="13.77608"><ele>846.0</ele><time>2026-05-02T10:05:30.655Z</time></trkpt><trkpt lat="42.2349533" lon="13.776105"><ele>848.0</ele><time>2026-05-02T10:05:31.654Z</time></trkpt><trkpt lat="42.2348567" lon="13.7761267"><ele>850.0</ele><time>2026-05-02T10:05:32.655Z</time></trkpt><trkpt lat="42.2347633" lon="13.7761517"><ele>852.0</ele><time>2026-05-02T10:05:33.655Z</time></trkpt><trkpt lat="42.2346833" lon="13.776175"><ele>852.0</ele><time>2026-05-02T10:05:34.654Z</time></trkpt><trkpt lat="42.23461" lon="13.776195"><ele>852.0</ele><time>2026-05-02T10:05:35.654Z</time></trkpt><trkpt lat="42.2345417" lon="13.776205"><ele>852.0</ele><time>2026-05-02T10:05:36.655Z</time></trkpt><trkpt lat="42.2344433" lon="13.7762867"><ele>852.0</ele><time>2026-05-02T10:05:38.654Z</time></trkpt><trkpt lat="42.234395" lon="13.7764067"><ele>852.0</ele><time>2026-05-02T10:05:40.655Z</time></trkpt><trkpt lat="42.2344083" lon="13.7765533"><ele>852.0</ele><time>2026-05-02T10:05:42.655Z</time></trkpt><trkpt lat="42.2344533" lon="13.7766533"><ele>852.0</ele><time>2026-05-02T10:05:43.655Z</time></trkpt><trkpt lat="42.2345117" lon="13.7767667"><ele>852.0</ele><time>2026-05-02T10:05:44.655Z</time></trkpt><trkpt lat="42.23457" lon="13.776885"><ele>852.0</ele><time>2026-05-02T10:05:45.655Z</time></trkpt><trkpt lat="42.23463" lon="13.7770083"><ele>852.0</ele><time>2026-05-02T10:05:46.654Z</time></trkpt><trkpt lat="42.23469" lon="13.777115"><ele>853.2</ele><time>2026-05-02T10:05:47.654Z</time></trkpt><trkpt lat="42.2347517" lon="13.7772033"><ele>854.4000000000001</ele><time>2026-05-02T10:05:48.655Z</time></trkpt><trkpt lat="42.2348217" lon="13.777285"><ele>855.5999999999999</ele><time>2026-05-02T10:05:49.655Z</time></trkpt><trkpt lat="42.2348917" lon="13.7773733"><ele>856.8</ele><time>2026-05-02T10:05:50.655Z</time></trkpt><trkpt lat="42.2349633" lon="13.7774733"><ele>858.0</ele><time>2026-05-02T10:05:51.654Z</time></trkpt><trkpt lat="42.23504" lon="13.7775683"><ele>856.6666666666666</ele><time>2026-05-02T10:05:52.655Z</time></trkpt><trkpt lat="42.2351067" lon="13.777665"><ele>855.3333333333333</ele><time>2026-05-02T10:05:53.654Z</time></trkpt><trkpt lat="42.2351633" lon="13.7777533"><ele>854.0</ele><time>2026-05-02T10:05:54.654Z</time></trkpt><trkpt lat="42.2352133" lon="13.7778417"><ele>852.6666666666666</ele><time>2026-05-02T10:05:55.655Z</time></trkpt><trkpt lat="42.2352617" lon="13.777925"><ele>851.3333333333333</ele><time>2026-05-02T10:05:56.654Z</time></trkpt><trkpt lat="42.2352917" lon="13.7780133"><ele>850.0</ele><time>2026-05-02T10:05:57.655Z</time></trkpt><trkpt lat="42.2353083" lon="13.7781017"><ele>849.9999999999999</ele><time>2026-05-02T10:05:58.654Z</time></trkpt><trkpt lat="42.2353183" lon="13.7782"><ele>850.0</ele><time>2026-05-02T10:05:59.655Z</time></trkpt><trkpt lat="42.235315" lon="13.7783067"><ele>850.0</ele><time>2026-05-02T10:06:00.654Z</time></trkpt><trkpt lat="42.2353083" lon="13.7784217"><ele>850.0</ele><time>2026-05-02T10:06:01.655Z</time></trkpt><trkpt lat="42.2353" lon="13.77853"><ele>849.9999999999999</ele><time>2026-05-02T10:06:02.654Z</time></trkpt><trkpt lat="42.2352817" lon="13.7786283"><ele>850.0</ele><time>2026-05-02T10:06:03.654Z</time></trkpt><trkpt lat="42.2352533" lon="13.77872"><ele>849.8333333333333</ele><time>2026-05-02T10:06:04.655Z</time></trkpt><trkpt lat="42.23521" lon="13.7788133"><ele>849.6666666666666</ele><time>2026-05-02T10:06:05.654Z</time></trkpt><trkpt lat="42.2351617" lon="13.77889"><ele>849.5</ele><time>2026-05-02T10:06:06.655Z</time></trkpt><trkpt lat="42.235105" lon="13.778965"><ele>849.3333333333333</ele><time>2026-05-02T10:06:07.654Z</time></trkpt><trkpt lat="42.235045" lon="13.7790433"><ele>849.1666666666666</ele><time>2026-05-02T10:06:08.654Z</time></trkpt><trkpt lat="42.23498" lon="13.77912"><ele>849.0</ele><time>2026-05-02T10:06:09.654Z</time></trkpt><trkpt lat="42.23491" lon="13.7792033"><ele>849.0</ele><time>2026-05-02T10:06:10.655Z</time></trkpt><trkpt lat="42.2348383" lon="13.77929"><ele>849.0</ele><time>2026-05-02T10:06:11.654Z</time></trkpt><trkpt lat="42.2347583" lon="13.7793717"><ele>849.0</ele><time>2026-05-02T10:06:12.654Z</time></trkpt><trkpt lat="42.2346767" lon="13.7794467"><ele>849.0</ele><time>2026-05-02T10:06:13.655Z</time></trkpt><trkpt lat="42.23459" lon="13.7795233"><ele>849.0</ele><time>2026-05-02T10:06:14.655Z</time></trkpt><trkpt lat="42.2345033" lon="13.7795933"><ele>848.8000000000001</ele><time>2026-05-02T10:06:15.655Z</time></trkpt><trkpt lat="42.2344183" lon="13.7796717"><ele>848.6</ele><time>2026-05-02T10:06:16.655Z</time></trkpt><trkpt lat="42.2343333" lon="13.7797483"><ele>848.4</ele><time>2026-05-02T10:06:17.654Z</time></trkpt><trkpt lat="42.2342567" lon="13.7798033"><ele>848.2</ele><time>2026-05-02T10:06:18.655Z</time></trkpt><trkpt lat="42.2341767" lon="13.7798517"><ele>848.0</ele><time>2026-05-02T10:06:19.655Z</time></trkpt><trkpt lat="42.2340983" lon="13.7798917"><ele>848.0000000000001</ele><time>2026-05-02T10:06:20.655Z</time></trkpt><trkpt lat="42.2340217" lon="13.77993"><ele>848.0</ele><time>2026-05-02T10:06:21.654Z</time></trkpt><trkpt lat="42.2339533" lon="13.779975"><ele>848.0</ele><time>2026-05-02T10:06:22.654Z</time></trkpt><trkpt lat="42.2339067" lon="13.7800333"><ele>848.0</ele><time>2026-05-02T10:06:23.654Z</time></trkpt><trkpt lat="42.2338817" lon="13.7801567"><ele>848.0000000000001</ele><time>2026-05-02T10:06:25.654Z</time></trkpt><trkpt lat="42.23393" lon="13.7803017"><ele>848.0</ele><time>2026-05-02T10:06:27.654Z</time></trkpt><trkpt lat="42.233965" lon="13.7803817"><ele>847.1666666666667</ele><time>2026-05-02T10:06:28.655Z</time></trkpt><trkpt lat="42.23399" lon="13.7804683"><ele>846.3333333333334</ele><time>2026-05-02T10:06:29.654Z</time></trkpt><trkpt lat="42.234005" lon="13.7805683"><ele>845.5</ele><time>2026-05-02T10:06:30.654Z</time></trkpt><trkpt lat="42.2340117" lon="13.7806683"><ele>844.6666666666667</ele><time>2026-05-02T10:06:31.655Z</time></trkpt><trkpt lat="42.2340067" lon="13.78078"><ele>843.8333333333334</ele><time>2026-05-02T10:06:32.654Z</time></trkpt><trkpt lat="42.2340067" lon="13.7809083"><ele>843.0</ele><time>2026-05-02T10:06:33.655Z</time></trkpt><trkpt lat="42.234005" lon="13.7810367"><ele>842.6666666666666</ele><time>2026-05-02T10:06:34.654Z</time></trkpt><trkpt lat="42.234" lon="13.781155"><ele>842.3333333333333</ele><time>2026-05-02T10:06:35.654Z</time></trkpt><trkpt lat="42.2339967" lon="13.781275"><ele>842.0</ele><time>2026-05-02T10:06:36.654Z</time></trkpt><trkpt lat="42.2340067" lon="13.781395"><ele>841.6666666666666</ele><time>2026-05-02T10:06:37.653Z</time></trkpt><trkpt lat="42.2340183" lon="13.781485"><ele>841.3333333333333</ele><time>2026-05-02T10:06:38.654Z</time></trkpt><trkpt lat="42.2340383" lon="13.7815933"><ele>841.0</ele><time>2026-05-02T10:06:40.654Z</time></trkpt><trkpt lat="42.2339933" lon="13.7816767"><ele>841.5999999999999</ele><time>2026-05-02T10:06:45.654Z</time></trkpt><trkpt lat="42.2339417" lon="13.781565"><ele>842.2</ele><time>2026-05-02T10:06:48.654Z</time></trkpt><trkpt lat="42.233905" lon="13.7814367"><ele>842.8</ele><time>2026-05-02T10:06:50.654Z</time></trkpt><trkpt lat="42.23384" lon="13.7812967"><ele>843.4000000000001</ele><time>2026-05-02T10:06:52.653Z</time></trkpt><trkpt lat="42.2338017" lon="13.7812217"><ele>844.0</ele><time>2026-05-02T10:06:53.653Z</time></trkpt><trkpt lat="42.2337517" lon="13.7811417"><ele>844.0</ele><time>2026-05-02T10:06:54.654Z</time></trkpt><trkpt lat="42.2337" lon="13.78106"><ele>844.0</ele><time>2026-05-02T10:06:55.653Z</time></trkpt><trkpt lat="42.2336183" lon="13.78094"><ele>844.0</ele><time>2026-05-02T10:06:57.654Z</time></trkpt><trkpt lat="42.23355" lon="13.78082"><ele>844.0</ele><time>2026-05-02T10:06:59.654Z</time></trkpt><trkpt lat="42.2334617" lon="13.7806767"><ele>846.2</ele><time>2026-05-02T10:07:01.653Z</time></trkpt><trkpt lat="42.2333917" lon="13.7805917"><ele>848.4000000000001</ele><time>2026-05-02T10:07:02.653Z</time></trkpt><trkpt lat="42.233315" lon="13.7805017"><ele>850.6</ele><time>2026-05-02T10:07:03.654Z</time></trkpt><trkpt lat="42.2332417" lon="13.7804183"><ele>852.8</ele><time>2026-05-02T10:07:04.654Z</time></trkpt><trkpt lat="42.233175" lon="13.7803317"><ele>855.0</ele><time>2026-05-02T10:07:05.653Z</time></trkpt><trkpt lat="42.2331217" lon="13.780255"><ele>858.4</ele><time>2026-05-02T10:07:06.653Z</time></trkpt><trkpt lat="42.233075" lon="13.7801783"><ele>861.8</ele><time>2026-05-02T10:07:07.653Z</time></trkpt><trkpt lat="42.2330183" lon="13.78008"><ele>865.2</ele><time>2026-05-02T10:07:08.654Z</time></trkpt><trkpt lat="42.23295" lon="13.7799767"><ele>868.6</ele><time>2026-05-02T10:07:09.654Z</time></trkpt><trkpt lat="42.23288" lon="13.7798783"><ele>872.0</ele><time>2026-05-02T10:07:10.654Z</time></trkpt><trkpt lat="42.23282" lon="13.7798017"><ele>872.0000000000001</ele><time>2026-05-02T10:07:11.653Z</time></trkpt><trkpt lat="42.2327567" lon="13.7797267"><ele>872.0</ele><time>2026-05-02T10:07:12.654Z</time></trkpt><trkpt lat="42.2326833" lon="13.7796517"><ele>872.0</ele><time>2026-05-02T10:07:13.654Z</time></trkpt><trkpt lat="42.2326117" lon="13.7795883"><ele>872.0</ele><time>2026-05-02T10:07:14.654Z</time></trkpt><trkpt lat="42.2325467" lon="13.7795383"><ele>872.0000000000001</ele><time>2026-05-02T10:07:15.653Z</time></trkpt><trkpt lat="42.2324867" lon="13.7795017"><ele>872.0</ele><time>2026-05-02T10:07:16.654Z</time></trkpt><trkpt lat="42.232415" lon="13.7794667"><ele>872.0000000000001</ele><time>2026-05-02T10:07:17.654Z</time></trkpt><trkpt lat="42.2323317" lon="13.7794417"><ele>872.0</ele><time>2026-05-02T10:07:18.653Z</time></trkpt><trkpt lat="42.2322517" lon="13.779415"><ele>872.0</ele><time>2026-05-02T10:07:19.654Z</time></trkpt><trkpt lat="42.23217" lon="13.7793817"><ele>872.0</ele><time>2026-05-02T10:07:20.654Z</time></trkpt><trkpt lat="42.23209" lon="13.7793533"><ele>872.0000000000001</ele><time>2026-05-02T10:07:21.654Z</time></trkpt><trkpt lat="42.232015" lon="13.7793283"><ele>872.0</ele><time>2026-05-02T10:07:22.654Z</time></trkpt><trkpt lat="42.231895" lon="13.7793017"><ele>875.75</ele><time>2026-05-02T10:07:24.653Z</time></trkpt><trkpt lat="42.23178" lon="13.7792417"><ele>879.5</ele><time>2026-05-02T10:07:26.653Z</time></trkpt><trkpt lat="42.2316717" lon="13.779175"><ele>883.25</ele><time>2026-05-02T10:07:28.653Z</time></trkpt><trkpt lat="42.231585" lon="13.779095"><ele>887.0</ele><time>2026-05-02T10:07:30.653Z</time></trkpt><trkpt lat="42.2314917" lon="13.7790083"><ele>888.1666666666667</ele><time>2026-05-02T10:07:32.653Z</time></trkpt><trkpt lat="42.2313917" lon="13.7789217"><ele>889.3333333333334</ele><time>2026-05-02T10:07:34.654Z</time></trkpt><trkpt lat="42.2313367" lon="13.7788567"><ele>890.5</ele><time>2026-05-02T10:07:35.654Z</time></trkpt><trkpt lat="42.2312767" lon="13.77878"><ele>891.6666666666667</ele><time>2026-05-02T10:07:36.653Z</time></trkpt><trkpt lat="42.2312183" lon="13.7786917"><ele>892.8333333333334</ele><time>2026-05-02T10:07:37.653Z</time></trkpt><trkpt lat="42.2311633" lon="13.7786133"><ele>894.0</ele><time>2026-05-02T10:07:38.653Z</time></trkpt><trkpt lat="42.231105" lon="13.778555"><ele>894.0</ele><time>2026-05-02T10:07:39.654Z</time></trkpt><trkpt lat="42.2310433" lon="13.7785217"><ele>894.0</ele><time>2026-05-02T10:07:40.654Z</time></trkpt><trkpt lat="42.2309767" lon="13.7785183"><ele>894.0</ele><time>2026-05-02T10:07:41.654Z</time></trkpt><trkpt lat="42.230905" lon="13.7785267"><ele>894.0</ele><time>2026-05-02T10:07:42.654Z</time></trkpt><trkpt lat="42.23084" lon="13.778535"><ele>894.0</ele><time>2026-05-02T10:07:43.653Z</time></trkpt><trkpt lat="42.23072" lon="13.77851"><ele>894.0</ele><time>2026-05-02T10:07:45.653Z</time></trkpt><trkpt lat="42.230655" lon="13.77848"><ele>897.3333333333334</ele><time>2026-05-02T10:07:46.654Z</time></trkpt><trkpt lat="42.2305917" lon="13.7784367"><ele>900.6666666666667</ele><time>2026-05-02T10:07:47.653Z</time></trkpt><trkpt lat="42.230535" lon="13.7783983"><ele>904.0</ele><time>2026-05-02T10:07:48.654Z</time></trkpt><trkpt lat="42.2304567" lon="13.7783667"><ele>907.3333333333334</ele><time>2026-05-02T10:07:50.654Z</time></trkpt><trkpt lat="42.2303967" lon="13.7783217"><ele>910.6666666666667</ele><time>2026-05-02T10:08:03.653Z</time></trkpt><trkpt lat="42.2303217" lon="13.778275"><ele>914.0</ele><time>2026-05-02T10:08:05.654Z</time></trkpt><trkpt lat="42.2302233" lon="13.7782717"><ele>914.0000000000001</ele><time>2026-05-02T10:08:07.654Z</time></trkpt><trkpt lat="42.23016" lon="13.7782767"><ele>914.0</ele><time>2026-05-02T10:08:09.653Z</time></trkpt><trkpt lat="42.2300667" lon="13.7783083"><ele>914.0</ele><time>2026-05-02T10:08:25.654Z</time></trkpt><trkpt lat="42.22998" lon="13.7782933"><ele>914.0</ele><time>2026-05-02T10:08:27.654Z</time></trkpt><trkpt lat="42.2298883" lon="13.7782267"><ele>914.0000000000001</ele><time>2026-05-02T10:08:29.653Z</time></trkpt><trkpt lat="42.22982" lon="13.7781667"><ele>914.0</ele><time>2026-05-02T10:08:30.653Z</time></trkpt><trkpt lat="42.2297417" lon="13.7780967"><ele>914.6</ele><time>2026-05-02T10:08:31.653Z</time></trkpt><trkpt lat="42.2296533" lon="13.7780283"><ele>915.2</ele><time>2026-05-02T10:08:32.653Z</time></trkpt><trkpt lat="42.2295617" lon="13.7779667"><ele>915.8000000000001</ele><time>2026-05-02T10:08:33.653Z</time></trkpt><trkpt lat="42.2294733" lon="13.7779167"><ele>916.4000000000001</ele><time>2026-05-02T10:08:34.654Z</time></trkpt><trkpt lat="42.2294033" lon="13.77788"><ele>917.0</ele><time>2026-05-02T10:08:35.654Z</time></trkpt><trkpt lat="42.229295" lon="13.7778783"><ele>917.0000000000001</ele><time>2026-05-02T10:08:37.654Z</time></trkpt><trkpt lat="42.229235" lon="13.7779083"><ele>917.0</ele><time>2026-05-02T10:08:38.654Z</time></trkpt><trkpt lat="42.2291767" lon="13.7779467"><ele>917.0</ele><time>2026-05-02T10:08:39.653Z</time></trkpt><trkpt lat="42.229055" lon="13.77797"><ele>917.0</ele><time>2026-05-02T10:08:41.654Z</time></trkpt><trkpt lat="42.2289883" lon="13.77797"><ele>917.0000000000001</ele><time>2026-05-02T10:08:42.654Z</time></trkpt><trkpt lat="42.2289233" lon="13.7779467"><ele>917.0</ele><time>2026-05-02T10:08:43.653Z</time></trkpt><trkpt lat="42.2288633" lon="13.7778933"><ele>917.1666666666667</ele><time>2026-05-02T10:08:44.653Z</time></trkpt><trkpt lat="42.2288117" lon="13.7778283"><ele>917.3333333333334</ele><time>2026-05-02T10:08:45.654Z</time></trkpt><trkpt lat="42.2287567" lon="13.77774"><ele>917.5</ele><time>2026-05-02T10:08:46.654Z</time></trkpt><trkpt lat="42.2286983" lon="13.7776417"><ele>917.6666666666667</ele><time>2026-05-02T10:08:47.653Z</time></trkpt><trkpt lat="42.2286383" lon="13.7775667"><ele>917.8333333333334</ele><time>2026-05-02T10:08:48.653Z</time></trkpt><trkpt lat="42.228575" lon="13.777515"><ele>918.0</ele><time>2026-05-02T10:08:49.654Z</time></trkpt><trkpt lat="42.2285083" lon="13.7774883"><ele>918.0</ele><time>2026-05-02T10:08:50.654Z</time></trkpt><trkpt lat="42.2284267" lon="13.7774817"><ele>918.0</ele><time>2026-05-02T10:08:51.653Z</time></trkpt><trkpt lat="42.22833" lon="13.777485"><ele>918.0</ele><time>2026-05-02T10:08:52.653Z</time></trkpt><trkpt lat="42.2282283" lon="13.7774917"><ele>918.0</ele><time>2026-05-02T10:08:53.654Z</time></trkpt><trkpt lat="42.228125" lon="13.777515"><ele>918.0</ele><time>2026-05-02T10:08:54.654Z</time></trkpt><trkpt lat="42.2280217" lon="13.7775533"><ele>918.0</ele><time>2026-05-02T10:08:55.654Z</time></trkpt><trkpt lat="42.2279217" lon="13.7776"><ele>918.0</ele><time>2026-05-02T10:08:56.654Z</time></trkpt><trkpt lat="42.2278183" lon="13.77767"><ele>918.0</ele><time>2026-05-02T10:08:57.653Z</time></trkpt><trkpt lat="42.22771" lon="13.7777517"><ele>918.0</ele><time>2026-05-02T10:08:58.653Z</time></trkpt><trkpt lat="42.2276033" lon="13.777845"><ele>918.25</ele><time>2026-05-02T10:08:59.653Z</time></trkpt><trkpt lat="42.2274883" lon="13.7779467"><ele>918.5</ele><time>2026-05-02T10:09:00.653Z</time></trkpt><trkpt lat="42.2273833" lon="13.778045"><ele>918.75</ele><time>2026-05-02T10:09:01.653Z</time></trkpt><trkpt lat="42.227285" lon="13.7781383"><ele>919.0</ele><time>2026-05-02T10:09:02.653Z</time></trkpt><trkpt lat="42.2271883" lon="13.77824"><ele>919.0</ele><time>2026-05-02T10:09:03.654Z</time></trkpt><trkpt lat="42.2270883" lon="13.7783333"><ele>919.0</ele><time>2026-05-02T10:09:04.654Z</time></trkpt><trkpt lat="42.226985" lon="13.7784283"><ele>919.0</ele><time>2026-05-02T10:09:05.653Z</time></trkpt><trkpt lat="42.2268783" lon="13.7785117"><ele>919.0</ele><time>2026-05-02T10:09:06.653Z</time></trkpt><trkpt lat="42.22677" lon="13.7786"><ele>919.5</ele><time>2026-05-02T10:09:07.653Z</time></trkpt><trkpt lat="42.2266583" lon="13.7786883"><ele>920.0</ele><time>2026-05-02T10:09:08.654Z</time></trkpt><trkpt lat="42.2265533" lon="13.7787833"><ele>920.5</ele><time>2026-05-02T10:09:09.653Z</time></trkpt><trkpt lat="42.2264483" lon="13.778875"><ele>921.0</ele><time>2026-05-02T10:09:10.653Z</time></trkpt><trkpt lat="42.2263417" lon="13.7789783"><ele>920.0</ele><time>2026-05-02T10:09:11.654Z</time></trkpt><trkpt lat="42.22624" lon="13.779095"><ele>919.0</ele><time>2026-05-02T10:09:12.654Z</time></trkpt><trkpt lat="42.2261433" lon="13.7792167"><ele>918.0</ele><time>2026-05-02T10:09:13.654Z</time></trkpt><trkpt lat="42.2260483" lon="13.7793433"><ele>917.0</ele><time>2026-05-02T10:09:14.653Z</time></trkpt><trkpt lat="42.225955" lon="13.77948"><ele>917.0</ele><time>2026-05-02T10:09:15.654Z</time></trkpt><trkpt lat="42.2258683" lon="13.7796217"><ele>917.0</ele><time>2026-05-02T10:09:16.654Z</time></trkpt><trkpt lat="42.2257767" lon="13.7797583"><ele>917.0</ele><time>2026-05-02T10:09:17.653Z</time></trkpt><trkpt lat="42.2256817" lon="13.779895"><ele>917.0</ele><time>2026-05-02T10:09:18.653Z</time></trkpt><trkpt lat="42.2255917" lon="13.780025"><ele>914.5</ele><time>2026-05-02T10:09:19.653Z</time></trkpt><trkpt lat="42.2255033" lon="13.7801583"><ele>912.0</ele><time>2026-05-02T10:09:20.653Z</time></trkpt><trkpt lat="42.22542" lon="13.7802883"><ele>909.5</ele><time>2026-05-02T10:09:21.654Z</time></trkpt><trkpt lat="42.225345" lon="13.7804067"><ele>907.0</ele><time>2026-05-02T10:09:22.654Z</time></trkpt><trkpt lat="42.2252783" lon="13.7805367"><ele>907.0</ele><time>2026-05-02T10:09:23.653Z</time></trkpt><trkpt lat="42.2252183" lon="13.7806633"><ele>907.0</ele><time>2026-05-02T10:09:24.653Z</time></trkpt><trkpt lat="42.225155" lon="13.7807833"><ele>907.0</ele><time>2026-05-02T10:09:25.654Z</time></trkpt><trkpt lat="42.2250817" lon="13.780895"><ele>907.0</ele><time>2026-05-02T10:09:26.654Z</time></trkpt><trkpt lat="42.2250017" lon="13.7810017"><ele>907.0</ele><time>2026-05-02T10:09:27.653Z</time></trkpt><trkpt lat="42.2249267" lon="13.7810967"><ele>907.4000000000001</ele><time>2026-05-02T10:09:28.653Z</time></trkpt><trkpt lat="42.2248483" lon="13.78119"><ele>907.8000000000001</ele><time>2026-05-02T10:09:29.654Z</time></trkpt><trkpt lat="42.224785" lon="13.7812817"><ele>908.2</ele><time>2026-05-02T10:09:30.654Z</time></trkpt><trkpt lat="42.2247317" lon="13.78137"><ele>908.6</ele><time>2026-05-02T10:09:31.654Z</time></trkpt><trkpt lat="42.224695" lon="13.781475"><ele>909.0</ele><time>2026-05-02T10:09:32.654Z</time></trkpt><trkpt lat="42.2246617" lon="13.7816067"><ele>904.8000000000001</ele><time>2026-05-02T10:09:33.653Z</time></trkpt><trkpt lat="42.22463" lon="13.7817433"><ele>900.6000000000001</ele><time>2026-05-02T10:09:34.653Z</time></trkpt><trkpt lat="42.2245867" lon="13.7818783"><ele>896.4</ele><time>2026-05-02T10:09:35.654Z</time></trkpt><trkpt lat="42.2245283" lon="13.78201"><ele>892.2</ele><time>2026-05-02T10:09:36.653Z</time></trkpt><trkpt lat="42.2244667" lon="13.782145"><ele>888.0</ele><time>2026-05-02T10:09:37.654Z</time></trkpt><trkpt lat="42.2244117" lon="13.7822817"><ele>887.5999999999999</ele><time>2026-05-02T10:09:38.654Z</time></trkpt><trkpt lat="42.22437" lon="13.782425"><ele>887.1999999999999</ele><time>2026-05-02T10:09:39.653Z</time></trkpt><trkpt lat="42.2243317" lon="13.7825617"><ele>886.8</ele><time>2026-05-02T10:09:40.653Z</time></trkpt><trkpt lat="42.2243" lon="13.7826883"><ele>886.4</ele><time>2026-05-02T10:09:41.652Z</time></trkpt><trkpt lat="42.22429" lon="13.7828083"><ele>886.0</ele><time>2026-05-02T10:09:42.653Z</time></trkpt><trkpt lat="42.22428" lon="13.78294"><ele>885.9999999999999</ele><time>2026-05-02T10:09:44.652Z</time></trkpt><trkpt lat="42.2242" lon="13.78292"><ele>886.0</ele><time>2026-05-02T10:09:46.653Z</time></trkpt><trkpt lat="42.224155" lon="13.7828583"><ele>886.0</ele><time>2026-05-02T10:09:47.653Z</time></trkpt><trkpt lat="42.2241067" lon="13.7827683"><ele>886.0</ele><time>2026-05-02T10:09:48.653Z</time></trkpt><trkpt lat="42.2240533" lon="13.78266"><ele>885.9999999999999</ele><time>2026-05-02T10:09:49.653Z</time></trkpt><trkpt lat="42.2239983" lon="13.7825417"><ele>886.0</ele><time>2026-05-02T10:09:50.652Z</time></trkpt><trkpt lat="42.2239367" lon="13.782415"><ele>880.4</ele><time>2026-05-02T10:09:51.652Z</time></trkpt><trkpt lat="42.2238867" lon="13.7822783"><ele>874.8</ele><time>2026-05-02T10:09:52.652Z</time></trkpt><trkpt lat="42.2238417" lon="13.782145"><ele>869.1999999999999</ele><time>2026-05-02T10:09:53.653Z</time></trkpt><trkpt lat="42.2238" lon="13.78203"><ele>863.5999999999999</ele><time>2026-05-02T10:09:54.652Z</time></trkpt><trkpt lat="42.2237633" lon="13.781935"><ele>858.0</ele><time>2026-05-02T10:09:55.652Z</time></trkpt><trkpt lat="42.2236983" lon="13.7818717"><ele>858.0</ele><time>2026-05-02T10:09:57.653Z</time></trkpt><trkpt lat="42.2236517" lon="13.7819533"><ele>858.0</ele><time>2026-05-02T10:09:59.652Z</time></trkpt><trkpt lat="42.22364" lon="13.7821283"><ele>858.0</ele><time>2026-05-02T10:10:01.653Z</time></trkpt><trkpt lat="42.22363" lon="13.7822433"><ele>858.0</ele><time>2026-05-02T10:10:02.652Z</time></trkpt><trkpt lat="42.2236083" lon="13.7823683"><ele>858.0</ele><time>2026-05-02T10:10:03.652Z</time></trkpt><trkpt lat="42.223585" lon="13.7824833"><ele>858.0</ele><time>2026-05-02T10:10:04.653Z</time></trkpt><trkpt lat="42.2235783" lon="13.782575"><ele>858.0</ele><time>2026-05-02T10:10:05.653Z</time></trkpt><trkpt lat="42.2235383" lon="13.7826483"><ele>858.0</ele><time>2026-05-02T10:10:07.653Z</time></trkpt><trkpt lat="42.223475" lon="13.7825667"><ele>858.0</ele><time>2026-05-02T10:10:09.652Z</time></trkpt><trkpt lat="42.2234483" lon="13.7824833"><ele>858.0</ele><time>2026-05-02T10:10:10.652Z</time></trkpt><trkpt lat="42.2234117" lon="13.7823833"><ele>858.0</ele><time>2026-05-02T10:10:11.653Z</time></trkpt><trkpt lat="42.2233717" lon="13.7822783"><ele>858.0</ele><time>2026-05-02T10:10:12.652Z</time></trkpt><trkpt lat="42.2233367" lon="13.7821733"><ele>858.0</ele><time>2026-05-02T10:10:13.652Z</time></trkpt><trkpt lat="42.2233083" lon="13.782075"><ele>858.0</ele><time>2026-05-02T10:10:14.652Z</time></trkpt><trkpt lat="42.22324" lon="13.7819917"><ele>858.0</ele><time>2026-05-02T10:10:16.653Z</time></trkpt><trkpt lat="42.2231517" lon="13.7820983"><ele>858.0</ele><time>2026-05-02T10:10:18.653Z</time></trkpt><trkpt lat="42.2230967" lon="13.7821933"><ele>857.0</ele><time>2026-05-02T10:10:19.652Z</time></trkpt><trkpt lat="42.2230383" lon="13.7822917"><ele>856.0</ele><time>2026-05-02T10:10:20.653Z</time></trkpt><trkpt lat="42.2229733" lon="13.782375"><ele>855.0</ele><time>2026-05-02T10:10:21.652Z</time></trkpt><trkpt lat="42.222925" lon="13.7824433"><ele>854.0</ele><time>2026-05-02T10:10:22.653Z</time></trkpt><trkpt lat="42.222815" lon="13.7824883"><ele>853.0</ele><time>2026-05-02T10:10:24.653Z</time></trkpt><trkpt lat="42.22275" lon="13.782475"><ele>852.0</ele><time>2026-05-02T10:10:25.652Z</time></trkpt><trkpt lat="42.2226917" lon="13.7824333"><ele>852.0</ele><time>2026-05-02T10:10:26.652Z</time></trkpt><trkpt lat="42.2226167" lon="13.7823567"><ele>852.0</ele><time>2026-05-02T10:10:28.653Z</time></trkpt><trkpt lat="42.2225383" lon="13.7822767"><ele>852.0</ele><time>2026-05-02T10:10:30.652Z</time></trkpt><trkpt lat="42.2224833" lon="13.7822283"><ele>852.0</ele><time>2026-05-02T10:10:31.653Z</time></trkpt><trkpt lat="42.2224267" lon="13.7821783"><ele>852.0</ele><time>2026-05-02T10:10:32.652Z</time></trkpt><trkpt lat="42.2223717" lon="13.7821267"><ele>852.0</ele><time>2026-05-02T10:10:33.652Z</time></trkpt><trkpt lat="42.222315" lon="13.7820667"><ele>852.8333333333334</ele><time>2026-05-02T10:10:34.653Z</time></trkpt><trkpt lat="42.2222633" lon="13.7819983"><ele>853.6666666666667</ele><time>2026-05-02T10:10:35.652Z</time></trkpt><trkpt lat="42.2222083" lon="13.7819267"><ele>854.5</ele><time>2026-05-02T10:10:36.653Z</time></trkpt><trkpt lat="42.22215" lon="13.7818583"><ele>855.3333333333334</ele><time>2026-05-02T10:10:37.653Z</time></trkpt><trkpt lat="42.222095" lon="13.7817917"><ele>856.1666666666667</ele><time>2026-05-02T10:10:38.653Z</time></trkpt><trkpt lat="42.2220483" lon="13.781725"><ele>857.0</ele><time>2026-05-02T10:10:39.653Z</time></trkpt><trkpt lat="42.2219783" lon="13.78159"><ele>857.0</ele><time>2026-05-02T10:10:41.653Z</time></trkpt><trkpt lat="42.2219333" lon="13.7814517"><ele>857.0</ele><time>2026-05-02T10:10:43.653Z</time></trkpt><trkpt lat="42.2219017" lon="13.7813183"><ele>857.0</ele><time>2026-05-02T10:10:45.653Z</time></trkpt><trkpt lat="42.2218567" lon="13.781195"><ele>857.0</ele><time>2026-05-02T10:10:47.653Z</time></trkpt><trkpt lat="42.221825" lon="13.78106"><ele>857.0</ele><time>2026-05-02T10:10:49.653Z</time></trkpt><trkpt lat="42.2217967" lon="13.7809383"><ele>856.2</ele><time>2026-05-02T10:10:51.652Z</time></trkpt><trkpt lat="42.2217667" lon="13.78081"><ele>855.4000000000001</ele><time>2026-05-02T10:10:53.652Z</time></trkpt><trkpt lat="42.2217267" lon="13.78067"><ele>854.5999999999999</ele><time>2026-05-02T10:10:55.653Z</time></trkpt><trkpt lat="42.221695" lon="13.7805383"><ele>853.8</ele><time>2026-05-02T10:10:57.652Z</time></trkpt><trkpt lat="42.2216467" lon="13.7804133"><ele>853.0</ele><time>2026-05-02T10:10:59.652Z</time></trkpt><trkpt lat="42.2216067" lon="13.7802983"><ele>851.8</ele><time>2026-05-02T10:11:01.652Z</time></trkpt><trkpt lat="42.2215583" lon="13.7801783"><ele>850.5999999999999</ele><time>2026-05-02T10:11:03.652Z</time></trkpt><trkpt lat="42.221495" lon="13.7801"><ele>849.4000000000001</ele><time>2026-05-02T10:11:05.653Z</time></trkpt><trkpt lat="42.2214133" lon="13.7801217"><ele>848.2</ele><time>2026-05-02T10:11:08.653Z</time></trkpt><trkpt lat="42.2214183" lon="13.7802183"><ele>847.0</ele><time>2026-05-02T10:11:35.653Z</time></trkpt><trkpt lat="42.221505" lon="13.7801067"><ele>845.2</ele><time>2026-05-02T10:15:02.652Z</time></trkpt><trkpt lat="42.221465" lon="13.77998"><ele>843.4000000000001</ele><time>2026-05-02T10:15:04.651Z</time></trkpt><trkpt lat="42.221425" lon="13.779845"><ele>841.5999999999999</ele><time>2026-05-02T10:15:06.652Z</time></trkpt><trkpt lat="42.22138" lon="13.77973"><ele>839.8</ele><time>2026-05-02T10:15:08.652Z</time></trkpt><trkpt lat="42.22129" lon="13.779735"><ele>838.0</ele><time>2026-05-02T10:15:11.651Z</time></trkpt><trkpt lat="42.2211933" lon="13.7798133"><ele>837.9999999999999</ele><time>2026-05-02T10:15:13.651Z</time></trkpt><trkpt lat="42.2211383" lon="13.7798683"><ele>838.0</ele><time>2026-05-02T10:15:14.651Z</time></trkpt><trkpt lat="42.2210833" lon="13.779925"><ele>838.0</ele><time>2026-05-02T10:15:15.652Z</time></trkpt><trkpt lat="42.2210267" lon="13.77997"><ele>838.0</ele><time>2026-05-02T10:15:16.652Z</time></trkpt><trkpt lat="42.220965" lon="13.78001"><ele>838.0</ele><time>2026-05-02T10:15:17.651Z</time></trkpt><trkpt lat="42.2209017" lon="13.7800617"><ele>837.9999999999999</ele><time>2026-05-02T10:15:18.651Z</time></trkpt><trkpt lat="42.22083" lon="13.78012"><ele>838.0</ele><time>2026-05-02T10:15:19.652Z</time></trkpt><trkpt lat="42.2207567" lon="13.78018"><ele>837.8333333333333</ele><time>2026-05-02T10:15:20.652Z</time></trkpt><trkpt lat="42.22068" lon="13.780245"><ele>837.6666666666666</ele><time>2026-05-02T10:15:21.651Z</time></trkpt><trkpt lat="42.220605" lon="13.780305"><ele>837.5</ele><time>2026-05-02T10:15:22.652Z</time></trkpt><trkpt lat="42.2205283" lon="13.7803533"><ele>837.3333333333333</ele><time>2026-05-02T10:15:23.652Z</time></trkpt><trkpt lat="42.22045" lon="13.7803967"><ele>837.1666666666666</ele><time>2026-05-02T10:15:24.652Z</time></trkpt><trkpt lat="42.22037" lon="13.78043"><ele>837.0</ele><time>2026-05-02T10:15:25.651Z</time></trkpt><trkpt lat="42.2202883" lon="13.7804583"><ele>837.0</ele><time>2026-05-02T10:15:26.652Z</time></trkpt><trkpt lat="42.2202133" lon="13.7804817"><ele>837.0</ele><time>2026-05-02T10:15:27.651Z</time></trkpt><trkpt lat="42.2201467" lon="13.7804933"><ele>837.0</ele><time>2026-05-02T10:15:28.652Z</time></trkpt><trkpt lat="42.220075" lon="13.780485"><ele>837.0</ele><time>2026-05-02T10:15:29.652Z</time></trkpt><trkpt lat="42.2200083" lon="13.7804667"><ele>837.0</ele><time>2026-05-02T10:15:30.652Z</time></trkpt><trkpt lat="42.2199317" lon="13.7804483"><ele>837.0</ele><time>2026-05-02T10:15:31.651Z</time></trkpt><trkpt lat="42.2198417" lon="13.7804233"><ele>835.2</ele><time>2026-05-02T10:15:32.652Z</time></trkpt><trkpt lat="42.2197483" lon="13.7803917"><ele>833.4000000000001</ele><time>2026-05-02T10:15:33.652Z</time></trkpt><trkpt lat="42.2196483" lon="13.7803567"><ele>831.5999999999999</ele><time>2026-05-02T10:15:34.651Z</time></trkpt><trkpt lat="42.2195517" lon="13.7803067"><ele>829.8</ele><time>2026-05-02T10:15:35.652Z</time></trkpt><trkpt lat="42.2194733" lon="13.7802367"><ele>828.0</ele><time>2026-05-02T10:15:36.651Z</time></trkpt><trkpt lat="42.2194083" lon="13.78015"><ele>824.3333333333334</ele><time>2026-05-02T10:15:37.652Z</time></trkpt><trkpt lat="42.21934" lon="13.7800517"><ele>820.6666666666667</ele><time>2026-05-02T10:15:38.651Z</time></trkpt><trkpt lat="42.2192767" lon="13.7799633"><ele>817.0</ele><time>2026-05-02T10:15:39.652Z</time></trkpt><trkpt lat="42.2192133" lon="13.779885"><ele>813.3333333333334</ele><time>2026-05-02T10:15:40.651Z</time></trkpt><trkpt lat="42.2191633" lon="13.779815"><ele>809.6666666666667</ele><time>2026-05-02T10:15:41.652Z</time></trkpt><trkpt lat="42.2191117" lon="13.7797617"><ele>806.0</ele><time>2026-05-02T10:15:42.65Z</time></trkpt><trkpt lat="42.21905" lon="13.7797083"><ele>803.6666666666667</ele><time>2026-05-02T10:15:43.65Z</time></trkpt><trkpt lat="42.2189783" lon="13.7796617"><ele>801.3333333333334</ele><time>2026-05-02T10:15:44.651Z</time></trkpt><trkpt lat="42.2188983" lon="13.7796217"><ele>799.0</ele><time>2026-05-02T10:15:45.65Z</time></trkpt><trkpt lat="42.2188133" lon="13.7795983"><ele>796.6666666666667</ele><time>2026-05-02T10:15:46.651Z</time></trkpt><trkpt lat="42.2187183" lon="13.7795967"><ele>794.3333333333334</ele><time>2026-05-02T10:15:47.651Z</time></trkpt><trkpt lat="42.2186233" lon="13.7796133"><ele>792.0</ele><time>2026-05-02T10:15:48.651Z</time></trkpt><trkpt lat="42.2185283" lon="13.7796433"><ele>792.0</ele><time>2026-05-02T10:15:49.65Z</time></trkpt><trkpt lat="42.2184333" lon="13.7796833"><ele>792.0</ele><time>2026-05-02T10:15:50.651Z</time></trkpt><trkpt lat="42.218335" lon="13.77973"><ele>792.0</ele><time>2026-05-02T10:15:51.651Z</time></trkpt><trkpt lat="42.2182333" lon="13.7797683"><ele>792.0</ele><time>2026-05-02T10:15:52.65Z</time></trkpt><trkpt lat="42.2181283" lon="13.7798167"><ele>792.0</ele><time>2026-05-02T10:15:53.65Z</time></trkpt><trkpt lat="42.21802" lon="13.7798633"><ele>791.0</ele><time>2026-05-02T10:15:54.651Z</time></trkpt><trkpt lat="42.2179217" lon="13.7798967"><ele>790.0</ele><time>2026-05-02T10:15:55.65Z</time></trkpt><trkpt lat="42.2178333" lon="13.7799183"><ele>789.0</ele><time>2026-05-02T10:15:56.65Z</time></trkpt><trkpt lat="42.21775" lon="13.7799167"><ele>788.0</ele><time>2026-05-02T10:15:57.65Z</time></trkpt><trkpt lat="42.21767" lon="13.7798733"><ele>787.0</ele><time>2026-05-02T10:15:58.651Z</time></trkpt><trkpt lat="42.2176067" lon="13.7798083"><ele>786.0</ele><time>2026-05-02T10:15:59.65Z</time></trkpt><trkpt lat="42.21755" lon="13.779725"><ele>786.0</ele><time>2026-05-02T10:16:00.65Z</time></trkpt><trkpt lat="42.2175133" lon="13.7796217"><ele>786.0</ele><time>2026-05-02T10:16:01.651Z</time></trkpt><trkpt lat="42.21749" lon="13.7794933"><ele>786.0</ele><time>2026-05-02T10:16:02.65Z</time></trkpt><trkpt lat="42.2174767" lon="13.7793467"><ele>786.0</ele><time>2026-05-02T10:16:03.651Z</time></trkpt><trkpt lat="42.2174617" lon="13.779185"><ele>786.0</ele><time>2026-05-02T10:16:04.651Z</time></trkpt><trkpt lat="42.2174367" lon="13.7790183"><ele>783.0</ele><time>2026-05-02T10:16:05.651Z</time></trkpt><trkpt lat="42.2174017" lon="13.7788633"><ele>780.0</ele><time>2026-05-02T10:16:06.651Z</time></trkpt><trkpt lat="42.217355" lon="13.7787183"><ele>777.0</ele><time>2026-05-02T10:16:07.651Z</time></trkpt><trkpt lat="42.2173017" lon="13.778575"><ele>774.0</ele><time>2026-05-02T10:16:08.65Z</time></trkpt><trkpt lat="42.2172467" lon="13.7784317"><ele>769.5</ele><time>2026-05-02T10:16:09.651Z</time></trkpt><trkpt lat="42.2171817" lon="13.7782867"><ele>765.0</ele><time>2026-05-02T10:16:10.651Z</time></trkpt><trkpt lat="42.2171217" lon="13.7781417"><ele>760.5</ele><time>2026-05-02T10:16:11.65Z</time></trkpt><trkpt lat="42.2170617" lon="13.77801"><ele>756.0</ele><time>2026-05-02T10:16:12.65Z</time></trkpt><trkpt lat="42.21701" lon="13.7778883"><ele>756.0</ele><time>2026-05-02T10:16:13.651Z</time></trkpt><trkpt lat="42.2169483" lon="13.7777833"><ele>756.0</ele><time>2026-05-02T10:16:14.651Z</time></trkpt><trkpt lat="42.2168833" lon="13.7776917"><ele>756.0</ele><time>2026-05-02T10:16:15.651Z</time></trkpt><trkpt lat="42.2167983" lon="13.7776167"><ele>756.0</ele><time>2026-05-02T10:16:16.651Z</time></trkpt><trkpt lat="42.216705" lon="13.7775517"><ele>756.0</ele><time>2026-05-02T10:16:17.651Z</time></trkpt><trkpt lat="42.2165983" lon="13.7774933"><ele>749.25</ele><time>2026-05-02T10:16:18.65Z</time></trkpt><trkpt lat="42.2164817" lon="13.7774383"><ele>742.5</ele><time>2026-05-02T10:16:19.651Z</time></trkpt><trkpt lat="42.216365" lon="13.7773783"><ele>735.75</ele><time>2026-05-02T10:16:20.651Z</time></trkpt><trkpt lat="42.2162417" lon="13.77731"><ele>729.0</ele><time>2026-05-02T10:16:21.651Z</time></trkpt><trkpt lat="42.2161167" lon="13.7772217"><ele>729.0</ele><time>2026-05-02T10:16:22.65Z</time></trkpt><trkpt lat="42.2159917" lon="13.7771333"><ele>729.0</ele><time>2026-05-02T10:16:23.65Z</time></trkpt><trkpt lat="42.215855" lon="13.7770417"><ele>729.0</ele><time>2026-05-02T10:16:24.65Z</time></trkpt><trkpt lat="42.2157267" lon="13.7769583"><ele>729.0</ele><time>2026-05-02T10:16:25.651Z</time></trkpt><trkpt lat="42.215595" lon="13.7768783"><ele>724.0</ele><time>2026-05-02T10:16:26.65Z</time></trkpt><trkpt lat="42.2154783" lon="13.776815"><ele>719.0</ele><time>2026-05-02T10:16:27.651Z</time></trkpt><trkpt lat="42.2153617" lon="13.77676"><ele>714.0</ele><time>2026-05-02T10:16:28.651Z</time></trkpt><trkpt lat="42.2152533" lon="13.7767233"><ele>709.0</ele><time>2026-05-02T10:16:29.651Z</time></trkpt><trkpt lat="42.2151483" lon="13.7767017"><ele>709.0</ele><time>2026-05-02T10:16:30.65Z</time></trkpt><trkpt lat="42.215055" lon="13.7767083"><ele>709.0</ele><time>2026-05-02T10:16:31.651Z</time></trkpt><trkpt lat="42.21498" lon="13.7767417"><ele>709.0</ele><time>2026-05-02T10:16:32.651Z</time></trkpt><trkpt lat="42.2149283" lon="13.7768033"><ele>709.0</ele><time>2026-05-02T10:16:33.65Z</time></trkpt><trkpt lat="42.2148967" lon="13.7768883"><ele>709.0</ele><time>2026-05-02T10:16:34.651Z</time></trkpt><trkpt lat="42.2148733" lon="13.7769683"><ele>709.0</ele><time>2026-05-02T10:16:35.651Z</time></trkpt><trkpt lat="42.2148333" lon="13.7770933"><ele>709.0</ele><time>2026-05-02T10:16:37.65Z</time></trkpt><trkpt lat="42.2147767" lon="13.7771317"><ele>709.0</ele><time>2026-05-02T10:16:40.651Z</time></trkpt><trkpt lat="42.214765" lon="13.7770033"><ele>709.0</ele><time>2026-05-02T10:16:44.651Z</time></trkpt><trkpt lat="42.2147917" lon="13.7769217"><ele>709.0</ele><time>2026-05-02T10:16:45.651Z</time></trkpt><trkpt lat="42.214815" lon="13.7768383"><ele>709.0</ele><time>2026-05-02T10:16:46.651Z</time></trkpt><trkpt lat="42.2148417" lon="13.7767583"><ele>709.0</ele><time>2026-05-02T10:16:47.651Z</time></trkpt><trkpt lat="42.214885" lon="13.77662"><ele>709.0</ele><time>2026-05-02T10:16:49.651Z</time></trkpt><trkpt lat="42.21492" lon="13.7764767"><ele>709.0</ele><time>2026-05-02T10:16:51.651Z</time></trkpt><trkpt lat="42.2148883" lon="13.77637"><ele>709.0</ele><time>2026-05-02T10:16:53.65Z</time></trkpt><trkpt lat="42.2147967" lon="13.776355"><ele>709.0</ele><time>2026-05-02T10:16:55.651Z</time></trkpt><trkpt lat="42.2147067" lon="13.7765367"><ele>707.0</ele><time>2026-05-02T10:16:57.65Z</time></trkpt><trkpt lat="42.214645" lon="13.7766933"><ele>705.0</ele><time>2026-05-02T10:16:58.65Z</time></trkpt><trkpt lat="42.2145617" lon="13.77685"><ele>703.0</ele><time>2026-05-02T10:16:59.65Z</time></trkpt><trkpt lat="42.2144817" lon="13.777015"><ele>701.0</ele><time>2026-05-02T10:17:00.651Z</time></trkpt><trkpt lat="42.2144117" lon="13.7771683"><ele>701.0</ele><time>2026-05-02T10:17:01.651Z</time></trkpt><trkpt lat="42.2143567" lon="13.7772983"><ele>701.0</ele><time>2026-05-02T10:17:02.651Z</time></trkpt><trkpt lat="42.2143133" lon="13.7774017"><ele>701.0</ele><time>2026-05-02T10:17:03.651Z</time></trkpt><trkpt lat="42.2142633" lon="13.7774717"><ele>701.0</ele><time>2026-05-02T10:17:04.65Z</time></trkpt><trkpt lat="42.2141717" lon="13.77746"><ele>701.0</ele><time>2026-05-02T10:17:06.651Z</time></trkpt><trkpt lat="42.21417" lon="13.7772683"><ele>701.0</ele><time>2026-05-02T10:17:08.65Z</time></trkpt><trkpt lat="42.214205" lon="13.7771233"><ele>701.0</ele><time>2026-05-02T10:17:09.651Z</time></trkpt><trkpt lat="42.2142433" lon="13.77698"><ele>701.0</ele><time>2026-05-02T10:17:10.65Z</time></trkpt><trkpt lat="42.214275" lon="13.7768483"><ele>701.0</ele><time>2026-05-02T10:17:11.651Z</time></trkpt><trkpt lat="42.2143067" lon="13.7767283"><ele>701.0</ele><time>2026-05-02T10:17:12.65Z</time></trkpt><trkpt lat="42.21433" lon="13.77663"><ele>700.0</ele><time>2026-05-02T10:17:13.65Z</time></trkpt><trkpt lat="42.214325" lon="13.7765033"><ele>699.0</ele><time>2026-05-02T10:17:15.65Z</time></trkpt><trkpt lat="42.2142483" lon="13.7765217"><ele>698.0</ele><time>2026-05-02T10:17:18.65Z</time></trkpt><trkpt lat="42.2141833" lon="13.7766133"><ele>697.0</ele><time>2026-05-02T10:17:20.651Z</time></trkpt><trkpt lat="42.21409" lon="13.776705"><ele>696.0</ele><time>2026-05-02T10:17:22.651Z</time></trkpt><trkpt lat="42.2139733" lon="13.7767383"><ele>694.8</ele><time>2026-05-02T10:17:24.651Z</time></trkpt><trkpt lat="42.2138333" lon="13.77674"><ele>693.5999999999999</ele><time>2026-05-02T10:17:26.651Z</time></trkpt><trkpt lat="42.2137517" lon="13.77674"><ele>692.4</ele><time>2026-05-02T10:17:27.65Z</time></trkpt><trkpt lat="42.2136667" lon="13.7767383"><ele>691.2</ele><time>2026-05-02T10:17:28.65Z</time></trkpt><trkpt lat="42.2135817" lon="13.776725"><ele>690.0</ele><time>2026-05-02T10:17:29.65Z</time></trkpt><trkpt lat="42.2134967" lon="13.7766933"><ele>690.0</ele><time>2026-05-02T10:17:30.65Z</time></trkpt><trkpt lat="42.21341" lon="13.77664"><ele>690.0</ele><time>2026-05-02T10:17:31.65Z</time></trkpt><trkpt lat="42.2133217" lon="13.7765733"><ele>690.0</ele><time>2026-05-02T10:17:32.65Z</time></trkpt><trkpt lat="42.2132283" lon="13.776505"><ele>690.0</ele><time>2026-05-02T10:17:33.651Z</time></trkpt><trkpt lat="42.2131367" lon="13.7764317"><ele>690.0</ele><time>2026-05-02T10:17:34.65Z</time></trkpt><trkpt lat="42.2130583" lon="13.7763717"><ele>690.0</ele><time>2026-05-02T10:17:35.65Z</time></trkpt><trkpt lat="42.212995" lon="13.7763367"><ele>690.0</ele><time>2026-05-02T10:17:36.65Z</time></trkpt><trkpt lat="42.212885" lon="13.7763517"><ele>690.0</ele><time>2026-05-02T10:17:38.651Z</time></trkpt><trkpt lat="42.212815" lon="13.7764"><ele>690.0</ele><time>2026-05-02T10:17:39.65Z</time></trkpt><trkpt lat="42.21273" lon="13.776465"><ele>690.0</ele><time>2026-05-02T10:17:40.65Z</time></trkpt><trkpt lat="42.2126467" lon="13.7765483"><ele>690.0</ele><time>2026-05-02T10:17:41.65Z</time></trkpt><trkpt lat="42.212565" lon="13.7766367"><ele>690.0</ele><time>2026-05-02T10:17:42.65Z</time></trkpt><trkpt lat="42.212485" lon="13.7767317"><ele>690.0</ele><time>2026-05-02T10:17:43.65Z</time></trkpt><trkpt lat="42.212405" lon="13.776825"><ele>690.0</ele><time>2026-05-02T10:17:44.651Z</time></trkpt><trkpt lat="42.2123267" lon="13.7768933"><ele>690.0</ele><time>2026-05-02T10:17:45.651Z</time></trkpt><trkpt lat="42.2122467" lon="13.77696"><ele>688.6666666666666</ele><time>2026-05-02T10:17:46.651Z</time></trkpt><trkpt lat="42.212175" lon="13.77702"><ele>687.3333333333334</ele><time>2026-05-02T10:17:47.651Z</time></trkpt><trkpt lat="42.2121017" lon="13.77708"><ele>686.0</ele><time>2026-05-02T10:17:48.65Z</time></trkpt><trkpt lat="42.2120317" lon="13.7771383"><ele>684.6666666666667</ele><time>2026-05-02T10:17:49.651Z</time></trkpt><trkpt lat="42.2119667" lon="13.7771783"><ele>683.3333333333334</ele><time>2026-05-02T10:17:50.651Z</time></trkpt><trkpt lat="42.2118983" lon="13.7772033"><ele>682.0</ele><time>2026-05-02T10:17:51.651Z</time></trkpt><trkpt lat="42.2118183" lon="13.7772083"><ele>682.0</ele><time>2026-05-02T10:17:52.651Z</time></trkpt><trkpt lat="42.2117317" lon="13.77719"><ele>682.0</ele><time>2026-05-02T10:17:53.651Z</time></trkpt><trkpt lat="42.2116383" lon="13.7771633"><ele>682.0</ele><time>2026-05-02T10:17:54.651Z</time></trkpt><trkpt lat="42.2115383" lon="13.7771233"><ele>682.0</ele><time>2026-05-02T10:17:55.651Z</time></trkpt><trkpt lat="42.2114433" lon="13.7770667"><ele>682.0</ele><time>2026-05-02T10:17:56.651Z</time></trkpt><trkpt lat="42.2113617" lon="13.7769883"><ele>681.75</ele><time>2026-05-02T10:17:57.651Z</time></trkpt><trkpt lat="42.2112633" lon="13.77688"><ele>681.5</ele><time>2026-05-02T10:17:58.65Z</time></trkpt><trkpt lat="42.21116" lon="13.7767633"><ele>681.25</ele><time>2026-05-02T10:17:59.651Z</time></trkpt><trkpt lat="42.21107" lon="13.7766633"><ele>681.0</ele><time>2026-05-02T10:18:00.651Z</time></trkpt><trkpt lat="42.21099" lon="13.7765767"><ele>681.0</ele><time>2026-05-02T10:18:01.65Z</time></trkpt><trkpt lat="42.210925" lon="13.7764933"><ele>681.0</ele><time>2026-05-02T10:18:02.651Z</time></trkpt><trkpt lat="42.2108617" lon="13.7764133"><ele>681.0</ele><time>2026-05-02T10:18:03.65Z</time></trkpt><trkpt lat="42.2108033" lon="13.7763333"><ele>681.0</ele><time>2026-05-02T10:18:04.651Z</time></trkpt><trkpt lat="42.2107383" lon="13.776255"><ele>681.0</ele><time>2026-05-02T10:18:05.651Z</time></trkpt><trkpt lat="42.2106567" lon="13.7761717"><ele>681.0</ele><time>2026-05-02T10:18:06.651Z</time></trkpt><trkpt lat="42.2105583" lon="13.776105"><ele>680.5</ele><time>2026-05-02T10:18:07.65Z</time></trkpt><trkpt lat="42.2104533" lon="13.77605"><ele>680.0</ele><time>2026-05-02T10:18:08.651Z</time></trkpt><trkpt lat="42.2103383" lon="13.776"><ele>679.5</ele><time>2026-05-02T10:18:09.65Z</time></trkpt><trkpt lat="42.2102183" lon="13.77595"><ele>679.0</ele><time>2026-05-02T10:18:10.65Z</time></trkpt><trkpt lat="42.2101067" lon="13.7758917"><ele>679.0</ele><time>2026-05-02T10:18:11.651Z</time></trkpt><trkpt lat="42.209995" lon="13.77584"><ele>679.0</ele><time>2026-05-02T10:18:12.65Z</time></trkpt><trkpt lat="42.20988" lon="13.775785"><ele>679.0</ele><time>2026-05-02T10:18:13.65Z</time></trkpt><trkpt lat="42.2097683" lon="13.7757333"><ele>679.0</ele><time>2026-05-02T10:18:14.651Z</time></trkpt><trkpt lat="42.20966" lon="13.7756883"><ele>679.0</ele><time>2026-05-02T10:18:15.65Z</time></trkpt><trkpt lat="42.2095517" lon="13.77564"><ele>679.0</ele><time>2026-05-02T10:18:16.65Z</time></trkpt><trkpt lat="42.20944" lon="13.7755933"><ele>679.0</ele><time>2026-05-02T10:18:17.65Z</time></trkpt><trkpt lat="42.20933" lon="13.77555"><ele>679.0</ele><time>2026-05-02T10:18:18.65Z</time></trkpt><trkpt lat="42.20922" lon="13.775515"><ele>679.0</ele><time>2026-05-02T10:18:19.651Z</time></trkpt><trkpt lat="42.20912" lon="13.7754883"><ele>679.0</ele><time>2026-05-02T10:18:20.651Z</time></trkpt><trkpt lat="42.2090167" lon="13.7754717"><ele>679.0</ele><time>2026-05-02T10:18:21.65Z</time></trkpt><trkpt lat="42.208925" lon="13.7754717"><ele>679.0</ele><time>2026-05-02T10:18:22.651Z</time></trkpt><trkpt lat="42.2088283" lon="13.7754983"><ele>679.0</ele><time>2026-05-02T10:18:23.651Z</time></trkpt><trkpt lat="42.2087317" lon="13.7755283"><ele>678.8333333333334</ele><time>2026-05-02T10:18:24.651Z</time></trkpt><trkpt lat="42.2086383" lon="13.7755667"><ele>678.6666666666667</ele><time>2026-05-02T10:18:25.651Z</time></trkpt><trkpt lat="42.2085567" lon="13.77559"><ele>678.5</ele><time>2026-05-02T10:18:26.651Z</time></trkpt><trkpt lat="42.2084817" lon="13.7756017"><ele>678.3333333333334</ele><time>2026-05-02T10:18:27.651Z</time></trkpt><trkpt lat="42.2084067" lon="13.7755933"><ele>678.1666666666666</ele><time>2026-05-02T10:18:28.651Z</time></trkpt><trkpt lat="42.2083467" lon="13.775555"><ele>678.0</ele><time>2026-05-02T10:18:29.65Z</time></trkpt><trkpt lat="42.2082783" lon="13.775485"><ele>678.0</ele><time>2026-05-02T10:18:30.651Z</time></trkpt><trkpt lat="42.20819" lon="13.7754017"><ele>678.0</ele><time>2026-05-02T10:18:31.651Z</time></trkpt><trkpt lat="42.2080867" lon="13.7753117"><ele>678.0</ele><time>2026-05-02T10:18:32.651Z</time></trkpt><trkpt lat="42.2079917" lon="13.775225"><ele>678.0</ele><time>2026-05-02T10:18:33.65Z</time></trkpt><trkpt lat="42.2078933" lon="13.77514"><ele>678.0</ele><time>2026-05-02T10:18:34.65Z</time></trkpt><trkpt lat="42.2077933" lon="13.7750517"><ele>678.0</ele><time>2026-05-02T10:18:35.651Z</time></trkpt><trkpt lat="42.2076983" lon="13.7749583"><ele>678.0</ele><time>2026-05-02T10:18:36.651Z</time></trkpt><trkpt lat="42.2076033" lon="13.774875"><ele>678.0</ele><time>2026-05-02T10:18:37.651Z</time></trkpt><trkpt lat="42.2075133" lon="13.7747967"><ele>678.0</ele><time>2026-05-02T10:18:38.651Z</time></trkpt><trkpt lat="42.207435" lon="13.774725"><ele>678.0</ele><time>2026-05-02T10:18:39.649Z</time></trkpt><trkpt lat="42.2073733" lon="13.7746517"><ele>678.0</ele><time>2026-05-02T10:18:40.65Z</time></trkpt><trkpt lat="42.2073217" lon="13.77459"><ele>678.0</ele><time>2026-05-02T10:18:41.65Z</time></trkpt><trkpt lat="42.20725" lon="13.774525"><ele>678.0</ele><time>2026-05-02T10:18:43.649Z</time></trkpt><trkpt lat="42.207135" lon="13.7745367"><ele>678.0</ele><time>2026-05-02T10:18:47.65Z</time></trkpt><trkpt lat="42.20707" lon="13.7745583"><ele>678.5999999999999</ele><time>2026-05-02T10:18:48.649Z</time></trkpt><trkpt lat="42.2069983" lon="13.7745883"><ele>679.1999999999999</ele><time>2026-05-02T10:18:49.649Z</time></trkpt><trkpt lat="42.20691" lon="13.7746383"><ele>679.8</ele><time>2026-05-02T10:18:50.65Z</time></trkpt><trkpt lat="42.20681" lon="13.774695"><ele>680.4</ele><time>2026-05-02T10:18:51.65Z</time></trkpt><trkpt lat="42.2067017" lon="13.7747517"><ele>681.0</ele><time>2026-05-02T10:18:52.649Z</time></trkpt><trkpt lat="42.2065817" lon="13.774815"><ele>681.0</ele><time>2026-05-02T10:18:53.649Z</time></trkpt><trkpt lat="42.20645" lon="13.7748883"><ele>681.0</ele><time>2026-05-02T10:18:54.649Z</time></trkpt><trkpt lat="42.2063167" lon="13.7749667"><ele>681.0</ele><time>2026-05-02T10:18:55.649Z</time></trkpt><trkpt lat="42.2061767" lon="13.7750483"><ele>681.0</ele><time>2026-05-02T10:18:56.65Z</time></trkpt><trkpt lat="42.20603" lon="13.7751317"><ele>681.0</ele><time>2026-05-02T10:18:57.65Z</time></trkpt><trkpt lat="42.20588" lon="13.77522"><ele>681.0</ele><time>2026-05-02T10:18:58.65Z</time></trkpt><trkpt lat="42.2057317" lon="13.7753067"><ele>681.0</ele><time>2026-05-02T10:18:59.649Z</time></trkpt><trkpt lat="42.20558" lon="13.77539"><ele>682.0</ele><time>2026-05-02T10:19:00.65Z</time></trkpt><trkpt lat="42.20543" lon="13.775475"><ele>683.0</ele><time>2026-05-02T10:19:01.65Z</time></trkpt><trkpt lat="42.20528" lon="13.77556"><ele>684.0</ele><time>2026-05-02T10:19:02.649Z</time></trkpt><trkpt lat="42.2051367" lon="13.7756433"><ele>684.0</ele><time>2026-05-02T10:19:03.649Z</time></trkpt><trkpt lat="42.2049967" lon="13.7757183"><ele>684.0</ele><time>2026-05-02T10:19:04.65Z</time></trkpt><trkpt lat="42.20485" lon="13.7757967"><ele>684.0</ele><time>2026-05-02T10:19:05.65Z</time></trkpt><trkpt lat="42.204705" lon="13.7758783"><ele>684.3333333333334</ele><time>2026-05-02T10:19:06.649Z</time></trkpt><trkpt lat="42.2045583" lon="13.7759583"><ele>684.6666666666667</ele><time>2026-05-02T10:19:07.649Z</time></trkpt><trkpt lat="42.20441" lon="13.7760467"><ele>685.0</ele><time>2026-05-02T10:19:08.65Z</time></trkpt><trkpt lat="42.204265" lon="13.77613"><ele>685.0</ele><time>2026-05-02T10:19:09.649Z</time></trkpt><trkpt lat="42.2041167" lon="13.7762067"><ele>685.0</ele><time>2026-05-02T10:19:10.65Z</time></trkpt><trkpt lat="42.20397" lon="13.7762917"><ele>685.0</ele><time>2026-05-02T10:19:11.649Z</time></trkpt><trkpt lat="42.20382" lon="13.776375"><ele>686.6666666666667</ele><time>2026-05-02T10:19:12.649Z</time></trkpt><trkpt lat="42.2036683" lon="13.7764667"><ele>688.3333333333334</ele><time>2026-05-02T10:19:13.649Z</time></trkpt><trkpt lat="42.2035133" lon="13.7765517"><ele>690.0</ele><time>2026-05-02T10:19:14.65Z</time></trkpt><trkpt lat="42.2033617" lon="13.7766367"><ele>690.0</ele><time>2026-05-02T10:19:15.649Z</time></trkpt><trkpt lat="42.203205" lon="13.7767217"><ele>690.0</ele><time>2026-05-02T10:19:16.65Z</time></trkpt><trkpt lat="42.2030483" lon="13.7768183"><ele>690.0</ele><time>2026-05-02T10:19:17.65Z</time></trkpt><trkpt lat="42.202895" lon="13.7768983"><ele>693.5</ele><time>2026-05-02T10:19:18.65Z</time></trkpt><trkpt lat="42.2027517" lon="13.7769733"><ele>697.0</ele><time>2026-05-02T10:19:19.649Z</time></trkpt><trkpt lat="42.20263" lon="13.777045"><ele>700.5</ele><time>2026-05-02T10:19:20.65Z</time></trkpt><trkpt lat="42.20252" lon="13.7771083"><ele>704.0</ele><time>2026-05-02T10:19:21.65Z</time></trkpt><trkpt lat="42.2024233" lon="13.7771767"><ele>704.0</ele><time>2026-05-02T10:19:22.649Z</time></trkpt><trkpt lat="42.202345" lon="13.7772667"><ele>704.0</ele><time>2026-05-02T10:19:23.649Z</time></trkpt><trkpt lat="42.2022833" lon="13.7773867"><ele>704.0</ele><time>2026-05-02T10:19:24.65Z</time></trkpt><trkpt lat="42.2022417" lon="13.77755"><ele>704.0</ele><time>2026-05-02T10:19:25.65Z</time></trkpt><trkpt lat="42.2022083" lon="13.7777317"><ele>703.0</ele><time>2026-05-02T10:19:26.649Z</time></trkpt><trkpt lat="42.2021633" lon="13.7779283"><ele>702.0</ele><time>2026-05-02T10:19:27.65Z</time></trkpt><trkpt lat="42.2021233" lon="13.7781383"><ele>701.0</ele><time>2026-05-02T10:19:28.65Z</time></trkpt><trkpt lat="42.2020783" lon="13.7783633"><ele>703.0</ele><time>2026-05-02T10:19:29.649Z</time></trkpt><trkpt lat="42.2020283" lon="13.7786033"><ele>705.0</ele><time>2026-05-02T10:19:30.65Z</time></trkpt><trkpt lat="42.2019733" lon="13.7788467"><ele>707.0</ele><time>2026-05-02T10:19:31.65Z</time></trkpt><trkpt lat="42.2019217" lon="13.7790917"><ele>707.0</ele><time>2026-05-02T10:19:32.65Z</time></trkpt><trkpt lat="42.201865" lon="13.77933"><ele>707.0</ele><time>2026-05-02T10:19:33.649Z</time></trkpt><trkpt lat="42.2018083" lon="13.7795767"><ele>707.0</ele><time>2026-05-02T10:19:34.65Z</time></trkpt><trkpt lat="42.2017583" lon="13.7798183"><ele>710.0</ele><time>2026-05-02T10:19:35.65Z</time></trkpt><trkpt lat="42.2017183" lon="13.78006"><ele>713.0</ele><time>2026-05-02T10:19:36.649Z</time></trkpt><trkpt lat="42.2016883" lon="13.7802983"><ele>716.0</ele><time>2026-05-02T10:19:37.649Z</time></trkpt><trkpt lat="42.201665" lon="13.78054"><ele>718.0</ele><time>2026-05-02T10:19:38.649Z</time></trkpt><trkpt lat="42.2016517" lon="13.7807833"><ele>720.0</ele><time>2026-05-02T10:19:39.65Z</time></trkpt><trkpt lat="42.2016533" lon="13.7810267"><ele>722.0</ele><time>2026-05-02T10:19:40.65Z</time></trkpt><trkpt lat="42.2016633" lon="13.781265"><ele>723.3333333333333</ele><time>2026-05-02T10:19:41.649Z</time></trkpt><trkpt lat="42.201685" lon="13.7814933"><ele>724.6666666666666</ele><time>2026-05-02T10:19:42.649Z</time></trkpt><trkpt lat="42.201705" lon="13.7817017"><ele>726.0</ele><time>2026-05-02T10:19:43.65Z</time></trkpt><trkpt lat="42.20171" lon="13.7819033"><ele>728.6666666666666</ele><time>2026-05-02T10:19:44.649Z</time></trkpt><trkpt lat="42.2016917" lon="13.7821017"><ele>731.3333333333333</ele><time>2026-05-02T10:19:45.649Z</time></trkpt><trkpt lat="42.2016483" lon="13.7823033"><ele>734.0</ele><time>2026-05-02T10:19:46.649Z</time></trkpt><trkpt lat="42.201585" lon="13.78251"><ele>733.3333333333333</ele><time>2026-05-02T10:19:47.649Z</time></trkpt><trkpt lat="42.2015033" lon="13.7827267"><ele>732.6666666666666</ele><time>2026-05-02T10:19:48.649Z</time></trkpt><trkpt lat="42.20142" lon="13.7829483"><ele>732.0</ele><time>2026-05-02T10:19:49.65Z</time></trkpt><trkpt lat="42.2013417" lon="13.78316"><ele>732.0</ele><time>2026-05-02T10:19:50.649Z</time></trkpt><trkpt lat="42.2012567" lon="13.7833633"><ele>732.0</ele><time>2026-05-02T10:19:51.649Z</time></trkpt><trkpt lat="42.201175" lon="13.7835583"><ele>732.0</ele><time>2026-05-02T10:19:52.649Z</time></trkpt><trkpt lat="42.2010833" lon="13.7837417"><ele>737.0</ele><time>2026-05-02T10:19:53.649Z</time></trkpt><trkpt lat="42.2009967" lon="13.78392"><ele>742.0</ele><time>2026-05-02T10:19:54.649Z</time></trkpt><trkpt lat="42.200915" lon="13.7840917"><ele>747.0</ele><time>2026-05-02T10:19:55.65Z</time></trkpt><trkpt lat="42.20083" lon="13.784255"><ele>749.25</ele><time>2026-05-02T10:19:56.65Z</time></trkpt><trkpt lat="42.2007533" lon="13.7844133"><ele>751.5</ele><time>2026-05-02T10:19:57.649Z</time></trkpt><trkpt lat="42.2006783" lon="13.7845533"><ele>753.75</ele><time>2026-05-02T10:19:58.649Z</time></trkpt><trkpt lat="42.2005967" lon="13.7846867"><ele>756.0</ele><time>2026-05-02T10:19:59.65Z</time></trkpt><trkpt lat="42.200515" lon="13.7848133"><ele>756.0</ele><time>2026-05-02T10:20:00.649Z</time></trkpt><trkpt lat="42.2004317" lon="13.7849367"><ele>756.0</ele><time>2026-05-02T10:20:01.65Z</time></trkpt><trkpt lat="42.2003567" lon="13.7850483"><ele>756.0</ele><time>2026-05-02T10:20:02.65Z</time></trkpt><trkpt lat="42.2002933" lon="13.7851317"><ele>756.0</ele><time>2026-05-02T10:20:03.649Z</time></trkpt><trkpt lat="42.200205" lon="13.7851667"><ele>756.0</ele><time>2026-05-02T10:20:05.65Z</time></trkpt><trkpt lat="42.2001583" lon="13.7850783"><ele>756.0</ele><time>2026-05-02T10:20:07.649Z</time></trkpt><trkpt lat="42.2001533" lon="13.784975"><ele>756.0</ele><time>2026-05-02T10:20:08.65Z</time></trkpt><trkpt lat="42.2001483" lon="13.784835"><ele>756.0</ele><time>2026-05-02T10:20:09.65Z</time></trkpt><trkpt lat="42.2001233" lon="13.7846767"><ele>756.0</ele><time>2026-05-02T10:20:10.65Z</time></trkpt><trkpt lat="42.20008" lon="13.7845117"><ele>756.0</ele><time>2026-05-02T10:20:11.65Z</time></trkpt><trkpt lat="42.2000233" lon="13.7843333"><ele>755.75</ele><time>2026-05-02T10:20:12.649Z</time></trkpt><trkpt lat="42.1999517" lon="13.7841567"><ele>755.5</ele><time>2026-05-02T10:20:13.649Z</time></trkpt><trkpt lat="42.1998783" lon="13.7839867"><ele>755.25</ele><time>2026-05-02T10:20:14.649Z</time></trkpt><trkpt lat="42.199825" lon="13.7838183"><ele>755.0</ele><time>2026-05-02T10:20:15.65Z</time></trkpt><trkpt lat="42.1997933" lon="13.7836517"><ele>757.6</ele><time>2026-05-02T10:20:16.65Z</time></trkpt><trkpt lat="42.1997833" lon="13.7834933"><ele>760.2</ele><time>2026-05-02T10:20:17.649Z</time></trkpt><trkpt lat="42.19977" lon="13.7833467"><ele>762.8</ele><time>2026-05-02T10:20:18.65Z</time></trkpt><trkpt lat="42.1997317" lon="13.7832117"><ele>765.4</ele><time>2026-05-02T10:20:19.649Z</time></trkpt><trkpt lat="42.199665" lon="13.7830967"><ele>768.0</ele><time>2026-05-02T10:20:20.649Z</time></trkpt><trkpt lat="42.19957" lon="13.7830017"><ele>768.0</ele><time>2026-05-02T10:20:21.65Z</time></trkpt><trkpt lat="42.1994417" lon="13.7829267"><ele>768.0</ele><time>2026-05-02T10:20:22.649Z</time></trkpt><trkpt lat="42.1993033" lon="13.782875"><ele>768.0</ele><time>2026-05-02T10:20:23.65Z</time></trkpt><trkpt lat="42.1991533" lon="13.7828667"><ele>768.0</ele><time>2026-05-02T10:20:24.649Z</time></trkpt><trkpt lat="42.1989933" lon="13.78287"><ele>769.6666666666667</ele><time>2026-05-02T10:20:25.65Z</time></trkpt><trkpt lat="42.1988283" lon="13.782845"><ele>771.3333333333334</ele><time>2026-05-02T10:20:26.649Z</time></trkpt><trkpt lat="42.19867" lon="13.782795"><ele>773.0</ele><time>2026-05-02T10:20:27.65Z</time></trkpt><trkpt lat="42.1985083" lon="13.78274"><ele>773.0</ele><time>2026-05-02T10:20:28.65Z</time></trkpt><trkpt lat="42.1983417" lon="13.782695"><ele>773.0</ele><time>2026-05-02T10:20:29.649Z</time></trkpt><trkpt lat="42.1981767" lon="13.7826817"><ele>773.0</ele><time>2026-05-02T10:20:30.65Z</time></trkpt><trkpt lat="42.1979983" lon="13.7826817"><ele>774.3333333333334</ele><time>2026-05-02T10:20:31.649Z</time></trkpt><trkpt lat="42.1978317" lon="13.7827067"><ele>775.6666666666667</ele><time>2026-05-02T10:20:32.649Z</time></trkpt><trkpt lat="42.197675" lon="13.782735"><ele>777.0</ele><time>2026-05-02T10:20:33.65Z</time></trkpt><trkpt lat="42.1975317" lon="13.782745"><ele>777.0</ele><time>2026-05-02T10:20:34.649Z</time></trkpt><trkpt lat="42.1973867" lon="13.7827283"><ele>777.0</ele><time>2026-05-02T10:20:35.649Z</time></trkpt><trkpt lat="42.19725" lon="13.7826917"><ele>777.0</ele><time>2026-05-02T10:20:36.65Z</time></trkpt><trkpt lat="42.1971333" lon="13.7826317"><ele>777.0</ele><time>2026-05-02T10:20:37.65Z</time></trkpt><trkpt lat="42.19704" lon="13.7825383"><ele>776.25</ele><time>2026-05-02T10:20:38.65Z</time></trkpt><trkpt lat="42.196955" lon="13.7824217"><ele>775.5</ele><time>2026-05-02T10:20:39.65Z</time></trkpt><trkpt lat="42.1968717" lon="13.7822867"><ele>774.75</ele><time>2026-05-02T10:20:40.65Z</time></trkpt><trkpt lat="42.1967783" lon="13.782155"><ele>774.0</ele><time>2026-05-02T10:20:41.65Z</time></trkpt><trkpt lat="42.1966667" lon="13.7820533"><ele>774.0</ele><time>2026-05-02T10:20:42.65Z</time></trkpt><trkpt lat="42.1965283" lon="13.7819867"><ele>774.0</ele><time>2026-05-02T10:20:43.65Z</time></trkpt><trkpt lat="42.19637" lon="13.7819433"><ele>774.0</ele><time>2026-05-02T10:20:44.649Z</time></trkpt><trkpt lat="42.196185" lon="13.7819083"><ele>774.6666666666667</ele><time>2026-05-02T10:20:45.649Z</time></trkpt><trkpt lat="42.1959967" lon="13.7818717"><ele>775.3333333333334</ele><time>2026-05-02T10:20:46.649Z</time></trkpt><trkpt lat="42.195795" lon="13.7818317"><ele>776.0</ele><time>2026-05-02T10:20:47.649Z</time></trkpt><trkpt lat="42.1955967" lon="13.781785"><ele>777.6666666666667</ele><time>2026-05-02T10:20:48.649Z</time></trkpt><trkpt lat="42.1953967" lon="13.78174"><ele>779.3333333333333</ele><time>2026-05-02T10:20:49.649Z</time></trkpt><trkpt lat="42.1952067" lon="13.781705"><ele>781.0</ele><time>2026-05-02T10:20:50.649Z</time></trkpt><trkpt lat="42.195025" lon="13.7816867"><ele>781.0</ele><time>2026-05-02T10:20:51.65Z</time></trkpt><trkpt lat="42.1948517" lon="13.7817033"><ele>781.0</ele><time>2026-05-02T10:20:52.649Z</time></trkpt><trkpt lat="42.1946867" lon="13.78172"><ele>781.0</ele><time>2026-05-02T10:20:53.649Z</time></trkpt><trkpt lat="42.1945333" lon="13.78172"><ele>782.5</ele><time>2026-05-02T10:20:54.649Z</time></trkpt><trkpt lat="42.1943917" lon="13.78169"><ele>784.0</ele><time>2026-05-02T10:20:55.65Z</time></trkpt><trkpt lat="42.1942783" lon="13.7816333"><ele>785.5</ele><time>2026-05-02T10:20:56.649Z</time></trkpt><trkpt lat="42.1941833" lon="13.7815567"><ele>787.0</ele><time>2026-05-02T10:20:57.649Z</time></trkpt><trkpt lat="42.1941067" lon="13.78145"><ele>787.0</ele><time>2026-05-02T10:20:58.65Z</time></trkpt><trkpt lat="42.194045" lon="13.7813133"><ele>787.0</ele><time>2026-05-02T10:20:59.65Z</time></trkpt><trkpt lat="42.1940083" lon="13.7811533"><ele>787.0</ele><time>2026-05-02T10:21:00.649Z</time></trkpt><trkpt lat="42.1939867" lon="13.7809583"><ele>787.0</ele><time>2026-05-02T10:21:01.65Z</time></trkpt><trkpt lat="42.193975" lon="13.7807483"><ele>788.3333333333333</ele><time>2026-05-02T10:21:02.65Z</time></trkpt><trkpt lat="42.1939783" lon="13.7805233"><ele>789.6666666666667</ele><time>2026-05-02T10:21:03.65Z</time></trkpt><trkpt lat="42.1940017" lon="13.7803"><ele>791.0</ele><time>2026-05-02T10:21:04.65Z</time></trkpt><trkpt lat="42.194035" lon="13.7800767"><ele>791.0</ele><time>2026-05-02T10:21:05.649Z</time></trkpt><trkpt lat="42.1940767" lon="13.779855"><ele>791.0</ele><time>2026-05-02T10:21:06.65Z</time></trkpt><trkpt lat="42.1941233" lon="13.779635"><ele>791.0</ele><time>2026-05-02T10:21:07.649Z</time></trkpt><trkpt lat="42.19416" lon="13.7794333"><ele>792.6666666666667</ele><time>2026-05-02T10:21:08.65Z</time></trkpt><trkpt lat="42.1941833" lon="13.7792317"><ele>794.3333333333333</ele><time>2026-05-02T10:21:09.649Z</time></trkpt><trkpt lat="42.194185" lon="13.77901"><ele>796.0</ele><time>2026-05-02T10:21:10.649Z</time></trkpt><trkpt lat="42.1941633" lon="13.77879"><ele>796.0</ele><time>2026-05-02T10:21:11.649Z</time></trkpt><trkpt lat="42.19414" lon="13.7785533"><ele>796.0</ele><time>2026-05-02T10:21:12.649Z</time></trkpt><trkpt lat="42.194135" lon="13.7783217"><ele>796.0</ele><time>2026-05-02T10:21:13.65Z</time></trkpt><trkpt lat="42.1941467" lon="13.7780867"><ele>799.0</ele><time>2026-05-02T10:21:14.65Z</time></trkpt><trkpt lat="42.194165" lon="13.7778467"><ele>802.0</ele><time>2026-05-02T10:21:15.649Z</time></trkpt><trkpt lat="42.1941967" lon="13.7775967"><ele>805.0</ele><time>2026-05-02T10:21:16.65Z</time></trkpt><trkpt lat="42.19424" lon="13.7773467"><ele>808.3333333333333</ele><time>2026-05-02T10:21:17.65Z</time></trkpt><trkpt lat="42.1943017" lon="13.77711"><ele>811.6666666666667</ele><time>2026-05-02T10:21:18.65Z</time></trkpt><trkpt lat="42.1943667" lon="13.7768817"><ele>815.0</ele><time>2026-05-02T10:21:19.65Z</time></trkpt><trkpt lat="42.1944467" lon="13.77666"><ele>817.6666666666667</ele><time>2026-05-02T10:21:20.65Z</time></trkpt><trkpt lat="42.19454" lon="13.7764417"><ele>820.3333333333333</ele><time>2026-05-02T10:21:21.649Z</time></trkpt><trkpt lat="42.19463" lon="13.7762483"><ele>823.0</ele><time>2026-05-02T10:21:22.65Z</time></trkpt><trkpt lat="42.1947033" lon="13.7760483"><ele>820.3333333333333</ele><time>2026-05-02T10:21:23.649Z</time></trkpt><trkpt lat="42.1947683" lon="13.77585"><ele>817.6666666666667</ele><time>2026-05-02T10:21:24.649Z</time></trkpt><trkpt lat="42.1948383" lon="13.7756733"><ele>815.0</ele><time>2026-05-02T10:21:25.649Z</time></trkpt><trkpt lat="42.1949317" lon="13.7755117"><ele>815.0</ele><time>2026-05-02T10:21:26.65Z</time></trkpt><trkpt lat="42.1950433" lon="13.7753533"><ele>815.0</ele><time>2026-05-02T10:21:27.65Z</time></trkpt><trkpt lat="42.19516" lon="13.7751817"><ele>815.0</ele><time>2026-05-02T10:21:28.65Z</time></trkpt><trkpt lat="42.1952783" lon="13.7750033"><ele>818.6666666666667</ele><time>2026-05-02T10:21:29.649Z</time></trkpt><trkpt lat="42.19539" lon="13.7748067"><ele>822.3333333333333</ele><time>2026-05-02T10:21:30.65Z</time></trkpt><trkpt lat="42.1955" lon="13.7746033"><ele>826.0</ele><time>2026-05-02T10:21:31.649Z</time></trkpt><trkpt lat="42.1956083" lon="13.774415"><ele>827.0</ele><time>2026-05-02T10:21:32.65Z</time></trkpt><trkpt lat="42.1957117" lon="13.7742433"><ele>828.0</ele><time>2026-05-02T10:21:33.65Z</time></trkpt><trkpt lat="42.19581" lon="13.7740767"><ele>829.0</ele><time>2026-05-02T10:21:34.65Z</time></trkpt><trkpt lat="42.1959" lon="13.7739217"><ele>829.0</ele><time>2026-05-02T10:21:35.649Z</time></trkpt><trkpt lat="42.1959767" lon="13.7737667"><ele>829.0</ele><time>2026-05-02T10:21:36.65Z</time></trkpt><trkpt lat="42.1960383" lon="13.7735933"><ele>829.0</ele><time>2026-05-02T10:21:37.649Z</time></trkpt><trkpt lat="42.1960633" lon="13.7733967"><ele>829.0</ele><time>2026-05-02T10:21:38.649Z</time></trkpt><trkpt lat="42.196065" lon="13.7731733"><ele>832.6666666666666</ele><time>2026-05-02T10:21:39.649Z</time></trkpt><trkpt lat="42.19606" lon="13.7729383"><ele>836.3333333333333</ele><time>2026-05-02T10:21:40.649Z</time></trkpt><trkpt lat="42.1960633" lon="13.772695"><ele>840.0</ele><time>2026-05-02T10:21:41.65Z</time></trkpt><trkpt lat="42.1960883" lon="13.7724617"><ele>841.0</ele><time>2026-05-02T10:21:42.65Z</time></trkpt><trkpt lat="42.1961217" lon="13.7722383"><ele>842.0</ele><time>2026-05-02T10:21:43.649Z</time></trkpt><trkpt lat="42.1961433" lon="13.7720317"><ele>843.0</ele><time>2026-05-02T10:21:44.65Z</time></trkpt><trkpt lat="42.1961467" lon="13.7718433"><ele>843.0</ele><time>2026-05-02T10:21:45.65Z</time></trkpt><trkpt lat="42.1961367" lon="13.7716733"><ele>843.0</ele><time>2026-05-02T10:21:46.65Z</time></trkpt><trkpt lat="42.1961067" lon="13.771545"><ele>843.0</ele><time>2026-05-02T10:21:47.65Z</time></trkpt><trkpt lat="42.19604" lon="13.7714517"><ele>843.0</ele><time>2026-05-02T10:21:48.65Z</time></trkpt><trkpt lat="42.1959433" lon="13.771385"><ele>843.0</ele><time>2026-05-02T10:21:49.649Z</time></trkpt><trkpt lat="42.1958283" lon="13.77134"><ele>843.0</ele><time>2026-05-02T10:21:50.649Z</time></trkpt><trkpt lat="42.1956933" lon="13.7713283"><ele>843.0</ele><time>2026-05-02T10:21:51.649Z</time></trkpt><trkpt lat="42.1955333" lon="13.7713317"><ele>843.0</ele><time>2026-05-02T10:21:52.649Z</time></trkpt><trkpt lat="42.19537" lon="13.7713533"><ele>845.75</ele><time>2026-05-02T10:21:53.65Z</time></trkpt><trkpt lat="42.195225" lon="13.771365"><ele>848.5</ele><time>2026-05-02T10:21:54.649Z</time></trkpt><trkpt lat="42.19511" lon="13.7713433"><ele>851.25</ele><time>2026-05-02T10:21:55.65Z</time></trkpt><trkpt lat="42.1950183" lon="13.771285"><ele>854.0</ele><time>2026-05-02T10:21:56.648Z</time></trkpt><trkpt lat="42.1949583" lon="13.7711967"><ele>854.0</ele><time>2026-05-02T10:21:57.648Z</time></trkpt><trkpt lat="42.19492" lon="13.7710717"><ele>854.0</ele><time>2026-05-02T10:21:58.649Z</time></trkpt><trkpt lat="42.1949067" lon="13.770895"><ele>854.0</ele><time>2026-05-02T10:21:59.648Z</time></trkpt><trkpt lat="42.1948883" lon="13.770695"><ele>854.0</ele><time>2026-05-02T10:22:00.649Z</time></trkpt><trkpt lat="42.194855" lon="13.7704983"><ele>856.3333333333334</ele><time>2026-05-02T10:22:01.649Z</time></trkpt><trkpt lat="42.1947933" lon="13.7703117"><ele>858.6666666666667</ele><time>2026-05-02T10:22:02.649Z</time></trkpt><trkpt lat="42.194725" lon="13.7701267"><ele>861.0</ele><time>2026-05-02T10:22:03.648Z</time></trkpt><trkpt lat="42.1946417" lon="13.7699583"><ele>861.0</ele><time>2026-05-02T10:22:04.648Z</time></trkpt><trkpt lat="42.1945733" lon="13.769815"><ele>861.0</ele><time>2026-05-02T10:22:05.649Z</time></trkpt><trkpt lat="42.1944967" lon="13.76969"><ele>861.0</ele><time>2026-05-02T10:22:06.648Z</time></trkpt><trkpt lat="42.1943983" lon="13.769605"><ele>861.0</ele><time>2026-05-02T10:22:07.648Z</time></trkpt><trkpt lat="42.1942817" lon="13.7695633"><ele>861.0</ele><time>2026-05-02T10:22:08.648Z</time></trkpt><trkpt lat="42.194155" lon="13.7695617"><ele>861.0</ele><time>2026-05-02T10:22:09.648Z</time></trkpt><trkpt lat="42.1940033" lon="13.7695967"><ele>861.0</ele><time>2026-05-02T10:22:10.648Z</time></trkpt><trkpt lat="42.1938333" lon="13.7696317"><ele>864.3333333333333</ele><time>2026-05-02T10:22:11.649Z</time></trkpt><trkpt lat="42.1936517" lon="13.7696433"><ele>867.6666666666666</ele><time>2026-05-02T10:22:12.649Z</time></trkpt><trkpt lat="42.1934717" lon="13.7696233"><ele>871.0</ele><time>2026-05-02T10:22:13.648Z</time></trkpt><trkpt lat="42.1932867" lon="13.7695967"><ele>872.0</ele><time>2026-05-02T10:22:14.648Z</time></trkpt><trkpt lat="42.1931" lon="13.7695883"><ele>873.0</ele><time>2026-05-02T10:22:15.648Z</time></trkpt><trkpt lat="42.1929217" lon="13.7695867"><ele>874.0</ele><time>2026-05-02T10:22:16.648Z</time></trkpt><trkpt lat="42.192745" lon="13.769575"><ele>874.0</ele><time>2026-05-02T10:22:17.649Z</time></trkpt><trkpt lat="42.192565" lon="13.7695483"><ele>874.0</ele><time>2026-05-02T10:22:18.648Z</time></trkpt><trkpt lat="42.192385" lon="13.769495"><ele>874.0</ele><time>2026-05-02T10:22:19.648Z</time></trkpt><trkpt lat="42.1922" lon="13.769435"><ele>873.6666666666666</ele><time>2026-05-02T10:22:20.649Z</time></trkpt><trkpt lat="42.1920133" lon="13.769385"><ele>873.3333333333333</ele><time>2026-05-02T10:22:21.648Z</time></trkpt><trkpt lat="42.191825" lon="13.76937"><ele>873.0</ele><time>2026-05-02T10:22:22.649Z</time></trkpt><trkpt lat="42.19165" lon="13.7693683"><ele>872.75</ele><time>2026-05-02T10:22:23.649Z</time></trkpt><trkpt lat="42.1915033" lon="13.7693583"><ele>872.5</ele><time>2026-05-02T10:22:24.648Z</time></trkpt><trkpt lat="42.1913883" lon="13.7693317"><ele>872.25</ele><time>2026-05-02T10:22:25.648Z</time></trkpt><trkpt lat="42.1913017" lon="13.7692717"><ele>872.0</ele><time>2026-05-02T10:22:26.649Z</time></trkpt><trkpt lat="42.1912317" lon="13.769185"><ele>872.0</ele><time>2026-05-02T10:22:27.649Z</time></trkpt><trkpt lat="42.1911683" lon="13.7690733"><ele>872.0</ele><time>2026-05-02T10:22:28.648Z</time></trkpt><trkpt lat="42.191105" lon="13.7689567"><ele>872.0</ele><time>2026-05-02T10:22:29.649Z</time></trkpt><trkpt lat="42.191045" lon="13.7688667"><ele>872.0</ele><time>2026-05-02T10:22:30.649Z</time></trkpt><trkpt lat="42.1909767" lon="13.7687833"><ele>872.0</ele><time>2026-05-02T10:22:31.648Z</time></trkpt><trkpt lat="42.1909267" lon="13.7687267"><ele>872.0</ele><time>2026-05-02T10:22:32.649Z</time></trkpt><trkpt lat="42.1908783" lon="13.7686417"><ele>872.0</ele><time>2026-05-02T10:22:34.649Z</time></trkpt><trkpt lat="42.1909267" lon="13.7685417"><ele>872.0</ele><time>2026-05-02T10:22:37.648Z</time></trkpt><trkpt lat="42.1910383" lon="13.7684683"><ele>872.0</ele><time>2026-05-02T10:22:39.649Z</time></trkpt><trkpt lat="42.1911017" lon="13.768415"><ele>872.0</ele><time>2026-05-02T10:22:40.648Z</time></trkpt><trkpt lat="42.1911617" lon="13.76833"><ele>872.1666666666667</ele><time>2026-05-02T10:22:41.648Z</time></trkpt><trkpt lat="42.1912167" lon="13.7682383"><ele>872.3333333333334</ele><time>2026-05-02T10:22:42.649Z</time></trkpt><trkpt lat="42.1912733" lon="13.7681433"><ele>872.5</ele><time>2026-05-02T10:22:43.648Z</time></trkpt><trkpt lat="42.1913333" lon="13.7680517"><ele>872.6666666666667</ele><time>2026-05-02T10:22:44.648Z</time></trkpt><trkpt lat="42.1913933" lon="13.767965"><ele>872.8333333333334</ele><time>2026-05-02T10:22:45.649Z</time></trkpt><trkpt lat="42.19146" lon="13.767885"><ele>873.0</ele><time>2026-05-02T10:22:46.648Z</time></trkpt><trkpt lat="42.1915283" lon="13.7678133"><ele>873.0</ele><time>2026-05-02T10:22:47.649Z</time></trkpt><trkpt lat="42.19159" lon="13.767745"><ele>873.0</ele><time>2026-05-02T10:22:48.648Z</time></trkpt><trkpt lat="42.1916517" lon="13.7676867"><ele>873.0</ele><time>2026-05-02T10:22:49.648Z</time></trkpt><trkpt lat="42.1917117" lon="13.7676217"><ele>873.0</ele><time>2026-05-02T10:22:50.648Z</time></trkpt><trkpt lat="42.1917667" lon="13.7675317"><ele>873.0</ele><time>2026-05-02T10:22:51.648Z</time></trkpt><trkpt lat="42.19182" lon="13.7674333"><ele>873.0</ele><time>2026-05-02T10:22:52.649Z</time></trkpt><trkpt lat="42.1918683" lon="13.767335"><ele>875.5</ele><time>2026-05-02T10:22:53.648Z</time></trkpt><trkpt lat="42.1919083" lon="13.7672433"><ele>878.0</ele><time>2026-05-02T10:22:54.649Z</time></trkpt><trkpt lat="42.1919467" lon="13.7671467"><ele>880.5</ele><time>2026-05-02T10:22:55.648Z</time></trkpt><trkpt lat="42.191975" lon="13.7670517"><ele>883.0</ele><time>2026-05-02T10:22:56.649Z</time></trkpt><trkpt lat="42.1920033" lon="13.76696"><ele>885.5</ele><time>2026-05-02T10:22:57.648Z</time></trkpt><trkpt lat="42.1920283" lon="13.7668733"><ele>888.0</ele><time>2026-05-02T10:22:58.649Z</time></trkpt><trkpt lat="42.1920617" lon="13.766785"><ele>890.3333333333334</ele><time>2026-05-02T10:22:59.648Z</time></trkpt><trkpt lat="42.1920967" lon="13.766695"><ele>892.6666666666667</ele><time>2026-05-02T10:23:00.648Z</time></trkpt><trkpt lat="42.1921383" lon="13.766605"><ele>895.0</ele><time>2026-05-02T10:23:01.649Z</time></trkpt><trkpt lat="42.1921867" lon="13.7665217"><ele>897.3333333333334</ele><time>2026-05-02T10:23:02.649Z</time></trkpt><trkpt lat="42.1922333" lon="13.76644"><ele>899.6666666666667</ele><time>2026-05-02T10:23:03.649Z</time></trkpt><trkpt lat="42.19228" lon="13.7663633"><ele>902.0</ele><time>2026-05-02T10:23:04.648Z</time></trkpt><trkpt lat="42.19233" lon="13.7662767"><ele>902.8</ele><time>2026-05-02T10:23:05.649Z</time></trkpt><trkpt lat="42.1923867" lon="13.7661883"><ele>903.6</ele><time>2026-05-02T10:23:06.648Z</time></trkpt><trkpt lat="42.1924367" lon="13.7661067"><ele>904.3999999999999</ele><time>2026-05-02T10:23:07.649Z</time></trkpt><trkpt lat="42.1924883" lon="13.766015"><ele>905.1999999999999</ele><time>2026-05-02T10:23:08.648Z</time></trkpt><trkpt lat="42.1925517" lon="13.7659117"><ele>906.0</ele><time>2026-05-02T10:23:09.648Z</time></trkpt><trkpt lat="42.1926183" lon="13.7658033"><ele>906.0</ele><time>2026-05-02T10:23:10.649Z</time></trkpt><trkpt lat="42.1927" lon="13.76569"><ele>906.0</ele><time>2026-05-02T10:23:11.648Z</time></trkpt><trkpt lat="42.192785" lon="13.7655817"><ele>906.0</ele><time>2026-05-02T10:23:12.648Z</time></trkpt><trkpt lat="42.1928633" lon="13.7654767"><ele>906.0</ele><time>2026-05-02T10:23:13.648Z</time></trkpt><trkpt lat="42.1929367" lon="13.7653717"><ele>906.0</ele><time>2026-05-02T10:23:14.648Z</time></trkpt><trkpt lat="42.193015" lon="13.7652683"><ele>905.9999999999999</ele><time>2026-05-02T10:23:15.648Z</time></trkpt><trkpt lat="42.1930883" lon="13.7651717"><ele>905.9999999999999</ele><time>2026-05-02T10:23:16.648Z</time></trkpt><trkpt lat="42.1931517" lon="13.7650767"><ele>906.0</ele><time>2026-05-02T10:23:17.648Z</time></trkpt><trkpt lat="42.1932133" lon="13.7649717"><ele>906.0</ele><time>2026-05-02T10:23:18.649Z</time></trkpt><trkpt lat="42.1932767" lon="13.7648717"><ele>906.5</ele><time>2026-05-02T10:23:19.648Z</time></trkpt><trkpt lat="42.1933417" lon="13.764775"><ele>907.0</ele><time>2026-05-02T10:23:20.648Z</time></trkpt><trkpt lat="42.1934083" lon="13.764685"><ele>907.5</ele><time>2026-05-02T10:23:21.649Z</time></trkpt><trkpt lat="42.1934733" lon="13.7646117"><ele>908.0</ele><time>2026-05-02T10:23:22.649Z</time></trkpt><trkpt lat="42.1935383" lon="13.7645283"><ele>908.5</ele><time>2026-05-02T10:23:23.648Z</time></trkpt><trkpt lat="42.1936017" lon="13.764465"><ele>909.0</ele><time>2026-05-02T10:23:24.649Z</time></trkpt><trkpt lat="42.19367" lon="13.7644167"><ele>909.0</ele><time>2026-05-02T10:23:25.648Z</time></trkpt><trkpt lat="42.1937383" lon="13.7643933"><ele>909.0</ele><time>2026-05-02T10:23:26.649Z</time></trkpt><trkpt lat="42.19382" lon="13.764375"><ele>909.0</ele><time>2026-05-02T10:23:27.648Z</time></trkpt><trkpt lat="42.1938883" lon="13.764345"><ele>909.0</ele><time>2026-05-02T10:23:28.648Z</time></trkpt><trkpt lat="42.193955" lon="13.7642883"><ele>909.0</ele><time>2026-05-02T10:23:29.649Z</time></trkpt><trkpt lat="42.194015" lon="13.7641983"><ele>909.0</ele><time>2026-05-02T10:23:30.648Z</time></trkpt><trkpt lat="42.19407" lon="13.7640883"><ele>910.0</ele><time>2026-05-02T10:23:31.649Z</time></trkpt><trkpt lat="42.194125" lon="13.7639517"><ele>911.0</ele><time>2026-05-02T10:23:32.649Z</time></trkpt><trkpt lat="42.1941883" lon="13.7637983"><ele>912.0</ele><time>2026-05-02T10:23:33.649Z</time></trkpt><trkpt lat="42.194245" lon="13.76366"><ele>913.0</ele><time>2026-05-02T10:23:34.649Z</time></trkpt><trkpt lat="42.1943033" lon="13.7635417"><ele>916.0</ele><time>2026-05-02T10:23:35.648Z</time></trkpt><trkpt lat="42.194365" lon="13.763435"><ele>919.0</ele><time>2026-05-02T10:23:36.648Z</time></trkpt><trkpt lat="42.1944417" lon="13.763325"><ele>922.0</ele><time>2026-05-02T10:23:37.649Z</time></trkpt><trkpt lat="42.19453" lon="13.763205"><ele>925.0</ele><time>2026-05-02T10:23:38.649Z</time></trkpt><trkpt lat="42.1946133" lon="13.7630867"><ele>925.0</ele><time>2026-05-02T10:23:39.649Z</time></trkpt><trkpt lat="42.1946867" lon="13.7629883"><ele>925.0</ele><time>2026-05-02T10:23:40.648Z</time></trkpt><trkpt lat="42.194755" lon="13.7629083"><ele>925.0</ele><time>2026-05-02T10:23:41.648Z</time></trkpt><trkpt lat="42.19483" lon="13.76284"><ele>925.0</ele><time>2026-05-02T10:23:42.648Z</time></trkpt><trkpt lat="42.1949167" lon="13.76278"><ele>925.0</ele><time>2026-05-02T10:23:43.648Z</time></trkpt><trkpt lat="42.1950067" lon="13.7627233"><ele>924.4</ele><time>2026-05-02T10:23:44.648Z</time></trkpt><trkpt lat="42.1951017" lon="13.7626833"><ele>923.8</ele><time>2026-05-02T10:23:45.649Z</time></trkpt><trkpt lat="42.1951933" lon="13.7626433"><ele>923.2</ele><time>2026-05-02T10:23:46.648Z</time></trkpt><trkpt lat="42.1952883" lon="13.7626017"><ele>922.6</ele><time>2026-05-02T10:23:47.648Z</time></trkpt><trkpt lat="42.1953683" lon="13.7625467"><ele>922.0</ele><time>2026-05-02T10:23:48.648Z</time></trkpt><trkpt lat="42.1954467" lon="13.762465"><ele>922.0</ele><time>2026-05-02T10:23:49.648Z</time></trkpt><trkpt lat="42.1955317" lon="13.76236"><ele>922.0</ele><time>2026-05-02T10:23:50.648Z</time></trkpt><trkpt lat="42.195605" lon="13.7622467"><ele>922.0</ele><time>2026-05-02T10:23:51.649Z</time></trkpt><trkpt lat="42.195665" lon="13.7621467"><ele>922.0</ele><time>2026-05-02T10:23:52.649Z</time></trkpt><trkpt lat="42.195715" lon="13.7620533"><ele>922.0</ele><time>2026-05-02T10:23:53.649Z</time></trkpt><trkpt lat="42.1957583" lon="13.761965"><ele>921.9999999999999</ele><time>2026-05-02T10:23:54.648Z</time></trkpt><trkpt lat="42.1958033" lon="13.7618733"><ele>922.0</ele><time>2026-05-02T10:23:55.648Z</time></trkpt><trkpt lat="42.195845" lon="13.76178"><ele>922.0</ele><time>2026-05-02T10:23:56.648Z</time></trkpt><trkpt lat="42.1958833" lon="13.76169"><ele>922.0</ele><time>2026-05-02T10:23:57.649Z</time></trkpt><trkpt lat="42.1959333" lon="13.761585"><ele>921.9999999999999</ele><time>2026-05-02T10:23:58.649Z</time></trkpt><trkpt lat="42.19599" lon="13.7614733"><ele>922.0</ele><time>2026-05-02T10:23:59.649Z</time></trkpt><trkpt lat="42.1960467" lon="13.7613817"><ele>922.0</ele><time>2026-05-02T10:24:00.649Z</time></trkpt><trkpt lat="42.196095" lon="13.76131"><ele>922.0</ele><time>2026-05-02T10:24:01.648Z</time></trkpt><trkpt lat="42.19618" lon="13.7611883"><ele>922.0</ele><time>2026-05-02T10:24:03.648Z</time></trkpt><trkpt lat="42.196235" lon="13.7611017"><ele>922.0</ele><time>2026-05-02T10:24:04.649Z</time></trkpt><trkpt lat="42.1962933" lon="13.761005"><ele>922.0</ele><time>2026-05-02T10:24:05.649Z</time></trkpt><trkpt lat="42.1963517" lon="13.7609"><ele>921.9999999999999</ele><time>2026-05-02T10:24:06.648Z</time></trkpt><trkpt lat="42.1964033" lon="13.760805"><ele>922.0</ele><time>2026-05-02T10:24:07.648Z</time></trkpt><trkpt lat="42.19645" lon="13.76071"><ele>922.0</ele><time>2026-05-02T10:24:08.648Z</time></trkpt><trkpt lat="42.1964983" lon="13.76061"><ele>922.0</ele><time>2026-05-02T10:24:09.648Z</time></trkpt><trkpt lat="42.1965467" lon="13.7605167"><ele>921.9999999999999</ele><time>2026-05-02T10:24:10.649Z</time></trkpt><trkpt lat="42.196595" lon="13.760415"><ele>922.0</ele><time>2026-05-02T10:24:11.648Z</time></trkpt><trkpt lat="42.196645" lon="13.7603067"><ele>921.9999999999999</ele><time>2026-05-02T10:24:12.648Z</time></trkpt><trkpt lat="42.196695" lon="13.760205"><ele>922.0</ele><time>2026-05-02T10:24:13.648Z</time></trkpt><trkpt lat="42.19674" lon="13.7600967"><ele>922.0</ele><time>2026-05-02T10:24:14.648Z</time></trkpt><trkpt lat="42.196785" lon="13.7599933"><ele>922.0</ele><time>2026-05-02T10:24:15.649Z</time></trkpt><trkpt lat="42.1968283" lon="13.7599"><ele>921.9999999999999</ele><time>2026-05-02T10:24:16.648Z</time></trkpt><trkpt lat="42.19687" lon="13.75981"><ele>922.0</ele><time>2026-05-02T10:24:17.649Z</time></trkpt><trkpt lat="42.1969" lon="13.759725"><ele>923.4999999999999</ele><time>2026-05-02T10:24:18.648Z</time></trkpt><trkpt lat="42.1969217" lon="13.7596367"><ele>925.0</ele><time>2026-05-02T10:24:19.648Z</time></trkpt><trkpt lat="42.19694" lon="13.759535"><ele>926.5</ele><time>2026-05-02T10:24:20.649Z</time></trkpt><trkpt lat="42.1969467" lon="13.75941"><ele>928.0</ele><time>2026-05-02T10:24:21.648Z</time></trkpt><trkpt lat="42.1969467" lon="13.7592767"><ele>929.4999999999999</ele><time>2026-05-02T10:24:22.649Z</time></trkpt><trkpt lat="42.1969367" lon="13.7591433"><ele>931.0</ele><time>2026-05-02T10:24:23.648Z</time></trkpt><trkpt lat="42.19692" lon="13.7590117"><ele>931.8333333333333</ele><time>2026-05-02T10:24:24.648Z</time></trkpt><trkpt lat="42.1968983" lon="13.758885"><ele>932.6666666666666</ele><time>2026-05-02T10:24:25.649Z</time></trkpt><trkpt lat="42.1968717" lon="13.75876"><ele>933.5</ele><time>2026-05-02T10:24:26.649Z</time></trkpt><trkpt lat="42.19685" lon="13.7586533"><ele>934.3333333333333</ele><time>2026-05-02T10:24:27.649Z</time></trkpt><trkpt lat="42.1968333" lon="13.758555"><ele>935.1666666666666</ele><time>2026-05-02T10:24:28.648Z</time></trkpt><trkpt lat="42.1968383" lon="13.758465"><ele>936.0</ele><time>2026-05-02T10:24:29.648Z</time></trkpt><trkpt lat="42.1968533" lon="13.7583683"><ele>936.4</ele><time>2026-05-02T10:24:30.649Z</time></trkpt><trkpt lat="42.19688" lon="13.7582733"><ele>936.8</ele><time>2026-05-02T10:24:31.648Z</time></trkpt><trkpt lat="42.1969233" lon="13.75816"><ele>937.1999999999999</ele><time>2026-05-02T10:24:33.648Z</time></trkpt><trkpt lat="42.1969767" lon="13.75806"><ele>937.5999999999999</ele><time>2026-05-02T10:24:45.648Z</time></trkpt><trkpt lat="42.1970233" lon="13.7579483"><ele>938.0</ele><time>2026-05-02T10:24:47.648Z</time></trkpt><trkpt lat="42.1970917" lon="13.7578233"><ele>938.0000000000001</ele><time>2026-05-02T10:24:49.649Z</time></trkpt><trkpt lat="42.1971367" lon="13.75775"><ele>938.0</ele><time>2026-05-02T10:24:50.648Z</time></trkpt><trkpt lat="42.19718" lon="13.7576633"><ele>938.0</ele><time>2026-05-02T10:24:51.649Z</time></trkpt><trkpt lat="42.1972167" lon="13.75757"><ele>938.0</ele><time>2026-05-02T10:24:52.648Z</time></trkpt><trkpt lat="42.1972467" lon="13.7574817"><ele>938.0000000000001</ele><time>2026-05-02T10:24:53.649Z</time></trkpt><trkpt lat="42.1972733" lon="13.7573183"><ele>938.0</ele><time>2026-05-02T10:24:55.648Z</time></trkpt><trkpt lat="42.1972717" lon="13.75723"><ele>939.3333333333334</ele><time>2026-05-02T10:24:56.649Z</time></trkpt><trkpt lat="42.1972567" lon="13.75713"><ele>940.6666666666667</ele><time>2026-05-02T10:24:57.649Z</time></trkpt><trkpt lat="42.1972367" lon="13.7570367"><ele>942.0</ele><time>2026-05-02T10:24:58.649Z</time></trkpt><trkpt lat="42.1972133" lon="13.7569517"><ele>943.3333333333333</ele><time>2026-05-02T10:24:59.649Z</time></trkpt><trkpt lat="42.1971883" lon="13.75687"><ele>944.6666666666666</ele><time>2026-05-02T10:25:00.648Z</time></trkpt><trkpt lat="42.19716" lon="13.7567917"><ele>946.0</ele><time>2026-05-02T10:25:01.648Z</time></trkpt><trkpt lat="42.19715" lon="13.7566317"><ele>946.9999999999999</ele><time>2026-05-02T10:25:03.648Z</time></trkpt><trkpt lat="42.1971617" lon="13.7565333"><ele>948.0</ele><time>2026-05-02T10:25:04.648Z</time></trkpt><trkpt lat="42.197165" lon="13.7564433"><ele>949.0</ele><time>2026-05-02T10:25:05.648Z</time></trkpt><trkpt lat="42.1971683" lon="13.756325"><ele>950.0</ele><time>2026-05-02T10:25:07.648Z</time></trkpt><trkpt lat="42.1971617" lon="13.75623"><ele>950.9999999999999</ele><time>2026-05-02T10:25:09.649Z</time></trkpt><trkpt lat="42.19715" lon="13.756085"><ele>952.0</ele><time>2026-05-02T10:25:11.648Z</time></trkpt><trkpt lat="42.197155" lon="13.755935"><ele>953.8</ele><time>2026-05-02T10:25:13.649Z</time></trkpt><trkpt lat="42.1971417" lon="13.7557883"><ele>955.6</ele><time>2026-05-02T10:25:15.649Z</time></trkpt><trkpt lat="42.197125" lon="13.7556333"><ele>957.3999999999999</ele><time>2026-05-02T10:25:17.648Z</time></trkpt><trkpt lat="42.1971033" lon="13.7554633"><ele>959.1999999999999</ele><time>2026-05-02T10:25:19.648Z</time></trkpt><trkpt lat="42.1970933" lon="13.7553667"><ele>961.0</ele><time>2026-05-02T10:25:20.649Z</time></trkpt><trkpt lat="42.1970833" lon="13.7552817"><ele>963.0</ele><time>2026-05-02T10:25:21.649Z</time></trkpt><trkpt lat="42.1970533" lon="13.755155"><ele>964.9999999999999</ele><time>2026-05-02T10:25:23.648Z</time></trkpt><trkpt lat="42.1970183" lon="13.7550383"><ele>966.9999999999999</ele><time>2026-05-02T10:25:25.648Z</time></trkpt><trkpt lat="42.19698" lon="13.7549067"><ele>969.0</ele><time>2026-05-02T10:25:27.648Z</time></trkpt><trkpt lat="42.1969533" lon="13.7547933"><ele>971.0</ele><time>2026-05-02T10:26:10.647Z</time></trkpt><trkpt lat="42.1969267" lon="13.7546667"><ele>971.0</ele><time>2026-05-02T10:26:12.647Z</time></trkpt><trkpt lat="42.1969033" lon="13.7545267"><ele>970.9999999999999</ele><time>2026-05-02T10:26:14.647Z</time></trkpt><trkpt lat="42.196895" lon="13.7543933"><ele>970.9999999999999</ele><time>2026-05-02T10:26:16.647Z</time></trkpt><trkpt lat="42.1968683" lon="13.7542617"><ele>971.0</ele><time>2026-05-02T10:26:18.647Z</time></trkpt><trkpt lat="42.1968183" lon="13.7541167"><ele>971.0</ele><time>2026-05-02T10:26:20.647Z</time></trkpt><trkpt lat="42.1967583" lon="13.75399"><ele>973.1999999999999</ele><time>2026-05-02T10:26:22.648Z</time></trkpt><trkpt lat="42.1966917" lon="13.75393"><ele>975.3999999999999</ele><time>2026-05-02T10:26:24.648Z</time></trkpt><trkpt lat="42.196605" lon="13.753845"><ele>977.6</ele><time>2026-05-02T10:26:26.648Z</time></trkpt><trkpt lat="42.1965433" lon="13.7537283"><ele>979.8</ele><time>2026-05-02T10:26:28.648Z</time></trkpt><trkpt lat="42.196505" lon="13.75362"><ele>982.0</ele><time>2026-05-02T10:26:30.648Z</time></trkpt><trkpt lat="42.1965217" lon="13.753485"><ele>983.8333333333333</ele><time>2026-05-02T10:26:32.648Z</time></trkpt><trkpt lat="42.196565" lon="13.7533283"><ele>985.6666666666666</ele><time>2026-05-02T10:26:34.647Z</time></trkpt><trkpt lat="42.1965917" lon="13.7532467"><ele>987.5</ele><time>2026-05-02T10:26:35.647Z</time></trkpt><trkpt lat="42.1966333" lon="13.7531783"><ele>989.3333333333333</ele><time>2026-05-02T10:26:36.648Z</time></trkpt><trkpt lat="42.1966833" lon="13.7531133"><ele>991.1666666666666</ele><time>2026-05-02T10:26:37.647Z</time></trkpt><trkpt lat="42.1967467" lon="13.753075"><ele>993.0</ele><time>2026-05-02T10:26:38.647Z</time></trkpt><trkpt lat="42.19681" lon="13.753045"><ele>993.0</ele><time>2026-05-02T10:26:39.648Z</time></trkpt><trkpt lat="42.1969217" lon="13.7530083"><ele>993.0</ele><time>2026-05-02T10:26:41.648Z</time></trkpt><trkpt lat="42.196985" lon="13.7529717"><ele>993.0</ele><time>2026-05-02T10:26:42.647Z</time></trkpt><trkpt lat="42.1970533" lon="13.7529133"><ele>993.0</ele><time>2026-05-02T10:26:43.647Z</time></trkpt><trkpt lat="42.1971167" lon="13.7528333"><ele>993.0</ele><time>2026-05-02T10:26:44.648Z</time></trkpt><trkpt lat="42.1971683" lon="13.75274"><ele>993.0</ele><time>2026-05-02T10:26:45.648Z</time></trkpt><trkpt lat="42.1972233" lon="13.7526433"><ele>994.0</ele><time>2026-05-02T10:26:46.647Z</time></trkpt><trkpt lat="42.1972717" lon="13.7525367"><ele>995.0</ele><time>2026-05-02T10:26:47.648Z</time></trkpt><trkpt lat="42.1973183" lon="13.7524367"><ele>996.0</ele><time>2026-05-02T10:26:48.648Z</time></trkpt><trkpt lat="42.1973617" lon="13.752335"><ele>997.0</ele><time>2026-05-02T10:26:49.647Z</time></trkpt><trkpt lat="42.1973983" lon="13.752235"><ele>998.0</ele><time>2026-05-02T10:26:50.647Z</time></trkpt><trkpt lat="42.1974333" lon="13.7521417"><ele>999.0</ele><time>2026-05-02T10:26:51.648Z</time></trkpt><trkpt lat="42.197465" lon="13.7520467"><ele>999.0</ele><time>2026-05-02T10:26:52.648Z</time></trkpt><trkpt lat="42.1975083" lon="13.7519617"><ele>999.0</ele><time>2026-05-02T10:26:53.648Z</time></trkpt><trkpt lat="42.1975633" lon="13.7518783"><ele>999.0</ele><time>2026-05-02T10:26:54.647Z</time></trkpt><trkpt lat="42.1976217" lon="13.7517983"><ele>999.0</ele><time>2026-05-02T10:26:55.647Z</time></trkpt><trkpt lat="42.1976867" lon="13.751705"><ele>999.0</ele><time>2026-05-02T10:26:56.648Z</time></trkpt><trkpt lat="42.1977533" lon="13.7516217"><ele>999.0</ele><time>2026-05-02T10:26:57.648Z</time></trkpt><trkpt lat="42.1978233" lon="13.7515317"><ele>1001.4000000000001</ele><time>2026-05-02T10:26:58.648Z</time></trkpt><trkpt lat="42.1979017" lon="13.751435"><ele>1003.8000000000001</ele><time>2026-05-02T10:26:59.647Z</time></trkpt><trkpt lat="42.1979733" lon="13.75135"><ele>1006.1999999999999</ele><time>2026-05-02T10:27:00.648Z</time></trkpt><trkpt lat="42.1980417" lon="13.7512517"><ele>1008.5999999999999</ele><time>2026-05-02T10:27:01.648Z</time></trkpt><trkpt lat="42.1981017" lon="13.751165"><ele>1011.0</ele><time>2026-05-02T10:27:02.647Z</time></trkpt><trkpt lat="42.1981617" lon="13.7510817"><ele>1012.4285714285713</ele><time>2026-05-02T10:27:03.647Z</time></trkpt><trkpt lat="42.1982133" lon="13.7510067"><ele>1013.8571428571429</ele><time>2026-05-02T10:27:04.648Z</time></trkpt><trkpt lat="42.1982633" lon="13.7509383"><ele>1015.2857142857142</ele><time>2026-05-02T10:27:05.647Z</time></trkpt><trkpt lat="42.1983117" lon="13.7508683"><ele>1016.7142857142857</ele><time>2026-05-02T10:27:06.648Z</time></trkpt><trkpt lat="42.19836" lon="13.7507883"><ele>1018.1428571428571</ele><time>2026-05-02T10:27:07.648Z</time></trkpt><trkpt lat="42.1984083" lon="13.7507167"><ele>1019.5714285714286</ele><time>2026-05-02T10:27:08.647Z</time></trkpt><trkpt lat="42.1984633" lon="13.7506417"><ele>1021.0</ele><time>2026-05-02T10:27:09.647Z</time></trkpt><trkpt lat="42.198515" lon="13.750565"><ele>1021.0</ele><time>2026-05-02T10:27:10.648Z</time></trkpt><trkpt lat="42.19857" lon="13.7504867"><ele>1020.9999999999999</ele><time>2026-05-02T10:27:11.647Z</time></trkpt><trkpt lat="42.198635" lon="13.7504067"><ele>1020.9999999999999</ele><time>2026-05-02T10:27:12.647Z</time></trkpt><trkpt lat="42.1986833" lon="13.7503233"><ele>1021.0</ele><time>2026-05-02T10:27:13.648Z</time></trkpt><trkpt lat="42.1987367" lon="13.7501717"><ele>1021.0</ele><time>2026-05-02T10:27:15.648Z</time></trkpt><trkpt lat="42.1987533" lon="13.7500067"><ele>1022.8333333333333</ele><time>2026-05-02T10:27:17.648Z</time></trkpt><trkpt lat="42.1987567" lon="13.7499017"><ele>1024.6666666666665</ele><time>2026-05-02T10:27:18.647Z</time></trkpt><trkpt lat="42.1987517" lon="13.749785"><ele>1026.5</ele><time>2026-05-02T10:27:19.648Z</time></trkpt><trkpt lat="42.1987483" lon="13.7496767"><ele>1028.3333333333333</ele><time>2026-05-02T10:27:20.647Z</time></trkpt><trkpt lat="42.1987483" lon="13.7495833"><ele>1030.1666666666667</ele><time>2026-05-02T10:27:21.648Z</time></trkpt><trkpt lat="42.1987417" lon="13.7494817"><ele>1032.0</ele><time>2026-05-02T10:27:22.648Z</time></trkpt><trkpt lat="42.1987233" lon="13.7493817"><ele>1032.8333333333333</ele><time>2026-05-02T10:27:23.648Z</time></trkpt><trkpt lat="42.1987133" lon="13.7492733"><ele>1033.6666666666667</ele><time>2026-05-02T10:27:24.648Z</time></trkpt><trkpt lat="42.1987167" lon="13.7491617"><ele>1034.5</ele><time>2026-05-02T10:27:25.648Z</time></trkpt><trkpt lat="42.1987117" lon="13.7490533"><ele>1035.3333333333335</ele><time>2026-05-02T10:27:26.647Z</time></trkpt><trkpt lat="42.1987017" lon="13.74893"><ele>1036.1666666666667</ele><time>2026-05-02T10:27:27.647Z</time></trkpt><trkpt lat="42.1986833" lon="13.748805"><ele>1037.0</ele><time>2026-05-02T10:27:28.648Z</time></trkpt><trkpt lat="42.19866" lon="13.74869"><ele>1037.0</ele><time>2026-05-02T10:27:29.647Z</time></trkpt><trkpt lat="42.1986517" lon="13.7485733"><ele>1037.0</ele><time>2026-05-02T10:27:30.648Z</time></trkpt><trkpt lat="42.1986633" lon="13.748445"><ele>1037.0</ele><time>2026-05-02T10:27:31.647Z</time></trkpt><trkpt lat="42.1986767" lon="13.748295"><ele>1037.0</ele><time>2026-05-02T10:27:32.648Z</time></trkpt><trkpt lat="42.198695" lon="13.748145"><ele>1037.0</ele><time>2026-05-02T10:27:33.648Z</time></trkpt><trkpt lat="42.1987033" lon="13.748005"><ele>1037.4</ele><time>2026-05-02T10:27:34.647Z</time></trkpt><trkpt lat="42.1987" lon="13.74787"><ele>1037.8000000000002</ele><time>2026-05-02T10:27:35.647Z</time></trkpt><trkpt lat="42.1986983" lon="13.7477483"><ele>1038.2</ele><time>2026-05-02T10:27:36.647Z</time></trkpt><trkpt lat="42.1986933" lon="13.74762"><ele>1038.6000000000001</ele><time>2026-05-02T10:27:37.647Z</time></trkpt><trkpt lat="42.1987033" lon="13.7475"><ele>1039.0</ele><time>2026-05-02T10:27:38.648Z</time></trkpt><trkpt lat="42.198705" lon="13.74737"><ele>1040.1666666666665</ele><time>2026-05-02T10:27:39.648Z</time></trkpt><trkpt lat="42.19871" lon="13.7472567"><ele>1041.3333333333333</ele><time>2026-05-02T10:27:40.647Z</time></trkpt><trkpt lat="42.1987233" lon="13.7471517"><ele>1042.5</ele><time>2026-05-02T10:27:41.648Z</time></trkpt><trkpt lat="42.1987467" lon="13.74706"><ele>1043.6666666666667</ele><time>2026-05-02T10:27:42.647Z</time></trkpt><trkpt lat="42.1987767" lon="13.7469567"><ele>1044.8333333333335</ele><time>2026-05-02T10:27:43.648Z</time></trkpt><trkpt lat="42.1988083" lon="13.7468467"><ele>1046.0</ele><time>2026-05-02T10:27:44.648Z</time></trkpt><trkpt lat="42.1988233" lon="13.7467217"><ele>1047.3999999999999</ele><time>2026-05-02T10:27:45.648Z</time></trkpt><trkpt lat="42.198835" lon="13.74659"><ele>1048.8</ele><time>2026-05-02T10:27:46.648Z</time></trkpt><trkpt lat="42.1988383" lon="13.7464667"><ele>1050.1999999999998</ele><time>2026-05-02T10:27:47.648Z</time></trkpt><trkpt lat="42.1988367" lon="13.74634"><ele>1051.6</ele><time>2026-05-02T10:27:48.647Z</time></trkpt><trkpt lat="42.1988417" lon="13.7462117"><ele>1053.0</ele><time>2026-05-02T10:27:49.648Z</time></trkpt><trkpt lat="42.1988533" lon="13.74609"><ele>1053.8</ele><time>2026-05-02T10:27:50.648Z</time></trkpt><trkpt lat="42.198885" lon="13.7459717"><ele>1054.6</ele><time>2026-05-02T10:27:51.647Z</time></trkpt><trkpt lat="42.1989217" lon="13.7458417"><ele>1055.4</ele><time>2026-05-02T10:27:52.647Z</time></trkpt><trkpt lat="42.1989533" lon="13.7457067"><ele>1056.2</ele><time>2026-05-02T10:27:53.648Z</time></trkpt><trkpt lat="42.19898" lon="13.7455833"><ele>1057.0</ele><time>2026-05-02T10:27:54.648Z</time></trkpt><trkpt lat="42.19901" lon="13.7454733"><ele>1057.0</ele><time>2026-05-02T10:27:55.647Z</time></trkpt><trkpt lat="42.19905" lon="13.7453783"><ele>1057.0</ele><time>2026-05-02T10:27:56.648Z</time></trkpt><trkpt lat="42.1991083" lon="13.74529"><ele>1057.0</ele><time>2026-05-02T10:27:57.648Z</time></trkpt><trkpt lat="42.1991817" lon="13.7451867"><ele>1057.0</ele><time>2026-05-02T10:27:58.647Z</time></trkpt><trkpt lat="42.1992533" lon="13.7450767"><ele>1057.0</ele><time>2026-05-02T10:27:59.647Z</time></trkpt><trkpt lat="42.199305" lon="13.7449617"><ele>1057.3333333333333</ele><time>2026-05-02T10:28:00.647Z</time></trkpt><trkpt lat="42.1993483" lon="13.7448483"><ele>1057.6666666666665</ele><time>2026-05-02T10:28:01.648Z</time></trkpt><trkpt lat="42.1993867" lon="13.7447333"><ele>1058.0</ele><time>2026-05-02T10:28:02.647Z</time></trkpt><trkpt lat="42.1994133" lon="13.7446333"><ele>1058.3333333333333</ele><time>2026-05-02T10:28:03.647Z</time></trkpt><trkpt lat="42.1994417" lon="13.7445483"><ele>1058.6666666666667</ele><time>2026-05-02T10:28:04.647Z</time></trkpt><trkpt lat="42.1994767" lon="13.7444683"><ele>1059.0</ele><time>2026-05-02T10:28:05.647Z</time></trkpt><trkpt lat="42.19952" lon="13.7444017"><ele>1059.8</ele><time>2026-05-02T10:28:06.647Z</time></trkpt><trkpt lat="42.19957" lon="13.7443483"><ele>1060.6000000000001</ele><time>2026-05-02T10:28:07.648Z</time></trkpt><trkpt lat="42.1996667" lon="13.74428"><ele>1061.4</ele><time>2026-05-02T10:28:09.647Z</time></trkpt><trkpt lat="42.1997683" lon="13.7442233"><ele>1062.2</ele><time>2026-05-02T10:28:11.648Z</time></trkpt><trkpt lat="42.199865" lon="13.7441733"><ele>1063.0</ele><time>2026-05-02T10:28:13.647Z</time></trkpt><trkpt lat="42.1999633" lon="13.7441183"><ele>1060.6</ele><time>2026-05-02T10:28:15.647Z</time></trkpt><trkpt lat="42.2000767" lon="13.744065"><ele>1058.1999999999998</ele><time>2026-05-02T10:28:17.647Z</time></trkpt><trkpt lat="42.20018" lon="13.744"><ele>1055.8</ele><time>2026-05-02T10:28:19.647Z</time></trkpt><trkpt lat="42.2002683" lon="13.7439333"><ele>1053.3999999999999</ele><time>2026-05-02T10:28:21.648Z</time></trkpt><trkpt lat="42.2003433" lon="13.7438267"><ele>1051.0</ele><time>2026-05-02T10:28:23.648Z</time></trkpt><trkpt lat="42.200385" lon="13.7437467"><ele>1051.0</ele><time>2026-05-02T10:28:24.648Z</time></trkpt><trkpt lat="42.2004317" lon="13.7436567"><ele>1051.0</ele><time>2026-05-02T10:28:25.648Z</time></trkpt><trkpt lat="42.2004783" lon="13.7435583"><ele>1051.0</ele><time>2026-05-02T10:28:26.647Z</time></trkpt><trkpt lat="42.2005233" lon="13.74347"><ele>1051.0</ele><time>2026-05-02T10:28:27.648Z</time></trkpt><trkpt lat="42.200565" lon="13.7433767"><ele>1051.0</ele><time>2026-05-02T10:28:28.646Z</time></trkpt><trkpt lat="42.2006033" lon="13.743285"><ele>1051.0</ele><time>2026-05-02T10:28:29.646Z</time></trkpt><trkpt lat="42.2006333" lon="13.7431917"><ele>1051.8333333333333</ele><time>2026-05-02T10:28:30.647Z</time></trkpt><trkpt lat="42.2006617" lon="13.7431067"><ele>1052.6666666666665</ele><time>2026-05-02T10:28:31.647Z</time></trkpt><trkpt lat="42.200705" lon="13.7429867"><ele>1053.5</ele><time>2026-05-02T10:28:33.647Z</time></trkpt><trkpt lat="42.2007433" lon="13.742915"><ele>1054.3333333333333</ele><time>2026-05-02T10:28:34.646Z</time></trkpt><trkpt lat="42.2007933" lon="13.7428283"><ele>1055.1666666666667</ele><time>2026-05-02T10:28:35.646Z</time></trkpt><trkpt lat="42.2008433" lon="13.7427333"><ele>1056.0</ele><time>2026-05-02T10:28:36.647Z</time></trkpt><trkpt lat="42.2008917" lon="13.7426517"><ele>1053.0</ele><time>2026-05-02T10:28:37.647Z</time></trkpt><trkpt lat="42.2009367" lon="13.74258"><ele>1050.0</ele><time>2026-05-02T10:28:38.647Z</time></trkpt><trkpt lat="42.2010167" lon="13.742435"><ele>1047.0</ele><time>2026-05-02T10:28:40.646Z</time></trkpt><trkpt lat="42.2010683" lon="13.7423583"><ele>1044.0</ele><time>2026-05-02T10:28:41.646Z</time></trkpt><trkpt lat="42.2011283" lon="13.7422883"><ele>1041.0</ele><time>2026-05-02T10:28:42.646Z</time></trkpt><trkpt lat="42.2011917" lon="13.7422267"><ele>1038.0</ele><time>2026-05-02T10:28:43.647Z</time></trkpt><trkpt lat="42.2012567" lon="13.7421533"><ele>1038.0</ele><time>2026-05-02T10:28:44.647Z</time></trkpt><trkpt lat="42.201315" lon="13.7420767"><ele>1038.0</ele><time>2026-05-02T10:28:45.646Z</time></trkpt><trkpt lat="42.2013867" lon="13.7419883"><ele>1038.0</ele><time>2026-05-02T10:28:46.647Z</time></trkpt><trkpt lat="42.201455" lon="13.7418967"><ele>1038.0</ele><time>2026-05-02T10:28:47.646Z</time></trkpt><trkpt lat="42.201525" lon="13.7418083"><ele>1038.0</ele><time>2026-05-02T10:28:48.647Z</time></trkpt><trkpt lat="42.2015867" lon="13.7417217"><ele>1036.0</ele><time>2026-05-02T10:28:49.647Z</time></trkpt><trkpt lat="42.2016333" lon="13.7416367"><ele>1034.0</ele><time>2026-05-02T10:28:50.646Z</time></trkpt><trkpt lat="42.2016767" lon="13.741565"><ele>1032.0</ele><time>2026-05-02T10:28:51.647Z</time></trkpt><trkpt lat="42.201725" lon="13.7415017"><ele>1030.0</ele><time>2026-05-02T10:28:52.646Z</time></trkpt><trkpt lat="42.2017833" lon="13.741435"><ele>1028.0</ele><time>2026-05-02T10:28:53.646Z</time></trkpt><trkpt lat="42.2018467" lon="13.741385"><ele>1026.0</ele><time>2026-05-02T10:28:54.647Z</time></trkpt><trkpt lat="42.2019133" lon="13.74134"><ele>1024.0</ele><time>2026-05-02T10:28:55.646Z</time></trkpt><trkpt lat="42.2019767" lon="13.7413017"><ele>1024.0</ele><time>2026-05-02T10:28:56.646Z</time></trkpt><trkpt lat="42.202045" lon="13.7412767"><ele>1024.0</ele><time>2026-05-02T10:28:57.647Z</time></trkpt><trkpt lat="42.2021283" lon="13.7412633"><ele>1024.0</ele><time>2026-05-02T10:28:58.647Z</time></trkpt><trkpt lat="42.2022317" lon="13.7412483"><ele>1024.0</ele><time>2026-05-02T10:28:59.647Z</time></trkpt><trkpt lat="42.202345" lon="13.7412267"><ele>1024.0</ele><time>2026-05-02T10:29:00.646Z</time></trkpt><trkpt lat="42.2024567" lon="13.7412083"><ele>1019.0</ele><time>2026-05-02T10:29:01.646Z</time></trkpt><trkpt lat="42.20257" lon="13.7411867"><ele>1014.0000000000001</ele><time>2026-05-02T10:29:02.647Z</time></trkpt><trkpt lat="42.2026817" lon="13.7411567"><ele>1009.0000000000001</ele><time>2026-05-02T10:29:03.647Z</time></trkpt><trkpt lat="42.2027833" lon="13.741125"><ele>1004.0</ele><time>2026-05-02T10:29:04.646Z</time></trkpt><trkpt lat="42.2028817" lon="13.741085"><ele>999.0</ele><time>2026-05-02T10:29:05.646Z</time></trkpt><trkpt lat="42.2029833" lon="13.74105"><ele>1000.4000000000001</ele><time>2026-05-02T10:29:06.647Z</time></trkpt><trkpt lat="42.203085" lon="13.74102"><ele>1001.8000000000001</ele><time>2026-05-02T10:29:07.647Z</time></trkpt><trkpt lat="42.2031817" lon="13.7409967"><ele>1003.1999999999999</ele><time>2026-05-02T10:29:08.647Z</time></trkpt><trkpt lat="42.2032733" lon="13.7409733"><ele>1004.5999999999999</ele><time>2026-05-02T10:29:09.647Z</time></trkpt><trkpt lat="42.2033567" lon="13.7409433"><ele>1006.0</ele><time>2026-05-02T10:29:10.646Z</time></trkpt><trkpt lat="42.2034417" lon="13.740905"><ele>1005.9999999999999</ele><time>2026-05-02T10:29:11.647Z</time></trkpt><trkpt lat="42.2035133" lon="13.7408683"><ele>1006.0</ele><time>2026-05-02T10:29:12.646Z</time></trkpt><trkpt lat="42.2035717" lon="13.740835"><ele>1006.0</ele><time>2026-05-02T10:29:13.646Z</time></trkpt><trkpt lat="42.20366" lon="13.7407283"><ele>1006.0</ele><time>2026-05-02T10:29:15.647Z</time></trkpt><trkpt lat="42.20371" lon="13.7406483"><ele>1005.9999999999999</ele><time>2026-05-02T10:29:16.647Z</time></trkpt><trkpt lat="42.2037567" lon="13.7405783"><ele>1006.0</ele><time>2026-05-02T10:29:17.646Z</time></trkpt><trkpt lat="42.2038033" lon="13.7404867"><ele>1005.9999999999999</ele><time>2026-05-02T10:29:18.646Z</time></trkpt><trkpt lat="42.2038483" lon="13.7403917"><ele>1006.0</ele><time>2026-05-02T10:29:19.646Z</time></trkpt><trkpt lat="42.2039" lon="13.74029"><ele>1006.0</ele><time>2026-05-02T10:29:20.646Z</time></trkpt><trkpt lat="42.2039517" lon="13.7402"><ele>1006.0</ele><time>2026-05-02T10:29:21.646Z</time></trkpt><trkpt lat="42.2040133" lon="13.74012"><ele>1005.9999999999999</ele><time>2026-05-02T10:29:22.646Z</time></trkpt><trkpt lat="42.2040867" lon="13.7400433"><ele>1006.0</ele><time>2026-05-02T10:29:23.646Z</time></trkpt><trkpt lat="42.20417" lon="13.739975"><ele>1004.8</ele><time>2026-05-02T10:29:24.646Z</time></trkpt><trkpt lat="42.2042533" lon="13.739905"><ele>1003.5999999999999</ele><time>2026-05-02T10:29:25.647Z</time></trkpt><trkpt lat="42.2043367" lon="13.73983"><ele>1002.4</ele><time>2026-05-02T10:29:26.647Z</time></trkpt><trkpt lat="42.204415" lon="13.7397583"><ele>1001.2</ele><time>2026-05-02T10:29:27.646Z</time></trkpt><trkpt lat="42.204495" lon="13.739695"><ele>1000.0</ele><time>2026-05-02T10:29:28.646Z</time></trkpt><trkpt lat="42.2045817" lon="13.7396417"><ele>999.9999999999999</ele><time>2026-05-02T10:29:29.646Z</time></trkpt><trkpt lat="42.2046683" lon="13.7395967"><ele>1000.0</ele><time>2026-05-02T10:29:30.646Z</time></trkpt><trkpt lat="42.2047517" lon="13.7395683"><ele>1000.0</ele><time>2026-05-02T10:29:31.646Z</time></trkpt><trkpt lat="42.2048333" lon="13.739545"><ele>1000.0</ele><time>2026-05-02T10:29:32.646Z</time></trkpt><trkpt lat="42.20491" lon="13.7395183"><ele>999.9999999999999</ele><time>2026-05-02T10:29:33.647Z</time></trkpt><trkpt lat="42.2049783" lon="13.73948"><ele>1000.0</ele><time>2026-05-02T10:29:34.647Z</time></trkpt><trkpt lat="42.205035" lon="13.73944"><ele>998.1666666666666</ele><time>2026-05-02T10:29:35.646Z</time></trkpt><trkpt lat="42.2050933" lon="13.7393867"><ele>996.3333333333333</ele><time>2026-05-02T10:29:36.646Z</time></trkpt><trkpt lat="42.2051583" lon="13.7392417"><ele>994.5</ele><time>2026-05-02T10:29:38.646Z</time></trkpt><trkpt lat="42.2052" lon="13.739155"><ele>992.6666666666667</ele><time>2026-05-02T10:29:39.646Z</time></trkpt><trkpt lat="42.2052467" lon="13.7390883"><ele>990.8333333333334</ele><time>2026-05-02T10:29:40.647Z</time></trkpt><trkpt lat="42.2053017" lon="13.7390467"><ele>989.0</ele><time>2026-05-02T10:29:41.647Z</time></trkpt><trkpt lat="42.2053683" lon="13.739005"><ele>989.0</ele><time>2026-05-02T10:29:42.647Z</time></trkpt><trkpt lat="42.2054583" lon="13.7389683"><ele>989.0000000000001</ele><time>2026-05-02T10:29:43.647Z</time></trkpt><trkpt lat="42.2055567" lon="13.738935"><ele>989.0000000000001</ele><time>2026-05-02T10:29:44.647Z</time></trkpt><trkpt lat="42.2056517" lon="13.738915"><ele>989.0</ele><time>2026-05-02T10:29:45.646Z</time></trkpt><trkpt lat="42.20574" lon="13.7388983"><ele>989.0</ele><time>2026-05-02T10:29:46.646Z</time></trkpt><trkpt lat="42.20584" lon="13.7388667"><ele>987.8333333333334</ele><time>2026-05-02T10:29:47.647Z</time></trkpt><trkpt lat="42.2059417" lon="13.7388133"><ele>986.6666666666667</ele><time>2026-05-02T10:29:48.647Z</time></trkpt><trkpt lat="42.206035" lon="13.73876"><ele>985.5</ele><time>2026-05-02T10:29:49.647Z</time></trkpt><trkpt lat="42.2061233" lon="13.7387117"><ele>984.3333333333333</ele><time>2026-05-02T10:29:50.646Z</time></trkpt><trkpt lat="42.2061983" lon="13.73868"><ele>983.1666666666666</ele><time>2026-05-02T10:29:51.647Z</time></trkpt><trkpt lat="42.2062617" lon="13.738685"><ele>982.0</ele><time>2026-05-02T10:29:52.646Z</time></trkpt><trkpt lat="42.2063433" lon="13.73871"><ele>982.0</ele><time>2026-05-02T10:29:53.647Z</time></trkpt><trkpt lat="42.206445" lon="13.73875"><ele>982.0</ele><time>2026-05-02T10:29:54.647Z</time></trkpt><trkpt lat="42.206545" lon="13.7387883"><ele>982.0</ele><time>2026-05-02T10:29:55.646Z</time></trkpt><trkpt lat="42.2066533" lon="13.7388067"><ele>982.0</ele><time>2026-05-02T10:29:56.647Z</time></trkpt><trkpt lat="42.20677" lon="13.7388117"><ele>982.0</ele><time>2026-05-02T10:29:57.646Z</time></trkpt><trkpt lat="42.2068867" lon="13.738815"><ele>982.0</ele><time>2026-05-02T10:29:58.646Z</time></trkpt><trkpt lat="42.2069983" lon="13.7388217"><ele>982.0</ele><time>2026-05-02T10:29:59.647Z</time></trkpt><trkpt lat="42.2070967" lon="13.738815"><ele>982.0</ele><time>2026-05-02T10:30:00.646Z</time></trkpt><trkpt lat="42.2071833" lon="13.7387967"><ele>982.0</ele><time>2026-05-02T10:30:01.647Z</time></trkpt><trkpt lat="42.2072617" lon="13.73875"><ele>982.0</ele><time>2026-05-02T10:30:02.647Z</time></trkpt><trkpt lat="42.2073433" lon="13.7386883"><ele>984.2</ele><time>2026-05-02T10:30:03.646Z</time></trkpt><trkpt lat="42.207425" lon="13.7386217"><ele>986.4000000000001</ele><time>2026-05-02T10:30:04.647Z</time></trkpt><trkpt lat="42.2075083" lon="13.7385333"><ele>988.5999999999999</ele><time>2026-05-02T10:30:05.646Z</time></trkpt><trkpt lat="42.207585" lon="13.7384317"><ele>990.8</ele><time>2026-05-02T10:30:06.646Z</time></trkpt><trkpt lat="42.2076583" lon="13.7383167"><ele>993.0</ele><time>2026-05-02T10:30:07.647Z</time></trkpt><trkpt lat="42.2077267" lon="13.7382083"><ele>993.0</ele><time>2026-05-02T10:30:08.646Z</time></trkpt><trkpt lat="42.2077917" lon="13.7381133"><ele>993.0</ele><time>2026-05-02T10:30:09.646Z</time></trkpt><trkpt lat="42.2078683" lon="13.738025"><ele>993.0</ele><time>2026-05-02T10:30:10.647Z</time></trkpt><trkpt lat="42.207965" lon="13.7379383"><ele>993.0</ele><time>2026-05-02T10:30:11.646Z</time></trkpt><trkpt lat="42.2080733" lon="13.7378483"><ele>993.0</ele><time>2026-05-02T10:30:12.646Z</time></trkpt><trkpt lat="42.2081783" lon="13.7377583"><ele>994.0</ele><time>2026-05-02T10:30:13.646Z</time></trkpt><trkpt lat="42.2082817" lon="13.73769"><ele>995.0</ele><time>2026-05-02T10:30:14.647Z</time></trkpt><trkpt lat="42.2083967" lon="13.7376233"><ele>996.0</ele><time>2026-05-02T10:30:15.647Z</time></trkpt><trkpt lat="42.2085183" lon="13.7375617"><ele>997.0</ele><time>2026-05-02T10:30:16.646Z</time></trkpt><trkpt lat="42.2086467" lon="13.7374967"><ele>997.0</ele><time>2026-05-02T10:30:17.646Z</time></trkpt><trkpt lat="42.208775" lon="13.73743"><ele>997.0</ele><time>2026-05-02T10:30:18.646Z</time></trkpt><trkpt lat="42.2088933" lon="13.737375"><ele>997.0</ele><time>2026-05-02T10:30:19.647Z</time></trkpt><trkpt lat="42.209005" lon="13.73732"><ele>997.0</ele><time>2026-05-02T10:30:20.647Z</time></trkpt><trkpt lat="42.2091217" lon="13.7372667"><ele>994.2</ele><time>2026-05-02T10:30:21.647Z</time></trkpt><trkpt lat="42.2092267" lon="13.7372217"><ele>991.4000000000001</ele><time>2026-05-02T10:30:22.647Z</time></trkpt><trkpt lat="42.2093267" lon="13.7371733"><ele>988.5999999999999</ele><time>2026-05-02T10:30:23.646Z</time></trkpt><trkpt lat="42.2094267" lon="13.73712"><ele>985.8</ele><time>2026-05-02T10:30:24.647Z</time></trkpt><trkpt lat="42.20951" lon="13.73708"><ele>983.0</ele><time>2026-05-02T10:30:25.646Z</time></trkpt><trkpt lat="42.2095667" lon="13.737035"><ele>983.0</ele><time>2026-05-02T10:30:26.646Z</time></trkpt><trkpt lat="42.2096667" lon="13.7369067"><ele>983.0</ele><time>2026-05-02T10:30:28.647Z</time></trkpt><trkpt lat="42.2097283" lon="13.73682"><ele>983.0</ele><time>2026-05-02T10:30:29.647Z</time></trkpt><trkpt lat="42.2098133" lon="13.7367217"><ele>983.0</ele><time>2026-05-02T10:30:30.647Z</time></trkpt><trkpt lat="42.2099067" lon="13.7366317"><ele>983.2</ele><time>2026-05-02T10:30:31.647Z</time></trkpt><trkpt lat="42.21" lon="13.7365367"><ele>983.4</ele><time>2026-05-02T10:30:32.646Z</time></trkpt><trkpt lat="42.2100883" lon="13.7364483"><ele>983.6000000000001</ele><time>2026-05-02T10:30:33.646Z</time></trkpt><trkpt lat="42.2101817" lon="13.7363617"><ele>983.8000000000001</ele><time>2026-05-02T10:30:34.646Z</time></trkpt><trkpt lat="42.2102667" lon="13.7362917"><ele>984.0</ele><time>2026-05-02T10:30:35.647Z</time></trkpt><trkpt lat="42.21033" lon="13.736245"><ele>984.0</ele><time>2026-05-02T10:30:36.647Z</time></trkpt><trkpt lat="42.2103983" lon="13.736195"><ele>984.0</ele><time>2026-05-02T10:30:38.647Z</time></trkpt><trkpt lat="42.21036" lon="13.7361083"><ele>984.0</ele><time>2026-05-02T10:30:51.647Z</time></trkpt><trkpt lat="42.2102767" lon="13.736065"><ele>984.0</ele><time>2026-05-02T10:30:53.647Z</time></trkpt><trkpt lat="42.21022" lon="13.736025"><ele>984.0</ele><time>2026-05-02T10:30:54.647Z</time></trkpt><trkpt lat="42.2100983" lon="13.7359583"><ele>984.0</ele><time>2026-05-02T10:30:56.647Z</time></trkpt><trkpt lat="42.2100417" lon="13.735915"><ele>985.1666666666666</ele><time>2026-05-02T10:30:57.647Z</time></trkpt><trkpt lat="42.209985" lon="13.7358733"><ele>986.3333333333333</ele><time>2026-05-02T10:30:58.646Z</time></trkpt><trkpt lat="42.2099183" lon="13.735825"><ele>987.5</ele><time>2026-05-02T10:30:59.646Z</time></trkpt><trkpt lat="42.2098433" lon="13.7357683"><ele>988.6666666666666</ele><time>2026-05-02T10:31:00.646Z</time></trkpt><trkpt lat="42.20977" lon="13.7356967"><ele>989.8333333333333</ele><time>2026-05-02T10:31:01.647Z</time></trkpt><trkpt lat="42.2096967" lon="13.73561"><ele>991.0</ele><time>2026-05-02T10:31:02.647Z</time></trkpt><trkpt lat="42.209615" lon="13.7355083"><ele>994.1999999999999</ele><time>2026-05-02T10:31:03.647Z</time></trkpt><trkpt lat="42.2095317" lon="13.735405"><ele>997.3999999999999</ele><time>2026-05-02T10:31:04.647Z</time></trkpt><trkpt lat="42.2094467" lon="13.7353067"><ele>1000.6</ele><time>2026-05-02T10:31:05.646Z</time></trkpt><trkpt lat="42.2093683" lon="13.7352217"><ele>1003.8</ele><time>2026-05-02T10:31:06.647Z</time></trkpt><trkpt lat="42.2092967" lon="13.7351583"><ele>1007.0</ele><time>2026-05-02T10:31:07.647Z</time></trkpt><trkpt lat="42.209235" lon="13.7351133"><ele>1007.0</ele><time>2026-05-02T10:31:08.646Z</time></trkpt><trkpt lat="42.2091717" lon="13.7350817"><ele>1007.0</ele><time>2026-05-02T10:31:09.647Z</time></trkpt><trkpt lat="42.2090867" lon="13.7350633"><ele>1007.0</ele><time>2026-05-02T10:31:10.647Z</time></trkpt><trkpt lat="42.208985" lon="13.7350633"><ele>1007.0</ele><time>2026-05-02T10:31:11.647Z</time></trkpt><trkpt lat="42.2088617" lon="13.7350683"><ele>1007.0</ele><time>2026-05-02T10:31:12.647Z</time></trkpt><trkpt lat="42.208735" lon="13.7350817"><ele>1011.75</ele><time>2026-05-02T10:31:13.647Z</time></trkpt><trkpt lat="42.2086" lon="13.7351017"><ele>1016.5</ele><time>2026-05-02T10:31:14.647Z</time></trkpt><trkpt lat="42.2084783" lon="13.735135"><ele>1021.25</ele><time>2026-05-02T10:31:15.646Z</time></trkpt><trkpt lat="42.2083733" lon="13.7352017"><ele>1026.0</ele><time>2026-05-02T10:31:16.646Z</time></trkpt><trkpt lat="42.2082867" lon="13.7352867"><ele>1026.0</ele><time>2026-05-02T10:31:17.647Z</time></trkpt><trkpt lat="42.2082167" lon="13.7353833"><ele>1026.0</ele><time>2026-05-02T10:31:18.647Z</time></trkpt><trkpt lat="42.2081533" lon="13.735495"><ele>1026.0</ele><time>2026-05-02T10:31:19.647Z</time></trkpt><trkpt lat="42.2080917" lon="13.7356367"><ele>1026.0</ele><time>2026-05-02T10:31:20.646Z</time></trkpt><trkpt lat="42.2080333" lon="13.7358"><ele>1029.5</ele><time>2026-05-02T10:31:21.646Z</time></trkpt><trkpt lat="42.2079633" lon="13.7359583"><ele>1033.0</ele><time>2026-05-02T10:31:22.647Z</time></trkpt><trkpt lat="42.2078983" lon="13.7361083"><ele>1036.5</ele><time>2026-05-02T10:31:23.646Z</time></trkpt><trkpt lat="42.20782" lon="13.7362567"><ele>1040.0</ele><time>2026-05-02T10:31:24.647Z</time></trkpt><trkpt lat="42.2077433" lon="13.7363967"><ele>1040.0</ele><time>2026-05-02T10:31:25.647Z</time></trkpt><trkpt lat="42.2076567" lon="13.7365233"><ele>1040.0</ele><time>2026-05-02T10:31:26.646Z</time></trkpt><trkpt lat="42.2075767" lon="13.7366283"><ele>1040.0</ele><time>2026-05-02T10:31:27.647Z</time></trkpt><trkpt lat="42.2074867" lon="13.73674"><ele>1040.0</ele><time>2026-05-02T10:31:28.647Z</time></trkpt><trkpt lat="42.2073883" lon="13.7368383"><ele>1040.1666666666667</ele><time>2026-05-02T10:31:29.647Z</time></trkpt><trkpt lat="42.2072933" lon="13.7369167"><ele>1040.3333333333335</ele><time>2026-05-02T10:31:30.647Z</time></trkpt><trkpt lat="42.2072067" lon="13.7369617"><ele>1040.5</ele><time>2026-05-02T10:31:31.645Z</time></trkpt><trkpt lat="42.207145" lon="13.7369867"><ele>1040.6666666666667</ele><time>2026-05-02T10:31:32.645Z</time></trkpt><trkpt lat="42.2070783" lon="13.7369567"><ele>1040.8333333333333</ele><time>2026-05-02T10:31:34.645Z</time></trkpt><trkpt lat="42.207025" lon="13.7368367"><ele>1041.0</ele><time>2026-05-02T10:31:36.646Z</time></trkpt><trkpt lat="42.2069933" lon="13.7367567"><ele>1041.0</ele><time>2026-05-02T10:31:37.646Z</time></trkpt><trkpt lat="42.2069683" lon="13.736655"><ele>1041.0</ele><time>2026-05-02T10:31:38.645Z</time></trkpt><trkpt lat="42.2069483" lon="13.7365583"><ele>1041.0</ele><time>2026-05-02T10:31:39.645Z</time></trkpt><trkpt lat="42.2069267" lon="13.7364717"><ele>1041.0</ele><time>2026-05-02T10:31:40.645Z</time></trkpt><trkpt lat="42.206905" lon="13.7363733"><ele>1041.0</ele><time>2026-05-02T10:31:41.645Z</time></trkpt><trkpt lat="42.20688" lon="13.7362867"><ele>1041.0</ele><time>2026-05-02T10:31:42.645Z</time></trkpt><trkpt lat="42.2068567" lon="13.736205"><ele>1041.0</ele><time>2026-05-02T10:31:43.645Z</time></trkpt><trkpt lat="42.2068267" lon="13.7360483"><ele>1043.0</ele><time>2026-05-02T10:31:45.645Z</time></trkpt><trkpt lat="42.206805" lon="13.7358933"><ele>1045.0</ele><time>2026-05-02T10:31:47.646Z</time></trkpt><trkpt lat="42.2068067" lon="13.7357317"><ele>1047.0</ele><time>2026-05-02T10:31:49.645Z</time></trkpt><trkpt lat="42.2068133" lon="13.7356467"><ele>1049.0</ele><time>2026-05-02T10:31:50.646Z</time></trkpt><trkpt lat="42.2068067" lon="13.7355567"><ele>1051.0</ele><time>2026-05-02T10:31:51.645Z</time></trkpt><trkpt lat="42.206785" lon="13.735465"><ele>1053.0</ele><time>2026-05-02T10:31:52.645Z</time></trkpt><trkpt lat="42.2067583" lon="13.7353867"><ele>1052.9999999999998</ele><time>2026-05-02T10:31:53.646Z</time></trkpt><trkpt lat="42.2067217" lon="13.735315"><ele>1053.0</ele><time>2026-05-02T10:31:54.646Z</time></trkpt><trkpt lat="42.2066817" lon="13.735235"><ele>1053.0</ele><time>2026-05-02T10:31:55.645Z</time></trkpt><trkpt lat="42.20665" lon="13.7351517"><ele>1053.0</ele><time>2026-05-02T10:31:56.646Z</time></trkpt><trkpt lat="42.2066217" lon="13.7350633"><ele>1053.0</ele><time>2026-05-02T10:31:57.645Z</time></trkpt><trkpt lat="42.206595" lon="13.7349733"><ele>1052.9999999999998</ele><time>2026-05-02T10:31:58.646Z</time></trkpt><trkpt lat="42.2065633" lon="13.7348833"><ele>1053.0</ele><time>2026-05-02T10:31:59.645Z</time></trkpt><trkpt lat="42.2065467" lon="13.7347767"><ele>1055.4</ele><time>2026-05-02T10:32:00.645Z</time></trkpt><trkpt lat="42.206545" lon="13.7346433"><ele>1057.8</ele><time>2026-05-02T10:32:01.645Z</time></trkpt><trkpt lat="42.2065517" lon="13.7345067"><ele>1060.2</ele><time>2026-05-02T10:32:02.646Z</time></trkpt><trkpt lat="42.2065683" lon="13.7343667"><ele>1062.6</ele><time>2026-05-02T10:32:03.645Z</time></trkpt><trkpt lat="42.2065833" lon="13.734215"><ele>1065.0</ele><time>2026-05-02T10:32:04.645Z</time></trkpt><trkpt lat="42.2066017" lon="13.7340633"><ele>1066.4</ele><time>2026-05-02T10:32:05.646Z</time></trkpt><trkpt lat="42.2066267" lon="13.7339217"><ele>1067.8</ele><time>2026-05-02T10:32:06.645Z</time></trkpt><trkpt lat="42.206645" lon="13.7337717"><ele>1069.2</ele><time>2026-05-02T10:32:07.646Z</time></trkpt><trkpt lat="42.2066467" lon="13.7336267"><ele>1070.6</ele><time>2026-05-02T10:32:08.645Z</time></trkpt><trkpt lat="42.2066333" lon="13.733475"><ele>1072.0</ele><time>2026-05-02T10:32:09.645Z</time></trkpt><trkpt lat="42.2066017" lon="13.7333267"><ele>1073.6</ele><time>2026-05-02T10:32:10.646Z</time></trkpt><trkpt lat="42.20656" lon="13.733195"><ele>1075.2</ele><time>2026-05-02T10:32:11.646Z</time></trkpt><trkpt lat="42.2065133" lon="13.7330633"><ele>1076.8</ele><time>2026-05-02T10:32:12.646Z</time></trkpt><trkpt lat="42.206455" lon="13.7329333"><ele>1078.4</ele><time>2026-05-02T10:32:13.645Z</time></trkpt><trkpt lat="42.206395" lon="13.73281"><ele>1080.0</ele><time>2026-05-02T10:32:14.645Z</time></trkpt><trkpt lat="42.2063333" lon="13.7327083"><ele>1082.5</ele><time>2026-05-02T10:32:15.645Z</time></trkpt><trkpt lat="42.20627" lon="13.7326183"><ele>1085.0</ele><time>2026-05-02T10:32:16.646Z</time></trkpt><trkpt lat="42.20621" lon="13.732545"><ele>1087.5</ele><time>2026-05-02T10:32:17.645Z</time></trkpt><trkpt lat="42.206165" lon="13.7324667"><ele>1090.0</ele><time>2026-05-02T10:32:18.646Z</time></trkpt><trkpt lat="42.2061283" lon="13.732375"><ele>1092.5</ele><time>2026-05-02T10:32:19.645Z</time></trkpt><trkpt lat="42.20611" lon="13.7322567"><ele>1095.0</ele><time>2026-05-02T10:32:20.646Z</time></trkpt><trkpt lat="42.2060883" lon="13.7321133"><ele>1095.0</ele><time>2026-05-02T10:32:21.646Z</time></trkpt><trkpt lat="42.20608" lon="13.7319683"><ele>1095.0</ele><time>2026-05-02T10:32:22.646Z</time></trkpt><trkpt lat="42.206075" lon="13.7318217"><ele>1095.0</ele><time>2026-05-02T10:32:23.645Z</time></trkpt><trkpt lat="42.2060733" lon="13.731665"><ele>1095.0</ele><time>2026-05-02T10:32:24.645Z</time></trkpt><trkpt lat="42.20606" lon="13.7315233"><ele>1095.0</ele><time>2026-05-02T10:32:25.646Z</time></trkpt><trkpt lat="42.2060383" lon="13.731385"><ele>1097.6</ele><time>2026-05-02T10:32:26.645Z</time></trkpt><trkpt lat="42.2059983" lon="13.73125"><ele>1100.2</ele><time>2026-05-02T10:32:27.645Z</time></trkpt><trkpt lat="42.20595" lon="13.7311133"><ele>1102.8</ele><time>2026-05-02T10:32:28.646Z</time></trkpt><trkpt lat="42.2059" lon="13.7309833"><ele>1105.4</ele><time>2026-05-02T10:32:29.646Z</time></trkpt><trkpt lat="42.2058533" lon="13.730875"><ele>1108.0</ele><time>2026-05-02T10:32:30.646Z</time></trkpt><trkpt lat="42.2058017" lon="13.73077"><ele>1109.8333333333333</ele><time>2026-05-02T10:32:31.645Z</time></trkpt><trkpt lat="42.205765" lon="13.730655"><ele>1111.6666666666665</ele><time>2026-05-02T10:32:32.646Z</time></trkpt><trkpt lat="42.2057333" lon="13.7305367"><ele>1113.5</ele><time>2026-05-02T10:32:33.645Z</time></trkpt><trkpt lat="42.2056917" lon="13.7304433"><ele>1115.3333333333333</ele><time>2026-05-02T10:32:34.645Z</time></trkpt><trkpt lat="42.2056483" lon="13.7303517"><ele>1117.1666666666667</ele><time>2026-05-02T10:32:35.646Z</time></trkpt><trkpt lat="42.205605" lon="13.7302583"><ele>1119.0</ele><time>2026-05-02T10:32:36.645Z</time></trkpt><trkpt lat="42.2055733" lon="13.7301667"><ele>1121.1666666666667</ele><time>2026-05-02T10:32:37.646Z</time></trkpt><trkpt lat="42.2055483" lon="13.73006"><ele>1123.3333333333333</ele><time>2026-05-02T10:32:38.646Z</time></trkpt><trkpt lat="42.2055133" lon="13.7299583"><ele>1125.5</ele><time>2026-05-02T10:32:39.645Z</time></trkpt><trkpt lat="42.20547" lon="13.7298833"><ele>1127.6666666666665</ele><time>2026-05-02T10:32:40.645Z</time></trkpt><trkpt lat="42.2054217" lon="13.7297933"><ele>1129.8333333333333</ele><time>2026-05-02T10:32:41.646Z</time></trkpt><trkpt lat="42.2053633" lon="13.7297017"><ele>1132.0</ele><time>2026-05-02T10:32:42.646Z</time></trkpt><trkpt lat="42.2053033" lon="13.7296133"><ele>1132.0</ele><time>2026-05-02T10:32:43.645Z</time></trkpt><trkpt lat="42.2052483" lon="13.72952"><ele>1132.0</ele><time>2026-05-02T10:32:44.646Z</time></trkpt><trkpt lat="42.2051867" lon="13.7294133"><ele>1132.0</ele><time>2026-05-02T10:32:45.645Z</time></trkpt><trkpt lat="42.205125" lon="13.7293083"><ele>1132.0</ele><time>2026-05-02T10:32:46.646Z</time></trkpt><trkpt lat="42.2050617" lon="13.7292117"><ele>1132.0</ele><time>2026-05-02T10:32:47.645Z</time></trkpt><trkpt lat="42.2050033" lon="13.72913"><ele>1131.5</ele><time>2026-05-02T10:32:48.646Z</time></trkpt><trkpt lat="42.204945" lon="13.7290583"><ele>1131.0</ele><time>2026-05-02T10:32:49.646Z</time></trkpt><trkpt lat="42.2048817" lon="13.7290017"><ele>1130.5</ele><time>2026-05-02T10:32:50.645Z</time></trkpt><trkpt lat="42.2048167" lon="13.7289583"><ele>1130.0</ele><time>2026-05-02T10:32:51.646Z</time></trkpt><trkpt lat="42.20474" lon="13.7289333"><ele>1129.5</ele><time>2026-05-02T10:32:52.645Z</time></trkpt><trkpt lat="42.20465" lon="13.7288967"><ele>1129.0</ele><time>2026-05-02T10:32:53.646Z</time></trkpt><trkpt lat="42.204565" lon="13.7288517"><ele>1130.2</ele><time>2026-05-02T10:32:54.645Z</time></trkpt><trkpt lat="42.2044783" lon="13.7288083"><ele>1131.4</ele><time>2026-05-02T10:32:55.646Z</time></trkpt><trkpt lat="42.2044067" lon="13.7287683"><ele>1132.6</ele><time>2026-05-02T10:32:56.646Z</time></trkpt><trkpt lat="42.20434" lon="13.7287383"><ele>1133.8</ele><time>2026-05-02T10:32:57.646Z</time></trkpt><trkpt lat="42.204225" lon="13.7286333"><ele>1135.0</ele><time>2026-05-02T10:32:59.645Z</time></trkpt><trkpt lat="42.20416" lon="13.72858"><ele>1134.3333333333333</ele><time>2026-05-02T10:33:00.646Z</time></trkpt><trkpt lat="42.204085" lon="13.7285217"><ele>1133.6666666666665</ele><time>2026-05-02T10:33:01.645Z</time></trkpt><trkpt lat="42.2040167" lon="13.728445"><ele>1133.0</ele><time>2026-05-02T10:33:02.646Z</time></trkpt><trkpt lat="42.2039367" lon="13.728385"><ele>1132.3333333333333</ele><time>2026-05-02T10:33:03.646Z</time></trkpt><trkpt lat="42.2038583" lon="13.72836"><ele>1131.6666666666667</ele><time>2026-05-02T10:33:04.646Z</time></trkpt><trkpt lat="42.2037717" lon="13.7283667"><ele>1131.0</ele><time>2026-05-02T10:33:05.646Z</time></trkpt><trkpt lat="42.2036733" lon="13.7284033"><ele>1131.0</ele><time>2026-05-02T10:33:06.646Z</time></trkpt><trkpt lat="42.2035567" lon="13.7284533"><ele>1131.0</ele><time>2026-05-02T10:33:07.645Z</time></trkpt><trkpt lat="42.2034383" lon="13.7285033"><ele>1131.0</ele><time>2026-05-02T10:33:08.645Z</time></trkpt><trkpt lat="42.2033283" lon="13.7285467"><ele>1131.0</ele><time>2026-05-02T10:33:09.645Z</time></trkpt><trkpt lat="42.20322" lon="13.7285683"><ele>1133.5</ele><time>2026-05-02T10:33:10.646Z</time></trkpt><trkpt lat="42.2030983" lon="13.7285767"><ele>1136.0</ele><time>2026-05-02T10:33:11.646Z</time></trkpt><trkpt lat="42.20296" lon="13.72857"><ele>1138.5</ele><time>2026-05-02T10:33:12.645Z</time></trkpt><trkpt lat="42.2028217" lon="13.7285783"><ele>1141.0</ele><time>2026-05-02T10:33:13.646Z</time></trkpt><trkpt lat="42.202675" lon="13.7285967"><ele>1141.0</ele><time>2026-05-02T10:33:14.646Z</time></trkpt><trkpt lat="42.2025283" lon="13.7286217"><ele>1141.0</ele><time>2026-05-02T10:33:15.645Z</time></trkpt><trkpt lat="42.2023967" lon="13.728635"><ele>1141.0</ele><time>2026-05-02T10:33:16.645Z</time></trkpt><trkpt lat="42.2022767" lon="13.7286233"><ele>1141.0</ele><time>2026-05-02T10:33:17.645Z</time></trkpt><trkpt lat="42.202165" lon="13.728575"><ele>1140.0</ele><time>2026-05-02T10:33:18.645Z</time></trkpt><trkpt lat="42.202045" lon="13.72852"><ele>1139.0</ele><time>2026-05-02T10:33:19.646Z</time></trkpt><trkpt lat="42.2019233" lon="13.7284883"><ele>1138.0</ele><time>2026-05-02T10:33:20.645Z</time></trkpt><trkpt lat="42.2018083" lon="13.7284817"><ele>1137.0</ele><time>2026-05-02T10:33:21.645Z</time></trkpt><trkpt lat="42.2016883" lon="13.7285"><ele>1137.0</ele><time>2026-05-02T10:33:22.646Z</time></trkpt><trkpt lat="42.20156" lon="13.728525"><ele>1137.0</ele><time>2026-05-02T10:33:23.645Z</time></trkpt><trkpt lat="42.2014367" lon="13.72855"><ele>1137.0</ele><time>2026-05-02T10:33:24.646Z</time></trkpt><trkpt lat="42.2013217" lon="13.7285733"><ele>1137.0</ele><time>2026-05-02T10:33:25.645Z</time></trkpt><trkpt lat="42.20122" lon="13.7285917"><ele>1137.6666666666667</ele><time>2026-05-02T10:33:26.646Z</time></trkpt><trkpt lat="42.2011383" lon="13.7286017"><ele>1138.3333333333333</ele><time>2026-05-02T10:33:27.646Z</time></trkpt><trkpt lat="42.2010617" lon="13.7286033"><ele>1139.0</ele><time>2026-05-02T10:33:28.646Z</time></trkpt><trkpt lat="42.2009833" lon="13.7285967"><ele>1139.6666666666665</ele><time>2026-05-02T10:33:29.645Z</time></trkpt><trkpt lat="42.2009117" lon="13.7285917"><ele>1140.3333333333333</ele><time>2026-05-02T10:33:30.646Z</time></trkpt><trkpt lat="42.2008317" lon="13.7285883"><ele>1141.0</ele><time>2026-05-02T10:33:31.646Z</time></trkpt><trkpt lat="42.200755" lon="13.7285833"><ele>1141.0</ele><time>2026-05-02T10:33:32.645Z</time></trkpt><trkpt lat="42.200685" lon="13.7285633"><ele>1141.0</ele><time>2026-05-02T10:33:33.645Z</time></trkpt><trkpt lat="42.2005933" lon="13.7284917"><ele>1141.0</ele><time>2026-05-02T10:33:35.645Z</time></trkpt><trkpt lat="42.2004833" lon="13.7284083"><ele>1141.0</ele><time>2026-05-02T10:33:37.645Z</time></trkpt><trkpt lat="42.2004267" lon="13.7283517"><ele>1141.0</ele><time>2026-05-02T10:33:38.646Z</time></trkpt><trkpt lat="42.20037" lon="13.7282733"><ele>1137.8333333333333</ele><time>2026-05-02T10:33:39.645Z</time></trkpt><trkpt lat="42.2003267" lon="13.728175"><ele>1134.6666666666665</ele><time>2026-05-02T10:33:40.646Z</time></trkpt><trkpt lat="42.200285" lon="13.7280733"><ele>1131.5</ele><time>2026-05-02T10:33:41.646Z</time></trkpt><trkpt lat="42.2002433" lon="13.7279717"><ele>1128.3333333333333</ele><time>2026-05-02T10:33:42.645Z</time></trkpt><trkpt lat="42.2001917" lon="13.7278817"><ele>1125.1666666666667</ele><time>2026-05-02T10:33:43.645Z</time></trkpt><trkpt lat="42.20013" lon="13.7278033"><ele>1122.0</ele><time>2026-05-02T10:33:44.646Z</time></trkpt><trkpt lat="42.200055" lon="13.72773"><ele>1120.3333333333333</ele><time>2026-05-02T10:33:45.645Z</time></trkpt><trkpt lat="42.19999" lon="13.7276583"><ele>1118.6666666666667</ele><time>2026-05-02T10:33:46.645Z</time></trkpt><trkpt lat="42.1999133" lon="13.727595"><ele>1117.0</ele><time>2026-05-02T10:33:47.645Z</time></trkpt><trkpt lat="42.19983" lon="13.7275383"><ele>1115.3333333333335</ele><time>2026-05-02T10:33:48.645Z</time></trkpt><trkpt lat="42.1997517" lon="13.7274917"><ele>1113.6666666666667</ele><time>2026-05-02T10:33:49.645Z</time></trkpt><trkpt lat="42.1996833" lon="13.727445"><ele>1112.0</ele><time>2026-05-02T10:33:50.646Z</time></trkpt><trkpt lat="42.1996217" lon="13.72739"><ele>1111.3333333333335</ele><time>2026-05-02T10:33:51.645Z</time></trkpt><trkpt lat="42.19958" lon="13.7273217"><ele>1110.6666666666667</ele><time>2026-05-02T10:33:52.646Z</time></trkpt><trkpt lat="42.1995517" lon="13.7272317"><ele>1110.0</ele><time>2026-05-02T10:33:53.646Z</time></trkpt><trkpt lat="42.1995117" lon="13.7271583"><ele>1109.3333333333333</ele><time>2026-05-02T10:33:54.645Z</time></trkpt><trkpt lat="42.199445" lon="13.7270983"><ele>1108.6666666666665</ele><time>2026-05-02T10:33:55.646Z</time></trkpt><trkpt lat="42.1993583" lon="13.72705"><ele>1108.0</ele><time>2026-05-02T10:33:56.645Z</time></trkpt><trkpt lat="42.199265" lon="13.727015"><ele>1108.0</ele><time>2026-05-02T10:33:57.646Z</time></trkpt><trkpt lat="42.1991783" lon="13.7269867"><ele>1108.0</ele><time>2026-05-02T10:33:58.645Z</time></trkpt><trkpt lat="42.1990983" lon="13.7269783"><ele>1108.0</ele><time>2026-05-02T10:33:59.646Z</time></trkpt><trkpt lat="42.1990317" lon="13.72699"><ele>1108.0</ele><time>2026-05-02T10:34:00.645Z</time></trkpt><trkpt lat="42.19892" lon="13.7270133"><ele>1108.0</ele><time>2026-05-02T10:34:02.646Z</time></trkpt><trkpt lat="42.1987983" lon="13.7270067"><ele>1107.6666666666665</ele><time>2026-05-02T10:34:04.645Z</time></trkpt><trkpt lat="42.19873" lon="13.7269767"><ele>1107.3333333333333</ele><time>2026-05-02T10:34:05.646Z</time></trkpt><trkpt lat="42.198655" lon="13.7269217"><ele>1107.0</ele><time>2026-05-02T10:34:06.645Z</time></trkpt><trkpt lat="42.1985767" lon="13.7268567"><ele>1106.6666666666667</ele><time>2026-05-02T10:34:07.645Z</time></trkpt><trkpt lat="42.19849" lon="13.7267983"><ele>1106.3333333333335</ele><time>2026-05-02T10:34:08.645Z</time></trkpt><trkpt lat="42.198415" lon="13.72675"><ele>1106.0</ele><time>2026-05-02T10:34:09.645Z</time></trkpt><trkpt lat="42.1983317" lon="13.7267033"><ele>1104.1666666666667</ele><time>2026-05-02T10:34:10.645Z</time></trkpt><trkpt lat="42.19826" lon="13.7266583"><ele>1102.3333333333335</ele><time>2026-05-02T10:34:11.646Z</time></trkpt><trkpt lat="42.1981933" lon="13.72662"><ele>1100.5</ele><time>2026-05-02T10:34:12.646Z</time></trkpt><trkpt lat="42.1981283" lon="13.726585"><ele>1098.6666666666667</ele><time>2026-05-02T10:34:13.646Z</time></trkpt><trkpt lat="42.198035" lon="13.7265333"><ele>1096.8333333333333</ele><time>2026-05-02T10:34:15.646Z</time></trkpt><trkpt lat="42.197985" lon="13.7264417"><ele>1095.0</ele><time>2026-05-02T10:34:17.646Z</time></trkpt><trkpt lat="42.1979017" lon="13.7263567"><ele>1093.8</ele><time>2026-05-02T10:34:19.645Z</time></trkpt><trkpt lat="42.19778" lon="13.726375"><ele>1092.6</ele><time>2026-05-02T10:34:21.645Z</time></trkpt><trkpt lat="42.197725" lon="13.726425"><ele>1091.4</ele><time>2026-05-02T10:34:22.646Z</time></trkpt><trkpt lat="42.19768" lon="13.72649"><ele>1090.2</ele><time>2026-05-02T10:34:23.645Z</time></trkpt><trkpt lat="42.1976283" lon="13.7266417"><ele>1089.0</ele><time>2026-05-02T10:34:25.645Z</time></trkpt><trkpt lat="42.19759" lon="13.726785"><ele>1089.6666666666667</ele><time>2026-05-02T10:34:27.645Z</time></trkpt><trkpt lat="42.1974933" lon="13.7268983"><ele>1090.3333333333333</ele><time>2026-05-02T10:34:29.646Z</time></trkpt><trkpt lat="42.19743" lon="13.72695"><ele>1091.0</ele><time>2026-05-02T10:34:30.645Z</time></trkpt><trkpt lat="42.1973583" lon="13.7269933"><ele>1091.6666666666665</ele><time>2026-05-02T10:34:31.645Z</time></trkpt><trkpt lat="42.1972867" lon="13.7270183"><ele>1092.3333333333333</ele><time>2026-05-02T10:34:32.645Z</time></trkpt><trkpt lat="42.1972067" lon="13.7270383"><ele>1093.0</ele><time>2026-05-02T10:34:33.646Z</time></trkpt><trkpt lat="42.1971233" lon="13.7270567"><ele>1091.3333333333333</ele><time>2026-05-02T10:34:34.645Z</time></trkpt><trkpt lat="42.197035" lon="13.7270833"><ele>1089.6666666666665</ele><time>2026-05-02T10:34:35.646Z</time></trkpt><trkpt lat="42.1969483" lon="13.7271167"><ele>1088.0</ele><time>2026-05-02T10:34:36.646Z</time></trkpt><trkpt lat="42.1968617" lon="13.7271567"><ele>1086.3333333333333</ele><time>2026-05-02T10:34:37.645Z</time></trkpt><trkpt lat="42.1967883" lon="13.7271883"><ele>1084.6666666666667</ele><time>2026-05-02T10:34:38.645Z</time></trkpt><trkpt lat="42.1967117" lon="13.7272117"><ele>1083.0</ele><time>2026-05-02T10:34:39.644Z</time></trkpt><trkpt lat="42.1966483" lon="13.727235"><ele>1083.0</ele><time>2026-05-02T10:34:40.645Z</time></trkpt><trkpt lat="42.196585" lon="13.7272667"><ele>1083.0</ele><time>2026-05-02T10:34:41.645Z</time></trkpt><trkpt lat="42.1964817" lon="13.72732"><ele>1083.0</ele><time>2026-05-02T10:34:43.645Z</time></trkpt><trkpt lat="42.19641" lon="13.72728"><ele>1083.0</ele><time>2026-05-02T10:34:46.644Z</time></trkpt><trkpt lat="42.1963983" lon="13.7271617"><ele>1083.0</ele><time>2026-05-02T10:34:48.645Z</time></trkpt><trkpt lat="42.1963983" lon="13.7270617"><ele>1083.0</ele><time>2026-05-02T10:34:49.645Z</time></trkpt><trkpt lat="42.1964083" lon="13.7269617"><ele>1084.0</ele><time>2026-05-02T10:34:50.644Z</time></trkpt><trkpt lat="42.1964283" lon="13.726795"><ele>1085.0</ele><time>2026-05-02T10:34:52.644Z</time></trkpt><trkpt lat="42.1964483" lon="13.7266967"><ele>1086.0</ele><time>2026-05-02T10:34:53.645Z</time></trkpt><trkpt lat="42.1964783" lon="13.7265817"><ele>1087.0</ele><time>2026-05-02T10:34:54.645Z</time></trkpt><trkpt lat="42.19651" lon="13.7264633"><ele>1088.0</ele><time>2026-05-02T10:34:55.644Z</time></trkpt><trkpt lat="42.1965283" lon="13.7263433"><ele>1088.0</ele><time>2026-05-02T10:34:56.644Z</time></trkpt><trkpt lat="42.1965367" lon="13.726235"><ele>1088.0</ele><time>2026-05-02T10:34:57.644Z</time></trkpt><trkpt lat="42.1965583" lon="13.7261233"><ele>1088.0</ele><time>2026-05-02T10:34:58.645Z</time></trkpt><trkpt lat="42.196585" lon="13.7260267"><ele>1088.0</ele><time>2026-05-02T10:34:59.645Z</time></trkpt><trkpt lat="42.1966233" lon="13.7259333"><ele>1088.0</ele><time>2026-05-02T10:35:00.644Z</time></trkpt><trkpt lat="42.1966717" lon="13.72586"><ele>1088.0</ele><time>2026-05-02T10:35:01.644Z</time></trkpt><trkpt lat="42.19673" lon="13.7257917"><ele>1088.8333333333335</ele><time>2026-05-02T10:35:02.645Z</time></trkpt><trkpt lat="42.1968017" lon="13.725755"><ele>1089.6666666666667</ele><time>2026-05-02T10:35:03.644Z</time></trkpt><trkpt lat="42.196865" lon="13.725725"><ele>1090.5</ele><time>2026-05-02T10:35:04.645Z</time></trkpt><trkpt lat="42.1969233" lon="13.72568"><ele>1091.3333333333333</ele><time>2026-05-02T10:35:05.645Z</time></trkpt><trkpt lat="42.1969733" lon="13.72561"><ele>1092.1666666666665</ele><time>2026-05-02T10:35:06.644Z</time></trkpt><trkpt lat="42.1970167" lon="13.725515"><ele>1093.0</ele><time>2026-05-02T10:35:07.644Z</time></trkpt><trkpt lat="42.1970433" lon="13.7254033"><ele>1093.0</ele><time>2026-05-02T10:35:08.645Z</time></trkpt><trkpt lat="42.1970667" lon="13.72529"><ele>1093.0</ele><time>2026-05-02T10:35:09.645Z</time></trkpt><trkpt lat="42.1970883" lon="13.72519"><ele>1093.0</ele><time>2026-05-02T10:35:10.644Z</time></trkpt><trkpt lat="42.197105" lon="13.7251017"><ele>1093.0</ele><time>2026-05-02T10:35:11.644Z</time></trkpt><trkpt lat="42.1971283" lon="13.7250117"><ele>1093.0</ele><time>2026-05-02T10:35:12.645Z</time></trkpt><trkpt lat="42.1971617" lon="13.724915"><ele>1093.0</ele><time>2026-05-02T10:35:13.644Z</time></trkpt><trkpt lat="42.1971917" lon="13.724805"><ele>1093.2</ele><time>2026-05-02T10:35:14.644Z</time></trkpt><trkpt lat="42.1972133" lon="13.72469"><ele>1093.4</ele><time>2026-05-02T10:35:15.644Z</time></trkpt><trkpt lat="42.197225" lon="13.72456"><ele>1093.6000000000001</ele><time>2026-05-02T10:35:16.645Z</time></trkpt><trkpt lat="42.1972317" lon="13.724435"><ele>1093.8</ele><time>2026-05-02T10:35:17.644Z</time></trkpt><trkpt lat="42.1972267" lon="13.7243067"><ele>1094.0</ele><time>2026-05-02T10:35:18.644Z</time></trkpt><trkpt lat="42.1972083" lon="13.7241867"><ele>1095.0</ele><time>2026-05-02T10:35:19.645Z</time></trkpt><trkpt lat="42.197185" lon="13.7240667"><ele>1096.0</ele><time>2026-05-02T10:35:20.644Z</time></trkpt><trkpt lat="42.1971717" lon="13.7239567"><ele>1097.0</ele><time>2026-05-02T10:35:21.645Z</time></trkpt><trkpt lat="42.1971583" lon="13.7238433"><ele>1098.0</ele><time>2026-05-02T10:35:22.645Z</time></trkpt><trkpt lat="42.1971633" lon="13.7237217"><ele>1099.0</ele><time>2026-05-02T10:35:23.644Z</time></trkpt><trkpt lat="42.1971833" lon="13.7235933"><ele>1100.0</ele><time>2026-05-02T10:35:24.645Z</time></trkpt><trkpt lat="42.1971917" lon="13.7234733"><ele>1100.0</ele><time>2026-05-02T10:35:25.645Z</time></trkpt><trkpt lat="42.197205" lon="13.7233667"><ele>1100.0</ele><time>2026-05-02T10:35:26.645Z</time></trkpt><trkpt lat="42.1972233" lon="13.723265"><ele>1100.0</ele><time>2026-05-02T10:35:27.645Z</time></trkpt><trkpt lat="42.19724" lon="13.7231717"><ele>1100.0</ele><time>2026-05-02T10:35:28.645Z</time></trkpt><trkpt lat="42.197265" lon="13.723085"><ele>1100.0</ele><time>2026-05-02T10:35:29.644Z</time></trkpt><trkpt lat="42.1973017" lon="13.7229917"><ele>1100.0</ele><time>2026-05-02T10:35:30.644Z</time></trkpt><trkpt lat="42.1973433" lon="13.722905"><ele>1099.5714285714287</ele><time>2026-05-02T10:35:31.645Z</time></trkpt><trkpt lat="42.1973883" lon="13.7228217"><ele>1099.142857142857</ele><time>2026-05-02T10:35:32.645Z</time></trkpt><trkpt lat="42.1974333" lon="13.72274"><ele>1098.7142857142858</ele><time>2026-05-02T10:35:33.644Z</time></trkpt><trkpt lat="42.1974767" lon="13.7226633"><ele>1098.2857142857142</ele><time>2026-05-02T10:35:34.645Z</time></trkpt><trkpt lat="42.197515" lon="13.7225933"><ele>1097.857142857143</ele><time>2026-05-02T10:35:35.644Z</time></trkpt><trkpt lat="42.19755" lon="13.7225183"><ele>1097.4285714285716</ele><time>2026-05-02T10:35:36.645Z</time></trkpt><trkpt lat="42.197585" lon="13.7224433"><ele>1097.0</ele><time>2026-05-02T10:35:37.645Z</time></trkpt><trkpt lat="42.197645" lon="13.7222967"><ele>1096.2</ele><time>2026-05-02T10:35:39.645Z</time></trkpt><trkpt lat="42.1977083" lon="13.722165"><ele>1095.4</ele><time>2026-05-02T10:35:41.645Z</time></trkpt><trkpt lat="42.19777" lon="13.7220383"><ele>1094.6</ele><time>2026-05-02T10:35:43.645Z</time></trkpt><trkpt lat="42.1978467" lon="13.7219167"><ele>1093.8</ele><time>2026-05-02T10:35:45.645Z</time></trkpt><trkpt lat="42.19789" lon="13.72185"><ele>1093.0</ele><time>2026-05-02T10:35:46.644Z</time></trkpt><trkpt lat="42.1979417" lon="13.7217933"><ele>1092.8333333333333</ele><time>2026-05-02T10:35:47.644Z</time></trkpt><trkpt lat="42.1979933" lon="13.7217433"><ele>1092.6666666666665</ele><time>2026-05-02T10:35:48.644Z</time></trkpt><trkpt lat="42.1980983" lon="13.7216417"><ele>1092.5</ele><time>2026-05-02T10:35:50.645Z</time></trkpt><trkpt lat="42.19816" lon="13.72158"><ele>1092.3333333333333</ele><time>2026-05-02T10:35:51.644Z</time></trkpt><trkpt lat="42.1982167" lon="13.7215167"><ele>1092.1666666666667</ele><time>2026-05-02T10:35:52.644Z</time></trkpt><trkpt lat="42.1982717" lon="13.7214483"><ele>1092.0</ele><time>2026-05-02T10:35:53.645Z</time></trkpt><trkpt lat="42.1983233" lon="13.7213767"><ele>1091.4285714285713</ele><time>2026-05-02T10:35:54.644Z</time></trkpt><trkpt lat="42.198375" lon="13.72131"><ele>1090.857142857143</ele><time>2026-05-02T10:35:55.644Z</time></trkpt><trkpt lat="42.198425" lon="13.7212517"><ele>1090.2857142857142</ele><time>2026-05-02T10:35:56.645Z</time></trkpt><trkpt lat="42.1984767" lon="13.7211867"><ele>1089.7142857142858</ele><time>2026-05-02T10:35:57.644Z</time></trkpt><trkpt lat="42.19854" lon="13.7211233"><ele>1089.142857142857</ele><time>2026-05-02T10:35:58.644Z</time></trkpt><trkpt lat="42.1986017" lon="13.7210617"><ele>1088.5714285714284</ele><time>2026-05-02T10:35:59.645Z</time></trkpt><trkpt lat="42.19867" lon="13.7210033"><ele>1088.0</ele><time>2026-05-02T10:36:00.644Z</time></trkpt><trkpt lat="42.1987433" lon="13.7209433"><ele>1086.5</ele><time>2026-05-02T10:36:01.645Z</time></trkpt><trkpt lat="42.1988133" lon="13.720895"><ele>1085.0</ele><time>2026-05-02T10:36:02.644Z</time></trkpt><trkpt lat="42.198875" lon="13.7208467"><ele>1083.5</ele><time>2026-05-02T10:36:03.644Z</time></trkpt><trkpt lat="42.1989417" lon="13.72079"><ele>1082.0</ele><time>2026-05-02T10:36:04.644Z</time></trkpt><trkpt lat="42.1989983" lon="13.7207383"><ele>1080.5</ele><time>2026-05-02T10:36:05.644Z</time></trkpt><trkpt lat="42.1990683" lon="13.72066"><ele>1079.0</ele><time>2026-05-02T10:36:06.644Z</time></trkpt><trkpt lat="42.199135" lon="13.7205733"><ele>1077.1666666666667</ele><time>2026-05-02T10:36:07.644Z</time></trkpt><trkpt lat="42.1991933" lon="13.7204933"><ele>1075.3333333333335</ele><time>2026-05-02T10:36:08.645Z</time></trkpt><trkpt lat="42.1992483" lon="13.7204167"><ele>1073.5</ele><time>2026-05-02T10:36:09.645Z</time></trkpt><trkpt lat="42.1992967" lon="13.720345"><ele>1071.6666666666667</ele><time>2026-05-02T10:36:10.645Z</time></trkpt><trkpt lat="42.19934" lon="13.72027"><ele>1069.8333333333333</ele><time>2026-05-02T10:36:11.644Z</time></trkpt><trkpt lat="42.19939" lon="13.7201067"><ele>1068.0</ele><time>2026-05-02T10:36:13.644Z</time></trkpt><trkpt lat="42.199405" lon="13.7200083"><ele>1067.3333333333333</ele><time>2026-05-02T10:36:14.644Z</time></trkpt><trkpt lat="42.1994183" lon="13.7199067"><ele>1066.6666666666667</ele><time>2026-05-02T10:36:15.645Z</time></trkpt><trkpt lat="42.19944" lon="13.7197983"><ele>1066.0</ele><time>2026-05-02T10:36:16.644Z</time></trkpt><trkpt lat="42.19948" lon="13.7196883"><ele>1065.3333333333335</ele><time>2026-05-02T10:36:17.645Z</time></trkpt><trkpt lat="42.1995233" lon="13.7195867"><ele>1064.6666666666667</ele><time>2026-05-02T10:36:18.645Z</time></trkpt><trkpt lat="42.199565" lon="13.7194983"><ele>1064.0</ele><time>2026-05-02T10:36:19.645Z</time></trkpt><trkpt lat="42.1995983" lon="13.7194017"><ele>1065.0</ele><time>2026-05-02T10:36:20.644Z</time></trkpt><trkpt lat="42.1996367" lon="13.7192817"><ele>1066.0</ele><time>2026-05-02T10:36:21.644Z</time></trkpt><trkpt lat="42.199675" lon="13.71915"><ele>1067.0</ele><time>2026-05-02T10:36:22.644Z</time></trkpt><trkpt lat="42.199715" lon="13.7190333"><ele>1068.0</ele><time>2026-05-02T10:36:23.645Z</time></trkpt><trkpt lat="42.1997533" lon="13.71894"><ele>1069.0</ele><time>2026-05-02T10:36:24.645Z</time></trkpt><trkpt lat="42.1997967" lon="13.718855"><ele>1067.5714285714287</ele><time>2026-05-02T10:36:25.644Z</time></trkpt><trkpt lat="42.1998533" lon="13.7187683"><ele>1066.1428571428573</ele><time>2026-05-02T10:36:26.645Z</time></trkpt><trkpt lat="42.199905" lon="13.7186933"><ele>1064.7142857142858</ele><time>2026-05-02T10:36:27.645Z</time></trkpt><trkpt lat="42.1999483" lon="13.7186217"><ele>1063.2857142857142</ele><time>2026-05-02T10:36:28.644Z</time></trkpt><trkpt lat="42.1999933" lon="13.7185567"><ele>1061.8571428571427</ele><time>2026-05-02T10:36:29.645Z</time></trkpt><trkpt lat="42.2000383" lon="13.7184883"><ele>1060.4285714285713</ele><time>2026-05-02T10:36:30.644Z</time></trkpt><trkpt lat="42.2000767" lon="13.7184033"><ele>1059.0</ele><time>2026-05-02T10:36:31.645Z</time></trkpt><trkpt lat="42.2001233" lon="13.7183017"><ele>1059.0</ele><time>2026-05-02T10:36:32.644Z</time></trkpt><trkpt lat="42.2001733" lon="13.7182117"><ele>1059.0</ele><time>2026-05-02T10:36:33.645Z</time></trkpt><trkpt lat="42.20022" lon="13.7181333"><ele>1059.0</ele><time>2026-05-02T10:36:34.645Z</time></trkpt><trkpt lat="42.2002533" lon="13.7180583"><ele>1059.0</ele><time>2026-05-02T10:36:35.644Z</time></trkpt><trkpt lat="42.2002833" lon="13.7179117"><ele>1059.0</ele><time>2026-05-02T10:36:37.645Z</time></trkpt><trkpt lat="42.20031" lon="13.7177733"><ele>1059.0</ele><time>2026-05-02T10:36:39.645Z</time></trkpt><trkpt lat="42.200315" lon="13.7176333"><ele>1058.8333333333333</ele><time>2026-05-02T10:36:41.645Z</time></trkpt><trkpt lat="42.2002917" lon="13.7175517"><ele>1058.6666666666667</ele><time>2026-05-02T10:36:42.645Z</time></trkpt><trkpt lat="42.200255" lon="13.717455"><ele>1058.5</ele><time>2026-05-02T10:36:43.645Z</time></trkpt><trkpt lat="42.2002033" lon="13.7173533"><ele>1058.3333333333335</ele><time>2026-05-02T10:36:44.645Z</time></trkpt><trkpt lat="42.2001567" lon="13.7172383"><ele>1058.1666666666667</ele><time>2026-05-02T10:36:45.645Z</time></trkpt><trkpt lat="42.2001067" lon="13.7171167"><ele>1058.0</ele><time>2026-05-02T10:36:46.645Z</time></trkpt><trkpt lat="42.2000717" lon="13.7169817"><ele>1058.2</ele><time>2026-05-02T10:36:47.645Z</time></trkpt><trkpt lat="42.200045" lon="13.7168283"><ele>1058.4</ele><time>2026-05-02T10:36:48.645Z</time></trkpt><trkpt lat="42.2000217" lon="13.716685"><ele>1058.6000000000001</ele><time>2026-05-02T10:36:49.645Z</time></trkpt><trkpt lat="42.1999917" lon="13.716555"><ele>1058.8</ele><time>2026-05-02T10:36:50.645Z</time></trkpt><trkpt lat="42.1999683" lon="13.7164417"><ele>1059.0</ele><time>2026-05-02T10:36:51.644Z</time></trkpt><trkpt lat="42.1999583" lon="13.71635"><ele>1059.0</ele><time>2026-05-02T10:36:52.645Z</time></trkpt><trkpt lat="42.1999567" lon="13.7162517"><ele>1059.0</ele><time>2026-05-02T10:36:53.644Z</time></trkpt><trkpt lat="42.1999817" lon="13.71613"><ele>1059.0</ele><time>2026-05-02T10:36:54.645Z</time></trkpt><trkpt lat="42.2000267" lon="13.7159933"><ele>1059.0</ele><time>2026-05-02T10:36:55.645Z</time></trkpt><trkpt lat="42.2001" lon="13.7158583"><ele>1059.0</ele><time>2026-05-02T10:36:56.644Z</time></trkpt><trkpt lat="42.2001767" lon="13.7157283"><ele>1059.2</ele><time>2026-05-02T10:36:57.644Z</time></trkpt><trkpt lat="42.200225" lon="13.7156017"><ele>1059.4</ele><time>2026-05-02T10:36:58.644Z</time></trkpt><trkpt lat="42.2002533" lon="13.7154783"><ele>1059.6</ele><time>2026-05-02T10:36:59.645Z</time></trkpt><trkpt lat="42.2002817" lon="13.7153633"><ele>1059.8</ele><time>2026-05-02T10:37:00.645Z</time></trkpt><trkpt lat="42.2002983" lon="13.7152383"><ele>1060.0</ele><time>2026-05-02T10:37:01.645Z</time></trkpt><trkpt lat="42.2003083" lon="13.71512"><ele>1060.1666666666665</ele><time>2026-05-02T10:37:02.645Z</time></trkpt><trkpt lat="42.200305" lon="13.7150133"><ele>1060.3333333333333</ele><time>2026-05-02T10:37:03.644Z</time></trkpt><trkpt lat="42.2003167" lon="13.71492"><ele>1060.5</ele><time>2026-05-02T10:37:04.644Z</time></trkpt><trkpt lat="42.2003483" lon="13.7148217"><ele>1060.6666666666667</ele><time>2026-05-02T10:37:05.645Z</time></trkpt><trkpt lat="42.20039" lon="13.7147283"><ele>1060.8333333333335</ele><time>2026-05-02T10:37:06.645Z</time></trkpt><trkpt lat="42.2004233" lon="13.7146333"><ele>1061.0</ele><time>2026-05-02T10:37:07.644Z</time></trkpt><trkpt lat="42.200455" lon="13.714525"><ele>1061.0</ele><time>2026-05-02T10:37:08.645Z</time></trkpt><trkpt lat="42.200475" lon="13.7144133"><ele>1061.0</ele><time>2026-05-02T10:37:09.645Z</time></trkpt><trkpt lat="42.2004917" lon="13.7142933"><ele>1061.0</ele><time>2026-05-02T10:37:10.644Z</time></trkpt><trkpt lat="42.200505" lon="13.7141717"><ele>1061.0</ele><time>2026-05-02T10:37:11.644Z</time></trkpt><trkpt lat="42.2005233" lon="13.71405"><ele>1061.0</ele><time>2026-05-02T10:37:12.644Z</time></trkpt><trkpt lat="42.2005333" lon="13.7139283"><ele>1061.0</ele><time>2026-05-02T10:37:13.644Z</time></trkpt><trkpt lat="42.200545" lon="13.713805"><ele>1060.8</ele><time>2026-05-02T10:37:14.645Z</time></trkpt><trkpt lat="42.20056" lon="13.7136783"><ele>1060.6</ele><time>2026-05-02T10:37:15.644Z</time></trkpt><trkpt lat="42.20058" lon="13.71354"><ele>1060.4</ele><time>2026-05-02T10:37:16.644Z</time></trkpt><trkpt lat="42.200605" lon="13.71341"><ele>1060.2</ele><time>2026-05-02T10:37:17.645Z</time></trkpt><trkpt lat="42.20063" lon="13.7132783"><ele>1060.0</ele><time>2026-05-02T10:37:18.644Z</time></trkpt><trkpt lat="42.20066" lon="13.7131567"><ele>1055.8</ele><time>2026-05-02T10:37:19.644Z</time></trkpt><trkpt lat="42.200695" lon="13.713035"><ele>1051.6</ele><time>2026-05-02T10:37:20.645Z</time></trkpt><trkpt lat="42.2007417" lon="13.7129083"><ele>1047.4</ele><time>2026-05-02T10:37:21.645Z</time></trkpt><trkpt lat="42.200795" lon="13.7127833"><ele>1043.2</ele><time>2026-05-02T10:37:22.644Z</time></trkpt><trkpt lat="42.2008483" lon="13.7126617"><ele>1039.0</ele><time>2026-05-02T10:37:23.645Z</time></trkpt><trkpt lat="42.2008983" lon="13.7125367"><ele>1038.4</ele><time>2026-05-02T10:37:24.645Z</time></trkpt><trkpt lat="42.2009417" lon="13.7124167"><ele>1037.8000000000002</ele><time>2026-05-02T10:37:25.645Z</time></trkpt><trkpt lat="42.2009767" lon="13.7123"><ele>1037.1999999999998</ele><time>2026-05-02T10:37:26.645Z</time></trkpt><trkpt lat="42.2010117" lon="13.7121767"><ele>1036.6</ele><time>2026-05-02T10:37:27.644Z</time></trkpt><trkpt lat="42.20104" lon="13.712055"><ele>1036.0</ele><time>2026-05-02T10:37:28.644Z</time></trkpt><trkpt lat="42.20107" lon="13.7119333"><ele>1035.5</ele><time>2026-05-02T10:37:29.645Z</time></trkpt><trkpt lat="42.2010933" lon="13.7118267"><ele>1035.0</ele><time>2026-05-02T10:37:30.644Z</time></trkpt><trkpt lat="42.201115" lon="13.71173"><ele>1034.5</ele><time>2026-05-02T10:37:31.644Z</time></trkpt><trkpt lat="42.2011317" lon="13.7116283"><ele>1034.0</ele><time>2026-05-02T10:37:32.645Z</time></trkpt><trkpt lat="42.2011433" lon="13.71152"><ele>1033.5</ele><time>2026-05-02T10:37:33.644Z</time></trkpt><trkpt lat="42.201145" lon="13.71141"><ele>1033.0</ele><time>2026-05-02T10:37:34.644Z</time></trkpt><trkpt lat="42.2011367" lon="13.7113017"><ele>1033.0</ele><time>2026-05-02T10:37:35.645Z</time></trkpt><trkpt lat="42.2011167" lon="13.7111933"><ele>1033.0</ele><time>2026-05-02T10:37:36.645Z</time></trkpt><trkpt lat="42.2011017" lon="13.71109"><ele>1033.0</ele><time>2026-05-02T10:37:37.644Z</time></trkpt><trkpt lat="42.2010883" lon="13.7109817"><ele>1033.0</ele><time>2026-05-02T10:37:38.644Z</time></trkpt><trkpt lat="42.2010767" lon="13.7108783"><ele>1033.0</ele><time>2026-05-02T10:37:39.645Z</time></trkpt><trkpt lat="42.201065" lon="13.71078"><ele>1033.0</ele><time>2026-05-02T10:37:40.645Z</time></trkpt><trkpt lat="42.20106" lon="13.7106767"><ele>1032.3333333333333</ele><time>2026-05-02T10:37:41.645Z</time></trkpt><trkpt lat="42.2010683" lon="13.7105717"><ele>1031.6666666666665</ele><time>2026-05-02T10:37:42.644Z</time></trkpt><trkpt lat="42.2010833" lon="13.71046"><ele>1031.0</ele><time>2026-05-02T10:37:43.644Z</time></trkpt><trkpt lat="42.2011" lon="13.710345"><ele>1030.3333333333333</ele><time>2026-05-02T10:37:44.645Z</time></trkpt><trkpt lat="42.2011183" lon="13.7102333"><ele>1029.6666666666667</ele><time>2026-05-02T10:37:45.644Z</time></trkpt><trkpt lat="42.2011367" lon="13.71013"><ele>1029.0</ele><time>2026-05-02T10:37:46.645Z</time></trkpt><trkpt lat="42.20116" lon="13.7100367"><ele>1028.8333333333333</ele><time>2026-05-02T10:37:47.644Z</time></trkpt><trkpt lat="42.2011783" lon="13.7099383"><ele>1028.6666666666667</ele><time>2026-05-02T10:37:48.644Z</time></trkpt><trkpt lat="42.2011983" lon="13.709835"><ele>1028.5</ele><time>2026-05-02T10:37:49.644Z</time></trkpt><trkpt lat="42.2012183" lon="13.70973"><ele>1028.3333333333335</ele><time>2026-05-02T10:37:50.644Z</time></trkpt><trkpt lat="42.20124" lon="13.709615"><ele>1028.1666666666667</ele><time>2026-05-02T10:37:51.644Z</time></trkpt><trkpt lat="42.2012683" lon="13.7094983"><ele>1028.0</ele><time>2026-05-02T10:37:52.645Z</time></trkpt><trkpt lat="42.2012933" lon="13.70938"><ele>1028.3333333333335</ele><time>2026-05-02T10:37:53.644Z</time></trkpt><trkpt lat="42.2013117" lon="13.7092617"><ele>1028.6666666666667</ele><time>2026-05-02T10:37:54.645Z</time></trkpt><trkpt lat="42.201325" lon="13.7091483"><ele>1029.0</ele><time>2026-05-02T10:37:55.645Z</time></trkpt><trkpt lat="42.2013417" lon="13.7090383"><ele>1029.3333333333333</ele><time>2026-05-02T10:37:56.645Z</time></trkpt><trkpt lat="42.2013583" lon="13.70894"><ele>1029.6666666666665</ele><time>2026-05-02T10:37:57.644Z</time></trkpt><trkpt lat="42.2013783" lon="13.7088433"><ele>1030.0</ele><time>2026-05-02T10:37:58.644Z</time></trkpt><trkpt lat="42.20141" lon="13.708745"><ele>1030.0</ele><time>2026-05-02T10:37:59.644Z</time></trkpt><trkpt lat="42.20145" lon="13.7086383"><ele>1030.0</ele><time>2026-05-02T10:38:00.644Z</time></trkpt><trkpt lat="42.2014783" lon="13.7085283"><ele>1030.0</ele><time>2026-05-02T10:38:01.644Z</time></trkpt><trkpt lat="42.20151" lon="13.7084217"><ele>1030.0</ele><time>2026-05-02T10:38:02.643Z</time></trkpt><trkpt lat="42.201535" lon="13.70832"><ele>1030.0</ele><time>2026-05-02T10:38:03.643Z</time></trkpt><trkpt lat="42.2015467" lon="13.708225"><ele>1030.0</ele><time>2026-05-02T10:38:04.643Z</time></trkpt><trkpt lat="42.201555" lon="13.70812"><ele>1026.5714285714287</ele><time>2026-05-02T10:38:05.644Z</time></trkpt><trkpt lat="42.2015667" lon="13.7080183"><ele>1023.1428571428571</ele><time>2026-05-02T10:38:06.643Z</time></trkpt><trkpt lat="42.20158" lon="13.70792"><ele>1019.7142857142858</ele><time>2026-05-02T10:38:07.644Z</time></trkpt><trkpt lat="42.2015967" lon="13.7078233"><ele>1016.2857142857143</ele><time>2026-05-02T10:38:08.644Z</time></trkpt><trkpt lat="42.2016133" lon="13.7077333"><ele>1012.8571428571429</ele><time>2026-05-02T10:38:09.644Z</time></trkpt><trkpt lat="42.20164" lon="13.7076517"><ele>1009.4285714285714</ele><time>2026-05-02T10:38:10.644Z</time></trkpt><trkpt lat="42.201665" lon="13.7075633"><ele>1006.0</ele><time>2026-05-02T10:38:11.644Z</time></trkpt><trkpt lat="42.2016933" lon="13.7074717"><ele>1004.6666666666666</ele><time>2026-05-02T10:38:12.644Z</time></trkpt><trkpt lat="42.20172" lon="13.7073767"><ele>1003.3333333333333</ele><time>2026-05-02T10:38:13.644Z</time></trkpt><trkpt lat="42.2017317" lon="13.707285"><ele>1002.0</ele><time>2026-05-02T10:38:14.643Z</time></trkpt><trkpt lat="42.2017333" lon="13.7071917"><ele>1000.6666666666667</ele><time>2026-05-02T10:38:15.643Z</time></trkpt><trkpt lat="42.2017383" lon="13.7071067"><ele>999.3333333333334</ele><time>2026-05-02T10:38:16.644Z</time></trkpt><trkpt lat="42.201775" lon="13.7069583"><ele>998.0</ele><time>2026-05-02T10:38:18.643Z</time></trkpt><trkpt lat="42.20183" lon="13.706825"><ele>996.5999999999999</ele><time>2026-05-02T10:38:20.644Z</time></trkpt><trkpt lat="42.20187" lon="13.7067033"><ele>995.1999999999999</ele><time>2026-05-02T10:38:22.643Z</time></trkpt><trkpt lat="42.2018733" lon="13.706595"><ele>993.8</ele><time>2026-05-02T10:38:25.643Z</time></trkpt><trkpt lat="42.2018483" lon="13.706505"><ele>992.4</ele><time>2026-05-02T10:38:27.644Z</time></trkpt><trkpt lat="42.2018283" lon="13.7063617"><ele>991.0</ele><time>2026-05-02T10:38:29.644Z</time></trkpt><trkpt lat="42.2017917" lon="13.706225"><ele>991.0</ele><time>2026-05-02T10:38:31.643Z</time></trkpt><trkpt lat="42.2017067" lon="13.70614"><ele>990.9999999999999</ele><time>2026-05-02T10:38:33.643Z</time></trkpt><trkpt lat="42.2015983" lon="13.70607"><ele>990.9999999999999</ele><time>2026-05-02T10:38:35.644Z</time></trkpt><trkpt lat="42.2015317" lon="13.7059983"><ele>991.0</ele><time>2026-05-02T10:38:37.644Z</time></trkpt><trkpt lat="42.20153" lon="13.70588"><ele>991.0</ele><time>2026-05-02T10:38:39.643Z</time></trkpt><trkpt lat="42.2015617" lon="13.7057667"><ele>990.3333333333333</ele><time>2026-05-02T10:38:41.644Z</time></trkpt><trkpt lat="42.201515" lon="13.7056217"><ele>989.6666666666666</ele><time>2026-05-02T10:38:43.644Z</time></trkpt><trkpt lat="42.2014833" lon="13.7055367"><ele>989.0</ele><time>2026-05-02T10:38:44.644Z</time></trkpt><trkpt lat="42.2014533" lon="13.7054517"><ele>988.3333333333333</ele><time>2026-05-02T10:38:45.644Z</time></trkpt><trkpt lat="42.2014233" lon="13.7053633"><ele>987.6666666666666</ele><time>2026-05-02T10:38:46.643Z</time></trkpt><trkpt lat="42.2013967" lon="13.7052783"><ele>987.0</ele><time>2026-05-02T10:38:47.643Z</time></trkpt><trkpt lat="42.20137" lon="13.7051867"><ele>985.5</ele><time>2026-05-02T10:38:48.644Z</time></trkpt><trkpt lat="42.2013517" lon="13.7050933"><ele>984.0</ele><time>2026-05-02T10:38:49.644Z</time></trkpt><trkpt lat="42.20134" lon="13.70499"><ele>982.5</ele><time>2026-05-02T10:38:50.644Z</time></trkpt><trkpt lat="42.2013317" lon="13.704875"><ele>981.0</ele><time>2026-05-02T10:38:51.643Z</time></trkpt><trkpt lat="42.2013333" lon="13.7047617"><ele>979.5</ele><time>2026-05-02T10:38:52.644Z</time></trkpt><trkpt lat="42.2013317" lon="13.704655"><ele>978.0</ele><time>2026-05-02T10:38:53.644Z</time></trkpt><trkpt lat="42.2013333" lon="13.70455"><ele>978.0</ele><time>2026-05-02T10:38:54.643Z</time></trkpt><trkpt lat="42.2013433" lon="13.7044533"><ele>978.0</ele><time>2026-05-02T10:38:55.643Z</time></trkpt><trkpt lat="42.2013517" lon="13.704365"><ele>978.0</ele><time>2026-05-02T10:38:56.644Z</time></trkpt><trkpt lat="42.201355" lon="13.7042783"><ele>978.0</ele><time>2026-05-02T10:38:57.643Z</time></trkpt><trkpt lat="42.20136" lon="13.70413"><ele>978.0</ele><time>2026-05-02T10:38:59.643Z</time></trkpt><trkpt lat="42.2013733" lon="13.7039717"><ele>978.0</ele><time>2026-05-02T10:39:01.643Z</time></trkpt><trkpt lat="42.201415" lon="13.7038183"><ele>977.4285714285714</ele><time>2026-05-02T10:39:03.644Z</time></trkpt><trkpt lat="42.2014383" lon="13.7037383"><ele>976.8571428571429</ele><time>2026-05-02T10:39:04.644Z</time></trkpt><trkpt lat="42.2014567" lon="13.703655"><ele>976.2857142857143</ele><time>2026-05-02T10:39:05.643Z</time></trkpt><trkpt lat="42.20147" lon="13.7035633"><ele>975.7142857142858</ele><time>2026-05-02T10:39:06.644Z</time></trkpt><trkpt lat="42.2014833" lon="13.7034683"><ele>975.1428571428571</ele><time>2026-05-02T10:39:07.643Z</time></trkpt><trkpt lat="42.20149" lon="13.7033783"><ele>974.5714285714287</ele><time>2026-05-02T10:39:08.643Z</time></trkpt><trkpt lat="42.2014983" lon="13.7032867"><ele>974.0</ele><time>2026-05-02T10:39:09.644Z</time></trkpt><trkpt lat="42.2015033" lon="13.7032017"><ele>966.6</ele><time>2026-05-02T10:39:10.643Z</time></trkpt><trkpt lat="42.201485" lon="13.7030433"><ele>959.2</ele><time>2026-05-02T10:39:12.643Z</time></trkpt><trkpt lat="42.2014117" lon="13.7029167"><ele>951.8000000000001</ele><time>2026-05-02T10:39:14.644Z</time></trkpt><trkpt lat="42.2013433" lon="13.702835"><ele>944.4000000000001</ele><time>2026-05-02T10:39:16.643Z</time></trkpt><trkpt lat="42.2012683" lon="13.7027317"><ele>937.0</ele><time>2026-05-02T10:39:18.644Z</time></trkpt><trkpt lat="42.201185" lon="13.7026367"><ele>937.0</ele><time>2026-05-02T10:39:20.644Z</time></trkpt><trkpt lat="42.20113" lon="13.702595"><ele>937.0</ele><time>2026-05-02T10:39:23.643Z</time></trkpt><trkpt lat="42.2010383" lon="13.7025183"><ele>937.0</ele><time>2026-05-02T10:39:26.644Z</time></trkpt><trkpt lat="42.2009483" lon="13.70242"><ele>937.0</ele><time>2026-05-02T10:39:28.643Z</time></trkpt><trkpt lat="42.20084" lon="13.7023483"><ele>937.0</ele><time>2026-05-02T10:39:30.644Z</time></trkpt><trkpt lat="42.2007267" lon="13.7022867"><ele>929.5</ele><time>2026-05-02T10:39:32.643Z</time></trkpt><trkpt lat="42.2006133" lon="13.7022467"><ele>922.0</ele><time>2026-05-02T10:39:34.643Z</time></trkpt><trkpt lat="42.200495" lon="13.702205"><ele>914.5</ele><time>2026-05-02T10:39:36.643Z</time></trkpt><trkpt lat="42.2003767" lon="13.7021867"><ele>907.0</ele><time>2026-05-02T10:39:38.643Z</time></trkpt><trkpt lat="42.2002717" lon="13.7021783"><ele>906.9999999999999</ele><time>2026-05-02T10:39:40.644Z</time></trkpt><trkpt lat="42.2002" lon="13.7021417"><ele>907.0</ele><time>2026-05-02T10:39:42.643Z</time></trkpt><trkpt lat="42.200165" lon="13.7020583"><ele>907.0</ele><time>2026-05-02T10:39:44.644Z</time></trkpt><trkpt lat="42.200135" lon="13.7019433"><ele>907.0</ele><time>2026-05-02T10:39:46.644Z</time></trkpt><trkpt lat="42.2001133" lon="13.7018233"><ele>906.9999999999999</ele><time>2026-05-02T10:39:48.643Z</time></trkpt><trkpt lat="42.2000883" lon="13.70171"><ele>907.0</ele><time>2026-05-02T10:39:50.644Z</time></trkpt><trkpt lat="42.2000567" lon="13.7016067"><ele>907.4999999999999</ele><time>2026-05-02T10:39:52.644Z</time></trkpt><trkpt lat="42.20002" lon="13.701525"><ele>908.0</ele><time>2026-05-02T10:39:54.644Z</time></trkpt><trkpt lat="42.1999717" lon="13.7014467"><ele>908.5</ele><time>2026-05-02T10:40:33.643Z</time></trkpt><trkpt lat="42.2000117" lon="13.7013583"><ele>909.0</ele><time>2026-05-02T10:40:36.644Z</time></trkpt><trkpt lat="42.20002" lon="13.7012367"><ele>909.4999999999999</ele><time>2026-05-02T10:40:38.644Z</time></trkpt><trkpt lat="42.2000317" lon="13.7011117"><ele>910.0</ele><time>2026-05-02T10:40:40.643Z</time></trkpt><trkpt lat="42.2000433" lon="13.7009867"><ele>908.9999999999999</ele><time>2026-05-02T10:40:42.643Z</time></trkpt><trkpt lat="42.20006" lon="13.7008633"><ele>908.0</ele><time>2026-05-02T10:40:44.643Z</time></trkpt><trkpt lat="42.200085" lon="13.7007483"><ele>907.0</ele><time>2026-05-02T10:40:46.644Z</time></trkpt><trkpt lat="42.200085" lon="13.70064"><ele>906.0</ele><time>2026-05-02T10:40:48.643Z</time></trkpt><trkpt lat="42.200055" lon="13.7005383"><ele>904.9999999999999</ele><time>2026-05-02T10:40:50.643Z</time></trkpt><trkpt lat="42.20003" lon="13.7004083"><ele>904.0</ele><time>2026-05-02T10:40:52.644Z</time></trkpt><trkpt lat="42.2000233" lon="13.7002467"><ele>903.8000000000001</ele><time>2026-05-02T10:40:54.643Z</time></trkpt><trkpt lat="42.2000483" lon="13.7001117"><ele>903.6000000000001</ele><time>2026-05-02T10:40:56.643Z</time></trkpt><trkpt lat="42.200055" lon="13.6999867"><ele>903.4</ele><time>2026-05-02T10:40:58.644Z</time></trkpt><trkpt lat="42.2000017" lon="13.6999033"><ele>903.2</ele><time>2026-05-02T10:41:00.644Z</time></trkpt><trkpt lat="42.1999083" lon="13.6998367"><ele>903.0</ele><time>2026-05-02T10:41:02.644Z</time></trkpt><trkpt lat="42.1998267" lon="13.6997617"><ele>892.5999999999999</ele><time>2026-05-02T10:41:04.644Z</time></trkpt><trkpt lat="42.1997667" lon="13.6996283"><ele>882.1999999999999</ele><time>2026-05-02T10:41:06.643Z</time></trkpt><trkpt lat="42.19974" lon="13.6995467"><ele>871.8</ele><time>2026-05-02T10:41:07.644Z</time></trkpt><trkpt lat="42.1997117" lon="13.6994683"><ele>861.4</ele><time>2026-05-02T10:41:08.644Z</time></trkpt><trkpt lat="42.199675" lon="13.6993317"><ele>851.0</ele><time>2026-05-02T10:41:10.644Z</time></trkpt><trkpt lat="42.1996417" lon="13.6992083"><ele>851.0</ele><time>2026-05-02T10:41:12.643Z</time></trkpt><trkpt lat="42.1995833" lon="13.6990967"><ele>851.0</ele><time>2026-05-02T10:41:14.643Z</time></trkpt><trkpt lat="42.1995367" lon="13.69897"><ele>851.0</ele><time>2026-05-02T10:41:16.644Z</time></trkpt><trkpt lat="42.199515" lon="13.69889"><ele>851.0</ele><time>2026-05-02T10:41:17.644Z</time></trkpt><trkpt lat="42.1994983" lon="13.6987283"><ele>851.0</ele><time>2026-05-02T10:41:19.643Z</time></trkpt><trkpt lat="42.1995017" lon="13.698565"><ele>851.8</ele><time>2026-05-02T10:41:21.643Z</time></trkpt><trkpt lat="42.1994733" lon="13.6984067"><ele>852.5999999999999</ele><time>2026-05-02T10:41:23.643Z</time></trkpt><trkpt lat="42.199455" lon="13.69826"><ele>853.4</ele><time>2026-05-02T10:41:25.644Z</time></trkpt><trkpt lat="42.19947" lon="13.6981083"><ele>854.2</ele><time>2026-05-02T10:41:27.644Z</time></trkpt><trkpt lat="42.1994833" lon="13.698025"><ele>855.0</ele><time>2026-05-02T10:41:28.644Z</time></trkpt><trkpt lat="42.199515" lon="13.6978783"><ele>852.6</ele><time>2026-05-02T10:41:30.643Z</time></trkpt><trkpt lat="42.199565" lon="13.6977433"><ele>850.2</ele><time>2026-05-02T10:41:32.644Z</time></trkpt><trkpt lat="42.1996133" lon="13.6976117"><ele>847.8</ele><time>2026-05-02T10:41:34.644Z</time></trkpt><trkpt lat="42.1996567" lon="13.6974933"><ele>845.4</ele><time>2026-05-02T10:41:36.643Z</time></trkpt><trkpt lat="42.1997033" lon="13.697415"><ele>843.0</ele><time>2026-05-02T10:41:38.643Z</time></trkpt><trkpt lat="42.1997583" lon="13.697335"><ele>843.0</ele><time>2026-05-02T10:41:40.643Z</time></trkpt><trkpt lat="42.1998133" lon="13.697245"><ele>843.0</ele><time>2026-05-02T10:41:42.643Z</time></trkpt><trkpt lat="42.1998683" lon="13.697175"><ele>843.0</ele><time>2026-05-02T10:41:44.643Z</time></trkpt><trkpt lat="42.1999383" lon="13.6971383"><ele>843.0</ele><time>2026-05-02T10:41:46.644Z</time></trkpt><trkpt lat="42.2000267" lon="13.6971183"><ele>843.0</ele><time>2026-05-02T10:41:48.643Z</time></trkpt><trkpt lat="42.2001217" lon="13.6970933"><ele>843.0</ele><time>2026-05-02T10:41:50.644Z</time></trkpt><trkpt lat="42.2002267" lon="13.6970367"><ele>843.5999999999999</ele><time>2026-05-02T10:41:52.643Z</time></trkpt><trkpt lat="42.2003333" lon="13.6969783"><ele>844.1999999999999</ele><time>2026-05-02T10:41:54.642Z</time></trkpt><trkpt lat="42.200425" lon="13.6969717"><ele>844.8</ele><time>2026-05-02T10:41:56.643Z</time></trkpt><trkpt lat="42.2005333" lon="13.6969317"><ele>845.4</ele><time>2026-05-02T10:41:58.642Z</time></trkpt><trkpt lat="42.2006483" lon="13.6968633"><ele>846.0</ele><time>2026-05-02T10:42:00.643Z</time></trkpt><trkpt lat="42.2007083" lon="13.6968217"><ele>846.0</ele><time>2026-05-02T10:42:01.643Z</time></trkpt><trkpt lat="42.2007617" lon="13.69677"><ele>846.0</ele><time>2026-05-02T10:42:02.643Z</time></trkpt><trkpt lat="42.2008467" lon="13.6966733"><ele>846.0</ele><time>2026-05-02T10:42:04.643Z</time></trkpt><trkpt lat="42.200855" lon="13.6965833"><ele>846.0</ele><time>2026-05-02T10:42:06.642Z</time></trkpt><trkpt lat="42.200785" lon="13.6965183"><ele>846.0</ele><time>2026-05-02T10:42:08.643Z</time></trkpt><trkpt lat="42.2007217" lon="13.696545"><ele>846.0</ele><time>2026-05-02T10:42:10.643Z</time></trkpt><trkpt lat="42.2006417" lon="13.6965567"><ele>846.0</ele><time>2026-05-02T10:42:12.643Z</time></trkpt><trkpt lat="42.2005817" lon="13.6964817"><ele>846.0</ele><time>2026-05-02T10:42:14.642Z</time></trkpt><trkpt lat="42.2005267" lon="13.69644"><ele>846.0</ele><time>2026-05-02T10:42:16.643Z</time></trkpt><trkpt lat="42.2004717" lon="13.6964817"><ele>846.0</ele><time>2026-05-02T10:42:18.643Z</time></trkpt><trkpt lat="42.200385" lon="13.6965133"><ele>846.0</ele><time>2026-05-02T10:42:20.642Z</time></trkpt><trkpt lat="42.2003233" lon="13.6964783"><ele>846.0</ele><time>2026-05-02T10:42:22.642Z</time></trkpt><trkpt lat="42.20027" lon="13.6964083"><ele>846.0</ele><time>2026-05-02T10:42:24.643Z</time></trkpt><trkpt lat="42.2002067" lon="13.6963183"><ele>846.0</ele><time>2026-05-02T10:42:26.643Z</time></trkpt><trkpt lat="42.2001117" lon="13.6962567"><ele>846.0</ele><time>2026-05-02T10:42:28.643Z</time></trkpt><trkpt lat="42.2000267" lon="13.6962417"><ele>846.0</ele><time>2026-05-02T10:42:30.642Z</time></trkpt><trkpt lat="42.1999583" lon="13.6963117"><ele>846.0</ele><time>2026-05-02T10:42:32.643Z</time></trkpt><trkpt lat="42.199905" lon="13.69638"><ele>846.0</ele><time>2026-05-02T10:42:34.643Z</time></trkpt><trkpt lat="42.199805" lon="13.69638"><ele>841.6666666666666</ele><time>2026-05-02T10:44:45.643Z</time></trkpt><trkpt lat="42.1997417" lon="13.6963217"><ele>837.3333333333333</ele><time>2026-05-02T10:44:48.642Z</time></trkpt><trkpt lat="42.1996817" lon="13.6962483"><ele>833.0</ele><time>2026-05-02T10:44:50.642Z</time></trkpt><trkpt lat="42.1996217" lon="13.6961517"><ele>828.6666666666666</ele><time>2026-05-02T10:44:52.642Z</time></trkpt><trkpt lat="42.1995667" lon="13.696045"><ele>824.3333333333333</ele><time>2026-05-02T10:44:54.642Z</time></trkpt><trkpt lat="42.1995067" lon="13.695945"><ele>820.0</ele><time>2026-05-02T10:44:56.642Z</time></trkpt><trkpt lat="42.1994383" lon="13.6958333"><ele>817.8</ele><time>2026-05-02T10:44:58.643Z</time></trkpt><trkpt lat="42.1993667" lon="13.6957133"><ele>815.6</ele><time>2026-05-02T10:45:00.642Z</time></trkpt><trkpt lat="42.1993" lon="13.6955983"><ele>813.4000000000001</ele><time>2026-05-02T10:45:02.642Z</time></trkpt><trkpt lat="42.199245" lon="13.69547"><ele>811.2</ele><time>2026-05-02T10:45:04.642Z</time></trkpt><trkpt lat="42.1992067" lon="13.6953483"><ele>809.0</ele><time>2026-05-02T10:45:06.643Z</time></trkpt><trkpt lat="42.1991817" lon="13.6952333"><ele>809.0000000000001</ele><time>2026-05-02T10:45:08.643Z</time></trkpt><trkpt lat="42.1991483" lon="13.6951283"><ele>809.0</ele><time>2026-05-02T10:45:10.642Z</time></trkpt><trkpt lat="42.1991033" lon="13.6950533"><ele>809.0</ele><time>2026-05-02T10:45:29.641Z</time></trkpt><trkpt lat="42.19904" lon="13.6949667"><ele>809.0</ele><time>2026-05-02T10:45:31.641Z</time></trkpt><trkpt lat="42.1989683" lon="13.69492"><ele>809.0000000000001</ele><time>2026-05-02T10:45:33.641Z</time></trkpt><trkpt lat="42.1988883" lon="13.6949483"><ele>809.0</ele><time>2026-05-02T10:45:35.642Z</time></trkpt><trkpt lat="42.1988117" lon="13.695065"><ele>804.6666666666667</ele><time>2026-05-02T10:45:37.641Z</time></trkpt><trkpt lat="42.1987517" lon="13.6952217"><ele>800.3333333333334</ele><time>2026-05-02T10:45:39.641Z</time></trkpt><trkpt lat="42.1987133" lon="13.6953"><ele>796.0</ele><time>2026-05-02T10:45:40.641Z</time></trkpt><trkpt lat="42.1986717" lon="13.6953733"><ele>791.6666666666667</ele><time>2026-05-02T10:45:41.641Z</time></trkpt><trkpt lat="42.1986317" lon="13.695445"><ele>787.3333333333334</ele><time>2026-05-02T10:45:42.641Z</time></trkpt><trkpt lat="42.1985717" lon="13.6955533"><ele>783.0</ele><time>2026-05-02T10:45:44.642Z</time></trkpt><trkpt lat="42.1985117" lon="13.695605"><ele>783.0</ele><time>2026-05-02T10:45:46.642Z</time></trkpt><trkpt lat="42.1984433" lon="13.6955667"><ele>783.0</ele><time>2026-05-02T10:45:48.641Z</time></trkpt><trkpt lat="42.1983617" lon="13.6955017"><ele>783.0</ele><time>2026-05-02T10:45:50.642Z</time></trkpt><trkpt lat="42.198265" lon="13.695475"><ele>783.0</ele><time>2026-05-02T10:45:52.642Z</time></trkpt><trkpt lat="42.1981683" lon="13.6955033"><ele>783.0</ele><time>2026-05-02T10:45:54.641Z</time></trkpt><trkpt lat="42.19808" lon="13.6955867"><ele>779.2</ele><time>2026-05-02T10:45:56.642Z</time></trkpt><trkpt lat="42.197975" lon="13.6956633"><ele>775.4</ele><time>2026-05-02T10:45:58.641Z</time></trkpt><trkpt lat="42.1979033" lon="13.69569"><ele>771.6</ele><time>2026-05-02T10:45:59.642Z</time></trkpt><trkpt lat="42.1978233" lon="13.6957167"><ele>767.8000000000001</ele><time>2026-05-02T10:46:00.641Z</time></trkpt><trkpt lat="42.1977333" lon="13.695745"><ele>764.0</ele><time>2026-05-02T10:46:01.642Z</time></trkpt><trkpt lat="42.19764" lon="13.69577"><ele>764.0</ele><time>2026-05-02T10:46:02.641Z</time></trkpt><trkpt lat="42.197545" lon="13.6957983"><ele>764.0</ele><time>2026-05-02T10:46:03.641Z</time></trkpt><trkpt lat="42.1974583" lon="13.695825"><ele>764.0</ele><time>2026-05-02T10:46:04.642Z</time></trkpt><trkpt lat="42.1973867" lon="13.6958483"><ele>764.0</ele><time>2026-05-02T10:46:05.642Z</time></trkpt><trkpt lat="42.1973183" lon="13.69587"><ele>764.0</ele><time>2026-05-02T10:46:06.641Z</time></trkpt><trkpt lat="42.197215" lon="13.6959"><ele>764.0</ele><time>2026-05-02T10:46:08.642Z</time></trkpt><trkpt lat="42.197135" lon="13.6959133"><ele>761.0</ele><time>2026-05-02T10:46:11.642Z</time></trkpt><trkpt lat="42.19707" lon="13.6959433"><ele>758.0</ele><time>2026-05-02T10:46:13.642Z</time></trkpt><trkpt lat="42.1969583" lon="13.696"><ele>755.0</ele><time>2026-05-02T10:46:15.641Z</time></trkpt><trkpt lat="42.1968933" lon="13.6960233"><ele>752.0</ele><time>2026-05-02T10:46:16.642Z</time></trkpt><trkpt lat="42.1968183" lon="13.6960483"><ele>749.0</ele><time>2026-05-02T10:46:17.641Z</time></trkpt><trkpt lat="42.1967417" lon="13.6960733"><ele>746.0</ele><time>2026-05-02T10:46:18.641Z</time></trkpt><trkpt lat="42.1966667" lon="13.696095"><ele>745.3333333333333</ele><time>2026-05-02T10:46:19.641Z</time></trkpt><trkpt lat="42.1966" lon="13.69613"><ele>744.6666666666666</ele><time>2026-05-02T10:46:20.641Z</time></trkpt><trkpt lat="42.19653" lon="13.6962033"><ele>744.0</ele><time>2026-05-02T10:46:22.642Z</time></trkpt><trkpt lat="42.196525" lon="13.6963117"><ele>743.3333333333334</ele><time>2026-05-02T10:46:25.641Z</time></trkpt><trkpt lat="42.19647" lon="13.6962417"><ele>742.6666666666667</ele><time>2026-05-02T10:46:30.642Z</time></trkpt><trkpt lat="42.196455" lon="13.696105"><ele>742.0</ele><time>2026-05-02T10:46:32.642Z</time></trkpt><trkpt lat="42.1964467" lon="13.6960133"><ele>740.0</ele><time>2026-05-02T10:46:33.642Z</time></trkpt><trkpt lat="42.1964333" lon="13.6959167"><ele>738.0</ele><time>2026-05-02T10:46:34.642Z</time></trkpt><trkpt lat="42.1964167" lon="13.6958233"><ele>736.0</ele><time>2026-05-02T10:46:35.642Z</time></trkpt><trkpt lat="42.1963967" lon="13.69567"><ele>734.0</ele><time>2026-05-02T10:46:37.642Z</time></trkpt><trkpt lat="42.1963883" lon="13.6955833"><ele>732.0</ele><time>2026-05-02T10:46:39.641Z</time></trkpt><trkpt lat="42.1963617" lon="13.6954767"><ele>730.0</ele><time>2026-05-02T10:46:41.641Z</time></trkpt><trkpt lat="42.1963367" lon="13.695325"><ele>730.6</ele><time>2026-05-02T10:46:43.642Z</time></trkpt><trkpt lat="42.1963183" lon="13.69524"><ele>731.2</ele><time>2026-05-02T10:46:44.642Z</time></trkpt><trkpt lat="42.196295" lon="13.6950683"><ele>731.8</ele><time>2026-05-02T10:46:46.641Z</time></trkpt><trkpt lat="42.1962783" lon="13.6949683"><ele>732.4</ele><time>2026-05-02T10:46:47.642Z</time></trkpt><trkpt lat="42.196265" lon="13.694845"><ele>733.0</ele><time>2026-05-02T10:46:48.641Z</time></trkpt><trkpt lat="42.1962467" lon="13.69471"><ele>733.0</ele><time>2026-05-02T10:46:49.641Z</time></trkpt><trkpt lat="42.19622" lon="13.694585"><ele>733.0</ele><time>2026-05-02T10:46:50.641Z</time></trkpt><trkpt lat="42.1961917" lon="13.6944867"><ele>733.0</ele><time>2026-05-02T10:46:51.642Z</time></trkpt><trkpt lat="42.1961667" lon="13.6943983"><ele>733.0</ele><time>2026-05-02T10:46:52.641Z</time></trkpt><trkpt lat="42.1961383" lon="13.6943067"><ele>733.0</ele><time>2026-05-02T10:46:53.642Z</time></trkpt><trkpt lat="42.1961083" lon="13.6942183"><ele>733.0</ele><time>2026-05-02T10:46:54.641Z</time></trkpt><trkpt lat="42.1960817" lon="13.6941317"><ele>732.7142857142857</ele><time>2026-05-02T10:46:55.642Z</time></trkpt><trkpt lat="42.1960533" lon="13.6940417"><ele>732.4285714285714</ele><time>2026-05-02T10:46:56.642Z</time></trkpt><trkpt lat="42.1960317" lon="13.6939483"><ele>732.1428571428571</ele><time>2026-05-02T10:46:57.642Z</time></trkpt><trkpt lat="42.1960167" lon="13.69386"><ele>731.8571428571429</ele><time>2026-05-02T10:46:58.641Z</time></trkpt><trkpt lat="42.19601" lon="13.69377"><ele>731.5714285714286</ele><time>2026-05-02T10:46:59.642Z</time></trkpt><trkpt lat="42.1960017" lon="13.6936783"><ele>731.2857142857142</ele><time>2026-05-02T10:47:00.642Z</time></trkpt><trkpt lat="42.19599" lon="13.693585"><ele>731.0</ele><time>2026-05-02T10:47:01.642Z</time></trkpt><trkpt lat="42.1959717" lon="13.693485"><ele>730.0</ele><time>2026-05-02T10:47:02.642Z</time></trkpt><trkpt lat="42.1959583" lon="13.6933967"><ele>729.0</ele><time>2026-05-02T10:47:03.642Z</time></trkpt><trkpt lat="42.1959483" lon="13.693305"><ele>728.0</ele><time>2026-05-02T10:47:04.642Z</time></trkpt><trkpt lat="42.195935" lon="13.69322"><ele>727.0</ele><time>2026-05-02T10:47:05.642Z</time></trkpt><trkpt lat="42.1959167" lon="13.6931383"><ele>726.0</ele><time>2026-05-02T10:47:06.642Z</time></trkpt><trkpt lat="42.1959" lon="13.6930467"><ele>725.0</ele><time>2026-05-02T10:47:07.642Z</time></trkpt><trkpt lat="42.19588" lon="13.6929567"><ele>724.0</ele><time>2026-05-02T10:47:08.642Z</time></trkpt><trkpt lat="42.195865" lon="13.692865"><ele>724.0</ele><time>2026-05-02T10:47:09.641Z</time></trkpt><trkpt lat="42.19585" lon="13.692775"><ele>724.0</ele><time>2026-05-02T10:47:10.642Z</time></trkpt><trkpt lat="42.1958433" lon="13.6926767"><ele>724.0</ele><time>2026-05-02T10:47:11.642Z</time></trkpt><trkpt lat="42.1958333" lon="13.6925783"><ele>724.0</ele><time>2026-05-02T10:47:12.641Z</time></trkpt><trkpt lat="42.1958367" lon="13.6924833"><ele>724.0</ele><time>2026-05-02T10:47:13.641Z</time></trkpt><trkpt lat="42.1958333" lon="13.692375"><ele>724.0</ele><time>2026-05-02T10:47:14.641Z</time></trkpt><trkpt lat="42.195835" lon="13.6922667"><ele>724.0</ele><time>2026-05-02T10:47:15.641Z</time></trkpt><trkpt lat="42.195835" lon="13.6921617"><ele>722.3333333333334</ele><time>2026-05-02T10:47:16.641Z</time></trkpt><trkpt lat="42.19583" lon="13.692055"><ele>720.6666666666667</ele><time>2026-05-02T10:47:17.641Z</time></trkpt><trkpt lat="42.1958283" lon="13.6919433"><ele>719.0</ele><time>2026-05-02T10:47:18.642Z</time></trkpt><trkpt lat="42.19583" lon="13.6918333"><ele>717.3333333333334</ele><time>2026-05-02T10:47:19.641Z</time></trkpt><trkpt lat="42.1958283" lon="13.6917333"><ele>715.6666666666666</ele><time>2026-05-02T10:47:20.641Z</time></trkpt><trkpt lat="42.195835" lon="13.6916417"><ele>714.0</ele><time>2026-05-02T10:47:21.642Z</time></trkpt><trkpt lat="42.19584" lon="13.6915517"><ele>712.6</ele><time>2026-05-02T10:47:22.641Z</time></trkpt><trkpt lat="42.1958183" lon="13.6914333"><ele>711.2</ele><time>2026-05-02T10:47:24.642Z</time></trkpt><trkpt lat="42.1957683" lon="13.6913333"><ele>709.8000000000001</ele><time>2026-05-02T10:47:26.641Z</time></trkpt><trkpt lat="42.1957233" lon="13.6912183"><ele>708.4000000000001</ele><time>2026-05-02T10:47:28.642Z</time></trkpt><trkpt lat="42.1956683" lon="13.6910717"><ele>707.0</ele><time>2026-05-02T10:47:30.641Z</time></trkpt><trkpt lat="42.195585" lon="13.6909367"><ele>704.5</ele><time>2026-05-02T10:47:32.642Z</time></trkpt><trkpt lat="42.19552" lon="13.690865"><ele>702.0</ele><time>2026-05-02T10:47:33.641Z</time></trkpt><trkpt lat="42.19545" lon="13.6908117"><ele>699.5</ele><time>2026-05-02T10:47:34.642Z</time></trkpt><trkpt lat="42.1953733" lon="13.6907633"><ele>697.0</ele><time>2026-05-02T10:47:35.642Z</time></trkpt><trkpt lat="42.195285" lon="13.69073"><ele>694.5</ele><time>2026-05-02T10:47:36.642Z</time></trkpt><trkpt lat="42.1951933" lon="13.6907067"><ele>692.0</ele><time>2026-05-02T10:47:37.641Z</time></trkpt><trkpt lat="42.195105" lon="13.6906733"><ele>692.0</ele><time>2026-05-02T10:47:38.641Z</time></trkpt><trkpt lat="42.1950217" lon="13.6906367"><ele>692.0</ele><time>2026-05-02T10:47:39.642Z</time></trkpt><trkpt lat="42.19494" lon="13.6906067"><ele>692.0</ele><time>2026-05-02T10:47:40.641Z</time></trkpt><trkpt lat="42.1948483" lon="13.6905733"><ele>692.0</ele><time>2026-05-02T10:47:41.642Z</time></trkpt><trkpt lat="42.1947583" lon="13.6905467"><ele>692.0</ele><time>2026-05-02T10:47:42.642Z</time></trkpt><trkpt lat="42.1946717" lon="13.6905217"><ele>692.0</ele><time>2026-05-02T10:47:43.641Z</time></trkpt><trkpt lat="42.1945867" lon="13.6905"><ele>690.0</ele><time>2026-05-02T10:47:44.642Z</time></trkpt><trkpt lat="42.194505" lon="13.6904783"><ele>688.0</ele><time>2026-05-02T10:47:45.641Z</time></trkpt><trkpt lat="42.1944383" lon="13.6904433"><ele>686.0</ele><time>2026-05-02T10:47:46.641Z</time></trkpt><trkpt lat="42.19438" lon="13.6903917"><ele>684.0</ele><time>2026-05-02T10:47:47.641Z</time></trkpt><trkpt lat="42.1943217" lon="13.6903283"><ele>682.0</ele><time>2026-05-02T10:47:48.642Z</time></trkpt><trkpt lat="42.1942683" lon="13.690255"><ele>680.0</ele><time>2026-05-02T10:47:49.641Z</time></trkpt><trkpt lat="42.1942167" lon="13.6901783"><ele>679.5</ele><time>2026-05-02T10:47:50.642Z</time></trkpt><trkpt lat="42.194155" lon="13.6900967"><ele>679.0</ele><time>2026-05-02T10:47:51.641Z</time></trkpt><trkpt lat="42.1940967" lon="13.6900067"><ele>678.5</ele><time>2026-05-02T10:47:52.641Z</time></trkpt><trkpt lat="42.19404" lon="13.689915"><ele>678.0</ele><time>2026-05-02T10:47:53.642Z</time></trkpt><trkpt lat="42.1939883" lon="13.6898117"><ele>677.5</ele><time>2026-05-02T10:47:54.642Z</time></trkpt><trkpt lat="42.1939583" lon="13.68971"><ele>677.0</ele><time>2026-05-02T10:47:55.642Z</time></trkpt><trkpt lat="42.1939233" lon="13.6896167"><ele>675.0</ele><time>2026-05-02T10:47:56.641Z</time></trkpt><trkpt lat="42.1938883" lon="13.6895433"><ele>673.0</ele><time>2026-05-02T10:47:57.642Z</time></trkpt><trkpt lat="42.1938417" lon="13.6894833"><ele>671.0</ele><time>2026-05-02T10:47:58.642Z</time></trkpt><trkpt lat="42.1937133" lon="13.6894283"><ele>669.0</ele><time>2026-05-02T10:48:00.642Z</time></trkpt><trkpt lat="42.1936467" lon="13.68943"><ele>667.0</ele><time>2026-05-02T10:48:01.642Z</time></trkpt><trkpt lat="42.1935367" lon="13.6894567"><ele>665.0</ele><time>2026-05-02T10:48:03.642Z</time></trkpt><trkpt lat="42.1934583" lon="13.6894483"><ele>666.2</ele><time>2026-05-02T10:48:05.642Z</time></trkpt><trkpt lat="42.193425" lon="13.689375"><ele>667.4</ele><time>2026-05-02T10:48:08.642Z</time></trkpt><trkpt lat="42.1933817" lon="13.6892533"><ele>668.5999999999999</ele><time>2026-05-02T10:48:11.642Z</time></trkpt><trkpt lat="42.1933233" lon="13.689165"><ele>669.8</ele><time>2026-05-02T10:48:13.642Z</time></trkpt><trkpt lat="42.193225" lon="13.6890467"><ele>671.0</ele><time>2026-05-02T10:48:15.642Z</time></trkpt><trkpt lat="42.1931783" lon="13.68897"><ele>670.1666666666666</ele><time>2026-05-02T10:48:16.642Z</time></trkpt><trkpt lat="42.1931417" lon="13.6888883"><ele>669.3333333333333</ele><time>2026-05-02T10:48:17.641Z</time></trkpt><trkpt lat="42.1931133" lon="13.6887917"><ele>668.5</ele><time>2026-05-02T10:48:18.641Z</time></trkpt><trkpt lat="42.1930867" lon="13.6886867"><ele>667.6666666666666</ele><time>2026-05-02T10:48:19.641Z</time></trkpt><trkpt lat="42.19306" lon="13.688595"><ele>666.8333333333334</ele><time>2026-05-02T10:48:20.642Z</time></trkpt><trkpt lat="42.1930417" lon="13.68851"><ele>666.0</ele><time>2026-05-02T10:48:21.641Z</time></trkpt><trkpt lat="42.1930167" lon="13.6883467"><ele>668.5</ele><time>2026-05-02T10:48:23.642Z</time></trkpt><trkpt lat="42.1930167" lon="13.68819"><ele>671.0</ele><time>2026-05-02T10:48:25.642Z</time></trkpt><trkpt lat="42.1930417" lon="13.6880483"><ele>673.5</ele><time>2026-05-02T10:48:27.641Z</time></trkpt><trkpt lat="42.1930683" lon="13.68789"><ele>676.0</ele><time>2026-05-02T10:48:29.641Z</time></trkpt><trkpt lat="42.1930683" lon="13.687735"><ele>676.1428571428571</ele><time>2026-05-02T10:48:31.641Z</time></trkpt><trkpt lat="42.1930517" lon="13.6876483"><ele>676.2857142857142</ele><time>2026-05-02T10:48:32.641Z</time></trkpt><trkpt lat="42.1930267" lon="13.6875483"><ele>676.4285714285713</ele><time>2026-05-02T10:48:33.64Z</time></trkpt><trkpt lat="42.192995" lon="13.687445"><ele>676.5714285714286</ele><time>2026-05-02T10:48:34.64Z</time></trkpt><trkpt lat="42.192975" lon="13.68735"><ele>676.7142857142857</ele><time>2026-05-02T10:48:35.64Z</time></trkpt><trkpt lat="42.19296" lon="13.6872633"><ele>676.8571428571428</ele><time>2026-05-02T10:48:36.64Z</time></trkpt><trkpt lat="42.1929533" lon="13.68717"><ele>677.0</ele><time>2026-05-02T10:48:37.641Z</time></trkpt><trkpt lat="42.1929617" lon="13.6870617"><ele>677.0</ele><time>2026-05-02T10:48:38.641Z</time></trkpt><trkpt lat="42.19299" lon="13.68694"><ele>677.0</ele><time>2026-05-02T10:48:39.64Z</time></trkpt><trkpt lat="42.1930167" lon="13.686815"><ele>677.0</ele><time>2026-05-02T10:48:40.64Z</time></trkpt><trkpt lat="42.1930533" lon="13.6866833"><ele>677.0</ele><time>2026-05-02T10:48:41.641Z</time></trkpt><trkpt lat="42.19309" lon="13.6865367"><ele>677.0</ele><time>2026-05-02T10:48:42.64Z</time></trkpt><trkpt lat="42.193125" lon="13.6864067"><ele>676.6</ele><time>2026-05-02T10:48:43.64Z</time></trkpt><trkpt lat="42.1931567" lon="13.686275"><ele>676.2</ele><time>2026-05-02T10:48:44.64Z</time></trkpt><trkpt lat="42.1931867" lon="13.686155"><ele>675.8</ele><time>2026-05-02T10:48:45.641Z</time></trkpt><trkpt lat="42.1932117" lon="13.68604"><ele>675.4</ele><time>2026-05-02T10:48:46.641Z</time></trkpt><trkpt lat="42.1932283" lon="13.6859217"><ele>675.0</ele><time>2026-05-02T10:48:47.64Z</time></trkpt><trkpt lat="42.19323" lon="13.685805"><ele>675.0</ele><time>2026-05-02T10:48:48.641Z</time></trkpt><trkpt lat="42.1932183" lon="13.6856933"><ele>675.0</ele><time>2026-05-02T10:48:49.64Z</time></trkpt><trkpt lat="42.1931983" lon="13.685575"><ele>675.0</ele><time>2026-05-02T10:48:50.641Z</time></trkpt><trkpt lat="42.1931833" lon="13.68546"><ele>675.0</ele><time>2026-05-02T10:48:51.641Z</time></trkpt><trkpt lat="42.1931767" lon="13.6853433"><ele>675.0</ele><time>2026-05-02T10:48:52.641Z</time></trkpt><trkpt lat="42.1931833" lon="13.6852233"><ele>675.0</ele><time>2026-05-02T10:48:53.641Z</time></trkpt><trkpt lat="42.1931983" lon="13.6851"><ele>674.8</ele><time>2026-05-02T10:48:54.641Z</time></trkpt><trkpt lat="42.19321" lon="13.6849783"><ele>674.6</ele><time>2026-05-02T10:48:55.641Z</time></trkpt><trkpt lat="42.19321" lon="13.684855"><ele>674.4000000000001</ele><time>2026-05-02T10:48:56.64Z</time></trkpt><trkpt lat="42.1931967" lon="13.6847233"><ele>674.2</ele><time>2026-05-02T10:48:57.641Z</time></trkpt><trkpt lat="42.1931767" lon="13.6845917"><ele>674.0</ele><time>2026-05-02T10:48:58.641Z</time></trkpt><trkpt lat="42.19315" lon="13.684465"><ele>671.4000000000001</ele><time>2026-05-02T10:48:59.641Z</time></trkpt><trkpt lat="42.1931183" lon="13.68434"><ele>668.8</ele><time>2026-05-02T10:49:00.641Z</time></trkpt><trkpt lat="42.193085" lon="13.6842133"><ele>666.2</ele><time>2026-05-02T10:49:01.641Z</time></trkpt><trkpt lat="42.19306" lon="13.6840867"><ele>663.5999999999999</ele><time>2026-05-02T10:49:02.641Z</time></trkpt><trkpt lat="42.1930333" lon="13.6839517"><ele>661.0</ele><time>2026-05-02T10:49:03.641Z</time></trkpt><trkpt lat="42.1930083" lon="13.68383"><ele>661.0</ele><time>2026-05-02T10:49:04.641Z</time></trkpt><trkpt lat="42.1929783" lon="13.683705"><ele>661.0</ele><time>2026-05-02T10:49:05.64Z</time></trkpt><trkpt lat="42.1929417" lon="13.683575"><ele>661.0</ele><time>2026-05-02T10:49:06.64Z</time></trkpt><trkpt lat="42.19291" lon="13.683445"><ele>661.0</ele><time>2026-05-02T10:49:07.641Z</time></trkpt><trkpt lat="42.1928867" lon="13.6833067"><ele>661.0</ele><time>2026-05-02T10:49:08.641Z</time></trkpt><trkpt lat="42.1928633" lon="13.6831733"><ele>661.5</ele><time>2026-05-02T10:49:09.64Z</time></trkpt><trkpt lat="42.1928383" lon="13.6830417"><ele>662.0</ele><time>2026-05-02T10:49:10.641Z</time></trkpt><trkpt lat="42.1928183" lon="13.6829133"><ele>662.5</ele><time>2026-05-02T10:49:11.64Z</time></trkpt><trkpt lat="42.1928" lon="13.6827933"><ele>663.0</ele><time>2026-05-02T10:49:12.64Z</time></trkpt><trkpt lat="42.1927817" lon="13.6826883"><ele>663.5</ele><time>2026-05-02T10:49:13.641Z</time></trkpt><trkpt lat="42.1927617" lon="13.6825917"><ele>664.0</ele><time>2026-05-02T10:49:14.64Z</time></trkpt><trkpt lat="42.1927467" lon="13.6825067"><ele>664.2</ele><time>2026-05-02T10:49:15.641Z</time></trkpt><trkpt lat="42.1927317" lon="13.6823667"><ele>664.4000000000001</ele><time>2026-05-02T10:49:17.64Z</time></trkpt><trkpt lat="42.192695" lon="13.6822533"><ele>664.6</ele><time>2026-05-02T10:49:19.64Z</time></trkpt><trkpt lat="42.1926533" lon="13.68213"><ele>664.8</ele><time>2026-05-02T10:49:21.641Z</time></trkpt><trkpt lat="42.1926767" lon="13.6819833"><ele>665.0</ele><time>2026-05-02T10:49:23.641Z</time></trkpt><trkpt lat="42.1927083" lon="13.6818917"><ele>665.0</ele><time>2026-05-02T10:49:24.64Z</time></trkpt><trkpt lat="42.1927267" lon="13.68179"><ele>665.0</ele><time>2026-05-02T10:49:25.641Z</time></trkpt><trkpt lat="42.1927467" lon="13.6816933"><ele>665.0</ele><time>2026-05-02T10:49:26.64Z</time></trkpt><trkpt lat="42.19277" lon="13.68156"><ele>665.0</ele><time>2026-05-02T10:49:28.64Z</time></trkpt><trkpt lat="42.19276" lon="13.6814233"><ele>665.0</ele><time>2026-05-02T10:49:30.641Z</time></trkpt><trkpt lat="42.1927617" lon="13.68129"><ele>665.0</ele><time>2026-05-02T10:49:32.64Z</time></trkpt><trkpt lat="42.1927817" lon="13.6811567"><ele>665.0</ele><time>2026-05-02T10:49:34.64Z</time></trkpt><trkpt lat="42.1928533" lon="13.68105"><ele>665.0</ele><time>2026-05-02T10:49:36.641Z</time></trkpt><trkpt lat="42.1929167" lon="13.6809883"><ele>665.0</ele><time>2026-05-02T10:49:37.64Z</time></trkpt><trkpt lat="42.1929783" lon="13.680925"><ele>665.0</ele><time>2026-05-02T10:49:38.641Z</time></trkpt><trkpt lat="42.19303" lon="13.6808683"><ele>665.0</ele><time>2026-05-02T10:49:39.641Z</time></trkpt><trkpt lat="42.193085" lon="13.6807733"><ele>662.4</ele><time>2026-05-02T10:49:41.641Z</time></trkpt><trkpt lat="42.1930683" lon="13.6806533"><ele>659.8</ele><time>2026-05-02T10:49:43.64Z</time></trkpt><trkpt lat="42.1930283" lon="13.680515"><ele>657.2</ele><time>2026-05-02T10:49:45.641Z</time></trkpt><trkpt lat="42.1929967" lon="13.680365"><ele>654.6</ele><time>2026-05-02T10:49:47.64Z</time></trkpt><trkpt lat="42.1929817" lon="13.68028"><ele>652.0</ele><time>2026-05-02T10:49:48.641Z</time></trkpt><trkpt lat="42.19298" lon="13.6801133"><ele>649.2</ele><time>2026-05-02T10:49:50.641Z</time></trkpt><trkpt lat="42.1929767" lon="13.67997"><ele>646.4000000000001</ele><time>2026-05-02T10:49:52.64Z</time></trkpt><trkpt lat="42.192975" lon="13.6798633"><ele>643.5999999999999</ele><time>2026-05-02T10:49:53.641Z</time></trkpt><trkpt lat="42.1929967" lon="13.67975"><ele>640.8</ele><time>2026-05-02T10:49:54.641Z</time></trkpt><trkpt lat="42.1930317" lon="13.679625"><ele>638.0</ele><time>2026-05-02T10:49:55.64Z</time></trkpt><trkpt lat="42.1930783" lon="13.6794933"><ele>637.75</ele><time>2026-05-02T10:49:56.64Z</time></trkpt><trkpt lat="42.1931333" lon="13.6793717"><ele>637.5</ele><time>2026-05-02T10:49:57.641Z</time></trkpt><trkpt lat="42.1932067" lon="13.6792533"><ele>637.25</ele><time>2026-05-02T10:49:58.64Z</time></trkpt><trkpt lat="42.1932867" lon="13.679125"><ele>637.0</ele><time>2026-05-02T10:49:59.64Z</time></trkpt><trkpt lat="42.19337" lon="13.6789917"><ele>637.5</ele><time>2026-05-02T10:50:00.641Z</time></trkpt><trkpt lat="42.193455" lon="13.6788717"><ele>638.0</ele><time>2026-05-02T10:50:01.641Z</time></trkpt><trkpt lat="42.1935383" lon="13.67874"><ele>638.5</ele><time>2026-05-02T10:50:02.64Z</time></trkpt><trkpt lat="42.1936267" lon="13.678605"><ele>639.0</ele><time>2026-05-02T10:50:03.641Z</time></trkpt><trkpt lat="42.1937183" lon="13.6784717"><ele>639.0</ele><time>2026-05-02T10:50:04.64Z</time></trkpt><trkpt lat="42.1938167" lon="13.6783267"><ele>639.0</ele><time>2026-05-02T10:50:05.641Z</time></trkpt><trkpt lat="42.1939117" lon="13.6781783"><ele>639.0</ele><time>2026-05-02T10:50:06.641Z</time></trkpt><trkpt lat="42.1940133" lon="13.6780267"><ele>639.0</ele><time>2026-05-02T10:50:07.641Z</time></trkpt><trkpt lat="42.1941217" lon="13.677855"><ele>640.3333333333334</ele><time>2026-05-02T10:50:08.641Z</time></trkpt><trkpt lat="42.1942317" lon="13.6776883"><ele>641.6666666666667</ele><time>2026-05-02T10:50:09.64Z</time></trkpt><trkpt lat="42.1943433" lon="13.677515"><ele>643.0</ele><time>2026-05-02T10:50:10.641Z</time></trkpt><trkpt lat="42.1944617" lon="13.6773367"><ele>643.0</ele><time>2026-05-02T10:50:11.641Z</time></trkpt><trkpt lat="42.1945717" lon="13.6771533"><ele>643.0</ele><time>2026-05-02T10:50:12.64Z</time></trkpt><trkpt lat="42.194665" lon="13.676975"><ele>643.0</ele><time>2026-05-02T10:50:13.64Z</time></trkpt><trkpt lat="42.1947533" lon="13.6767833"><ele>644.6666666666667</ele><time>2026-05-02T10:50:14.64Z</time></trkpt><trkpt lat="42.1948367" lon="13.6766"><ele>646.3333333333334</ele><time>2026-05-02T10:50:15.641Z</time></trkpt><trkpt lat="42.1949167" lon="13.6764233"><ele>648.0</ele><time>2026-05-02T10:50:16.641Z</time></trkpt><trkpt lat="42.195" lon="13.676245"><ele>646.0</ele><time>2026-05-02T10:50:17.641Z</time></trkpt><trkpt lat="42.19508" lon="13.676065"><ele>644.0</ele><time>2026-05-02T10:50:18.64Z</time></trkpt><trkpt lat="42.19516" lon="13.6758983"><ele>642.0</ele><time>2026-05-02T10:50:19.64Z</time></trkpt><trkpt lat="42.1952533" lon="13.6757483"><ele>640.0</ele><time>2026-05-02T10:50:20.641Z</time></trkpt><trkpt lat="42.1953667" lon="13.67562"><ele>640.0</ele><time>2026-05-02T10:50:21.64Z</time></trkpt><trkpt lat="42.195485" lon="13.6755083"><ele>640.0</ele><time>2026-05-02T10:50:22.641Z</time></trkpt><trkpt lat="42.195625" lon="13.6753917"><ele>640.0</ele><time>2026-05-02T10:50:23.641Z</time></trkpt><trkpt lat="42.195765" lon="13.675275"><ele>639.6666666666667</ele><time>2026-05-02T10:50:24.64Z</time></trkpt><trkpt lat="42.1959017" lon="13.675145"><ele>639.3333333333334</ele><time>2026-05-02T10:50:25.641Z</time></trkpt><trkpt lat="42.19603" lon="13.67502"><ele>639.0</ele><time>2026-05-02T10:50:26.64Z</time></trkpt><trkpt lat="42.196155" lon="13.67487"><ele>639.0</ele><time>2026-05-02T10:50:27.641Z</time></trkpt><trkpt lat="42.19627" lon="13.6746933"><ele>639.0</ele><time>2026-05-02T10:50:28.64Z</time></trkpt><trkpt lat="42.19638" lon="13.6745117"><ele>639.0</ele><time>2026-05-02T10:50:29.641Z</time></trkpt><trkpt lat="42.19649" lon="13.67433"><ele>638.0</ele><time>2026-05-02T10:50:30.641Z</time></trkpt><trkpt lat="42.1965967" lon="13.67415"><ele>637.0</ele><time>2026-05-02T10:50:31.641Z</time></trkpt><trkpt lat="42.196705" lon="13.67397"><ele>636.0</ele><time>2026-05-02T10:50:32.64Z</time></trkpt><trkpt lat="42.196815" lon="13.6737883"><ele>636.0</ele><time>2026-05-02T10:50:33.641Z</time></trkpt><trkpt lat="42.1969267" lon="13.6736083"><ele>636.0</ele><time>2026-05-02T10:50:34.64Z</time></trkpt><trkpt lat="42.1970283" lon="13.673425"><ele>636.0</ele><time>2026-05-02T10:50:35.641Z</time></trkpt><trkpt lat="42.1971133" lon="13.6732467"><ele>633.75</ele><time>2026-05-02T10:50:36.64Z</time></trkpt><trkpt lat="42.1971783" lon="13.6730633"><ele>631.5</ele><time>2026-05-02T10:50:37.64Z</time></trkpt><trkpt lat="42.19723" lon="13.67289"><ele>629.25</ele><time>2026-05-02T10:50:38.641Z</time></trkpt><trkpt lat="42.1972783" lon="13.672745"><ele>627.0</ele><time>2026-05-02T10:50:39.641Z</time></trkpt><trkpt lat="42.197335" lon="13.6726083"><ele>627.8000000000001</ele><time>2026-05-02T10:50:40.641Z</time></trkpt><trkpt lat="42.19741" lon="13.6725067"><ele>628.6</ele><time>2026-05-02T10:50:41.641Z</time></trkpt><trkpt lat="42.1974983" lon="13.6724167"><ele>629.4000000000001</ele><time>2026-05-02T10:50:42.64Z</time></trkpt><trkpt lat="42.1976067" lon="13.6723567"><ele>630.2</ele><time>2026-05-02T10:50:43.64Z</time></trkpt><trkpt lat="42.1977183" lon="13.6723217"><ele>631.0</ele><time>2026-05-02T10:50:44.641Z</time></trkpt><trkpt lat="42.19782" lon="13.67232"><ele>631.0</ele><time>2026-05-02T10:50:45.641Z</time></trkpt><trkpt lat="42.197925" lon="13.6723417"><ele>631.0</ele><time>2026-05-02T10:50:46.641Z</time></trkpt><trkpt lat="42.1980367" lon="13.672395"><ele>631.0</ele><time>2026-05-02T10:50:47.64Z</time></trkpt><trkpt lat="42.1981517" lon="13.6724417"><ele>631.0</ele><time>2026-05-02T10:50:48.641Z</time></trkpt><trkpt lat="42.1982617" lon="13.6724683"><ele>632.2</ele><time>2026-05-02T10:50:49.641Z</time></trkpt><trkpt lat="42.198375" lon="13.67248"><ele>633.4000000000001</ele><time>2026-05-02T10:50:50.641Z</time></trkpt><trkpt lat="42.1984883" lon="13.6724683"><ele>634.6</ele><time>2026-05-02T10:50:51.64Z</time></trkpt><trkpt lat="42.1985867" lon="13.6724317"><ele>635.8000000000001</ele><time>2026-05-02T10:50:52.64Z</time></trkpt><trkpt lat="42.1986667" lon="13.67236"><ele>637.0</ele><time>2026-05-02T10:50:53.641Z</time></trkpt><trkpt lat="42.19872" lon="13.6722733"><ele>637.0</ele><time>2026-05-02T10:50:54.64Z</time></trkpt><trkpt lat="42.1987433" lon="13.6721783"><ele>637.0</ele><time>2026-05-02T10:50:55.641Z</time></trkpt><trkpt lat="42.19874" lon="13.6720633"><ele>637.0</ele><time>2026-05-02T10:50:56.64Z</time></trkpt><trkpt lat="42.198715" lon="13.6719283"><ele>637.0</ele><time>2026-05-02T10:50:57.64Z</time></trkpt><trkpt lat="42.1986967" lon="13.6717867"><ele>637.0</ele><time>2026-05-02T10:50:58.641Z</time></trkpt><trkpt lat="42.1986983" lon="13.6716417"><ele>636.4</ele><time>2026-05-02T10:50:59.641Z</time></trkpt><trkpt lat="42.1987233" lon="13.6715083"><ele>635.8000000000001</ele><time>2026-05-02T10:51:00.64Z</time></trkpt><trkpt lat="42.19877" lon="13.6713833"><ele>635.2</ele><time>2026-05-02T10:51:01.641Z</time></trkpt><trkpt lat="42.1988383" lon="13.6712633"><ele>634.6</ele><time>2026-05-02T10:51:02.641Z</time></trkpt><trkpt lat="42.19893" lon="13.6711483"><ele>634.0</ele><time>2026-05-02T10:51:03.641Z</time></trkpt><trkpt lat="42.1990267" lon="13.6710433"><ele>634.0</ele><time>2026-05-02T10:51:04.64Z</time></trkpt><trkpt lat="42.1991283" lon="13.670925"><ele>634.0</ele><time>2026-05-02T10:51:05.64Z</time></trkpt><trkpt lat="42.1992117" lon="13.6707617"><ele>634.0</ele><time>2026-05-02T10:51:06.641Z</time></trkpt><trkpt lat="42.1992817" lon="13.67059"><ele>634.0</ele><time>2026-05-02T10:51:07.64Z</time></trkpt><trkpt lat="42.1993483" lon="13.6704233"><ele>630.5</ele><time>2026-05-02T10:51:08.64Z</time></trkpt><trkpt lat="42.1994067" lon="13.670255"><ele>627.0</ele><time>2026-05-02T10:51:09.641Z</time></trkpt><trkpt lat="42.1994883" lon="13.6701033"><ele>623.5</ele><time>2026-05-02T10:51:10.64Z</time></trkpt><trkpt lat="42.1995783" lon="13.6699567"><ele>620.0</ele><time>2026-05-02T10:51:11.64Z</time></trkpt><trkpt lat="42.1996883" lon="13.6698117"><ele>620.0</ele><time>2026-05-02T10:51:12.641Z</time></trkpt><trkpt lat="42.1997917" lon="13.6696783"><ele>620.0</ele><time>2026-05-02T10:51:13.64Z</time></trkpt><trkpt lat="42.19989" lon="13.6695533"><ele>620.0</ele><time>2026-05-02T10:51:14.64Z</time></trkpt><trkpt lat="42.1999917" lon="13.6694367"><ele>620.0</ele><time>2026-05-02T10:51:15.64Z</time></trkpt><trkpt lat="42.20009" lon="13.6693317"><ele>622.0</ele><time>2026-05-02T10:51:16.64Z</time></trkpt><trkpt lat="42.2001767" lon="13.669235"><ele>624.0</ele><time>2026-05-02T10:51:17.64Z</time></trkpt><trkpt lat="42.20025" lon="13.6691233"><ele>626.0</ele><time>2026-05-02T10:51:18.641Z</time></trkpt><trkpt lat="42.2002983" lon="13.6689983"><ele>628.0</ele><time>2026-05-02T10:51:19.641Z</time></trkpt><trkpt lat="42.2003417" lon="13.668885"><ele>630.0</ele><time>2026-05-02T10:51:20.64Z</time></trkpt><trkpt lat="42.2003833" lon="13.66877"><ele>630.0</ele><time>2026-05-02T10:51:21.64Z</time></trkpt><trkpt lat="42.2004167" lon="13.66866"><ele>630.0</ele><time>2026-05-02T10:51:22.641Z</time></trkpt><trkpt lat="42.200445" lon="13.668575"><ele>630.0</ele><time>2026-05-02T10:51:23.64Z</time></trkpt><trkpt lat="42.2004667" lon="13.6684533"><ele>630.0</ele><time>2026-05-02T10:51:25.641Z</time></trkpt><trkpt lat="42.2003783" lon="13.668445"><ele>630.0</ele><time>2026-05-02T10:51:28.641Z</time></trkpt><trkpt lat="42.2003133" lon="13.6684917"><ele>630.0</ele><time>2026-05-02T10:51:29.641Z</time></trkpt><trkpt lat="42.2002317" lon="13.6685433"><ele>630.0</ele><time>2026-05-02T10:51:30.64Z</time></trkpt><trkpt lat="42.2001483" lon="13.6686033"><ele>630.0</ele><time>2026-05-02T10:51:31.641Z</time></trkpt><trkpt lat="42.2000567" lon="13.6686833"><ele>630.0</ele><time>2026-05-02T10:51:32.64Z</time></trkpt><trkpt lat="42.1999667" lon="13.6687883"><ele>630.0</ele><time>2026-05-02T10:51:33.64Z</time></trkpt><trkpt lat="42.1998833" lon="13.6689017"><ele>630.0</ele><time>2026-05-02T10:51:34.639Z</time></trkpt><trkpt lat="42.1998083" lon="13.6690133"><ele>628.3333333333334</ele><time>2026-05-02T10:51:35.639Z</time></trkpt><trkpt lat="42.1997433" lon="13.669115"><ele>626.6666666666666</ele><time>2026-05-02T10:51:36.64Z</time></trkpt><trkpt lat="42.1996883" lon="13.66921"><ele>625.0</ele><time>2026-05-02T10:51:37.64Z</time></trkpt><trkpt lat="42.1996417" lon="13.6692917"><ele>623.3333333333333</ele><time>2026-05-02T10:51:38.64Z</time></trkpt><trkpt lat="42.1996033" lon="13.6693783"><ele>621.6666666666666</ele><time>2026-05-02T10:51:39.639Z</time></trkpt><trkpt lat="42.19957" lon="13.669455"><ele>620.0</ele><time>2026-05-02T10:51:40.64Z</time></trkpt><trkpt lat="42.1994833" lon="13.669525"><ele>620.0</ele><time>2026-05-02T10:51:42.64Z</time></trkpt><trkpt lat="42.199395" lon="13.6694683"><ele>620.0</ele><time>2026-05-02T10:51:44.639Z</time></trkpt><trkpt lat="42.1993783" lon="13.6693133"><ele>620.0</ele><time>2026-05-02T10:51:46.64Z</time></trkpt><trkpt lat="42.1993967" lon="13.6692033"><ele>620.0</ele><time>2026-05-02T10:51:47.639Z</time></trkpt><trkpt lat="42.199415" lon="13.6690667"><ele>620.0</ele><time>2026-05-02T10:51:48.64Z</time></trkpt><trkpt lat="42.19943" lon="13.66891"><ele>616.5</ele><time>2026-05-02T10:51:49.639Z</time></trkpt><trkpt lat="42.1994417" lon="13.6687617"><ele>613.0</ele><time>2026-05-02T10:51:50.639Z</time></trkpt><trkpt lat="42.19943" lon="13.6686017"><ele>609.5</ele><time>2026-05-02T10:51:51.64Z</time></trkpt><trkpt lat="42.1993983" lon="13.6684383"><ele>606.0</ele><time>2026-05-02T10:51:52.639Z</time></trkpt><trkpt lat="42.19936" lon="13.66827"><ele>606.4</ele><time>2026-05-02T10:51:53.64Z</time></trkpt><trkpt lat="42.199325" lon="13.66812"><ele>606.8</ele><time>2026-05-02T10:51:54.639Z</time></trkpt><trkpt lat="42.1992867" lon="13.6679783"><ele>607.1999999999999</ele><time>2026-05-02T10:51:55.639Z</time></trkpt><trkpt lat="42.1992533" lon="13.66786"><ele>607.6</ele><time>2026-05-02T10:51:56.64Z</time></trkpt><trkpt lat="42.1992317" lon="13.6677517"><ele>608.0</ele><time>2026-05-02T10:51:57.64Z</time></trkpt><trkpt lat="42.19921" lon="13.6676583"><ele>608.0</ele><time>2026-05-02T10:51:58.64Z</time></trkpt><trkpt lat="42.199185" lon="13.6675233"><ele>608.0</ele><time>2026-05-02T10:52:00.639Z</time></trkpt><trkpt lat="42.1991467" lon="13.6674417"><ele>608.0</ele><time>2026-05-02T10:52:04.64Z</time></trkpt><trkpt lat="42.1991017" lon="13.6673717"><ele>608.0</ele><time>2026-05-02T10:52:06.64Z</time></trkpt><trkpt lat="42.1990517" lon="13.6672417"><ele>608.0</ele><time>2026-05-02T10:52:08.64Z</time></trkpt><trkpt lat="42.1990417" lon="13.6671033"><ele>608.0</ele><time>2026-05-02T10:52:10.64Z</time></trkpt><trkpt lat="42.1990583" lon="13.6669617"><ele>608.0</ele><time>2026-05-02T10:52:12.639Z</time></trkpt><trkpt lat="42.1991017" lon="13.6668633"><ele>608.0</ele><time>2026-05-02T10:52:14.64Z</time></trkpt><trkpt lat="42.1991817" lon="13.6668133"><ele>608.0</ele><time>2026-05-02T10:52:16.64Z</time></trkpt><trkpt lat="42.19926" lon="13.6667733"><ele>608.0</ele><time>2026-05-02T10:52:18.64Z</time></trkpt><trkpt lat="42.1992867" lon="13.666695"><ele>608.0</ele><time>2026-05-02T10:52:20.639Z</time></trkpt><trkpt lat="42.1992683" lon="13.6665433"><ele>608.1666666666666</ele><time>2026-05-02T10:52:22.64Z</time></trkpt><trkpt lat="42.1992567" lon="13.6663717"><ele>608.3333333333333</ele><time>2026-05-02T10:52:24.64Z</time></trkpt><trkpt lat="42.199255" lon="13.6662867"><ele>608.5</ele><time>2026-05-02T10:52:25.64Z</time></trkpt><trkpt lat="42.199265" lon="13.6662"><ele>608.6666666666666</ele><time>2026-05-02T10:52:26.64Z</time></trkpt><trkpt lat="42.1992717" lon="13.6661083"><ele>608.8333333333334</ele><time>2026-05-02T10:52:27.639Z</time></trkpt><trkpt lat="42.1992817" lon="13.66602"><ele>609.0</ele><time>2026-05-02T10:52:28.639Z</time></trkpt><trkpt lat="42.1993067" lon="13.665935"><ele>608.3333333333334</ele><time>2026-05-02T10:52:29.639Z</time></trkpt><trkpt lat="42.1993467" lon="13.6658533"><ele>607.6666666666666</ele><time>2026-05-02T10:52:30.639Z</time></trkpt><trkpt lat="42.1993933" lon="13.6657733"><ele>607.0</ele><time>2026-05-02T10:52:31.639Z</time></trkpt><trkpt lat="42.19944" lon="13.6656917"><ele>606.3333333333333</ele><time>2026-05-02T10:52:32.64Z</time></trkpt><trkpt lat="42.1994867" lon="13.665615"><ele>605.6666666666666</ele><time>2026-05-02T10:52:33.64Z</time></trkpt><trkpt lat="42.1995317" lon="13.66553"><ele>605.0</ele><time>2026-05-02T10:52:34.639Z</time></trkpt><trkpt lat="42.19957" lon="13.6654417"><ele>605.0</ele><time>2026-05-02T10:52:35.64Z</time></trkpt><trkpt lat="42.1996133" lon="13.6653633"><ele>605.0</ele><time>2026-05-02T10:52:36.639Z</time></trkpt><trkpt lat="42.1996617" lon="13.665295"><ele>605.0</ele><time>2026-05-02T10:52:37.64Z</time></trkpt><trkpt lat="42.1997267" lon="13.6652217"><ele>605.0</ele><time>2026-05-02T10:52:38.64Z</time></trkpt><trkpt lat="42.1997967" lon="13.66514"><ele>605.0</ele><time>2026-05-02T10:52:39.64Z</time></trkpt><trkpt lat="42.1998667" lon="13.6650683"><ele>605.0</ele><time>2026-05-02T10:52:40.639Z</time></trkpt><trkpt lat="42.19994" lon="13.665005"><ele>605.0</ele><time>2026-05-02T10:52:41.64Z</time></trkpt><trkpt lat="42.2000133" lon="13.6649467"><ele>605.0</ele><time>2026-05-02T10:52:42.639Z</time></trkpt><trkpt lat="42.2000833" lon="13.66489"><ele>605.0</ele><time>2026-05-02T10:52:43.639Z</time></trkpt><trkpt lat="42.200155" lon="13.66484"><ele>605.0</ele><time>2026-05-02T10:52:44.639Z</time></trkpt><trkpt lat="42.2002267" lon="13.6648083"><ele>605.0</ele><time>2026-05-02T10:52:45.64Z</time></trkpt><trkpt lat="42.2002967" lon="13.6647817"><ele>605.0</ele><time>2026-05-02T10:52:46.64Z</time></trkpt><trkpt lat="42.2003617" lon="13.6647583"><ele>605.0</ele><time>2026-05-02T10:52:47.64Z</time></trkpt><trkpt lat="42.2004283" lon="13.6647283"><ele>605.0</ele><time>2026-05-02T10:52:48.64Z</time></trkpt><trkpt lat="42.2004917" lon="13.6646933"><ele>605.0</ele><time>2026-05-02T10:52:49.639Z</time></trkpt><trkpt lat="42.2005533" lon="13.6646567"><ele>605.0</ele><time>2026-05-02T10:52:50.639Z</time></trkpt><trkpt lat="42.20061" lon="13.6646117"><ele>605.0</ele><time>2026-05-02T10:52:51.64Z</time></trkpt><trkpt lat="42.2006667" lon="13.66457"><ele>605.0</ele><time>2026-05-02T10:52:52.639Z</time></trkpt><trkpt lat="42.200725" lon="13.6645317"><ele>605.0</ele><time>2026-05-02T10:52:53.639Z</time></trkpt><trkpt lat="42.2007833" lon="13.6644933"><ele>601.6666666666666</ele><time>2026-05-02T10:52:54.64Z</time></trkpt><trkpt lat="42.200885" lon="13.664405"><ele>598.3333333333333</ele><time>2026-05-02T10:52:56.64Z</time></trkpt><trkpt lat="42.2009317" lon="13.6643433"><ele>595.0</ele><time>2026-05-02T10:52:57.64Z</time></trkpt><trkpt lat="42.200985" lon="13.6642733"><ele>591.6666666666666</ele><time>2026-05-02T10:52:58.639Z</time></trkpt><trkpt lat="42.2010367" lon="13.6642083"><ele>588.3333333333334</ele><time>2026-05-02T10:52:59.639Z</time></trkpt><trkpt lat="42.2010883" lon="13.6641533"><ele>585.0</ele><time>2026-05-02T10:53:00.639Z</time></trkpt><trkpt lat="42.2011433" lon="13.6641017"><ele>585.0</ele><time>2026-05-02T10:53:01.639Z</time></trkpt><trkpt lat="42.2012333" lon="13.66405"><ele>585.0</ele><time>2026-05-02T10:53:03.64Z</time></trkpt><trkpt lat="42.2012983" lon="13.66403"><ele>585.0</ele><time>2026-05-02T10:53:04.64Z</time></trkpt><trkpt lat="42.20138" lon="13.6640067"><ele>585.0</ele><time>2026-05-02T10:53:05.64Z</time></trkpt><trkpt lat="42.2014617" lon="13.663985"><ele>585.0</ele><time>2026-05-02T10:53:06.639Z</time></trkpt><trkpt lat="42.201545" lon="13.66396"><ele>585.0</ele><time>2026-05-02T10:53:07.64Z</time></trkpt><trkpt lat="42.2016367" lon="13.66393"><ele>584.3333333333334</ele><time>2026-05-02T10:53:08.639Z</time></trkpt><trkpt lat="42.201725" lon="13.6638933"><ele>583.6666666666666</ele><time>2026-05-02T10:53:09.64Z</time></trkpt><trkpt lat="42.2017983" lon="13.663855"><ele>583.0</ele><time>2026-05-02T10:53:10.639Z</time></trkpt><trkpt lat="42.2018917" lon="13.663755"><ele>582.3333333333333</ele><time>2026-05-02T10:53:12.639Z</time></trkpt><trkpt lat="42.2019267" lon="13.6636733"><ele>581.6666666666666</ele><time>2026-05-02T10:53:13.64Z</time></trkpt><trkpt lat="42.2019667" lon="13.6635833"><ele>581.0</ele><time>2026-05-02T10:53:14.64Z</time></trkpt><trkpt lat="42.202" lon="13.663485"><ele>579.2857142857143</ele><time>2026-05-02T10:53:15.64Z</time></trkpt><trkpt lat="42.2020383" lon="13.6634033"><ele>577.5714285714286</ele><time>2026-05-02T10:53:16.639Z</time></trkpt><trkpt lat="42.202075" lon="13.6633183"><ele>575.8571428571429</ele><time>2026-05-02T10:53:17.64Z</time></trkpt><trkpt lat="42.202115" lon="13.663235"><ele>574.1428571428571</ele><time>2026-05-02T10:53:18.639Z</time></trkpt><trkpt lat="42.2021533" lon="13.6631433"><ele>572.4285714285714</ele><time>2026-05-02T10:53:19.639Z</time></trkpt><trkpt lat="42.2021917" lon="13.6630567"><ele>570.7142857142858</ele><time>2026-05-02T10:53:20.639Z</time></trkpt><trkpt lat="42.20223" lon="13.66297"><ele>569.0</ele><time>2026-05-02T10:53:21.639Z</time></trkpt><trkpt lat="42.2022683" lon="13.6628783"><ele>569.0</ele><time>2026-05-02T10:53:22.639Z</time></trkpt><trkpt lat="42.2022983" lon="13.6627717"><ele>569.0</ele><time>2026-05-02T10:53:23.64Z</time></trkpt><trkpt lat="42.20233" lon="13.6626667"><ele>569.0</ele><time>2026-05-02T10:53:24.639Z</time></trkpt><trkpt lat="42.2023583" lon="13.66256"><ele>569.0</ele><time>2026-05-02T10:53:25.64Z</time></trkpt><trkpt lat="42.2023917" lon="13.6624567"><ele>569.0</ele><time>2026-05-02T10:53:26.64Z</time></trkpt><trkpt lat="42.2024233" lon="13.6623517"><ele>569.0</ele><time>2026-05-02T10:53:27.639Z</time></trkpt><trkpt lat="42.2024617" lon="13.6622483"><ele>569.0</ele><time>2026-05-02T10:53:28.639Z</time></trkpt><trkpt lat="42.2024967" lon="13.6621367"><ele>569.0</ele><time>2026-05-02T10:53:29.639Z</time></trkpt><trkpt lat="42.20253" lon="13.6620167"><ele>569.0</ele><time>2026-05-02T10:53:30.639Z</time></trkpt><trkpt lat="42.2025583" lon="13.66188"><ele>569.0</ele><time>2026-05-02T10:53:31.64Z</time></trkpt><trkpt lat="42.2025833" lon="13.66175"><ele>569.0</ele><time>2026-05-02T10:53:32.64Z</time></trkpt><trkpt lat="42.2026233" lon="13.6616133"><ele>568.2</ele><time>2026-05-02T10:53:33.639Z</time></trkpt><trkpt lat="42.2026633" lon="13.6614933"><ele>567.4</ele><time>2026-05-02T10:53:34.64Z</time></trkpt><trkpt lat="42.2027117" lon="13.6613733"><ele>566.6</ele><time>2026-05-02T10:53:35.64Z</time></trkpt><trkpt lat="42.20276" lon="13.6612433"><ele>565.8</ele><time>2026-05-02T10:53:36.64Z</time></trkpt><trkpt lat="42.2028017" lon="13.6611083"><ele>565.0</ele><time>2026-05-02T10:53:37.64Z</time></trkpt><trkpt lat="42.2028367" lon="13.6609767"><ele>564.2</ele><time>2026-05-02T10:53:38.639Z</time></trkpt><trkpt lat="42.2028733" lon="13.6608417"><ele>563.4</ele><time>2026-05-02T10:53:39.64Z</time></trkpt><trkpt lat="42.2029033" lon="13.6607117"><ele>562.6</ele><time>2026-05-02T10:53:40.639Z</time></trkpt><trkpt lat="42.2029333" lon="13.660585"><ele>561.8</ele><time>2026-05-02T10:53:41.639Z</time></trkpt><trkpt lat="42.2029483" lon="13.6604617"><ele>561.0</ele><time>2026-05-02T10:53:42.639Z</time></trkpt><trkpt lat="42.202965" lon="13.6603383"><ele>559.0</ele><time>2026-05-02T10:53:43.639Z</time></trkpt><trkpt lat="42.20299" lon="13.660215"><ele>557.0</ele><time>2026-05-02T10:53:44.64Z</time></trkpt><trkpt lat="42.2030233" lon="13.6600933"><ele>555.0</ele><time>2026-05-02T10:53:45.639Z</time></trkpt><trkpt lat="42.20306" lon="13.6599767"><ele>553.0</ele><time>2026-05-02T10:53:46.639Z</time></trkpt><trkpt lat="42.2031" lon="13.65986"><ele>551.0</ele><time>2026-05-02T10:53:47.639Z</time></trkpt><trkpt lat="42.2031417" lon="13.659745"><ele>551.8333333333333</ele><time>2026-05-02T10:53:48.639Z</time></trkpt><trkpt lat="42.203185" lon="13.6596283"><ele>552.6666666666666</ele><time>2026-05-02T10:53:49.64Z</time></trkpt><trkpt lat="42.2032167" lon="13.6595183"><ele>553.5</ele><time>2026-05-02T10:53:50.64Z</time></trkpt><trkpt lat="42.20325" lon="13.6594"><ele>554.3333333333334</ele><time>2026-05-02T10:53:51.639Z</time></trkpt><trkpt lat="42.2032867" lon="13.6592917"><ele>555.1666666666667</ele><time>2026-05-02T10:53:52.64Z</time></trkpt><trkpt lat="42.20333" lon="13.6591983"><ele>556.0</ele><time>2026-05-02T10:53:53.639Z</time></trkpt><trkpt lat="42.2033733" lon="13.6591117"><ele>554.2857142857142</ele><time>2026-05-02T10:53:54.64Z</time></trkpt><trkpt lat="42.2034133" lon="13.659025"><ele>552.5714285714286</ele><time>2026-05-02T10:53:55.639Z</time></trkpt><trkpt lat="42.2034533" lon="13.65894"><ele>550.8571428571429</ele><time>2026-05-02T10:53:56.639Z</time></trkpt><trkpt lat="42.2034917" lon="13.6588583"><ele>549.1428571428571</ele><time>2026-05-02T10:53:57.64Z</time></trkpt><trkpt lat="42.203525" lon="13.6587817"><ele>547.4285714285714</ele><time>2026-05-02T10:53:58.64Z</time></trkpt><trkpt lat="42.2035533" lon="13.6586733"><ele>545.7142857142857</ele><time>2026-05-02T10:54:00.64Z</time></trkpt><trkpt lat="42.2035467" lon="13.6585817"><ele>544.0</ele><time>2026-05-02T10:54:03.64Z</time></trkpt><trkpt lat="42.20345" lon="13.6585283"><ele>541.6</ele><time>2026-05-02T10:54:05.639Z</time></trkpt><trkpt lat="42.2033733" lon="13.658505"><ele>539.2</ele><time>2026-05-02T10:54:06.639Z</time></trkpt><trkpt lat="42.203285" lon="13.6584667"><ele>536.8000000000001</ele><time>2026-05-02T10:54:07.64Z</time></trkpt><trkpt lat="42.203175" lon="13.6584217"><ele>534.4</ele><time>2026-05-02T10:54:08.64Z</time></trkpt><trkpt lat="42.2030567" lon="13.6583733"><ele>532.0</ele><time>2026-05-02T10:54:09.639Z</time></trkpt><trkpt lat="42.2029333" lon="13.6583133"><ele>531.75</ele><time>2026-05-02T10:54:10.639Z</time></trkpt><trkpt lat="42.2028117" lon="13.6582167"><ele>531.5</ele><time>2026-05-02T10:54:11.639Z</time></trkpt><trkpt lat="42.20269" lon="13.6580983"><ele>531.25</ele><time>2026-05-02T10:54:12.64Z</time></trkpt><trkpt lat="42.20257" lon="13.6579683"><ele>531.0</ele><time>2026-05-02T10:54:13.64Z</time></trkpt><trkpt lat="42.20245" lon="13.6578433"><ele>527.75</ele><time>2026-05-02T10:54:14.639Z</time></trkpt><trkpt lat="42.2023317" lon="13.6577283"><ele>524.5</ele><time>2026-05-02T10:54:15.64Z</time></trkpt><trkpt lat="42.20221" lon="13.6576167"><ele>521.25</ele><time>2026-05-02T10:54:16.639Z</time></trkpt><trkpt lat="42.202095" lon="13.65753"><ele>518.0</ele><time>2026-05-02T10:54:17.64Z</time></trkpt><trkpt lat="42.2019633" lon="13.6574767"><ele>517.75</ele><time>2026-05-02T10:54:18.639Z</time></trkpt><trkpt lat="42.2018333" lon="13.65747"><ele>517.5</ele><time>2026-05-02T10:54:19.639Z</time></trkpt><trkpt lat="42.2016983" lon="13.6574833"><ele>517.25</ele><time>2026-05-02T10:54:20.639Z</time></trkpt><trkpt lat="42.2015467" lon="13.657505"><ele>517.0</ele><time>2026-05-02T10:54:21.64Z</time></trkpt><trkpt lat="42.2014067" lon="13.65754"><ele>517.75</ele><time>2026-05-02T10:54:22.64Z</time></trkpt><trkpt lat="42.20127" lon="13.6575833"><ele>518.5</ele><time>2026-05-02T10:54:23.639Z</time></trkpt><trkpt lat="42.201135" lon="13.6576467"><ele>519.25</ele><time>2026-05-02T10:54:24.639Z</time></trkpt><trkpt lat="42.20101" lon="13.6577567"><ele>520.0</ele><time>2026-05-02T10:54:25.64Z</time></trkpt><trkpt lat="42.200905" lon="13.65789"><ele>520.0</ele><time>2026-05-02T10:54:26.639Z</time></trkpt><trkpt lat="42.2008133" lon="13.6580233"><ele>520.0</ele><time>2026-05-02T10:54:27.64Z</time></trkpt><trkpt lat="42.2007067" lon="13.6581383"><ele>520.0</ele><time>2026-05-02T10:54:28.64Z</time></trkpt><trkpt lat="42.2005683" lon="13.6582233"><ele>520.0</ele><time>2026-05-02T10:54:29.639Z</time></trkpt><trkpt lat="42.200415" lon="13.6582717"><ele>516.0</ele><time>2026-05-02T10:54:30.64Z</time></trkpt><trkpt lat="42.2002583" lon="13.6583083"><ele>512.0</ele><time>2026-05-02T10:54:31.639Z</time></trkpt><trkpt lat="42.2001067" lon="13.6583433"><ele>508.0</ele><time>2026-05-02T10:54:32.64Z</time></trkpt><trkpt lat="42.1999617" lon="13.658375"><ele>508.0</ele><time>2026-05-02T10:54:33.639Z</time></trkpt><trkpt lat="42.1998217" lon="13.65841"><ele>508.0</ele><time>2026-05-02T10:54:34.64Z</time></trkpt><trkpt lat="42.1996883" lon="13.6584667"><ele>508.0</ele><time>2026-05-02T10:54:35.64Z</time></trkpt><trkpt lat="42.1995517" lon="13.6585533"><ele>508.0</ele><time>2026-05-02T10:54:36.638Z</time></trkpt><trkpt lat="42.1994217" lon="13.6586617"><ele>508.0</ele><time>2026-05-02T10:54:37.639Z</time></trkpt><trkpt lat="42.1993017" lon="13.65878"><ele>508.0</ele><time>2026-05-02T10:54:38.638Z</time></trkpt><trkpt lat="42.19919" lon="13.6589117"><ele>508.0</ele><time>2026-05-02T10:54:39.639Z</time></trkpt><trkpt lat="42.1990783" lon="13.6590383"><ele>508.0</ele><time>2026-05-02T10:54:40.639Z</time></trkpt><trkpt lat="42.1989733" lon="13.6591533"><ele>505.25</ele><time>2026-05-02T10:54:41.639Z</time></trkpt><trkpt lat="42.198865" lon="13.6592533"><ele>502.5</ele><time>2026-05-02T10:54:42.638Z</time></trkpt><trkpt lat="42.1987433" lon="13.6593067"><ele>499.75</ele><time>2026-05-02T10:54:43.638Z</time></trkpt><trkpt lat="42.1986167" lon="13.6593083"><ele>497.0</ele><time>2026-05-02T10:54:44.638Z</time></trkpt><trkpt lat="42.198495" lon="13.6592833"><ele>497.0</ele><time>2026-05-02T10:54:45.638Z</time></trkpt><trkpt lat="42.1983833" lon="13.65925"><ele>497.00000000000006</ele><time>2026-05-02T10:54:46.639Z</time></trkpt><trkpt lat="42.19829" lon="13.6592083"><ele>497.00000000000006</ele><time>2026-05-02T10:54:47.639Z</time></trkpt><trkpt lat="42.198215" lon="13.6591483"><ele>497.0</ele><time>2026-05-02T10:54:48.638Z</time></trkpt><trkpt lat="42.1981567" lon="13.6590583"><ele>497.0</ele><time>2026-05-02T10:54:49.638Z</time></trkpt><trkpt lat="42.1981167" lon="13.658945"><ele>496.5</ele><time>2026-05-02T10:54:50.638Z</time></trkpt><trkpt lat="42.19808" lon="13.6588033"><ele>496.0</ele><time>2026-05-02T10:54:51.638Z</time></trkpt><trkpt lat="42.19803" lon="13.6586467"><ele>495.5</ele><time>2026-05-02T10:54:52.639Z</time></trkpt><trkpt lat="42.1979733" lon="13.6584933"><ele>495.0</ele><time>2026-05-02T10:54:53.638Z</time></trkpt><trkpt lat="42.1979083" lon="13.6583583"><ele>494.4</ele><time>2026-05-02T10:54:54.639Z</time></trkpt><trkpt lat="42.1978417" lon="13.6582317"><ele>493.8</ele><time>2026-05-02T10:54:55.638Z</time></trkpt><trkpt lat="42.1977717" lon="13.6581117"><ele>493.20000000000005</ele><time>2026-05-02T10:54:56.639Z</time></trkpt><trkpt lat="42.1977033" lon="13.65801"><ele>492.6</ele><time>2026-05-02T10:54:57.639Z</time></trkpt><trkpt lat="42.197635" lon="13.6579017"><ele>492.0</ele><time>2026-05-02T10:54:58.639Z</time></trkpt><trkpt lat="42.197565" lon="13.65779"><ele>492.20000000000005</ele><time>2026-05-02T10:54:59.638Z</time></trkpt><trkpt lat="42.1975" lon="13.657675"><ele>492.40000000000003</ele><time>2026-05-02T10:55:00.638Z</time></trkpt><trkpt lat="42.197425" lon="13.6575583"><ele>492.59999999999997</ele><time>2026-05-02T10:55:01.639Z</time></trkpt><trkpt lat="42.1973517" lon="13.657445"><ele>492.79999999999995</ele><time>2026-05-02T10:55:02.638Z</time></trkpt><trkpt lat="42.1972767" lon="13.6573267"><ele>493.0</ele><time>2026-05-02T10:55:03.639Z</time></trkpt><trkpt lat="42.1971967" lon="13.6572017"><ele>493.0</ele><time>2026-05-02T10:55:04.638Z</time></trkpt><trkpt lat="42.1971183" lon="13.657075"><ele>493.0</ele><time>2026-05-02T10:55:05.639Z</time></trkpt><trkpt lat="42.1970333" lon="13.65695"><ele>493.0</ele><time>2026-05-02T10:55:06.638Z</time></trkpt><trkpt lat="42.1969467" lon="13.65682"><ele>493.0</ele><time>2026-05-02T10:55:07.639Z</time></trkpt><trkpt lat="42.1968683" lon="13.6566983"><ele>493.0</ele><time>2026-05-02T10:55:08.639Z</time></trkpt><trkpt lat="42.1967867" lon="13.6565683"><ele>493.0</ele><time>2026-05-02T10:55:09.639Z</time></trkpt><trkpt lat="42.196705" lon="13.656435"><ele>493.0</ele><time>2026-05-02T10:55:10.639Z</time></trkpt><trkpt lat="42.1966217" lon="13.656305"><ele>493.0</ele><time>2026-05-02T10:55:11.638Z</time></trkpt><trkpt lat="42.1965367" lon="13.6561783"><ele>495.0</ele><time>2026-05-02T10:55:12.639Z</time></trkpt><trkpt lat="42.1964567" lon="13.65605"><ele>497.0</ele><time>2026-05-02T10:55:13.639Z</time></trkpt><trkpt lat="42.19637" lon="13.6559267"><ele>499.0</ele><time>2026-05-02T10:55:14.638Z</time></trkpt><trkpt lat="42.1962867" lon="13.6557933"><ele>501.0</ele><time>2026-05-02T10:55:15.639Z</time></trkpt><trkpt lat="42.1961967" lon="13.655655"><ele>501.0</ele><time>2026-05-02T10:55:16.639Z</time></trkpt><trkpt lat="42.19611" lon="13.65551"><ele>501.0</ele><time>2026-05-02T10:55:17.639Z</time></trkpt><trkpt lat="42.196025" lon="13.6553767"><ele>501.0</ele><time>2026-05-02T10:55:18.639Z</time></trkpt><trkpt lat="42.1959417" lon="13.65525"><ele>501.0</ele><time>2026-05-02T10:55:19.638Z</time></trkpt><trkpt lat="42.195865" lon="13.6551167"><ele>502.0</ele><time>2026-05-02T10:55:20.638Z</time></trkpt><trkpt lat="42.1957883" lon="13.6549833"><ele>503.0</ele><time>2026-05-02T10:55:21.639Z</time></trkpt><trkpt lat="42.19572" lon="13.6548417"><ele>504.0</ele><time>2026-05-02T10:55:22.638Z</time></trkpt><trkpt lat="42.1956633" lon="13.6546833"><ele>505.0</ele><time>2026-05-02T10:55:23.638Z</time></trkpt><trkpt lat="42.19562" lon="13.6545133"><ele>511.0</ele><time>2026-05-02T10:55:24.639Z</time></trkpt><trkpt lat="42.1955967" lon="13.65434"><ele>517.0</ele><time>2026-05-02T10:55:25.638Z</time></trkpt><trkpt lat="42.195605" lon="13.6541567"><ele>523.0</ele><time>2026-05-02T10:55:26.638Z</time></trkpt><trkpt lat="42.195635" lon="13.6539767"><ele>529.0</ele><time>2026-05-02T10:55:27.639Z</time></trkpt><trkpt lat="42.1956683" lon="13.65379"><ele>527.0</ele><time>2026-05-02T10:55:28.638Z</time></trkpt><trkpt lat="42.1956983" lon="13.653605"><ele>525.0</ele><time>2026-05-02T10:55:29.638Z</time></trkpt><trkpt lat="42.1957283" lon="13.6534217"><ele>523.0</ele><time>2026-05-02T10:55:30.639Z</time></trkpt><trkpt lat="42.1957633" lon="13.6532367"><ele>521.0</ele><time>2026-05-02T10:55:31.638Z</time></trkpt><trkpt lat="42.1957967" lon="13.65305"><ele>521.0</ele><time>2026-05-02T10:55:32.638Z</time></trkpt><trkpt lat="42.1958233" lon="13.6528533"><ele>521.0</ele><time>2026-05-02T10:55:33.638Z</time></trkpt><trkpt lat="42.19586" lon="13.65265"><ele>521.0</ele><time>2026-05-02T10:55:34.638Z</time></trkpt><trkpt lat="42.1958933" lon="13.6524333"><ele>522.6666666666666</ele><time>2026-05-02T10:55:35.638Z</time></trkpt><trkpt lat="42.1959317" lon="13.6522067"><ele>524.3333333333334</ele><time>2026-05-02T10:55:36.639Z</time></trkpt><trkpt lat="42.1959683" lon="13.651975"><ele>526.0</ele><time>2026-05-02T10:55:37.638Z</time></trkpt><trkpt lat="42.196005" lon="13.65174"><ele>527.6666666666667</ele><time>2026-05-02T10:55:38.639Z</time></trkpt><trkpt lat="42.19604" lon="13.65151"><ele>529.3333333333334</ele><time>2026-05-02T10:55:39.639Z</time></trkpt><trkpt lat="42.196075" lon="13.6512833"><ele>531.0</ele><time>2026-05-02T10:55:40.638Z</time></trkpt><trkpt lat="42.1961117" lon="13.65106"><ele>532.3333333333334</ele><time>2026-05-02T10:55:41.638Z</time></trkpt><trkpt lat="42.1961467" lon="13.65083"><ele>533.6666666666667</ele><time>2026-05-02T10:55:42.638Z</time></trkpt><trkpt lat="42.1961883" lon="13.6506017"><ele>535.0</ele><time>2026-05-02T10:55:43.639Z</time></trkpt><trkpt lat="42.1962233" lon="13.6503767"><ele>537.3333333333334</ele><time>2026-05-02T10:55:44.639Z</time></trkpt><trkpt lat="42.1962583" lon="13.6501517"><ele>539.6666666666666</ele><time>2026-05-02T10:55:45.639Z</time></trkpt><trkpt lat="42.196295" lon="13.6499267"><ele>542.0</ele><time>2026-05-02T10:55:46.638Z</time></trkpt><trkpt lat="42.1963317" lon="13.64971"><ele>542.0</ele><time>2026-05-02T10:55:47.638Z</time></trkpt><trkpt lat="42.1963617" lon="13.6494983"><ele>542.0</ele><time>2026-05-02T10:55:48.638Z</time></trkpt><trkpt lat="42.1963917" lon="13.6492933"><ele>542.0</ele><time>2026-05-02T10:55:49.638Z</time></trkpt><trkpt lat="42.1964267" lon="13.6490933"><ele>542.5</ele><time>2026-05-02T10:55:50.638Z</time></trkpt><trkpt lat="42.196465" lon="13.648895"><ele>543.0</ele><time>2026-05-02T10:55:51.639Z</time></trkpt><trkpt lat="42.196505" lon="13.6487067"><ele>543.5</ele><time>2026-05-02T10:55:52.639Z</time></trkpt><trkpt lat="42.1965417" lon="13.6485317"><ele>544.0</ele><time>2026-05-02T10:55:53.639Z</time></trkpt><trkpt lat="42.1965733" lon="13.6483667"><ele>544.6</ele><time>2026-05-02T10:55:54.639Z</time></trkpt><trkpt lat="42.1966" lon="13.6482283"><ele>545.2</ele><time>2026-05-02T10:55:55.638Z</time></trkpt><trkpt lat="42.196595" lon="13.64811"><ele>545.8000000000001</ele><time>2026-05-02T10:55:56.638Z</time></trkpt><trkpt lat="42.1965683" lon="13.6480233"><ele>546.4</ele><time>2026-05-02T10:55:57.639Z</time></trkpt><trkpt lat="42.1964517" lon="13.647955"><ele>547.0</ele><time>2026-05-02T10:55:59.639Z</time></trkpt><trkpt lat="42.1963583" lon="13.6479817"><ele>549.75</ele><time>2026-05-02T10:56:00.639Z</time></trkpt><trkpt lat="42.1962717" lon="13.6480467"><ele>552.5</ele><time>2026-05-02T10:56:01.638Z</time></trkpt><trkpt lat="42.19617" lon="13.64816"><ele>555.25</ele><time>2026-05-02T10:56:02.639Z</time></trkpt><trkpt lat="42.1960483" lon="13.6482983"><ele>558.0</ele><time>2026-05-02T10:56:03.638Z</time></trkpt><trkpt lat="42.1959" lon="13.648425"><ele>558.0</ele><time>2026-05-02T10:56:04.638Z</time></trkpt><trkpt lat="42.1957467" lon="13.64854"><ele>558.0</ele><time>2026-05-02T10:56:05.638Z</time></trkpt><trkpt lat="42.195595" lon="13.6486317"><ele>558.0</ele><time>2026-05-02T10:56:06.639Z</time></trkpt><trkpt lat="42.1954533" lon="13.6487217"><ele>560.75</ele><time>2026-05-02T10:56:07.639Z</time></trkpt><trkpt lat="42.195335" lon="13.6488233"><ele>563.5</ele><time>2026-05-02T10:56:08.639Z</time></trkpt><trkpt lat="42.1952317" lon="13.6489467"><ele>566.25</ele><time>2026-05-02T10:56:09.638Z</time></trkpt><trkpt lat="42.1951433" lon="13.6490817"><ele>569.0</ele><time>2026-05-02T10:56:10.638Z</time></trkpt><trkpt lat="42.1950633" lon="13.649235"><ele>569.0</ele><time>2026-05-02T10:56:11.638Z</time></trkpt><trkpt lat="42.19499" lon="13.6494033"><ele>569.0</ele><time>2026-05-02T10:56:12.639Z</time></trkpt><trkpt lat="42.1949217" lon="13.64958"><ele>569.0</ele><time>2026-05-02T10:56:13.639Z</time></trkpt><trkpt lat="42.19484" lon="13.649745"><ele>569.0</ele><time>2026-05-02T10:56:14.639Z</time></trkpt><trkpt lat="42.194745" lon="13.6498883"><ele>574.3333333333333</ele><time>2026-05-02T10:56:15.639Z</time></trkpt><trkpt lat="42.1946383" lon="13.6500167"><ele>579.6666666666666</ele><time>2026-05-02T10:56:16.639Z</time></trkpt><trkpt lat="42.194515" lon="13.65013"><ele>585.0</ele><time>2026-05-02T10:56:17.639Z</time></trkpt><trkpt lat="42.1943767" lon="13.6502417"><ele>587.3333333333334</ele><time>2026-05-02T10:56:18.638Z</time></trkpt><trkpt lat="42.1942333" lon="13.650355"><ele>589.6666666666667</ele><time>2026-05-02T10:56:19.638Z</time></trkpt><trkpt lat="42.194085" lon="13.65047"><ele>592.0</ele><time>2026-05-02T10:56:20.639Z</time></trkpt><trkpt lat="42.1939417" lon="13.6505767"><ele>592.0</ele><time>2026-05-02T10:56:21.638Z</time></trkpt><trkpt lat="42.1937967" lon="13.6506867"><ele>592.0</ele><time>2026-05-02T10:56:22.639Z</time></trkpt><trkpt lat="42.1936683" lon="13.6508017"><ele>592.0</ele><time>2026-05-02T10:56:23.639Z</time></trkpt><trkpt lat="42.193555" lon="13.6509333"><ele>592.0</ele><time>2026-05-02T10:56:24.638Z</time></trkpt><trkpt lat="42.1934533" lon="13.651075"><ele>592.0</ele><time>2026-05-02T10:56:25.639Z</time></trkpt><trkpt lat="42.1933717" lon="13.65122"><ele>592.0</ele><time>2026-05-02T10:56:26.638Z</time></trkpt><trkpt lat="42.1933" lon="13.6513783"><ele>592.0</ele><time>2026-05-02T10:56:27.639Z</time></trkpt><trkpt lat="42.19325" lon="13.651535"><ele>590.75</ele><time>2026-05-02T10:56:28.638Z</time></trkpt><trkpt lat="42.1932383" lon="13.6517133"><ele>589.5</ele><time>2026-05-02T10:56:29.639Z</time></trkpt><trkpt lat="42.1932633" lon="13.6518833"><ele>588.25</ele><time>2026-05-02T10:56:30.639Z</time></trkpt><trkpt lat="42.1933" lon="13.6520717"><ele>587.0</ele><time>2026-05-02T10:56:31.639Z</time></trkpt><trkpt lat="42.1933317" lon="13.6522717"><ele>587.0</ele><time>2026-05-02T10:56:32.639Z</time></trkpt><trkpt lat="42.1933233" lon="13.6524767"><ele>587.0</ele><time>2026-05-02T10:56:33.638Z</time></trkpt><trkpt lat="42.1933033" lon="13.6526817"><ele>587.0</ele><time>2026-05-02T10:56:34.639Z</time></trkpt><trkpt lat="42.1932733" lon="13.6528633"><ele>587.0</ele><time>2026-05-02T10:56:35.638Z</time></trkpt><trkpt lat="42.19324" lon="13.653015"><ele>586.1666666666666</ele><time>2026-05-02T10:56:36.638Z</time></trkpt><trkpt lat="42.1932" lon="13.6531233"><ele>585.3333333333333</ele><time>2026-05-02T10:56:37.638Z</time></trkpt><trkpt lat="42.1931567" lon="13.6531933"><ele>584.5</ele><time>2026-05-02T10:56:38.639Z</time></trkpt><trkpt lat="42.1930883" lon="13.65322"><ele>583.6666666666666</ele><time>2026-05-02T10:56:39.639Z</time></trkpt><trkpt lat="42.1929883" lon="13.6531283"><ele>582.8333333333334</ele><time>2026-05-02T10:56:41.638Z</time></trkpt><trkpt lat="42.19297" lon="13.65303"><ele>582.0</ele><time>2026-05-02T10:56:42.638Z</time></trkpt><trkpt lat="42.1929933" lon="13.6528967"><ele>589.75</ele><time>2026-05-02T10:56:43.639Z</time></trkpt><trkpt lat="42.1930283" lon="13.6527333"><ele>597.5</ele><time>2026-05-02T10:56:44.639Z</time></trkpt><trkpt lat="42.1930617" lon="13.652555"><ele>605.25</ele><time>2026-05-02T10:56:45.639Z</time></trkpt><trkpt lat="42.1930783" lon="13.6523967"><ele>613.0</ele><time>2026-05-02T10:56:46.638Z</time></trkpt><trkpt lat="42.1930717" lon="13.6522517"><ele>613.0</ele><time>2026-05-02T10:56:47.638Z</time></trkpt><trkpt lat="42.19303" lon="13.6521583"><ele>613.0</ele><time>2026-05-02T10:56:48.638Z</time></trkpt><trkpt lat="42.19297" lon="13.6521133"><ele>613.0</ele><time>2026-05-02T10:56:49.638Z</time></trkpt><trkpt lat="42.1929067" lon="13.6521067"><ele>613.0</ele><time>2026-05-02T10:56:50.638Z</time></trkpt><trkpt lat="42.1928533" lon="13.6522117"><ele>613.0</ele><time>2026-05-02T10:56:51.639Z</time></trkpt><trkpt lat="42.1928167" lon="13.6523567"><ele>613.0</ele><time>2026-05-02T10:56:52.638Z</time></trkpt><trkpt lat="42.192785" lon="13.65252"><ele>613.0</ele><time>2026-05-02T10:56:53.638Z</time></trkpt><trkpt lat="42.1927367" lon="13.6526717"><ele>613.0</ele><time>2026-05-02T10:56:54.639Z</time></trkpt><trkpt lat="42.1926567" lon="13.65279"><ele>613.0</ele><time>2026-05-02T10:56:55.638Z</time></trkpt><trkpt lat="42.192565" lon="13.6528783"><ele>613.0</ele><time>2026-05-02T10:56:56.639Z</time></trkpt><trkpt lat="42.19247" lon="13.6529267"><ele>613.0</ele><time>2026-05-02T10:56:57.638Z</time></trkpt><trkpt lat="42.1923983" lon="13.652915"><ele>613.0</ele><time>2026-05-02T10:56:58.638Z</time></trkpt><trkpt lat="42.1923583" lon="13.65278"><ele>613.0</ele><time>2026-05-02T10:57:00.639Z</time></trkpt><trkpt lat="42.19239" lon="13.6526867"><ele>613.0</ele><time>2026-05-02T10:57:01.638Z</time></trkpt><trkpt lat="42.1924567" lon="13.6526183"><ele>613.0</ele><time>2026-05-02T10:57:02.638Z</time></trkpt><trkpt lat="42.1925417" lon="13.6525467"><ele>613.0</ele><time>2026-05-02T10:57:03.639Z</time></trkpt><trkpt lat="42.1926167" lon="13.652455"><ele>613.0</ele><time>2026-05-02T10:57:04.638Z</time></trkpt><trkpt lat="42.1926567" lon="13.652345"><ele>613.0</ele><time>2026-05-02T10:57:05.638Z</time></trkpt><trkpt lat="42.1926533" lon="13.6522467"><ele>613.0</ele><time>2026-05-02T10:57:06.638Z</time></trkpt><trkpt lat="42.1925267" lon="13.6521817"><ele>613.0</ele><time>2026-05-02T10:57:08.638Z</time></trkpt><trkpt lat="42.1924167" lon="13.6522667"><ele>613.0</ele><time>2026-05-02T10:57:09.639Z</time></trkpt><trkpt lat="42.1923" lon="13.6523983"><ele>617.6666666666667</ele><time>2026-05-02T10:57:10.639Z</time></trkpt><trkpt lat="42.1921767" lon="13.65253"><ele>622.3333333333334</ele><time>2026-05-02T10:57:11.639Z</time></trkpt><trkpt lat="42.192045" lon="13.6526467"><ele>627.0</ele><time>2026-05-02T10:57:12.639Z</time></trkpt><trkpt lat="42.1919" lon="13.6527233"><ele>627.0</ele><time>2026-05-02T10:57:13.639Z</time></trkpt><trkpt lat="42.19175" lon="13.6527617"><ele>627.0</ele><time>2026-05-02T10:57:14.638Z</time></trkpt><trkpt lat="42.1915833" lon="13.6527883"><ele>627.0</ele><time>2026-05-02T10:57:15.638Z</time></trkpt><trkpt lat="42.1914283" lon="13.6528283"><ele>628.0</ele><time>2026-05-02T10:57:16.639Z</time></trkpt><trkpt lat="42.19128" lon="13.6528933"><ele>629.0</ele><time>2026-05-02T10:57:17.639Z</time></trkpt><trkpt lat="42.1911467" lon="13.6529983"><ele>630.0</ele><time>2026-05-02T10:57:18.639Z</time></trkpt><trkpt lat="42.191015" lon="13.6531167"><ele>630.0</ele><time>2026-05-02T10:57:19.638Z</time></trkpt><trkpt lat="42.1908817" lon="13.6532533"><ele>630.0</ele><time>2026-05-02T10:57:20.639Z</time></trkpt><trkpt lat="42.1907233" lon="13.6533683"><ele>630.0</ele><time>2026-05-02T10:57:21.638Z</time></trkpt><trkpt lat="42.190535" lon="13.65347"><ele>632.3333333333334</ele><time>2026-05-02T10:57:22.638Z</time></trkpt><trkpt lat="42.1903467" lon="13.653565"><ele>634.6666666666667</ele><time>2026-05-02T10:57:23.639Z</time></trkpt><trkpt lat="42.190165" lon="13.6536367"><ele>637.0</ele><time>2026-05-02T10:57:24.638Z</time></trkpt><trkpt lat="42.190005" lon="13.6536983"><ele>637.0</ele><time>2026-05-02T10:57:25.638Z</time></trkpt><trkpt lat="42.1898833" lon="13.6537567"><ele>637.0</ele><time>2026-05-02T10:57:26.638Z</time></trkpt><trkpt lat="42.1897933" lon="13.653815"><ele>637.0</ele><time>2026-05-02T10:57:27.639Z</time></trkpt><trkpt lat="42.18973" lon="13.6538867"><ele>637.0</ele><time>2026-05-02T10:57:28.639Z</time></trkpt><trkpt lat="42.1896917" lon="13.653975"><ele>637.0</ele><time>2026-05-02T10:57:29.638Z</time></trkpt><trkpt lat="42.1896717" lon="13.65409"><ele>638.5</ele><time>2026-05-02T10:57:30.639Z</time></trkpt><trkpt lat="42.18969" lon="13.6542383"><ele>640.0</ele><time>2026-05-02T10:57:31.638Z</time></trkpt><trkpt lat="42.1897533" lon="13.654415"><ele>641.5</ele><time>2026-05-02T10:57:32.639Z</time></trkpt><trkpt lat="42.189835" lon="13.6546"><ele>643.0</ele><time>2026-05-02T10:57:33.639Z</time></trkpt><trkpt lat="42.1899117" lon="13.6547683"><ele>643.0</ele><time>2026-05-02T10:57:34.639Z</time></trkpt><trkpt lat="42.1899617" lon="13.6549083"><ele>643.0</ele><time>2026-05-02T10:57:35.638Z</time></trkpt><trkpt lat="42.18998" lon="13.6550333"><ele>643.0</ele><time>2026-05-02T10:57:36.639Z</time></trkpt><trkpt lat="42.189965" lon="13.6551417"><ele>643.0</ele><time>2026-05-02T10:57:37.638Z</time></trkpt><trkpt lat="42.1899183" lon="13.6552333"><ele>643.0</ele><time>2026-05-02T10:57:38.638Z</time></trkpt><trkpt lat="42.189835" lon="13.65531"><ele>646.0</ele><time>2026-05-02T10:57:39.639Z</time></trkpt><trkpt lat="42.1897083" lon="13.6553767"><ele>649.0</ele><time>2026-05-02T10:57:40.638Z</time></trkpt><trkpt lat="42.1895567" lon="13.6554417"><ele>652.0</ele><time>2026-05-02T10:57:41.639Z</time></trkpt><trkpt lat="42.1894067" lon="13.6555183"><ele>652.0</ele><time>2026-05-02T10:57:42.639Z</time></trkpt><trkpt lat="42.1892467" lon="13.6556067"><ele>652.0</ele><time>2026-05-02T10:57:43.638Z</time></trkpt><trkpt lat="42.1890783" lon="13.6556867"><ele>652.0</ele><time>2026-05-02T10:57:44.639Z</time></trkpt><trkpt lat="42.188915" lon="13.65576"><ele>654.3333333333334</ele><time>2026-05-02T10:57:45.639Z</time></trkpt><trkpt lat="42.188755" lon="13.6558217"><ele>656.6666666666666</ele><time>2026-05-02T10:57:46.638Z</time></trkpt><trkpt lat="42.1886067" lon="13.655875"><ele>659.0</ele><time>2026-05-02T10:57:47.638Z</time></trkpt><trkpt lat="42.1884717" lon="13.655925"><ele>659.0</ele><time>2026-05-02T10:57:48.637Z</time></trkpt><trkpt lat="42.1883517" lon="13.6559733"><ele>659.0</ele><time>2026-05-02T10:57:49.637Z</time></trkpt><trkpt lat="42.1882583" lon="13.65602"><ele>659.0</ele><time>2026-05-02T10:57:50.637Z</time></trkpt><trkpt lat="42.1881817" lon="13.656075"><ele>659.0</ele><time>2026-05-02T10:57:51.637Z</time></trkpt><trkpt lat="42.1881417" lon="13.65615"><ele>659.0</ele><time>2026-05-02T10:57:52.638Z</time></trkpt><trkpt lat="42.188125" lon="13.6562333"><ele>659.0</ele><time>2026-05-02T10:57:53.637Z</time></trkpt><trkpt lat="42.1881483" lon="13.6563167"><ele>660.5</ele><time>2026-05-02T10:57:54.637Z</time></trkpt><trkpt lat="42.1882117" lon="13.65638"><ele>662.0</ele><time>2026-05-02T10:57:55.637Z</time></trkpt><trkpt lat="42.1883433" lon="13.6563783"><ele>663.5</ele><time>2026-05-02T10:57:56.637Z</time></trkpt><trkpt lat="42.1884933" lon="13.6563483"><ele>665.0</ele><time>2026-05-02T10:57:57.637Z</time></trkpt><trkpt lat="42.1886533" lon="13.6563183"><ele>665.0</ele><time>2026-05-02T10:57:58.638Z</time></trkpt><trkpt lat="42.188815" lon="13.6562983"><ele>665.0</ele><time>2026-05-02T10:57:59.637Z</time></trkpt><trkpt lat="42.188975" lon="13.656285"><ele>665.0</ele><time>2026-05-02T10:58:00.638Z</time></trkpt><trkpt lat="42.1891217" lon="13.6562717"><ele>664.0</ele><time>2026-05-02T10:58:01.637Z</time></trkpt><trkpt lat="42.1892483" lon="13.6562683"><ele>663.0</ele><time>2026-05-02T10:58:02.637Z</time></trkpt><trkpt lat="42.1893567" lon="13.6562667"><ele>662.0</ele><time>2026-05-02T10:58:03.638Z</time></trkpt><trkpt lat="42.1894317" lon="13.65629"><ele>661.0</ele><time>2026-05-02T10:58:04.638Z</time></trkpt><trkpt lat="42.1894867" lon="13.6563433"><ele>660.0</ele><time>2026-05-02T10:58:05.638Z</time></trkpt><trkpt lat="42.1894883" lon="13.6564917"><ele>660.0</ele><time>2026-05-02T10:58:07.638Z</time></trkpt><trkpt lat="42.1894283" lon="13.6565517"><ele>660.0</ele><time>2026-05-02T10:58:08.638Z</time></trkpt><trkpt lat="42.189335" lon="13.6565833"><ele>660.0</ele><time>2026-05-02T10:58:09.638Z</time></trkpt><trkpt lat="42.189205" lon="13.65658"><ele>660.0</ele><time>2026-05-02T10:58:10.637Z</time></trkpt><trkpt lat="42.18905" lon="13.6565667"><ele>661.6666666666666</ele><time>2026-05-02T10:58:11.638Z</time></trkpt><trkpt lat="42.1888883" lon="13.6565583"><ele>663.3333333333333</ele><time>2026-05-02T10:58:12.638Z</time></trkpt><trkpt lat="42.188715" lon="13.656555"><ele>665.0</ele><time>2026-05-02T10:58:13.638Z</time></trkpt><trkpt lat="42.1885417" lon="13.6565633"><ele>665.0</ele><time>2026-05-02T10:58:14.638Z</time></trkpt><trkpt lat="42.1883667" lon="13.6565717"><ele>665.0</ele><time>2026-05-02T10:58:15.638Z</time></trkpt><trkpt lat="42.1881933" lon="13.6565917"><ele>665.0</ele><time>2026-05-02T10:58:16.638Z</time></trkpt><trkpt lat="42.18802" lon="13.65661"><ele>666.3333333333333</ele><time>2026-05-02T10:58:17.637Z</time></trkpt><trkpt lat="42.1878617" lon="13.6566383"><ele>667.6666666666666</ele><time>2026-05-02T10:58:18.638Z</time></trkpt><trkpt lat="42.1876967" lon="13.6566683"><ele>669.0</ele><time>2026-05-02T10:58:19.637Z</time></trkpt><trkpt lat="42.18753" lon="13.65671"><ele>669.0</ele><time>2026-05-02T10:58:20.637Z</time></trkpt><trkpt lat="42.1873633" lon="13.6567467"><ele>669.0</ele><time>2026-05-02T10:58:21.638Z</time></trkpt><trkpt lat="42.1872033" lon="13.656785"><ele>669.0</ele><time>2026-05-02T10:58:22.637Z</time></trkpt><trkpt lat="42.1870517" lon="13.65682"><ele>671.3333333333334</ele><time>2026-05-02T10:58:23.637Z</time></trkpt><trkpt lat="42.1868967" lon="13.656855"><ele>673.6666666666667</ele><time>2026-05-02T10:58:24.638Z</time></trkpt><trkpt lat="42.186735" lon="13.6568917"><ele>676.0</ele><time>2026-05-02T10:58:25.638Z</time></trkpt><trkpt lat="42.1865633" lon="13.65694"><ele>682.6666666666667</ele><time>2026-05-02T10:58:26.637Z</time></trkpt><trkpt lat="42.1863833" lon="13.6569833"><ele>689.3333333333334</ele><time>2026-05-02T10:58:27.637Z</time></trkpt><trkpt lat="42.186205" lon="13.657025"><ele>696.0</ele><time>2026-05-02T10:58:28.637Z</time></trkpt><trkpt lat="42.1860283" lon="13.6570633"><ele>696.0</ele><time>2026-05-02T10:58:29.638Z</time></trkpt><trkpt lat="42.1858567" lon="13.6571067"><ele>696.0</ele><time>2026-05-02T10:58:30.638Z</time></trkpt><trkpt lat="42.185685" lon="13.65715"><ele>696.0</ele><time>2026-05-02T10:58:31.637Z</time></trkpt><trkpt lat="42.1855233" lon="13.657195"><ele>694.0</ele><time>2026-05-02T10:58:32.637Z</time></trkpt><trkpt lat="42.1853717" lon="13.657245"><ele>692.0</ele><time>2026-05-02T10:58:33.637Z</time></trkpt><trkpt lat="42.1852283" lon="13.65733"><ele>690.0</ele><time>2026-05-02T10:58:34.637Z</time></trkpt><trkpt lat="42.1850783" lon="13.657445"><ele>690.0</ele><time>2026-05-02T10:58:35.637Z</time></trkpt><trkpt lat="42.1849367" lon="13.65759"><ele>690.0</ele><time>2026-05-02T10:58:36.637Z</time></trkpt><trkpt lat="42.1848" lon="13.657735"><ele>690.0</ele><time>2026-05-02T10:58:37.638Z</time></trkpt><trkpt lat="42.184665" lon="13.6578867"><ele>688.6666666666666</ele><time>2026-05-02T10:58:38.638Z</time></trkpt><trkpt lat="42.18453" lon="13.6580283"><ele>687.3333333333333</ele><time>2026-05-02T10:58:39.638Z</time></trkpt><trkpt lat="42.1843867" lon="13.6581667"><ele>686.0</ele><time>2026-05-02T10:58:40.637Z</time></trkpt><trkpt lat="42.1842467" lon="13.658305"><ele>686.0</ele><time>2026-05-02T10:58:41.638Z</time></trkpt><trkpt lat="42.18409" lon="13.65844"><ele>686.0</ele><time>2026-05-02T10:58:42.638Z</time></trkpt><trkpt lat="42.1839233" lon="13.6585633"><ele>686.0</ele><time>2026-05-02T10:58:43.637Z</time></trkpt><trkpt lat="42.1837483" lon="13.6586767"><ele>684.3333333333333</ele><time>2026-05-02T10:58:44.638Z</time></trkpt><trkpt lat="42.1835717" lon="13.6587817"><ele>682.6666666666666</ele><time>2026-05-02T10:58:45.638Z</time></trkpt><trkpt lat="42.1833817" lon="13.6588917"><ele>681.0</ele><time>2026-05-02T10:58:46.638Z</time></trkpt><trkpt lat="42.1832017" lon="13.6590033"><ele>683.3333333333334</ele><time>2026-05-02T10:58:47.637Z</time></trkpt><trkpt lat="42.1830167" lon="13.6590967"><ele>685.6666666666667</ele><time>2026-05-02T10:58:48.637Z</time></trkpt><trkpt lat="42.1828433" lon="13.65919"><ele>688.0</ele><time>2026-05-02T10:58:49.638Z</time></trkpt><trkpt lat="42.1826717" lon="13.6592833"><ele>688.0</ele><time>2026-05-02T10:58:50.637Z</time></trkpt><trkpt lat="42.182505" lon="13.6593833"><ele>688.0</ele><time>2026-05-02T10:58:51.637Z</time></trkpt><trkpt lat="42.1823317" lon="13.659485"><ele>688.0</ele><time>2026-05-02T10:58:52.637Z</time></trkpt><trkpt lat="42.18217" lon="13.6595933"><ele>687.0</ele><time>2026-05-02T10:58:53.637Z</time></trkpt><trkpt lat="42.1820117" lon="13.6597233"><ele>686.0</ele><time>2026-05-02T10:58:54.637Z</time></trkpt><trkpt lat="42.1818533" lon="13.6598733"><ele>685.0</ele><time>2026-05-02T10:58:55.637Z</time></trkpt><trkpt lat="42.1816983" lon="13.660045"><ele>685.0</ele><time>2026-05-02T10:58:56.637Z</time></trkpt><trkpt lat="42.181545" lon="13.66022"><ele>685.0</ele><time>2026-05-02T10:58:57.637Z</time></trkpt><trkpt lat="42.1813917" lon="13.6603917"><ele>685.0</ele><time>2026-05-02T10:58:58.637Z</time></trkpt><trkpt lat="42.1812583" lon="13.66056"><ele>686.3333333333334</ele><time>2026-05-02T10:58:59.637Z</time></trkpt><trkpt lat="42.18113" lon="13.66073"><ele>687.6666666666666</ele><time>2026-05-02T10:59:00.637Z</time></trkpt><trkpt lat="42.1810117" lon="13.6608933"><ele>689.0</ele><time>2026-05-02T10:59:01.638Z</time></trkpt><trkpt lat="42.180905" lon="13.6610583"><ele>689.3333333333333</ele><time>2026-05-02T10:59:02.637Z</time></trkpt><trkpt lat="42.1807967" lon="13.66122"><ele>689.6666666666666</ele><time>2026-05-02T10:59:03.637Z</time></trkpt><trkpt lat="42.1806917" lon="13.66138"><ele>690.0</ele><time>2026-05-02T10:59:04.638Z</time></trkpt><trkpt lat="42.1805733" lon="13.6615183"><ele>690.0</ele><time>2026-05-02T10:59:05.638Z</time></trkpt><trkpt lat="42.180435" lon="13.661645"><ele>690.0</ele><time>2026-05-02T10:59:06.638Z</time></trkpt><trkpt lat="42.1802917" lon="13.6617883"><ele>690.0</ele><time>2026-05-02T10:59:07.638Z</time></trkpt><trkpt lat="42.1801383" lon="13.6619283"><ele>688.6666666666666</ele><time>2026-05-02T10:59:08.637Z</time></trkpt><trkpt lat="42.1799917" lon="13.6620767"><ele>687.3333333333333</ele><time>2026-05-02T10:59:09.638Z</time></trkpt><trkpt lat="42.1798517" lon="13.6622317"><ele>686.0</ele><time>2026-05-02T10:59:10.637Z</time></trkpt><trkpt lat="42.179715" lon="13.6623867"><ele>686.0</ele><time>2026-05-02T10:59:11.638Z</time></trkpt><trkpt lat="42.1795883" lon="13.6625483"><ele>686.0</ele><time>2026-05-02T10:59:12.638Z</time></trkpt><trkpt lat="42.1794667" lon="13.6627167"><ele>686.0</ele><time>2026-05-02T10:59:13.637Z</time></trkpt><trkpt lat="42.17935" lon="13.6628783"><ele>686.3333333333333</ele><time>2026-05-02T10:59:14.638Z</time></trkpt><trkpt lat="42.1792417" lon="13.6630267"><ele>686.6666666666666</ele><time>2026-05-02T10:59:15.637Z</time></trkpt><trkpt lat="42.179135" lon="13.6631717"><ele>687.0</ele><time>2026-05-02T10:59:16.638Z</time></trkpt><trkpt lat="42.1790367" lon="13.6633167"><ele>688.25</ele><time>2026-05-02T10:59:17.637Z</time></trkpt><trkpt lat="42.17893" lon="13.6634567"><ele>689.5</ele><time>2026-05-02T10:59:18.638Z</time></trkpt><trkpt lat="42.17882" lon="13.6635883"><ele>690.75</ele><time>2026-05-02T10:59:19.638Z</time></trkpt><trkpt lat="42.1787083" lon="13.6637167"><ele>692.0</ele><time>2026-05-02T10:59:20.638Z</time></trkpt><trkpt lat="42.17859" lon="13.6638417"><ele>692.6666666666666</ele><time>2026-05-02T10:59:21.638Z</time></trkpt><trkpt lat="42.1784617" lon="13.6639633"><ele>693.3333333333334</ele><time>2026-05-02T10:59:22.638Z</time></trkpt><trkpt lat="42.1783267" lon="13.66407"><ele>694.0</ele><time>2026-05-02T10:59:23.637Z</time></trkpt><trkpt lat="42.1781933" lon="13.6641783"><ele>695.3333333333334</ele><time>2026-05-02T10:59:24.638Z</time></trkpt><trkpt lat="42.1780583" lon="13.6642783"><ele>696.6666666666666</ele><time>2026-05-02T10:59:25.638Z</time></trkpt><trkpt lat="42.17792" lon="13.6643733"><ele>698.0</ele><time>2026-05-02T10:59:26.638Z</time></trkpt><trkpt lat="42.1777817" lon="13.6644717"><ele>699.3333333333333</ele><time>2026-05-02T10:59:27.637Z</time></trkpt><trkpt lat="42.17765" lon="13.6645667"><ele>700.6666666666666</ele><time>2026-05-02T10:59:28.638Z</time></trkpt><trkpt lat="42.1775217" lon="13.6646767"><ele>702.0</ele><time>2026-05-02T10:59:29.637Z</time></trkpt><trkpt lat="42.1773933" lon="13.664795"><ele>705.0</ele><time>2026-05-02T10:59:30.637Z</time></trkpt><trkpt lat="42.1772733" lon="13.6649367"><ele>708.0</ele><time>2026-05-02T10:59:31.638Z</time></trkpt><trkpt lat="42.1771617" lon="13.6650967"><ele>711.0</ele><time>2026-05-02T10:59:32.637Z</time></trkpt><trkpt lat="42.17705" lon="13.6652533"><ele>712.0</ele><time>2026-05-02T10:59:33.637Z</time></trkpt><trkpt lat="42.1769317" lon="13.6654117"><ele>713.0</ele><time>2026-05-02T10:59:34.638Z</time></trkpt><trkpt lat="42.1768117" lon="13.6655483"><ele>714.0</ele><time>2026-05-02T10:59:35.637Z</time></trkpt><trkpt lat="42.1767" lon="13.6656683"><ele>714.0</ele><time>2026-05-02T10:59:36.637Z</time></trkpt><trkpt lat="42.176605" lon="13.665775"><ele>714.0</ele><time>2026-05-02T10:59:37.638Z</time></trkpt><trkpt lat="42.17642" lon="13.6659567"><ele>714.0</ele><time>2026-05-02T10:59:39.637Z</time></trkpt><trkpt lat="42.17633" lon="13.66603"><ele>716.6</ele><time>2026-05-02T10:59:40.638Z</time></trkpt><trkpt lat="42.176245" lon="13.66608"><ele>719.2</ele><time>2026-05-02T10:59:41.637Z</time></trkpt><trkpt lat="42.1761533" lon="13.6660983"><ele>721.8000000000001</ele><time>2026-05-02T10:59:42.637Z</time></trkpt><trkpt lat="42.176035" lon="13.6660783"><ele>724.4000000000001</ele><time>2026-05-02T10:59:43.638Z</time></trkpt><trkpt lat="42.1758967" lon="13.6660283"><ele>727.0</ele><time>2026-05-02T10:59:44.637Z</time></trkpt><trkpt lat="42.1757467" lon="13.6659733"><ele>729.25</ele><time>2026-05-02T10:59:45.638Z</time></trkpt><trkpt lat="42.175605" lon="13.6659217"><ele>731.5</ele><time>2026-05-02T10:59:46.638Z</time></trkpt><trkpt lat="42.1754783" lon="13.665865"><ele>733.75</ele><time>2026-05-02T10:59:47.638Z</time></trkpt><trkpt lat="42.1753483" lon="13.6657817"><ele>736.0</ele><time>2026-05-02T10:59:48.638Z</time></trkpt><trkpt lat="42.1752133" lon="13.6656917"><ele>736.0</ele><time>2026-05-02T10:59:49.638Z</time></trkpt><trkpt lat="42.17507" lon="13.66559"><ele>736.0</ele><time>2026-05-02T10:59:50.637Z</time></trkpt><trkpt lat="42.174925" lon="13.6654917"><ele>736.0</ele><time>2026-05-02T10:59:51.638Z</time></trkpt><trkpt lat="42.1747767" lon="13.6653917"><ele>739.0</ele><time>2026-05-02T10:59:52.637Z</time></trkpt><trkpt lat="42.17461" lon="13.6652867"><ele>742.0</ele><time>2026-05-02T10:59:53.638Z</time></trkpt><trkpt lat="42.174445" lon="13.66517"><ele>745.0</ele><time>2026-05-02T10:59:54.638Z</time></trkpt><trkpt lat="42.17429" lon="13.665065"><ele>746.3333333333334</ele><time>2026-05-02T10:59:55.638Z</time></trkpt><trkpt lat="42.1741483" lon="13.6649717"><ele>747.6666666666666</ele><time>2026-05-02T10:59:56.637Z</time></trkpt><trkpt lat="42.1740083" lon="13.66488"><ele>749.0</ele><time>2026-05-02T10:59:57.638Z</time></trkpt><trkpt lat="42.17387" lon="13.6647883"><ele>752.75</ele><time>2026-05-02T10:59:58.637Z</time></trkpt><trkpt lat="42.1737333" lon="13.6646967"><ele>756.5</ele><time>2026-05-02T10:59:59.638Z</time></trkpt><trkpt lat="42.1736017" lon="13.6646117"><ele>760.25</ele><time>2026-05-02T11:00:00.637Z</time></trkpt><trkpt lat="42.1734667" lon="13.6645217"><ele>764.0</ele><time>2026-05-02T11:00:01.637Z</time></trkpt><trkpt lat="42.1733317" lon="13.6644333"><ele>765.3333333333333</ele><time>2026-05-02T11:00:02.638Z</time></trkpt><trkpt lat="42.1731933" lon="13.6643383"><ele>766.6666666666666</ele><time>2026-05-02T11:00:03.638Z</time></trkpt><trkpt lat="42.1730567" lon="13.6642317"><ele>768.0</ele><time>2026-05-02T11:00:04.637Z</time></trkpt><trkpt lat="42.1729183" lon="13.66412"><ele>771.3333333333333</ele><time>2026-05-02T11:00:05.638Z</time></trkpt><trkpt lat="42.1727817" lon="13.6639917"><ele>774.6666666666666</ele><time>2026-05-02T11:00:06.638Z</time></trkpt><trkpt lat="42.1726483" lon="13.663865"><ele>778.0</ele><time>2026-05-02T11:00:07.638Z</time></trkpt><trkpt lat="42.17252" lon="13.6637333"><ele>780.0</ele><time>2026-05-02T11:00:08.637Z</time></trkpt><trkpt lat="42.1723967" lon="13.663605"><ele>782.0</ele><time>2026-05-02T11:00:09.638Z</time></trkpt><trkpt lat="42.1722967" lon="13.663475"><ele>784.0</ele><time>2026-05-02T11:00:10.638Z</time></trkpt><trkpt lat="42.1722067" lon="13.6633283"><ele>786.0</ele><time>2026-05-02T11:00:11.638Z</time></trkpt><trkpt lat="42.1721333" lon="13.6631533"><ele>787.0</ele><time>2026-05-02T11:00:12.638Z</time></trkpt><trkpt lat="42.172065" lon="13.66296"><ele>788.0</ele><time>2026-05-02T11:00:13.638Z</time></trkpt><trkpt lat="42.1719917" lon="13.66276"><ele>789.0</ele><time>2026-05-02T11:00:14.637Z</time></trkpt><trkpt lat="42.17191" lon="13.6625717"><ele>790.0</ele><time>2026-05-02T11:00:15.637Z</time></trkpt><trkpt lat="42.1718283" lon="13.6623883"><ele>791.0</ele><time>2026-05-02T11:00:16.637Z</time></trkpt><trkpt lat="42.1717467" lon="13.6622067"><ele>792.0</ele><time>2026-05-02T11:00:17.637Z</time></trkpt><trkpt lat="42.1716633" lon="13.662035"><ele>796.0</ele><time>2026-05-02T11:00:18.637Z</time></trkpt><trkpt lat="42.17158" lon="13.6618683"><ele>800.0</ele><time>2026-05-02T11:00:19.637Z</time></trkpt><trkpt lat="42.1715133" lon="13.6617133"><ele>804.0</ele><time>2026-05-02T11:00:20.638Z</time></trkpt><trkpt lat="42.1714517" lon="13.6615717"><ele>808.0</ele><time>2026-05-02T11:00:21.638Z</time></trkpt><trkpt lat="42.171385" lon="13.6614317"><ele>810.75</ele><time>2026-05-02T11:00:22.638Z</time></trkpt><trkpt lat="42.1713183" lon="13.6612833"><ele>813.5</ele><time>2026-05-02T11:00:23.637Z</time></trkpt><trkpt lat="42.1712617" lon="13.6611483"><ele>816.25</ele><time>2026-05-02T11:00:24.638Z</time></trkpt><trkpt lat="42.171195" lon="13.66103"><ele>819.0</ele><time>2026-05-02T11:00:25.637Z</time></trkpt><trkpt lat="42.171105" lon="13.6609267"><ele>819.0</ele><time>2026-05-02T11:00:26.637Z</time></trkpt><trkpt lat="42.1709817" lon="13.66086"><ele>819.0</ele><time>2026-05-02T11:00:27.638Z</time></trkpt><trkpt lat="42.1708383" lon="13.6608"><ele>819.0</ele><time>2026-05-02T11:00:28.637Z</time></trkpt><trkpt lat="42.170685" lon="13.6607483"><ele>819.0</ele><time>2026-05-02T11:00:29.638Z</time></trkpt><trkpt lat="42.1705333" lon="13.660695"><ele>825.3333333333333</ele><time>2026-05-02T11:00:30.638Z</time></trkpt><trkpt lat="42.170385" lon="13.6606283"><ele>831.6666666666666</ele><time>2026-05-02T11:00:31.638Z</time></trkpt><trkpt lat="42.1702433" lon="13.6605433"><ele>838.0</ele><time>2026-05-02T11:00:32.638Z</time></trkpt><trkpt lat="42.170115" lon="13.6604583"><ele>838.0</ele><time>2026-05-02T11:00:33.637Z</time></trkpt><trkpt lat="42.1700033" lon="13.6603867"><ele>838.0</ele><time>2026-05-02T11:00:34.638Z</time></trkpt><trkpt lat="42.1698967" lon="13.6603183"><ele>838.0</ele><time>2026-05-02T11:00:35.638Z</time></trkpt><trkpt lat="42.1697867" lon="13.6602883"><ele>838.0</ele><time>2026-05-02T11:00:36.638Z</time></trkpt><trkpt lat="42.1696533" lon="13.6602633"><ele>843.0</ele><time>2026-05-02T11:00:37.638Z</time></trkpt><trkpt lat="42.1695133" lon="13.6602283"><ele>848.0</ele><time>2026-05-02T11:00:38.637Z</time></trkpt><trkpt lat="42.1693717" lon="13.6601917"><ele>853.0</ele><time>2026-05-02T11:00:39.638Z</time></trkpt><trkpt lat="42.1692383" lon="13.6601417"><ele>858.0</ele><time>2026-05-02T11:00:40.637Z</time></trkpt><trkpt lat="42.169125" lon="13.6600833"><ele>860.8</ele><time>2026-05-02T11:00:41.638Z</time></trkpt><trkpt lat="42.1690167" lon="13.66003"><ele>863.5999999999999</ele><time>2026-05-02T11:00:42.637Z</time></trkpt><trkpt lat="42.168915" lon="13.6599783"><ele>866.4000000000001</ele><time>2026-05-02T11:00:43.638Z</time></trkpt><trkpt lat="42.168805" lon="13.6599567"><ele>869.2</ele><time>2026-05-02T11:00:44.637Z</time></trkpt><trkpt lat="42.168695" lon="13.65998"><ele>872.0</ele><time>2026-05-02T11:00:45.637Z</time></trkpt><trkpt lat="42.16858" lon="13.66002"><ele>872.0</ele><time>2026-05-02T11:00:46.637Z</time></trkpt><trkpt lat="42.168455" lon="13.660085"><ele>872.0</ele><time>2026-05-02T11:00:47.638Z</time></trkpt><trkpt lat="42.1683183" lon="13.660165"><ele>872.0</ele><time>2026-05-02T11:00:48.637Z</time></trkpt><trkpt lat="42.1681733" lon="13.6602667"><ele>872.0</ele><time>2026-05-02T11:00:49.638Z</time></trkpt><trkpt lat="42.168035" lon="13.6603767"><ele>876.3333333333334</ele><time>2026-05-02T11:00:50.637Z</time></trkpt><trkpt lat="42.167895" lon="13.6604983"><ele>880.6666666666667</ele><time>2026-05-02T11:00:51.638Z</time></trkpt><trkpt lat="42.1677483" lon="13.6606283"><ele>885.0</ele><time>2026-05-02T11:00:52.638Z</time></trkpt><trkpt lat="42.1676133" lon="13.6607483"><ele>885.0</ele><time>2026-05-02T11:00:53.637Z</time></trkpt><trkpt lat="42.1674717" lon="13.6608617"><ele>885.0</ele><time>2026-05-02T11:00:54.638Z</time></trkpt><trkpt lat="42.1673333" lon="13.660955"><ele>885.0</ele><time>2026-05-02T11:00:55.638Z</time></trkpt><trkpt lat="42.1671983" lon="13.6610517"><ele>888.6666666666667</ele><time>2026-05-02T11:00:56.638Z</time></trkpt><trkpt lat="42.1670667" lon="13.6611533"><ele>892.3333333333334</ele><time>2026-05-02T11:00:57.638Z</time></trkpt><trkpt lat="42.1669433" lon="13.6612783"><ele>896.0</ele><time>2026-05-02T11:00:58.638Z</time></trkpt><trkpt lat="42.166825" lon="13.661405"><ele>896.0</ele><time>2026-05-02T11:00:59.638Z</time></trkpt><trkpt lat="42.1667233" lon="13.66154"><ele>896.0</ele><time>2026-05-02T11:01:00.637Z</time></trkpt><trkpt lat="42.1666217" lon="13.6616883"><ele>896.0</ele><time>2026-05-02T11:01:01.637Z</time></trkpt><trkpt lat="42.1665317" lon="13.6618667"><ele>897.25</ele><time>2026-05-02T11:01:02.637Z</time></trkpt><trkpt lat="42.16644" lon="13.6620283"><ele>898.5</ele><time>2026-05-02T11:01:03.637Z</time></trkpt><trkpt lat="42.1663433" lon="13.6621783"><ele>899.75</ele><time>2026-05-02T11:01:04.637Z</time></trkpt><trkpt lat="42.1662533" lon="13.6623083"><ele>901.0</ele><time>2026-05-02T11:01:05.637Z</time></trkpt><trkpt lat="42.166185" lon="13.662415"><ele>901.0</ele><time>2026-05-02T11:01:06.637Z</time></trkpt><trkpt lat="42.1661217" lon="13.6624867"><ele>900.9999999999999</ele><time>2026-05-02T11:01:07.637Z</time></trkpt><trkpt lat="42.1660283" lon="13.662525"><ele>900.9999999999999</ele><time>2026-05-02T11:01:09.638Z</time></trkpt><trkpt lat="42.16594" lon="13.6624433"><ele>901.0</ele><time>2026-05-02T11:01:25.637Z</time></trkpt><trkpt lat="42.16592" lon="13.66235"><ele>901.0</ele><time>2026-05-02T11:01:26.637Z</time></trkpt><trkpt lat="42.1659167" lon="13.6622283"><ele>900.9999999999999</ele><time>2026-05-02T11:01:27.636Z</time></trkpt><trkpt lat="42.165925" lon="13.6621133"><ele>901.0</ele><time>2026-05-02T11:01:28.636Z</time></trkpt><trkpt lat="42.165935" lon="13.662025"><ele>901.0</ele><time>2026-05-02T11:01:29.636Z</time></trkpt><trkpt lat="42.1659383" lon="13.66192"><ele>901.0</ele><time>2026-05-02T11:01:38.636Z</time></trkpt><trkpt lat="42.165915" lon="13.662045"><ele>900.9999999999999</ele><time>2026-05-02T11:01:51.637Z</time></trkpt><trkpt lat="42.165905" lon="13.6621417"><ele>901.0</ele><time>2026-05-02T11:01:53.636Z</time></trkpt><trkpt lat="42.165895" lon="13.6622483"><ele>900.9999999999999</ele><time>2026-05-02T11:01:55.637Z</time></trkpt><trkpt lat="42.16594" lon="13.6623783"><ele>901.0</ele><time>2026-05-02T11:04:02.637Z</time></trkpt><trkpt lat="42.1659367" lon="13.6624817"><ele>901.0</ele><time>2026-05-02T11:04:05.637Z</time></trkpt><trkpt lat="42.165885" lon="13.6625983"><ele>901.0</ele><time>2026-05-02T11:04:08.636Z</time></trkpt><trkpt lat="42.16584" lon="13.6626867"><ele>900.9999999999999</ele><time>2026-05-02T11:04:10.637Z</time></trkpt><trkpt lat="42.16578" lon="13.6627533"><ele>901.0</ele><time>2026-05-02T11:04:12.637Z</time></trkpt><trkpt lat="42.1656767" lon="13.6628267"><ele>903.4999999999999</ele><time>2026-05-02T11:04:14.636Z</time></trkpt><trkpt lat="42.165605" lon="13.6628517"><ele>906.0</ele><time>2026-05-02T11:04:15.636Z</time></trkpt><trkpt lat="42.165525" lon="13.66287"><ele>908.5</ele><time>2026-05-02T11:04:16.637Z</time></trkpt><trkpt lat="42.1654417" lon="13.6628817"><ele>911.0</ele><time>2026-05-02T11:04:17.636Z</time></trkpt><trkpt lat="42.1653667" lon="13.6628967"><ele>913.4999999999999</ele><time>2026-05-02T11:04:18.637Z</time></trkpt><trkpt lat="42.16529" lon="13.6629133"><ele>916.0</ele><time>2026-05-02T11:04:19.636Z</time></trkpt><trkpt lat="42.1652233" lon="13.662925"><ele>916.0</ele><time>2026-05-02T11:04:20.637Z</time></trkpt><trkpt lat="42.1651583" lon="13.6629383"><ele>916.0</ele><time>2026-05-02T11:04:21.637Z</time></trkpt><trkpt lat="42.165095" lon="13.662955"><ele>916.0</ele><time>2026-05-02T11:04:22.636Z</time></trkpt><trkpt lat="42.1650267" lon="13.6629833"><ele>916.0</ele><time>2026-05-02T11:04:23.637Z</time></trkpt><trkpt lat="42.16496" lon="13.6630267"><ele>916.0</ele><time>2026-05-02T11:04:24.637Z</time></trkpt><trkpt lat="42.1648983" lon="13.6630833"><ele>916.0</ele><time>2026-05-02T11:04:25.637Z</time></trkpt><trkpt lat="42.164835" lon="13.663135"><ele>916.0</ele><time>2026-05-02T11:04:26.637Z</time></trkpt><trkpt lat="42.1647583" lon="13.6631767"><ele>917.1999999999999</ele><time>2026-05-02T11:04:27.637Z</time></trkpt><trkpt lat="42.1646867" lon="13.6632067"><ele>918.3999999999999</ele><time>2026-05-02T11:04:28.637Z</time></trkpt><trkpt lat="42.1646" lon="13.6632667"><ele>919.6</ele><time>2026-05-02T11:04:30.636Z</time></trkpt><trkpt lat="42.1645317" lon="13.66336"><ele>920.8</ele><time>2026-05-02T11:04:32.636Z</time></trkpt><trkpt lat="42.1644467" lon="13.6634783"><ele>922.0</ele><time>2026-05-02T11:04:34.636Z</time></trkpt><trkpt lat="42.16436" lon="13.6635767"><ele>923.1666666666666</ele><time>2026-05-02T11:04:36.636Z</time></trkpt><trkpt lat="42.1642617" lon="13.6636617"><ele>924.3333333333333</ele><time>2026-05-02T11:04:38.637Z</time></trkpt><trkpt lat="42.1642033" lon="13.6637017"><ele>925.5</ele><time>2026-05-02T11:04:39.637Z</time></trkpt><trkpt lat="42.1641233" lon="13.6637533"><ele>926.6666666666667</ele><time>2026-05-02T11:04:40.637Z</time></trkpt><trkpt lat="42.1640433" lon="13.6638167"><ele>927.8333333333334</ele><time>2026-05-02T11:04:41.637Z</time></trkpt><trkpt lat="42.163975" lon="13.6638833"><ele>929.0</ele><time>2026-05-02T11:04:42.637Z</time></trkpt><trkpt lat="42.16392" lon="13.6639567"><ele>930.0000000000001</ele><time>2026-05-02T11:04:43.637Z</time></trkpt><trkpt lat="42.1638617" lon="13.6640233"><ele>931.0</ele><time>2026-05-02T11:04:44.637Z</time></trkpt><trkpt lat="42.1637983" lon="13.6640883"><ele>932.0</ele><time>2026-05-02T11:04:45.636Z</time></trkpt><trkpt lat="42.163735" lon="13.664145"><ele>933.0</ele><time>2026-05-02T11:04:46.637Z</time></trkpt><trkpt lat="42.163665" lon="13.6641967"><ele>934.0000000000001</ele><time>2026-05-02T11:04:47.637Z</time></trkpt><trkpt lat="42.1636" lon="13.6642517"><ele>935.0</ele><time>2026-05-02T11:04:48.637Z</time></trkpt><trkpt lat="42.1635467" lon="13.6643017"><ele>935.0000000000001</ele><time>2026-05-02T11:04:49.637Z</time></trkpt><trkpt lat="42.1634983" lon="13.6643617"><ele>935.0</ele><time>2026-05-02T11:04:50.637Z</time></trkpt><trkpt lat="42.163445" lon="13.6644433"><ele>935.0</ele><time>2026-05-02T11:04:51.636Z</time></trkpt><trkpt lat="42.1633917" lon="13.6645233"><ele>935.0</ele><time>2026-05-02T11:04:52.636Z</time></trkpt><trkpt lat="42.1633317" lon="13.66461"><ele>935.0000000000001</ele><time>2026-05-02T11:04:53.637Z</time></trkpt><trkpt lat="42.1632683" lon="13.6646967"><ele>935.0</ele><time>2026-05-02T11:04:54.636Z</time></trkpt><trkpt lat="42.1632117" lon="13.664775"><ele>937.3333333333334</ele><time>2026-05-02T11:04:55.635Z</time></trkpt><trkpt lat="42.16316" lon="13.6648517"><ele>939.6666666666667</ele><time>2026-05-02T11:04:56.636Z</time></trkpt><trkpt lat="42.1631083" lon="13.66492"><ele>942.0</ele><time>2026-05-02T11:04:57.635Z</time></trkpt><trkpt lat="42.1630533" lon="13.6649883"><ele>944.3333333333333</ele><time>2026-05-02T11:04:58.635Z</time></trkpt><trkpt lat="42.1629917" lon="13.6650617"><ele>946.6666666666666</ele><time>2026-05-02T11:04:59.635Z</time></trkpt><trkpt lat="42.1629383" lon="13.665155"><ele>949.0</ele><time>2026-05-02T11:05:00.635Z</time></trkpt><trkpt lat="42.1628933" lon="13.6652467"><ele>946.6</ele><time>2026-05-02T11:05:01.635Z</time></trkpt><trkpt lat="42.1628467" lon="13.665355"><ele>944.2</ele><time>2026-05-02T11:05:02.635Z</time></trkpt><trkpt lat="42.1628033" lon="13.665465"><ele>941.8000000000001</ele><time>2026-05-02T11:05:03.635Z</time></trkpt><trkpt lat="42.1627583" lon="13.6655717"><ele>939.4000000000001</ele><time>2026-05-02T11:05:04.636Z</time></trkpt><trkpt lat="42.1627183" lon="13.66568"><ele>937.0</ele><time>2026-05-02T11:05:05.635Z</time></trkpt><trkpt lat="42.162685" lon="13.6657933"><ele>936.9999999999999</ele><time>2026-05-02T11:05:06.636Z</time></trkpt><trkpt lat="42.16265" lon="13.6658883"><ele>937.0</ele><time>2026-05-02T11:05:07.635Z</time></trkpt><trkpt lat="42.1626167" lon="13.6659717"><ele>937.0</ele><time>2026-05-02T11:05:08.636Z</time></trkpt><trkpt lat="42.1625667" lon="13.6660467"><ele>937.0</ele><time>2026-05-02T11:05:09.635Z</time></trkpt><trkpt lat="42.1625067" lon="13.666105"><ele>936.9999999999999</ele><time>2026-05-02T11:05:10.636Z</time></trkpt><trkpt lat="42.16243" lon="13.6661683"><ele>937.0</ele><time>2026-05-02T11:05:11.635Z</time></trkpt><trkpt lat="42.1623567" lon="13.666225"><ele>939.2</ele><time>2026-05-02T11:05:12.635Z</time></trkpt><trkpt lat="42.1622717" lon="13.6662783"><ele>941.4000000000001</ele><time>2026-05-02T11:05:13.635Z</time></trkpt><trkpt lat="42.1621767" lon="13.6663267"><ele>943.5999999999999</ele><time>2026-05-02T11:05:14.636Z</time></trkpt><trkpt lat="42.162085" lon="13.66637"><ele>945.8</ele><time>2026-05-02T11:05:15.636Z</time></trkpt><trkpt lat="42.1620033" lon="13.6664133"><ele>948.0</ele><time>2026-05-02T11:05:16.636Z</time></trkpt><trkpt lat="42.1619267" lon="13.666475"><ele>948.0</ele><time>2026-05-02T11:05:17.635Z</time></trkpt><trkpt lat="42.1618533" lon="13.6665467"><ele>948.0</ele><time>2026-05-02T11:05:18.635Z</time></trkpt><trkpt lat="42.1617733" lon="13.6666233"><ele>948.0</ele><time>2026-05-02T11:05:19.636Z</time></trkpt><trkpt lat="42.1616883" lon="13.6666983"><ele>948.0</ele><time>2026-05-02T11:05:20.636Z</time></trkpt><trkpt lat="42.1616033" lon="13.666775"><ele>948.0</ele><time>2026-05-02T11:05:21.635Z</time></trkpt><trkpt lat="42.1615217" lon="13.6668433"><ele>949.4</ele><time>2026-05-02T11:05:22.636Z</time></trkpt><trkpt lat="42.1614367" lon="13.6669067"><ele>950.8</ele><time>2026-05-02T11:05:23.636Z</time></trkpt><trkpt lat="42.1613567" lon="13.66697"><ele>952.2</ele><time>2026-05-02T11:05:24.635Z</time></trkpt><trkpt lat="42.1612783" lon="13.667045"><ele>953.6</ele><time>2026-05-02T11:05:25.635Z</time></trkpt><trkpt lat="42.1612033" lon="13.6671283"><ele>955.0</ele><time>2026-05-02T11:05:26.635Z</time></trkpt><trkpt lat="42.161135" lon="13.667215"><ele>955.0</ele><time>2026-05-02T11:05:27.635Z</time></trkpt><trkpt lat="42.1610767" lon="13.6673117"><ele>955.0</ele><time>2026-05-02T11:05:28.636Z</time></trkpt><trkpt lat="42.1610067" lon="13.66741"><ele>955.0</ele><time>2026-05-02T11:05:29.635Z</time></trkpt><trkpt lat="42.16094" lon="13.6675067"><ele>955.0</ele><time>2026-05-02T11:05:30.635Z</time></trkpt><trkpt lat="42.160875" lon="13.6675833"><ele>955.0</ele><time>2026-05-02T11:05:31.635Z</time></trkpt><trkpt lat="42.1608117" lon="13.6676533"><ele>955.0</ele><time>2026-05-02T11:05:32.636Z</time></trkpt><trkpt lat="42.1607583" lon="13.667715"><ele>955.0</ele><time>2026-05-02T11:05:33.636Z</time></trkpt><trkpt lat="42.1606983" lon="13.6677667"><ele>955.0</ele><time>2026-05-02T11:05:34.635Z</time></trkpt><trkpt lat="42.1606" lon="13.66784"><ele>955.0</ele><time>2026-05-02T11:05:36.635Z</time></trkpt><trkpt lat="42.160505" lon="13.6679217"><ele>955.0</ele><time>2026-05-02T11:05:38.635Z</time></trkpt><trkpt lat="42.1604067" lon="13.66802"><ele>954.4999999999999</ele><time>2026-05-02T11:05:40.635Z</time></trkpt><trkpt lat="42.16035" lon="13.668075"><ele>954.0</ele><time>2026-05-02T11:05:41.636Z</time></trkpt><trkpt lat="42.160295" lon="13.6681233"><ele>953.5</ele><time>2026-05-02T11:05:42.636Z</time></trkpt><trkpt lat="42.1602433" lon="13.6681767"><ele>953.0</ele><time>2026-05-02T11:05:43.635Z</time></trkpt><trkpt lat="42.1601917" lon="13.6682283"><ele>952.4999999999999</ele><time>2026-05-02T11:05:44.636Z</time></trkpt><trkpt lat="42.1601117" lon="13.6683217"><ele>952.0</ele><time>2026-05-02T11:05:46.636Z</time></trkpt><trkpt lat="42.160025" lon="13.668425"><ele>951.9999999999999</ele><time>2026-05-02T11:05:48.636Z</time></trkpt><trkpt lat="42.1599733" lon="13.66848"><ele>952.0</ele><time>2026-05-02T11:05:49.635Z</time></trkpt><trkpt lat="42.159915" lon="13.6685367"><ele>952.0</ele><time>2026-05-02T11:05:50.636Z</time></trkpt><trkpt lat="42.159845" lon="13.6686033"><ele>952.0</ele><time>2026-05-02T11:05:51.636Z</time></trkpt><trkpt lat="42.15977" lon="13.66867"><ele>951.9999999999999</ele><time>2026-05-02T11:05:52.636Z</time></trkpt><trkpt lat="42.1596983" lon="13.668735"><ele>952.0</ele><time>2026-05-02T11:05:53.635Z</time></trkpt><trkpt lat="42.15963" lon="13.6688083"><ele>950.1666666666666</ele><time>2026-05-02T11:05:54.635Z</time></trkpt><trkpt lat="42.1595717" lon="13.6688767"><ele>948.3333333333333</ele><time>2026-05-02T11:05:55.635Z</time></trkpt><trkpt lat="42.1595267" lon="13.66894"><ele>946.5</ele><time>2026-05-02T11:05:56.635Z</time></trkpt><trkpt lat="42.159495" lon="13.669065"><ele>944.6666666666667</ele><time>2026-05-02T11:05:58.635Z</time></trkpt><trkpt lat="42.1595033" lon="13.6692417"><ele>942.8333333333334</ele><time>2026-05-02T11:06:00.636Z</time></trkpt><trkpt lat="42.159505" lon="13.669345"><ele>941.0</ele><time>2026-05-02T11:06:01.635Z</time></trkpt><trkpt lat="42.1595067" lon="13.669475"><ele>939.5999999999999</ele><time>2026-05-02T11:06:02.635Z</time></trkpt><trkpt lat="42.1594917" lon="13.66961"><ele>938.1999999999999</ele><time>2026-05-02T11:06:03.635Z</time></trkpt><trkpt lat="42.1594683" lon="13.6697267"><ele>936.8000000000001</ele><time>2026-05-02T11:06:04.635Z</time></trkpt><trkpt lat="42.1594467" lon="13.6698133"><ele>935.4000000000001</ele><time>2026-05-02T11:06:05.636Z</time></trkpt><trkpt lat="42.15939" lon="13.66995"><ele>934.0</ele><time>2026-05-02T11:06:07.636Z</time></trkpt><trkpt lat="42.1593033" lon="13.6700783"><ele>933.9999999999999</ele><time>2026-05-02T11:06:09.636Z</time></trkpt><trkpt lat="42.1592417" lon="13.6702067"><ele>934.0</ele><time>2026-05-02T11:06:11.635Z</time></trkpt><trkpt lat="42.159215" lon="13.6702983"><ele>934.0</ele><time>2026-05-02T11:06:12.635Z</time></trkpt><trkpt lat="42.1591933" lon="13.6704017"><ele>934.0</ele><time>2026-05-02T11:06:13.635Z</time></trkpt><trkpt lat="42.159175" lon="13.67052"><ele>933.9999999999999</ele><time>2026-05-02T11:06:14.636Z</time></trkpt><trkpt lat="42.1591683" lon="13.670645"><ele>934.0</ele><time>2026-05-02T11:06:15.636Z</time></trkpt><trkpt lat="42.1591683" lon="13.67076"><ele>935.3333333333333</ele><time>2026-05-02T11:06:16.636Z</time></trkpt><trkpt lat="42.15917" lon="13.6708683"><ele>936.6666666666666</ele><time>2026-05-02T11:06:17.636Z</time></trkpt><trkpt lat="42.1591783" lon="13.67098"><ele>938.0</ele><time>2026-05-02T11:06:18.636Z</time></trkpt><trkpt lat="42.159185" lon="13.671095"><ele>939.3333333333333</ele><time>2026-05-02T11:06:19.636Z</time></trkpt><trkpt lat="42.1591967" lon="13.6712167"><ele>940.6666666666666</ele><time>2026-05-02T11:06:20.636Z</time></trkpt><trkpt lat="42.1592067" lon="13.6713467"><ele>942.0</ele><time>2026-05-02T11:06:21.635Z</time></trkpt><trkpt lat="42.159215" lon="13.6714817"><ele>942.1666666666666</ele><time>2026-05-02T11:06:22.635Z</time></trkpt><trkpt lat="42.1592317" lon="13.6717067"><ele>942.3333333333333</ele><time>2026-05-02T11:06:24.635Z</time></trkpt><trkpt lat="42.159255" lon="13.6718"><ele>942.5</ele><time>2026-05-02T11:06:25.636Z</time></trkpt><trkpt lat="42.1592833" lon="13.6718767"><ele>942.6666666666666</ele><time>2026-05-02T11:06:26.636Z</time></trkpt><trkpt lat="42.1593333" lon="13.6719367"><ele>942.8333333333333</ele><time>2026-05-02T11:06:27.636Z</time></trkpt><trkpt lat="42.1594" lon="13.671985"><ele>943.0</ele><time>2026-05-02T11:06:28.636Z</time></trkpt><trkpt lat="42.1594667" lon="13.67202"><ele>941.9999999999999</ele><time>2026-05-02T11:06:29.635Z</time></trkpt><trkpt lat="42.159555" lon="13.6721"><ele>941.0</ele><time>2026-05-02T11:06:31.635Z</time></trkpt><trkpt lat="42.1595833" lon="13.6721983"><ele>940.0</ele><time>2026-05-02T11:06:33.636Z</time></trkpt><trkpt lat="42.1595967" lon="13.6722833"><ele>939.0</ele><time>2026-05-02T11:06:34.635Z</time></trkpt><trkpt lat="42.15961" lon="13.67238"><ele>937.9999999999999</ele><time>2026-05-02T11:06:35.636Z</time></trkpt><trkpt lat="42.1596283" lon="13.6724767"><ele>937.0</ele><time>2026-05-02T11:06:36.636Z</time></trkpt><trkpt lat="42.1596517" lon="13.6725783"><ele>937.0</ele><time>2026-05-02T11:06:37.636Z</time></trkpt><trkpt lat="42.1596917" lon="13.6726917"><ele>937.0</ele><time>2026-05-02T11:06:38.636Z</time></trkpt><trkpt lat="42.1597333" lon="13.6728067"><ele>937.0</ele><time>2026-05-02T11:06:39.636Z</time></trkpt><trkpt lat="42.1597767" lon="13.672925"><ele>937.0</ele><time>2026-05-02T11:06:40.636Z</time></trkpt><trkpt lat="42.159825" lon="13.67304"><ele>937.0</ele><time>2026-05-02T11:06:41.636Z</time></trkpt><trkpt lat="42.159875" lon="13.6731583"><ele>939.6</ele><time>2026-05-02T11:06:42.635Z</time></trkpt><trkpt lat="42.1599233" lon="13.67327"><ele>942.2</ele><time>2026-05-02T11:06:43.636Z</time></trkpt><trkpt lat="42.1599717" lon="13.6733817"><ele>944.8</ele><time>2026-05-02T11:06:44.635Z</time></trkpt><trkpt lat="42.16002" lon="13.6734983"><ele>947.4</ele><time>2026-05-02T11:06:45.636Z</time></trkpt><trkpt lat="42.1600683" lon="13.6736167"><ele>950.0</ele><time>2026-05-02T11:06:46.636Z</time></trkpt><trkpt lat="42.1601167" lon="13.6737467"><ele>950.0000000000001</ele><time>2026-05-02T11:06:47.635Z</time></trkpt><trkpt lat="42.160165" lon="13.6738633"><ele>950.0</ele><time>2026-05-02T11:06:48.636Z</time></trkpt><trkpt lat="42.160215" lon="13.67398"><ele>950.0</ele><time>2026-05-02T11:06:49.636Z</time></trkpt><trkpt lat="42.1602517" lon="13.6740817"><ele>950.0</ele><time>2026-05-02T11:06:50.636Z</time></trkpt><trkpt lat="42.160295" lon="13.6741833"><ele>950.0000000000001</ele><time>2026-05-02T11:06:51.635Z</time></trkpt><trkpt lat="42.1603383" lon="13.6742617"><ele>950.0</ele><time>2026-05-02T11:06:52.635Z</time></trkpt><trkpt lat="42.1603833" lon="13.6743217"><ele>950.0</ele><time>2026-05-02T11:06:53.635Z</time></trkpt><trkpt lat="42.16049" lon="13.6743817"><ele>950.0</ele><time>2026-05-02T11:06:55.636Z</time></trkpt><trkpt lat="42.1605633" lon="13.674415"><ele>950.0</ele><time>2026-05-02T11:06:56.636Z</time></trkpt><trkpt lat="42.160635" lon="13.6744483"><ele>950.0</ele><time>2026-05-02T11:06:57.635Z</time></trkpt><trkpt lat="42.1607" lon="13.674485"><ele>950.0</ele><time>2026-05-02T11:06:58.635Z</time></trkpt><trkpt lat="42.1607933" lon="13.6745933"><ele>951.8333333333334</ele><time>2026-05-02T11:07:00.636Z</time></trkpt><trkpt lat="42.160835" lon="13.674665"><ele>953.6666666666667</ele><time>2026-05-02T11:07:01.636Z</time></trkpt><trkpt lat="42.16089" lon="13.6747533"><ele>955.5</ele><time>2026-05-02T11:07:02.635Z</time></trkpt><trkpt lat="42.1609467" lon="13.674835"><ele>957.3333333333333</ele><time>2026-05-02T11:07:03.636Z</time></trkpt><trkpt lat="42.1609967" lon="13.674915"><ele>959.1666666666666</ele><time>2026-05-02T11:07:04.636Z</time></trkpt><trkpt lat="42.1610467" lon="13.6749967"><ele>961.0</ele><time>2026-05-02T11:07:05.636Z</time></trkpt><trkpt lat="42.161095" lon="13.6750883"><ele>961.0</ele><time>2026-05-02T11:07:06.635Z</time></trkpt><trkpt lat="42.16115" lon="13.6751983"><ele>960.9999999999999</ele><time>2026-05-02T11:07:07.635Z</time></trkpt><trkpt lat="42.1612083" lon="13.6753183"><ele>960.9999999999999</ele><time>2026-05-02T11:07:08.636Z</time></trkpt><trkpt lat="42.1612717" lon="13.6754533"><ele>961.0</ele><time>2026-05-02T11:07:09.635Z</time></trkpt><trkpt lat="42.1613433" lon="13.67559"><ele>961.0</ele><time>2026-05-02T11:07:10.635Z</time></trkpt><trkpt lat="42.16141" lon="13.67572"><ele>962.4</ele><time>2026-05-02T11:07:11.636Z</time></trkpt><trkpt lat="42.1614683" lon="13.675835"><ele>963.8</ele><time>2026-05-02T11:07:12.636Z</time></trkpt><trkpt lat="42.1615167" lon="13.6759517"><ele>965.1999999999999</ele><time>2026-05-02T11:07:13.635Z</time></trkpt><trkpt lat="42.1615517" lon="13.6760767"><ele>966.5999999999999</ele><time>2026-05-02T11:07:14.636Z</time></trkpt><trkpt lat="42.1615783" lon="13.6761883"><ele>968.0</ele><time>2026-05-02T11:07:15.636Z</time></trkpt><trkpt lat="42.1616017" lon="13.6762983"><ele>968.0000000000001</ele><time>2026-05-02T11:07:16.636Z</time></trkpt><trkpt lat="42.1616283" lon="13.676415"><ele>968.0</ele><time>2026-05-02T11:07:17.636Z</time></trkpt><trkpt lat="42.161655" lon="13.6765183"><ele>968.0</ele><time>2026-05-02T11:07:18.635Z</time></trkpt><trkpt lat="42.1616783" lon="13.6766217"><ele>968.0</ele><time>2026-05-02T11:07:19.635Z</time></trkpt><trkpt lat="42.1617017" lon="13.6767183"><ele>968.0000000000001</ele><time>2026-05-02T11:07:20.636Z</time></trkpt><trkpt lat="42.16173" lon="13.67681"><ele>968.0</ele><time>2026-05-02T11:07:21.636Z</time></trkpt><trkpt lat="42.16175" lon="13.6768983"><ele>966.5999999999999</ele><time>2026-05-02T11:07:22.635Z</time></trkpt><trkpt lat="42.1617633" lon="13.6769983"><ele>965.1999999999999</ele><time>2026-05-02T11:07:23.635Z</time></trkpt><trkpt lat="42.16178" lon="13.6771133"><ele>963.8</ele><time>2026-05-02T11:07:24.635Z</time></trkpt><trkpt lat="42.1617933" lon="13.67724"><ele>962.4</ele><time>2026-05-02T11:07:25.635Z</time></trkpt><trkpt lat="42.161805" lon="13.6773717"><ele>961.0</ele><time>2026-05-02T11:07:26.635Z</time></trkpt><trkpt lat="42.161815" lon="13.6775083"><ele>961.0</ele><time>2026-05-02T11:07:27.636Z</time></trkpt><trkpt lat="42.16183" lon="13.6776483"><ele>960.9999999999999</ele><time>2026-05-02T11:07:28.635Z</time></trkpt><trkpt lat="42.161835" lon="13.6777917"><ele>960.9999999999999</ele><time>2026-05-02T11:07:29.635Z</time></trkpt><trkpt lat="42.1618333" lon="13.6779433"><ele>961.0</ele><time>2026-05-02T11:07:30.635Z</time></trkpt><trkpt lat="42.16184" lon="13.6780917"><ele>961.0</ele><time>2026-05-02T11:07:31.636Z</time></trkpt><trkpt lat="42.1618533" lon="13.678255"><ele>958.4</ele><time>2026-05-02T11:07:32.635Z</time></trkpt><trkpt lat="42.1618667" lon="13.6784133"><ele>955.8</ele><time>2026-05-02T11:07:33.635Z</time></trkpt><trkpt lat="42.1618783" lon="13.6785633"><ele>953.1999999999999</ele><time>2026-05-02T11:07:34.636Z</time></trkpt><trkpt lat="42.161885" lon="13.6787083"><ele>950.5999999999999</ele><time>2026-05-02T11:07:35.636Z</time></trkpt><trkpt lat="42.1618867" lon="13.678845"><ele>948.0</ele><time>2026-05-02T11:07:36.636Z</time></trkpt><trkpt lat="42.1618817" lon="13.6789833"><ele>946.0</ele><time>2026-05-02T11:07:37.636Z</time></trkpt><trkpt lat="42.16187" lon="13.6791167"><ele>944.0</ele><time>2026-05-02T11:07:38.636Z</time></trkpt><trkpt lat="42.161855" lon="13.6792533"><ele>942.0</ele><time>2026-05-02T11:07:39.635Z</time></trkpt><trkpt lat="42.1618367" lon="13.679385"><ele>940.0</ele><time>2026-05-02T11:07:40.636Z</time></trkpt><trkpt lat="42.1618133" lon="13.67951"><ele>938.0</ele><time>2026-05-02T11:07:41.635Z</time></trkpt><trkpt lat="42.161795" lon="13.6796367"><ele>936.6666666666667</ele><time>2026-05-02T11:07:42.635Z</time></trkpt><trkpt lat="42.1617767" lon="13.679745"><ele>935.3333333333334</ele><time>2026-05-02T11:07:43.636Z</time></trkpt><trkpt lat="42.16176" lon="13.6798383"><ele>934.0</ele><time>2026-05-02T11:07:44.636Z</time></trkpt><trkpt lat="42.161745" lon="13.6799283"><ele>932.6666666666667</ele><time>2026-05-02T11:07:45.636Z</time></trkpt><trkpt lat="42.1617133" lon="13.6800567"><ele>931.3333333333334</ele><time>2026-05-02T11:07:47.635Z</time></trkpt><trkpt lat="42.1616633" lon="13.680115"><ele>930.0</ele><time>2026-05-02T11:07:49.635Z</time></trkpt><trkpt lat="42.16158" lon="13.680075"><ele>930.0</ele><time>2026-05-02T11:07:52.636Z</time></trkpt><trkpt lat="42.161535" lon="13.679935"><ele>930.0</ele><time>2026-05-02T11:07:54.635Z</time></trkpt><trkpt lat="42.1615233" lon="13.679835"><ele>930.0</ele><time>2026-05-02T11:07:55.636Z</time></trkpt><trkpt lat="42.1615117" lon="13.6797317"><ele>930.0</ele><time>2026-05-02T11:07:56.636Z</time></trkpt><trkpt lat="42.1615033" lon="13.6796333"><ele>930.0</ele><time>2026-05-02T11:07:57.636Z</time></trkpt><trkpt lat="42.1614933" lon="13.6795433"><ele>930.0</ele><time>2026-05-02T11:07:58.636Z</time></trkpt><trkpt lat="42.1614817" lon="13.6793883"><ele>931.0</ele><time>2026-05-02T11:08:00.636Z</time></trkpt><trkpt lat="42.1614467" lon="13.6792917"><ele>932.0</ele><time>2026-05-02T11:08:02.636Z</time></trkpt><trkpt lat="42.16135" lon="13.6792517"><ele>933.0</ele><time>2026-05-02T11:08:04.635Z</time></trkpt><trkpt lat="42.16128" lon="13.6792583"><ele>934.0</ele><time>2026-05-02T11:08:05.635Z</time></trkpt><trkpt lat="42.1612117" lon="13.6792817"><ele>935.0</ele><time>2026-05-02T11:08:06.635Z</time></trkpt><trkpt lat="42.1611317" lon="13.6793217"><ele>936.0</ele><time>2026-05-02T11:08:07.635Z</time></trkpt><trkpt lat="42.1610433" lon="13.679365"><ele>936.0</ele><time>2026-05-02T11:08:08.635Z</time></trkpt><trkpt lat="42.160955" lon="13.6793967"><ele>936.0</ele><time>2026-05-02T11:08:09.634Z</time></trkpt><trkpt lat="42.1608667" lon="13.679425"><ele>936.0</ele><time>2026-05-02T11:08:10.634Z</time></trkpt><trkpt lat="42.160775" lon="13.6794417"><ele>936.0</ele><time>2026-05-02T11:08:11.634Z</time></trkpt><trkpt lat="42.1606883" lon="13.6794533"><ele>936.0</ele><time>2026-05-02T11:08:12.634Z</time></trkpt><trkpt lat="42.160605" lon="13.6794667"><ele>936.0</ele><time>2026-05-02T11:08:13.635Z</time></trkpt><trkpt lat="42.1605217" lon="13.6794883"><ele>932.1666666666666</ele><time>2026-05-02T11:08:14.635Z</time></trkpt><trkpt lat="42.1604383" lon="13.679515"><ele>928.3333333333333</ele><time>2026-05-02T11:08:15.634Z</time></trkpt><trkpt lat="42.1603633" lon="13.67956"><ele>924.5</ele><time>2026-05-02T11:08:16.635Z</time></trkpt><trkpt lat="42.1602883" lon="13.679605"><ele>920.6666666666666</ele><time>2026-05-02T11:08:17.635Z</time></trkpt><trkpt lat="42.160215" lon="13.6796567"><ele>916.8333333333333</ele><time>2026-05-02T11:08:18.635Z</time></trkpt><trkpt lat="42.160145" lon="13.6796967"><ele>913.0</ele><time>2026-05-02T11:08:19.634Z</time></trkpt><trkpt lat="42.1600717" lon="13.679735"><ele>912.9999999999999</ele><time>2026-05-02T11:08:20.634Z</time></trkpt><trkpt lat="42.1600117" lon="13.6797783"><ele>913.0</ele><time>2026-05-02T11:08:21.634Z</time></trkpt><trkpt lat="42.1599433" lon="13.67983"><ele>913.0</ele><time>2026-05-02T11:08:22.634Z</time></trkpt><trkpt lat="42.1598933" lon="13.6798983"><ele>913.0</ele><time>2026-05-02T11:08:23.634Z</time></trkpt><trkpt lat="42.1598417" lon="13.6799683"><ele>912.9999999999999</ele><time>2026-05-02T11:08:24.635Z</time></trkpt><trkpt lat="42.1597917" lon="13.6800283"><ele>913.0</ele><time>2026-05-02T11:08:25.635Z</time></trkpt><trkpt lat="42.1597017" lon="13.6800783"><ele>908.0</ele><time>2026-05-02T11:08:27.634Z</time></trkpt><trkpt lat="42.1596167" lon="13.6800233"><ele>903.0</ele><time>2026-05-02T11:08:29.634Z</time></trkpt><trkpt lat="42.1595533" lon="13.6799233"><ele>898.0</ele><time>2026-05-02T11:08:31.634Z</time></trkpt><trkpt lat="42.1594983" lon="13.679825"><ele>893.0</ele><time>2026-05-02T11:08:33.635Z</time></trkpt><trkpt lat="42.1594483" lon="13.679725"><ele>888.0</ele><time>2026-05-02T11:08:36.635Z</time></trkpt><trkpt lat="42.1594033" lon="13.6796183"><ele>888.0</ele><time>2026-05-02T11:08:39.635Z</time></trkpt><trkpt lat="42.1593767" lon="13.67954"><ele>888.0</ele><time>2026-05-02T11:08:41.634Z</time></trkpt><trkpt lat="42.1593433" lon="13.6794433"><ele>888.0</ele><time>2026-05-02T11:08:43.634Z</time></trkpt><trkpt lat="42.1593133" lon="13.6793583"><ele>888.0</ele><time>2026-05-02T11:08:45.635Z</time></trkpt><trkpt lat="42.1592883" lon="13.67927"><ele>888.0</ele><time>2026-05-02T11:08:47.635Z</time></trkpt><trkpt lat="42.1592633" lon="13.679155"><ele>888.0</ele><time>2026-05-02T11:08:49.635Z</time></trkpt><trkpt lat="42.15924" lon="13.67903"><ele>889.8</ele><time>2026-05-02T11:08:51.635Z</time></trkpt><trkpt lat="42.1591967" lon="13.678875"><ele>891.5999999999999</ele><time>2026-05-02T11:08:53.635Z</time></trkpt><trkpt lat="42.15917" lon="13.6787933"><ele>893.4000000000001</ele><time>2026-05-02T11:08:54.634Z</time></trkpt><trkpt lat="42.1591233" lon="13.6786433"><ele>895.2</ele><time>2026-05-02T11:08:56.635Z</time></trkpt><trkpt lat="42.1590867" lon="13.6785183"><ele>897.0</ele><time>2026-05-02T11:08:58.634Z</time></trkpt><trkpt lat="42.1590467" lon="13.6783917"><ele>891.8</ele><time>2026-05-02T11:09:00.634Z</time></trkpt><trkpt lat="42.1590083" lon="13.678275"><ele>886.6</ele><time>2026-05-02T11:09:02.634Z</time></trkpt><trkpt lat="42.158975" lon="13.6781467"><ele>881.3999999999999</ele><time>2026-05-02T11:09:04.634Z</time></trkpt><trkpt lat="42.1589417" lon="13.6780167"><ele>876.1999999999999</ele><time>2026-05-02T11:09:06.634Z</time></trkpt><trkpt lat="42.158905" lon="13.67787"><ele>871.0</ele><time>2026-05-02T11:09:08.634Z</time></trkpt><trkpt lat="42.15886" lon="13.6777367"><ele>871.0</ele><time>2026-05-02T11:09:10.635Z</time></trkpt><trkpt lat="42.1588017" lon="13.6775783"><ele>870.9999999999999</ele><time>2026-05-02T11:09:12.634Z</time></trkpt><trkpt lat="42.1587767" lon="13.677495"><ele>870.9999999999999</ele><time>2026-05-02T11:09:13.635Z</time></trkpt><trkpt lat="42.1587283" lon="13.677355"><ele>871.0</ele><time>2026-05-02T11:09:15.635Z</time></trkpt><trkpt lat="42.15868" lon="13.67723"><ele>871.0</ele><time>2026-05-02T11:09:17.635Z</time></trkpt><trkpt lat="42.1586267" lon="13.6770967"><ele>871.0</ele><time>2026-05-02T11:09:19.634Z</time></trkpt><trkpt lat="42.158565" lon="13.6769767"><ele>871.0</ele><time>2026-05-02T11:09:21.634Z</time></trkpt><trkpt lat="42.1585317" lon="13.6769"><ele>871.0</ele><time>2026-05-02T11:09:22.634Z</time></trkpt><trkpt lat="42.158495" lon="13.67683"><ele>871.0</ele><time>2026-05-02T11:09:23.635Z</time></trkpt><trkpt lat="42.1584567" lon="13.676755"><ele>871.0</ele><time>2026-05-02T11:09:24.634Z</time></trkpt><trkpt lat="42.1584133" lon="13.6766867"><ele>871.0</ele><time>2026-05-02T11:09:25.635Z</time></trkpt><trkpt lat="42.1583683" lon="13.6766083"><ele>871.0</ele><time>2026-05-02T11:09:26.634Z</time></trkpt><trkpt lat="42.1583267" lon="13.676535"><ele>873.1428571428571</ele><time>2026-05-02T11:09:27.634Z</time></trkpt><trkpt lat="42.158285" lon="13.6764567"><ele>875.2857142857142</ele><time>2026-05-02T11:09:28.635Z</time></trkpt><trkpt lat="42.1582417" lon="13.6763767"><ele>877.4285714285714</ele><time>2026-05-02T11:09:29.634Z</time></trkpt><trkpt lat="42.1581967" lon="13.676285"><ele>879.5714285714286</ele><time>2026-05-02T11:09:30.634Z</time></trkpt><trkpt lat="42.158155" lon="13.6761933"><ele>881.7142857142858</ele><time>2026-05-02T11:09:31.635Z</time></trkpt><trkpt lat="42.1581183" lon="13.6761133"><ele>883.8571428571429</ele><time>2026-05-02T11:09:32.635Z</time></trkpt><trkpt lat="42.158085" lon="13.6760333"><ele>886.0</ele><time>2026-05-02T11:09:33.635Z</time></trkpt><trkpt lat="42.158025" lon="13.6758933"><ele>879.8333333333333</ele><time>2026-05-02T11:09:35.635Z</time></trkpt><trkpt lat="42.1579633" lon="13.6757733"><ele>873.6666666666666</ele><time>2026-05-02T11:09:37.634Z</time></trkpt><trkpt lat="42.157925" lon="13.6756833"><ele>867.5</ele><time>2026-05-02T11:09:39.634Z</time></trkpt><trkpt lat="42.1578833" lon="13.6756167"><ele>861.3333333333333</ele><time>2026-05-02T11:09:41.635Z</time></trkpt><trkpt lat="42.1578283" lon="13.6755267"><ele>855.1666666666666</ele><time>2026-05-02T11:09:44.635Z</time></trkpt><trkpt lat="42.1577917" lon="13.6754567"><ele>849.0</ele><time>2026-05-02T11:09:46.635Z</time></trkpt><trkpt lat="42.15775" lon="13.675365"><ele>849.0</ele><time>2026-05-02T11:09:49.634Z</time></trkpt><trkpt lat="42.1577133" lon="13.6752717"><ele>849.0</ele><time>2026-05-02T11:09:51.634Z</time></trkpt><trkpt lat="42.157675" lon="13.6751567"><ele>849.0</ele><time>2026-05-02T11:09:53.634Z</time></trkpt><trkpt lat="42.1576467" lon="13.6750417"><ele>849.0</ele><time>2026-05-02T11:09:55.634Z</time></trkpt><trkpt lat="42.1576283" lon="13.674945"><ele>849.0</ele><time>2026-05-02T11:09:57.635Z</time></trkpt><trkpt lat="42.1576133" lon="13.6748483"><ele>849.0</ele><time>2026-05-02T11:09:59.635Z</time></trkpt><trkpt lat="42.15761" lon="13.67475"><ele>849.3333333333334</ele><time>2026-05-02T11:10:01.635Z</time></trkpt><trkpt lat="42.15761" lon="13.6746267"><ele>849.6666666666667</ele><time>2026-05-02T11:10:03.634Z</time></trkpt><trkpt lat="42.1576033" lon="13.6744967"><ele>850.0</ele><time>2026-05-02T11:10:05.634Z</time></trkpt><trkpt lat="42.157625" lon="13.6743983"><ele>850.3333333333334</ele><time>2026-05-02T11:10:07.634Z</time></trkpt><trkpt lat="42.1576767" lon="13.6743317"><ele>850.6666666666667</ele><time>2026-05-02T11:10:09.635Z</time></trkpt><trkpt lat="42.1576567" lon="13.6742417"><ele>851.0</ele><time>2026-05-02T11:10:12.635Z</time></trkpt><trkpt lat="42.1575717" lon="13.6743217"><ele>851.0000000000001</ele><time>2026-05-02T11:10:15.634Z</time></trkpt><trkpt lat="42.157505" lon="13.6744317"><ele>851.0</ele><time>2026-05-02T11:10:17.634Z</time></trkpt><trkpt lat="42.1574567" lon="13.6745267"><ele>851.0</ele><time>2026-05-02T11:10:19.635Z</time></trkpt><trkpt lat="42.15742" lon="13.67461"><ele>851.0</ele><time>2026-05-02T11:10:21.635Z</time></trkpt><trkpt lat="42.1573983" lon="13.674695"><ele>851.0000000000001</ele><time>2026-05-02T11:10:23.634Z</time></trkpt><trkpt lat="42.1573817" lon="13.6747833"><ele>851.0</ele><time>2026-05-02T11:10:25.634Z</time></trkpt><trkpt lat="42.157365" lon="13.674895"><ele>844.3333333333334</ele><time>2026-05-02T11:10:28.635Z</time></trkpt><trkpt lat="42.1573567" lon="13.6750067"><ele>837.6666666666667</ele><time>2026-05-02T11:10:31.634Z</time></trkpt><trkpt lat="42.15728" lon="13.6750517"><ele>831.0</ele><time>2026-05-02T11:10:35.634Z</time></trkpt><trkpt lat="42.1572283" lon="13.6749967"><ele>824.3333333333333</ele><time>2026-05-02T11:10:38.635Z</time></trkpt><trkpt lat="42.1572017" lon="13.67486"><ele>817.6666666666666</ele><time>2026-05-02T11:10:41.635Z</time></trkpt><trkpt lat="42.1571867" lon="13.674715"><ele>811.0</ele><time>2026-05-02T11:10:43.634Z</time></trkpt><trkpt lat="42.15718" lon="13.6745633"><ele>811.0</ele><time>2026-05-02T11:10:45.635Z</time></trkpt><trkpt lat="42.1571767" lon="13.674445"><ele>811.0</ele><time>2026-05-02T11:10:47.635Z</time></trkpt><trkpt lat="42.15718" lon="13.6743583"><ele>811.0</ele><time>2026-05-02T11:10:49.635Z</time></trkpt><trkpt lat="42.1571783" lon="13.6742583"><ele>811.0</ele><time>2026-05-02T11:10:51.634Z</time></trkpt><trkpt lat="42.1571767" lon="13.674155"><ele>811.0</ele><time>2026-05-02T11:10:53.635Z</time></trkpt><trkpt lat="42.1571967" lon="13.6740583"><ele>811.0</ele><time>2026-05-02T11:10:55.635Z</time></trkpt><trkpt lat="42.1571933" lon="13.6739717"><ele>811.0</ele><time>2026-05-02T11:10:57.635Z</time></trkpt><trkpt lat="42.1571367" lon="13.6739183"><ele>812.6666666666666</ele><time>2026-05-02T11:10:59.635Z</time></trkpt><trkpt lat="42.1570683" lon="13.673915"><ele>814.3333333333333</ele><time>2026-05-02T11:11:02.635Z</time></trkpt><trkpt lat="42.1570117" lon="13.673985"><ele>816.0</ele><time>2026-05-02T11:11:11.633Z</time></trkpt><trkpt lat="42.1569433" lon="13.6740417"><ele>817.6666666666667</ele><time>2026-05-02T11:11:14.634Z</time></trkpt><trkpt lat="42.1568983" lon="13.6741083"><ele>819.3333333333334</ele><time>2026-05-02T11:11:16.634Z</time></trkpt><trkpt lat="42.1568567" lon="13.6741817"><ele>821.0</ele><time>2026-05-02T11:11:18.633Z</time></trkpt><trkpt lat="42.15686" lon="13.6743117"><ele>821.0</ele><time>2026-05-02T11:11:21.633Z</time></trkpt><trkpt lat="42.1568717" lon="13.6744167"><ele>821.0</ele><time>2026-05-02T11:11:23.633Z</time></trkpt><trkpt lat="42.156865" lon="13.67453"><ele>821.0</ele><time>2026-05-02T11:11:25.633Z</time></trkpt><trkpt lat="42.1568317" lon="13.6746533"><ele>821.0</ele><time>2026-05-02T11:11:27.634Z</time></trkpt><trkpt lat="42.1567817" lon="13.6747783"><ele>821.0</ele><time>2026-05-02T11:11:29.633Z</time></trkpt><trkpt lat="42.156735" lon="13.6748933"><ele>819.3333333333334</ele><time>2026-05-02T11:11:31.634Z</time></trkpt><trkpt lat="42.156695" lon="13.6749967"><ele>817.6666666666667</ele><time>2026-05-02T11:11:33.633Z</time></trkpt><trkpt lat="42.1566617" lon="13.675105"><ele>816.0</ele><time>2026-05-02T11:11:35.633Z</time></trkpt><trkpt lat="42.1566067" lon="13.675245"><ele>814.3333333333333</ele><time>2026-05-02T11:11:37.633Z</time></trkpt><trkpt lat="42.15658" lon="13.6753233"><ele>812.6666666666666</ele><time>2026-05-02T11:11:38.634Z</time></trkpt><trkpt lat="42.1565567" lon="13.6754067"><ele>811.0</ele><time>2026-05-02T11:11:39.633Z</time></trkpt><trkpt lat="42.1565367" lon="13.6754883"><ele>812.5999999999999</ele><time>2026-05-02T11:11:40.634Z</time></trkpt><trkpt lat="42.156505" lon="13.6756483"><ele>814.2</ele><time>2026-05-02T11:11:42.634Z</time></trkpt><trkpt lat="42.15647" lon="13.675785"><ele>815.8</ele><time>2026-05-02T11:11:44.633Z</time></trkpt><trkpt lat="42.156425" lon="13.6758683"><ele>817.4000000000001</ele><time>2026-05-02T11:11:46.634Z</time></trkpt><trkpt lat="42.156385" lon="13.6759933"><ele>819.0</ele><time>2026-05-02T11:11:48.633Z</time></trkpt><trkpt lat="42.1563783" lon="13.6760883"><ele>818.4000000000001</ele><time>2026-05-02T11:11:49.633Z</time></trkpt><trkpt lat="42.1563817" lon="13.6761983"><ele>817.8</ele><time>2026-05-02T11:11:50.633Z</time></trkpt><trkpt lat="42.1563883" lon="13.67633"><ele>817.2</ele><time>2026-05-02T11:11:51.633Z</time></trkpt><trkpt lat="42.1564033" lon="13.6764733"><ele>816.5999999999999</ele><time>2026-05-02T11:11:52.633Z</time></trkpt><trkpt lat="42.1564267" lon="13.6766267"><ele>816.0</ele><time>2026-05-02T11:11:53.633Z</time></trkpt><trkpt lat="42.1564533" lon="13.6767717"><ele>816.0</ele><time>2026-05-02T11:11:54.633Z</time></trkpt><trkpt lat="42.1564683" lon="13.6769033"><ele>816.0</ele><time>2026-05-02T11:11:55.633Z</time></trkpt><trkpt lat="42.15649" lon="13.6770467"><ele>816.0</ele><time>2026-05-02T11:11:56.633Z</time></trkpt><trkpt lat="42.156515" lon="13.67722"><ele>816.0</ele><time>2026-05-02T11:11:57.633Z</time></trkpt><trkpt lat="42.156535" lon="13.6773883"><ele>807.25</ele><time>2026-05-02T11:11:58.634Z</time></trkpt><trkpt lat="42.156565" lon="13.6775667"><ele>798.5</ele><time>2026-05-02T11:11:59.634Z</time></trkpt><trkpt lat="42.156585" lon="13.6777283"><ele>789.75</ele><time>2026-05-02T11:12:00.634Z</time></trkpt><trkpt lat="42.15659" lon="13.677875"><ele>781.0</ele><time>2026-05-02T11:12:01.633Z</time></trkpt><trkpt lat="42.156575" lon="13.6780267"><ele>780.25</ele><time>2026-05-02T11:12:02.634Z</time></trkpt><trkpt lat="42.1565517" lon="13.67818"><ele>779.5</ele><time>2026-05-02T11:12:03.634Z</time></trkpt><trkpt lat="42.1565383" lon="13.6783433"><ele>778.75</ele><time>2026-05-02T11:12:04.633Z</time></trkpt><trkpt lat="42.1565367" lon="13.6785117"><ele>778.0</ele><time>2026-05-02T11:12:05.634Z</time></trkpt><trkpt lat="42.1565417" lon="13.67867"><ele>778.0</ele><time>2026-05-02T11:12:06.634Z</time></trkpt><trkpt lat="42.15655" lon="13.678825"><ele>778.0</ele><time>2026-05-02T11:12:07.633Z</time></trkpt><trkpt lat="42.1565667" lon="13.67898"><ele>778.0</ele><time>2026-05-02T11:12:08.633Z</time></trkpt><trkpt lat="42.1565983" lon="13.6791083"><ele>778.0</ele><time>2026-05-02T11:12:09.634Z</time></trkpt><trkpt lat="42.1566283" lon="13.6792183"><ele>778.0</ele><time>2026-05-02T11:12:10.633Z</time></trkpt><trkpt lat="42.1566517" lon="13.6793017"><ele>777.9999999999999</ele><time>2026-05-02T11:12:11.633Z</time></trkpt><trkpt lat="42.1566433" lon="13.67939"><ele>778.0</ele><time>2026-05-02T11:12:13.633Z</time></trkpt><trkpt lat="42.156655" lon="13.679475"><ele>778.0</ele><time>2026-05-02T11:12:15.633Z</time></trkpt><trkpt lat="42.1566967" lon="13.6793867"><ele>778.0</ele><time>2026-05-02T11:12:19.633Z</time></trkpt><trkpt lat="42.156635" lon="13.6793"><ele>777.9999999999999</ele><time>2026-05-02T11:12:22.634Z</time></trkpt><trkpt lat="42.15661" lon="13.6792117"><ele>778.0</ele><time>2026-05-02T11:12:23.634Z</time></trkpt><trkpt lat="42.156585" lon="13.67908"><ele>778.0</ele><time>2026-05-02T11:12:24.633Z</time></trkpt><trkpt lat="42.156565" lon="13.6789067"><ele>778.0</ele><time>2026-05-02T11:12:25.634Z</time></trkpt><trkpt lat="42.15655" lon="13.67873"><ele>778.0</ele><time>2026-05-02T11:12:26.633Z</time></trkpt><trkpt lat="42.1565417" lon="13.6785583"><ele>778.0</ele><time>2026-05-02T11:12:27.634Z</time></trkpt><trkpt lat="42.1565433" lon="13.678405"><ele>777.25</ele><time>2026-05-02T11:12:28.633Z</time></trkpt><trkpt lat="42.156555" lon="13.67825"><ele>776.5</ele><time>2026-05-02T11:12:29.634Z</time></trkpt><trkpt lat="42.156575" lon="13.67809"><ele>775.75</ele><time>2026-05-02T11:12:30.634Z</time></trkpt><trkpt lat="42.1565867" lon="13.6779317"><ele>775.0</ele><time>2026-05-02T11:12:31.633Z</time></trkpt><trkpt lat="42.156605" lon="13.6777817"><ele>776.2</ele><time>2026-05-02T11:12:32.633Z</time></trkpt><trkpt lat="42.1566" lon="13.67764"><ele>777.4</ele><time>2026-05-02T11:12:33.634Z</time></trkpt><trkpt lat="42.1565667" lon="13.6775167"><ele>778.5999999999999</ele><time>2026-05-02T11:12:34.634Z</time></trkpt><trkpt lat="42.1565433" lon="13.6774067"><ele>779.8</ele><time>2026-05-02T11:12:35.633Z</time></trkpt><trkpt lat="42.1565217" lon="13.6773033"><ele>781.0</ele><time>2026-05-02T11:12:36.633Z</time></trkpt><trkpt lat="42.1565183" lon="13.6771567"><ele>781.0</ele><time>2026-05-02T11:12:38.634Z</time></trkpt><trkpt lat="42.1566017" lon="13.6771533"><ele>781.0</ele><time>2026-05-02T11:12:40.634Z</time></trkpt><trkpt lat="42.1566517" lon="13.6772383"><ele>781.0</ele><time>2026-05-02T11:12:41.633Z</time></trkpt><trkpt lat="42.1566983" lon="13.6773583"><ele>781.0</ele><time>2026-05-02T11:12:42.634Z</time></trkpt><trkpt lat="42.1567383" lon="13.677495"><ele>781.0</ele><time>2026-05-02T11:12:43.633Z</time></trkpt><trkpt lat="42.156775" lon="13.6776467"><ele>779.5</ele><time>2026-05-02T11:12:44.633Z</time></trkpt><trkpt lat="42.156805" lon="13.6778017"><ele>778.0</ele><time>2026-05-02T11:12:45.633Z</time></trkpt><trkpt lat="42.156835" lon="13.67796"><ele>776.5</ele><time>2026-05-02T11:12:46.633Z</time></trkpt><trkpt lat="42.15688" lon="13.678135"><ele>775.0</ele><time>2026-05-02T11:12:47.633Z</time></trkpt><trkpt lat="42.1569267" lon="13.678315"><ele>775.0</ele><time>2026-05-02T11:12:48.633Z</time></trkpt><trkpt lat="42.1569783" lon="13.678505"><ele>775.0</ele><time>2026-05-02T11:12:49.633Z</time></trkpt><trkpt lat="42.1570217" lon="13.6786983"><ele>775.0</ele><time>2026-05-02T11:12:50.633Z</time></trkpt><trkpt lat="42.1570633" lon="13.67889"><ele>775.0</ele><time>2026-05-02T11:12:51.633Z</time></trkpt><trkpt lat="42.157105" lon="13.6790533"><ele>775.6</ele><time>2026-05-02T11:12:52.633Z</time></trkpt><trkpt lat="42.1571583" lon="13.6791917"><ele>776.2</ele><time>2026-05-02T11:12:53.634Z</time></trkpt><trkpt lat="42.1572033" lon="13.6793167"><ele>776.8</ele><time>2026-05-02T11:12:54.634Z</time></trkpt><trkpt lat="42.1572417" lon="13.6794367"><ele>777.4</ele><time>2026-05-02T11:12:55.633Z</time></trkpt><trkpt lat="42.1572333" lon="13.679555"><ele>778.0</ele><time>2026-05-02T11:12:56.634Z</time></trkpt><trkpt lat="42.1572217" lon="13.679685"><ele>774.5</ele><time>2026-05-02T11:12:57.633Z</time></trkpt><trkpt lat="42.1571917" lon="13.6798333"><ele>771.0</ele><time>2026-05-02T11:12:58.634Z</time></trkpt><trkpt lat="42.1571667" lon="13.679995"><ele>767.5</ele><time>2026-05-02T11:12:59.634Z</time></trkpt><trkpt lat="42.1571417" lon="13.6801617"><ele>764.0</ele><time>2026-05-02T11:13:00.633Z</time></trkpt><trkpt lat="42.1571133" lon="13.6803283"><ele>759.25</ele><time>2026-05-02T11:13:01.633Z</time></trkpt><trkpt lat="42.157075" lon="13.680495"><ele>754.5</ele><time>2026-05-02T11:13:02.634Z</time></trkpt><trkpt lat="42.15702" lon="13.680665"><ele>749.75</ele><time>2026-05-02T11:13:03.633Z</time></trkpt><trkpt lat="42.1569567" lon="13.6808183"><ele>745.0</ele><time>2026-05-02T11:13:04.634Z</time></trkpt><trkpt lat="42.1568833" lon="13.6809567"><ele>745.0</ele><time>2026-05-02T11:13:05.633Z</time></trkpt><trkpt lat="42.1568083" lon="13.6810933"><ele>745.0</ele><time>2026-05-02T11:13:06.633Z</time></trkpt><trkpt lat="42.156725" lon="13.6812183"><ele>745.0</ele><time>2026-05-02T11:13:07.634Z</time></trkpt><trkpt lat="42.15663" lon="13.6813417"><ele>745.0</ele><time>2026-05-02T11:13:08.634Z</time></trkpt><trkpt lat="42.1565367" lon="13.6814617"><ele>741.75</ele><time>2026-05-02T11:13:09.633Z</time></trkpt><trkpt lat="42.156435" lon="13.6815767"><ele>738.5</ele><time>2026-05-02T11:13:10.634Z</time></trkpt><trkpt lat="42.1563267" lon="13.6816967"><ele>735.25</ele><time>2026-05-02T11:13:11.633Z</time></trkpt><trkpt lat="42.1562117" lon="13.6818167"><ele>732.0</ele><time>2026-05-02T11:13:12.633Z</time></trkpt><trkpt lat="42.156085" lon="13.6819417"><ele>731.0</ele><time>2026-05-02T11:13:13.633Z</time></trkpt><trkpt lat="42.15595" lon="13.68207"><ele>730.0</ele><time>2026-05-02T11:13:14.634Z</time></trkpt><trkpt lat="42.1558217" lon="13.6821817"><ele>729.0</ele><time>2026-05-02T11:13:15.634Z</time></trkpt><trkpt lat="42.1557033" lon="13.682295"><ele>725.5</ele><time>2026-05-02T11:13:16.634Z</time></trkpt><trkpt lat="42.1555817" lon="13.6824033"><ele>722.0</ele><time>2026-05-02T11:13:17.634Z</time></trkpt><trkpt lat="42.1554633" lon="13.6825017"><ele>718.5</ele><time>2026-05-02T11:13:18.634Z</time></trkpt><trkpt lat="42.15535" lon="13.6826083"><ele>715.0</ele><time>2026-05-02T11:13:19.634Z</time></trkpt><trkpt lat="42.1552317" lon="13.6827183"><ele>715.0</ele><time>2026-05-02T11:13:20.633Z</time></trkpt><trkpt lat="42.1551217" lon="13.6828283"><ele>715.0</ele><time>2026-05-02T11:13:21.634Z</time></trkpt><trkpt lat="42.1550117" lon="13.68294"><ele>715.0</ele><time>2026-05-02T11:13:22.633Z</time></trkpt><trkpt lat="42.1549233" lon="13.68306"><ele>715.0</ele><time>2026-05-02T11:13:23.634Z</time></trkpt><trkpt lat="42.1548383" lon="13.6831667"><ele>712.8</ele><time>2026-05-02T11:13:24.633Z</time></trkpt><trkpt lat="42.154755" lon="13.683265"><ele>710.6</ele><time>2026-05-02T11:13:25.633Z</time></trkpt><trkpt lat="42.1546783" lon="13.68336"><ele>708.4000000000001</ele><time>2026-05-02T11:13:26.634Z</time></trkpt><trkpt lat="42.1545967" lon="13.6834533"><ele>706.2</ele><time>2026-05-02T11:13:27.634Z</time></trkpt><trkpt lat="42.1545183" lon="13.6835383"><ele>704.0</ele><time>2026-05-02T11:13:28.634Z</time></trkpt><trkpt lat="42.1544633" lon="13.6835983"><ele>703.0</ele><time>2026-05-02T11:13:29.633Z</time></trkpt><trkpt lat="42.154415" lon="13.683655"><ele>702.0</ele><time>2026-05-02T11:13:30.633Z</time></trkpt><trkpt lat="42.1543333" lon="13.683695"><ele>701.0</ele><time>2026-05-02T11:13:32.633Z</time></trkpt><trkpt lat="42.154235" lon="13.6836483"><ele>700.0</ele><time>2026-05-02T11:13:34.634Z</time></trkpt><trkpt lat="42.154135" lon="13.6836583"><ele>699.0</ele><time>2026-05-02T11:13:36.633Z</time></trkpt><trkpt lat="42.1540733" lon="13.6837183"><ele>698.0</ele><time>2026-05-02T11:13:38.634Z</time></trkpt><trkpt lat="42.1540033" lon="13.6837717"><ele>698.0</ele><time>2026-05-02T11:13:40.634Z</time></trkpt><trkpt lat="42.153965" lon="13.68386"><ele>698.0</ele><time>2026-05-02T11:13:42.634Z</time></trkpt><trkpt lat="42.15398" lon="13.6839617"><ele>698.0</ele><time>2026-05-02T11:13:44.633Z</time></trkpt><trkpt lat="42.15407" lon="13.684065"><ele>698.0</ele><time>2026-05-02T11:13:46.634Z</time></trkpt><trkpt lat="42.154115" lon="13.6841317"><ele>698.0</ele><time>2026-05-02T11:13:47.634Z</time></trkpt><trkpt lat="42.154135" lon="13.68429"><ele>697.5999999999999</ele><time>2026-05-02T11:13:49.634Z</time></trkpt><trkpt lat="42.1541" lon="13.68445"><ele>697.1999999999999</ele><time>2026-05-02T11:13:51.633Z</time></trkpt><trkpt lat="42.1540783" lon="13.6845517"><ele>696.8</ele><time>2026-05-02T11:13:52.634Z</time></trkpt><trkpt lat="42.1540517" lon="13.684675"><ele>696.4</ele><time>2026-05-02T11:13:53.633Z</time></trkpt><trkpt lat="42.15401" lon="13.6847967"><ele>696.0</ele><time>2026-05-02T11:13:54.634Z</time></trkpt><trkpt lat="42.153975" lon="13.68493"><ele>695.4</ele><time>2026-05-02T11:13:55.633Z</time></trkpt><trkpt lat="42.153945" lon="13.685065"><ele>694.8</ele><time>2026-05-02T11:13:56.633Z</time></trkpt><trkpt lat="42.1539167" lon="13.6851983"><ele>694.1999999999999</ele><time>2026-05-02T11:13:57.633Z</time></trkpt><trkpt lat="42.1538817" lon="13.6853317"><ele>693.5999999999999</ele><time>2026-05-02T11:13:58.633Z</time></trkpt><trkpt lat="42.153845" lon="13.6854617"><ele>693.0</ele><time>2026-05-02T11:13:59.633Z</time></trkpt><trkpt lat="42.15381" lon="13.6855967"><ele>693.0</ele><time>2026-05-02T11:14:00.634Z</time></trkpt><trkpt lat="42.153775" lon="13.6857333"><ele>693.0</ele><time>2026-05-02T11:14:01.634Z</time></trkpt><trkpt lat="42.1537367" lon="13.68589"><ele>693.0</ele><time>2026-05-02T11:14:02.634Z</time></trkpt><trkpt lat="42.153705" lon="13.6860733"><ele>693.0</ele><time>2026-05-02T11:14:03.634Z</time></trkpt><trkpt lat="42.1536683" lon="13.6862583"><ele>689.3333333333334</ele><time>2026-05-02T11:14:04.633Z</time></trkpt><trkpt lat="42.153615" lon="13.686445"><ele>685.6666666666667</ele><time>2026-05-02T11:14:05.633Z</time></trkpt><trkpt lat="42.15356" lon="13.6866533"><ele>682.0</ele><time>2026-05-02T11:14:06.634Z</time></trkpt><trkpt lat="42.1535117" lon="13.6868617"><ele>680.25</ele><time>2026-05-02T11:14:07.634Z</time></trkpt><trkpt lat="42.153475" lon="13.687055"><ele>678.5</ele><time>2026-05-02T11:14:08.633Z</time></trkpt><trkpt lat="42.1534433" lon="13.6872317"><ele>676.75</ele><time>2026-05-02T11:14:09.632Z</time></trkpt><trkpt lat="42.1534167" lon="13.6873883"><ele>675.0</ele><time>2026-05-02T11:14:10.633Z</time></trkpt><trkpt lat="42.1533883" lon="13.6875167"><ele>675.0</ele><time>2026-05-02T11:14:11.633Z</time></trkpt><trkpt lat="42.1533633" lon="13.6876217"><ele>675.0</ele><time>2026-05-02T11:14:12.633Z</time></trkpt><trkpt lat="42.1533133" lon="13.6877367"><ele>675.0</ele><time>2026-05-02T11:14:14.632Z</time></trkpt><trkpt lat="42.15321" lon="13.6877317"><ele>675.0</ele><time>2026-05-02T11:14:16.632Z</time></trkpt><trkpt lat="42.1531417" lon="13.6877267"><ele>675.0</ele><time>2026-05-02T11:14:17.633Z</time></trkpt><trkpt lat="42.15306" lon="13.687745"><ele>675.0</ele><time>2026-05-02T11:14:18.632Z</time></trkpt><trkpt lat="42.1529683" lon="13.6877917"><ele>673.0</ele><time>2026-05-02T11:14:19.633Z</time></trkpt><trkpt lat="42.15286" lon="13.6878517"><ele>671.0</ele><time>2026-05-02T11:14:20.632Z</time></trkpt><trkpt lat="42.1527517" lon="13.68792"><ele>669.0</ele><time>2026-05-02T11:14:21.633Z</time></trkpt><trkpt lat="42.1526483" lon="13.6879917"><ele>667.0</ele><time>2026-05-02T11:14:22.632Z</time></trkpt><trkpt lat="42.1525667" lon="13.6880683"><ele>667.0</ele><time>2026-05-02T11:14:23.633Z</time></trkpt><trkpt lat="42.1525033" lon="13.68816"><ele>667.0</ele><time>2026-05-02T11:14:24.633Z</time></trkpt><trkpt lat="42.1524467" lon="13.6882733"><ele>667.0</ele><time>2026-05-02T11:14:25.632Z</time></trkpt><trkpt lat="42.1523967" lon="13.6883917"><ele>667.0</ele><time>2026-05-02T11:14:26.633Z</time></trkpt><trkpt lat="42.1523383" lon="13.6885117"><ele>667.0</ele><time>2026-05-02T11:14:27.632Z</time></trkpt><trkpt lat="42.1522667" lon="13.688635"><ele>666.0</ele><time>2026-05-02T11:14:28.632Z</time></trkpt><trkpt lat="42.1521917" lon="13.68874"><ele>665.0</ele><time>2026-05-02T11:14:29.633Z</time></trkpt><trkpt lat="42.1521017" lon="13.68883"><ele>664.0</ele><time>2026-05-02T11:14:30.633Z</time></trkpt><trkpt lat="42.152" lon="13.6889167"><ele>663.0</ele><time>2026-05-02T11:14:31.633Z</time></trkpt><trkpt lat="42.1518883" lon="13.6890067"><ele>663.0</ele><time>2026-05-02T11:14:32.632Z</time></trkpt><trkpt lat="42.1517733" lon="13.6890967"><ele>663.0</ele><time>2026-05-02T11:14:33.632Z</time></trkpt><trkpt lat="42.15166" lon="13.689175"><ele>663.0</ele><time>2026-05-02T11:14:34.633Z</time></trkpt><trkpt lat="42.15157" lon="13.6892433"><ele>663.0</ele><time>2026-05-02T11:14:35.633Z</time></trkpt><trkpt lat="42.15148" lon="13.6893117"><ele>662.8333333333334</ele><time>2026-05-02T11:14:36.632Z</time></trkpt><trkpt lat="42.1513933" lon="13.6893783"><ele>662.6666666666666</ele><time>2026-05-02T11:14:37.632Z</time></trkpt><trkpt lat="42.1513083" lon="13.6894333"><ele>662.5</ele><time>2026-05-02T11:14:38.632Z</time></trkpt><trkpt lat="42.1512417" lon="13.68948"><ele>662.3333333333333</ele><time>2026-05-02T11:14:39.633Z</time></trkpt><trkpt lat="42.151185" lon="13.689535"><ele>662.1666666666666</ele><time>2026-05-02T11:14:40.633Z</time></trkpt><trkpt lat="42.15114" lon="13.6896"><ele>662.0</ele><time>2026-05-02T11:14:41.632Z</time></trkpt><trkpt lat="42.151105" lon="13.6896967"><ele>662.0</ele><time>2026-05-02T11:14:42.633Z</time></trkpt><trkpt lat="42.151085" lon="13.68983"><ele>662.0</ele><time>2026-05-02T11:14:43.633Z</time></trkpt><trkpt lat="42.15106" lon="13.6899883"><ele>662.0</ele><time>2026-05-02T11:14:44.633Z</time></trkpt><trkpt lat="42.1510233" lon="13.69016"><ele>662.0</ele><time>2026-05-02T11:14:45.632Z</time></trkpt><trkpt lat="42.150985" lon="13.6903333"><ele>662.0</ele><time>2026-05-02T11:14:46.632Z</time></trkpt><trkpt lat="42.1509433" lon="13.690505"><ele>662.0</ele><time>2026-05-02T11:14:47.633Z</time></trkpt><trkpt lat="42.15089" lon="13.6906683"><ele>662.0</ele><time>2026-05-02T11:14:48.632Z</time></trkpt><trkpt lat="42.1508317" lon="13.6908367"><ele>662.0</ele><time>2026-05-02T11:14:49.633Z</time></trkpt><trkpt lat="42.1507817" lon="13.69101"><ele>662.0</ele><time>2026-05-02T11:14:50.633Z</time></trkpt><trkpt lat="42.15073" lon="13.691175"><ele>662.0</ele><time>2026-05-02T11:14:51.633Z</time></trkpt><trkpt lat="42.1506817" lon="13.69133"><ele>662.0</ele><time>2026-05-02T11:14:52.632Z</time></trkpt><trkpt lat="42.1506417" lon="13.6914867"><ele>662.0</ele><time>2026-05-02T11:14:53.632Z</time></trkpt><trkpt lat="42.1505883" lon="13.6916283"><ele>661.5</ele><time>2026-05-02T11:14:54.633Z</time></trkpt><trkpt lat="42.1505383" lon="13.6917717"><ele>661.0</ele><time>2026-05-02T11:14:55.633Z</time></trkpt><trkpt lat="42.150485" lon="13.6919017"><ele>660.5</ele><time>2026-05-02T11:14:56.633Z</time></trkpt><trkpt lat="42.1504167" lon="13.6920433"><ele>660.0</ele><time>2026-05-02T11:14:57.633Z</time></trkpt><trkpt lat="42.15035" lon="13.6921867"><ele>660.0</ele><time>2026-05-02T11:14:58.632Z</time></trkpt><trkpt lat="42.1502933" lon="13.6923267"><ele>660.0</ele><time>2026-05-02T11:14:59.633Z</time></trkpt><trkpt lat="42.1502433" lon="13.692465"><ele>660.0</ele><time>2026-05-02T11:15:00.632Z</time></trkpt><trkpt lat="42.1501983" lon="13.6925817"><ele>660.0</ele><time>2026-05-02T11:15:01.633Z</time></trkpt><trkpt lat="42.1501567" lon="13.6926833"><ele>660.0</ele><time>2026-05-02T11:15:02.633Z</time></trkpt><trkpt lat="42.150115" lon="13.69276"><ele>659.6666666666666</ele><time>2026-05-02T11:15:03.633Z</time></trkpt><trkpt lat="42.1500567" lon="13.6928183"><ele>659.3333333333334</ele><time>2026-05-02T11:15:04.633Z</time></trkpt><trkpt lat="42.1499917" lon="13.69286"><ele>659.0</ele><time>2026-05-02T11:15:05.633Z</time></trkpt><trkpt lat="42.1499233" lon="13.69291"><ele>658.6666666666667</ele><time>2026-05-02T11:15:06.633Z</time></trkpt><trkpt lat="42.14986" lon="13.6929683"><ele>658.3333333333334</ele><time>2026-05-02T11:15:07.633Z</time></trkpt><trkpt lat="42.149805" lon="13.6930617"><ele>658.0</ele><time>2026-05-02T11:15:08.632Z</time></trkpt><trkpt lat="42.1497483" lon="13.693175"><ele>656.0</ele><time>2026-05-02T11:15:09.633Z</time></trkpt><trkpt lat="42.1496917" lon="13.6933067"><ele>654.0</ele><time>2026-05-02T11:15:10.633Z</time></trkpt><trkpt lat="42.1496267" lon="13.6934383"><ele>652.0</ele><time>2026-05-02T11:15:11.633Z</time></trkpt><trkpt lat="42.149565" lon="13.693575"><ele>650.0</ele><time>2026-05-02T11:15:12.632Z</time></trkpt><trkpt lat="42.1495067" lon="13.6937133"><ele>650.0</ele><time>2026-05-02T11:15:13.633Z</time></trkpt><trkpt lat="42.1494467" lon="13.6938517"><ele>650.0</ele><time>2026-05-02T11:15:14.633Z</time></trkpt><trkpt lat="42.1493917" lon="13.6939783"><ele>650.0</ele><time>2026-05-02T11:15:15.633Z</time></trkpt><trkpt lat="42.1493283" lon="13.694115"><ele>650.0</ele><time>2026-05-02T11:15:16.633Z</time></trkpt><trkpt lat="42.1492733" lon="13.6942383"><ele>650.0</ele><time>2026-05-02T11:15:17.632Z</time></trkpt><trkpt lat="42.149205" lon="13.6943417"><ele>650.0</ele><time>2026-05-02T11:15:18.633Z</time></trkpt><trkpt lat="42.1491467" lon="13.694445"><ele>650.0</ele><time>2026-05-02T11:15:19.633Z</time></trkpt><trkpt lat="42.1490683" lon="13.69454"><ele>650.0</ele><time>2026-05-02T11:15:20.633Z</time></trkpt><trkpt lat="42.149" lon="13.6946433"><ele>650.0</ele><time>2026-05-02T11:15:21.632Z</time></trkpt><trkpt lat="42.1489417" lon="13.6947483"><ele>650.0</ele><time>2026-05-02T11:15:22.633Z</time></trkpt><trkpt lat="42.1488817" lon="13.6948767"><ele>650.0</ele><time>2026-05-02T11:15:23.633Z</time></trkpt><trkpt lat="42.1488317" lon="13.6949867"><ele>650.0</ele><time>2026-05-02T11:15:24.632Z</time></trkpt><trkpt lat="42.148775" lon="13.6950833"><ele>650.0</ele><time>2026-05-02T11:15:25.632Z</time></trkpt><trkpt lat="42.1487117" lon="13.6951633"><ele>650.0</ele><time>2026-05-02T11:15:26.633Z</time></trkpt><trkpt lat="42.1486283" lon="13.6952283"><ele>650.4</ele><time>2026-05-02T11:15:27.633Z</time></trkpt><trkpt lat="42.1485317" lon="13.6952883"><ele>650.8</ele><time>2026-05-02T11:15:28.632Z</time></trkpt><trkpt lat="42.148445" lon="13.695365"><ele>651.2</ele><time>2026-05-02T11:15:29.633Z</time></trkpt><trkpt lat="42.14837" lon="13.695445"><ele>651.6</ele><time>2026-05-02T11:15:30.632Z</time></trkpt><trkpt lat="42.1483167" lon="13.6955467"><ele>652.0</ele><time>2026-05-02T11:15:31.632Z</time></trkpt><trkpt lat="42.1482667" lon="13.6956633"><ele>652.0</ele><time>2026-05-02T11:15:32.633Z</time></trkpt><trkpt lat="42.1482233" lon="13.6957767"><ele>652.0</ele><time>2026-05-02T11:15:33.633Z</time></trkpt><trkpt lat="42.148175" lon="13.6958767"><ele>652.0</ele><time>2026-05-02T11:15:34.633Z</time></trkpt><trkpt lat="42.1481217" lon="13.69594"><ele>652.0</ele><time>2026-05-02T11:15:35.633Z</time></trkpt><trkpt lat="42.1480617" lon="13.69598"><ele>652.0</ele><time>2026-05-02T11:15:36.632Z</time></trkpt><trkpt lat="42.1479967" lon="13.696005"><ele>652.0</ele><time>2026-05-02T11:15:37.632Z</time></trkpt><trkpt lat="42.1479283" lon="13.69602"><ele>651.4000000000001</ele><time>2026-05-02T11:15:38.632Z</time></trkpt><trkpt lat="42.147855" lon="13.69603"><ele>650.8000000000001</ele><time>2026-05-02T11:15:39.633Z</time></trkpt><trkpt lat="42.1477583" lon="13.6960517"><ele>650.2</ele><time>2026-05-02T11:15:40.632Z</time></trkpt><trkpt lat="42.14766" lon="13.6960667"><ele>649.6</ele><time>2026-05-02T11:15:41.632Z</time></trkpt><trkpt lat="42.1475533" lon="13.696085"><ele>649.0</ele><time>2026-05-02T11:15:42.633Z</time></trkpt><trkpt lat="42.14735" lon="13.69612"><ele>648.0</ele><time>2026-05-02T11:15:44.633Z</time></trkpt><trkpt lat="42.147245" lon="13.6961433"><ele>647.0</ele><time>2026-05-02T11:15:45.633Z</time></trkpt><trkpt lat="42.1471617" lon="13.6961567"><ele>646.0</ele><time>2026-05-02T11:15:46.632Z</time></trkpt><trkpt lat="42.1470867" lon="13.69616"><ele>645.0</ele><time>2026-05-02T11:15:47.633Z</time></trkpt><trkpt lat="42.14697" lon="13.696095"><ele>644.0</ele><time>2026-05-02T11:15:49.633Z</time></trkpt><trkpt lat="42.1468933" lon="13.696045"><ele>644.0</ele><time>2026-05-02T11:15:50.632Z</time></trkpt><trkpt lat="42.14681" lon="13.6959983"><ele>644.0</ele><time>2026-05-02T11:15:51.632Z</time></trkpt><trkpt lat="42.146725" lon="13.69596"><ele>644.0</ele><time>2026-05-02T11:15:52.633Z</time></trkpt><trkpt lat="42.1466467" lon="13.6959383"><ele>644.0</ele><time>2026-05-02T11:15:53.632Z</time></trkpt><trkpt lat="42.1465533" lon="13.6959183"><ele>644.0</ele><time>2026-05-02T11:15:54.632Z</time></trkpt><trkpt lat="42.1464567" lon="13.695885"><ele>641.6</ele><time>2026-05-02T11:15:55.632Z</time></trkpt><trkpt lat="42.146365" lon="13.6958567"><ele>639.2</ele><time>2026-05-02T11:15:56.632Z</time></trkpt><trkpt lat="42.146275" lon="13.6958433"><ele>636.8000000000001</ele><time>2026-05-02T11:15:57.633Z</time></trkpt><trkpt lat="42.1461833" lon="13.6958467"><ele>634.4000000000001</ele><time>2026-05-02T11:15:58.632Z</time></trkpt><trkpt lat="42.1460983" lon="13.6958733"><ele>632.0</ele><time>2026-05-02T11:15:59.633Z</time></trkpt><trkpt lat="42.145995" lon="13.6959183"><ele>632.0</ele><time>2026-05-02T11:16:00.633Z</time></trkpt><trkpt lat="42.145895" lon="13.6959633"><ele>632.0</ele><time>2026-05-02T11:16:01.632Z</time></trkpt><trkpt lat="42.14579" lon="13.6960117"><ele>632.0</ele><time>2026-05-02T11:16:02.632Z</time></trkpt><trkpt lat="42.1456867" lon="13.6960517"><ele>632.0</ele><time>2026-05-02T11:16:03.633Z</time></trkpt><trkpt lat="42.1455817" lon="13.6960967"><ele>632.0</ele><time>2026-05-02T11:16:04.632Z</time></trkpt><trkpt lat="42.145475" lon="13.696145"><ele>629.0</ele><time>2026-05-02T11:16:05.632Z</time></trkpt><trkpt lat="42.145365" lon="13.69619"><ele>626.0</ele><time>2026-05-02T11:16:06.633Z</time></trkpt><trkpt lat="42.1452517" lon="13.6962317"><ele>623.0</ele><time>2026-05-02T11:16:07.633Z</time></trkpt><trkpt lat="42.1451383" lon="13.696265"><ele>620.0</ele><time>2026-05-02T11:16:08.633Z</time></trkpt><trkpt lat="42.1450267" lon="13.6962917"><ele>620.0</ele><time>2026-05-02T11:16:09.633Z</time></trkpt><trkpt lat="42.1449033" lon="13.6963133"><ele>620.0</ele><time>2026-05-02T11:16:10.633Z</time></trkpt><trkpt lat="42.1447833" lon="13.69633"><ele>620.0</ele><time>2026-05-02T11:16:11.632Z</time></trkpt><trkpt lat="42.14467" lon="13.6963417"><ele>620.0</ele><time>2026-05-02T11:16:12.632Z</time></trkpt><trkpt lat="42.1445567" lon="13.6963583"><ele>617.8</ele><time>2026-05-02T11:16:13.633Z</time></trkpt><trkpt lat="42.1444467" lon="13.6963783"><ele>615.6</ele><time>2026-05-02T11:16:14.633Z</time></trkpt><trkpt lat="42.1443433" lon="13.6964117"><ele>613.4</ele><time>2026-05-02T11:16:15.633Z</time></trkpt><trkpt lat="42.1442467" lon="13.6964567"><ele>611.2</ele><time>2026-05-02T11:16:16.632Z</time></trkpt><trkpt lat="42.144155" lon="13.6965167"><ele>609.0</ele><time>2026-05-02T11:16:17.633Z</time></trkpt><trkpt lat="42.14407" lon="13.69659"><ele>606.25</ele><time>2026-05-02T11:16:18.632Z</time></trkpt><trkpt lat="42.1439883" lon="13.696675"><ele>603.5</ele><time>2026-05-02T11:16:19.632Z</time></trkpt><trkpt lat="42.1438883" lon="13.696765"><ele>600.75</ele><time>2026-05-02T11:16:20.632Z</time></trkpt><trkpt lat="42.14378" lon="13.6968517"><ele>598.0</ele><time>2026-05-02T11:16:21.632Z</time></trkpt><trkpt lat="42.14366" lon="13.6969267"><ele>597.25</ele><time>2026-05-02T11:16:22.632Z</time></trkpt><trkpt lat="42.143535" lon="13.6969983"><ele>596.5</ele><time>2026-05-02T11:16:23.632Z</time></trkpt><trkpt lat="42.1434067" lon="13.6970733"><ele>595.75</ele><time>2026-05-02T11:16:24.633Z</time></trkpt><trkpt lat="42.1432817" lon="13.6971617"><ele>595.0</ele><time>2026-05-02T11:16:25.633Z</time></trkpt><trkpt lat="42.1431617" lon="13.697265"><ele>593.75</ele><time>2026-05-02T11:16:26.633Z</time></trkpt><trkpt lat="42.1430383" lon="13.6973633"><ele>592.5</ele><time>2026-05-02T11:16:27.632Z</time></trkpt><trkpt lat="42.1429133" lon="13.697465"><ele>591.25</ele><time>2026-05-02T11:16:28.633Z</time></trkpt><trkpt lat="42.14279" lon="13.69756"><ele>590.0</ele><time>2026-05-02T11:16:29.632Z</time></trkpt><trkpt lat="42.142665" lon="13.6976533"><ele>590.0</ele><time>2026-05-02T11:16:30.632Z</time></trkpt><trkpt lat="42.1425417" lon="13.6977367"><ele>590.0</ele><time>2026-05-02T11:16:31.633Z</time></trkpt><trkpt lat="42.1424317" lon="13.6978183"><ele>590.0</ele><time>2026-05-02T11:16:32.632Z</time></trkpt><trkpt lat="42.1423283" lon="13.6978833"><ele>590.0</ele><time>2026-05-02T11:16:33.633Z</time></trkpt><trkpt lat="42.1422217" lon="13.6979467"><ele>586.75</ele><time>2026-05-02T11:16:34.632Z</time></trkpt><trkpt lat="42.142105" lon="13.698005"><ele>583.5</ele><time>2026-05-02T11:16:35.632Z</time></trkpt><trkpt lat="42.1419883" lon="13.698055"><ele>580.25</ele><time>2026-05-02T11:16:36.633Z</time></trkpt><trkpt lat="42.14187" lon="13.6980867"><ele>577.0</ele><time>2026-05-02T11:16:37.633Z</time></trkpt><trkpt lat="42.141755" lon="13.6981083"><ele>577.0</ele><time>2026-05-02T11:16:38.632Z</time></trkpt><trkpt lat="42.1416383" lon="13.69811"><ele>577.0</ele><time>2026-05-02T11:16:39.632Z</time></trkpt><trkpt lat="42.141535" lon="13.6981017"><ele>577.0</ele><time>2026-05-02T11:16:40.632Z</time></trkpt><trkpt lat="42.14144" lon="13.6980833"><ele>577.0</ele><time>2026-05-02T11:16:41.633Z</time></trkpt><trkpt lat="42.1413417" lon="13.6980583"><ele>577.0</ele><time>2026-05-02T11:16:42.633Z</time></trkpt><trkpt lat="42.1412417" lon="13.6980283"><ele>575.0</ele><time>2026-05-02T11:16:43.632Z</time></trkpt><trkpt lat="42.141145" lon="13.6979817"><ele>573.0</ele><time>2026-05-02T11:16:44.633Z</time></trkpt><trkpt lat="42.14106" lon="13.697925"><ele>571.0</ele><time>2026-05-02T11:16:45.633Z</time></trkpt><trkpt lat="42.1409967" lon="13.6978567"><ele>569.0</ele><time>2026-05-02T11:16:46.632Z</time></trkpt><trkpt lat="42.1409483" lon="13.6977917"><ele>567.0</ele><time>2026-05-02T11:16:47.633Z</time></trkpt><trkpt lat="42.1409" lon="13.6976783"><ele>565.0</ele><time>2026-05-02T11:16:49.633Z</time></trkpt><trkpt lat="42.140855" lon="13.6976067"><ele>565.0</ele><time>2026-05-02T11:16:53.632Z</time></trkpt><trkpt lat="42.1408183" lon="13.6977417"><ele>565.0</ele><time>2026-05-02T11:17:01.632Z</time></trkpt><trkpt lat="42.1407733" lon="13.697845"><ele>565.0</ele><time>2026-05-02T11:17:03.633Z</time></trkpt><trkpt lat="42.1407017" lon="13.6979683"><ele>565.0</ele><time>2026-05-02T11:17:05.633Z</time></trkpt><trkpt lat="42.1406633" lon="13.6980467"><ele>565.0</ele><time>2026-05-02T11:17:06.633Z</time></trkpt><trkpt lat="42.1405983" lon="13.6981467"><ele>565.3333333333334</ele><time>2026-05-02T11:17:08.632Z</time></trkpt><trkpt lat="42.1405283" lon="13.69812"><ele>565.6666666666667</ele><time>2026-05-02T11:17:10.633Z</time></trkpt><trkpt lat="42.1404467" lon="13.6980033"><ele>566.0</ele><time>2026-05-02T11:17:12.633Z</time></trkpt><trkpt lat="42.1403883" lon="13.697865"><ele>566.3333333333334</ele><time>2026-05-02T11:17:14.631Z</time></trkpt><trkpt lat="42.1403533" lon="13.6977883"><ele>566.6666666666666</ele><time>2026-05-02T11:17:15.631Z</time></trkpt><trkpt lat="42.14031" lon="13.697715"><ele>567.0</ele><time>2026-05-02T11:17:16.631Z</time></trkpt><trkpt lat="42.1402633" lon="13.6976467"><ele>567.0</ele><time>2026-05-02T11:17:17.632Z</time></trkpt><trkpt lat="42.1402167" lon="13.6975833"><ele>567.0</ele><time>2026-05-02T11:17:18.632Z</time></trkpt><trkpt lat="42.1401667" lon="13.6975167"><ele>567.0</ele><time>2026-05-02T11:17:19.632Z</time></trkpt><trkpt lat="42.14011" lon="13.69745"><ele>567.0</ele><time>2026-05-02T11:17:20.632Z</time></trkpt><trkpt lat="42.1400467" lon="13.697405"><ele>567.0</ele><time>2026-05-02T11:17:21.632Z</time></trkpt><trkpt lat="42.1399367" lon="13.6973817"><ele>567.0</ele><time>2026-05-02T11:17:23.632Z</time></trkpt><trkpt lat="42.13981" lon="13.6974067"><ele>568.1666666666666</ele><time>2026-05-02T11:17:25.632Z</time></trkpt><trkpt lat="42.1397367" lon="13.6974217"><ele>569.3333333333334</ele><time>2026-05-02T11:17:26.631Z</time></trkpt><trkpt lat="42.1396733" lon="13.6974217"><ele>570.5</ele><time>2026-05-02T11:17:27.631Z</time></trkpt><trkpt lat="42.139555" lon="13.6973817"><ele>571.6666666666667</ele><time>2026-05-02T11:17:29.632Z</time></trkpt><trkpt lat="42.139495" lon="13.6973483"><ele>572.8333333333334</ele><time>2026-05-02T11:17:30.631Z</time></trkpt><trkpt lat="42.1394233" lon="13.6973167"><ele>574.0</ele><time>2026-05-02T11:17:31.632Z</time></trkpt><trkpt lat="42.139345" lon="13.6972967"><ele>574.0</ele><time>2026-05-02T11:17:32.631Z</time></trkpt><trkpt lat="42.1392683" lon="13.69729"><ele>574.0</ele><time>2026-05-02T11:17:33.632Z</time></trkpt><trkpt lat="42.1392017" lon="13.6972883"><ele>574.0</ele><time>2026-05-02T11:17:34.632Z</time></trkpt><trkpt lat="42.1391317" lon="13.6972767"><ele>574.0</ele><time>2026-05-02T11:17:35.632Z</time></trkpt><trkpt lat="42.1390267" lon="13.6972433"><ele>574.0</ele><time>2026-05-02T11:17:37.631Z</time></trkpt><trkpt lat="42.1389367" lon="13.6971783"><ele>574.0</ele><time>2026-05-02T11:17:39.632Z</time></trkpt><trkpt lat="42.1388817" lon="13.6971267"><ele>575.5714285714286</ele><time>2026-05-02T11:17:40.632Z</time></trkpt><trkpt lat="42.1388283" lon="13.6970633"><ele>577.1428571428571</ele><time>2026-05-02T11:17:41.631Z</time></trkpt><trkpt lat="42.1387733" lon="13.69699"><ele>578.7142857142858</ele><time>2026-05-02T11:17:42.632Z</time></trkpt><trkpt lat="42.13873" lon="13.6969133"><ele>580.2857142857142</ele><time>2026-05-02T11:17:43.632Z</time></trkpt><trkpt lat="42.1386867" lon="13.6968483"><ele>581.8571428571429</ele><time>2026-05-02T11:17:44.631Z</time></trkpt><trkpt lat="42.138635" lon="13.6967883"><ele>583.4285714285714</ele><time>2026-05-02T11:17:45.631Z</time></trkpt><trkpt lat="42.13858" lon="13.69674"><ele>585.0</ele><time>2026-05-02T11:17:46.632Z</time></trkpt><trkpt lat="42.1385033" lon="13.6966983"><ele>585.0</ele><time>2026-05-02T11:17:47.632Z</time></trkpt><trkpt lat="42.1384183" lon="13.6966567"><ele>585.0</ele><time>2026-05-02T11:17:48.631Z</time></trkpt><trkpt lat="42.138335" lon="13.6966133"><ele>585.0</ele><time>2026-05-02T11:17:49.631Z</time></trkpt><trkpt lat="42.1382517" lon="13.6965783"><ele>585.0</ele><time>2026-05-02T11:17:50.632Z</time></trkpt><trkpt lat="42.1381733" lon="13.696545"><ele>585.0</ele><time>2026-05-02T11:17:51.632Z</time></trkpt><trkpt lat="42.1380967" lon="13.6965117"><ele>585.0</ele><time>2026-05-02T11:17:52.632Z</time></trkpt><trkpt lat="42.1380233" lon="13.6964783"><ele>585.8333333333334</ele><time>2026-05-02T11:17:53.632Z</time></trkpt><trkpt lat="42.13795" lon="13.6964483"><ele>586.6666666666666</ele><time>2026-05-02T11:17:54.632Z</time></trkpt><trkpt lat="42.1378733" lon="13.6964233"><ele>587.5</ele><time>2026-05-02T11:17:55.632Z</time></trkpt><trkpt lat="42.1377983" lon="13.6963933"><ele>588.3333333333333</ele><time>2026-05-02T11:17:56.631Z</time></trkpt><trkpt lat="42.1377333" lon="13.6963683"><ele>589.1666666666666</ele><time>2026-05-02T11:17:57.632Z</time></trkpt><trkpt lat="42.1376733" lon="13.69633"><ele>590.0</ele><time>2026-05-02T11:17:58.631Z</time></trkpt><trkpt lat="42.13756" lon="13.6962317"><ele>590.0</ele><time>2026-05-02T11:18:00.631Z</time></trkpt><trkpt lat="42.1375017" lon="13.696185"><ele>590.0</ele><time>2026-05-02T11:18:01.631Z</time></trkpt><trkpt lat="42.1374067" lon="13.696125"><ele>590.0</ele><time>2026-05-02T11:18:03.632Z</time></trkpt><trkpt lat="42.1372933" lon="13.6960833"><ele>590.0</ele><time>2026-05-02T11:18:05.631Z</time></trkpt><trkpt lat="42.13721" lon="13.6960667"><ele>590.0</ele><time>2026-05-02T11:18:07.632Z</time></trkpt><trkpt lat="42.1371433" lon="13.69608"><ele>590.0</ele><time>2026-05-02T11:18:09.631Z</time></trkpt><trkpt lat="42.137065" lon="13.6961017"><ele>591.0</ele><time>2026-05-02T11:18:11.632Z</time></trkpt><trkpt lat="42.136975" lon="13.6961333"><ele>592.0</ele><time>2026-05-02T11:18:13.632Z</time></trkpt><trkpt lat="42.13687" lon="13.6961517"><ele>593.0</ele><time>2026-05-02T11:18:15.632Z</time></trkpt><trkpt lat="42.1367533" lon="13.6961533"><ele>594.0</ele><time>2026-05-02T11:18:17.632Z</time></trkpt><trkpt lat="42.1366883" lon="13.6961433"><ele>595.0</ele><time>2026-05-02T11:18:18.631Z</time></trkpt><trkpt lat="42.1366217" lon="13.6961367"><ele>596.0</ele><time>2026-05-02T11:18:19.631Z</time></trkpt><trkpt lat="42.13652" lon="13.6961083"><ele>596.5</ele><time>2026-05-02T11:18:21.632Z</time></trkpt><trkpt lat="42.1363967" lon="13.6960767"><ele>597.0</ele><time>2026-05-02T11:18:23.631Z</time></trkpt><trkpt lat="42.1363267" lon="13.6960767"><ele>597.5</ele><time>2026-05-02T11:18:24.632Z</time></trkpt><trkpt lat="42.1362517" lon="13.6960833"><ele>598.0</ele><time>2026-05-02T11:18:25.632Z</time></trkpt><trkpt lat="42.136175" lon="13.6960917"><ele>598.5</ele><time>2026-05-02T11:18:26.632Z</time></trkpt><trkpt lat="42.1360967" lon="13.6961"><ele>599.0</ele><time>2026-05-02T11:18:27.632Z</time></trkpt><trkpt lat="42.1360183" lon="13.6961067"><ele>599.0</ele><time>2026-05-02T11:18:28.632Z</time></trkpt><trkpt lat="42.1359483" lon="13.6961083"><ele>599.0</ele><time>2026-05-02T11:18:29.631Z</time></trkpt><trkpt lat="42.13588" lon="13.6961083"><ele>599.0</ele><time>2026-05-02T11:18:30.631Z</time></trkpt><trkpt lat="42.135815" lon="13.6960983"><ele>599.0</ele><time>2026-05-02T11:18:31.632Z</time></trkpt><trkpt lat="42.13574" lon="13.6960733"><ele>599.0</ele><time>2026-05-02T11:18:32.632Z</time></trkpt><trkpt lat="42.13566" lon="13.69604"><ele>599.0</ele><time>2026-05-02T11:18:33.632Z</time></trkpt><trkpt lat="42.1355767" lon="13.696"><ele>601.3333333333333</ele><time>2026-05-02T11:18:34.632Z</time></trkpt><trkpt lat="42.1355033" lon="13.69596"><ele>603.6666666666666</ele><time>2026-05-02T11:18:35.632Z</time></trkpt><trkpt lat="42.13542" lon="13.6959183"><ele>606.0</ele><time>2026-05-02T11:18:36.631Z</time></trkpt><trkpt lat="42.1353333" lon="13.695895"><ele>608.3333333333334</ele><time>2026-05-02T11:18:37.631Z</time></trkpt><trkpt lat="42.1352483" lon="13.695875"><ele>610.6666666666667</ele><time>2026-05-02T11:18:38.632Z</time></trkpt><trkpt lat="42.1351733" lon="13.6958667"><ele>613.0</ele><time>2026-05-02T11:18:39.632Z</time></trkpt><trkpt lat="42.1351067" lon="13.6958767"><ele>613.0</ele><time>2026-05-02T11:18:40.631Z</time></trkpt><trkpt lat="42.1350267" lon="13.6958933"><ele>613.0</ele><time>2026-05-02T11:18:41.632Z</time></trkpt><trkpt lat="42.1349417" lon="13.6959217"><ele>613.0</ele><time>2026-05-02T11:18:42.632Z</time></trkpt><trkpt lat="42.1348533" lon="13.69594"><ele>613.0</ele><time>2026-05-02T11:18:43.631Z</time></trkpt><trkpt lat="42.1347567" lon="13.69595"><ele>613.0</ele><time>2026-05-02T11:18:44.632Z</time></trkpt><trkpt lat="42.134655" lon="13.6959567"><ele>613.0</ele><time>2026-05-02T11:18:45.631Z</time></trkpt><trkpt lat="42.1345617" lon="13.6959667"><ele>613.0</ele><time>2026-05-02T11:18:46.631Z</time></trkpt><trkpt lat="42.1344983" lon="13.6959833"><ele>613.0</ele><time>2026-05-02T11:18:47.631Z</time></trkpt><trkpt lat="42.1343983" lon="13.6960517"><ele>613.0</ele><time>2026-05-02T11:18:49.632Z</time></trkpt><trkpt lat="42.1343083" lon="13.696155"><ele>613.0</ele><time>2026-05-02T11:18:51.631Z</time></trkpt><trkpt lat="42.1342617" lon="13.6962283"><ele>613.0</ele><time>2026-05-02T11:18:52.631Z</time></trkpt><trkpt lat="42.1342167" lon="13.69631"><ele>613.0</ele><time>2026-05-02T11:18:53.632Z</time></trkpt><trkpt lat="42.1341617" lon="13.6963933"><ele>613.0</ele><time>2026-05-02T11:18:54.631Z</time></trkpt><trkpt lat="42.1341033" lon="13.6964783"><ele>613.0</ele><time>2026-05-02T11:18:55.632Z</time></trkpt><trkpt lat="42.1340367" lon="13.696565"><ele>613.0</ele><time>2026-05-02T11:18:56.631Z</time></trkpt><trkpt lat="42.1339717" lon="13.6966467"><ele>613.0</ele><time>2026-05-02T11:18:57.632Z</time></trkpt><trkpt lat="42.1339067" lon="13.6967117"><ele>613.1666666666667</ele><time>2026-05-02T11:18:58.631Z</time></trkpt><trkpt lat="42.13384" lon="13.69679"><ele>613.3333333333334</ele><time>2026-05-02T11:18:59.632Z</time></trkpt><trkpt lat="42.1337817" lon="13.6968617"><ele>613.5</ele><time>2026-05-02T11:19:00.632Z</time></trkpt><trkpt lat="42.1337217" lon="13.6969333"><ele>613.6666666666666</ele><time>2026-05-02T11:19:01.632Z</time></trkpt><trkpt lat="42.13366" lon="13.6970167"><ele>613.8333333333333</ele><time>2026-05-02T11:19:02.631Z</time></trkpt><trkpt lat="42.133605" lon="13.6970967"><ele>614.0</ele><time>2026-05-02T11:19:03.632Z</time></trkpt><trkpt lat="42.1335533" lon="13.69717"><ele>612.4</ele><time>2026-05-02T11:19:04.632Z</time></trkpt><trkpt lat="42.1335" lon="13.69725"><ele>610.8</ele><time>2026-05-02T11:19:05.632Z</time></trkpt><trkpt lat="42.1334383" lon="13.697335"><ele>609.2</ele><time>2026-05-02T11:19:06.631Z</time></trkpt><trkpt lat="42.13337" lon="13.6974267"><ele>607.6</ele><time>2026-05-02T11:19:07.631Z</time></trkpt><trkpt lat="42.133305" lon="13.6975183"><ele>606.0</ele><time>2026-05-02T11:19:08.631Z</time></trkpt><trkpt lat="42.13323" lon="13.6976117"><ele>607.4</ele><time>2026-05-02T11:19:09.632Z</time></trkpt><trkpt lat="42.1331467" lon="13.6977083"><ele>608.8</ele><time>2026-05-02T11:19:10.631Z</time></trkpt><trkpt lat="42.1330633" lon="13.69781"><ele>610.1999999999999</ele><time>2026-05-02T11:19:11.631Z</time></trkpt><trkpt lat="42.13298" lon="13.697915"><ele>611.6</ele><time>2026-05-02T11:19:12.631Z</time></trkpt><trkpt lat="42.1328967" lon="13.698015"><ele>613.0</ele><time>2026-05-02T11:19:13.631Z</time></trkpt><trkpt lat="42.1328183" lon="13.698105"><ele>613.0</ele><time>2026-05-02T11:19:14.632Z</time></trkpt><trkpt lat="42.13274" lon="13.698185"><ele>613.0</ele><time>2026-05-02T11:19:15.631Z</time></trkpt><trkpt lat="42.1326633" lon="13.698265"><ele>613.0</ele><time>2026-05-02T11:19:16.631Z</time></trkpt><trkpt lat="42.1325967" lon="13.6983517"><ele>613.0</ele><time>2026-05-02T11:19:17.632Z</time></trkpt><trkpt lat="42.132545" lon="13.6984517"><ele>613.0</ele><time>2026-05-02T11:19:18.632Z</time></trkpt><trkpt lat="42.132505" lon="13.69857"><ele>612.8</ele><time>2026-05-02T11:19:19.631Z</time></trkpt><trkpt lat="42.1324633" lon="13.6987067"><ele>612.5999999999999</ele><time>2026-05-02T11:19:20.632Z</time></trkpt><trkpt lat="42.1324267" lon="13.6988417"><ele>612.4000000000001</ele><time>2026-05-02T11:19:21.631Z</time></trkpt><trkpt lat="42.13238" lon="13.698975"><ele>612.2</ele><time>2026-05-02T11:19:22.632Z</time></trkpt><trkpt lat="42.132325" lon="13.69911"><ele>612.0</ele><time>2026-05-02T11:19:23.632Z</time></trkpt><trkpt lat="42.1322583" lon="13.6992417"><ele>612.6</ele><time>2026-05-02T11:19:24.631Z</time></trkpt><trkpt lat="42.1321833" lon="13.6993617"><ele>613.2</ele><time>2026-05-02T11:19:25.632Z</time></trkpt><trkpt lat="42.1321117" lon="13.6994767"><ele>613.8</ele><time>2026-05-02T11:19:26.631Z</time></trkpt><trkpt lat="42.1320433" lon="13.69958"><ele>614.4</ele><time>2026-05-02T11:19:27.632Z</time></trkpt><trkpt lat="42.1319717" lon="13.69968"><ele>615.0</ele><time>2026-05-02T11:19:28.632Z</time></trkpt><trkpt lat="42.1318983" lon="13.699775"><ele>615.0</ele><time>2026-05-02T11:19:29.632Z</time></trkpt><trkpt lat="42.1318233" lon="13.6998783"><ele>615.0</ele><time>2026-05-02T11:19:30.631Z</time></trkpt><trkpt lat="42.1317417" lon="13.699975"><ele>615.0</ele><time>2026-05-02T11:19:31.631Z</time></trkpt><trkpt lat="42.13166" lon="13.700065"><ele>615.0</ele><time>2026-05-02T11:19:32.632Z</time></trkpt><trkpt lat="42.1315617" lon="13.7001483"><ele>615.0</ele><time>2026-05-02T11:19:33.631Z</time></trkpt><trkpt lat="42.1314583" lon="13.700225"><ele>615.5</ele><time>2026-05-02T11:19:34.632Z</time></trkpt><trkpt lat="42.1313717" lon="13.7003117"><ele>616.0</ele><time>2026-05-02T11:19:35.631Z</time></trkpt><trkpt lat="42.131285" lon="13.7004183"><ele>616.5</ele><time>2026-05-02T11:19:36.632Z</time></trkpt><trkpt lat="42.1312117" lon="13.70055"><ele>617.0</ele><time>2026-05-02T11:19:37.631Z</time></trkpt><trkpt lat="42.13115" lon="13.7006783"><ele>617.0</ele><time>2026-05-02T11:19:38.632Z</time></trkpt><trkpt lat="42.1310667" lon="13.7008033"><ele>617.0</ele><time>2026-05-02T11:19:39.631Z</time></trkpt><trkpt lat="42.13096" lon="13.700925"><ele>617.0</ele><time>2026-05-02T11:19:40.631Z</time></trkpt><trkpt lat="42.130825" lon="13.7010383"><ele>617.0</ele><time>2026-05-02T11:19:41.632Z</time></trkpt><trkpt lat="42.130705" lon="13.7011583"><ele>620.0</ele><time>2026-05-02T11:19:42.631Z</time></trkpt><trkpt lat="42.13059" lon="13.7012883"><ele>623.0</ele><time>2026-05-02T11:19:43.631Z</time></trkpt><trkpt lat="42.1304817" lon="13.701415"><ele>626.0</ele><time>2026-05-02T11:19:44.631Z</time></trkpt><trkpt lat="42.130395" lon="13.7015183"><ele>629.0</ele><time>2026-05-02T11:19:45.631Z</time></trkpt><trkpt lat="42.130325" lon="13.7015983"><ele>629.0</ele><time>2026-05-02T11:19:46.631Z</time></trkpt><trkpt lat="42.13027" lon="13.7016567"><ele>629.0</ele><time>2026-05-02T11:19:47.631Z</time></trkpt><trkpt lat="42.1301883" lon="13.701715"><ele>629.0</ele><time>2026-05-02T11:19:49.632Z</time></trkpt><trkpt lat="42.1301233" lon="13.701665"><ele>629.0</ele><time>2026-05-02T11:19:51.631Z</time></trkpt><trkpt lat="42.1300867" lon="13.701585"><ele>629.0</ele><time>2026-05-02T11:19:52.632Z</time></trkpt><trkpt lat="42.13004" lon="13.7014883"><ele>629.0</ele><time>2026-05-02T11:19:53.632Z</time></trkpt><trkpt lat="42.129995" lon="13.7013917"><ele>629.0</ele><time>2026-05-02T11:19:54.632Z</time></trkpt><trkpt lat="42.129935" lon="13.7012917"><ele>629.0</ele><time>2026-05-02T11:19:55.632Z</time></trkpt><trkpt lat="42.1298817" lon="13.7011783"><ele>629.0</ele><time>2026-05-02T11:19:56.632Z</time></trkpt><trkpt lat="42.129825" lon="13.7010517"><ele>629.0</ele><time>2026-05-02T11:19:57.631Z</time></trkpt><trkpt lat="42.12978" lon="13.7009217"><ele>629.0</ele><time>2026-05-02T11:19:58.632Z</time></trkpt><trkpt lat="42.1297283" lon="13.700795"><ele>631.6666666666666</ele><time>2026-05-02T11:19:59.631Z</time></trkpt><trkpt lat="42.1296733" lon="13.7006817"><ele>634.3333333333333</ele><time>2026-05-02T11:20:00.631Z</time></trkpt><trkpt lat="42.1296267" lon="13.700595"><ele>637.0</ele><time>2026-05-02T11:20:01.632Z</time></trkpt><trkpt lat="42.129575" lon="13.70052"><ele>639.6666666666666</ele><time>2026-05-02T11:20:02.632Z</time></trkpt><trkpt lat="42.12954" lon="13.70044"><ele>642.3333333333334</ele><time>2026-05-02T11:20:03.631Z</time></trkpt><trkpt lat="42.1294717" lon="13.7003183"><ele>645.0</ele><time>2026-05-02T11:20:05.632Z</time></trkpt><trkpt lat="42.1294217" lon="13.700205"><ele>647.0</ele><time>2026-05-02T11:20:07.632Z</time></trkpt><trkpt lat="42.1293767" lon="13.7000833"><ele>649.0</ele><time>2026-05-02T11:20:09.631Z</time></trkpt><trkpt lat="42.129335" lon="13.69996"><ele>651.0</ele><time>2026-05-02T11:20:11.631Z</time></trkpt><trkpt lat="42.1292567" lon="13.6998883"><ele>653.0</ele><time>2026-05-02T11:20:13.632Z</time></trkpt><trkpt lat="42.1291533" lon="13.699875"><ele>655.0</ele><time>2026-05-02T11:20:15.631Z</time></trkpt><trkpt lat="42.1290617" lon="13.6999117"><ele>654.6666666666667</ele><time>2026-05-02T11:20:17.632Z</time></trkpt><trkpt lat="42.1289767" lon="13.6999733"><ele>654.3333333333334</ele><time>2026-05-02T11:20:19.632Z</time></trkpt><trkpt lat="42.1289167" lon="13.700025"><ele>654.0</ele><time>2026-05-02T11:20:20.632Z</time></trkpt><trkpt lat="42.128845" lon="13.7000933"><ele>653.6666666666666</ele><time>2026-05-02T11:20:21.631Z</time></trkpt><trkpt lat="42.12877" lon="13.700165"><ele>653.3333333333333</ele><time>2026-05-02T11:20:22.631Z</time></trkpt><trkpt lat="42.1286917" lon="13.7002467"><ele>653.0</ele><time>2026-05-02T11:20:23.631Z</time></trkpt><trkpt lat="42.1286117" lon="13.70033"><ele>653.0</ele><time>2026-05-02T11:20:24.632Z</time></trkpt><trkpt lat="42.128525" lon="13.700415"><ele>653.0</ele><time>2026-05-02T11:20:25.631Z</time></trkpt><trkpt lat="42.1284367" lon="13.700505"><ele>653.0</ele><time>2026-05-02T11:20:26.631Z</time></trkpt><trkpt lat="42.1283433" lon="13.7006067"><ele>653.0</ele><time>2026-05-02T11:20:27.63Z</time></trkpt><trkpt lat="42.128245" lon="13.700715"><ele>654.75</ele><time>2026-05-02T11:20:28.631Z</time></trkpt><trkpt lat="42.1281483" lon="13.700825"><ele>656.5</ele><time>2026-05-02T11:20:29.631Z</time></trkpt><trkpt lat="42.1280533" lon="13.700935"><ele>658.25</ele><time>2026-05-02T11:20:30.63Z</time></trkpt><trkpt lat="42.1279633" lon="13.7010383"><ele>660.0</ele><time>2026-05-02T11:20:31.631Z</time></trkpt><trkpt lat="42.1278867" lon="13.7011167"><ele>657.1666666666666</ele><time>2026-05-02T11:20:32.63Z</time></trkpt><trkpt lat="42.127825" lon="13.7011717"><ele>654.3333333333334</ele><time>2026-05-02T11:20:33.631Z</time></trkpt><trkpt lat="42.12774" lon="13.7012567"><ele>651.5</ele><time>2026-05-02T11:20:35.631Z</time></trkpt><trkpt lat="42.127645" lon="13.7013233"><ele>648.6666666666667</ele><time>2026-05-02T11:20:37.63Z</time></trkpt><trkpt lat="42.1275817" lon="13.7013483"><ele>645.8333333333334</ele><time>2026-05-02T11:20:39.631Z</time></trkpt><trkpt lat="42.127595" lon="13.7014417"><ele>643.0</ele><time>2026-05-02T11:20:46.631Z</time></trkpt><trkpt lat="42.1276617" lon="13.7013833"><ele>643.0</ele><time>2026-05-02T11:20:48.63Z</time></trkpt><trkpt lat="42.1277683" lon="13.7012783"><ele>643.0</ele><time>2026-05-02T11:20:50.63Z</time></trkpt><trkpt lat="42.127845" lon="13.7011917"><ele>643.0</ele><time>2026-05-02T11:20:51.631Z</time></trkpt><trkpt lat="42.1279517" lon="13.7010817"><ele>643.0</ele><time>2026-05-02T11:20:52.63Z</time></trkpt><trkpt lat="42.1280567" lon="13.7009667"><ele>645.5</ele><time>2026-05-02T11:20:53.631Z</time></trkpt><trkpt lat="42.1281717" lon="13.700855"><ele>648.0</ele><time>2026-05-02T11:20:54.631Z</time></trkpt><trkpt lat="42.1282783" lon="13.7007433"><ele>650.5</ele><time>2026-05-02T11:20:55.631Z</time></trkpt><trkpt lat="42.12839" lon="13.7006217"><ele>653.0</ele><time>2026-05-02T11:20:56.63Z</time></trkpt><trkpt lat="42.1284933" lon="13.7005067"><ele>653.0</ele><time>2026-05-02T11:20:57.63Z</time></trkpt><trkpt lat="42.1285833" lon="13.7004067"><ele>653.0</ele><time>2026-05-02T11:20:58.631Z</time></trkpt><trkpt lat="42.128665" lon="13.7003083"><ele>653.0</ele><time>2026-05-02T11:20:59.63Z</time></trkpt><trkpt lat="42.1287367" lon="13.7002183"><ele>653.0</ele><time>2026-05-02T11:21:00.631Z</time></trkpt><trkpt lat="42.1287883" lon="13.700145"><ele>653.0</ele><time>2026-05-02T11:21:01.631Z</time></trkpt><trkpt lat="42.1288167" lon="13.700025"><ele>655.0</ele><time>2026-05-02T11:21:03.63Z</time></trkpt><trkpt lat="42.1287583" lon="13.6999467"><ele>657.0</ele><time>2026-05-02T11:21:05.631Z</time></trkpt><trkpt lat="42.1286483" lon="13.69992"><ele>659.0</ele><time>2026-05-02T11:21:07.63Z</time></trkpt><trkpt lat="42.1285733" lon="13.6999283"><ele>661.0</ele><time>2026-05-02T11:21:08.63Z</time></trkpt><trkpt lat="42.1284867" lon="13.6999517"><ele>663.0</ele><time>2026-05-02T11:21:09.631Z</time></trkpt><trkpt lat="42.128395" lon="13.6999833"><ele>663.0</ele><time>2026-05-02T11:21:10.63Z</time></trkpt><trkpt lat="42.1283083" lon="13.7000067"><ele>663.0</ele><time>2026-05-02T11:21:11.631Z</time></trkpt><trkpt lat="42.128225" lon="13.7000417"><ele>663.0</ele><time>2026-05-02T11:21:12.63Z</time></trkpt><trkpt lat="42.128145" lon="13.7000783"><ele>663.0</ele><time>2026-05-02T11:21:13.63Z</time></trkpt><trkpt lat="42.1280567" lon="13.7001083"><ele>663.0</ele><time>2026-05-02T11:21:14.631Z</time></trkpt><trkpt lat="42.127975" lon="13.7001267"><ele>663.0</ele><time>2026-05-02T11:21:15.63Z</time></trkpt><trkpt lat="42.1279017" lon="13.7001433"><ele>665.1666666666666</ele><time>2026-05-02T11:21:16.631Z</time></trkpt><trkpt lat="42.12783" lon="13.70016"><ele>667.3333333333334</ele><time>2026-05-02T11:21:17.631Z</time></trkpt><trkpt lat="42.1277533" lon="13.7001817"><ele>669.5</ele><time>2026-05-02T11:21:18.63Z</time></trkpt><trkpt lat="42.127665" lon="13.7001967"><ele>671.6666666666667</ele><time>2026-05-02T11:21:19.631Z</time></trkpt><trkpt lat="42.1275767" lon="13.7001917"><ele>673.8333333333334</ele><time>2026-05-02T11:21:20.631Z</time></trkpt><trkpt lat="42.1274967" lon="13.7001783"><ele>676.0</ele><time>2026-05-02T11:21:21.631Z</time></trkpt><trkpt lat="42.127415" lon="13.7001833"><ele>674.3333333333334</ele><time>2026-05-02T11:21:22.631Z</time></trkpt><trkpt lat="42.1273417" lon="13.7001917"><ele>672.6666666666667</ele><time>2026-05-02T11:21:23.63Z</time></trkpt><trkpt lat="42.1272383" lon="13.70018"><ele>671.0</ele><time>2026-05-02T11:21:25.631Z</time></trkpt><trkpt lat="42.127175" lon="13.7001617"><ele>669.3333333333334</ele><time>2026-05-02T11:21:27.63Z</time></trkpt><trkpt lat="42.1271" lon="13.70015"><ele>667.6666666666666</ele><time>2026-05-02T11:21:29.631Z</time></trkpt><trkpt lat="42.12704" lon="13.7001183"><ele>666.0</ele><time>2026-05-02T11:21:31.63Z</time></trkpt><trkpt lat="42.1270683" lon="13.700015"><ele>666.0</ele><time>2026-05-02T11:21:34.63Z</time></trkpt><trkpt lat="42.1271033" lon="13.699905"><ele>666.0</ele><time>2026-05-02T11:21:36.631Z</time></trkpt><trkpt lat="42.1271583" lon="13.6998317"><ele>666.0</ele><time>2026-05-02T11:21:39.631Z</time></trkpt><trkpt lat="42.12721" lon="13.6997733"><ele>666.0</ele><time>2026-05-02T11:21:41.631Z</time></trkpt><trkpt lat="42.1272567" lon="13.6998367"><ele>666.0</ele><time>2026-05-02T11:22:02.631Z</time></trkpt><trkpt lat="42.127185" lon="13.6998767"><ele>666.0</ele><time>2026-05-02T11:22:07.631Z</time></trkpt><trkpt lat="42.1271317" lon="13.6999567"><ele>666.0</ele><time>2026-05-02T11:22:09.63Z</time></trkpt><trkpt lat="42.12709" lon="13.700025"><ele>666.0</ele><time>2026-05-02T11:22:11.631Z</time></trkpt><trkpt lat="42.1271433" lon="13.7001083"><ele>666.0</ele><time>2026-05-02T11:22:16.63Z</time></trkpt><trkpt lat="42.1271967" lon="13.7001767"><ele>666.0</ele><time>2026-05-02T11:22:19.631Z</time></trkpt><trkpt lat="42.127125" lon="13.700195"><ele>666.0</ele><time>2026-05-02T11:22:22.63Z</time></trkpt><trkpt lat="42.127025" lon="13.7001817"><ele>666.0</ele><time>2026-05-02T11:22:24.631Z</time></trkpt><trkpt lat="42.1269317" lon="13.7001633"><ele>666.0</ele><time>2026-05-02T11:22:26.63Z</time></trkpt><trkpt lat="42.1268633" lon="13.7000783"><ele>666.0</ele><time>2026-05-02T11:22:28.63Z</time></trkpt><trkpt lat="42.1268217" lon="13.6999533"><ele>666.0</ele><time>2026-05-02T11:22:30.63Z</time></trkpt><trkpt lat="42.1267733" lon="13.69981"><ele>666.0</ele><time>2026-05-02T11:22:32.63Z</time></trkpt><trkpt lat="42.126755" lon="13.6997133"><ele>666.0</ele><time>2026-05-02T11:22:34.63Z</time></trkpt><trkpt lat="42.1267317" lon="13.69962"><ele>666.0</ele><time>2026-05-02T11:22:36.63Z</time></trkpt><trkpt lat="42.126715" lon="13.6995167"><ele>666.0</ele><time>2026-05-02T11:22:40.63Z</time></trkpt><trkpt lat="42.1266817" lon="13.6994433"><ele>666.0</ele><time>2026-05-02T11:22:43.631Z</time></trkpt><trkpt lat="42.1266183" lon="13.6994183"><ele>666.0</ele><time>2026-05-02T11:22:46.63Z</time></trkpt><trkpt lat="42.1265467" lon="13.6994233"><ele>666.0</ele><time>2026-05-02T11:22:48.631Z</time></trkpt><trkpt lat="42.1264567" lon="13.6994217"><ele>666.0</ele><time>2026-05-02T11:22:50.631Z</time></trkpt><trkpt lat="42.126365" lon="13.69941"><ele>664.8</ele><time>2026-05-02T11:22:52.631Z</time></trkpt><trkpt lat="42.1263133" lon="13.6993583"><ele>663.5999999999999</ele><time>2026-05-02T11:22:54.63Z</time></trkpt><trkpt lat="42.1262717" lon="13.69923"><ele>662.4</ele><time>2026-05-02T11:22:56.631Z</time></trkpt><trkpt lat="42.1262233" lon="13.6991033"><ele>661.2</ele><time>2026-05-02T11:22:58.631Z</time></trkpt><trkpt lat="42.1261517" lon="13.69904"><ele>660.0</ele><time>2026-05-02T11:23:00.631Z</time></trkpt><trkpt lat="42.1260783" lon="13.6989417"><ele>660.0</ele><time>2026-05-02T11:23:06.63Z</time></trkpt><trkpt lat="42.12607" lon="13.698855"><ele>660.0</ele><time>2026-05-02T11:23:07.631Z</time></trkpt><trkpt lat="42.126065" lon="13.69875"><ele>660.0</ele><time>2026-05-02T11:23:08.631Z</time></trkpt><trkpt lat="42.1260683" lon="13.6986433"><ele>660.0</ele><time>2026-05-02T11:23:09.63Z</time></trkpt><trkpt lat="42.1260767" lon="13.6985333"><ele>660.0</ele><time>2026-05-02T11:23:10.631Z</time></trkpt><trkpt lat="42.1260917" lon="13.6984183"><ele>660.0</ele><time>2026-05-02T11:23:11.63Z</time></trkpt><trkpt lat="42.1261017" lon="13.6983"><ele>661.0</ele><time>2026-05-02T11:23:12.63Z</time></trkpt><trkpt lat="42.1261033" lon="13.69818"><ele>662.0</ele><time>2026-05-02T11:23:13.631Z</time></trkpt><trkpt lat="42.1261033" lon="13.69806"><ele>663.0</ele><time>2026-05-02T11:23:14.63Z</time></trkpt><trkpt lat="42.126105" lon="13.6979433"><ele>664.0</ele><time>2026-05-02T11:23:15.63Z</time></trkpt><trkpt lat="42.126095" lon="13.6978267"><ele>665.0</ele><time>2026-05-02T11:23:16.63Z</time></trkpt><trkpt lat="42.126095" lon="13.6977217"><ele>666.0</ele><time>2026-05-02T11:23:17.63Z</time></trkpt><trkpt lat="42.126085" lon="13.69763"><ele>667.8333333333334</ele><time>2026-05-02T11:23:18.631Z</time></trkpt><trkpt lat="42.1260733" lon="13.6975433"><ele>669.6666666666666</ele><time>2026-05-02T11:23:19.63Z</time></trkpt><trkpt lat="42.1260333" lon="13.6973833"><ele>671.5</ele><time>2026-05-02T11:23:21.63Z</time></trkpt><trkpt lat="42.126015" lon="13.6973017"><ele>673.3333333333333</ele><time>2026-05-02T11:23:22.631Z</time></trkpt><trkpt lat="42.12599" lon="13.6972133"><ele>675.1666666666666</ele><time>2026-05-02T11:23:23.631Z</time></trkpt><trkpt lat="42.12597" lon="13.6971283"><ele>677.0</ele><time>2026-05-02T11:23:24.63Z</time></trkpt><trkpt lat="42.12595" lon="13.6970417"><ele>677.0</ele><time>2026-05-02T11:23:25.63Z</time></trkpt><trkpt lat="42.1259267" lon="13.69696"><ele>677.0</ele><time>2026-05-02T11:23:26.631Z</time></trkpt><trkpt lat="42.125905" lon="13.6968767"><ele>677.0</ele><time>2026-05-02T11:23:27.631Z</time></trkpt><trkpt lat="42.12588" lon="13.6967917"><ele>677.0</ele><time>2026-05-02T11:23:28.63Z</time></trkpt><trkpt lat="42.1258583" lon="13.6966917"><ele>677.0</ele><time>2026-05-02T11:23:29.63Z</time></trkpt><trkpt lat="42.12584" lon="13.6965733"><ele>677.0</ele><time>2026-05-02T11:23:30.631Z</time></trkpt><trkpt lat="42.1258233" lon="13.6964433"><ele>680.0</ele><time>2026-05-02T11:23:31.63Z</time></trkpt><trkpt lat="42.1258" lon="13.6962983"><ele>683.0</ele><time>2026-05-02T11:23:32.631Z</time></trkpt><trkpt lat="42.1257667" lon="13.69615"><ele>686.0</ele><time>2026-05-02T11:23:33.631Z</time></trkpt><trkpt lat="42.1257417" lon="13.6959933"><ele>689.0</ele><time>2026-05-02T11:23:34.631Z</time></trkpt><trkpt lat="42.12571" lon="13.69583"><ele>694.25</ele><time>2026-05-02T11:23:35.631Z</time></trkpt><trkpt lat="42.1256783" lon="13.6956717"><ele>699.5</ele><time>2026-05-02T11:23:36.63Z</time></trkpt><trkpt lat="42.1256433" lon="13.6955067"><ele>704.75</ele><time>2026-05-02T11:23:37.63Z</time></trkpt><trkpt lat="42.1256117" lon="13.6953433"><ele>710.0</ele><time>2026-05-02T11:23:38.631Z</time></trkpt><trkpt lat="42.12555" lon="13.695005"><ele>714.75</ele><time>2026-05-02T11:23:40.63Z</time></trkpt><trkpt lat="42.1255233" lon="13.6948333"><ele>719.5</ele><time>2026-05-02T11:23:41.63Z</time></trkpt><trkpt lat="42.1254933" lon="13.6946683"><ele>724.25</ele><time>2026-05-02T11:23:42.629Z</time></trkpt><trkpt lat="42.1254617" lon="13.6945117"><ele>729.0</ele><time>2026-05-02T11:23:43.63Z</time></trkpt><trkpt lat="42.1254217" lon="13.69437"><ele>729.8333333333334</ele><time>2026-05-02T11:23:44.63Z</time></trkpt><trkpt lat="42.1253883" lon="13.69425"><ele>730.6666666666666</ele><time>2026-05-02T11:23:45.629Z</time></trkpt><trkpt lat="42.1253517" lon="13.69416"><ele>731.5</ele><time>2026-05-02T11:23:46.629Z</time></trkpt><trkpt lat="42.1252983" lon="13.69405"><ele>732.3333333333333</ele><time>2026-05-02T11:23:48.629Z</time></trkpt><trkpt lat="42.12522" lon="13.6939783"><ele>733.1666666666666</ele><time>2026-05-02T11:23:51.63Z</time></trkpt><trkpt lat="42.1251783" lon="13.6939"><ele>734.0</ele><time>2026-05-02T11:23:53.63Z</time></trkpt><trkpt lat="42.1251517" lon="13.6937733"><ele>734.0</ele><time>2026-05-02T11:23:55.629Z</time></trkpt><trkpt lat="42.125135" lon="13.6936483"><ele>734.0</ele><time>2026-05-02T11:23:57.629Z</time></trkpt><trkpt lat="42.1251017" lon="13.6935567"><ele>734.0</ele><time>2026-05-02T11:23:59.63Z</time></trkpt><trkpt lat="42.125055" lon="13.6934717"><ele>734.0</ele><time>2026-05-02T11:24:01.63Z</time></trkpt><trkpt lat="42.1250017" lon="13.6933517"><ele>734.0</ele><time>2026-05-02T11:24:03.63Z</time></trkpt><trkpt lat="42.124925" lon="13.693215"><ele>738.5714285714286</ele><time>2026-05-02T11:24:05.63Z</time></trkpt><trkpt lat="42.12487" lon="13.69315"><ele>743.1428571428572</ele><time>2026-05-02T11:24:06.629Z</time></trkpt><trkpt lat="42.1248167" lon="13.6930867"><ele>747.7142857142858</ele><time>2026-05-02T11:24:07.63Z</time></trkpt><trkpt lat="42.12476" lon="13.6930217"><ele>752.2857142857142</ele><time>2026-05-02T11:24:08.629Z</time></trkpt><trkpt lat="42.124705" lon="13.6929517"><ele>756.8571428571429</ele><time>2026-05-02T11:24:09.63Z</time></trkpt><trkpt lat="42.1246533" lon="13.6928917"><ele>761.4285714285714</ele><time>2026-05-02T11:24:10.63Z</time></trkpt><trkpt lat="42.1245967" lon="13.69283"><ele>766.0</ele><time>2026-05-02T11:24:11.63Z</time></trkpt><trkpt lat="42.1245467" lon="13.6927567"><ele>766.1666666666667</ele><time>2026-05-02T11:24:12.63Z</time></trkpt><trkpt lat="42.1244983" lon="13.692675"><ele>766.3333333333334</ele><time>2026-05-02T11:24:13.63Z</time></trkpt><trkpt lat="42.124455" lon="13.6925933"><ele>766.5</ele><time>2026-05-02T11:24:14.63Z</time></trkpt><trkpt lat="42.1244183" lon="13.692505"><ele>766.6666666666666</ele><time>2026-05-02T11:24:15.629Z</time></trkpt><trkpt lat="42.124385" lon="13.6924183"><ele>766.8333333333333</ele><time>2026-05-02T11:24:16.629Z</time></trkpt><trkpt lat="42.1243467" lon="13.692325"><ele>767.0</ele><time>2026-05-02T11:24:17.63Z</time></trkpt><trkpt lat="42.1243183" lon="13.6922283"><ele>767.0</ele><time>2026-05-02T11:24:18.63Z</time></trkpt><trkpt lat="42.1242883" lon="13.6920867"><ele>767.0</ele><time>2026-05-02T11:24:20.63Z</time></trkpt><trkpt lat="42.1242417" lon="13.6920283"><ele>767.0</ele><time>2026-05-02T11:24:22.629Z</time></trkpt><trkpt lat="42.12417" lon="13.692035"><ele>767.0</ele><time>2026-05-02T11:24:24.63Z</time></trkpt><trkpt lat="42.124095" lon="13.6920833"><ele>767.0</ele><time>2026-05-02T11:24:27.63Z</time></trkpt><trkpt lat="42.124175" lon="13.692015"><ele>767.0</ele><time>2026-05-02T11:24:57.629Z</time></trkpt><trkpt lat="42.1241117" lon="13.69211"><ele>767.0</ele><time>2026-05-02T11:26:29.629Z</time></trkpt><trkpt lat="42.1240667" lon="13.6922433"><ele>767.0</ele><time>2026-05-02T11:26:31.63Z</time></trkpt><trkpt lat="42.1240467" lon="13.692325"><ele>767.0</ele><time>2026-05-02T11:26:32.629Z</time></trkpt><trkpt lat="42.1240267" lon="13.692415"><ele>767.0</ele><time>2026-05-02T11:26:33.63Z</time></trkpt><trkpt lat="42.124015" lon="13.6925317"><ele>767.0</ele><time>2026-05-02T11:26:34.63Z</time></trkpt><trkpt lat="42.1240167" lon="13.6926567"><ele>767.0</ele><time>2026-05-02T11:26:35.629Z</time></trkpt><trkpt lat="42.124015" lon="13.6927833"><ele>770.3333333333333</ele><time>2026-05-02T11:26:36.629Z</time></trkpt><trkpt lat="42.1240133" lon="13.6929117"><ele>773.6666666666666</ele><time>2026-05-02T11:26:37.63Z</time></trkpt><trkpt lat="42.12401" lon="13.693035"><ele>777.0</ele><time>2026-05-02T11:26:38.629Z</time></trkpt><trkpt lat="42.124015" lon="13.6931583"><ele>780.3333333333333</ele><time>2026-05-02T11:26:39.629Z</time></trkpt><trkpt lat="42.1240267" lon="13.693275"><ele>783.6666666666666</ele><time>2026-05-02T11:26:40.629Z</time></trkpt><trkpt lat="42.12402" lon="13.6933683"><ele>787.0</ele><time>2026-05-02T11:26:41.63Z</time></trkpt><trkpt lat="42.1239767" lon="13.6935133"><ele>786.9999999999999</ele><time>2026-05-02T11:26:43.63Z</time></trkpt><trkpt lat="42.1239333" lon="13.693585"><ele>787.0</ele><time>2026-05-02T11:26:44.63Z</time></trkpt><trkpt lat="42.1238817" lon="13.6936533"><ele>787.0</ele><time>2026-05-02T11:26:45.629Z</time></trkpt><trkpt lat="42.12381" lon="13.6937083"><ele>787.0</ele><time>2026-05-02T11:26:46.63Z</time></trkpt><trkpt lat="42.1237233" lon="13.6937683"><ele>786.9999999999999</ele><time>2026-05-02T11:26:47.63Z</time></trkpt><trkpt lat="42.1236117" lon="13.6938183"><ele>787.0</ele><time>2026-05-02T11:26:48.629Z</time></trkpt><trkpt lat="42.1235017" lon="13.6938717"><ele>788.6666666666666</ele><time>2026-05-02T11:26:49.628Z</time></trkpt><trkpt lat="42.123395" lon="13.69392"><ele>790.3333333333333</ele><time>2026-05-02T11:26:50.629Z</time></trkpt><trkpt lat="42.12331" lon="13.69396"><ele>792.0</ele><time>2026-05-02T11:26:51.629Z</time></trkpt><trkpt lat="42.123245" lon="13.694005"><ele>793.6666666666667</ele><time>2026-05-02T11:26:52.629Z</time></trkpt><trkpt lat="42.1231867" lon="13.6940617"><ele>795.3333333333334</ele><time>2026-05-02T11:26:53.628Z</time></trkpt><trkpt lat="42.12313" lon="13.6941383"><ele>797.0</ele><time>2026-05-02T11:26:54.629Z</time></trkpt><trkpt lat="42.1230633" lon="13.6942283"><ele>797.0</ele><time>2026-05-02T11:26:55.628Z</time></trkpt><trkpt lat="42.1230017" lon="13.694315"><ele>797.0</ele><time>2026-05-02T11:26:56.629Z</time></trkpt><trkpt lat="42.122935" lon="13.694395"><ele>797.0</ele><time>2026-05-02T11:26:57.629Z</time></trkpt><trkpt lat="42.122855" lon="13.6944617"><ele>797.0</ele><time>2026-05-02T11:26:58.628Z</time></trkpt><trkpt lat="42.12277" lon="13.6945167"><ele>797.0</ele><time>2026-05-02T11:26:59.628Z</time></trkpt><trkpt lat="42.1226883" lon="13.6945667"><ele>796.8333333333334</ele><time>2026-05-02T11:27:00.629Z</time></trkpt><trkpt lat="42.122605" lon="13.694595"><ele>796.6666666666667</ele><time>2026-05-02T11:27:01.628Z</time></trkpt><trkpt lat="42.12251" lon="13.69462"><ele>796.5</ele><time>2026-05-02T11:27:02.628Z</time></trkpt><trkpt lat="42.1224233" lon="13.69464"><ele>796.3333333333333</ele><time>2026-05-02T11:27:03.628Z</time></trkpt><trkpt lat="42.12234" lon="13.694655"><ele>796.1666666666666</ele><time>2026-05-02T11:27:04.629Z</time></trkpt><trkpt lat="42.1222633" lon="13.6946583"><ele>796.0</ele><time>2026-05-02T11:27:05.628Z</time></trkpt><trkpt lat="42.1221817" lon="13.69465"><ele>796.0</ele><time>2026-05-02T11:27:06.628Z</time></trkpt><trkpt lat="42.1221117" lon="13.6946383"><ele>796.0</ele><time>2026-05-02T11:27:07.629Z</time></trkpt><trkpt lat="42.1220283" lon="13.6946067"><ele>796.0</ele><time>2026-05-02T11:27:09.628Z</time></trkpt><trkpt lat="42.1220367" lon="13.694485"><ele>796.0</ele><time>2026-05-02T11:27:13.628Z</time></trkpt><trkpt lat="42.122135" lon="13.6943483"><ele>796.0</ele><time>2026-05-02T11:27:15.629Z</time></trkpt><trkpt lat="42.1221867" lon="13.6942417"><ele>796.25</ele><time>2026-05-02T11:27:16.628Z</time></trkpt><trkpt lat="42.1222417" lon="13.694105"><ele>796.5</ele><time>2026-05-02T11:27:17.629Z</time></trkpt><trkpt lat="42.1222933" lon="13.6939567"><ele>796.75</ele><time>2026-05-02T11:27:18.629Z</time></trkpt><trkpt lat="42.1223483" lon="13.6937867"><ele>797.0</ele><time>2026-05-02T11:27:19.629Z</time></trkpt><trkpt lat="42.122405" lon="13.693635"><ele>799.0</ele><time>2026-05-02T11:27:20.628Z</time></trkpt><trkpt lat="42.12245" lon="13.6934933"><ele>801.0</ele><time>2026-05-02T11:27:21.628Z</time></trkpt><trkpt lat="42.1224933" lon="13.693365"><ele>803.0</ele><time>2026-05-02T11:27:22.628Z</time></trkpt><trkpt lat="42.1225317" lon="13.693245"><ele>805.0</ele><time>2026-05-02T11:27:23.628Z</time></trkpt><trkpt lat="42.1225683" lon="13.6931383"><ele>807.0</ele><time>2026-05-02T11:27:24.628Z</time></trkpt><trkpt lat="42.12259" lon="13.693035"><ele>807.0</ele><time>2026-05-02T11:27:25.629Z</time></trkpt><trkpt lat="42.122595" lon="13.6929333"><ele>807.0</ele><time>2026-05-02T11:27:26.628Z</time></trkpt><trkpt lat="42.1225767" lon="13.69285"><ele>807.0</ele><time>2026-05-02T11:27:27.629Z</time></trkpt><trkpt lat="42.12248" lon="13.6927683"><ele>807.0</ele><time>2026-05-02T11:27:29.629Z</time></trkpt><trkpt lat="42.12232" lon="13.6928667"><ele>807.0</ele><time>2026-05-02T11:27:31.629Z</time></trkpt><trkpt lat="42.12221" lon="13.69296"><ele>812.0</ele><time>2026-05-02T11:27:32.629Z</time></trkpt><trkpt lat="42.1220817" lon="13.6930617"><ele>817.0</ele><time>2026-05-02T11:27:33.628Z</time></trkpt><trkpt lat="42.1219683" lon="13.6931467"><ele>822.0</ele><time>2026-05-02T11:27:34.628Z</time></trkpt><trkpt lat="42.1218617" lon="13.6932183"><ele>827.0</ele><time>2026-05-02T11:27:35.629Z</time></trkpt><trkpt lat="42.1217617" lon="13.693285"><ele>827.0</ele><time>2026-05-02T11:27:36.629Z</time></trkpt><trkpt lat="42.1216717" lon="13.6933467"><ele>827.0</ele><time>2026-05-02T11:27:37.629Z</time></trkpt><trkpt lat="42.1215867" lon="13.6933967"><ele>827.0</ele><time>2026-05-02T11:27:38.628Z</time></trkpt><trkpt lat="42.121505" lon="13.6934417"><ele>827.0</ele><time>2026-05-02T11:27:39.628Z</time></trkpt><trkpt lat="42.121415" lon="13.69348"><ele>827.0</ele><time>2026-05-02T11:27:40.629Z</time></trkpt><trkpt lat="42.1213067" lon="13.6935167"><ele>825.75</ele><time>2026-05-02T11:27:41.628Z</time></trkpt><trkpt lat="42.1211967" lon="13.6935533"><ele>824.5</ele><time>2026-05-02T11:27:42.628Z</time></trkpt><trkpt lat="42.12108" lon="13.6935933"><ele>823.25</ele><time>2026-05-02T11:27:43.629Z</time></trkpt><trkpt lat="42.120975" lon="13.69364"><ele>822.0</ele><time>2026-05-02T11:27:44.628Z</time></trkpt><trkpt lat="42.12087" lon="13.6936717"><ele>822.0</ele><time>2026-05-02T11:27:45.628Z</time></trkpt><trkpt lat="42.1207733" lon="13.6937067"><ele>822.0</ele><time>2026-05-02T11:27:46.628Z</time></trkpt><trkpt lat="42.1206817" lon="13.693735"><ele>822.0</ele><time>2026-05-02T11:27:47.629Z</time></trkpt><trkpt lat="42.120595" lon="13.6937733"><ele>822.0</ele><time>2026-05-02T11:27:48.628Z</time></trkpt><trkpt lat="42.12051" lon="13.693805"><ele>822.0</ele><time>2026-05-02T11:27:49.628Z</time></trkpt><trkpt lat="42.1204217" lon="13.69383"><ele>824.8333333333334</ele><time>2026-05-02T11:27:50.628Z</time></trkpt><trkpt lat="42.1203383" lon="13.6938633"><ele>827.6666666666667</ele><time>2026-05-02T11:27:51.629Z</time></trkpt><trkpt lat="42.1202517" lon="13.693895"><ele>830.5</ele><time>2026-05-02T11:27:52.628Z</time></trkpt><trkpt lat="42.1201717" lon="13.6939317"><ele>833.3333333333334</ele><time>2026-05-02T11:27:53.628Z</time></trkpt><trkpt lat="42.120095" lon="13.69397"><ele>836.1666666666667</ele><time>2026-05-02T11:27:54.629Z</time></trkpt><trkpt lat="42.1200233" lon="13.69401"><ele>839.0</ele><time>2026-05-02T11:27:55.629Z</time></trkpt><trkpt lat="42.119945" lon="13.69404"><ele>843.1666666666667</ele><time>2026-05-02T11:27:56.628Z</time></trkpt><trkpt lat="42.1198683" lon="13.6940667"><ele>847.3333333333334</ele><time>2026-05-02T11:27:57.628Z</time></trkpt><trkpt lat="42.119785" lon="13.6940933"><ele>851.5</ele><time>2026-05-02T11:27:58.628Z</time></trkpt><trkpt lat="42.1197067" lon="13.6941367"><ele>855.6666666666667</ele><time>2026-05-02T11:27:59.628Z</time></trkpt><trkpt lat="42.11963" lon="13.69418"><ele>859.8333333333334</ele><time>2026-05-02T11:28:00.629Z</time></trkpt><trkpt lat="42.1195483" lon="13.6942167"><ele>864.0</ele><time>2026-05-02T11:28:01.628Z</time></trkpt><trkpt lat="42.11945" lon="13.6942583"><ele>864.0</ele><time>2026-05-02T11:28:02.629Z</time></trkpt><trkpt lat="42.1193333" lon="13.6942983"><ele>864.0</ele><time>2026-05-02T11:28:03.628Z</time></trkpt><trkpt lat="42.11919" lon="13.6943283"><ele>864.0</ele><time>2026-05-02T11:28:04.629Z</time></trkpt><trkpt lat="42.1190283" lon="13.69436"><ele>864.0</ele><time>2026-05-02T11:28:05.629Z</time></trkpt><trkpt lat="42.1188717" lon="13.6944183"><ele>861.6666666666667</ele><time>2026-05-02T11:28:06.628Z</time></trkpt><trkpt lat="42.1187133" lon="13.6945133"><ele>859.3333333333334</ele><time>2026-05-02T11:28:07.629Z</time></trkpt><trkpt lat="42.1185467" lon="13.6946233"><ele>857.0</ele><time>2026-05-02T11:28:08.629Z</time></trkpt><trkpt lat="42.118385" lon="13.694725"><ele>857.0</ele><time>2026-05-02T11:28:09.629Z</time></trkpt><trkpt lat="42.11824" lon="13.6948183"><ele>857.0</ele><time>2026-05-02T11:28:10.629Z</time></trkpt><trkpt lat="42.1181083" lon="13.6949083"><ele>857.0</ele><time>2026-05-02T11:28:11.628Z</time></trkpt><trkpt lat="42.11798" lon="13.694985"><ele>857.0</ele><time>2026-05-02T11:28:12.628Z</time></trkpt><trkpt lat="42.1178417" lon="13.6950667"><ele>867.0</ele><time>2026-05-02T11:28:13.629Z</time></trkpt><trkpt lat="42.1176933" lon="13.69514"><ele>877.0</ele><time>2026-05-02T11:28:14.628Z</time></trkpt><trkpt lat="42.117535" lon="13.6951983"><ele>887.0</ele><time>2026-05-02T11:28:15.629Z</time></trkpt><trkpt lat="42.1173783" lon="13.69524"><ele>879.0</ele><time>2026-05-02T11:28:16.628Z</time></trkpt><trkpt lat="42.11722" lon="13.6952733"><ele>871.0</ele><time>2026-05-02T11:28:17.628Z</time></trkpt><trkpt lat="42.1170733" lon="13.6953017"><ele>863.0</ele><time>2026-05-02T11:28:18.629Z</time></trkpt><trkpt lat="42.1169283" lon="13.69534"><ele>863.0</ele><time>2026-05-02T11:28:19.629Z</time></trkpt><trkpt lat="42.1167867" lon="13.6953733"><ele>863.0</ele><time>2026-05-02T11:28:20.629Z</time></trkpt><trkpt lat="42.11665" lon="13.6954067"><ele>863.0</ele><time>2026-05-02T11:28:21.628Z</time></trkpt><trkpt lat="42.116515" lon="13.6954333"><ele>863.0</ele><time>2026-05-02T11:28:22.628Z</time></trkpt><trkpt lat="42.11638" lon="13.6954633"><ele>868.25</ele><time>2026-05-02T11:28:23.629Z</time></trkpt><trkpt lat="42.11625" lon="13.6954983"><ele>873.5</ele><time>2026-05-02T11:28:24.629Z</time></trkpt><trkpt lat="42.1161233" lon="13.6955367"><ele>878.75</ele><time>2026-05-02T11:28:25.628Z</time></trkpt><trkpt lat="42.1159917" lon="13.695575"><ele>884.0</ele><time>2026-05-02T11:28:26.629Z</time></trkpt><trkpt lat="42.11587" lon="13.6956133"><ele>884.0</ele><time>2026-05-02T11:28:27.628Z</time></trkpt><trkpt lat="42.115745" lon="13.6956433"><ele>884.0</ele><time>2026-05-02T11:28:28.629Z</time></trkpt><trkpt lat="42.1156117" lon="13.695685"><ele>884.0</ele><time>2026-05-02T11:28:29.628Z</time></trkpt><trkpt lat="42.11547" lon="13.6957167"><ele>884.0</ele><time>2026-05-02T11:28:30.629Z</time></trkpt><trkpt lat="42.1153167" lon="13.695755"><ele>890.6666666666667</ele><time>2026-05-02T11:28:31.629Z</time></trkpt><trkpt lat="42.115155" lon="13.69579"><ele>897.3333333333333</ele><time>2026-05-02T11:28:32.629Z</time></trkpt><trkpt lat="42.1149783" lon="13.695835"><ele>904.0</ele><time>2026-05-02T11:28:33.629Z</time></trkpt><trkpt lat="42.1147983" lon="13.6958733"><ele>910.0</ele><time>2026-05-02T11:28:34.629Z</time></trkpt><trkpt lat="42.1146167" lon="13.6959117"><ele>916.0</ele><time>2026-05-02T11:28:35.629Z</time></trkpt><trkpt lat="42.1144333" lon="13.6959533"><ele>922.0</ele><time>2026-05-02T11:28:36.629Z</time></trkpt><trkpt lat="42.1142483" lon="13.696005"><ele>927.3333333333333</ele><time>2026-05-02T11:28:37.628Z</time></trkpt><trkpt lat="42.11406" lon="13.6960567"><ele>932.6666666666667</ele><time>2026-05-02T11:28:38.628Z</time></trkpt><trkpt lat="42.1138933" lon="13.6961033"><ele>938.0</ele><time>2026-05-02T11:28:39.629Z</time></trkpt><trkpt lat="42.1137383" lon="13.69615"><ele>933.0</ele><time>2026-05-02T11:28:40.629Z</time></trkpt><trkpt lat="42.113585" lon="13.6961933"><ele>928.0</ele><time>2026-05-02T11:28:41.629Z</time></trkpt><trkpt lat="42.1134417" lon="13.6962367"><ele>923.0</ele><time>2026-05-02T11:28:42.629Z</time></trkpt><trkpt lat="42.1133017" lon="13.6962767"><ele>918.0</ele><time>2026-05-02T11:28:43.628Z</time></trkpt><trkpt lat="42.113165" lon="13.69632"><ele>918.0</ele><time>2026-05-02T11:28:44.629Z</time></trkpt><trkpt lat="42.1130317" lon="13.6963633"><ele>918.0</ele><time>2026-05-02T11:28:45.629Z</time></trkpt><trkpt lat="42.1129017" lon="13.6964167"><ele>918.0</ele><time>2026-05-02T11:28:46.628Z</time></trkpt><trkpt lat="42.1127683" lon="13.6964833"><ele>918.0</ele><time>2026-05-02T11:28:47.628Z</time></trkpt><trkpt lat="42.112635" lon="13.6965733"><ele>918.0</ele><time>2026-05-02T11:28:48.628Z</time></trkpt><trkpt lat="42.1125" lon="13.696675"><ele>918.0</ele><time>2026-05-02T11:28:49.628Z</time></trkpt><trkpt lat="42.11235" lon="13.6967583"><ele>918.0</ele><time>2026-05-02T11:28:50.629Z</time></trkpt><trkpt lat="42.1122" lon="13.6968433"><ele>914.6666666666667</ele><time>2026-05-02T11:28:51.628Z</time></trkpt><trkpt lat="42.1120617" lon="13.6969233"><ele>911.3333333333334</ele><time>2026-05-02T11:28:52.629Z</time></trkpt><trkpt lat="42.11192" lon="13.6970133"><ele>908.0</ele><time>2026-05-02T11:28:53.628Z</time></trkpt><trkpt lat="42.1117783" lon="13.697105"><ele>908.0</ele><time>2026-05-02T11:28:54.628Z</time></trkpt><trkpt lat="42.111625" lon="13.6971817"><ele>908.0</ele><time>2026-05-02T11:28:55.629Z</time></trkpt><trkpt lat="42.1114583" lon="13.6972683"><ele>908.0</ele><time>2026-05-02T11:28:56.628Z</time></trkpt><trkpt lat="42.1112817" lon="13.6973383"><ele>918.0</ele><time>2026-05-02T11:28:57.628Z</time></trkpt><trkpt lat="42.1111117" lon="13.697415"><ele>928.0</ele><time>2026-05-02T11:28:58.629Z</time></trkpt><trkpt lat="42.1109617" lon="13.6974933"><ele>938.0</ele><time>2026-05-02T11:28:59.629Z</time></trkpt><trkpt lat="42.1108283" lon="13.6975767"><ele>936.3333333333334</ele><time>2026-05-02T11:29:00.629Z</time></trkpt><trkpt lat="42.110685" lon="13.6976717"><ele>934.6666666666667</ele><time>2026-05-02T11:29:01.628Z</time></trkpt><trkpt lat="42.1105333" lon="13.6977833"><ele>933.0</ele><time>2026-05-02T11:29:02.628Z</time></trkpt><trkpt lat="42.110375" lon="13.69789"><ele>933.0</ele><time>2026-05-02T11:29:03.628Z</time></trkpt><trkpt lat="42.1102167" lon="13.6979767"><ele>933.0</ele><time>2026-05-02T11:29:04.629Z</time></trkpt><trkpt lat="42.1100483" lon="13.6980483"><ele>933.0</ele><time>2026-05-02T11:29:05.629Z</time></trkpt><trkpt lat="42.1098817" lon="13.69812"><ele>941.3333333333333</ele><time>2026-05-02T11:29:06.629Z</time></trkpt><trkpt lat="42.10972" lon="13.698195"><ele>949.6666666666666</ele><time>2026-05-02T11:29:07.628Z</time></trkpt><trkpt lat="42.1095733" lon="13.69827"><ele>958.0</ele><time>2026-05-02T11:29:08.628Z</time></trkpt><trkpt lat="42.10944" lon="13.6983367"><ele>958.0</ele><time>2026-05-02T11:29:09.628Z</time></trkpt><trkpt lat="42.1093133" lon="13.69839"><ele>958.0</ele><time>2026-05-02T11:29:10.629Z</time></trkpt><trkpt lat="42.1091817" lon="13.69843"><ele>958.0</ele><time>2026-05-02T11:29:11.629Z</time></trkpt><trkpt lat="42.1090367" lon="13.698475"><ele>958.0</ele><time>2026-05-02T11:29:12.628Z</time></trkpt><trkpt lat="42.1088917" lon="13.69851"><ele>957.8</ele><time>2026-05-02T11:29:13.628Z</time></trkpt><trkpt lat="42.1087683" lon="13.6985383"><ele>957.5999999999999</ele><time>2026-05-02T11:29:14.628Z</time></trkpt><trkpt lat="42.1086517" lon="13.6985683"><ele>957.4000000000001</ele><time>2026-05-02T11:29:15.628Z</time></trkpt><trkpt lat="42.1085567" lon="13.6985683"><ele>957.2</ele><time>2026-05-02T11:29:16.629Z</time></trkpt><trkpt lat="42.108475" lon="13.698555"><ele>957.0</ele><time>2026-05-02T11:29:17.628Z</time></trkpt><trkpt lat="42.10841" lon="13.6985117"><ele>957.0</ele><time>2026-05-02T11:29:18.628Z</time></trkpt><trkpt lat="42.10836" lon="13.6984383"><ele>957.0</ele><time>2026-05-02T11:29:19.628Z</time></trkpt><trkpt lat="42.10832" lon="13.698325"><ele>957.0</ele><time>2026-05-02T11:29:20.629Z</time></trkpt><trkpt lat="42.1082783" lon="13.6981767"><ele>957.0</ele><time>2026-05-02T11:29:21.629Z</time></trkpt><trkpt lat="42.108235" lon="13.6980183"><ele>957.0</ele><time>2026-05-02T11:29:22.629Z</time></trkpt><trkpt lat="42.108175" lon="13.6978883"><ele>955.8</ele><time>2026-05-02T11:29:23.628Z</time></trkpt><trkpt lat="42.1081267" lon="13.6977733"><ele>954.6</ele><time>2026-05-02T11:29:24.629Z</time></trkpt><trkpt lat="42.1080867" lon="13.6976633"><ele>953.3999999999999</ele><time>2026-05-02T11:29:25.628Z</time></trkpt><trkpt lat="42.10806" lon="13.6975433"><ele>952.1999999999999</ele><time>2026-05-02T11:29:26.628Z</time></trkpt><trkpt lat="42.1080567" lon="13.6974117"><ele>951.0</ele><time>2026-05-02T11:29:27.628Z</time></trkpt><trkpt lat="42.1080683" lon="13.6972733"><ele>951.0</ele><time>2026-05-02T11:29:28.629Z</time></trkpt><trkpt lat="42.1080833" lon="13.6971283"><ele>951.0</ele><time>2026-05-02T11:29:29.629Z</time></trkpt><trkpt lat="42.1081183" lon="13.696985"><ele>951.0</ele><time>2026-05-02T11:29:30.629Z</time></trkpt><trkpt lat="42.1081717" lon="13.6968433"><ele>951.0</ele><time>2026-05-02T11:29:31.628Z</time></trkpt><trkpt lat="42.1082333" lon="13.696695"><ele>956.25</ele><time>2026-05-02T11:29:32.629Z</time></trkpt><trkpt lat="42.1083" lon="13.69655"><ele>961.5</ele><time>2026-05-02T11:29:33.628Z</time></trkpt><trkpt lat="42.1083667" lon="13.6964033"><ele>966.75</ele><time>2026-05-02T11:29:34.628Z</time></trkpt><trkpt lat="42.1084283" lon="13.6962617"><ele>972.0</ele><time>2026-05-02T11:29:35.628Z</time></trkpt><trkpt lat="42.10848" lon="13.6961417"><ele>972.0</ele><time>2026-05-02T11:29:36.629Z</time></trkpt><trkpt lat="42.1085233" lon="13.696055"><ele>972.0</ele><time>2026-05-02T11:29:37.628Z</time></trkpt><trkpt lat="42.1085717" lon="13.69595"><ele>972.0</ele><time>2026-05-02T11:29:39.628Z</time></trkpt><trkpt lat="42.1085167" lon="13.6960233"><ele>972.0</ele><time>2026-05-02T11:29:58.629Z</time></trkpt><trkpt lat="42.10847" lon="13.696145"><ele>972.0</ele><time>2026-05-02T11:30:00.628Z</time></trkpt><trkpt lat="42.108435" lon="13.69623"><ele>972.0</ele><time>2026-05-02T11:30:01.628Z</time></trkpt><trkpt lat="42.10839" lon="13.6963233"><ele>972.0</ele><time>2026-05-02T11:30:02.628Z</time></trkpt><trkpt lat="42.1083433" lon="13.6964317"><ele>972.0</ele><time>2026-05-02T11:30:03.628Z</time></trkpt><trkpt lat="42.108295" lon="13.6965367"><ele>972.0</ele><time>2026-05-02T11:30:04.628Z</time></trkpt><trkpt lat="42.1082433" lon="13.696635"><ele>972.0</ele><time>2026-05-02T11:30:05.627Z</time></trkpt><trkpt lat="42.1081967" lon="13.696745"><ele>972.0</ele><time>2026-05-02T11:30:06.628Z</time></trkpt><trkpt lat="42.1081467" lon="13.6968533"><ele>968.5</ele><time>2026-05-02T11:30:07.628Z</time></trkpt><trkpt lat="42.1081067" lon="13.6969633"><ele>965.0</ele><time>2026-05-02T11:30:08.628Z</time></trkpt><trkpt lat="42.108075" lon="13.69708"><ele>961.5</ele><time>2026-05-02T11:30:09.628Z</time></trkpt><trkpt lat="42.108055" lon="13.697195"><ele>958.0</ele><time>2026-05-02T11:30:10.628Z</time></trkpt><trkpt lat="42.1080383" lon="13.6973"><ele>954.5</ele><time>2026-05-02T11:30:11.628Z</time></trkpt><trkpt lat="42.1080317" lon="13.697385"><ele>951.0</ele><time>2026-05-02T11:30:12.628Z</time></trkpt><trkpt lat="42.108025" lon="13.6974717"><ele>951.0</ele><time>2026-05-02T11:30:14.628Z</time></trkpt><trkpt lat="42.1079633" lon="13.6974117"><ele>951.0</ele><time>2026-05-02T11:30:18.628Z</time></trkpt><trkpt lat="42.1079317" lon="13.697255"><ele>951.0</ele><time>2026-05-02T11:30:20.627Z</time></trkpt><trkpt lat="42.1079133" lon="13.6971633"><ele>951.0</ele><time>2026-05-02T11:30:21.628Z</time></trkpt><trkpt lat="42.1079" lon="13.697075"><ele>951.0</ele><time>2026-05-02T11:30:22.628Z</time></trkpt><trkpt lat="42.1078933" lon="13.696985"><ele>951.0</ele><time>2026-05-02T11:30:23.628Z</time></trkpt><trkpt lat="42.10787" lon="13.696875"><ele>950.5999999999999</ele><time>2026-05-02T11:30:24.628Z</time></trkpt><trkpt lat="42.1078467" lon="13.6967567"><ele>950.1999999999999</ele><time>2026-05-02T11:30:25.628Z</time></trkpt><trkpt lat="42.107825" lon="13.696635"><ele>949.8000000000001</ele><time>2026-05-02T11:30:26.628Z</time></trkpt><trkpt lat="42.107805" lon="13.6964917"><ele>949.4000000000001</ele><time>2026-05-02T11:30:27.628Z</time></trkpt><trkpt lat="42.1077867" lon="13.6963683"><ele>949.0</ele><time>2026-05-02T11:30:28.627Z</time></trkpt><trkpt lat="42.10776" lon="13.6962417"><ele>949.0</ele><time>2026-05-02T11:30:29.627Z</time></trkpt><trkpt lat="42.10774" lon="13.696115"><ele>949.0000000000001</ele><time>2026-05-02T11:30:30.628Z</time></trkpt><trkpt lat="42.1077067" lon="13.6959833"><ele>949.0000000000001</ele><time>2026-05-02T11:30:31.628Z</time></trkpt><trkpt lat="42.107685" lon="13.6958533"><ele>949.0</ele><time>2026-05-02T11:30:32.628Z</time></trkpt><trkpt lat="42.1076583" lon="13.6957133"><ele>949.0</ele><time>2026-05-02T11:30:33.627Z</time></trkpt><trkpt lat="42.1076383" lon="13.6955733"><ele>948.2</ele><time>2026-05-02T11:30:34.628Z</time></trkpt><trkpt lat="42.1076167" lon="13.6954317"><ele>947.4000000000001</ele><time>2026-05-02T11:30:35.628Z</time></trkpt><trkpt lat="42.107595" lon="13.6953033"><ele>946.6</ele><time>2026-05-02T11:30:36.627Z</time></trkpt><trkpt lat="42.107565" lon="13.6951633"><ele>945.8</ele><time>2026-05-02T11:30:37.627Z</time></trkpt><trkpt lat="42.1075483" lon="13.6950217"><ele>945.0</ele><time>2026-05-02T11:30:38.627Z</time></trkpt><trkpt lat="42.1075267" lon="13.69489"><ele>944.6</ele><time>2026-05-02T11:30:39.628Z</time></trkpt><trkpt lat="42.10751" lon="13.6947633"><ele>944.2</ele><time>2026-05-02T11:30:40.627Z</time></trkpt><trkpt lat="42.107495" lon="13.6946517"><ele>943.8</ele><time>2026-05-02T11:30:41.627Z</time></trkpt><trkpt lat="42.1074633" lon="13.6945533"><ele>943.4</ele><time>2026-05-02T11:30:42.628Z</time></trkpt><trkpt lat="42.10739" lon="13.6944233"><ele>943.0</ele><time>2026-05-02T11:30:44.628Z</time></trkpt><trkpt lat="42.1073183" lon="13.69438"><ele>938.75</ele><time>2026-05-02T11:30:45.628Z</time></trkpt><trkpt lat="42.1072233" lon="13.6943617"><ele>934.5</ele><time>2026-05-02T11:30:46.628Z</time></trkpt><trkpt lat="42.1071033" lon="13.6943483"><ele>930.25</ele><time>2026-05-02T11:30:47.628Z</time></trkpt><trkpt lat="42.10698" lon="13.6943367"><ele>926.0</ele><time>2026-05-02T11:30:48.628Z</time></trkpt><trkpt lat="42.10686" lon="13.6943283"><ele>926.0</ele><time>2026-05-02T11:30:49.627Z</time></trkpt><trkpt lat="42.10674" lon="13.6943067"><ele>926.0</ele><time>2026-05-02T11:30:50.628Z</time></trkpt><trkpt lat="42.1066233" lon="13.6942717"><ele>926.0</ele><time>2026-05-02T11:30:51.627Z</time></trkpt><trkpt lat="42.1065" lon="13.6942367"><ele>926.0</ele><time>2026-05-02T11:30:52.628Z</time></trkpt><trkpt lat="42.1063817" lon="13.69421"><ele>923.0</ele><time>2026-05-02T11:30:53.627Z</time></trkpt><trkpt lat="42.1062617" lon="13.694185"><ele>920.0</ele><time>2026-05-02T11:30:54.627Z</time></trkpt><trkpt lat="42.1061383" lon="13.69415"><ele>917.0</ele><time>2026-05-02T11:30:55.628Z</time></trkpt><trkpt lat="42.1060283" lon="13.6941283"><ele>914.0</ele><time>2026-05-02T11:30:56.628Z</time></trkpt><trkpt lat="42.1059167" lon="13.6941017"><ele>914.0</ele><time>2026-05-02T11:30:57.627Z</time></trkpt><trkpt lat="42.105805" lon="13.69408"><ele>914.0000000000001</ele><time>2026-05-02T11:30:58.627Z</time></trkpt><trkpt lat="42.105695" lon="13.69405"><ele>914.0000000000001</ele><time>2026-05-02T11:30:59.628Z</time></trkpt><trkpt lat="42.1055867" lon="13.6940167"><ele>914.0</ele><time>2026-05-02T11:31:00.627Z</time></trkpt><trkpt lat="42.1054783" lon="13.6939867"><ele>914.0</ele><time>2026-05-02T11:31:01.628Z</time></trkpt><trkpt lat="42.1053783" lon="13.6939517"><ele>912.4000000000001</ele><time>2026-05-02T11:31:02.627Z</time></trkpt><trkpt lat="42.1052817" lon="13.69392"><ele>910.8000000000001</ele><time>2026-05-02T11:31:03.627Z</time></trkpt><trkpt lat="42.1051967" lon="13.6938883"><ele>909.1999999999999</ele><time>2026-05-02T11:31:04.628Z</time></trkpt><trkpt lat="42.1051333" lon="13.6938533"><ele>907.5999999999999</ele><time>2026-05-02T11:31:05.627Z</time></trkpt><trkpt lat="42.1050417" lon="13.6937167"><ele>906.0</ele><time>2026-05-02T11:31:07.628Z</time></trkpt><trkpt lat="42.104995" lon="13.693615"><ele>907.1666666666666</ele><time>2026-05-02T11:31:08.628Z</time></trkpt><trkpt lat="42.1049433" lon="13.6935033"><ele>908.3333333333333</ele><time>2026-05-02T11:31:09.627Z</time></trkpt><trkpt lat="42.1048983" lon="13.6934067"><ele>909.5</ele><time>2026-05-02T11:31:10.628Z</time></trkpt><trkpt lat="42.1048533" lon="13.6933317"><ele>910.6666666666666</ele><time>2026-05-02T11:31:11.628Z</time></trkpt><trkpt lat="42.1047883" lon="13.6932833"><ele>911.8333333333333</ele><time>2026-05-02T11:31:12.627Z</time></trkpt><trkpt lat="42.104725" lon="13.6932633"><ele>913.0</ele><time>2026-05-02T11:31:13.627Z</time></trkpt><trkpt lat="42.1046467" lon="13.693275"><ele>913.9999999999999</ele><time>2026-05-02T11:31:14.627Z</time></trkpt><trkpt lat="42.104555" lon="13.693295"><ele>915.0</ele><time>2026-05-02T11:31:15.627Z</time></trkpt><trkpt lat="42.1044667" lon="13.693295"><ele>916.0</ele><time>2026-05-02T11:31:16.628Z</time></trkpt><trkpt lat="42.1043733" lon="13.6932767"><ele>917.0</ele><time>2026-05-02T11:31:17.628Z</time></trkpt><trkpt lat="42.1042767" lon="13.6932633"><ele>917.9999999999999</ele><time>2026-05-02T11:31:18.627Z</time></trkpt><trkpt lat="42.104205" lon="13.6932767"><ele>919.0</ele><time>2026-05-02T11:31:19.628Z</time></trkpt><trkpt lat="42.1041017" lon="13.6933567"><ele>919.6666666666666</ele><time>2026-05-02T11:31:21.627Z</time></trkpt><trkpt lat="42.1040667" lon="13.6934667"><ele>920.3333333333333</ele><time>2026-05-02T11:31:22.627Z</time></trkpt><trkpt lat="42.1040383" lon="13.6935917"><ele>921.0</ele><time>2026-05-02T11:31:23.627Z</time></trkpt><trkpt lat="42.1040233" lon="13.6937117"><ele>921.6666666666667</ele><time>2026-05-02T11:31:24.628Z</time></trkpt><trkpt lat="42.104005" lon="13.6938067"><ele>922.3333333333334</ele><time>2026-05-02T11:31:25.628Z</time></trkpt><trkpt lat="42.1039767" lon="13.6938883"><ele>923.0</ele><time>2026-05-02T11:31:26.628Z</time></trkpt><trkpt lat="42.1039333" lon="13.693965"><ele>923.0000000000001</ele><time>2026-05-02T11:31:27.628Z</time></trkpt><trkpt lat="42.103885" lon="13.694035"><ele>923.0</ele><time>2026-05-02T11:31:28.627Z</time></trkpt><trkpt lat="42.103825" lon="13.6940883"><ele>923.0</ele><time>2026-05-02T11:31:29.627Z</time></trkpt><trkpt lat="42.1037483" lon="13.6941167"><ele>923.0</ele><time>2026-05-02T11:31:30.628Z</time></trkpt><trkpt lat="42.1036633" lon="13.6941217"><ele>923.0000000000001</ele><time>2026-05-02T11:31:31.628Z</time></trkpt><trkpt lat="42.1035667" lon="13.6941083"><ele>923.0</ele><time>2026-05-02T11:31:32.628Z</time></trkpt><trkpt lat="42.1034667" lon="13.6940833"><ele>923.0</ele><time>2026-05-02T11:31:33.627Z</time></trkpt><trkpt lat="42.103365" lon="13.6940683"><ele>923.0</ele><time>2026-05-02T11:31:34.627Z</time></trkpt><trkpt lat="42.1032717" lon="13.69407"><ele>923.0</ele><time>2026-05-02T11:31:35.627Z</time></trkpt><trkpt lat="42.1031833" lon="13.6940817"><ele>923.0</ele><time>2026-05-02T11:31:36.628Z</time></trkpt><trkpt lat="42.1030833" lon="13.694105"><ele>923.0</ele><time>2026-05-02T11:31:37.627Z</time></trkpt><trkpt lat="42.10298" lon="13.69413"><ele>923.8</ele><time>2026-05-02T11:31:38.628Z</time></trkpt><trkpt lat="42.102875" lon="13.6941533"><ele>924.5999999999999</ele><time>2026-05-02T11:31:39.627Z</time></trkpt><trkpt lat="42.10277" lon="13.694175"><ele>925.4000000000001</ele><time>2026-05-02T11:31:40.628Z</time></trkpt><trkpt lat="42.102655" lon="13.6942083"><ele>926.2</ele><time>2026-05-02T11:31:41.628Z</time></trkpt><trkpt lat="42.1025417" lon="13.6942417"><ele>927.0</ele><time>2026-05-02T11:31:42.627Z</time></trkpt><trkpt lat="42.1024383" lon="13.6942617"><ele>928.0</ele><time>2026-05-02T11:31:43.627Z</time></trkpt><trkpt lat="42.1023367" lon="13.6942633"><ele>929.0</ele><time>2026-05-02T11:31:44.627Z</time></trkpt><trkpt lat="42.1022433" lon="13.69425"><ele>930.0</ele><time>2026-05-02T11:31:45.628Z</time></trkpt><trkpt lat="42.1021633" lon="13.69423"><ele>931.0</ele><time>2026-05-02T11:31:46.628Z</time></trkpt><trkpt lat="42.1020933" lon="13.6941833"><ele>932.0</ele><time>2026-05-02T11:31:47.627Z</time></trkpt><trkpt lat="42.1020283" lon="13.6941083"><ele>933.0</ele><time>2026-05-02T11:31:48.627Z</time></trkpt><trkpt lat="42.10195" lon="13.6940083"><ele>933.0</ele><time>2026-05-02T11:31:49.627Z</time></trkpt><trkpt lat="42.1018767" lon="13.6938967"><ele>933.0</ele><time>2026-05-02T11:31:50.627Z</time></trkpt><trkpt lat="42.10181" lon="13.69379"><ele>933.0</ele><time>2026-05-02T11:31:51.628Z</time></trkpt><trkpt lat="42.10176" lon="13.6937033"><ele>933.0</ele><time>2026-05-02T11:31:52.627Z</time></trkpt><trkpt lat="42.1017067" lon="13.6936367"><ele>933.0</ele><time>2026-05-02T11:31:53.627Z</time></trkpt><trkpt lat="42.10164" lon="13.693585"><ele>933.0</ele><time>2026-05-02T11:31:54.628Z</time></trkpt><trkpt lat="42.1015633" lon="13.6935383"><ele>935.3333333333334</ele><time>2026-05-02T11:31:55.628Z</time></trkpt><trkpt lat="42.1014833" lon="13.693505"><ele>937.6666666666667</ele><time>2026-05-02T11:31:56.627Z</time></trkpt><trkpt lat="42.101405" lon="13.6934883"><ele>940.0</ele><time>2026-05-02T11:31:57.628Z</time></trkpt><trkpt lat="42.1012983" lon="13.6935333"><ele>942.3333333333334</ele><time>2026-05-02T11:31:59.628Z</time></trkpt><trkpt lat="42.1012533" lon="13.6936"><ele>944.6666666666667</ele><time>2026-05-02T11:32:00.627Z</time></trkpt><trkpt lat="42.1012033" lon="13.69371"><ele>947.0</ele><time>2026-05-02T11:32:01.628Z</time></trkpt><trkpt lat="42.1011483" lon="13.6938183"><ele>947.0000000000001</ele><time>2026-05-02T11:32:02.627Z</time></trkpt><trkpt lat="42.1010933" lon="13.6939233"><ele>947.0</ele><time>2026-05-02T11:32:03.627Z</time></trkpt><trkpt lat="42.101035" lon="13.6940083"><ele>947.0</ele><time>2026-05-02T11:32:04.627Z</time></trkpt><trkpt lat="42.1009733" lon="13.694075"><ele>947.0</ele><time>2026-05-02T11:32:05.627Z</time></trkpt><trkpt lat="42.100895" lon="13.6941517"><ele>947.0000000000001</ele><time>2026-05-02T11:32:06.628Z</time></trkpt><trkpt lat="42.1008317" lon="13.694225"><ele>947.0</ele><time>2026-05-02T11:32:07.627Z</time></trkpt><trkpt lat="42.1007783" lon="13.6942917"><ele>949.3333333333334</ele><time>2026-05-02T11:32:08.627Z</time></trkpt><trkpt lat="42.1006683" lon="13.69436"><ele>951.6666666666667</ele><time>2026-05-02T11:32:10.628Z</time></trkpt><trkpt lat="42.1005967" lon="13.694375"><ele>954.0</ele><time>2026-05-02T11:32:11.628Z</time></trkpt><trkpt lat="42.1005283" lon="13.694385"><ele>956.3333333333333</ele><time>2026-05-02T11:32:12.627Z</time></trkpt><trkpt lat="42.1004633" lon="13.6943583"><ele>958.6666666666666</ele><time>2026-05-02T11:32:13.627Z</time></trkpt><trkpt lat="42.1003983" lon="13.6943133"><ele>961.0</ele><time>2026-05-02T11:32:14.627Z</time></trkpt><trkpt lat="42.1003333" lon="13.6942783"><ele>961.0</ele><time>2026-05-02T11:32:15.628Z</time></trkpt><trkpt lat="42.1002583" lon="13.694255"><ele>960.9999999999999</ele><time>2026-05-02T11:32:16.628Z</time></trkpt><trkpt lat="42.100145" lon="13.6942583"><ele>960.9999999999999</ele><time>2026-05-02T11:32:18.627Z</time></trkpt><trkpt lat="42.1000367" lon="13.6942217"><ele>961.0</ele><time>2026-05-02T11:32:20.628Z</time></trkpt><trkpt lat="42.0999567" lon="13.6941833"><ele>961.0</ele><time>2026-05-02T11:32:21.628Z</time></trkpt><trkpt lat="42.0998733" lon="13.6941467"><ele>963.8333333333333</ele><time>2026-05-02T11:32:22.627Z</time></trkpt><trkpt lat="42.0998067" lon="13.694105"><ele>966.6666666666666</ele><time>2026-05-02T11:32:23.627Z</time></trkpt><trkpt lat="42.0997517" lon="13.6940467"><ele>969.5</ele><time>2026-05-02T11:32:24.627Z</time></trkpt><trkpt lat="42.09971" lon="13.69397"><ele>972.3333333333333</ele><time>2026-05-02T11:32:25.628Z</time></trkpt><trkpt lat="42.099685" lon="13.6938783"><ele>975.1666666666666</ele><time>2026-05-02T11:32:26.627Z</time></trkpt><trkpt lat="42.0996683" lon="13.6937917"><ele>978.0</ele><time>2026-05-02T11:32:27.628Z</time></trkpt><trkpt lat="42.0996133" lon="13.693635"><ele>979.5</ele><time>2026-05-02T11:32:29.627Z</time></trkpt><trkpt lat="42.0995817" lon="13.6935317"><ele>981.0</ele><time>2026-05-02T11:32:30.627Z</time></trkpt><trkpt lat="42.0995517" lon="13.6934467"><ele>982.5</ele><time>2026-05-02T11:32:31.627Z</time></trkpt><trkpt lat="42.0994533" lon="13.693325"><ele>984.0</ele><time>2026-05-02T11:32:33.627Z</time></trkpt><trkpt lat="42.0993833" lon="13.6932633"><ele>985.5</ele><time>2026-05-02T11:32:34.627Z</time></trkpt><trkpt lat="42.0993117" lon="13.6932167"><ele>987.0</ele><time>2026-05-02T11:32:35.628Z</time></trkpt><trkpt lat="42.0992467" lon="13.693195"><ele>987.0</ele><time>2026-05-02T11:32:36.627Z</time></trkpt><trkpt lat="42.0991817" lon="13.693195"><ele>987.0</ele><time>2026-05-02T11:32:37.628Z</time></trkpt><trkpt lat="42.0991167" lon="13.6932117"><ele>987.0</ele><time>2026-05-02T11:32:38.627Z</time></trkpt><trkpt lat="42.0990117" lon="13.6932733"><ele>987.0</ele><time>2026-05-02T11:32:40.628Z</time></trkpt><trkpt lat="42.0989467" lon="13.693375"><ele>987.0</ele><time>2026-05-02T11:32:42.628Z</time></trkpt><trkpt lat="42.09892" lon="13.6935283"><ele>990.4000000000001</ele><time>2026-05-02T11:32:44.627Z</time></trkpt><trkpt lat="42.0989083" lon="13.6936933"><ele>993.8000000000001</ele><time>2026-05-02T11:32:46.628Z</time></trkpt><trkpt lat="42.09893" lon="13.6938283"><ele>997.2</ele><time>2026-05-02T11:32:48.628Z</time></trkpt><trkpt lat="42.0989267" lon="13.6939183"><ele>1000.6</ele><time>2026-05-02T11:32:49.628Z</time></trkpt><trkpt lat="42.09889" lon="13.6940717"><ele>1004.0</ele><time>2026-05-02T11:32:51.627Z</time></trkpt><trkpt lat="42.0988033" lon="13.694165"><ele>1004.0000000000001</ele><time>2026-05-02T11:32:53.628Z</time></trkpt><trkpt lat="42.0987383" lon="13.6941933"><ele>1004.0</ele><time>2026-05-02T11:32:54.627Z</time></trkpt><trkpt lat="42.0986633" lon="13.6942433"><ele>1004.0</ele><time>2026-05-02T11:32:55.628Z</time></trkpt><trkpt lat="42.0985933" lon="13.6943067"><ele>1004.0</ele><time>2026-05-02T11:32:56.628Z</time></trkpt><trkpt lat="42.098525" lon="13.6943783"><ele>1004.0000000000001</ele><time>2026-05-02T11:32:57.627Z</time></trkpt><trkpt lat="42.09846" lon="13.694465"><ele>1004.0</ele><time>2026-05-02T11:32:58.627Z</time></trkpt><trkpt lat="42.0983917" lon="13.6945633"><ele>1004.0</ele><time>2026-05-02T11:32:59.628Z</time></trkpt><trkpt lat="42.0983383" lon="13.6946633"><ele>1004.0000000000001</ele><time>2026-05-02T11:33:00.627Z</time></trkpt><trkpt lat="42.0983033" lon="13.6947567"><ele>1004.0000000000001</ele><time>2026-05-02T11:33:01.628Z</time></trkpt><trkpt lat="42.0982667" lon="13.6948567"><ele>1004.0</ele><time>2026-05-02T11:33:02.627Z</time></trkpt><trkpt lat="42.0982167" lon="13.6949583"><ele>1004.0</ele><time>2026-05-02T11:33:03.627Z</time></trkpt><trkpt lat="42.0981467" lon="13.695085"><ele>1004.0000000000001</ele><time>2026-05-02T11:33:04.628Z</time></trkpt><trkpt lat="42.0980817" lon="13.6952117"><ele>1004.0</ele><time>2026-05-02T11:33:05.627Z</time></trkpt><trkpt lat="42.09802" lon="13.6953233"><ele>1004.0</ele><time>2026-05-02T11:33:06.628Z</time></trkpt><trkpt lat="42.0979667" lon="13.6954117"><ele>1004.0</ele><time>2026-05-02T11:33:07.627Z</time></trkpt><trkpt lat="42.097915" lon="13.695475"><ele>1004.0000000000001</ele><time>2026-05-02T11:33:08.628Z</time></trkpt><trkpt lat="42.0978583" lon="13.6955133"><ele>1004.0</ele><time>2026-05-02T11:33:09.627Z</time></trkpt><trkpt lat="42.0977817" lon="13.6955517"><ele>1002.8000000000001</ele><time>2026-05-02T11:33:10.628Z</time></trkpt><trkpt lat="42.0977" lon="13.695585"><ele>1001.6000000000001</ele><time>2026-05-02T11:33:11.628Z</time></trkpt><trkpt lat="42.0976117" lon="13.6956117"><ele>1000.4</ele><time>2026-05-02T11:33:12.628Z</time></trkpt><trkpt lat="42.0975167" lon="13.69564"><ele>999.2</ele><time>2026-05-02T11:33:13.627Z</time></trkpt><trkpt lat="42.097425" lon="13.6956733"><ele>998.0</ele><time>2026-05-02T11:33:14.628Z</time></trkpt><trkpt lat="42.09734" lon="13.6957167"><ele>998.0</ele><time>2026-05-02T11:33:15.627Z</time></trkpt><trkpt lat="42.0972567" lon="13.6957683"><ele>998.0</ele><time>2026-05-02T11:33:16.627Z</time></trkpt><trkpt lat="42.09718" lon="13.695815"><ele>998.0</ele><time>2026-05-02T11:33:17.627Z</time></trkpt><trkpt lat="42.0970833" lon="13.695855"><ele>998.0</ele><time>2026-05-02T11:33:18.628Z</time></trkpt><trkpt lat="42.09699" lon="13.6958817"><ele>998.0</ele><time>2026-05-02T11:33:19.627Z</time></trkpt><trkpt lat="42.096895" lon="13.6958883"><ele>998.0000000000001</ele><time>2026-05-02T11:33:20.627Z</time></trkpt><trkpt lat="42.09681" lon="13.6958867"><ele>998.0</ele><time>2026-05-02T11:33:21.628Z</time></trkpt><trkpt lat="42.0967417" lon="13.695875"><ele>998.0000000000001</ele><time>2026-05-02T11:33:22.628Z</time></trkpt><trkpt lat="42.0966733" lon="13.6958433"><ele>998.0000000000001</ele><time>2026-05-02T11:33:23.628Z</time></trkpt><trkpt lat="42.0966183" lon="13.6957983"><ele>998.0</ele><time>2026-05-02T11:33:24.627Z</time></trkpt><trkpt lat="42.0965633" lon="13.6957467"><ele>998.0000000000001</ele><time>2026-05-02T11:33:25.628Z</time></trkpt><trkpt lat="42.0965067" lon="13.6957"><ele>998.0000000000001</ele><time>2026-05-02T11:33:26.628Z</time></trkpt><trkpt lat="42.0964" lon="13.6956583"><ele>997.5999999999999</ele><time>2026-05-02T11:33:28.627Z</time></trkpt><trkpt lat="42.0962767" lon="13.6957333"><ele>997.1999999999999</ele><time>2026-05-02T11:33:30.628Z</time></trkpt><trkpt lat="42.0962" lon="13.6957883"><ele>996.8</ele><time>2026-05-02T11:33:31.628Z</time></trkpt><trkpt lat="42.0961283" lon="13.6958417"><ele>996.4</ele><time>2026-05-02T11:33:32.627Z</time></trkpt><trkpt lat="42.0960517" lon="13.6958817"><ele>996.0</ele><time>2026-05-02T11:33:33.627Z</time></trkpt><trkpt lat="42.0959767" lon="13.6959117"><ele>996.0</ele><time>2026-05-02T11:33:34.628Z</time></trkpt><trkpt lat="42.095905" lon="13.6959267"><ele>996.0</ele><time>2026-05-02T11:33:35.627Z</time></trkpt><trkpt lat="42.0958383" lon="13.6959167"><ele>996.0</ele><time>2026-05-02T11:33:36.628Z</time></trkpt><trkpt lat="42.09577" lon="13.6958783"><ele>996.0</ele><time>2026-05-02T11:33:37.628Z</time></trkpt><trkpt lat="42.0956867" lon="13.6958183"><ele>996.0</ele><time>2026-05-02T11:33:38.628Z</time></trkpt><trkpt lat="42.0956067" lon="13.6957683"><ele>996.0</ele><time>2026-05-02T11:33:39.628Z</time></trkpt><trkpt lat="42.095525" lon="13.6957483"><ele>997.1666666666666</ele><time>2026-05-02T11:33:40.628Z</time></trkpt><trkpt lat="42.0954383" lon="13.6957467"><ele>998.3333333333333</ele><time>2026-05-02T11:33:41.628Z</time></trkpt><trkpt lat="42.0953367" lon="13.6957583"><ele>999.5</ele><time>2026-05-02T11:33:42.628Z</time></trkpt><trkpt lat="42.0952417" lon="13.6957883"><ele>1000.6666666666666</ele><time>2026-05-02T11:33:43.628Z</time></trkpt><trkpt lat="42.09516" lon="13.69583"><ele>1001.8333333333333</ele><time>2026-05-02T11:33:44.628Z</time></trkpt><trkpt lat="42.0950983" lon="13.6958683"><ele>1003.0</ele><time>2026-05-02T11:33:45.627Z</time></trkpt><trkpt lat="42.0949817" lon="13.6959517"><ele>1003.8</ele><time>2026-05-02T11:33:47.628Z</time></trkpt><trkpt lat="42.094905" lon="13.6959833"><ele>1004.5999999999999</ele><time>2026-05-02T11:33:48.628Z</time></trkpt><trkpt lat="42.0948133" lon="13.6960167"><ele>1005.4000000000001</ele><time>2026-05-02T11:33:49.627Z</time></trkpt><trkpt lat="42.094725" lon="13.6960483"><ele>1006.2</ele><time>2026-05-02T11:33:50.627Z</time></trkpt><trkpt lat="42.094635" lon="13.696095"><ele>1007.0</ele><time>2026-05-02T11:33:51.627Z</time></trkpt><trkpt lat="42.094555" lon="13.6961483"><ele>1007.2</ele><time>2026-05-02T11:33:52.628Z</time></trkpt><trkpt lat="42.094475" lon="13.6962117"><ele>1007.4000000000001</ele><time>2026-05-02T11:33:53.627Z</time></trkpt><trkpt lat="42.0943967" lon="13.696275"><ele>1007.5999999999999</ele><time>2026-05-02T11:33:54.628Z</time></trkpt><trkpt lat="42.0943033" lon="13.6963167"><ele>1007.8</ele><time>2026-05-02T11:33:55.628Z</time></trkpt><trkpt lat="42.09419" lon="13.6963483"><ele>1008.0</ele><time>2026-05-02T11:33:56.627Z</time></trkpt><trkpt lat="42.0940683" lon="13.6963867"><ele>1008.0</ele><time>2026-05-02T11:33:57.628Z</time></trkpt><trkpt lat="42.09395" lon="13.696415"><ele>1008.0</ele><time>2026-05-02T11:33:58.627Z</time></trkpt><trkpt lat="42.09385" lon="13.6964533"><ele>1008.0</ele><time>2026-05-02T11:33:59.628Z</time></trkpt><trkpt lat="42.0937617" lon="13.696515"><ele>1008.0</ele><time>2026-05-02T11:34:00.627Z</time></trkpt><trkpt lat="42.0936833" lon="13.6965933"><ele>1008.0</ele><time>2026-05-02T11:34:01.627Z</time></trkpt><trkpt lat="42.0936017" lon="13.6966933"><ele>1008.0</ele><time>2026-05-02T11:34:02.628Z</time></trkpt><trkpt lat="42.093525" lon="13.696825"><ele>1008.0</ele><time>2026-05-02T11:34:03.628Z</time></trkpt><trkpt lat="42.09344" lon="13.6969667"><ele>1008.0</ele><time>2026-05-02T11:34:04.627Z</time></trkpt><trkpt lat="42.0933667" lon="13.6971017"><ele>1008.0</ele><time>2026-05-02T11:34:05.628Z</time></trkpt><trkpt lat="42.0933017" lon="13.697225"><ele>1007.0</ele><time>2026-05-02T11:34:06.627Z</time></trkpt><trkpt lat="42.09324" lon="13.6973417"><ele>1006.0</ele><time>2026-05-02T11:34:07.627Z</time></trkpt><trkpt lat="42.0931833" lon="13.69746"><ele>1005.0</ele><time>2026-05-02T11:34:08.626Z</time></trkpt><trkpt lat="42.0931283" lon="13.69757"><ele>1004.0</ele><time>2026-05-02T11:34:09.627Z</time></trkpt><trkpt lat="42.0930733" lon="13.6976683"><ele>1003.0</ele><time>2026-05-02T11:34:10.626Z</time></trkpt><trkpt lat="42.093015" lon="13.697745"><ele>1002.9999999999999</ele><time>2026-05-02T11:34:11.627Z</time></trkpt><trkpt lat="42.0929483" lon="13.6977983"><ele>1003.0</ele><time>2026-05-02T11:34:12.627Z</time></trkpt><trkpt lat="42.09287" lon="13.69782"><ele>1003.0</ele><time>2026-05-02T11:34:13.627Z</time></trkpt><trkpt lat="42.0928017" lon="13.6978083"><ele>1003.0</ele><time>2026-05-02T11:34:14.627Z</time></trkpt><trkpt lat="42.0927267" lon="13.6977667"><ele>1002.9999999999999</ele><time>2026-05-02T11:34:15.627Z</time></trkpt><trkpt lat="42.0926483" lon="13.6977217"><ele>1003.0</ele><time>2026-05-02T11:34:16.627Z</time></trkpt><trkpt lat="42.0925617" lon="13.697705"><ele>1003.0</ele><time>2026-05-02T11:34:17.626Z</time></trkpt><trkpt lat="42.0924683" lon="13.6977117"><ele>1003.0</ele><time>2026-05-02T11:34:18.626Z</time></trkpt><trkpt lat="42.092365" lon="13.6977383"><ele>1003.0</ele><time>2026-05-02T11:34:19.626Z</time></trkpt><trkpt lat="42.0922633" lon="13.69777"><ele>1003.0</ele><time>2026-05-02T11:34:20.627Z</time></trkpt><trkpt lat="42.0921633" lon="13.6978017"><ele>1003.0</ele><time>2026-05-02T11:34:21.627Z</time></trkpt><trkpt lat="42.0920733" lon="13.6978233"><ele>1001.4</ele><time>2026-05-02T11:34:22.627Z</time></trkpt><trkpt lat="42.09198" lon="13.6978283"><ele>999.8</ele><time>2026-05-02T11:34:23.627Z</time></trkpt><trkpt lat="42.091885" lon="13.69782"><ele>998.2</ele><time>2026-05-02T11:34:24.626Z</time></trkpt><trkpt lat="42.091785" lon="13.6978183"><ele>996.6</ele><time>2026-05-02T11:34:25.627Z</time></trkpt><trkpt lat="42.09169" lon="13.6978433"><ele>995.0</ele><time>2026-05-02T11:34:26.627Z</time></trkpt><trkpt lat="42.091595" lon="13.6979"><ele>994.4</ele><time>2026-05-02T11:34:27.627Z</time></trkpt><trkpt lat="42.0915033" lon="13.6979833"><ele>993.8</ele><time>2026-05-02T11:34:28.626Z</time></trkpt><trkpt lat="42.091405" lon="13.6980583"><ele>993.2</ele><time>2026-05-02T11:34:29.626Z</time></trkpt><trkpt lat="42.091305" lon="13.6981233"><ele>992.6</ele><time>2026-05-02T11:34:30.626Z</time></trkpt><trkpt lat="42.0912067" lon="13.698185"><ele>992.0</ele><time>2026-05-02T11:34:31.626Z</time></trkpt><trkpt lat="42.09111" lon="13.6982467"><ele>992.0000000000001</ele><time>2026-05-02T11:34:32.627Z</time></trkpt><trkpt lat="42.0910217" lon="13.69828"><ele>992.0</ele><time>2026-05-02T11:34:33.627Z</time></trkpt><trkpt lat="42.0909467" lon="13.6983133"><ele>992.0</ele><time>2026-05-02T11:34:34.626Z</time></trkpt><trkpt lat="42.09089" lon="13.6983667"><ele>992.0</ele><time>2026-05-02T11:34:35.626Z</time></trkpt><trkpt lat="42.090845" lon="13.6984383"><ele>992.0000000000001</ele><time>2026-05-02T11:34:36.626Z</time></trkpt><trkpt lat="42.0908267" lon="13.6985267"><ele>992.0</ele><time>2026-05-02T11:34:37.626Z</time></trkpt><trkpt lat="42.09083" lon="13.6986283"><ele>992.5000000000001</ele><time>2026-05-02T11:34:38.627Z</time></trkpt><trkpt lat="42.0908283" lon="13.6987383"><ele>993.0</ele><time>2026-05-02T11:34:39.627Z</time></trkpt><trkpt lat="42.0908183" lon="13.6988517"><ele>993.5</ele><time>2026-05-02T11:34:40.627Z</time></trkpt><trkpt lat="42.0907867" lon="13.698945"><ele>994.0</ele><time>2026-05-02T11:34:41.626Z</time></trkpt><trkpt lat="42.090735" lon="13.6990033"><ele>994.5000000000001</ele><time>2026-05-02T11:34:42.626Z</time></trkpt><trkpt lat="42.0906717" lon="13.6990617"><ele>995.0</ele><time>2026-05-02T11:34:43.627Z</time></trkpt><trkpt lat="42.090595" lon="13.6991283"><ele>995.5</ele><time>2026-05-02T11:34:44.626Z</time></trkpt><trkpt lat="42.0905067" lon="13.699205"><ele>996.0</ele><time>2026-05-02T11:34:45.626Z</time></trkpt><trkpt lat="42.0903967" lon="13.6992767"><ele>996.5</ele><time>2026-05-02T11:34:46.627Z</time></trkpt><trkpt lat="42.0902833" lon="13.6993467"><ele>997.0</ele><time>2026-05-02T11:34:47.626Z</time></trkpt><trkpt lat="42.0901733" lon="13.69943"><ele>997.6</ele><time>2026-05-02T11:34:48.626Z</time></trkpt><trkpt lat="42.0900767" lon="13.6995183"><ele>998.2</ele><time>2026-05-02T11:34:49.627Z</time></trkpt><trkpt lat="42.0899783" lon="13.6995917"><ele>998.8</ele><time>2026-05-02T11:34:50.626Z</time></trkpt><trkpt lat="42.0898883" lon="13.6996283"><ele>999.4</ele><time>2026-05-02T11:34:51.627Z</time></trkpt><trkpt lat="42.089805" lon="13.6996367"><ele>1000.0</ele><time>2026-05-02T11:34:52.627Z</time></trkpt><trkpt lat="42.08974" lon="13.6996117"><ele>999.9999999999999</ele><time>2026-05-02T11:34:53.626Z</time></trkpt><trkpt lat="42.0896917" lon="13.6995567"><ele>1000.0</ele><time>2026-05-02T11:34:54.626Z</time></trkpt><trkpt lat="42.0896567" lon="13.6994733"><ele>1000.0</ele><time>2026-05-02T11:34:55.627Z</time></trkpt><trkpt lat="42.0896183" lon="13.6993583"><ele>1000.0</ele><time>2026-05-02T11:34:56.626Z</time></trkpt><trkpt lat="42.0895883" lon="13.699245"><ele>999.9999999999999</ele><time>2026-05-02T11:34:57.626Z</time></trkpt><trkpt lat="42.0895667" lon="13.6991383"><ele>1000.0</ele><time>2026-05-02T11:34:58.627Z</time></trkpt><trkpt lat="42.0895467" lon="13.6990317"><ele>999.9999999999999</ele><time>2026-05-02T11:34:59.626Z</time></trkpt><trkpt lat="42.0895333" lon="13.6989267"><ele>1000.0</ele><time>2026-05-02T11:35:00.626Z</time></trkpt><trkpt lat="42.089525" lon="13.6988117"><ele>1000.0</ele><time>2026-05-02T11:35:01.626Z</time></trkpt><trkpt lat="42.08953" lon="13.698685"><ele>1000.0</ele><time>2026-05-02T11:35:02.626Z</time></trkpt><trkpt lat="42.08954" lon="13.6985667"><ele>999.9999999999999</ele><time>2026-05-02T11:35:03.627Z</time></trkpt><trkpt lat="42.089545" lon="13.69845"><ele>1000.0</ele><time>2026-05-02T11:35:04.627Z</time></trkpt><trkpt lat="42.08953" lon="13.6983417"><ele>999.1666666666666</ele><time>2026-05-02T11:35:05.627Z</time></trkpt><trkpt lat="42.0894983" lon="13.6982533"><ele>998.3333333333333</ele><time>2026-05-02T11:35:06.626Z</time></trkpt><trkpt lat="42.0894517" lon="13.6981617"><ele>997.5</ele><time>2026-05-02T11:35:07.626Z</time></trkpt><trkpt lat="42.089405" lon="13.698085"><ele>996.6666666666667</ele><time>2026-05-02T11:35:08.626Z</time></trkpt><trkpt lat="42.0893433" lon="13.698025"><ele>995.8333333333334</ele><time>2026-05-02T11:35:09.626Z</time></trkpt><trkpt lat="42.0892167" lon="13.69802"><ele>995.0</ele><time>2026-05-02T11:35:11.626Z</time></trkpt><trkpt lat="42.08914" lon="13.6980617"><ele>995.0000000000001</ele><time>2026-05-02T11:35:12.626Z</time></trkpt><trkpt lat="42.08906" lon="13.6981217"><ele>995.0</ele><time>2026-05-02T11:35:13.627Z</time></trkpt><trkpt lat="42.0889917" lon="13.698185"><ele>995.0</ele><time>2026-05-02T11:35:14.627Z</time></trkpt><trkpt lat="42.0889283" lon="13.6982533"><ele>995.0</ele><time>2026-05-02T11:35:15.627Z</time></trkpt><trkpt lat="42.0888683" lon="13.698325"><ele>995.0000000000001</ele><time>2026-05-02T11:35:16.627Z</time></trkpt><trkpt lat="42.0887967" lon="13.698375"><ele>995.0</ele><time>2026-05-02T11:35:17.627Z</time></trkpt><trkpt lat="42.0887117" lon="13.69843"><ele>995.0</ele><time>2026-05-02T11:35:18.627Z</time></trkpt><trkpt lat="42.0886133" lon="13.698495"><ele>995.0</ele><time>2026-05-02T11:35:19.626Z</time></trkpt><trkpt lat="42.0885117" lon="13.6985567"><ele>995.0</ele><time>2026-05-02T11:35:20.626Z</time></trkpt><trkpt lat="42.0884117" lon="13.6986183"><ele>995.0</ele><time>2026-05-02T11:35:21.627Z</time></trkpt><trkpt lat="42.0883217" lon="13.69867"><ele>995.0</ele><time>2026-05-02T11:35:22.626Z</time></trkpt><trkpt lat="42.0882333" lon="13.6987333"><ele>994.2</ele><time>2026-05-02T11:35:23.627Z</time></trkpt><trkpt lat="42.0881517" lon="13.6988267"><ele>993.4</ele><time>2026-05-02T11:35:24.626Z</time></trkpt><trkpt lat="42.08807" lon="13.69893"><ele>992.5999999999999</ele><time>2026-05-02T11:35:25.626Z</time></trkpt><trkpt lat="42.087995" lon="13.699045"><ele>991.8</ele><time>2026-05-02T11:35:26.626Z</time></trkpt><trkpt lat="42.0879317" lon="13.6991583"><ele>991.0</ele><time>2026-05-02T11:35:27.627Z</time></trkpt><trkpt lat="42.0878917" lon="13.69927"><ele>991.0</ele><time>2026-05-02T11:35:28.627Z</time></trkpt><trkpt lat="42.087875" lon="13.6993983"><ele>990.9999999999999</ele><time>2026-05-02T11:35:29.627Z</time></trkpt><trkpt lat="42.0878867" lon="13.6995467"><ele>990.9999999999999</ele><time>2026-05-02T11:35:30.626Z</time></trkpt><trkpt lat="42.0878917" lon="13.6996933"><ele>991.0</ele><time>2026-05-02T11:35:31.627Z</time></trkpt><trkpt lat="42.0878867" lon="13.6998317"><ele>991.0</ele><time>2026-05-02T11:35:32.627Z</time></trkpt><trkpt lat="42.087855" lon="13.699955"><ele>989.4</ele><time>2026-05-02T11:35:33.626Z</time></trkpt><trkpt lat="42.0877933" lon="13.7000433"><ele>987.8</ele><time>2026-05-02T11:35:34.626Z</time></trkpt><trkpt lat="42.08772" lon="13.700095"><ele>986.1999999999999</ele><time>2026-05-02T11:35:35.627Z</time></trkpt><trkpt lat="42.08762" lon="13.700145"><ele>984.5999999999999</ele><time>2026-05-02T11:35:36.626Z</time></trkpt><trkpt lat="42.0874967" lon="13.7001783"><ele>983.0</ele><time>2026-05-02T11:35:37.627Z</time></trkpt><trkpt lat="42.0873833" lon="13.70022"><ele>981.75</ele><time>2026-05-02T11:35:38.626Z</time></trkpt><trkpt lat="42.0872783" lon="13.700285"><ele>980.5</ele><time>2026-05-02T11:35:39.627Z</time></trkpt><trkpt lat="42.0871733" lon="13.70036"><ele>979.25</ele><time>2026-05-02T11:35:40.626Z</time></trkpt><trkpt lat="42.08707" lon="13.7004533"><ele>978.0</ele><time>2026-05-02T11:35:41.626Z</time></trkpt><trkpt lat="42.0869783" lon="13.7005417"><ele>978.0</ele><time>2026-05-02T11:35:42.627Z</time></trkpt><trkpt lat="42.0868933" lon="13.7006117"><ele>978.0</ele><time>2026-05-02T11:35:43.626Z</time></trkpt><trkpt lat="42.0868133" lon="13.7006767"><ele>978.0</ele><time>2026-05-02T11:35:44.626Z</time></trkpt><trkpt lat="42.0867267" lon="13.7007533"><ele>978.0</ele><time>2026-05-02T11:35:45.627Z</time></trkpt><trkpt lat="42.0866467" lon="13.700835"><ele>978.0</ele><time>2026-05-02T11:35:46.626Z</time></trkpt><trkpt lat="42.0865633" lon="13.7009217"><ele>977.2</ele><time>2026-05-02T11:35:47.627Z</time></trkpt><trkpt lat="42.0864917" lon="13.7010083"><ele>976.4</ele><time>2026-05-02T11:35:48.626Z</time></trkpt><trkpt lat="42.0864383" lon="13.701105"><ele>975.6000000000001</ele><time>2026-05-02T11:35:49.626Z</time></trkpt><trkpt lat="42.086395" lon="13.7012183"><ele>974.8000000000001</ele><time>2026-05-02T11:35:50.626Z</time></trkpt><trkpt lat="42.08636" lon="13.7013517"><ele>974.0</ele><time>2026-05-02T11:35:51.627Z</time></trkpt><trkpt lat="42.0863083" lon="13.7014883"><ele>974.0</ele><time>2026-05-02T11:35:52.626Z</time></trkpt><trkpt lat="42.0862533" lon="13.701625"><ele>974.0</ele><time>2026-05-02T11:35:53.627Z</time></trkpt><trkpt lat="42.086185" lon="13.7017533"><ele>974.0</ele><time>2026-05-02T11:35:54.626Z</time></trkpt><trkpt lat="42.086125" lon="13.7019"><ele>974.0</ele><time>2026-05-02T11:35:55.626Z</time></trkpt><trkpt lat="42.0860533" lon="13.7020633"><ele>973.25</ele><time>2026-05-02T11:35:56.626Z</time></trkpt><trkpt lat="42.0859833" lon="13.70222"><ele>972.5</ele><time>2026-05-02T11:35:57.626Z</time></trkpt><trkpt lat="42.0859117" lon="13.7023683"><ele>971.75</ele><time>2026-05-02T11:35:58.627Z</time></trkpt><trkpt lat="42.0858417" lon="13.7025133"><ele>971.0</ele><time>2026-05-02T11:35:59.626Z</time></trkpt><trkpt lat="42.085785" lon="13.7026667"><ele>969.5</ele><time>2026-05-02T11:36:00.626Z</time></trkpt><trkpt lat="42.0857333" lon="13.7028133"><ele>968.0</ele><time>2026-05-02T11:36:01.627Z</time></trkpt><trkpt lat="42.0856633" lon="13.7029533"><ele>966.5</ele><time>2026-05-02T11:36:02.626Z</time></trkpt><trkpt lat="42.0855783" lon="13.7030883"><ele>965.0</ele><time>2026-05-02T11:36:03.627Z</time></trkpt><trkpt lat="42.085485" lon="13.703205"><ele>965.0</ele><time>2026-05-02T11:36:04.627Z</time></trkpt><trkpt lat="42.0854067" lon="13.7033217"><ele>965.0</ele><time>2026-05-02T11:36:05.627Z</time></trkpt><trkpt lat="42.0853167" lon="13.7034267"><ele>965.0</ele><time>2026-05-02T11:36:06.626Z</time></trkpt><trkpt lat="42.0852367" lon="13.7035133"><ele>965.0</ele><time>2026-05-02T11:36:07.626Z</time></trkpt><trkpt lat="42.0851533" lon="13.7035883"><ele>965.0</ele><time>2026-05-02T11:36:08.626Z</time></trkpt><trkpt lat="42.0850717" lon="13.7036533"><ele>965.2</ele><time>2026-05-02T11:36:09.627Z</time></trkpt><trkpt lat="42.0849883" lon="13.703715"><ele>965.4</ele><time>2026-05-02T11:36:10.626Z</time></trkpt><trkpt lat="42.0849067" lon="13.70378"><ele>965.5999999999999</ele><time>2026-05-02T11:36:11.627Z</time></trkpt><trkpt lat="42.0848283" lon="13.7038467"><ele>965.8</ele><time>2026-05-02T11:36:12.626Z</time></trkpt><trkpt lat="42.084755" lon="13.7039233"><ele>966.0</ele><time>2026-05-02T11:36:13.627Z</time></trkpt><trkpt lat="42.084675" lon="13.7040033"><ele>966.0</ele><time>2026-05-02T11:36:14.626Z</time></trkpt><trkpt lat="42.0845933" lon="13.7040867"><ele>965.9999999999999</ele><time>2026-05-02T11:36:15.627Z</time></trkpt><trkpt lat="42.0845133" lon="13.7041717"><ele>965.9999999999999</ele><time>2026-05-02T11:36:16.627Z</time></trkpt><trkpt lat="42.0844383" lon="13.70426"><ele>966.0</ele><time>2026-05-02T11:36:17.626Z</time></trkpt><trkpt lat="42.0843667" lon="13.70434"><ele>966.0</ele><time>2026-05-02T11:36:18.626Z</time></trkpt><trkpt lat="42.0842767" lon="13.704425"><ele>966.4</ele><time>2026-05-02T11:36:19.626Z</time></trkpt><trkpt lat="42.0841833" lon="13.704515"><ele>966.8</ele><time>2026-05-02T11:36:20.626Z</time></trkpt><trkpt lat="42.084095" lon="13.7046183"><ele>967.1999999999999</ele><time>2026-05-02T11:36:21.626Z</time></trkpt><trkpt lat="42.0840233" lon="13.7047167"><ele>967.5999999999999</ele><time>2026-05-02T11:36:22.626Z</time></trkpt><trkpt lat="42.08395" lon="13.704825"><ele>968.0</ele><time>2026-05-02T11:36:23.627Z</time></trkpt><trkpt lat="42.0838733" lon="13.70491"><ele>968.0</ele><time>2026-05-02T11:36:24.627Z</time></trkpt><trkpt lat="42.0837933" lon="13.7049883"><ele>968.0</ele><time>2026-05-02T11:36:25.627Z</time></trkpt><trkpt lat="42.0837133" lon="13.7050533"><ele>968.0</ele><time>2026-05-02T11:36:26.626Z</time></trkpt><trkpt lat="42.08363" lon="13.70512"><ele>968.0</ele><time>2026-05-02T11:36:27.627Z</time></trkpt><trkpt lat="42.0835533" lon="13.7051833"><ele>968.0</ele><time>2026-05-02T11:36:28.627Z</time></trkpt><trkpt lat="42.08347" lon="13.7052567"><ele>967.3333333333334</ele><time>2026-05-02T11:36:29.627Z</time></trkpt><trkpt lat="42.083395" lon="13.7053383"><ele>966.6666666666667</ele><time>2026-05-02T11:36:30.627Z</time></trkpt><trkpt lat="42.083325" lon="13.7054167"><ele>966.0</ele><time>2026-05-02T11:36:31.627Z</time></trkpt><trkpt lat="42.0832667" lon="13.7055017"><ele>965.3333333333333</ele><time>2026-05-02T11:36:32.627Z</time></trkpt><trkpt lat="42.0832233" lon="13.705585"><ele>964.6666666666666</ele><time>2026-05-02T11:36:33.626Z</time></trkpt><trkpt lat="42.0831783" lon="13.7056733"><ele>964.0</ele><time>2026-05-02T11:36:34.627Z</time></trkpt><trkpt lat="42.0831317" lon="13.70576"><ele>964.7142857142858</ele><time>2026-05-02T11:36:35.627Z</time></trkpt><trkpt lat="42.08309" lon="13.705835"><ele>965.4285714285716</ele><time>2026-05-02T11:36:36.626Z</time></trkpt><trkpt lat="42.0830517" lon="13.70591"><ele>966.1428571428571</ele><time>2026-05-02T11:36:37.627Z</time></trkpt><trkpt lat="42.083015" lon="13.7059817"><ele>966.8571428571429</ele><time>2026-05-02T11:36:38.627Z</time></trkpt><trkpt lat="42.0829717" lon="13.7060517"><ele>967.5714285714286</ele><time>2026-05-02T11:36:39.626Z</time></trkpt><trkpt lat="42.0829267" lon="13.7061267"><ele>968.2857142857142</ele><time>2026-05-02T11:36:40.626Z</time></trkpt><trkpt lat="42.08288" lon="13.7062033"><ele>968.9999999999999</ele><time>2026-05-02T11:36:41.627Z</time></trkpt><trkpt lat="42.082835" lon="13.7062667"><ele>969.0</ele><time>2026-05-02T11:36:42.627Z</time></trkpt><trkpt lat="42.082785" lon="13.7063367"><ele>969.0000000000001</ele><time>2026-05-02T11:36:43.627Z</time></trkpt><trkpt lat="42.082725" lon="13.7064233"><ele>969.0000000000001</ele><time>2026-05-02T11:36:44.627Z</time></trkpt><trkpt lat="42.08266" lon="13.70653"><ele>969.0</ele><time>2026-05-02T11:36:45.626Z</time></trkpt><trkpt lat="42.08259" lon="13.7066483"><ele>969.0</ele><time>2026-05-02T11:36:46.627Z</time></trkpt><trkpt lat="42.0825083" lon="13.70678"><ele>973.25</ele><time>2026-05-02T11:36:47.626Z</time></trkpt><trkpt lat="42.0824217" lon="13.70693"><ele>977.5</ele><time>2026-05-02T11:36:48.627Z</time></trkpt><trkpt lat="42.0823333" lon="13.7070767"><ele>981.75</ele><time>2026-05-02T11:36:49.626Z</time></trkpt><trkpt lat="42.0822367" lon="13.7072267"><ele>986.0</ele><time>2026-05-02T11:36:50.627Z</time></trkpt><trkpt lat="42.0821417" lon="13.7073767"><ele>986.0</ele><time>2026-05-02T11:36:51.626Z</time></trkpt><trkpt lat="42.0820383" lon="13.7075333"><ele>986.0</ele><time>2026-05-02T11:36:52.627Z</time></trkpt><trkpt lat="42.0819283" lon="13.7076833"><ele>986.0</ele><time>2026-05-02T11:36:53.626Z</time></trkpt><trkpt lat="42.0818183" lon="13.7078417"><ele>987.3333333333334</ele><time>2026-05-02T11:36:54.627Z</time></trkpt><trkpt lat="42.0817033" lon="13.7079917"><ele>988.6666666666667</ele><time>2026-05-02T11:36:55.626Z</time></trkpt><trkpt lat="42.0815917" lon="13.7081267"><ele>990.0</ele><time>2026-05-02T11:36:56.626Z</time></trkpt><trkpt lat="42.0814867" lon="13.7082517"><ele>990.0</ele><time>2026-05-02T11:36:57.627Z</time></trkpt><trkpt lat="42.0813717" lon="13.70836"><ele>990.0</ele><time>2026-05-02T11:36:58.627Z</time></trkpt><trkpt lat="42.081245" lon="13.7084467"><ele>990.0</ele><time>2026-05-02T11:36:59.626Z</time></trkpt><trkpt lat="42.0811033" lon="13.7085367"><ele>990.0</ele><time>2026-05-02T11:37:00.627Z</time></trkpt><trkpt lat="42.08095" lon="13.708635"><ele>985.6666666666667</ele><time>2026-05-02T11:37:01.626Z</time></trkpt><trkpt lat="42.0807917" lon="13.7087333"><ele>981.3333333333334</ele><time>2026-05-02T11:37:02.626Z</time></trkpt><trkpt lat="42.080635" lon="13.7088367"><ele>977.0</ele><time>2026-05-02T11:37:03.627Z</time></trkpt><trkpt lat="42.08047" lon="13.7089383"><ele>977.0</ele><time>2026-05-02T11:37:04.626Z</time></trkpt><trkpt lat="42.080305" lon="13.7090283"><ele>977.0</ele><time>2026-05-02T11:37:05.627Z</time></trkpt><trkpt lat="42.080155" lon="13.709115"><ele>977.0</ele><time>2026-05-02T11:37:06.627Z</time></trkpt><trkpt lat="42.0800133" lon="13.7092067"><ele>979.3333333333334</ele><time>2026-05-02T11:37:07.626Z</time></trkpt><trkpt lat="42.0798733" lon="13.7092883"><ele>981.6666666666667</ele><time>2026-05-02T11:37:08.626Z</time></trkpt><trkpt lat="42.0797317" lon="13.7093683"><ele>984.0</ele><time>2026-05-02T11:37:09.627Z</time></trkpt><trkpt lat="42.0795983" lon="13.70944"><ele>978.5</ele><time>2026-05-02T11:37:10.626Z</time></trkpt><trkpt lat="42.0794783" lon="13.709495"><ele>973.0</ele><time>2026-05-02T11:37:11.626Z</time></trkpt><trkpt lat="42.079355" lon="13.7095167"><ele>967.5</ele><time>2026-05-02T11:37:12.626Z</time></trkpt><trkpt lat="42.079225" lon="13.7094867"><ele>962.0</ele><time>2026-05-02T11:37:13.627Z</time></trkpt><trkpt lat="42.079115" lon="13.7094267"><ele>961.0</ele><time>2026-05-02T11:37:14.626Z</time></trkpt><trkpt lat="42.0790333" lon="13.7093383"><ele>960.0</ele><time>2026-05-02T11:37:15.626Z</time></trkpt><trkpt lat="42.078965" lon="13.7092217"><ele>959.0</ele><time>2026-05-02T11:37:16.626Z</time></trkpt><trkpt lat="42.0788967" lon="13.7090717"><ele>958.0</ele><time>2026-05-02T11:37:17.626Z</time></trkpt><trkpt lat="42.07882" lon="13.708905"><ele>958.0</ele><time>2026-05-02T11:37:18.627Z</time></trkpt><trkpt lat="42.0787583" lon="13.7087167"><ele>958.0</ele><time>2026-05-02T11:37:19.627Z</time></trkpt><trkpt lat="42.0786967" lon="13.7085233"><ele>958.0</ele><time>2026-05-02T11:37:20.626Z</time></trkpt><trkpt lat="42.0786433" lon="13.708315"><ele>963.6666666666666</ele><time>2026-05-02T11:37:21.626Z</time></trkpt><trkpt lat="42.078605" lon="13.7081017"><ele>969.3333333333333</ele><time>2026-05-02T11:37:22.627Z</time></trkpt><trkpt lat="42.0785683" lon="13.7078917"><ele>975.0</ele><time>2026-05-02T11:37:23.626Z</time></trkpt><trkpt lat="42.078535" lon="13.7076783"><ele>978.5</ele><time>2026-05-02T11:37:24.626Z</time></trkpt><trkpt lat="42.0784983" lon="13.70748"><ele>982.0</ele><time>2026-05-02T11:37:25.627Z</time></trkpt><trkpt lat="42.07847" lon="13.70729"><ele>985.5</ele><time>2026-05-02T11:37:26.626Z</time></trkpt><trkpt lat="42.0784417" lon="13.7071217"><ele>989.0</ele><time>2026-05-02T11:37:27.626Z</time></trkpt><trkpt lat="42.0784033" lon="13.7069767"><ele>992.6</ele><time>2026-05-02T11:37:28.627Z</time></trkpt><trkpt lat="42.07835" lon="13.70687"><ele>996.2</ele><time>2026-05-02T11:37:29.626Z</time></trkpt><trkpt lat="42.0782817" lon="13.7067933"><ele>999.8000000000001</ele><time>2026-05-02T11:37:30.627Z</time></trkpt><trkpt lat="42.0782" lon="13.706765"><ele>1003.4000000000001</ele><time>2026-05-02T11:37:31.627Z</time></trkpt><trkpt lat="42.0781133" lon="13.7067833"><ele>1007.0</ele><time>2026-05-02T11:37:32.627Z</time></trkpt><trkpt lat="42.078025" lon="13.7068583"><ele>1005.5</ele><time>2026-05-02T11:37:33.627Z</time></trkpt><trkpt lat="42.0779483" lon="13.70699"><ele>1004.0</ele><time>2026-05-02T11:37:34.626Z</time></trkpt><trkpt lat="42.07785" lon="13.7071567"><ele>1002.5</ele><time>2026-05-02T11:37:35.626Z</time></trkpt><trkpt lat="42.077745" lon="13.70733"><ele>1001.0</ele><time>2026-05-02T11:37:36.627Z</time></trkpt><trkpt lat="42.0776483" lon="13.707495"><ele>1001.0</ele><time>2026-05-02T11:37:37.627Z</time></trkpt><trkpt lat="42.0775633" lon="13.7076467"><ele>1001.0</ele><time>2026-05-02T11:37:38.627Z</time></trkpt><trkpt lat="42.077485" lon="13.70779"><ele>1001.0</ele><time>2026-05-02T11:37:39.627Z</time></trkpt><trkpt lat="42.0773983" lon="13.7079"><ele>1001.0</ele><time>2026-05-02T11:37:40.627Z</time></trkpt><trkpt lat="42.077305" lon="13.7079683"><ele>995.75</ele><time>2026-05-02T11:37:41.627Z</time></trkpt><trkpt lat="42.0771933" lon="13.7079967"><ele>990.5</ele><time>2026-05-02T11:37:42.626Z</time></trkpt><trkpt lat="42.0770683" lon="13.7079833"><ele>985.25</ele><time>2026-05-02T11:37:43.626Z</time></trkpt><trkpt lat="42.0769283" lon="13.707945"><ele>980.0</ele><time>2026-05-02T11:37:44.626Z</time></trkpt><trkpt lat="42.0767883" lon="13.7078867"><ele>980.0</ele><time>2026-05-02T11:37:45.627Z</time></trkpt><trkpt lat="42.0766317" lon="13.7078383"><ele>980.0</ele><time>2026-05-02T11:37:46.626Z</time></trkpt><trkpt lat="42.0764767" lon="13.707795"><ele>980.0</ele><time>2026-05-02T11:37:47.627Z</time></trkpt><trkpt lat="42.0763217" lon="13.7077517"><ele>989.6666666666667</ele><time>2026-05-02T11:37:48.626Z</time></trkpt><trkpt lat="42.0761717" lon="13.7077"><ele>999.3333333333333</ele><time>2026-05-02T11:37:49.626Z</time></trkpt><trkpt lat="42.07602" lon="13.7076467"><ele>1009.0</ele><time>2026-05-02T11:37:50.627Z</time></trkpt><trkpt lat="42.0758767" lon="13.7075967"><ele>1005.75</ele><time>2026-05-02T11:37:51.627Z</time></trkpt><trkpt lat="42.0757383" lon="13.7075583"><ele>1002.5</ele><time>2026-05-02T11:37:52.627Z</time></trkpt><trkpt lat="42.07561" lon="13.7075017"><ele>999.25</ele><time>2026-05-02T11:37:53.627Z</time></trkpt><trkpt lat="42.0754917" lon="13.707435"><ele>996.0</ele><time>2026-05-02T11:37:54.626Z</time></trkpt><trkpt lat="42.0753833" lon="13.7073567"><ele>996.0</ele><time>2026-05-02T11:37:55.627Z</time></trkpt><trkpt lat="42.0752783" lon="13.7072733"><ele>996.0</ele><time>2026-05-02T11:37:56.626Z</time></trkpt><trkpt lat="42.075175" lon="13.70718"><ele>996.0</ele><time>2026-05-02T11:37:57.626Z</time></trkpt><trkpt lat="42.0750667" lon="13.7070783"><ele>996.0</ele><time>2026-05-02T11:37:58.627Z</time></trkpt><trkpt lat="42.0749517" lon="13.7069817"><ele>998.3333333333333</ele><time>2026-05-02T11:37:59.627Z</time></trkpt><trkpt lat="42.074835" lon="13.706865"><ele>1000.6666666666666</ele><time>2026-05-02T11:38:00.627Z</time></trkpt><trkpt lat="42.0747133" lon="13.706735"><ele>1003.0</ele><time>2026-05-02T11:38:01.627Z</time></trkpt><trkpt lat="42.07459" lon="13.7065883"><ele>1003.0</ele><time>2026-05-02T11:38:02.627Z</time></trkpt><trkpt lat="42.0744683" lon="13.7064233"><ele>1003.0</ele><time>2026-05-02T11:38:03.626Z</time></trkpt><trkpt lat="42.0743467" lon="13.7062617"><ele>1003.0</ele><time>2026-05-02T11:38:04.627Z</time></trkpt><trkpt lat="42.0742233" lon="13.70609"><ele>1006.6666666666666</ele><time>2026-05-02T11:38:05.627Z</time></trkpt><trkpt lat="42.0741033" lon="13.7059167"><ele>1010.3333333333333</ele><time>2026-05-02T11:38:06.627Z</time></trkpt><trkpt lat="42.0739917" lon="13.7057483"><ele>1014.0</ele><time>2026-05-02T11:38:07.627Z</time></trkpt><trkpt lat="42.0738867" lon="13.7056083"><ele>1014.0</ele><time>2026-05-02T11:38:08.626Z</time></trkpt><trkpt lat="42.0737867" lon="13.7054717"><ele>1014.0</ele><time>2026-05-02T11:38:09.627Z</time></trkpt><trkpt lat="42.0736933" lon="13.705355"><ele>1014.0</ele><time>2026-05-02T11:38:10.627Z</time></trkpt><trkpt lat="42.07359" lon="13.705265"><ele>1014.0</ele><time>2026-05-02T11:38:11.627Z</time></trkpt><trkpt lat="42.0734817" lon="13.70522"><ele>1014.0</ele><time>2026-05-02T11:38:12.626Z</time></trkpt><trkpt lat="42.0733583" lon="13.7052083"><ele>1014.0</ele><time>2026-05-02T11:38:13.627Z</time></trkpt><trkpt lat="42.0732233" lon="13.7052217"><ele>1014.0</ele><time>2026-05-02T11:38:14.626Z</time></trkpt><trkpt lat="42.0730733" lon="13.7052417"><ele>1014.0</ele><time>2026-05-02T11:38:15.626Z</time></trkpt><trkpt lat="42.0729067" lon="13.70525"><ele>1014.0</ele><time>2026-05-02T11:38:16.626Z</time></trkpt><trkpt lat="42.07273" lon="13.7052733"><ele>1014.0</ele><time>2026-05-02T11:38:17.626Z</time></trkpt><trkpt lat="42.0725567" lon="13.7052867"><ele>1014.0</ele><time>2026-05-02T11:38:18.626Z</time></trkpt><trkpt lat="42.0723867" lon="13.705305"><ele>1017.6666666666667</ele><time>2026-05-02T11:38:19.626Z</time></trkpt><trkpt lat="42.072215" lon="13.705315"><ele>1021.3333333333334</ele><time>2026-05-02T11:38:20.626Z</time></trkpt><trkpt lat="42.0720433" lon="13.7053317"><ele>1025.0</ele><time>2026-05-02T11:38:21.626Z</time></trkpt><trkpt lat="42.071875" lon="13.70536"><ele>1025.0</ele><time>2026-05-02T11:38:22.627Z</time></trkpt><trkpt lat="42.0717267" lon="13.7054167"><ele>1025.0</ele><time>2026-05-02T11:38:23.626Z</time></trkpt><trkpt lat="42.0716" lon="13.7055067"><ele>1025.0</ele><time>2026-05-02T11:38:24.626Z</time></trkpt><trkpt lat="42.0714983" lon="13.7056267"><ele>1025.0</ele><time>2026-05-02T11:38:25.627Z</time></trkpt><trkpt lat="42.0714067" lon="13.705775"><ele>1024.5</ele><time>2026-05-02T11:38:26.626Z</time></trkpt><trkpt lat="42.0713267" lon="13.705925"><ele>1024.0</ele><time>2026-05-02T11:38:27.626Z</time></trkpt><trkpt lat="42.071235" lon="13.706055"><ele>1023.5</ele><time>2026-05-02T11:38:28.626Z</time></trkpt><trkpt lat="42.0711333" lon="13.7061633"><ele>1023.0</ele><time>2026-05-02T11:38:29.627Z</time></trkpt><trkpt lat="42.07101" lon="13.706245"><ele>1023.0</ele><time>2026-05-02T11:38:30.627Z</time></trkpt><trkpt lat="42.0708617" lon="13.7062967"><ele>1023.0</ele><time>2026-05-02T11:38:31.626Z</time></trkpt><trkpt lat="42.07071" lon="13.7063283"><ele>1023.0</ele><time>2026-05-02T11:38:32.626Z</time></trkpt><trkpt lat="42.070565" lon="13.7063417"><ele>1024.0</ele><time>2026-05-02T11:38:33.626Z</time></trkpt><trkpt lat="42.0704317" lon="13.7063383"><ele>1025.0</ele><time>2026-05-02T11:38:34.626Z</time></trkpt><trkpt lat="42.0703133" lon="13.7063167"><ele>1026.0</ele><time>2026-05-02T11:38:35.626Z</time></trkpt><trkpt lat="42.0702283" lon="13.7062717"><ele>1027.0</ele><time>2026-05-02T11:38:36.626Z</time></trkpt><trkpt lat="42.0701733" lon="13.7062033"><ele>1028.0</ele><time>2026-05-02T11:38:37.627Z</time></trkpt><trkpt lat="42.0701517" lon="13.7061217"><ele>1031.1666666666667</ele><time>2026-05-02T11:38:38.626Z</time></trkpt><trkpt lat="42.070165" lon="13.7060317"><ele>1034.3333333333335</ele><time>2026-05-02T11:38:39.627Z</time></trkpt><trkpt lat="42.0702" lon="13.70595"><ele>1037.5</ele><time>2026-05-02T11:38:40.627Z</time></trkpt><trkpt lat="42.0702667" lon="13.7058833"><ele>1040.6666666666667</ele><time>2026-05-02T11:38:41.626Z</time></trkpt><trkpt lat="42.0703617" lon="13.70585"><ele>1043.8333333333333</ele><time>2026-05-02T11:38:42.626Z</time></trkpt><trkpt lat="42.0704717" lon="13.70585"><ele>1047.0</ele><time>2026-05-02T11:38:43.626Z</time></trkpt><trkpt lat="42.0706" lon="13.7058717"><ele>1047.0</ele><time>2026-05-02T11:38:44.626Z</time></trkpt><trkpt lat="42.0707417" lon="13.705895"><ele>1047.0</ele><time>2026-05-02T11:38:45.627Z</time></trkpt><trkpt lat="42.0708833" lon="13.7058817"><ele>1047.0</ele><time>2026-05-02T11:38:46.627Z</time></trkpt><trkpt lat="42.0710133" lon="13.7058267"><ele>1047.0</ele><time>2026-05-02T11:38:47.627Z</time></trkpt><trkpt lat="42.0711317" lon="13.7057167"><ele>1045.0</ele><time>2026-05-02T11:38:48.626Z</time></trkpt><trkpt lat="42.0712233" lon="13.7055633"><ele>1043.0</ele><time>2026-05-02T11:38:49.626Z</time></trkpt><trkpt lat="42.0713167" lon="13.705395"><ele>1041.0</ele><time>2026-05-02T11:38:50.626Z</time></trkpt><trkpt lat="42.07143" lon="13.7052317"><ele>1042.6666666666667</ele><time>2026-05-02T11:38:51.626Z</time></trkpt><trkpt lat="42.0715683" lon="13.70509"><ele>1044.3333333333335</ele><time>2026-05-02T11:38:52.626Z</time></trkpt><trkpt lat="42.0717217" lon="13.7049517"><ele>1046.0</ele><time>2026-05-02T11:38:53.626Z</time></trkpt><trkpt lat="42.071875" lon="13.7048133"><ele>1046.0</ele><time>2026-05-02T11:38:54.627Z</time></trkpt><trkpt lat="42.0720267" lon="13.7046783"><ele>1046.0</ele><time>2026-05-02T11:38:55.627Z</time></trkpt><trkpt lat="42.0721583" lon="13.7045533"><ele>1046.0</ele><time>2026-05-02T11:38:56.626Z</time></trkpt><trkpt lat="42.07228" lon="13.7044183"><ele>1048.0</ele><time>2026-05-02T11:38:57.627Z</time></trkpt><trkpt lat="42.0723883" lon="13.7042583"><ele>1050.0</ele><time>2026-05-02T11:38:58.626Z</time></trkpt><trkpt lat="42.0724817" lon="13.704085"><ele>1052.0</ele><time>2026-05-02T11:38:59.627Z</time></trkpt><trkpt lat="42.0725567" lon="13.70393"><ele>1052.0</ele><time>2026-05-02T11:39:00.626Z</time></trkpt><trkpt lat="42.0726333" lon="13.7037917"><ele>1052.0</ele><time>2026-05-02T11:39:01.626Z</time></trkpt><trkpt lat="42.07269" lon="13.7036683"><ele>1052.0</ele><time>2026-05-02T11:39:02.625Z</time></trkpt><trkpt lat="42.0727217" lon="13.7035583"><ele>1052.0</ele><time>2026-05-02T11:39:03.626Z</time></trkpt><trkpt lat="42.0727117" lon="13.70347"><ele>1052.0</ele><time>2026-05-02T11:39:04.626Z</time></trkpt><trkpt lat="42.0726733" lon="13.703395"><ele>1054.4</ele><time>2026-05-02T11:39:05.625Z</time></trkpt><trkpt lat="42.072605" lon="13.7033483"><ele>1056.8000000000002</ele><time>2026-05-02T11:39:06.626Z</time></trkpt><trkpt lat="42.072515" lon="13.7033617"><ele>1059.2</ele><time>2026-05-02T11:39:07.625Z</time></trkpt><trkpt lat="42.07242" lon="13.7034383"><ele>1061.6000000000001</ele><time>2026-05-02T11:39:08.625Z</time></trkpt><trkpt lat="42.0723233" lon="13.7035567"><ele>1064.0</ele><time>2026-05-02T11:39:09.625Z</time></trkpt><trkpt lat="42.0722217" lon="13.7037033"><ele>1064.0</ele><time>2026-05-02T11:39:10.626Z</time></trkpt><trkpt lat="42.0721117" lon="13.70385"><ele>1064.0</ele><time>2026-05-02T11:39:11.626Z</time></trkpt><trkpt lat="42.0719933" lon="13.7039933"><ele>1064.0</ele><time>2026-05-02T11:39:12.626Z</time></trkpt><trkpt lat="42.0718767" lon="13.7041283"><ele>1064.0</ele><time>2026-05-02T11:39:13.626Z</time></trkpt><trkpt lat="42.0717617" lon="13.7042433"><ele>1064.0</ele><time>2026-05-02T11:39:14.625Z</time></trkpt><trkpt lat="42.07164" lon="13.7043333"><ele>1064.0</ele><time>2026-05-02T11:39:15.625Z</time></trkpt><trkpt lat="42.0714983" lon="13.7043867"><ele>1064.0</ele><time>2026-05-02T11:39:16.626Z</time></trkpt><trkpt lat="42.0713467" lon="13.704405"><ele>1067.3333333333335</ele><time>2026-05-02T11:39:17.625Z</time></trkpt><trkpt lat="42.071185" lon="13.7043917"><ele>1070.6666666666667</ele><time>2026-05-02T11:39:18.626Z</time></trkpt><trkpt lat="42.071005" lon="13.704375"><ele>1074.0</ele><time>2026-05-02T11:39:19.625Z</time></trkpt><trkpt lat="42.0708217" lon="13.7043617"><ele>1082.3333333333333</ele><time>2026-05-02T11:39:20.626Z</time></trkpt><trkpt lat="42.0706283" lon="13.704345"><ele>1090.6666666666665</ele><time>2026-05-02T11:39:21.626Z</time></trkpt><trkpt lat="42.0704517" lon="13.7043517"><ele>1099.0</ele><time>2026-05-02T11:39:22.626Z</time></trkpt><trkpt lat="42.0702917" lon="13.7043983"><ele>1100.3333333333333</ele><time>2026-05-02T11:39:23.625Z</time></trkpt><trkpt lat="42.070145" lon="13.7044933"><ele>1101.6666666666667</ele><time>2026-05-02T11:39:24.625Z</time></trkpt><trkpt lat="42.070015" lon="13.7046183"><ele>1103.0</ele><time>2026-05-02T11:39:25.626Z</time></trkpt><trkpt lat="42.0698933" lon="13.7047667"><ele>1103.0</ele><time>2026-05-02T11:39:26.625Z</time></trkpt><trkpt lat="42.0697683" lon="13.70492"><ele>1103.0</ele><time>2026-05-02T11:39:27.625Z</time></trkpt><trkpt lat="42.0696483" lon="13.7050783"><ele>1103.0</ele><time>2026-05-02T11:39:28.625Z</time></trkpt><trkpt lat="42.0695267" lon="13.70523"><ele>1092.3333333333335</ele><time>2026-05-02T11:39:29.626Z</time></trkpt><trkpt lat="42.0693883" lon="13.70536"><ele>1081.6666666666667</ele><time>2026-05-02T11:39:30.626Z</time></trkpt><trkpt lat="42.069255" lon="13.70547"><ele>1071.0</ele><time>2026-05-02T11:39:31.626Z</time></trkpt><trkpt lat="42.0691167" lon="13.7055683"><ele>1077.0</ele><time>2026-05-02T11:39:32.625Z</time></trkpt><trkpt lat="42.06897" lon="13.7056533"><ele>1083.0</ele><time>2026-05-02T11:39:33.625Z</time></trkpt><trkpt lat="42.0688117" lon="13.7057317"><ele>1089.0</ele><time>2026-05-02T11:39:34.626Z</time></trkpt><trkpt lat="42.068645" lon="13.7058"><ele>1089.0</ele><time>2026-05-02T11:39:35.625Z</time></trkpt><trkpt lat="42.0684717" lon="13.7058583"><ele>1089.0</ele><time>2026-05-02T11:39:36.625Z</time></trkpt><trkpt lat="42.0683067" lon="13.7059067"><ele>1089.0</ele><time>2026-05-02T11:39:37.625Z</time></trkpt><trkpt lat="42.0681433" lon="13.705945"><ele>1092.5</ele><time>2026-05-02T11:39:38.626Z</time></trkpt><trkpt lat="42.0679867" lon="13.705985"><ele>1096.0</ele><time>2026-05-02T11:39:39.625Z</time></trkpt><trkpt lat="42.067845" lon="13.7060083"><ele>1099.5</ele><time>2026-05-02T11:39:40.625Z</time></trkpt><trkpt lat="42.0677" lon="13.7060267"><ele>1103.0</ele><time>2026-05-02T11:39:41.626Z</time></trkpt><trkpt lat="42.0675483" lon="13.706055"><ele>1105.0</ele><time>2026-05-02T11:39:42.625Z</time></trkpt><trkpt lat="42.0673933" lon="13.70607"><ele>1107.0</ele><time>2026-05-02T11:39:43.626Z</time></trkpt><trkpt lat="42.0672317" lon="13.7060817"><ele>1109.0</ele><time>2026-05-02T11:39:44.625Z</time></trkpt><trkpt lat="42.06707" lon="13.7060883"><ele>1100.3333333333335</ele><time>2026-05-02T11:39:45.626Z</time></trkpt><trkpt lat="42.0669083" lon="13.7060933"><ele>1091.6666666666667</ele><time>2026-05-02T11:39:46.626Z</time></trkpt><trkpt lat="42.0667483" lon="13.7060933"><ele>1083.0</ele><time>2026-05-02T11:39:47.626Z</time></trkpt><trkpt lat="42.06658" lon="13.706095"><ele>1083.0</ele><time>2026-05-02T11:39:48.625Z</time></trkpt><trkpt lat="42.0664133" lon="13.7061167"><ele>1083.0</ele><time>2026-05-02T11:39:49.625Z</time></trkpt><trkpt lat="42.0662567" lon="13.7061483"><ele>1083.0</ele><time>2026-05-02T11:39:50.625Z</time></trkpt><trkpt lat="42.0661117" lon="13.7061967"><ele>1083.0</ele><time>2026-05-02T11:39:51.626Z</time></trkpt><trkpt lat="42.0659717" lon="13.706245"><ele>1083.0</ele><time>2026-05-02T11:39:52.625Z</time></trkpt><trkpt lat="42.06583" lon="13.7062783"><ele>1083.0</ele><time>2026-05-02T11:39:53.625Z</time></trkpt><trkpt lat="42.0656883" lon="13.7062883"><ele>1083.0</ele><time>2026-05-02T11:39:54.626Z</time></trkpt><trkpt lat="42.06553" lon="13.7062717"><ele>1086.6666666666667</ele><time>2026-05-02T11:39:55.626Z</time></trkpt><trkpt lat="42.0653683" lon="13.7062417"><ele>1090.3333333333335</ele><time>2026-05-02T11:39:56.626Z</time></trkpt><trkpt lat="42.0652033" lon="13.7062117"><ele>1094.0</ele><time>2026-05-02T11:39:57.625Z</time></trkpt><trkpt lat="42.06505" lon="13.70619"><ele>1099.5</ele><time>2026-05-02T11:39:58.626Z</time></trkpt><trkpt lat="42.0648983" lon="13.70617"><ele>1105.0</ele><time>2026-05-02T11:39:59.626Z</time></trkpt><trkpt lat="42.06475" lon="13.706155"><ele>1110.5</ele><time>2026-05-02T11:40:00.626Z</time></trkpt><trkpt lat="42.06461" lon="13.7061383"><ele>1116.0</ele><time>2026-05-02T11:40:01.626Z</time></trkpt><trkpt lat="42.0644767" lon="13.70613"><ele>1116.0</ele><time>2026-05-02T11:40:02.626Z</time></trkpt><trkpt lat="42.064355" lon="13.7061283"><ele>1116.0</ele><time>2026-05-02T11:40:03.626Z</time></trkpt><trkpt lat="42.064235" lon="13.7061117"><ele>1116.0</ele><time>2026-05-02T11:40:04.625Z</time></trkpt><trkpt lat="42.06413" lon="13.70608"><ele>1116.0</ele><time>2026-05-02T11:40:05.625Z</time></trkpt><trkpt lat="42.0640483" lon="13.70603"><ele>1116.0</ele><time>2026-05-02T11:40:06.626Z</time></trkpt><trkpt lat="42.0639833" lon="13.7059633"><ele>1115.2</ele><time>2026-05-02T11:40:07.626Z</time></trkpt><trkpt lat="42.0639317" lon="13.7058833"><ele>1114.3999999999999</ele><time>2026-05-02T11:40:08.625Z</time></trkpt><trkpt lat="42.0638933" lon="13.70581"><ele>1113.6</ele><time>2026-05-02T11:40:09.625Z</time></trkpt><trkpt lat="42.0638183" lon="13.7057033"><ele>1112.8</ele><time>2026-05-02T11:40:11.626Z</time></trkpt><trkpt lat="42.06373" lon="13.705605"><ele>1112.0</ele><time>2026-05-02T11:40:13.625Z</time></trkpt><trkpt lat="42.0636817" lon="13.7055033"><ele>1112.0</ele><time>2026-05-02T11:40:15.625Z</time></trkpt><trkpt lat="42.0636467" lon="13.7054317"><ele>1112.0</ele><time>2026-05-02T11:40:18.626Z</time></trkpt><trkpt lat="42.0636567" lon="13.7055483"><ele>1112.0</ele><time>2026-05-02T11:40:30.625Z</time></trkpt><trkpt lat="42.0637183" lon="13.70561"><ele>1112.0</ele><time>2026-05-02T11:40:31.625Z</time></trkpt><trkpt lat="42.0637667" lon="13.7056683"><ele>1112.0</ele><time>2026-05-02T11:40:32.626Z</time></trkpt><trkpt lat="42.0638267" lon="13.7057633"><ele>1112.0</ele><time>2026-05-02T11:40:34.625Z</time></trkpt><trkpt lat="42.0637533" lon="13.705795"><ele>1112.0</ele><time>2026-05-02T11:41:16.626Z</time></trkpt><trkpt lat="42.0636883" lon="13.7057667"><ele>1112.0</ele><time>2026-05-02T11:41:18.625Z</time></trkpt><trkpt lat="42.0636067" lon="13.7057"><ele>1112.0</ele><time>2026-05-02T11:41:20.626Z</time></trkpt><trkpt lat="42.06352" lon="13.70559"><ele>1112.0</ele><time>2026-05-02T11:41:22.625Z</time></trkpt><trkpt lat="42.0634717" lon="13.7055317"><ele>1112.0</ele><time>2026-05-02T11:41:23.625Z</time></trkpt><trkpt lat="42.0634117" lon="13.7054667"><ele>1112.0</ele><time>2026-05-02T11:41:24.625Z</time></trkpt><trkpt lat="42.0633433" lon="13.7054"><ele>1111.0</ele><time>2026-05-02T11:41:25.626Z</time></trkpt><trkpt lat="42.06328" lon="13.70534"><ele>1110.0</ele><time>2026-05-02T11:41:26.625Z</time></trkpt><trkpt lat="42.063215" lon="13.7052767"><ele>1109.0</ele><time>2026-05-02T11:41:27.626Z</time></trkpt><trkpt lat="42.0631483" lon="13.7052183"><ele>1108.0</ele><time>2026-05-02T11:41:28.625Z</time></trkpt><trkpt lat="42.0630817" lon="13.7051717"><ele>1107.0</ele><time>2026-05-02T11:41:29.625Z</time></trkpt><trkpt lat="42.0630117" lon="13.7051317"><ele>1106.0</ele><time>2026-05-02T11:41:30.626Z</time></trkpt><trkpt lat="42.0629433" lon="13.7050917"><ele>1102.3333333333335</ele><time>2026-05-02T11:41:31.626Z</time></trkpt><trkpt lat="42.0628783" lon="13.7050367"><ele>1098.6666666666667</ele><time>2026-05-02T11:41:32.625Z</time></trkpt><trkpt lat="42.06281" lon="13.7049983"><ele>1095.0</ele><time>2026-05-02T11:41:33.626Z</time></trkpt><trkpt lat="42.0627417" lon="13.7049767"><ele>1091.3333333333333</ele><time>2026-05-02T11:41:34.626Z</time></trkpt><trkpt lat="42.0626617" lon="13.7049633"><ele>1087.6666666666665</ele><time>2026-05-02T11:41:35.625Z</time></trkpt><trkpt lat="42.0625667" lon="13.7049517"><ele>1084.0</ele><time>2026-05-02T11:41:36.626Z</time></trkpt><trkpt lat="42.0624667" lon="13.7049367"><ele>1082.3333333333333</ele><time>2026-05-02T11:41:37.625Z</time></trkpt><trkpt lat="42.062365" lon="13.7049267"><ele>1080.6666666666665</ele><time>2026-05-02T11:41:38.625Z</time></trkpt><trkpt lat="42.06227" lon="13.7049283"><ele>1079.0</ele><time>2026-05-02T11:41:39.626Z</time></trkpt><trkpt lat="42.0621833" lon="13.7049217"><ele>1077.3333333333333</ele><time>2026-05-02T11:41:40.625Z</time></trkpt><trkpt lat="42.0621033" lon="13.704915"><ele>1075.6666666666667</ele><time>2026-05-02T11:41:41.626Z</time></trkpt><trkpt lat="42.06202" lon="13.7049033"><ele>1074.0</ele><time>2026-05-02T11:41:42.625Z</time></trkpt><trkpt lat="42.0619333" lon="13.70489"><ele>1073.9999999999998</ele><time>2026-05-02T11:41:43.625Z</time></trkpt><trkpt lat="42.0618583" lon="13.7048733"><ele>1074.0</ele><time>2026-05-02T11:41:44.625Z</time></trkpt><trkpt lat="42.0617983" lon="13.7048467"><ele>1074.0</ele><time>2026-05-02T11:41:45.626Z</time></trkpt><trkpt lat="42.0617417" lon="13.7048017"><ele>1074.0</ele><time>2026-05-02T11:41:46.626Z</time></trkpt><trkpt lat="42.0616867" lon="13.7047367"><ele>1074.0</ele><time>2026-05-02T11:41:47.626Z</time></trkpt><trkpt lat="42.0616317" lon="13.7046667"><ele>1073.9999999999998</ele><time>2026-05-02T11:41:48.626Z</time></trkpt><trkpt lat="42.0615733" lon="13.7045917"><ele>1074.0</ele><time>2026-05-02T11:41:49.626Z</time></trkpt><trkpt lat="42.06151" lon="13.704505"><ele>1074.0</ele><time>2026-05-02T11:41:50.625Z</time></trkpt><trkpt lat="42.0614517" lon="13.7044133"><ele>1074.0</ele><time>2026-05-02T11:41:51.625Z</time></trkpt><trkpt lat="42.06139" lon="13.7043117"><ele>1074.0</ele><time>2026-05-02T11:41:52.625Z</time></trkpt><trkpt lat="42.061335" lon="13.7042033"><ele>1074.0</ele><time>2026-05-02T11:41:53.625Z</time></trkpt><trkpt lat="42.06128" lon="13.7040983"><ele>1074.0</ele><time>2026-05-02T11:41:54.625Z</time></trkpt><trkpt lat="42.06122" lon="13.7039933"><ele>1072.8</ele><time>2026-05-02T11:41:55.625Z</time></trkpt><trkpt lat="42.0611517" lon="13.7038883"><ele>1071.6000000000001</ele><time>2026-05-02T11:41:56.626Z</time></trkpt><trkpt lat="42.0610883" lon="13.703785"><ele>1070.4</ele><time>2026-05-02T11:41:57.626Z</time></trkpt><trkpt lat="42.0610267" lon="13.7036817"><ele>1069.2</ele><time>2026-05-02T11:41:58.625Z</time></trkpt><trkpt lat="42.0609667" lon="13.7035717"><ele>1068.0</ele><time>2026-05-02T11:41:59.625Z</time></trkpt><trkpt lat="42.0609017" lon="13.7034667"><ele>1068.6</ele><time>2026-05-02T11:42:00.625Z</time></trkpt><trkpt lat="42.0608383" lon="13.70336"><ele>1069.1999999999998</ele><time>2026-05-02T11:42:01.626Z</time></trkpt><trkpt lat="42.0607817" lon="13.7032517"><ele>1069.8</ele><time>2026-05-02T11:42:02.625Z</time></trkpt><trkpt lat="42.0607183" lon="13.7031383"><ele>1070.3999999999999</ele><time>2026-05-02T11:42:03.626Z</time></trkpt><trkpt lat="42.0606567" lon="13.7030283"><ele>1071.0</ele><time>2026-05-02T11:42:04.625Z</time></trkpt><trkpt lat="42.0606033" lon="13.70292"><ele>1071.0</ele><time>2026-05-02T11:42:05.625Z</time></trkpt><trkpt lat="42.0605467" lon="13.702805"><ele>1071.0</ele><time>2026-05-02T11:42:06.626Z</time></trkpt><trkpt lat="42.060495" lon="13.7027"><ele>1071.0</ele><time>2026-05-02T11:42:07.626Z</time></trkpt><trkpt lat="42.0604367" lon="13.702585"><ele>1071.0</ele><time>2026-05-02T11:42:08.625Z</time></trkpt><trkpt lat="42.06038" lon="13.7024817"><ele>1071.0</ele><time>2026-05-02T11:42:09.625Z</time></trkpt><trkpt lat="42.060315" lon="13.7023717"><ele>1069.8</ele><time>2026-05-02T11:42:10.626Z</time></trkpt><trkpt lat="42.06025" lon="13.7022567"><ele>1068.6</ele><time>2026-05-02T11:42:11.625Z</time></trkpt><trkpt lat="42.0601867" lon="13.70215"><ele>1067.4</ele><time>2026-05-02T11:42:12.626Z</time></trkpt><trkpt lat="42.0601133" lon="13.7020467"><ele>1066.2</ele><time>2026-05-02T11:42:13.626Z</time></trkpt><trkpt lat="42.0600483" lon="13.7019417"><ele>1065.0</ele><time>2026-05-02T11:42:14.625Z</time></trkpt><trkpt lat="42.059985" lon="13.7018317"><ele>1067.2</ele><time>2026-05-02T11:42:15.626Z</time></trkpt><trkpt lat="42.059925" lon="13.7017183"><ele>1069.4</ele><time>2026-05-02T11:42:16.626Z</time></trkpt><trkpt lat="42.0598633" lon="13.7016117"><ele>1071.6</ele><time>2026-05-02T11:42:17.626Z</time></trkpt><trkpt lat="42.05981" lon="13.70151"><ele>1073.8</ele><time>2026-05-02T11:42:18.626Z</time></trkpt><trkpt lat="42.0597467" lon="13.7014067"><ele>1076.0</ele><time>2026-05-02T11:42:19.626Z</time></trkpt><trkpt lat="42.0596867" lon="13.701305"><ele>1076.0</ele><time>2026-05-02T11:42:20.626Z</time></trkpt><trkpt lat="42.0596317" lon="13.7012033"><ele>1076.0</ele><time>2026-05-02T11:42:21.625Z</time></trkpt><trkpt lat="42.0595767" lon="13.7011067"><ele>1076.0</ele><time>2026-05-02T11:42:22.626Z</time></trkpt><trkpt lat="42.0595183" lon="13.70101"><ele>1076.0</ele><time>2026-05-02T11:42:23.626Z</time></trkpt><trkpt lat="42.0594667" lon="13.7009233"><ele>1076.0</ele><time>2026-05-02T11:42:24.625Z</time></trkpt><trkpt lat="42.0594133" lon="13.7008433"><ele>1076.0</ele><time>2026-05-02T11:42:25.626Z</time></trkpt><trkpt lat="42.0593567" lon="13.70077"><ele>1073.5</ele><time>2026-05-02T11:42:26.625Z</time></trkpt><trkpt lat="42.0592983" lon="13.700705"><ele>1071.0</ele><time>2026-05-02T11:42:27.626Z</time></trkpt><trkpt lat="42.05923" lon="13.7006517"><ele>1068.5</ele><time>2026-05-02T11:42:28.626Z</time></trkpt><trkpt lat="42.0591583" lon="13.7006083"><ele>1066.0</ele><time>2026-05-02T11:42:29.626Z</time></trkpt><trkpt lat="42.059085" lon="13.7005583"><ele>1063.5</ele><time>2026-05-02T11:42:30.626Z</time></trkpt><trkpt lat="42.0590033" lon="13.700515"><ele>1061.0</ele><time>2026-05-02T11:42:31.626Z</time></trkpt><trkpt lat="42.05893" lon="13.7004767"><ele>1060.2</ele><time>2026-05-02T11:42:32.626Z</time></trkpt><trkpt lat="42.0588533" lon="13.7004517"><ele>1059.3999999999999</ele><time>2026-05-02T11:42:33.626Z</time></trkpt><trkpt lat="42.0587783" lon="13.7004283"><ele>1058.6</ele><time>2026-05-02T11:42:34.625Z</time></trkpt><trkpt lat="42.0586717" lon="13.7004133"><ele>1057.8</ele><time>2026-05-02T11:42:36.625Z</time></trkpt><trkpt lat="42.0585733" lon="13.7004017"><ele>1057.0</ele><time>2026-05-02T11:42:38.626Z</time></trkpt><trkpt lat="42.0584817" lon="13.7003917"><ele>1057.0</ele><time>2026-05-02T11:42:40.625Z</time></trkpt><trkpt lat="42.0584033" lon="13.7003867"><ele>1057.0</ele><time>2026-05-02T11:42:42.626Z</time></trkpt><trkpt lat="42.0583167" lon="13.700375"><ele>1057.0</ele><time>2026-05-02T11:42:53.626Z</time></trkpt><trkpt lat="42.058215" lon="13.7003683"><ele>1057.0</ele><time>2026-05-02T11:42:55.625Z</time></trkpt><trkpt lat="42.0581" lon="13.700355"><ele>1057.0</ele><time>2026-05-02T11:42:57.626Z</time></trkpt><trkpt lat="42.05803" lon="13.70035"><ele>1056.1666666666665</ele><time>2026-05-02T11:42:58.626Z</time></trkpt><trkpt lat="42.0579617" lon="13.700345"><ele>1055.3333333333333</ele><time>2026-05-02T11:42:59.625Z</time></trkpt><trkpt lat="42.0578967" lon="13.70033"><ele>1054.5</ele><time>2026-05-02T11:43:00.626Z</time></trkpt><trkpt lat="42.0578283" lon="13.7003183"><ele>1053.6666666666667</ele><time>2026-05-02T11:43:01.625Z</time></trkpt><trkpt lat="42.0577067" lon="13.7003"><ele>1052.8333333333335</ele><time>2026-05-02T11:43:03.626Z</time></trkpt><trkpt lat="42.0576433" lon="13.7002933"><ele>1052.0</ele><time>2026-05-02T11:43:04.626Z</time></trkpt><trkpt lat="42.0575783" lon="13.7002933"><ele>1052.0</ele><time>2026-05-02T11:43:05.626Z</time></trkpt><trkpt lat="42.0574533" lon="13.7002883"><ele>1052.0</ele><time>2026-05-02T11:43:07.625Z</time></trkpt><trkpt lat="42.0573233" lon="13.7002683"><ele>1052.0</ele><time>2026-05-02T11:43:09.625Z</time></trkpt><trkpt lat="42.0572517" lon="13.7002617"><ele>1052.0</ele><time>2026-05-02T11:43:10.625Z</time></trkpt><trkpt lat="42.0571817" lon="13.7002467"><ele>1052.0</ele><time>2026-05-02T11:43:11.626Z</time></trkpt><trkpt lat="42.057105" lon="13.7002383"><ele>1051.8333333333335</ele><time>2026-05-02T11:43:12.625Z</time></trkpt><trkpt lat="42.05703" lon="13.700225"><ele>1051.6666666666667</ele><time>2026-05-02T11:43:13.626Z</time></trkpt><trkpt lat="42.0569517" lon="13.7002133"><ele>1051.5</ele><time>2026-05-02T11:43:14.625Z</time></trkpt><trkpt lat="42.056875" lon="13.7002017"><ele>1051.3333333333333</ele><time>2026-05-02T11:43:15.626Z</time></trkpt><trkpt lat="42.05679" lon="13.70019"><ele>1051.1666666666665</ele><time>2026-05-02T11:43:16.626Z</time></trkpt><trkpt lat="42.056705" lon="13.7001767"><ele>1051.0</ele><time>2026-05-02T11:43:17.625Z</time></trkpt><trkpt lat="42.05662" lon="13.7001683"><ele>1051.1666666666665</ele><time>2026-05-02T11:43:18.626Z</time></trkpt><trkpt lat="42.056535" lon="13.7001567"><ele>1051.3333333333333</ele><time>2026-05-02T11:43:19.625Z</time></trkpt><trkpt lat="42.05645" lon="13.7001433"><ele>1051.5</ele><time>2026-05-02T11:43:20.625Z</time></trkpt><trkpt lat="42.05636" lon="13.70013"><ele>1051.6666666666667</ele><time>2026-05-02T11:43:21.626Z</time></trkpt><trkpt lat="42.0562767" lon="13.7001167"><ele>1051.8333333333335</ele><time>2026-05-02T11:43:22.625Z</time></trkpt><trkpt lat="42.0561883" lon="13.700105"><ele>1052.0</ele><time>2026-05-02T11:43:23.626Z</time></trkpt><trkpt lat="42.0561083" lon="13.7000867"><ele>1052.0</ele><time>2026-05-02T11:43:24.626Z</time></trkpt><trkpt lat="42.056025" lon="13.7000717"><ele>1052.0</ele><time>2026-05-02T11:43:25.625Z</time></trkpt><trkpt lat="42.055945" lon="13.7000567"><ele>1052.0</ele><time>2026-05-02T11:43:26.626Z</time></trkpt><trkpt lat="42.0558717" lon="13.7000417"><ele>1052.0</ele><time>2026-05-02T11:43:27.626Z</time></trkpt><trkpt lat="42.0557917" lon="13.7000233"><ele>1052.0</ele><time>2026-05-02T11:43:28.626Z</time></trkpt><trkpt lat="42.0557083" lon="13.700005"><ele>1052.0</ele><time>2026-05-02T11:43:29.626Z</time></trkpt><trkpt lat="42.0556217" lon="13.699985"><ele>1051.6666666666667</ele><time>2026-05-02T11:43:30.626Z</time></trkpt><trkpt lat="42.0555383" lon="13.699975"><ele>1051.3333333333335</ele><time>2026-05-02T11:43:31.625Z</time></trkpt><trkpt lat="42.0554567" lon="13.6999683"><ele>1051.0</ele><time>2026-05-02T11:43:32.625Z</time></trkpt><trkpt lat="42.0553783" lon="13.6999517"><ele>1050.6666666666667</ele><time>2026-05-02T11:43:33.626Z</time></trkpt><trkpt lat="42.0553017" lon="13.6999367"><ele>1050.3333333333333</ele><time>2026-05-02T11:43:34.626Z</time></trkpt><trkpt lat="42.055225" lon="13.69992"><ele>1050.0</ele><time>2026-05-02T11:43:35.626Z</time></trkpt><trkpt lat="42.0551517" lon="13.699895"><ele>1050.0</ele><time>2026-05-02T11:43:36.626Z</time></trkpt><trkpt lat="42.0550767" lon="13.6998617"><ele>1050.0</ele><time>2026-05-02T11:43:37.626Z</time></trkpt><trkpt lat="42.05501" lon="13.6998317"><ele>1050.0</ele><time>2026-05-02T11:43:38.626Z</time></trkpt><trkpt lat="42.0549433" lon="13.6998017"><ele>1050.0</ele><time>2026-05-02T11:43:39.626Z</time></trkpt><trkpt lat="42.05488" lon="13.6997667"><ele>1050.0</ele><time>2026-05-02T11:43:40.625Z</time></trkpt><trkpt lat="42.05482" lon="13.699735"><ele>1050.0</ele><time>2026-05-02T11:43:41.625Z</time></trkpt><trkpt lat="42.0547567" lon="13.699705"><ele>1050.0</ele><time>2026-05-02T11:43:42.626Z</time></trkpt><trkpt lat="42.0546933" lon="13.69968"><ele>1049.6</ele><time>2026-05-02T11:43:43.625Z</time></trkpt><trkpt lat="42.054595" lon="13.699625"><ele>1049.2</ele><time>2026-05-02T11:43:45.626Z</time></trkpt><trkpt lat="42.0545317" lon="13.6995767"><ele>1048.8</ele><time>2026-05-02T11:43:47.626Z</time></trkpt><trkpt lat="42.0543983" lon="13.69954"><ele>1048.4</ele><time>2026-05-02T11:44:09.625Z</time></trkpt><trkpt lat="42.0543067" lon="13.6995167"><ele>1048.0</ele><time>2026-05-02T11:44:12.625Z</time></trkpt><trkpt lat="42.0542183" lon="13.6994817"><ele>1048.8</ele><time>2026-05-02T11:44:14.625Z</time></trkpt><trkpt lat="42.0541183" lon="13.6994367"><ele>1049.6</ele><time>2026-05-02T11:44:16.625Z</time></trkpt><trkpt lat="42.05403" lon="13.6993867"><ele>1050.4</ele><time>2026-05-02T11:44:18.625Z</time></trkpt><trkpt lat="42.0539283" lon="13.6993233"><ele>1051.2</ele><time>2026-05-02T11:44:20.625Z</time></trkpt><trkpt lat="42.0538117" lon="13.6992667"><ele>1052.0</ele><time>2026-05-02T11:44:22.624Z</time></trkpt><trkpt lat="42.0536917" lon="13.69923"><ele>1052.0</ele><time>2026-05-02T11:44:24.624Z</time></trkpt><trkpt lat="42.0536233" lon="13.6992"><ele>1052.0</ele><time>2026-05-02T11:44:25.625Z</time></trkpt><trkpt lat="42.05356" lon="13.6991667"><ele>1052.0</ele><time>2026-05-02T11:44:26.624Z</time></trkpt><trkpt lat="42.05349" lon="13.6991333"><ele>1052.0</ele><time>2026-05-02T11:44:27.625Z</time></trkpt><trkpt lat="42.0534217" lon="13.6991"><ele>1052.0</ele><time>2026-05-02T11:44:28.625Z</time></trkpt><trkpt lat="42.053355" lon="13.6990683"><ele>1052.0</ele><time>2026-05-02T11:44:29.625Z</time></trkpt><trkpt lat="42.05329" lon="13.699035"><ele>1052.0</ele><time>2026-05-02T11:44:30.625Z</time></trkpt><trkpt lat="42.0532267" lon="13.69899"><ele>1052.2857142857142</ele><time>2026-05-02T11:44:31.624Z</time></trkpt><trkpt lat="42.0531617" lon="13.6989433"><ele>1052.5714285714284</ele><time>2026-05-02T11:44:32.625Z</time></trkpt><trkpt lat="42.053105" lon="13.6988933"><ele>1052.857142857143</ele><time>2026-05-02T11:44:33.625Z</time></trkpt><trkpt lat="42.0530467" lon="13.6988383"><ele>1053.142857142857</ele><time>2026-05-02T11:44:34.625Z</time></trkpt><trkpt lat="42.0529833" lon="13.69878"><ele>1053.4285714285716</ele><time>2026-05-02T11:44:35.624Z</time></trkpt><trkpt lat="42.05292" lon="13.6987167"><ele>1053.7142857142858</ele><time>2026-05-02T11:44:36.625Z</time></trkpt><trkpt lat="42.05286" lon="13.698655"><ele>1054.0</ele><time>2026-05-02T11:44:37.625Z</time></trkpt><trkpt lat="42.0528033" lon="13.6985867"><ele>1054.3333333333333</ele><time>2026-05-02T11:44:38.624Z</time></trkpt><trkpt lat="42.0527433" lon="13.6985217"><ele>1054.6666666666665</ele><time>2026-05-02T11:44:39.625Z</time></trkpt><trkpt lat="42.052685" lon="13.698455"><ele>1055.0</ele><time>2026-05-02T11:44:40.625Z</time></trkpt><trkpt lat="42.0526283" lon="13.698395"><ele>1055.3333333333333</ele><time>2026-05-02T11:44:41.624Z</time></trkpt><trkpt lat="42.0525667" lon="13.6983317"><ele>1055.6666666666667</ele><time>2026-05-02T11:44:42.625Z</time></trkpt><trkpt lat="42.0524983" lon="13.6982617"><ele>1056.0</ele><time>2026-05-02T11:44:43.625Z</time></trkpt><trkpt lat="42.052435" lon="13.6981967"><ele>1058.1666666666667</ele><time>2026-05-02T11:44:44.624Z</time></trkpt><trkpt lat="42.0523717" lon="13.6981317"><ele>1060.3333333333333</ele><time>2026-05-02T11:44:45.625Z</time></trkpt><trkpt lat="42.052305" lon="13.6980667"><ele>1062.5</ele><time>2026-05-02T11:44:46.625Z</time></trkpt><trkpt lat="42.0522467" lon="13.698005"><ele>1064.6666666666665</ele><time>2026-05-02T11:44:47.625Z</time></trkpt><trkpt lat="42.0521867" lon="13.6979317"><ele>1066.8333333333333</ele><time>2026-05-02T11:44:48.624Z</time></trkpt><trkpt lat="42.0521367" lon="13.6978667"><ele>1069.0</ele><time>2026-05-02T11:44:49.624Z</time></trkpt><trkpt lat="42.0520883" lon="13.697795"><ele>1066.8333333333333</ele><time>2026-05-02T11:44:50.624Z</time></trkpt><trkpt lat="42.0520367" lon="13.697725"><ele>1064.6666666666665</ele><time>2026-05-02T11:44:51.625Z</time></trkpt><trkpt lat="42.05199" lon="13.6976483"><ele>1062.5</ele><time>2026-05-02T11:44:52.624Z</time></trkpt><trkpt lat="42.051935" lon="13.69757"><ele>1060.3333333333333</ele><time>2026-05-02T11:44:53.624Z</time></trkpt><trkpt lat="42.0518667" lon="13.6974983"><ele>1058.1666666666667</ele><time>2026-05-02T11:44:54.624Z</time></trkpt><trkpt lat="42.051805" lon="13.69743"><ele>1056.0</ele><time>2026-05-02T11:44:55.625Z</time></trkpt><trkpt lat="42.0517367" lon="13.6973667"><ele>1056.0</ele><time>2026-05-02T11:44:56.625Z</time></trkpt><trkpt lat="42.0516717" lon="13.6973117"><ele>1056.0</ele><time>2026-05-02T11:44:57.625Z</time></trkpt><trkpt lat="42.051615" lon="13.6972617"><ele>1056.0</ele><time>2026-05-02T11:44:58.625Z</time></trkpt><trkpt lat="42.051565" lon="13.6972033"><ele>1056.0</ele><time>2026-05-02T11:44:59.625Z</time></trkpt><trkpt lat="42.051515" lon="13.6971467"><ele>1056.0</ele><time>2026-05-02T11:45:00.624Z</time></trkpt><trkpt lat="42.0514633" lon="13.6970883"><ele>1056.0</ele><time>2026-05-02T11:45:01.624Z</time></trkpt><trkpt lat="42.05141" lon="13.69702"><ele>1056.0</ele><time>2026-05-02T11:45:02.624Z</time></trkpt><trkpt lat="42.051355" lon="13.69695"><ele>1055.8333333333333</ele><time>2026-05-02T11:45:03.625Z</time></trkpt><trkpt lat="42.0512917" lon="13.6968867"><ele>1055.6666666666667</ele><time>2026-05-02T11:45:04.625Z</time></trkpt><trkpt lat="42.0512283" lon="13.6968117"><ele>1055.5</ele><time>2026-05-02T11:45:05.625Z</time></trkpt><trkpt lat="42.051165" lon="13.6967367"><ele>1055.3333333333335</ele><time>2026-05-02T11:45:06.625Z</time></trkpt><trkpt lat="42.0511033" lon="13.6966617"><ele>1055.1666666666667</ele><time>2026-05-02T11:45:07.625Z</time></trkpt><trkpt lat="42.051045" lon="13.6965833"><ele>1055.0</ele><time>2026-05-02T11:45:08.625Z</time></trkpt><trkpt lat="42.0509783" lon="13.696505"><ele>1055.0</ele><time>2026-05-02T11:45:09.624Z</time></trkpt><trkpt lat="42.0509133" lon="13.69643"><ele>1055.0</ele><time>2026-05-02T11:45:10.625Z</time></trkpt><trkpt lat="42.0508467" lon="13.696355"><ele>1055.0</ele><time>2026-05-02T11:45:11.625Z</time></trkpt><trkpt lat="42.05079" lon="13.6962733"><ele>1055.0</ele><time>2026-05-02T11:45:12.625Z</time></trkpt><trkpt lat="42.0507317" lon="13.6961833"><ele>1055.0</ele><time>2026-05-02T11:45:13.624Z</time></trkpt><trkpt lat="42.0506733" lon="13.6960967"><ele>1055.0</ele><time>2026-05-02T11:45:14.625Z</time></trkpt><trkpt lat="42.0506033" lon="13.6960067"><ele>1054.3333333333335</ele><time>2026-05-02T11:45:15.624Z</time></trkpt><trkpt lat="42.05054" lon="13.6959267"><ele>1053.6666666666667</ele><time>2026-05-02T11:45:16.624Z</time></trkpt><trkpt lat="42.0504817" lon="13.6958467"><ele>1053.0</ele><time>2026-05-02T11:45:17.624Z</time></trkpt><trkpt lat="42.0504217" lon="13.6957667"><ele>1052.3333333333333</ele><time>2026-05-02T11:45:18.625Z</time></trkpt><trkpt lat="42.05036" lon="13.6956883"><ele>1051.6666666666665</ele><time>2026-05-02T11:45:19.625Z</time></trkpt><trkpt lat="42.0502967" lon="13.6956117"><ele>1051.0</ele><time>2026-05-02T11:45:20.624Z</time></trkpt><trkpt lat="42.05024" lon="13.6955317"><ele>1051.0</ele><time>2026-05-02T11:45:21.625Z</time></trkpt><trkpt lat="42.0501833" lon="13.695455"><ele>1051.0</ele><time>2026-05-02T11:45:22.624Z</time></trkpt><trkpt lat="42.0501267" lon="13.695375"><ele>1051.0</ele><time>2026-05-02T11:45:23.625Z</time></trkpt><trkpt lat="42.0500567" lon="13.69529"><ele>1051.0</ele><time>2026-05-02T11:45:24.624Z</time></trkpt><trkpt lat="42.04999" lon="13.695205"><ele>1051.0</ele><time>2026-05-02T11:45:25.625Z</time></trkpt><trkpt lat="42.0499217" lon="13.6951133"><ele>1051.0</ele><time>2026-05-02T11:45:26.624Z</time></trkpt><trkpt lat="42.049855" lon="13.6950233"><ele>1051.8333333333333</ele><time>2026-05-02T11:45:27.625Z</time></trkpt><trkpt lat="42.0497917" lon="13.6949383"><ele>1052.6666666666665</ele><time>2026-05-02T11:45:28.625Z</time></trkpt><trkpt lat="42.049735" lon="13.6948533"><ele>1053.5</ele><time>2026-05-02T11:45:29.624Z</time></trkpt><trkpt lat="42.0496733" lon="13.6947717"><ele>1054.3333333333333</ele><time>2026-05-02T11:45:30.624Z</time></trkpt><trkpt lat="42.049615" lon="13.6946917"><ele>1055.1666666666667</ele><time>2026-05-02T11:45:31.624Z</time></trkpt><trkpt lat="42.0495533" lon="13.6946083"><ele>1056.0</ele><time>2026-05-02T11:45:32.624Z</time></trkpt><trkpt lat="42.0495" lon="13.694525"><ele>1056.0</ele><time>2026-05-02T11:45:33.625Z</time></trkpt><trkpt lat="42.0494483" lon="13.6944467"><ele>1056.0</ele><time>2026-05-02T11:45:34.624Z</time></trkpt><trkpt lat="42.049395" lon="13.69437"><ele>1056.0</ele><time>2026-05-02T11:45:35.624Z</time></trkpt><trkpt lat="42.0493367" lon="13.694295"><ele>1056.0</ele><time>2026-05-02T11:45:36.625Z</time></trkpt><trkpt lat="42.04927" lon="13.6942233"><ele>1056.0</ele><time>2026-05-02T11:45:37.625Z</time></trkpt><trkpt lat="42.04919" lon="13.69415"><ele>1056.0</ele><time>2026-05-02T11:45:38.625Z</time></trkpt><trkpt lat="42.0491167" lon="13.69407"><ele>1055.8333333333333</ele><time>2026-05-02T11:45:39.624Z</time></trkpt><trkpt lat="42.04904" lon="13.6939933"><ele>1055.6666666666667</ele><time>2026-05-02T11:45:40.625Z</time></trkpt><trkpt lat="42.048975" lon="13.6939183"><ele>1055.5</ele><time>2026-05-02T11:45:41.624Z</time></trkpt><trkpt lat="42.04891" lon="13.6938483"><ele>1055.3333333333335</ele><time>2026-05-02T11:45:42.624Z</time></trkpt><trkpt lat="42.0488433" lon="13.6937717"><ele>1055.1666666666667</ele><time>2026-05-02T11:45:43.625Z</time></trkpt><trkpt lat="42.0487883" lon="13.6936983"><ele>1055.0</ele><time>2026-05-02T11:45:44.625Z</time></trkpt><trkpt lat="42.048725" lon="13.693625"><ele>1052.1666666666667</ele><time>2026-05-02T11:45:45.624Z</time></trkpt><trkpt lat="42.0486617" lon="13.6935567"><ele>1049.3333333333335</ele><time>2026-05-02T11:45:46.624Z</time></trkpt><trkpt lat="42.04859" lon="13.6934867"><ele>1046.5</ele><time>2026-05-02T11:45:47.624Z</time></trkpt><trkpt lat="42.0485133" lon="13.69342"><ele>1043.6666666666667</ele><time>2026-05-02T11:45:48.625Z</time></trkpt><trkpt lat="42.048435" lon="13.6933483"><ele>1040.8333333333333</ele><time>2026-05-02T11:45:49.624Z</time></trkpt><trkpt lat="42.04837" lon="13.6932783"><ele>1038.0</ele><time>2026-05-02T11:45:50.624Z</time></trkpt><trkpt lat="42.0483067" lon="13.6932033"><ele>1041.0</ele><time>2026-05-02T11:45:51.624Z</time></trkpt><trkpt lat="42.0482383" lon="13.693125"><ele>1044.0</ele><time>2026-05-02T11:45:52.625Z</time></trkpt><trkpt lat="42.0481633" lon="13.6930417"><ele>1047.0</ele><time>2026-05-02T11:45:53.625Z</time></trkpt><trkpt lat="42.0480917" lon="13.6929533"><ele>1050.0</ele><time>2026-05-02T11:45:54.624Z</time></trkpt><trkpt lat="42.04802" lon="13.6928717"><ele>1053.0</ele><time>2026-05-02T11:45:55.625Z</time></trkpt><trkpt lat="42.047945" lon="13.6927967"><ele>1048.8</ele><time>2026-05-02T11:45:56.625Z</time></trkpt><trkpt lat="42.0478667" lon="13.6927167"><ele>1044.6</ele><time>2026-05-02T11:45:57.625Z</time></trkpt><trkpt lat="42.047795" lon="13.6926383"><ele>1040.4</ele><time>2026-05-02T11:45:58.625Z</time></trkpt><trkpt lat="42.0477133" lon="13.6925617"><ele>1036.2</ele><time>2026-05-02T11:45:59.624Z</time></trkpt><trkpt lat="42.0476383" lon="13.692485"><ele>1032.0</ele><time>2026-05-02T11:46:00.625Z</time></trkpt><trkpt lat="42.0475667" lon="13.6924017"><ele>1032.0</ele><time>2026-05-02T11:46:01.624Z</time></trkpt><trkpt lat="42.0474933" lon="13.692325"><ele>1032.0</ele><time>2026-05-02T11:46:02.625Z</time></trkpt><trkpt lat="42.0474167" lon="13.6922517"><ele>1032.0</ele><time>2026-05-02T11:46:03.624Z</time></trkpt><trkpt lat="42.0473433" lon="13.6921833"><ele>1032.0</ele><time>2026-05-02T11:46:04.624Z</time></trkpt><trkpt lat="42.0472683" lon="13.692105"><ele>1032.0</ele><time>2026-05-02T11:46:05.624Z</time></trkpt><trkpt lat="42.04719" lon="13.6920283"><ele>1033.4</ele><time>2026-05-02T11:46:06.625Z</time></trkpt><trkpt lat="42.0471083" lon="13.6919583"><ele>1034.8000000000002</ele><time>2026-05-02T11:46:07.624Z</time></trkpt><trkpt lat="42.04702" lon="13.6918867"><ele>1036.2</ele><time>2026-05-02T11:46:08.625Z</time></trkpt><trkpt lat="42.04693" lon="13.691825"><ele>1037.6000000000001</ele><time>2026-05-02T11:46:09.624Z</time></trkpt><trkpt lat="42.046845" lon="13.6917667"><ele>1039.0</ele><time>2026-05-02T11:46:10.625Z</time></trkpt><trkpt lat="42.046765" lon="13.6917017"><ele>1035.8</ele><time>2026-05-02T11:46:11.624Z</time></trkpt><trkpt lat="42.0466767" lon="13.6916333"><ele>1032.6000000000001</ele><time>2026-05-02T11:46:12.625Z</time></trkpt><trkpt lat="42.0465967" lon="13.6915733"><ele>1029.4</ele><time>2026-05-02T11:46:13.625Z</time></trkpt><trkpt lat="42.0465217" lon="13.691515"><ele>1026.2</ele><time>2026-05-02T11:46:14.625Z</time></trkpt><trkpt lat="42.046445" lon="13.691455"><ele>1023.0</ele><time>2026-05-02T11:46:15.625Z</time></trkpt><trkpt lat="42.0463633" lon="13.6913883"><ele>1023.0</ele><time>2026-05-02T11:46:16.624Z</time></trkpt><trkpt lat="42.0462833" lon="13.6913217"><ele>1023.0</ele><time>2026-05-02T11:46:17.624Z</time></trkpt><trkpt lat="42.0461983" lon="13.691255"><ele>1023.0</ele><time>2026-05-02T11:46:18.625Z</time></trkpt><trkpt lat="42.0461133" lon="13.691185"><ele>1023.0</ele><time>2026-05-02T11:46:19.625Z</time></trkpt><trkpt lat="42.04603" lon="13.691115"><ele>1023.0</ele><time>2026-05-02T11:46:20.624Z</time></trkpt><trkpt lat="42.045955" lon="13.6910367"><ele>1021.8</ele><time>2026-05-02T11:46:21.625Z</time></trkpt><trkpt lat="42.045885" lon="13.6909583"><ele>1020.5999999999999</ele><time>2026-05-02T11:46:22.625Z</time></trkpt><trkpt lat="42.045815" lon="13.69088"><ele>1019.4000000000001</ele><time>2026-05-02T11:46:23.625Z</time></trkpt><trkpt lat="42.04574" lon="13.6908067"><ele>1018.2</ele><time>2026-05-02T11:46:24.624Z</time></trkpt><trkpt lat="42.0456683" lon="13.6907333"><ele>1017.0</ele><time>2026-05-02T11:46:25.625Z</time></trkpt><trkpt lat="42.0456017" lon="13.6906583"><ele>1017.0</ele><time>2026-05-02T11:46:26.625Z</time></trkpt><trkpt lat="42.04554" lon="13.6905783"><ele>1017.0</ele><time>2026-05-02T11:46:27.624Z</time></trkpt><trkpt lat="42.0454767" lon="13.6905"><ele>1017.0</ele><time>2026-05-02T11:46:28.625Z</time></trkpt><trkpt lat="42.0454217" lon="13.6904133"><ele>1017.0</ele><time>2026-05-02T11:46:29.624Z</time></trkpt><trkpt lat="42.04537" lon="13.69032"><ele>1017.0</ele><time>2026-05-02T11:46:30.625Z</time></trkpt><trkpt lat="42.0453217" lon="13.6902217"><ele>1017.0</ele><time>2026-05-02T11:46:31.625Z</time></trkpt><trkpt lat="42.0452783" lon="13.6901217"><ele>1014.8333333333334</ele><time>2026-05-02T11:46:32.624Z</time></trkpt><trkpt lat="42.0452317" lon="13.6900183"><ele>1012.6666666666667</ele><time>2026-05-02T11:46:33.625Z</time></trkpt><trkpt lat="42.045185" lon="13.6899233"><ele>1010.5</ele><time>2026-05-02T11:46:34.625Z</time></trkpt><trkpt lat="42.0451383" lon="13.689825"><ele>1008.3333333333334</ele><time>2026-05-02T11:46:35.624Z</time></trkpt><trkpt lat="42.045095" lon="13.6897317"><ele>1006.1666666666667</ele><time>2026-05-02T11:46:36.625Z</time></trkpt><trkpt lat="42.045045" lon="13.689635"><ele>1004.0</ele><time>2026-05-02T11:46:37.624Z</time></trkpt><trkpt lat="42.0450033" lon="13.6895433"><ele>1004.0</ele><time>2026-05-02T11:46:38.625Z</time></trkpt><trkpt lat="42.0449667" lon="13.6894333"><ele>1004.0000000000001</ele><time>2026-05-02T11:46:39.624Z</time></trkpt><trkpt lat="42.0449367" lon="13.6893083"><ele>1004.0000000000001</ele><time>2026-05-02T11:46:40.625Z</time></trkpt><trkpt lat="42.0449" lon="13.689185"><ele>1004.0</ele><time>2026-05-02T11:46:41.624Z</time></trkpt><trkpt lat="42.044865" lon="13.689075"><ele>1004.0</ele><time>2026-05-02T11:46:42.624Z</time></trkpt><trkpt lat="42.0448267" lon="13.6889683"><ele>1003.0000000000001</ele><time>2026-05-02T11:46:43.625Z</time></trkpt><trkpt lat="42.044785" lon="13.6888633"><ele>1002.0</ele><time>2026-05-02T11:46:44.625Z</time></trkpt><trkpt lat="42.0447433" lon="13.6887667"><ele>1001.0</ele><time>2026-05-02T11:46:45.625Z</time></trkpt><trkpt lat="42.0447" lon="13.6886733"><ele>1000.0</ele><time>2026-05-02T11:46:46.625Z</time></trkpt><trkpt lat="42.04466" lon="13.68858"><ele>999.0000000000001</ele><time>2026-05-02T11:46:47.625Z</time></trkpt><trkpt lat="42.0446233" lon="13.6884783"><ele>998.0</ele><time>2026-05-02T11:46:48.625Z</time></trkpt><trkpt lat="42.0445883" lon="13.6883817"><ele>998.0000000000001</ele><time>2026-05-02T11:46:49.625Z</time></trkpt><trkpt lat="42.0445533" lon="13.688275"><ele>998.0</ele><time>2026-05-02T11:46:50.625Z</time></trkpt><trkpt lat="42.044505" lon="13.6881733"><ele>998.0</ele><time>2026-05-02T11:46:51.624Z</time></trkpt><trkpt lat="42.0444583" lon="13.6880817"><ele>998.0</ele><time>2026-05-02T11:46:52.625Z</time></trkpt><trkpt lat="42.0444117" lon="13.6880017"><ele>998.0000000000001</ele><time>2026-05-02T11:46:53.625Z</time></trkpt><trkpt lat="42.0443583" lon="13.6879167"><ele>998.0</ele><time>2026-05-02T11:46:54.624Z</time></trkpt><trkpt lat="42.0443033" lon="13.687835"><ele>997.6666666666667</ele><time>2026-05-02T11:46:55.624Z</time></trkpt><trkpt lat="42.044255" lon="13.6877533"><ele>997.3333333333334</ele><time>2026-05-02T11:46:56.624Z</time></trkpt><trkpt lat="42.0442133" lon="13.687665"><ele>997.0</ele><time>2026-05-02T11:46:57.625Z</time></trkpt><trkpt lat="42.0441767" lon="13.6875617"><ele>996.6666666666667</ele><time>2026-05-02T11:46:58.624Z</time></trkpt><trkpt lat="42.0441417" lon="13.6874667"><ele>996.3333333333334</ele><time>2026-05-02T11:46:59.624Z</time></trkpt><trkpt lat="42.0441" lon="13.6873767"><ele>996.0</ele><time>2026-05-02T11:47:00.624Z</time></trkpt><trkpt lat="42.0440583" lon="13.6872967"><ele>996.0</ele><time>2026-05-02T11:47:01.624Z</time></trkpt><trkpt lat="42.0440167" lon="13.687225"><ele>996.0</ele><time>2026-05-02T11:47:02.624Z</time></trkpt><trkpt lat="42.0439483" lon="13.6871133"><ele>996.0</ele><time>2026-05-02T11:47:04.625Z</time></trkpt><trkpt lat="42.0439017" lon="13.6870283"><ele>996.0</ele><time>2026-05-02T11:47:06.625Z</time></trkpt><trkpt lat="42.0438517" lon="13.6869717"><ele>996.0</ele><time>2026-05-02T11:47:08.625Z</time></trkpt><trkpt lat="42.0438033" lon="13.6868833"><ele>996.0</ele><time>2026-05-02T11:47:11.624Z</time></trkpt><trkpt lat="42.0437433" lon="13.68679"><ele>992.0</ele><time>2026-05-02T11:47:14.625Z</time></trkpt><trkpt lat="42.04368" lon="13.6867067"><ele>988.0</ele><time>2026-05-02T11:48:19.625Z</time></trkpt><trkpt lat="42.04364" lon="13.6866367"><ele>984.0</ele><time>2026-05-02T11:48:22.624Z</time></trkpt><trkpt lat="42.0435883" lon="13.68658"><ele>980.0</ele><time>2026-05-02T11:48:25.625Z</time></trkpt><trkpt lat="42.0435417" lon="13.68647"><ele>976.0</ele><time>2026-05-02T11:48:28.625Z</time></trkpt><trkpt lat="42.043505" lon="13.686375"><ele>972.0</ele><time>2026-05-02T11:48:30.624Z</time></trkpt><trkpt lat="42.04346" lon="13.6862483"><ele>972.0</ele><time>2026-05-02T11:48:32.624Z</time></trkpt><trkpt lat="42.0434083" lon="13.6861267"><ele>972.0</ele><time>2026-05-02T11:48:34.624Z</time></trkpt><trkpt lat="42.0433667" lon="13.6860117"><ele>972.0</ele><time>2026-05-02T11:48:36.625Z</time></trkpt><trkpt lat="42.0433217" lon="13.6859083"><ele>972.0</ele><time>2026-05-02T11:48:38.625Z</time></trkpt><trkpt lat="42.043265" lon="13.6858033"><ele>972.0</ele><time>2026-05-02T11:48:40.625Z</time></trkpt><trkpt lat="42.043215" lon="13.6857067"><ele>973.0</ele><time>2026-05-02T11:48:42.624Z</time></trkpt><trkpt lat="42.04316" lon="13.68563"><ele>974.0</ele><time>2026-05-02T11:48:44.625Z</time></trkpt><trkpt lat="42.0431183" lon="13.6855517"><ele>975.0</ele><time>2026-05-02T11:48:46.625Z</time></trkpt><trkpt lat="42.0430833" lon="13.685445"><ele>976.0</ele><time>2026-05-02T11:48:48.625Z</time></trkpt><trkpt lat="42.04303" lon="13.6853633"><ele>977.0</ele><time>2026-05-02T11:48:50.625Z</time></trkpt><trkpt lat="42.042965" lon="13.6853133"><ele>978.0</ele><time>2026-05-02T11:48:52.625Z</time></trkpt><trkpt lat="42.04292" lon="13.6852383"><ele>973.3333333333334</ele><time>2026-05-02T11:48:54.625Z</time></trkpt><trkpt lat="42.042885" lon="13.6851617"><ele>968.6666666666667</ele><time>2026-05-02T11:48:56.625Z</time></trkpt><trkpt lat="42.0428433" lon="13.6850683"><ele>964.0</ele><time>2026-05-02T11:48:58.624Z</time></trkpt><trkpt lat="42.0427983" lon="13.684965"><ele>959.3333333333334</ele><time>2026-05-02T11:49:00.624Z</time></trkpt><trkpt lat="42.0427517" lon="13.6848717"><ele>954.6666666666667</ele><time>2026-05-02T11:49:02.625Z</time></trkpt><trkpt lat="42.0427133" lon="13.6847783"><ele>950.0</ele><time>2026-05-02T11:49:04.624Z</time></trkpt><trkpt lat="42.0426617" lon="13.6846817"><ele>950.0</ele><time>2026-05-02T11:49:06.624Z</time></trkpt><trkpt lat="42.042585" lon="13.68457"><ele>950.0</ele><time>2026-05-02T11:49:08.624Z</time></trkpt><trkpt lat="42.0424967" lon="13.68446"><ele>950.0</ele><time>2026-05-02T11:49:10.624Z</time></trkpt><trkpt lat="42.0424183" lon="13.6843367"><ele>950.0</ele><time>2026-05-02T11:49:12.624Z</time></trkpt><trkpt lat="42.042335" lon="13.68421"><ele>947.75</ele><time>2026-05-02T11:49:14.625Z</time></trkpt><trkpt lat="42.0422467" lon="13.6840967"><ele>945.5</ele><time>2026-05-02T11:49:16.625Z</time></trkpt><trkpt lat="42.042165" lon="13.683975"><ele>943.25</ele><time>2026-05-02T11:49:18.625Z</time></trkpt><trkpt lat="42.04208" lon="13.6838617"><ele>941.0</ele><time>2026-05-02T11:49:20.624Z</time></trkpt><trkpt lat="42.0419933" lon="13.68375"><ele>941.0</ele><time>2026-05-02T11:49:22.625Z</time></trkpt><trkpt lat="42.0419217" lon="13.683625"><ele>940.9999999999999</ele><time>2026-05-02T11:49:24.624Z</time></trkpt><trkpt lat="42.0418533" lon="13.6835033"><ele>940.9999999999999</ele><time>2026-05-02T11:49:26.625Z</time></trkpt><trkpt lat="42.0417717" lon="13.6833767"><ele>941.0</ele><time>2026-05-02T11:49:28.624Z</time></trkpt><trkpt lat="42.04172" lon="13.6833167"><ele>941.0</ele><time>2026-05-02T11:49:29.625Z</time></trkpt><trkpt lat="42.0416433" lon="13.68318"><ele>938.8333333333334</ele><time>2026-05-02T11:49:31.625Z</time></trkpt><trkpt lat="42.0415733" lon="13.6830433"><ele>936.6666666666667</ele><time>2026-05-02T11:49:33.625Z</time></trkpt><trkpt lat="42.04153" lon="13.68297"><ele>934.5</ele><time>2026-05-02T11:49:34.625Z</time></trkpt><trkpt lat="42.0414867" lon="13.6828917"><ele>932.3333333333333</ele><time>2026-05-02T11:49:35.623Z</time></trkpt><trkpt lat="42.0414417" lon="13.68281"><ele>930.1666666666666</ele><time>2026-05-02T11:49:36.623Z</time></trkpt><trkpt lat="42.0413917" lon="13.6827317"><ele>928.0</ele><time>2026-05-02T11:49:37.623Z</time></trkpt><trkpt lat="42.04135" lon="13.6826567"><ele>923.8333333333333</ele><time>2026-05-02T11:49:38.623Z</time></trkpt><trkpt lat="42.0413" lon="13.6825783"><ele>919.6666666666666</ele><time>2026-05-02T11:49:39.623Z</time></trkpt><trkpt lat="42.0412533" lon="13.6825"><ele>915.5</ele><time>2026-05-02T11:49:40.623Z</time></trkpt><trkpt lat="42.0412117" lon="13.682415"><ele>911.3333333333333</ele><time>2026-05-02T11:49:41.623Z</time></trkpt><trkpt lat="42.0411767" lon="13.6823233"><ele>907.1666666666666</ele><time>2026-05-02T11:49:42.624Z</time></trkpt><trkpt lat="42.0411433" lon="13.682235"><ele>903.0</ele><time>2026-05-02T11:49:43.624Z</time></trkpt><trkpt lat="42.041095" lon="13.6821517"><ele>903.0</ele><time>2026-05-02T11:49:44.623Z</time></trkpt><trkpt lat="42.0410483" lon="13.6820733"><ele>903.0</ele><time>2026-05-02T11:49:45.623Z</time></trkpt><trkpt lat="42.0410017" lon="13.682"><ele>903.0</ele><time>2026-05-02T11:49:46.623Z</time></trkpt><trkpt lat="42.040955" lon="13.6819233"><ele>903.0</ele><time>2026-05-02T11:49:47.624Z</time></trkpt><trkpt lat="42.040905" lon="13.6818483"><ele>903.0</ele><time>2026-05-02T11:49:48.624Z</time></trkpt><trkpt lat="42.040845" lon="13.6817717"><ele>903.0</ele><time>2026-05-02T11:49:49.624Z</time></trkpt><trkpt lat="42.0407833" lon="13.6816967"><ele>902.0</ele><time>2026-05-02T11:49:50.624Z</time></trkpt><trkpt lat="42.0407233" lon="13.6816267"><ele>901.0</ele><time>2026-05-02T11:49:51.624Z</time></trkpt><trkpt lat="42.040675" lon="13.6815517"><ele>900.0</ele><time>2026-05-02T11:49:52.623Z</time></trkpt><trkpt lat="42.0406267" lon="13.6814717"><ele>899.0</ele><time>2026-05-02T11:49:53.624Z</time></trkpt><trkpt lat="42.040575" lon="13.6813883"><ele>898.0</ele><time>2026-05-02T11:49:54.623Z</time></trkpt><trkpt lat="42.0405117" lon="13.6813"><ele>897.0</ele><time>2026-05-02T11:49:55.623Z</time></trkpt><trkpt lat="42.0404483" lon="13.6812083"><ele>897.0</ele><time>2026-05-02T11:49:56.624Z</time></trkpt><trkpt lat="42.040385" lon="13.6811183"><ele>897.0</ele><time>2026-05-02T11:49:57.623Z</time></trkpt><trkpt lat="42.04033" lon="13.6810283"><ele>897.0</ele><time>2026-05-02T11:49:58.624Z</time></trkpt><trkpt lat="42.040275" lon="13.6809383"><ele>897.0</ele><time>2026-05-02T11:49:59.623Z</time></trkpt><trkpt lat="42.0402233" lon="13.6808533"><ele>897.0</ele><time>2026-05-02T11:50:00.623Z</time></trkpt><trkpt lat="42.040175" lon="13.680765"><ele>897.0</ele><time>2026-05-02T11:50:01.624Z</time></trkpt><trkpt lat="42.0401267" lon="13.680675"><ele>898.1666666666666</ele><time>2026-05-02T11:50:02.624Z</time></trkpt><trkpt lat="42.040085" lon="13.680585"><ele>899.3333333333333</ele><time>2026-05-02T11:50:03.623Z</time></trkpt><trkpt lat="42.0400417" lon="13.6804933"><ele>900.5</ele><time>2026-05-02T11:50:04.624Z</time></trkpt><trkpt lat="42.039995" lon="13.6804"><ele>901.6666666666666</ele><time>2026-05-02T11:50:05.624Z</time></trkpt><trkpt lat="42.0399483" lon="13.680305"><ele>902.8333333333333</ele><time>2026-05-02T11:50:06.624Z</time></trkpt><trkpt lat="42.0398967" lon="13.68022"><ele>904.0</ele><time>2026-05-02T11:50:07.624Z</time></trkpt><trkpt lat="42.0398467" lon="13.6801383"><ele>900.9999999999999</ele><time>2026-05-02T11:50:08.623Z</time></trkpt><trkpt lat="42.0397917" lon="13.68006"><ele>898.0</ele><time>2026-05-02T11:50:09.624Z</time></trkpt><trkpt lat="42.0397383" lon="13.6799783"><ele>895.0</ele><time>2026-05-02T11:50:10.624Z</time></trkpt><trkpt lat="42.0396917" lon="13.6798983"><ele>892.0</ele><time>2026-05-02T11:50:11.624Z</time></trkpt><trkpt lat="42.0396433" lon="13.67981"><ele>888.9999999999999</ele><time>2026-05-02T11:50:12.623Z</time></trkpt><trkpt lat="42.0395983" lon="13.679725"><ele>886.0</ele><time>2026-05-02T11:50:13.623Z</time></trkpt><trkpt lat="42.039555" lon="13.6796367"><ele>885.9999999999999</ele><time>2026-05-02T11:50:14.624Z</time></trkpt><trkpt lat="42.0395083" lon="13.6795483"><ele>886.0</ele><time>2026-05-02T11:50:15.623Z</time></trkpt><trkpt lat="42.0394583" lon="13.67946"><ele>886.0</ele><time>2026-05-02T11:50:16.623Z</time></trkpt><trkpt lat="42.03941" lon="13.6793717"><ele>886.0</ele><time>2026-05-02T11:50:17.624Z</time></trkpt><trkpt lat="42.039365" lon="13.6792867"><ele>885.9999999999999</ele><time>2026-05-02T11:50:18.624Z</time></trkpt><trkpt lat="42.0393283" lon="13.6792033"><ele>886.0</ele><time>2026-05-02T11:50:19.623Z</time></trkpt><trkpt lat="42.0392867" lon="13.6791183"><ele>886.4999999999999</ele><time>2026-05-02T11:50:20.623Z</time></trkpt><trkpt lat="42.03924" lon="13.6790333"><ele>887.0</ele><time>2026-05-02T11:50:21.624Z</time></trkpt><trkpt lat="42.0392" lon="13.6789517"><ele>887.5</ele><time>2026-05-02T11:50:22.624Z</time></trkpt><trkpt lat="42.0391667" lon="13.6788767"><ele>888.0</ele><time>2026-05-02T11:50:23.623Z</time></trkpt><trkpt lat="42.0391067" lon="13.6787467"><ele>888.4999999999999</ele><time>2026-05-02T11:50:25.624Z</time></trkpt><trkpt lat="42.0390567" lon="13.6786667"><ele>889.0</ele><time>2026-05-02T11:50:27.623Z</time></trkpt><trkpt lat="42.0390217" lon="13.678595"><ele>885.6</ele><time>2026-05-02T11:50:29.623Z</time></trkpt><trkpt lat="42.03898" lon="13.678525"><ele>882.2</ele><time>2026-05-02T11:50:31.623Z</time></trkpt><trkpt lat="42.03892" lon="13.6784283"><ele>878.8000000000001</ele><time>2026-05-02T11:50:33.623Z</time></trkpt><trkpt lat="42.0388417" lon="13.678285"><ele>875.4000000000001</ele><time>2026-05-02T11:50:35.624Z</time></trkpt><trkpt lat="42.0387917" lon="13.6782"><ele>872.0</ele><time>2026-05-02T11:50:36.623Z</time></trkpt><trkpt lat="42.0387333" lon="13.6781033"><ele>872.0</ele><time>2026-05-02T11:50:37.624Z</time></trkpt><trkpt lat="42.038675" lon="13.6779983"><ele>872.0</ele><time>2026-05-02T11:50:38.623Z</time></trkpt><trkpt lat="42.0386083" lon="13.6778917"><ele>872.0</ele><time>2026-05-02T11:50:39.624Z</time></trkpt><trkpt lat="42.0385367" lon="13.6777833"><ele>872.0</ele><time>2026-05-02T11:50:40.623Z</time></trkpt><trkpt lat="42.038465" lon="13.67768"><ele>872.0</ele><time>2026-05-02T11:50:41.624Z</time></trkpt><trkpt lat="42.0383967" lon="13.6775817"><ele>870.0</ele><time>2026-05-02T11:50:42.624Z</time></trkpt><trkpt lat="42.0383317" lon="13.67748"><ele>868.0</ele><time>2026-05-02T11:50:43.623Z</time></trkpt><trkpt lat="42.0382683" lon="13.6773833"><ele>866.0</ele><time>2026-05-02T11:50:44.623Z</time></trkpt><trkpt lat="42.0381867" lon="13.6772883"><ele>864.0</ele><time>2026-05-02T11:50:45.623Z</time></trkpt><trkpt lat="42.0381033" lon="13.6771967"><ele>862.0</ele><time>2026-05-02T11:50:46.624Z</time></trkpt><trkpt lat="42.03802" lon="13.6771017"><ele>862.0</ele><time>2026-05-02T11:50:47.624Z</time></trkpt><trkpt lat="42.037945" lon="13.677005"><ele>862.0</ele><time>2026-05-02T11:50:48.623Z</time></trkpt><trkpt lat="42.03787" lon="13.6769117"><ele>862.0</ele><time>2026-05-02T11:50:49.624Z</time></trkpt><trkpt lat="42.0377983" lon="13.6768267"><ele>862.0</ele><time>2026-05-02T11:50:50.624Z</time></trkpt><trkpt lat="42.0377283" lon="13.6767367"><ele>862.0</ele><time>2026-05-02T11:50:51.624Z</time></trkpt><trkpt lat="42.0376567" lon="13.67664"><ele>859.8333333333333</ele><time>2026-05-02T11:50:52.623Z</time></trkpt><trkpt lat="42.0375917" lon="13.6765533"><ele>857.6666666666666</ele><time>2026-05-02T11:50:53.623Z</time></trkpt><trkpt lat="42.0375167" lon="13.6764767"><ele>855.5</ele><time>2026-05-02T11:50:54.624Z</time></trkpt><trkpt lat="42.0374533" lon="13.6764"><ele>853.3333333333333</ele><time>2026-05-02T11:50:55.624Z</time></trkpt><trkpt lat="42.0373983" lon="13.6763117"><ele>851.1666666666666</ele><time>2026-05-02T11:50:56.624Z</time></trkpt><trkpt lat="42.03735" lon="13.676215"><ele>849.0</ele><time>2026-05-02T11:50:57.624Z</time></trkpt><trkpt lat="42.0372983" lon="13.6761283"><ele>847.0</ele><time>2026-05-02T11:50:58.624Z</time></trkpt><trkpt lat="42.03723" lon="13.6760533"><ele>845.0</ele><time>2026-05-02T11:50:59.624Z</time></trkpt><trkpt lat="42.03716" lon="13.6759867"><ele>843.0</ele><time>2026-05-02T11:51:00.624Z</time></trkpt><trkpt lat="42.037095" lon="13.675925"><ele>841.0</ele><time>2026-05-02T11:51:01.623Z</time></trkpt><trkpt lat="42.037035" lon="13.6758633"><ele>839.0</ele><time>2026-05-02T11:51:02.624Z</time></trkpt><trkpt lat="42.03698" lon="13.67581"><ele>837.0</ele><time>2026-05-02T11:51:03.623Z</time></trkpt><trkpt lat="42.0368917" lon="13.6757267"><ele>837.0</ele><time>2026-05-02T11:51:05.623Z</time></trkpt><trkpt lat="42.0368183" lon="13.6756717"><ele>837.0</ele><time>2026-05-02T11:51:07.624Z</time></trkpt><trkpt lat="42.0367467" lon="13.6756017"><ele>837.0</ele><time>2026-05-02T11:51:09.623Z</time></trkpt><trkpt lat="42.0366467" lon="13.6755083"><ele>837.0</ele><time>2026-05-02T11:51:11.624Z</time></trkpt><trkpt lat="42.0365883" lon="13.67546"><ele>837.0</ele><time>2026-05-02T11:51:12.623Z</time></trkpt><trkpt lat="42.036525" lon="13.6754183"><ele>837.0</ele><time>2026-05-02T11:51:13.624Z</time></trkpt><trkpt lat="42.03646" lon="13.675365"><ele>837.1666666666666</ele><time>2026-05-02T11:51:14.624Z</time></trkpt><trkpt lat="42.036405" lon="13.6753233"><ele>837.3333333333333</ele><time>2026-05-02T11:51:15.623Z</time></trkpt><trkpt lat="42.0363467" lon="13.6752867"><ele>837.5</ele><time>2026-05-02T11:51:16.623Z</time></trkpt><trkpt lat="42.0362383" lon="13.6752533"><ele>837.6666666666666</ele><time>2026-05-02T11:51:18.624Z</time></trkpt><trkpt lat="42.0361633" lon="13.67526"><ele>837.8333333333333</ele><time>2026-05-02T11:51:19.623Z</time></trkpt><trkpt lat="42.0360867" lon="13.675265"><ele>838.0</ele><time>2026-05-02T11:51:20.623Z</time></trkpt><trkpt lat="42.0360083" lon="13.6752617"><ele>836.4999999999999</ele><time>2026-05-02T11:51:21.623Z</time></trkpt><trkpt lat="42.0359317" lon="13.6752517"><ele>835.0</ele><time>2026-05-02T11:51:22.623Z</time></trkpt><trkpt lat="42.0358567" lon="13.67524"><ele>833.5</ele><time>2026-05-02T11:51:23.624Z</time></trkpt><trkpt lat="42.035785" lon="13.675225"><ele>832.0</ele><time>2026-05-02T11:51:24.624Z</time></trkpt><trkpt lat="42.0357217" lon="13.6752067"><ele>830.4999999999999</ele><time>2026-05-02T11:51:25.623Z</time></trkpt><trkpt lat="42.0356233" lon="13.6751617"><ele>829.0</ele><time>2026-05-02T11:51:27.623Z</time></trkpt><trkpt lat="42.0355683" lon="13.675085"><ele>828.4000000000001</ele><time>2026-05-02T11:51:29.623Z</time></trkpt><trkpt lat="42.0355133" lon="13.674995"><ele>827.8</ele><time>2026-05-02T11:51:31.623Z</time></trkpt><trkpt lat="42.0354367" lon="13.6748767"><ele>827.2</ele><time>2026-05-02T11:51:33.624Z</time></trkpt><trkpt lat="42.0353917" lon="13.6748083"><ele>826.5999999999999</ele><time>2026-05-02T11:51:34.623Z</time></trkpt><trkpt lat="42.03527" lon="13.6747433"><ele>826.0</ele><time>2026-05-02T11:51:36.624Z</time></trkpt><trkpt lat="42.0352033" lon="13.6747283"><ele>825.9999999999999</ele><time>2026-05-02T11:51:37.623Z</time></trkpt><trkpt lat="42.035135" lon="13.67471"><ele>826.0</ele><time>2026-05-02T11:51:38.624Z</time></trkpt><trkpt lat="42.0350117" lon="13.674665"><ele>826.0</ele><time>2026-05-02T11:51:40.624Z</time></trkpt><trkpt lat="42.03495" lon="13.6746367"><ele>826.0</ele><time>2026-05-02T11:51:41.624Z</time></trkpt><trkpt lat="42.0348417" lon="13.6745833"><ele>825.9999999999999</ele><time>2026-05-02T11:51:43.623Z</time></trkpt><trkpt lat="42.0347817" lon="13.6745317"><ele>826.0</ele><time>2026-05-02T11:51:45.624Z</time></trkpt><trkpt lat="42.03475" lon="13.6744467"><ele>822.8333333333333</ele><time>2026-05-02T11:51:47.623Z</time></trkpt><trkpt lat="42.0347283" lon="13.6743167"><ele>819.6666666666666</ele><time>2026-05-02T11:51:49.624Z</time></trkpt><trkpt lat="42.034715" lon="13.674225"><ele>816.5</ele><time>2026-05-02T11:51:50.624Z</time></trkpt><trkpt lat="42.0347033" lon="13.67413"><ele>813.3333333333333</ele><time>2026-05-02T11:51:51.623Z</time></trkpt><trkpt lat="42.0346933" lon="13.6740283"><ele>810.1666666666666</ele><time>2026-05-02T11:51:52.624Z</time></trkpt><trkpt lat="42.03468" lon="13.6739267"><ele>807.0</ele><time>2026-05-02T11:51:53.623Z</time></trkpt><trkpt lat="42.0346833" lon="13.673835"><ele>807.0</ele><time>2026-05-02T11:51:54.624Z</time></trkpt><trkpt lat="42.0347033" lon="13.6737533"><ele>807.0</ele><time>2026-05-02T11:51:55.623Z</time></trkpt><trkpt lat="42.034735" lon="13.6736667"><ele>807.0</ele><time>2026-05-02T11:51:56.623Z</time></trkpt><trkpt lat="42.0347733" lon="13.6735617"><ele>807.0</ele><time>2026-05-02T11:51:57.623Z</time></trkpt><trkpt lat="42.0348083" lon="13.6734333"><ele>807.0</ele><time>2026-05-02T11:51:58.624Z</time></trkpt><trkpt lat="42.0348367" lon="13.6732967"><ele>807.0</ele><time>2026-05-02T11:51:59.623Z</time></trkpt><trkpt lat="42.0348583" lon="13.6731633"><ele>808.8</ele><time>2026-05-02T11:52:00.624Z</time></trkpt><trkpt lat="42.0348817" lon="13.6730433"><ele>810.6</ele><time>2026-05-02T11:52:01.624Z</time></trkpt><trkpt lat="42.0349183" lon="13.6729317"><ele>812.4</ele><time>2026-05-02T11:52:02.624Z</time></trkpt><trkpt lat="42.03497" lon="13.67281"><ele>814.1999999999999</ele><time>2026-05-02T11:52:03.623Z</time></trkpt><trkpt lat="42.035025" lon="13.6726767"><ele>816.0</ele><time>2026-05-02T11:52:04.624Z</time></trkpt><trkpt lat="42.0350833" lon="13.6725383"><ele>819.5</ele><time>2026-05-02T11:52:05.623Z</time></trkpt><trkpt lat="42.0351467" lon="13.6724067"><ele>823.0</ele><time>2026-05-02T11:52:06.624Z</time></trkpt><trkpt lat="42.0352083" lon="13.6722683"><ele>826.5</ele><time>2026-05-02T11:52:07.623Z</time></trkpt><trkpt lat="42.0352633" lon="13.67214"><ele>830.0</ele><time>2026-05-02T11:52:08.624Z</time></trkpt><trkpt lat="42.03531" lon="13.6720117"><ele>831.0</ele><time>2026-05-02T11:52:09.624Z</time></trkpt><trkpt lat="42.03534" lon="13.6718717"><ele>832.0</ele><time>2026-05-02T11:52:10.623Z</time></trkpt><trkpt lat="42.0353667" lon="13.6717317"><ele>833.0</ele><time>2026-05-02T11:52:11.623Z</time></trkpt><trkpt lat="42.0354033" lon="13.67159"><ele>834.0</ele><time>2026-05-02T11:52:12.624Z</time></trkpt><trkpt lat="42.0354383" lon="13.6714483"><ele>835.0</ele><time>2026-05-02T11:52:13.624Z</time></trkpt><trkpt lat="42.0354733" lon="13.6713133"><ele>835.0</ele><time>2026-05-02T11:52:14.624Z</time></trkpt><trkpt lat="42.0355167" lon="13.6711783"><ele>835.0</ele><time>2026-05-02T11:52:15.624Z</time></trkpt><trkpt lat="42.035545" lon="13.6710233"><ele>835.0</ele><time>2026-05-02T11:52:16.623Z</time></trkpt><trkpt lat="42.0355633" lon="13.670855"><ele>835.0</ele><time>2026-05-02T11:52:17.623Z</time></trkpt><trkpt lat="42.0355867" lon="13.6707017"><ele>836.2</ele><time>2026-05-02T11:52:18.623Z</time></trkpt><trkpt lat="42.0356067" lon="13.6705533"><ele>837.4</ele><time>2026-05-02T11:52:19.624Z</time></trkpt><trkpt lat="42.03562" lon="13.6704083"><ele>838.5999999999999</ele><time>2026-05-02T11:52:20.624Z</time></trkpt><trkpt lat="42.0356317" lon="13.670265"><ele>839.8</ele><time>2026-05-02T11:52:21.624Z</time></trkpt><trkpt lat="42.0356383" lon="13.6701333"><ele>841.0</ele><time>2026-05-02T11:52:22.624Z</time></trkpt><trkpt lat="42.0356283" lon="13.67"><ele>841.4</ele><time>2026-05-02T11:52:23.624Z</time></trkpt><trkpt lat="42.035615" lon="13.6698617"><ele>841.8</ele><time>2026-05-02T11:52:24.624Z</time></trkpt><trkpt lat="42.0355867" lon="13.6697183"><ele>842.1999999999999</ele><time>2026-05-02T11:52:25.623Z</time></trkpt><trkpt lat="42.035565" lon="13.6695883"><ele>842.5999999999999</ele><time>2026-05-02T11:52:26.623Z</time></trkpt><trkpt lat="42.035555" lon="13.6694667"><ele>843.0</ele><time>2026-05-02T11:52:27.624Z</time></trkpt><trkpt lat="42.0355683" lon="13.6693633"><ele>843.2</ele><time>2026-05-02T11:52:28.624Z</time></trkpt><trkpt lat="42.0356033" lon="13.669265"><ele>843.4</ele><time>2026-05-02T11:52:29.624Z</time></trkpt><trkpt lat="42.0356667" lon="13.6691767"><ele>843.6</ele><time>2026-05-02T11:52:30.624Z</time></trkpt><trkpt lat="42.035755" lon="13.6690817"><ele>843.8000000000001</ele><time>2026-05-02T11:52:31.624Z</time></trkpt><trkpt lat="42.0358617" lon="13.6689767"><ele>844.0</ele><time>2026-05-02T11:52:32.624Z</time></trkpt><trkpt lat="42.0359667" lon="13.6688733"><ele>843.8000000000001</ele><time>2026-05-02T11:52:33.624Z</time></trkpt><trkpt lat="42.0360617" lon="13.6687883"><ele>843.6</ele><time>2026-05-02T11:52:34.624Z</time></trkpt><trkpt lat="42.0361617" lon="13.6687183"><ele>843.4</ele><time>2026-05-02T11:52:35.624Z</time></trkpt><trkpt lat="42.0362417" lon="13.668675"><ele>843.2</ele><time>2026-05-02T11:52:36.624Z</time></trkpt><trkpt lat="42.0363267" lon="13.6686133"><ele>843.0</ele><time>2026-05-02T11:52:38.623Z</time></trkpt><trkpt lat="42.0363833" lon="13.668565"><ele>843.0</ele><time>2026-05-02T11:52:41.624Z</time></trkpt><trkpt lat="42.036465" lon="13.6685833"><ele>843.0</ele><time>2026-05-02T11:52:43.623Z</time></trkpt><trkpt lat="42.0365883" lon="13.6686367"><ele>843.0</ele><time>2026-05-02T11:52:45.623Z</time></trkpt><trkpt lat="42.03666" lon="13.66867"><ele>843.0</ele><time>2026-05-02T11:52:46.624Z</time></trkpt><trkpt lat="42.0367367" lon="13.6687017"><ele>843.0</ele><time>2026-05-02T11:52:47.624Z</time></trkpt><trkpt lat="42.0368183" lon="13.668725"><ele>844.1666666666666</ele><time>2026-05-02T11:52:48.624Z</time></trkpt><trkpt lat="42.0368983" lon="13.668755"><ele>845.3333333333333</ele><time>2026-05-02T11:52:49.624Z</time></trkpt><trkpt lat="42.03698" lon="13.6687783"><ele>846.5</ele><time>2026-05-02T11:52:50.624Z</time></trkpt><trkpt lat="42.0370583" lon="13.668805"><ele>847.6666666666666</ele><time>2026-05-02T11:52:51.624Z</time></trkpt><trkpt lat="42.037125" lon="13.6688233"><ele>848.8333333333333</ele><time>2026-05-02T11:52:52.624Z</time></trkpt><trkpt lat="42.0372083" lon="13.6688283"><ele>850.0</ele><time>2026-05-02T11:52:54.623Z</time></trkpt><trkpt lat="42.0372483" lon="13.6687283"><ele>849.9999999999999</ele><time>2026-05-02T11:52:57.624Z</time></trkpt><trkpt lat="42.0372617" lon="13.6686367"><ele>850.0</ele><time>2026-05-02T11:52:59.624Z</time></trkpt><trkpt lat="42.0372867" lon="13.6685083"><ele>850.0</ele><time>2026-05-02T11:53:01.623Z</time></trkpt><trkpt lat="42.0373017" lon="13.6684217"><ele>850.0</ele><time>2026-05-02T11:53:02.623Z</time></trkpt><trkpt lat="42.0373167" lon="13.66833"><ele>849.9999999999999</ele><time>2026-05-02T11:53:03.623Z</time></trkpt><trkpt lat="42.037335" lon="13.6682383"><ele>850.0</ele><time>2026-05-02T11:53:04.624Z</time></trkpt><trkpt lat="42.037355" lon="13.66814"><ele>850.1666666666666</ele><time>2026-05-02T11:53:05.623Z</time></trkpt><trkpt lat="42.0373767" lon="13.66804"><ele>850.3333333333333</ele><time>2026-05-02T11:53:06.624Z</time></trkpt><trkpt lat="42.0374017" lon="13.6679333"><ele>850.5</ele><time>2026-05-02T11:53:07.623Z</time></trkpt><trkpt lat="42.037425" lon="13.6678233"><ele>850.6666666666667</ele><time>2026-05-02T11:53:08.624Z</time></trkpt><trkpt lat="42.0374467" lon="13.66772"><ele>850.8333333333334</ele><time>2026-05-02T11:53:09.624Z</time></trkpt><trkpt lat="42.0374617" lon="13.667625"><ele>851.0</ele><time>2026-05-02T11:53:10.624Z</time></trkpt><trkpt lat="42.03747" lon="13.6675233"><ele>851.4</ele><time>2026-05-02T11:53:11.623Z</time></trkpt><trkpt lat="42.0374833" lon="13.66741"><ele>851.8</ele><time>2026-05-02T11:53:12.623Z</time></trkpt><trkpt lat="42.0374967" lon="13.66728"><ele>852.1999999999999</ele><time>2026-05-02T11:53:13.624Z</time></trkpt><trkpt lat="42.0375133" lon="13.6671433"><ele>852.5999999999999</ele><time>2026-05-02T11:53:14.624Z</time></trkpt><trkpt lat="42.0375467" lon="13.66702"><ele>853.0</ele><time>2026-05-02T11:53:15.624Z</time></trkpt><trkpt lat="42.037585" lon="13.666905"><ele>853.0</ele><time>2026-05-02T11:53:16.623Z</time></trkpt><trkpt lat="42.0376383" lon="13.6668017"><ele>853.0</ele><time>2026-05-02T11:53:17.623Z</time></trkpt><trkpt lat="42.0377067" lon="13.666705"><ele>853.0</ele><time>2026-05-02T11:53:18.624Z</time></trkpt><trkpt lat="42.0377767" lon="13.6665933"><ele>853.0</ele><time>2026-05-02T11:53:19.623Z</time></trkpt><trkpt lat="42.037835" lon="13.6664667"><ele>853.0</ele><time>2026-05-02T11:53:20.623Z</time></trkpt><trkpt lat="42.0378783" lon="13.666325"><ele>853.0</ele><time>2026-05-02T11:53:21.624Z</time></trkpt><trkpt lat="42.03791" lon="13.6661833"><ele>853.0</ele><time>2026-05-02T11:53:22.623Z</time></trkpt><trkpt lat="42.037945" lon="13.6660383"><ele>853.0</ele><time>2026-05-02T11:53:23.624Z</time></trkpt><trkpt lat="42.037965" lon="13.6658783"><ele>853.0</ele><time>2026-05-02T11:53:24.624Z</time></trkpt><trkpt lat="42.03799" lon="13.6657083"><ele>853.0</ele><time>2026-05-02T11:53:25.623Z</time></trkpt><trkpt lat="42.0380133" lon="13.665535"><ele>853.0</ele><time>2026-05-02T11:53:26.623Z</time></trkpt><trkpt lat="42.0380283" lon="13.665365"><ele>853.0</ele><time>2026-05-02T11:53:27.624Z</time></trkpt><trkpt lat="42.038055" lon="13.6652033"><ele>853.0</ele><time>2026-05-02T11:53:28.623Z</time></trkpt><trkpt lat="42.0380883" lon="13.6650333"><ele>853.3333333333333</ele><time>2026-05-02T11:53:29.623Z</time></trkpt><trkpt lat="42.03813" lon="13.6648417"><ele>853.6666666666667</ele><time>2026-05-02T11:53:30.623Z</time></trkpt><trkpt lat="42.0381817" lon="13.6646233"><ele>854.0</ele><time>2026-05-02T11:53:31.624Z</time></trkpt><trkpt lat="42.0382333" lon="13.6644033"><ele>854.6666666666667</ele><time>2026-05-02T11:53:32.624Z</time></trkpt><trkpt lat="42.038285" lon="13.6642033"><ele>855.3333333333333</ele><time>2026-05-02T11:53:33.623Z</time></trkpt><trkpt lat="42.03833" lon="13.66401"><ele>856.0</ele><time>2026-05-02T11:53:34.623Z</time></trkpt><trkpt lat="42.038365" lon="13.6638233"><ele>856.0</ele><time>2026-05-02T11:53:35.624Z</time></trkpt><trkpt lat="42.03839" lon="13.6636417"><ele>856.0</ele><time>2026-05-02T11:53:36.623Z</time></trkpt><trkpt lat="42.038425" lon="13.6634533"><ele>856.0</ele><time>2026-05-02T11:53:37.623Z</time></trkpt><trkpt lat="42.03847" lon="13.6632617"><ele>856.0</ele><time>2026-05-02T11:53:38.623Z</time></trkpt><trkpt lat="42.0385167" lon="13.6630633"><ele>856.3333333333333</ele><time>2026-05-02T11:53:39.623Z</time></trkpt><trkpt lat="42.0385783" lon="13.6628633"><ele>856.6666666666667</ele><time>2026-05-02T11:53:40.624Z</time></trkpt><trkpt lat="42.0386467" lon="13.6626683"><ele>857.0</ele><time>2026-05-02T11:53:41.624Z</time></trkpt><trkpt lat="42.0387067" lon="13.6624567"><ele>858.0</ele><time>2026-05-02T11:53:42.624Z</time></trkpt><trkpt lat="42.0387583" lon="13.66224"><ele>859.0</ele><time>2026-05-02T11:53:43.624Z</time></trkpt><trkpt lat="42.0388033" lon="13.662035"><ele>860.0</ele><time>2026-05-02T11:53:44.623Z</time></trkpt><trkpt lat="42.0388467" lon="13.661855"><ele>861.0</ele><time>2026-05-02T11:53:45.622Z</time></trkpt><trkpt lat="42.0388983" lon="13.6616883"><ele>862.0</ele><time>2026-05-02T11:53:46.622Z</time></trkpt><trkpt lat="42.0389717" lon="13.6615067"><ele>863.0</ele><time>2026-05-02T11:53:47.623Z</time></trkpt><trkpt lat="42.0390533" lon="13.66131"><ele>863.3333333333334</ele><time>2026-05-02T11:53:48.623Z</time></trkpt><trkpt lat="42.03913" lon="13.6611067"><ele>863.6666666666667</ele><time>2026-05-02T11:53:49.623Z</time></trkpt><trkpt lat="42.0391983" lon="13.6609083"><ele>864.0</ele><time>2026-05-02T11:53:50.623Z</time></trkpt><trkpt lat="42.039265" lon="13.6606933"><ele>862.3333333333333</ele><time>2026-05-02T11:53:51.623Z</time></trkpt><trkpt lat="42.0393217" lon="13.6604833"><ele>860.6666666666666</ele><time>2026-05-02T11:53:52.622Z</time></trkpt><trkpt lat="42.0393817" lon="13.6602767"><ele>859.0</ele><time>2026-05-02T11:53:53.622Z</time></trkpt><trkpt lat="42.0394333" lon="13.6600833"><ele>859.0</ele><time>2026-05-02T11:53:54.622Z</time></trkpt><trkpt lat="42.0394917" lon="13.6598883"><ele>859.0</ele><time>2026-05-02T11:53:55.623Z</time></trkpt><trkpt lat="42.039555" lon="13.6596883"><ele>859.0</ele><time>2026-05-02T11:53:56.622Z</time></trkpt><trkpt lat="42.03962" lon="13.6595067"><ele>859.25</ele><time>2026-05-02T11:53:57.622Z</time></trkpt><trkpt lat="42.03969" lon="13.6593367"><ele>859.5</ele><time>2026-05-02T11:53:58.623Z</time></trkpt><trkpt lat="42.0397517" lon="13.6591767"><ele>859.75</ele><time>2026-05-02T11:53:59.623Z</time></trkpt><trkpt lat="42.039815" lon="13.659035"><ele>860.0</ele><time>2026-05-02T11:54:00.623Z</time></trkpt><trkpt lat="42.0398817" lon="13.65891"><ele>860.0</ele><time>2026-05-02T11:54:01.622Z</time></trkpt><trkpt lat="42.0399567" lon="13.6588067"><ele>860.0</ele><time>2026-05-02T11:54:02.623Z</time></trkpt><trkpt lat="42.04005" lon="13.658705"><ele>860.0</ele><time>2026-05-02T11:54:03.622Z</time></trkpt><trkpt lat="42.0401633" lon="13.6586067"><ele>860.0</ele><time>2026-05-02T11:54:04.622Z</time></trkpt><trkpt lat="42.0402983" lon="13.6585033"><ele>860.0</ele><time>2026-05-02T11:54:05.623Z</time></trkpt><trkpt lat="42.040455" lon="13.6583917"><ele>860.0</ele><time>2026-05-02T11:54:06.623Z</time></trkpt><trkpt lat="42.0406233" lon="13.6582667"><ele>860.0</ele><time>2026-05-02T11:54:07.622Z</time></trkpt><trkpt lat="42.0408017" lon="13.6581383"><ele>860.0</ele><time>2026-05-02T11:54:08.622Z</time></trkpt><trkpt lat="42.0409667" lon="13.6580217"><ele>860.0</ele><time>2026-05-02T11:54:09.622Z</time></trkpt><trkpt lat="42.0411283" lon="13.6579033"><ele>860.0</ele><time>2026-05-02T11:54:10.622Z</time></trkpt><trkpt lat="42.0412867" lon="13.6577867"><ele>860.0</ele><time>2026-05-02T11:54:11.623Z</time></trkpt><trkpt lat="42.0414467" lon="13.6576783"><ele>860.0</ele><time>2026-05-02T11:54:12.622Z</time></trkpt><trkpt lat="42.0416133" lon="13.6575833"><ele>860.0</ele><time>2026-05-02T11:54:13.623Z</time></trkpt><trkpt lat="42.04177" lon="13.6574967"><ele>860.0</ele><time>2026-05-02T11:54:14.623Z</time></trkpt><trkpt lat="42.0419167" lon="13.6574233"><ele>860.0</ele><time>2026-05-02T11:54:15.622Z</time></trkpt><trkpt lat="42.0420583" lon="13.6573433"><ele>860.0</ele><time>2026-05-02T11:54:16.622Z</time></trkpt><trkpt lat="42.042185" lon="13.6572783"><ele>860.0</ele><time>2026-05-02T11:54:17.623Z</time></trkpt><trkpt lat="42.0422917" lon="13.6572317"><ele>860.0000000000001</ele><time>2026-05-02T11:54:18.623Z</time></trkpt><trkpt lat="42.0423683" lon="13.6571983"><ele>860.0</ele><time>2026-05-02T11:54:19.623Z</time></trkpt><trkpt lat="42.0424567" lon="13.6571633"><ele>860.0</ele><time>2026-05-02T11:54:21.623Z</time></trkpt><trkpt lat="42.0424717" lon="13.6572467"><ele>860.0</ele><time>2026-05-02T11:54:29.622Z</time></trkpt><trkpt lat="42.0424983" lon="13.6573633"><ele>860.0000000000001</ele><time>2026-05-02T11:54:31.623Z</time></trkpt><trkpt lat="42.0425433" lon="13.6575017"><ele>860.0</ele><time>2026-05-02T11:54:33.623Z</time></trkpt><trkpt lat="42.0425783" lon="13.6576617"><ele>859.8</ele><time>2026-05-02T11:54:35.622Z</time></trkpt><trkpt lat="42.0426067" lon="13.6578117"><ele>859.6</ele><time>2026-05-02T11:54:37.622Z</time></trkpt><trkpt lat="42.04265" lon="13.65798"><ele>859.4000000000001</ele><time>2026-05-02T11:54:39.623Z</time></trkpt><trkpt lat="42.0426733" lon="13.6580817"><ele>859.2</ele><time>2026-05-02T11:54:40.622Z</time></trkpt><trkpt lat="42.0426967" lon="13.658215"><ele>859.0</ele><time>2026-05-02T11:54:42.622Z</time></trkpt><trkpt lat="42.042765" lon="13.65824"><ele>859.0</ele><time>2026-05-02T11:54:46.623Z</time></trkpt><trkpt lat="42.0428167" lon="13.658145"><ele>859.0000000000001</ele><time>2026-05-02T11:54:48.623Z</time></trkpt><trkpt lat="42.04293" lon="13.6580483"><ele>859.0000000000001</ele><time>2026-05-02T11:54:50.622Z</time></trkpt><trkpt lat="42.04301" lon="13.6580017"><ele>859.0</ele><time>2026-05-02T11:54:51.622Z</time></trkpt><trkpt lat="42.0431033" lon="13.6579483"><ele>859.0</ele><time>2026-05-02T11:54:52.622Z</time></trkpt><trkpt lat="42.0432033" lon="13.6578867"><ele>859.25</ele><time>2026-05-02T11:54:53.622Z</time></trkpt><trkpt lat="42.043305" lon="13.6578317"><ele>859.5</ele><time>2026-05-02T11:54:54.622Z</time></trkpt><trkpt lat="42.0434117" lon="13.6577783"><ele>859.75</ele><time>2026-05-02T11:54:55.622Z</time></trkpt><trkpt lat="42.0435167" lon="13.6577183"><ele>860.0</ele><time>2026-05-02T11:54:56.623Z</time></trkpt><trkpt lat="42.0436317" lon="13.657655"><ele>859.6</ele><time>2026-05-02T11:54:57.622Z</time></trkpt><trkpt lat="42.0437467" lon="13.6575967"><ele>859.2</ele><time>2026-05-02T11:54:58.623Z</time></trkpt><trkpt lat="42.0438517" lon="13.65755"><ele>858.8</ele><time>2026-05-02T11:54:59.623Z</time></trkpt><trkpt lat="42.0439417" lon="13.6575183"><ele>858.4</ele><time>2026-05-02T11:55:00.622Z</time></trkpt><trkpt lat="42.0440167" lon="13.6575"><ele>858.0</ele><time>2026-05-02T11:55:01.622Z</time></trkpt><trkpt lat="42.0440967" lon="13.6575083"><ele>858.5999999999999</ele><time>2026-05-02T11:55:02.623Z</time></trkpt><trkpt lat="42.044185" lon="13.6575333"><ele>859.1999999999999</ele><time>2026-05-02T11:55:03.623Z</time></trkpt><trkpt lat="42.0442733" lon="13.65754"><ele>859.8</ele><time>2026-05-02T11:55:04.623Z</time></trkpt><trkpt lat="42.0443733" lon="13.6575183"><ele>860.4</ele><time>2026-05-02T11:55:05.622Z</time></trkpt><trkpt lat="42.044465" lon="13.6574867"><ele>861.0</ele><time>2026-05-02T11:55:06.622Z</time></trkpt><trkpt lat="42.044545" lon="13.6574567"><ele>861.0</ele><time>2026-05-02T11:55:07.623Z</time></trkpt><trkpt lat="42.0446283" lon="13.6574217"><ele>861.0</ele><time>2026-05-02T11:55:08.622Z</time></trkpt><trkpt lat="42.0447117" lon="13.65738"><ele>861.0</ele><time>2026-05-02T11:55:09.623Z</time></trkpt><trkpt lat="42.044795" lon="13.657335"><ele>861.0</ele><time>2026-05-02T11:55:10.622Z</time></trkpt><trkpt lat="42.0448767" lon="13.6573067"><ele>861.0</ele><time>2026-05-02T11:55:11.623Z</time></trkpt><trkpt lat="42.0449717" lon="13.65729"><ele>861.0</ele><time>2026-05-02T11:55:12.622Z</time></trkpt><trkpt lat="42.045065" lon="13.6572683"><ele>861.4</ele><time>2026-05-02T11:55:13.622Z</time></trkpt><trkpt lat="42.045145" lon="13.6572367"><ele>861.8</ele><time>2026-05-02T11:55:14.623Z</time></trkpt><trkpt lat="42.0452233" lon="13.6572317"><ele>862.1999999999999</ele><time>2026-05-02T11:55:15.622Z</time></trkpt><trkpt lat="42.045305" lon="13.6572383"><ele>862.5999999999999</ele><time>2026-05-02T11:55:16.623Z</time></trkpt><trkpt lat="42.0454133" lon="13.6572217"><ele>863.0</ele><time>2026-05-02T11:55:17.623Z</time></trkpt><trkpt lat="42.04553" lon="13.657185"><ele>863.0</ele><time>2026-05-02T11:55:18.623Z</time></trkpt><trkpt lat="42.0456317" lon="13.65713"><ele>863.0</ele><time>2026-05-02T11:55:19.623Z</time></trkpt><trkpt lat="42.045725" lon="13.6570783"><ele>863.0</ele><time>2026-05-02T11:55:20.623Z</time></trkpt><trkpt lat="42.045805" lon="13.657035"><ele>863.0</ele><time>2026-05-02T11:55:21.623Z</time></trkpt><trkpt lat="42.04588" lon="13.6569933"><ele>863.0</ele><time>2026-05-02T11:55:22.623Z</time></trkpt><trkpt lat="42.04597" lon="13.6569267"><ele>862.0</ele><time>2026-05-02T11:55:23.622Z</time></trkpt><trkpt lat="42.0460583" lon="13.6568483"><ele>861.0</ele><time>2026-05-02T11:55:24.623Z</time></trkpt><trkpt lat="42.046145" lon="13.6567733"><ele>860.0</ele><time>2026-05-02T11:55:25.623Z</time></trkpt><trkpt lat="42.0462467" lon="13.6567017"><ele>859.0</ele><time>2026-05-02T11:55:26.622Z</time></trkpt><trkpt lat="42.046345" lon="13.6566333"><ele>858.0</ele><time>2026-05-02T11:55:27.623Z</time></trkpt><trkpt lat="42.046445" lon="13.6565567"><ele>858.0</ele><time>2026-05-02T11:55:28.623Z</time></trkpt><trkpt lat="42.0465383" lon="13.656465"><ele>858.0</ele><time>2026-05-02T11:55:29.622Z</time></trkpt><trkpt lat="42.0466483" lon="13.6563717"><ele>858.0</ele><time>2026-05-02T11:55:30.622Z</time></trkpt><trkpt lat="42.046745" lon="13.6562883"><ele>858.0</ele><time>2026-05-02T11:55:31.622Z</time></trkpt><trkpt lat="42.0468517" lon="13.6562067"><ele>857.8</ele><time>2026-05-02T11:55:32.622Z</time></trkpt><trkpt lat="42.0469483" lon="13.6561383"><ele>857.5999999999999</ele><time>2026-05-02T11:55:33.622Z</time></trkpt><trkpt lat="42.0470433" lon="13.65607"><ele>857.4000000000001</ele><time>2026-05-02T11:55:34.623Z</time></trkpt><trkpt lat="42.0471367" lon="13.6560017"><ele>857.2</ele><time>2026-05-02T11:55:35.622Z</time></trkpt><trkpt lat="42.0472367" lon="13.6559367"><ele>857.0</ele><time>2026-05-02T11:55:36.623Z</time></trkpt><trkpt lat="42.0473367" lon="13.6558683"><ele>857.0</ele><time>2026-05-02T11:55:37.623Z</time></trkpt><trkpt lat="42.047435" lon="13.6557817"><ele>857.0</ele><time>2026-05-02T11:55:38.623Z</time></trkpt><trkpt lat="42.0475283" lon="13.655705"><ele>857.0</ele><time>2026-05-02T11:55:39.622Z</time></trkpt><trkpt lat="42.047625" lon="13.6556233"><ele>857.0</ele><time>2026-05-02T11:55:40.623Z</time></trkpt><trkpt lat="42.0477133" lon="13.6555417"><ele>857.0</ele><time>2026-05-02T11:55:41.623Z</time></trkpt><trkpt lat="42.0478017" lon="13.6554333"><ele>857.0</ele><time>2026-05-02T11:55:42.623Z</time></trkpt><trkpt lat="42.0478883" lon="13.6553033"><ele>857.0</ele><time>2026-05-02T11:55:43.623Z</time></trkpt><trkpt lat="42.04799" lon="13.65516"><ele>857.0</ele><time>2026-05-02T11:55:44.622Z</time></trkpt><trkpt lat="42.0480817" lon="13.65503"><ele>857.0</ele><time>2026-05-02T11:55:45.623Z</time></trkpt><trkpt lat="42.0481717" lon="13.6549033"><ele>857.0</ele><time>2026-05-02T11:55:46.622Z</time></trkpt><trkpt lat="42.048255" lon="13.6547817"><ele>857.0</ele><time>2026-05-02T11:55:47.623Z</time></trkpt><trkpt lat="42.04833" lon="13.6546467"><ele>857.0</ele><time>2026-05-02T11:55:48.623Z</time></trkpt><trkpt lat="42.048405" lon="13.6545033"><ele>857.0</ele><time>2026-05-02T11:55:49.622Z</time></trkpt><trkpt lat="42.0484783" lon="13.6543917"><ele>857.4000000000001</ele><time>2026-05-02T11:55:50.622Z</time></trkpt><trkpt lat="42.048565" lon="13.6542983"><ele>857.8000000000001</ele><time>2026-05-02T11:55:51.622Z</time></trkpt><trkpt lat="42.04865" lon="13.654225"><ele>858.2</ele><time>2026-05-02T11:55:52.622Z</time></trkpt><trkpt lat="42.0487317" lon="13.6541483"><ele>858.6</ele><time>2026-05-02T11:55:53.622Z</time></trkpt><trkpt lat="42.0488067" lon="13.6540433"><ele>859.0</ele><time>2026-05-02T11:55:54.622Z</time></trkpt><trkpt lat="42.0488833" lon="13.6539333"><ele>859.0</ele><time>2026-05-02T11:55:55.622Z</time></trkpt><trkpt lat="42.0489733" lon="13.6538333"><ele>859.0</ele><time>2026-05-02T11:55:56.623Z</time></trkpt><trkpt lat="42.049075" lon="13.653745"><ele>859.0</ele><time>2026-05-02T11:55:57.623Z</time></trkpt><trkpt lat="42.04917" lon="13.65365"><ele>859.0</ele><time>2026-05-02T11:55:58.622Z</time></trkpt><trkpt lat="42.04926" lon="13.6535533"><ele>858.5</ele><time>2026-05-02T11:55:59.623Z</time></trkpt><trkpt lat="42.04934" lon="13.653435"><ele>858.0</ele><time>2026-05-02T11:56:00.622Z</time></trkpt><trkpt lat="42.0494067" lon="13.6533167"><ele>857.5</ele><time>2026-05-02T11:56:01.622Z</time></trkpt><trkpt lat="42.049485" lon="13.6532083"><ele>857.0</ele><time>2026-05-02T11:56:02.622Z</time></trkpt><trkpt lat="42.04957" lon="13.6531133"><ele>857.0000000000001</ele><time>2026-05-02T11:56:03.622Z</time></trkpt><trkpt lat="42.0496417" lon="13.6530217"><ele>857.0</ele><time>2026-05-02T11:56:04.623Z</time></trkpt><trkpt lat="42.04969" lon="13.6529317"><ele>857.0</ele><time>2026-05-02T11:56:05.622Z</time></trkpt><trkpt lat="42.0497317" lon="13.6528267"><ele>857.0</ele><time>2026-05-02T11:56:06.622Z</time></trkpt><trkpt lat="42.04978" lon="13.6527217"><ele>857.0000000000001</ele><time>2026-05-02T11:56:07.623Z</time></trkpt><trkpt lat="42.0498317" lon="13.65264"><ele>857.0</ele><time>2026-05-02T11:56:08.623Z</time></trkpt><trkpt lat="42.0498883" lon="13.6525717"><ele>857.2</ele><time>2026-05-02T11:56:09.622Z</time></trkpt><trkpt lat="42.049975" lon="13.6524967"><ele>857.4000000000001</ele><time>2026-05-02T11:56:11.623Z</time></trkpt><trkpt lat="42.0500467" lon="13.6523567"><ele>857.5999999999999</ele><time>2026-05-02T11:56:13.622Z</time></trkpt><trkpt lat="42.050085" lon="13.6522767"><ele>857.8</ele><time>2026-05-02T11:56:14.622Z</time></trkpt><trkpt lat="42.050125" lon="13.6521983"><ele>858.0</ele><time>2026-05-02T11:56:15.623Z</time></trkpt><trkpt lat="42.050225" lon="13.6520733"><ele>858.0</ele><time>2026-05-02T11:56:17.623Z</time></trkpt><trkpt lat="42.0502983" lon="13.6520067"><ele>858.0</ele><time>2026-05-02T11:56:18.623Z</time></trkpt><trkpt lat="42.050365" lon="13.651945"><ele>858.0</ele><time>2026-05-02T11:56:19.623Z</time></trkpt><trkpt lat="42.05043" lon="13.6518967"><ele>858.0</ele><time>2026-05-02T11:56:20.622Z</time></trkpt><trkpt lat="42.0504933" lon="13.6518617"><ele>858.0</ele><time>2026-05-02T11:56:21.622Z</time></trkpt><trkpt lat="42.0505617" lon="13.6518317"><ele>858.0</ele><time>2026-05-02T11:56:22.623Z</time></trkpt><trkpt lat="42.050635" lon="13.651785"><ele>857.5</ele><time>2026-05-02T11:56:23.622Z</time></trkpt><trkpt lat="42.0507067" lon="13.6517317"><ele>857.0</ele><time>2026-05-02T11:56:24.622Z</time></trkpt><trkpt lat="42.050775" lon="13.6516683"><ele>856.5</ele><time>2026-05-02T11:56:25.623Z</time></trkpt><trkpt lat="42.050825" lon="13.6516017"><ele>856.0</ele><time>2026-05-02T11:56:26.622Z</time></trkpt><trkpt lat="42.05088" lon="13.6514417"><ele>855.5</ele><time>2026-05-02T11:56:28.623Z</time></trkpt><trkpt lat="42.0509067" lon="13.6513633"><ele>855.0</ele><time>2026-05-02T11:56:29.623Z</time></trkpt><trkpt lat="42.0509317" lon="13.6512817"><ele>855.6</ele><time>2026-05-02T11:56:30.623Z</time></trkpt><trkpt lat="42.05096" lon="13.651135"><ele>856.2</ele><time>2026-05-02T11:56:32.623Z</time></trkpt><trkpt lat="42.05094" lon="13.650995"><ele>856.8</ele><time>2026-05-02T11:56:34.622Z</time></trkpt><trkpt lat="42.05091" lon="13.6508533"><ele>857.4</ele><time>2026-05-02T11:56:36.622Z</time></trkpt><trkpt lat="42.0508733" lon="13.6507083"><ele>858.0</ele><time>2026-05-02T11:56:38.622Z</time></trkpt><trkpt lat="42.050855" lon="13.6506183"><ele>858.0</ele><time>2026-05-02T11:56:39.623Z</time></trkpt><trkpt lat="42.0508417" lon="13.6505283"><ele>858.0</ele><time>2026-05-02T11:56:40.622Z</time></trkpt><trkpt lat="42.0508433" lon="13.650365"><ele>858.0</ele><time>2026-05-02T11:56:42.623Z</time></trkpt><trkpt lat="42.050925" lon="13.6502067"><ele>858.0</ele><time>2026-05-02T11:56:44.623Z</time></trkpt><trkpt lat="42.0509883" lon="13.6501183"><ele>858.0</ele><time>2026-05-02T11:56:45.623Z</time></trkpt><trkpt lat="42.0510583" lon="13.6500167"><ele>856.75</ele><time>2026-05-02T11:56:46.623Z</time></trkpt><trkpt lat="42.0511333" lon="13.64992"><ele>855.5</ele><time>2026-05-02T11:56:47.623Z</time></trkpt><trkpt lat="42.0512117" lon="13.6498133"><ele>854.25</ele><time>2026-05-02T11:56:48.623Z</time></trkpt><trkpt lat="42.0512867" lon="13.6497017"><ele>853.0</ele><time>2026-05-02T11:56:49.622Z</time></trkpt><trkpt lat="42.0513667" lon="13.6495767"><ele>851.75</ele><time>2026-05-02T11:56:50.622Z</time></trkpt><trkpt lat="42.05144" lon="13.6494517"><ele>850.5</ele><time>2026-05-02T11:56:51.622Z</time></trkpt><trkpt lat="42.0515117" lon="13.6493167"><ele>849.25</ele><time>2026-05-02T11:56:52.623Z</time></trkpt><trkpt lat="42.0515667" lon="13.6491817"><ele>848.0</ele><time>2026-05-02T11:56:53.622Z</time></trkpt><trkpt lat="42.0516017" lon="13.6490417"><ele>849.0</ele><time>2026-05-02T11:56:54.622Z</time></trkpt><trkpt lat="42.0516333" lon="13.6489033"><ele>850.0</ele><time>2026-05-02T11:56:55.622Z</time></trkpt><trkpt lat="42.0516783" lon="13.6487767"><ele>851.0</ele><time>2026-05-02T11:56:56.623Z</time></trkpt><trkpt lat="42.051745" lon="13.648655"><ele>852.0</ele><time>2026-05-02T11:56:57.623Z</time></trkpt><trkpt lat="42.0518317" lon="13.64853"><ele>852.0</ele><time>2026-05-02T11:56:58.622Z</time></trkpt><trkpt lat="42.0519367" lon="13.648405"><ele>852.0</ele><time>2026-05-02T11:56:59.623Z</time></trkpt><trkpt lat="42.052035" lon="13.648285"><ele>852.0</ele><time>2026-05-02T11:57:00.623Z</time></trkpt><trkpt lat="42.05213" lon="13.648175"><ele>852.0</ele><time>2026-05-02T11:57:01.622Z</time></trkpt><trkpt lat="42.0522217" lon="13.6480683"><ele>852.0</ele><time>2026-05-02T11:57:02.623Z</time></trkpt><trkpt lat="42.0523117" lon="13.64797"><ele>852.0</ele><time>2026-05-02T11:57:03.623Z</time></trkpt><trkpt lat="42.0523967" lon="13.6478683"><ele>852.0</ele><time>2026-05-02T11:57:04.622Z</time></trkpt><trkpt lat="42.0524883" lon="13.647765"><ele>852.0</ele><time>2026-05-02T11:57:05.623Z</time></trkpt><trkpt lat="42.0525817" lon="13.647655"><ele>852.25</ele><time>2026-05-02T11:57:06.622Z</time></trkpt><trkpt lat="42.0526667" lon="13.6475383"><ele>852.5</ele><time>2026-05-02T11:57:07.622Z</time></trkpt><trkpt lat="42.0527483" lon="13.6474317"><ele>852.75</ele><time>2026-05-02T11:57:08.623Z</time></trkpt><trkpt lat="42.0528333" lon="13.647325"><ele>853.0</ele><time>2026-05-02T11:57:09.623Z</time></trkpt><trkpt lat="42.0529233" lon="13.64722"><ele>853.0</ele><time>2026-05-02T11:57:10.622Z</time></trkpt><trkpt lat="42.053015" lon="13.6471283"><ele>853.0</ele><time>2026-05-02T11:57:11.622Z</time></trkpt><trkpt lat="42.0531233" lon="13.647035"><ele>853.0</ele><time>2026-05-02T11:57:12.622Z</time></trkpt><trkpt lat="42.0532317" lon="13.646935"><ele>853.0</ele><time>2026-05-02T11:57:13.623Z</time></trkpt><trkpt lat="42.053335" lon="13.6468283"><ele>853.5</ele><time>2026-05-02T11:57:14.622Z</time></trkpt><trkpt lat="42.0534433" lon="13.6467283"><ele>854.0</ele><time>2026-05-02T11:57:15.623Z</time></trkpt><trkpt lat="42.0535483" lon="13.6466233"><ele>854.5</ele><time>2026-05-02T11:57:16.623Z</time></trkpt><trkpt lat="42.05364" lon="13.6465267"><ele>855.0</ele><time>2026-05-02T11:57:17.623Z</time></trkpt><trkpt lat="42.0537283" lon="13.6464317"><ele>855.0</ele><time>2026-05-02T11:57:18.623Z</time></trkpt><trkpt lat="42.0538233" lon="13.646335"><ele>855.0</ele><time>2026-05-02T11:57:19.622Z</time></trkpt><trkpt lat="42.0539167" lon="13.6462233"><ele>855.0</ele><time>2026-05-02T11:57:20.623Z</time></trkpt><trkpt lat="42.0540133" lon="13.6461183"><ele>855.0</ele><time>2026-05-02T11:57:21.623Z</time></trkpt><trkpt lat="42.0541083" lon="13.646005"><ele>854.5</ele><time>2026-05-02T11:57:22.622Z</time></trkpt><trkpt lat="42.0542017" lon="13.64589"><ele>854.0</ele><time>2026-05-02T11:57:23.623Z</time></trkpt><trkpt lat="42.0542967" lon="13.6457783"><ele>853.5</ele><time>2026-05-02T11:57:24.622Z</time></trkpt><trkpt lat="42.0543983" lon="13.6456683"><ele>853.0</ele><time>2026-05-02T11:57:25.621Z</time></trkpt><trkpt lat="42.054495" lon="13.6455567"><ele>853.0</ele><time>2026-05-02T11:57:26.622Z</time></trkpt><trkpt lat="42.0545967" lon="13.64544"><ele>853.0</ele><time>2026-05-02T11:57:27.621Z</time></trkpt><trkpt lat="42.0546767" lon="13.64532"><ele>853.0</ele><time>2026-05-02T11:57:28.622Z</time></trkpt><trkpt lat="42.05476" lon="13.6452"><ele>853.0</ele><time>2026-05-02T11:57:29.622Z</time></trkpt><trkpt lat="42.0548367" lon="13.64507"><ele>853.25</ele><time>2026-05-02T11:57:30.622Z</time></trkpt><trkpt lat="42.0548983" lon="13.6449383"><ele>853.5</ele><time>2026-05-02T11:57:31.622Z</time></trkpt><trkpt lat="42.0549467" lon="13.6448067"><ele>853.75</ele><time>2026-05-02T11:57:32.621Z</time></trkpt><trkpt lat="42.0549817" lon="13.6446583"><ele>854.0</ele><time>2026-05-02T11:57:33.622Z</time></trkpt><trkpt lat="42.0550083" lon="13.6445017"><ele>853.4000000000001</ele><time>2026-05-02T11:57:34.622Z</time></trkpt><trkpt lat="42.05503" lon="13.6443617"><ele>852.8000000000001</ele><time>2026-05-02T11:57:35.621Z</time></trkpt><trkpt lat="42.0550467" lon="13.6442317"><ele>852.2</ele><time>2026-05-02T11:57:36.622Z</time></trkpt><trkpt lat="42.0550817" lon="13.6441217"><ele>851.5999999999999</ele><time>2026-05-02T11:57:37.621Z</time></trkpt><trkpt lat="42.0551267" lon="13.6440083"><ele>851.0</ele><time>2026-05-02T11:57:38.622Z</time></trkpt><trkpt lat="42.05517" lon="13.643885"><ele>851.0</ele><time>2026-05-02T11:57:39.622Z</time></trkpt><trkpt lat="42.0552017" lon="13.6437483"><ele>851.0</ele><time>2026-05-02T11:57:40.621Z</time></trkpt><trkpt lat="42.055225" lon="13.6435967"><ele>851.0</ele><time>2026-05-02T11:57:41.622Z</time></trkpt><trkpt lat="42.0552533" lon="13.6434367"><ele>851.0</ele><time>2026-05-02T11:57:42.622Z</time></trkpt><trkpt lat="42.05528" lon="13.6432733"><ele>851.0</ele><time>2026-05-02T11:57:43.621Z</time></trkpt><trkpt lat="42.0553117" lon="13.6431217"><ele>851.0</ele><time>2026-05-02T11:57:44.621Z</time></trkpt><trkpt lat="42.0553433" lon="13.6429833"><ele>851.0</ele><time>2026-05-02T11:57:45.621Z</time></trkpt><trkpt lat="42.055385" lon="13.64285"><ele>851.0</ele><time>2026-05-02T11:57:46.621Z</time></trkpt><trkpt lat="42.0554367" lon="13.6427133"><ele>851.0</ele><time>2026-05-02T11:57:47.622Z</time></trkpt><trkpt lat="42.0554967" lon="13.6425817"><ele>851.0000000000001</ele><time>2026-05-02T11:57:48.621Z</time></trkpt><trkpt lat="42.05554" lon="13.6424667"><ele>851.0</ele><time>2026-05-02T11:57:49.621Z</time></trkpt><trkpt lat="42.0555883" lon="13.6423667"><ele>851.0</ele><time>2026-05-02T11:57:50.622Z</time></trkpt><trkpt lat="42.0556433" lon="13.642295"><ele>851.0</ele><time>2026-05-02T11:57:51.622Z</time></trkpt><trkpt lat="42.0557133" lon="13.642245"><ele>851.0000000000001</ele><time>2026-05-02T11:57:52.622Z</time></trkpt><trkpt lat="42.055815" lon="13.6421933"><ele>851.0</ele><time>2026-05-02T11:57:53.622Z</time></trkpt><trkpt lat="42.0559433" lon="13.64214"><ele>851.5</ele><time>2026-05-02T11:57:54.621Z</time></trkpt><trkpt lat="42.0560783" lon="13.642085"><ele>852.0</ele><time>2026-05-02T11:57:55.622Z</time></trkpt><trkpt lat="42.056225" lon="13.6420167"><ele>852.5</ele><time>2026-05-02T11:57:56.621Z</time></trkpt><trkpt lat="42.0563583" lon="13.6419433"><ele>853.0</ele><time>2026-05-02T11:57:57.621Z</time></trkpt><trkpt lat="42.0565" lon="13.6418883"><ele>853.0</ele><time>2026-05-02T11:57:58.622Z</time></trkpt><trkpt lat="42.0566267" lon="13.64184"><ele>853.0</ele><time>2026-05-02T11:57:59.621Z</time></trkpt><trkpt lat="42.0567467" lon="13.64179"><ele>853.0</ele><time>2026-05-02T11:58:00.621Z</time></trkpt><trkpt lat="42.0568683" lon="13.6417517"><ele>853.0</ele><time>2026-05-02T11:58:01.622Z</time></trkpt><trkpt lat="42.056975" lon="13.6417217"><ele>853.0</ele><time>2026-05-02T11:58:02.622Z</time></trkpt><trkpt lat="42.057075" lon="13.6417183"><ele>853.0</ele><time>2026-05-02T11:58:03.622Z</time></trkpt><trkpt lat="42.05719" lon="13.6417383"><ele>853.0</ele><time>2026-05-02T11:58:04.621Z</time></trkpt><trkpt lat="42.0573217" lon="13.6417617"><ele>853.0</ele><time>2026-05-02T11:58:05.622Z</time></trkpt><trkpt lat="42.0574483" lon="13.6417617"><ele>853.5</ele><time>2026-05-02T11:58:06.621Z</time></trkpt><trkpt lat="42.0575617" lon="13.6417583"><ele>854.0</ele><time>2026-05-02T11:58:07.622Z</time></trkpt><trkpt lat="42.057675" lon="13.6417367"><ele>854.5</ele><time>2026-05-02T11:58:08.622Z</time></trkpt><trkpt lat="42.0577983" lon="13.6416783"><ele>855.0</ele><time>2026-05-02T11:58:09.622Z</time></trkpt><trkpt lat="42.0579233" lon="13.6416083"><ele>855.0</ele><time>2026-05-02T11:58:10.621Z</time></trkpt><trkpt lat="42.05804" lon="13.6415467"><ele>855.0</ele><time>2026-05-02T11:58:11.621Z</time></trkpt><trkpt lat="42.0581667" lon="13.6414883"><ele>855.0</ele><time>2026-05-02T11:58:12.622Z</time></trkpt><trkpt lat="42.0582967" lon="13.6414283"><ele>855.0</ele><time>2026-05-02T11:58:13.621Z</time></trkpt><trkpt lat="42.0584283" lon="13.6413733"><ele>855.5</ele><time>2026-05-02T11:58:14.621Z</time></trkpt><trkpt lat="42.058545" lon="13.6413233"><ele>856.0</ele><time>2026-05-02T11:58:15.622Z</time></trkpt><trkpt lat="42.0586567" lon="13.6412783"><ele>856.5</ele><time>2026-05-02T11:58:16.622Z</time></trkpt><trkpt lat="42.0587633" lon="13.6412333"><ele>857.0</ele><time>2026-05-02T11:58:17.622Z</time></trkpt><trkpt lat="42.0588667" lon="13.6412"><ele>857.0</ele><time>2026-05-02T11:58:18.622Z</time></trkpt><trkpt lat="42.0589667" lon="13.64118"><ele>857.0</ele><time>2026-05-02T11:58:19.621Z</time></trkpt><trkpt lat="42.0590717" lon="13.6411783"><ele>857.0</ele><time>2026-05-02T11:58:20.621Z</time></trkpt><trkpt lat="42.0591733" lon="13.6411817"><ele>857.0</ele><time>2026-05-02T11:58:21.621Z</time></trkpt><trkpt lat="42.05926" lon="13.6411833"><ele>857.0</ele><time>2026-05-02T11:58:22.622Z</time></trkpt><trkpt lat="42.0593267" lon="13.6411833"><ele>857.4000000000001</ele><time>2026-05-02T11:58:23.621Z</time></trkpt><trkpt lat="42.0594267" lon="13.6411883"><ele>857.8000000000001</ele><time>2026-05-02T11:58:25.621Z</time></trkpt><trkpt lat="42.0595117" lon="13.6411583"><ele>858.2</ele><time>2026-05-02T11:58:39.621Z</time></trkpt><trkpt lat="42.0596517" lon="13.6411383"><ele>858.6</ele><time>2026-05-02T11:58:41.622Z</time></trkpt><trkpt lat="42.059735" lon="13.64113"><ele>859.0</ele><time>2026-05-02T11:58:42.622Z</time></trkpt><trkpt lat="42.05982" lon="13.641125"><ele>859.1666666666666</ele><time>2026-05-02T11:58:43.621Z</time></trkpt><trkpt lat="42.0599033" lon="13.6411233"><ele>859.3333333333333</ele><time>2026-05-02T11:58:44.622Z</time></trkpt><trkpt lat="42.0599833" lon="13.641135"><ele>859.5</ele><time>2026-05-02T11:58:45.621Z</time></trkpt><trkpt lat="42.0600733" lon="13.6411483"><ele>859.6666666666667</ele><time>2026-05-02T11:58:46.622Z</time></trkpt><trkpt lat="42.06017" lon="13.6411717"><ele>859.8333333333334</ele><time>2026-05-02T11:58:47.621Z</time></trkpt><trkpt lat="42.0602617" lon="13.6411917"><ele>860.0</ele><time>2026-05-02T11:58:48.622Z</time></trkpt><trkpt lat="42.0603583" lon="13.6412083"><ele>860.0</ele><time>2026-05-02T11:58:49.622Z</time></trkpt><trkpt lat="42.06047" lon="13.6412083"><ele>860.0</ele><time>2026-05-02T11:58:50.621Z</time></trkpt><trkpt lat="42.0606" lon="13.6412033"><ele>860.0</ele><time>2026-05-02T11:58:51.622Z</time></trkpt><trkpt lat="42.0607383" lon="13.6411917"><ele>860.0</ele><time>2026-05-02T11:58:52.622Z</time></trkpt><trkpt lat="42.060875" lon="13.64117"><ele>860.0</ele><time>2026-05-02T11:58:53.621Z</time></trkpt><trkpt lat="42.061005" lon="13.64115"><ele>860.0</ele><time>2026-05-02T11:58:54.621Z</time></trkpt><trkpt lat="42.0611267" lon="13.641115"><ele>860.0</ele><time>2026-05-02T11:58:55.621Z</time></trkpt><trkpt lat="42.0612533" lon="13.6410767"><ele>860.0</ele><time>2026-05-02T11:58:56.621Z</time></trkpt><trkpt lat="42.0613667" lon="13.64104"><ele>860.0</ele><time>2026-05-02T11:58:57.621Z</time></trkpt><trkpt lat="42.0614767" lon="13.6410017"><ele>860.0</ele><time>2026-05-02T11:58:58.621Z</time></trkpt><trkpt lat="42.0615883" lon="13.6409617"><ele>860.0</ele><time>2026-05-02T11:58:59.621Z</time></trkpt><trkpt lat="42.0616967" lon="13.64091"><ele>860.0</ele><time>2026-05-02T11:59:00.622Z</time></trkpt><trkpt lat="42.0618067" lon="13.640845"><ele>861.75</ele><time>2026-05-02T11:59:01.622Z</time></trkpt><trkpt lat="42.0619117" lon="13.6407667"><ele>863.5</ele><time>2026-05-02T11:59:02.621Z</time></trkpt><trkpt lat="42.0620133" lon="13.6406783"><ele>865.25</ele><time>2026-05-02T11:59:03.622Z</time></trkpt><trkpt lat="42.0621017" lon="13.6405867"><ele>867.0</ele><time>2026-05-02T11:59:04.621Z</time></trkpt><trkpt lat="42.0621967" lon="13.6404933"><ele>867.0</ele><time>2026-05-02T11:59:05.622Z</time></trkpt><trkpt lat="42.0622917" lon="13.6403883"><ele>867.0</ele><time>2026-05-02T11:59:06.622Z</time></trkpt><trkpt lat="42.062385" lon="13.6402783"><ele>867.0</ele><time>2026-05-02T11:59:07.622Z</time></trkpt><trkpt lat="42.0624717" lon="13.6401683"><ele>867.0</ele><time>2026-05-02T11:59:08.622Z</time></trkpt><trkpt lat="42.062545" lon="13.6400633"><ele>867.0</ele><time>2026-05-02T11:59:09.621Z</time></trkpt><trkpt lat="42.0626183" lon="13.6399733"><ele>867.0</ele><time>2026-05-02T11:59:10.622Z</time></trkpt><trkpt lat="42.0626817" lon="13.6398967"><ele>867.0</ele><time>2026-05-02T11:59:11.621Z</time></trkpt><trkpt lat="42.0627633" lon="13.6398283"><ele>867.0</ele><time>2026-05-02T11:59:12.622Z</time></trkpt><trkpt lat="42.0628567" lon="13.6397617"><ele>867.0</ele><time>2026-05-02T11:59:13.622Z</time></trkpt><trkpt lat="42.0629533" lon="13.63969"><ele>867.0</ele><time>2026-05-02T11:59:14.621Z</time></trkpt><trkpt lat="42.063055" lon="13.6396183"><ele>867.0</ele><time>2026-05-02T11:59:15.622Z</time></trkpt><trkpt lat="42.063155" lon="13.6395517"><ele>867.0</ele><time>2026-05-02T11:59:16.621Z</time></trkpt><trkpt lat="42.0632583" lon="13.6394783"><ele>867.0</ele><time>2026-05-02T11:59:17.621Z</time></trkpt><trkpt lat="42.063365" lon="13.6393967"><ele>866.6</ele><time>2026-05-02T11:59:18.622Z</time></trkpt><trkpt lat="42.063465" lon="13.639315"><ele>866.2</ele><time>2026-05-02T11:59:19.621Z</time></trkpt><trkpt lat="42.0635617" lon="13.6392467"><ele>865.8</ele><time>2026-05-02T11:59:20.622Z</time></trkpt><trkpt lat="42.0636467" lon="13.639175"><ele>865.4</ele><time>2026-05-02T11:59:21.622Z</time></trkpt><trkpt lat="42.0637267" lon="13.6391133"><ele>865.0</ele><time>2026-05-02T11:59:22.622Z</time></trkpt><trkpt lat="42.06379" lon="13.6390467"><ele>864.9999999999999</ele><time>2026-05-02T11:59:23.622Z</time></trkpt><trkpt lat="42.0638467" lon="13.6389817"><ele>865.0</ele><time>2026-05-02T11:59:24.622Z</time></trkpt><trkpt lat="42.0638933" lon="13.6389233"><ele>865.0</ele><time>2026-05-02T11:59:25.621Z</time></trkpt><trkpt lat="42.0639567" lon="13.6388633"><ele>865.0</ele><time>2026-05-02T11:59:26.622Z</time></trkpt><trkpt lat="42.0640367" lon="13.6387933"><ele>864.9999999999999</ele><time>2026-05-02T11:59:27.621Z</time></trkpt><trkpt lat="42.0641367" lon="13.63871"><ele>865.0</ele><time>2026-05-02T11:59:28.621Z</time></trkpt><trkpt lat="42.06424" lon="13.63861"><ele>864.75</ele><time>2026-05-02T11:59:29.622Z</time></trkpt><trkpt lat="42.0643533" lon="13.63851"><ele>864.5</ele><time>2026-05-02T11:59:30.622Z</time></trkpt><trkpt lat="42.0644683" lon="13.6384067"><ele>864.25</ele><time>2026-05-02T11:59:31.621Z</time></trkpt><trkpt lat="42.0645733" lon="13.6383033"><ele>864.0</ele><time>2026-05-02T11:59:32.621Z</time></trkpt><trkpt lat="42.0646783" lon="13.6381983"><ele>864.0</ele><time>2026-05-02T11:59:33.621Z</time></trkpt><trkpt lat="42.0647833" lon="13.6380883"><ele>864.0</ele><time>2026-05-02T11:59:34.622Z</time></trkpt><trkpt lat="42.0648917" lon="13.63797"><ele>864.0</ele><time>2026-05-02T11:59:35.622Z</time></trkpt><trkpt lat="42.065005" lon="13.637845"><ele>864.0</ele><time>2026-05-02T11:59:36.621Z</time></trkpt><trkpt lat="42.06511" lon="13.6377233"><ele>864.25</ele><time>2026-05-02T11:59:37.622Z</time></trkpt><trkpt lat="42.0652117" lon="13.6376067"><ele>864.5</ele><time>2026-05-02T11:59:38.622Z</time></trkpt><trkpt lat="42.06531" lon="13.637495"><ele>864.75</ele><time>2026-05-02T11:59:39.621Z</time></trkpt><trkpt lat="42.0654017" lon="13.63738"><ele>865.0</ele><time>2026-05-02T11:59:40.622Z</time></trkpt><trkpt lat="42.0654983" lon="13.637275"><ele>865.0</ele><time>2026-05-02T11:59:41.622Z</time></trkpt><trkpt lat="42.0656067" lon="13.6371833"><ele>865.0</ele><time>2026-05-02T11:59:42.622Z</time></trkpt><trkpt lat="42.0657117" lon="13.6371083"><ele>865.0</ele><time>2026-05-02T11:59:43.621Z</time></trkpt><trkpt lat="42.0658183" lon="13.637025"><ele>865.0</ele><time>2026-05-02T11:59:44.622Z</time></trkpt><trkpt lat="42.0659367" lon="13.6369383"><ele>865.25</ele><time>2026-05-02T11:59:45.622Z</time></trkpt><trkpt lat="42.0660483" lon="13.636835"><ele>865.5</ele><time>2026-05-02T11:59:46.621Z</time></trkpt><trkpt lat="42.066175" lon="13.6367383"><ele>865.75</ele><time>2026-05-02T11:59:47.622Z</time></trkpt><trkpt lat="42.0663017" lon="13.6366417"><ele>866.0</ele><time>2026-05-02T11:59:48.621Z</time></trkpt><trkpt lat="42.066425" lon="13.6365417"><ele>866.0</ele><time>2026-05-02T11:59:49.622Z</time></trkpt><trkpt lat="42.066545" lon="13.6364467"><ele>866.0</ele><time>2026-05-02T11:59:50.622Z</time></trkpt><trkpt lat="42.0666633" lon="13.6363367"><ele>866.0</ele><time>2026-05-02T11:59:51.621Z</time></trkpt><trkpt lat="42.0667733" lon="13.636235"><ele>866.0</ele><time>2026-05-02T11:59:52.622Z</time></trkpt><trkpt lat="42.0668783" lon="13.63615"><ele>866.8333333333334</ele><time>2026-05-02T11:59:53.621Z</time></trkpt><trkpt lat="42.0669683" lon="13.63607"><ele>867.6666666666667</ele><time>2026-05-02T11:59:54.622Z</time></trkpt><trkpt lat="42.0670467" lon="13.6359983"><ele>868.5</ele><time>2026-05-02T11:59:55.621Z</time></trkpt><trkpt lat="42.0671117" lon="13.6359283"><ele>869.3333333333333</ele><time>2026-05-02T11:59:56.622Z</time></trkpt><trkpt lat="42.0671833" lon="13.6358767"><ele>870.1666666666666</ele><time>2026-05-02T11:59:57.621Z</time></trkpt><trkpt lat="42.0672633" lon="13.6358517"><ele>871.0</ele><time>2026-05-02T11:59:58.622Z</time></trkpt><trkpt lat="42.0673483" lon="13.6358317"><ele>871.0</ele><time>2026-05-02T11:59:59.622Z</time></trkpt><trkpt lat="42.067435" lon="13.635815"><ele>870.9999999999999</ele><time>2026-05-02T12:00:00.621Z</time></trkpt><trkpt lat="42.0675267" lon="13.6357717"><ele>870.9999999999999</ele><time>2026-05-02T12:00:01.622Z</time></trkpt><trkpt lat="42.0676217" lon="13.6357083"><ele>871.0</ele><time>2026-05-02T12:00:02.622Z</time></trkpt><trkpt lat="42.0677183" lon="13.6356267"><ele>871.0</ele><time>2026-05-02T12:00:03.621Z</time></trkpt><trkpt lat="42.0678133" lon="13.6355383"><ele>872.25</ele><time>2026-05-02T12:00:04.622Z</time></trkpt><trkpt lat="42.067915" lon="13.6354433"><ele>873.5</ele><time>2026-05-02T12:00:05.622Z</time></trkpt><trkpt lat="42.0680183" lon="13.6353417"><ele>874.75</ele><time>2026-05-02T12:00:06.621Z</time></trkpt><trkpt lat="42.0681167" lon="13.6352467"><ele>876.0</ele><time>2026-05-02T12:00:07.621Z</time></trkpt><trkpt lat="42.0682133" lon="13.635145"><ele>878.25</ele><time>2026-05-02T12:00:08.622Z</time></trkpt><trkpt lat="42.0683033" lon="13.63504"><ele>880.5</ele><time>2026-05-02T12:00:09.622Z</time></trkpt><trkpt lat="42.068405" lon="13.6349333"><ele>882.75</ele><time>2026-05-02T12:00:10.622Z</time></trkpt><trkpt lat="42.0685" lon="13.6348367"><ele>885.0</ele><time>2026-05-02T12:00:11.621Z</time></trkpt><trkpt lat="42.06859" lon="13.63473"><ele>885.0</ele><time>2026-05-02T12:00:12.622Z</time></trkpt><trkpt lat="42.068685" lon="13.6346267"><ele>885.0</ele><time>2026-05-02T12:00:13.621Z</time></trkpt><trkpt lat="42.0687783" lon="13.6345183"><ele>885.0</ele><time>2026-05-02T12:00:14.622Z</time></trkpt><trkpt lat="42.0688617" lon="13.6344183"><ele>885.0</ele><time>2026-05-02T12:00:15.622Z</time></trkpt><trkpt lat="42.0689433" lon="13.634325"><ele>884.4</ele><time>2026-05-02T12:00:16.622Z</time></trkpt><trkpt lat="42.06902" lon="13.6342367"><ele>883.8</ele><time>2026-05-02T12:00:17.622Z</time></trkpt><trkpt lat="42.069085" lon="13.63415"><ele>883.2</ele><time>2026-05-02T12:00:18.621Z</time></trkpt><trkpt lat="42.0691483" lon="13.6340617"><ele>882.6</ele><time>2026-05-02T12:00:19.622Z</time></trkpt><trkpt lat="42.0691983" lon="13.6339833"><ele>882.0</ele><time>2026-05-02T12:00:20.621Z</time></trkpt><trkpt lat="42.0692817" lon="13.633875"><ele>883.2</ele><time>2026-05-02T12:00:22.622Z</time></trkpt><trkpt lat="42.0693583" lon="13.63383"><ele>884.4000000000001</ele><time>2026-05-02T12:00:24.622Z</time></trkpt><trkpt lat="42.0694483" lon="13.63384"><ele>885.5999999999999</ele><time>2026-05-02T12:00:26.622Z</time></trkpt><trkpt lat="42.0695333" lon="13.63387"><ele>886.8</ele><time>2026-05-02T12:00:28.622Z</time></trkpt><trkpt lat="42.0696083" lon="13.6339733"><ele>888.0</ele><time>2026-05-02T12:04:37.62Z</time></trkpt><trkpt lat="42.0696517" lon="13.6340733"><ele>888.0</ele><time>2026-05-02T12:04:39.619Z</time></trkpt><trkpt lat="42.0696633" lon="13.6341567"><ele>888.0</ele><time>2026-05-02T12:04:40.619Z</time></trkpt><trkpt lat="42.0696833" lon="13.6342483"><ele>888.0</ele><time>2026-05-02T12:04:41.62Z</time></trkpt><trkpt lat="42.069715" lon="13.6343483"><ele>888.0</ele><time>2026-05-02T12:04:42.619Z</time></trkpt><trkpt lat="42.069765" lon="13.634455"><ele>888.0</ele><time>2026-05-02T12:04:43.62Z</time></trkpt><trkpt lat="42.0698217" lon="13.6345667"><ele>888.0</ele><time>2026-05-02T12:04:44.619Z</time></trkpt><trkpt lat="42.0698817" lon="13.6346767"><ele>888.1666666666666</ele><time>2026-05-02T12:04:45.619Z</time></trkpt><trkpt lat="42.0699417" lon="13.6347667"><ele>888.3333333333333</ele><time>2026-05-02T12:04:46.619Z</time></trkpt><trkpt lat="42.069995" lon="13.6348583"><ele>888.5</ele><time>2026-05-02T12:04:47.619Z</time></trkpt><trkpt lat="42.07005" lon="13.6349567"><ele>888.6666666666666</ele><time>2026-05-02T12:04:48.619Z</time></trkpt><trkpt lat="42.070105" lon="13.6350467"><ele>888.8333333333333</ele><time>2026-05-02T12:04:49.62Z</time></trkpt><trkpt lat="42.0701617" lon="13.63514"><ele>889.0</ele><time>2026-05-02T12:04:50.62Z</time></trkpt><trkpt lat="42.07031" lon="13.6354033"><ele>894.3333333333333</ele><time>2026-05-02T12:04:52.619Z</time></trkpt><trkpt lat="42.0704083" lon="13.63557"><ele>899.6666666666667</ele><time>2026-05-02T12:04:53.62Z</time></trkpt><trkpt lat="42.0705033" lon="13.6357433"><ele>905.0</ele><time>2026-05-02T12:04:54.619Z</time></trkpt><trkpt lat="42.0705917" lon="13.6359133"><ele>905.0</ele><time>2026-05-02T12:04:55.619Z</time></trkpt><trkpt lat="42.0706717" lon="13.63607"><ele>905.0</ele><time>2026-05-02T12:04:56.619Z</time></trkpt><trkpt lat="42.07075" lon="13.63621"><ele>905.0</ele><time>2026-05-02T12:04:57.62Z</time></trkpt><trkpt lat="42.07082" lon="13.6363333"><ele>905.0</ele><time>2026-05-02T12:04:58.619Z</time></trkpt><trkpt lat="42.0708867" lon="13.6364467"><ele>905.0</ele><time>2026-05-02T12:04:59.62Z</time></trkpt><trkpt lat="42.0709583" lon="13.6365483"><ele>905.0</ele><time>2026-05-02T12:05:00.619Z</time></trkpt><trkpt lat="42.071045" lon="13.6366517"><ele>905.0</ele><time>2026-05-02T12:05:01.62Z</time></trkpt><trkpt lat="42.0711533" lon="13.6367517"><ele>905.0</ele><time>2026-05-02T12:05:02.62Z</time></trkpt><trkpt lat="42.0712617" lon="13.6368667"><ele>912.0</ele><time>2026-05-02T12:05:03.62Z</time></trkpt><trkpt lat="42.071375" lon="13.637"><ele>919.0</ele><time>2026-05-02T12:05:04.62Z</time></trkpt><trkpt lat="42.0714867" lon="13.6371417"><ele>926.0</ele><time>2026-05-02T12:05:05.619Z</time></trkpt><trkpt lat="42.071595" lon="13.6372783"><ele>918.3333333333334</ele><time>2026-05-02T12:05:06.619Z</time></trkpt><trkpt lat="42.0717083" lon="13.63741"><ele>910.6666666666667</ele><time>2026-05-02T12:05:07.619Z</time></trkpt><trkpt lat="42.071835" lon="13.6375283"><ele>903.0</ele><time>2026-05-02T12:05:08.619Z</time></trkpt><trkpt lat="42.0719667" lon="13.6376433"><ele>903.0</ele><time>2026-05-02T12:05:09.619Z</time></trkpt><trkpt lat="42.0720933" lon="13.6377467"><ele>903.0</ele><time>2026-05-02T12:05:10.62Z</time></trkpt><trkpt lat="42.0722117" lon="13.6378333"><ele>903.0</ele><time>2026-05-02T12:05:11.619Z</time></trkpt><trkpt lat="42.0723483" lon="13.6379067"><ele>903.0</ele><time>2026-05-02T12:05:12.619Z</time></trkpt><trkpt lat="42.0724933" lon="13.6379883"><ele>904.75</ele><time>2026-05-02T12:05:13.619Z</time></trkpt><trkpt lat="42.072635" lon="13.63806"><ele>906.5</ele><time>2026-05-02T12:05:14.619Z</time></trkpt><trkpt lat="42.0727667" lon="13.6381367"><ele>908.25</ele><time>2026-05-02T12:05:15.62Z</time></trkpt><trkpt lat="42.0728783" lon="13.6382167"><ele>910.0</ele><time>2026-05-02T12:05:16.62Z</time></trkpt><trkpt lat="42.0729817" lon="13.63831"><ele>910.0</ele><time>2026-05-02T12:05:17.619Z</time></trkpt><trkpt lat="42.073085" lon="13.6384233"><ele>910.0</ele><time>2026-05-02T12:05:18.62Z</time></trkpt><trkpt lat="42.0731883" lon="13.6385783"><ele>910.0</ele><time>2026-05-02T12:05:19.62Z</time></trkpt><trkpt lat="42.073295" lon="13.63875"><ele>912.3333333333333</ele><time>2026-05-02T12:05:20.62Z</time></trkpt><trkpt lat="42.07341" lon="13.6389367"><ele>914.6666666666667</ele><time>2026-05-02T12:05:21.62Z</time></trkpt><trkpt lat="42.0735367" lon="13.639125"><ele>917.0</ele><time>2026-05-02T12:05:22.62Z</time></trkpt><trkpt lat="42.0736767" lon="13.6393067"><ele>918.6666666666667</ele><time>2026-05-02T12:05:23.62Z</time></trkpt><trkpt lat="42.0738267" lon="13.63948"><ele>920.3333333333333</ele><time>2026-05-02T12:05:24.62Z</time></trkpt><trkpt lat="42.0739767" lon="13.63964"><ele>922.0</ele><time>2026-05-02T12:05:25.62Z</time></trkpt><trkpt lat="42.07412" lon="13.63979"><ele>922.0</ele><time>2026-05-02T12:05:26.619Z</time></trkpt><trkpt lat="42.0742483" lon="13.639935"><ele>922.0</ele><time>2026-05-02T12:05:27.62Z</time></trkpt><trkpt lat="42.0743783" lon="13.6400817"><ele>922.0</ele><time>2026-05-02T12:05:28.619Z</time></trkpt><trkpt lat="42.0745" lon="13.6402283"><ele>929.6666666666666</ele><time>2026-05-02T12:05:29.619Z</time></trkpt><trkpt lat="42.07462" lon="13.6403783"><ele>937.3333333333333</ele><time>2026-05-02T12:05:30.619Z</time></trkpt><trkpt lat="42.0747333" lon="13.6405333"><ele>945.0</ele><time>2026-05-02T12:05:31.619Z</time></trkpt><trkpt lat="42.074845" lon="13.6406917"><ele>942.0</ele><time>2026-05-02T12:05:32.62Z</time></trkpt><trkpt lat="42.0749567" lon="13.6408517"><ele>939.0</ele><time>2026-05-02T12:05:33.619Z</time></trkpt><trkpt lat="42.0750633" lon="13.6410083"><ele>936.0</ele><time>2026-05-02T12:05:34.62Z</time></trkpt><trkpt lat="42.0751683" lon="13.6411667"><ele>936.0</ele><time>2026-05-02T12:05:35.619Z</time></trkpt><trkpt lat="42.075275" lon="13.6413317"><ele>936.0</ele><time>2026-05-02T12:05:36.62Z</time></trkpt><trkpt lat="42.0753833" lon="13.641495"><ele>936.0</ele><time>2026-05-02T12:05:37.62Z</time></trkpt><trkpt lat="42.0754933" lon="13.6416617"><ele>936.0</ele><time>2026-05-02T12:05:38.619Z</time></trkpt><trkpt lat="42.0756083" lon="13.64182"><ele>936.0</ele><time>2026-05-02T12:05:39.62Z</time></trkpt><trkpt lat="42.075725" lon="13.6419683"><ele>936.0</ele><time>2026-05-02T12:05:40.62Z</time></trkpt><trkpt lat="42.0758483" lon="13.64211"><ele>936.0</ele><time>2026-05-02T12:05:41.62Z</time></trkpt><trkpt lat="42.0759717" lon="13.6422533"><ele>936.0</ele><time>2026-05-02T12:05:42.62Z</time></trkpt><trkpt lat="42.0761017" lon="13.642395"><ele>936.0</ele><time>2026-05-02T12:05:43.619Z</time></trkpt><trkpt lat="42.0762317" lon="13.6425383"><ele>936.0</ele><time>2026-05-02T12:05:44.62Z</time></trkpt><trkpt lat="42.0763567" lon="13.642685"><ele>936.0</ele><time>2026-05-02T12:05:45.62Z</time></trkpt><trkpt lat="42.0764817" lon="13.64284"><ele>936.0</ele><time>2026-05-02T12:05:46.619Z</time></trkpt><trkpt lat="42.076595" lon="13.6429983"><ele>938.0</ele><time>2026-05-02T12:05:47.62Z</time></trkpt><trkpt lat="42.0767067" lon="13.6431517"><ele>940.0</ele><time>2026-05-02T12:05:48.62Z</time></trkpt><trkpt lat="42.0768133" lon="13.6433067"><ele>942.0</ele><time>2026-05-02T12:05:49.62Z</time></trkpt><trkpt lat="42.0769167" lon="13.6434617"><ele>942.0</ele><time>2026-05-02T12:05:50.62Z</time></trkpt><trkpt lat="42.0770183" lon="13.643615"><ele>942.0</ele><time>2026-05-02T12:05:51.62Z</time></trkpt><trkpt lat="42.07713" lon="13.6437667"><ele>942.0</ele><time>2026-05-02T12:05:52.62Z</time></trkpt><trkpt lat="42.0772483" lon="13.6439117"><ele>944.3333333333333</ele><time>2026-05-02T12:05:53.619Z</time></trkpt><trkpt lat="42.07737" lon="13.64405"><ele>946.6666666666666</ele><time>2026-05-02T12:05:54.619Z</time></trkpt><trkpt lat="42.0774833" lon="13.6441783"><ele>949.0</ele><time>2026-05-02T12:05:55.62Z</time></trkpt><trkpt lat="42.0776117" lon="13.6442867"><ele>949.0</ele><time>2026-05-02T12:05:56.62Z</time></trkpt><trkpt lat="42.077735" lon="13.6444083"><ele>949.0</ele><time>2026-05-02T12:05:57.62Z</time></trkpt><trkpt lat="42.0778433" lon="13.6445517"><ele>949.0</ele><time>2026-05-02T12:05:58.619Z</time></trkpt><trkpt lat="42.0779433" lon="13.6447217"><ele>953.3333333333333</ele><time>2026-05-02T12:05:59.619Z</time></trkpt><trkpt lat="42.0780417" lon="13.6449017"><ele>957.6666666666667</ele><time>2026-05-02T12:06:00.62Z</time></trkpt><trkpt lat="42.07813" lon="13.6450867"><ele>962.0</ele><time>2026-05-02T12:06:01.62Z</time></trkpt><trkpt lat="42.0782217" lon="13.645265"><ele>961.5</ele><time>2026-05-02T12:06:02.62Z</time></trkpt><trkpt lat="42.0783117" lon="13.6454333"><ele>961.0</ele><time>2026-05-02T12:06:03.62Z</time></trkpt><trkpt lat="42.0783933" lon="13.64558"><ele>960.5</ele><time>2026-05-02T12:06:04.62Z</time></trkpt><trkpt lat="42.0784917" lon="13.6457133"><ele>960.0</ele><time>2026-05-02T12:06:05.62Z</time></trkpt><trkpt lat="42.0786017" lon="13.6458317"><ele>960.0</ele><time>2026-05-02T12:06:06.62Z</time></trkpt><trkpt lat="42.0787267" lon="13.6459333"><ele>960.0</ele><time>2026-05-02T12:06:07.62Z</time></trkpt><trkpt lat="42.0788433" lon="13.6460317"><ele>960.0</ele><time>2026-05-02T12:06:08.619Z</time></trkpt><trkpt lat="42.0789483" lon="13.6461433"><ele>960.0</ele><time>2026-05-02T12:06:09.619Z</time></trkpt><trkpt lat="42.0790417" lon="13.64627"><ele>960.25</ele><time>2026-05-02T12:06:10.619Z</time></trkpt><trkpt lat="42.0791333" lon="13.6464117"><ele>960.5</ele><time>2026-05-02T12:06:11.62Z</time></trkpt><trkpt lat="42.0792167" lon="13.646565"><ele>960.75</ele><time>2026-05-02T12:06:12.619Z</time></trkpt><trkpt lat="42.0792983" lon="13.6467283"><ele>961.0</ele><time>2026-05-02T12:06:13.62Z</time></trkpt><trkpt lat="42.0793733" lon="13.6468883"><ele>963.1999999999999</ele><time>2026-05-02T12:06:14.62Z</time></trkpt><trkpt lat="42.07944" lon="13.647035"><ele>965.3999999999999</ele><time>2026-05-02T12:06:15.62Z</time></trkpt><trkpt lat="42.0795033" lon="13.6471633"><ele>967.6</ele><time>2026-05-02T12:06:16.62Z</time></trkpt><trkpt lat="42.079565" lon="13.6472717"><ele>969.8</ele><time>2026-05-02T12:06:17.619Z</time></trkpt><trkpt lat="42.079635" lon="13.6473733"><ele>972.0</ele><time>2026-05-02T12:06:18.619Z</time></trkpt><trkpt lat="42.0797183" lon="13.6474583"><ele>972.0</ele><time>2026-05-02T12:06:19.619Z</time></trkpt><trkpt lat="42.0798217" lon="13.64753"><ele>972.0</ele><time>2026-05-02T12:06:20.62Z</time></trkpt><trkpt lat="42.0799283" lon="13.64761"><ele>972.0</ele><time>2026-05-02T12:06:21.62Z</time></trkpt><trkpt lat="42.0800333" lon="13.6476783"><ele>972.0</ele><time>2026-05-02T12:06:22.62Z</time></trkpt><trkpt lat="42.0801233" lon="13.6477383"><ele>969.4000000000001</ele><time>2026-05-02T12:06:23.619Z</time></trkpt><trkpt lat="42.0802133" lon="13.6477867"><ele>966.8000000000001</ele><time>2026-05-02T12:06:24.62Z</time></trkpt><trkpt lat="42.0803033" lon="13.6478117"><ele>964.2</ele><time>2026-05-02T12:06:25.62Z</time></trkpt><trkpt lat="42.0804" lon="13.6478117"><ele>961.6</ele><time>2026-05-02T12:06:26.619Z</time></trkpt><trkpt lat="42.0805167" lon="13.6477933"><ele>959.0</ele><time>2026-05-02T12:06:27.62Z</time></trkpt><trkpt lat="42.0806417" lon="13.6477567"><ele>960.6666666666667</ele><time>2026-05-02T12:06:28.62Z</time></trkpt><trkpt lat="42.080775" lon="13.647695"><ele>962.3333333333333</ele><time>2026-05-02T12:06:29.619Z</time></trkpt><trkpt lat="42.080925" lon="13.6476133"><ele>964.0</ele><time>2026-05-02T12:06:30.62Z</time></trkpt><trkpt lat="42.0810783" lon="13.6475467"><ele>964.0</ele><time>2026-05-02T12:06:31.62Z</time></trkpt><trkpt lat="42.0812283" lon="13.6474733"><ele>964.0</ele><time>2026-05-02T12:06:32.62Z</time></trkpt><trkpt lat="42.0813633" lon="13.6473817"><ele>964.0</ele><time>2026-05-02T12:06:33.619Z</time></trkpt><trkpt lat="42.081485" lon="13.6472817"><ele>965.6666666666666</ele><time>2026-05-02T12:06:34.62Z</time></trkpt><trkpt lat="42.0816033" lon="13.6471633"><ele>967.3333333333333</ele><time>2026-05-02T12:06:35.619Z</time></trkpt><trkpt lat="42.0817217" lon="13.6470167"><ele>969.0</ele><time>2026-05-02T12:06:36.619Z</time></trkpt><trkpt lat="42.0818367" lon="13.64686"><ele>970.6666666666667</ele><time>2026-05-02T12:06:37.62Z</time></trkpt><trkpt lat="42.0819483" lon="13.646705"><ele>972.3333333333334</ele><time>2026-05-02T12:06:38.619Z</time></trkpt><trkpt lat="42.08205" lon="13.6465483"><ele>974.0</ele><time>2026-05-02T12:06:39.619Z</time></trkpt><trkpt lat="42.0821433" lon="13.64641"><ele>974.0</ele><time>2026-05-02T12:06:40.62Z</time></trkpt><trkpt lat="42.082245" lon="13.64629"><ele>974.0</ele><time>2026-05-02T12:06:41.619Z</time></trkpt><trkpt lat="42.08236" lon="13.64619"><ele>974.0</ele><time>2026-05-02T12:06:42.62Z</time></trkpt><trkpt lat="42.082475" lon="13.6461033"><ele>974.0</ele><time>2026-05-02T12:06:43.619Z</time></trkpt><trkpt lat="42.082615" lon="13.646045"><ele>977.0</ele><time>2026-05-02T12:06:44.619Z</time></trkpt><trkpt lat="42.082765" lon="13.645995"><ele>980.0</ele><time>2026-05-02T12:06:45.619Z</time></trkpt><trkpt lat="42.0829117" lon="13.6459333"><ele>983.0</ele><time>2026-05-02T12:06:46.619Z</time></trkpt><trkpt lat="42.0830533" lon="13.6458567"><ele>983.0</ele><time>2026-05-02T12:06:47.619Z</time></trkpt><trkpt lat="42.083185" lon="13.6457533"><ele>983.0</ele><time>2026-05-02T12:06:48.62Z</time></trkpt><trkpt lat="42.083315" lon="13.6456333"><ele>983.0</ele><time>2026-05-02T12:06:49.619Z</time></trkpt><trkpt lat="42.0834317" lon="13.6455183"><ele>985.5</ele><time>2026-05-02T12:06:50.619Z</time></trkpt><trkpt lat="42.0835433" lon="13.6454083"><ele>988.0</ele><time>2026-05-02T12:06:51.619Z</time></trkpt><trkpt lat="42.0836633" lon="13.645295"><ele>990.5</ele><time>2026-05-02T12:06:52.619Z</time></trkpt><trkpt lat="42.08377" lon="13.6451717"><ele>993.0</ele><time>2026-05-02T12:06:53.619Z</time></trkpt><trkpt lat="42.0838717" lon="13.6450383"><ele>994.0</ele><time>2026-05-02T12:06:54.62Z</time></trkpt><trkpt lat="42.0839567" lon="13.6448917"><ele>995.0</ele><time>2026-05-02T12:06:55.62Z</time></trkpt><trkpt lat="42.0840217" lon="13.6447333"><ele>996.0</ele><time>2026-05-02T12:06:56.62Z</time></trkpt><trkpt lat="42.0840783" lon="13.64456"><ele>997.0</ele><time>2026-05-02T12:06:57.62Z</time></trkpt><trkpt lat="42.0841183" lon="13.6443617"><ele>999.0</ele><time>2026-05-02T12:06:58.62Z</time></trkpt><trkpt lat="42.0841483" lon="13.6441633"><ele>1001.0</ele><time>2026-05-02T12:06:59.619Z</time></trkpt><trkpt lat="42.0841867" lon="13.6439917"><ele>1003.0</ele><time>2026-05-02T12:07:00.62Z</time></trkpt><trkpt lat="42.0842367" lon="13.6438283"><ele>1005.0</ele><time>2026-05-02T12:07:01.62Z</time></trkpt><trkpt lat="42.0842967" lon="13.6436683"><ele>1006.5</ele><time>2026-05-02T12:07:02.619Z</time></trkpt><trkpt lat="42.0843683" lon="13.6434983"><ele>1008.0</ele><time>2026-05-02T12:07:03.619Z</time></trkpt><trkpt lat="42.0844383" lon="13.6433217"><ele>1009.5</ele><time>2026-05-02T12:07:04.619Z</time></trkpt><trkpt lat="42.0845" lon="13.6431383"><ele>1011.0</ele><time>2026-05-02T12:07:05.619Z</time></trkpt><trkpt lat="42.0845767" lon="13.64296"><ele>1012.0</ele><time>2026-05-02T12:07:06.619Z</time></trkpt><trkpt lat="42.0846717" lon="13.6427933"><ele>1013.0</ele><time>2026-05-02T12:07:07.619Z</time></trkpt><trkpt lat="42.0847633" lon="13.6426333"><ele>1014.0</ele><time>2026-05-02T12:07:08.619Z</time></trkpt><trkpt lat="42.0848333" lon="13.6424817"><ele>1015.0</ele><time>2026-05-02T12:07:09.619Z</time></trkpt><trkpt lat="42.0848867" lon="13.64231"><ele>1015.0</ele><time>2026-05-02T12:07:10.619Z</time></trkpt><trkpt lat="42.0849183" lon="13.6421267"><ele>1015.0</ele><time>2026-05-02T12:07:11.619Z</time></trkpt><trkpt lat="42.0849383" lon="13.6419383"><ele>1015.0</ele><time>2026-05-02T12:07:12.618Z</time></trkpt><trkpt lat="42.0849617" lon="13.6417417"><ele>1015.0</ele><time>2026-05-02T12:07:13.619Z</time></trkpt><trkpt lat="42.0850067" lon="13.6415483"><ele>1019.6666666666666</ele><time>2026-05-02T12:07:14.619Z</time></trkpt><trkpt lat="42.0850633" lon="13.6413517"><ele>1024.3333333333333</ele><time>2026-05-02T12:07:15.619Z</time></trkpt><trkpt lat="42.085125" lon="13.6411583"><ele>1029.0</ele><time>2026-05-02T12:07:16.619Z</time></trkpt><trkpt lat="42.0851817" lon="13.6409867"><ele>1030.75</ele><time>2026-05-02T12:07:17.618Z</time></trkpt><trkpt lat="42.0852217" lon="13.64082"><ele>1032.5</ele><time>2026-05-02T12:07:18.618Z</time></trkpt><trkpt lat="42.0852367" lon="13.6406583"><ele>1034.25</ele><time>2026-05-02T12:07:19.619Z</time></trkpt><trkpt lat="42.08524" lon="13.6405083"><ele>1036.0</ele><time>2026-05-02T12:07:20.619Z</time></trkpt><trkpt lat="42.085225" lon="13.6403683"><ele>1036.8333333333333</ele><time>2026-05-02T12:07:21.618Z</time></trkpt><trkpt lat="42.08519" lon="13.6402367"><ele>1037.6666666666665</ele><time>2026-05-02T12:07:22.619Z</time></trkpt><trkpt lat="42.08516" lon="13.6401117"><ele>1038.5</ele><time>2026-05-02T12:07:23.618Z</time></trkpt><trkpt lat="42.0851517" lon="13.640005"><ele>1039.3333333333333</ele><time>2026-05-02T12:07:24.619Z</time></trkpt><trkpt lat="42.0851583" lon="13.6399167"><ele>1040.1666666666667</ele><time>2026-05-02T12:07:25.618Z</time></trkpt><trkpt lat="42.0851967" lon="13.63983"><ele>1041.0</ele><time>2026-05-02T12:07:26.619Z</time></trkpt><trkpt lat="42.0852533" lon="13.63973"><ele>1041.0</ele><time>2026-05-02T12:07:27.618Z</time></trkpt><trkpt lat="42.0853217" lon="13.6396233"><ele>1041.0</ele><time>2026-05-02T12:07:28.619Z</time></trkpt><trkpt lat="42.08538" lon="13.6395167"><ele>1041.0</ele><time>2026-05-02T12:07:29.618Z</time></trkpt><trkpt lat="42.085405" lon="13.6394283"><ele>1041.0</ele><time>2026-05-02T12:07:30.618Z</time></trkpt><trkpt lat="42.08542" lon="13.6393317"><ele>1041.0</ele><time>2026-05-02T12:07:31.619Z</time></trkpt><trkpt lat="42.0854233" lon="13.6392417"><ele>1041.0</ele><time>2026-05-02T12:07:32.618Z</time></trkpt><trkpt lat="42.0854017" lon="13.639145"><ele>1042.3999999999999</ele><time>2026-05-02T12:07:33.619Z</time></trkpt><trkpt lat="42.085365" lon="13.6390517"><ele>1043.8</ele><time>2026-05-02T12:07:34.619Z</time></trkpt><trkpt lat="42.08532" lon="13.6389417"><ele>1045.1999999999998</ele><time>2026-05-02T12:07:35.619Z</time></trkpt><trkpt lat="42.0852717" lon="13.6388083"><ele>1046.6</ele><time>2026-05-02T12:07:36.619Z</time></trkpt><trkpt lat="42.0852333" lon="13.6386583"><ele>1048.0</ele><time>2026-05-02T12:07:37.619Z</time></trkpt><trkpt lat="42.0852" lon="13.6384967"><ele>1050.25</ele><time>2026-05-02T12:07:38.619Z</time></trkpt><trkpt lat="42.0851633" lon="13.6383183"><ele>1052.5</ele><time>2026-05-02T12:07:39.619Z</time></trkpt><trkpt lat="42.0851267" lon="13.6381383"><ele>1054.75</ele><time>2026-05-02T12:07:40.619Z</time></trkpt><trkpt lat="42.0850883" lon="13.637965"><ele>1057.0</ele><time>2026-05-02T12:07:41.618Z</time></trkpt><trkpt lat="42.0850567" lon="13.637805"><ele>1058.5</ele><time>2026-05-02T12:07:42.618Z</time></trkpt><trkpt lat="42.085045" lon="13.63765"><ele>1060.0</ele><time>2026-05-02T12:07:43.619Z</time></trkpt><trkpt lat="42.0850433" lon="13.6374917"><ele>1061.5</ele><time>2026-05-02T12:07:44.619Z</time></trkpt><trkpt lat="42.0850433" lon="13.6373167"><ele>1063.0</ele><time>2026-05-02T12:07:45.619Z</time></trkpt><trkpt lat="42.0850317" lon="13.6371367"><ele>1063.0</ele><time>2026-05-02T12:07:46.618Z</time></trkpt><trkpt lat="42.085" lon="13.6369767"><ele>1063.0</ele><time>2026-05-02T12:07:47.618Z</time></trkpt><trkpt lat="42.0849667" lon="13.6368367"><ele>1063.0</ele><time>2026-05-02T12:07:48.619Z</time></trkpt><trkpt lat="42.084915" lon="13.636705"><ele>1063.0</ele><time>2026-05-02T12:07:49.618Z</time></trkpt><trkpt lat="42.0848467" lon="13.636575"><ele>1065.0</ele><time>2026-05-02T12:07:50.619Z</time></trkpt><trkpt lat="42.0847633" lon="13.6364383"><ele>1067.0</ele><time>2026-05-02T12:07:51.619Z</time></trkpt><trkpt lat="42.0846717" lon="13.6362833"><ele>1069.0</ele><time>2026-05-02T12:07:52.619Z</time></trkpt><trkpt lat="42.0845683" lon="13.6361283"><ele>1071.0</ele><time>2026-05-02T12:07:53.618Z</time></trkpt><trkpt lat="42.0844717" lon="13.6359933"><ele>1072.3999999999999</ele><time>2026-05-02T12:07:54.619Z</time></trkpt><trkpt lat="42.08438" lon="13.6358833"><ele>1073.8</ele><time>2026-05-02T12:07:55.619Z</time></trkpt><trkpt lat="42.084305" lon="13.6357867"><ele>1075.1999999999998</ele><time>2026-05-02T12:07:56.619Z</time></trkpt><trkpt lat="42.084235" lon="13.6357017"><ele>1076.6</ele><time>2026-05-02T12:07:57.619Z</time></trkpt><trkpt lat="42.0841817" lon="13.635615"><ele>1078.0</ele><time>2026-05-02T12:07:58.618Z</time></trkpt><trkpt lat="42.0841483" lon="13.6355133"><ele>1078.0</ele><time>2026-05-02T12:07:59.619Z</time></trkpt><trkpt lat="42.0841317" lon="13.635395"><ele>1078.0</ele><time>2026-05-02T12:08:00.619Z</time></trkpt><trkpt lat="42.0841233" lon="13.6352633"><ele>1078.0</ele><time>2026-05-02T12:08:01.618Z</time></trkpt><trkpt lat="42.0841133" lon="13.635125"><ele>1078.0</ele><time>2026-05-02T12:08:02.619Z</time></trkpt><trkpt lat="42.0840917" lon="13.6349833"><ele>1078.0</ele><time>2026-05-02T12:08:03.618Z</time></trkpt><trkpt lat="42.0840483" lon="13.6348267"><ele>1078.6</ele><time>2026-05-02T12:08:04.618Z</time></trkpt><trkpt lat="42.084005" lon="13.6346667"><ele>1079.1999999999998</ele><time>2026-05-02T12:08:05.619Z</time></trkpt><trkpt lat="42.08397" lon="13.634525"><ele>1079.8</ele><time>2026-05-02T12:08:06.619Z</time></trkpt><trkpt lat="42.08395" lon="13.6343917"><ele>1080.3999999999999</ele><time>2026-05-02T12:08:07.619Z</time></trkpt><trkpt lat="42.0839567" lon="13.634275"><ele>1081.0</ele><time>2026-05-02T12:08:08.618Z</time></trkpt><trkpt lat="42.0839767" lon="13.6341683"><ele>1081.0</ele><time>2026-05-02T12:08:09.619Z</time></trkpt><trkpt lat="42.084005" lon="13.634085"><ele>1081.0</ele><time>2026-05-02T12:08:10.619Z</time></trkpt><trkpt lat="42.08408" lon="13.633975"><ele>1081.0</ele><time>2026-05-02T12:08:12.619Z</time></trkpt><trkpt lat="42.0841483" lon="13.6339167"><ele>1081.0</ele><time>2026-05-02T12:08:14.619Z</time></trkpt><trkpt lat="42.084235" lon="13.6338783"><ele>1081.0</ele><time>2026-05-02T12:08:16.619Z</time></trkpt><trkpt lat="42.08433" lon="13.6338417"><ele>1081.6666666666665</ele><time>2026-05-02T12:08:18.619Z</time></trkpt><trkpt lat="42.08442" lon="13.6337767"><ele>1082.3333333333333</ele><time>2026-05-02T12:08:20.618Z</time></trkpt><trkpt lat="42.084475" lon="13.63373"><ele>1083.0</ele><time>2026-05-02T12:08:21.618Z</time></trkpt><trkpt lat="42.0845267" lon="13.6336683"><ele>1083.6666666666667</ele><time>2026-05-02T12:08:22.619Z</time></trkpt><trkpt lat="42.0845767" lon="13.6335867"><ele>1084.3333333333335</ele><time>2026-05-02T12:08:23.618Z</time></trkpt><trkpt lat="42.084625" lon="13.63348"><ele>1085.0</ele><time>2026-05-02T12:08:24.618Z</time></trkpt><trkpt lat="42.0846783" lon="13.6333583"><ele>1085.0</ele><time>2026-05-02T12:08:25.619Z</time></trkpt><trkpt lat="42.0847433" lon="13.6332317"><ele>1085.0</ele><time>2026-05-02T12:08:26.619Z</time></trkpt><trkpt lat="42.0848267" lon="13.6331133"><ele>1085.0</ele><time>2026-05-02T12:08:27.619Z</time></trkpt><trkpt lat="42.084935" lon="13.633"><ele>1085.0</ele><time>2026-05-02T12:08:28.619Z</time></trkpt><trkpt lat="42.0850417" lon="13.632885"><ele>1088.2</ele><time>2026-05-02T12:08:29.619Z</time></trkpt><trkpt lat="42.0851283" lon="13.632785"><ele>1091.4</ele><time>2026-05-02T12:08:30.619Z</time></trkpt><trkpt lat="42.0851833" lon="13.6327017"><ele>1094.6</ele><time>2026-05-02T12:08:31.618Z</time></trkpt><trkpt lat="42.0852133" lon="13.6326033"><ele>1097.8</ele><time>2026-05-02T12:08:32.619Z</time></trkpt><trkpt lat="42.0852333" lon="13.6324783"><ele>1101.0</ele><time>2026-05-02T12:08:33.618Z</time></trkpt><trkpt lat="42.0852317" lon="13.6323117"><ele>1101.0</ele><time>2026-05-02T12:08:34.619Z</time></trkpt><trkpt lat="42.085215" lon="13.6321317"><ele>1101.0</ele><time>2026-05-02T12:08:35.619Z</time></trkpt><trkpt lat="42.0851967" lon="13.631965"><ele>1101.0</ele><time>2026-05-02T12:08:36.619Z</time></trkpt><trkpt lat="42.0851983" lon="13.6318333"><ele>1101.0</ele><time>2026-05-02T12:08:37.619Z</time></trkpt><trkpt lat="42.0852267" lon="13.6317067"><ele>1101.8</ele><time>2026-05-02T12:08:38.619Z</time></trkpt><trkpt lat="42.0852683" lon="13.6315783"><ele>1102.6</ele><time>2026-05-02T12:08:39.618Z</time></trkpt><trkpt lat="42.08532" lon="13.6314667"><ele>1103.4</ele><time>2026-05-02T12:08:40.618Z</time></trkpt><trkpt lat="42.0853833" lon="13.6313733"><ele>1104.2</ele><time>2026-05-02T12:08:41.619Z</time></trkpt><trkpt lat="42.0854483" lon="13.6312833"><ele>1105.0</ele><time>2026-05-02T12:08:42.618Z</time></trkpt><trkpt lat="42.0854983" lon="13.631195"><ele>1106.0</ele><time>2026-05-02T12:08:43.619Z</time></trkpt><trkpt lat="42.08552" lon="13.6311017"><ele>1107.0</ele><time>2026-05-02T12:08:44.618Z</time></trkpt><trkpt lat="42.0855267" lon="13.6310017"><ele>1108.0</ele><time>2026-05-02T12:08:45.619Z</time></trkpt><trkpt lat="42.0855183" lon="13.630875"><ele>1109.0</ele><time>2026-05-02T12:08:46.619Z</time></trkpt><trkpt lat="42.0854983" lon="13.630715"><ele>1110.0</ele><time>2026-05-02T12:08:47.619Z</time></trkpt><trkpt lat="42.085485" lon="13.630525"><ele>1110.0</ele><time>2026-05-02T12:08:48.618Z</time></trkpt><trkpt lat="42.0854767" lon="13.63033"><ele>1110.0</ele><time>2026-05-02T12:08:49.618Z</time></trkpt><trkpt lat="42.0854717" lon="13.63013"><ele>1110.0</ele><time>2026-05-02T12:08:50.619Z</time></trkpt><trkpt lat="42.0854733" lon="13.6299367"><ele>1110.0</ele><time>2026-05-02T12:08:51.619Z</time></trkpt><trkpt lat="42.085485" lon="13.629765"><ele>1111.5</ele><time>2026-05-02T12:08:52.618Z</time></trkpt><trkpt lat="42.085515" lon="13.6295967"><ele>1113.0</ele><time>2026-05-02T12:08:53.619Z</time></trkpt><trkpt lat="42.0855533" lon="13.6294117"><ele>1114.5</ele><time>2026-05-02T12:08:54.619Z</time></trkpt><trkpt lat="42.08561" lon="13.6292033"><ele>1116.0</ele><time>2026-05-02T12:08:55.619Z</time></trkpt><trkpt lat="42.085655" lon="13.62898"><ele>1116.75</ele><time>2026-05-02T12:08:56.619Z</time></trkpt><trkpt lat="42.0856867" lon="13.628775"><ele>1117.5</ele><time>2026-05-02T12:08:57.618Z</time></trkpt><trkpt lat="42.0857183" lon="13.62859"><ele>1118.25</ele><time>2026-05-02T12:08:58.618Z</time></trkpt><trkpt lat="42.0857517" lon="13.6284333"><ele>1119.0</ele><time>2026-05-02T12:08:59.618Z</time></trkpt><trkpt lat="42.085785" lon="13.6283133"><ele>1121.6000000000001</ele><time>2026-05-02T12:09:00.618Z</time></trkpt><trkpt lat="42.0858417" lon="13.62822"><ele>1124.2</ele><time>2026-05-02T12:09:01.618Z</time></trkpt><trkpt lat="42.0859183" lon="13.628115"><ele>1126.8000000000002</ele><time>2026-05-02T12:09:02.619Z</time></trkpt><trkpt lat="42.0859933" lon="13.6280017"><ele>1129.4</ele><time>2026-05-02T12:09:03.618Z</time></trkpt><trkpt lat="42.08604" lon="13.6278833"><ele>1132.0</ele><time>2026-05-02T12:09:04.619Z</time></trkpt><trkpt lat="42.0860767" lon="13.6277417"><ele>1133.25</ele><time>2026-05-02T12:09:05.619Z</time></trkpt><trkpt lat="42.0861117" lon="13.6275683"><ele>1134.5</ele><time>2026-05-02T12:09:06.618Z</time></trkpt><trkpt lat="42.086155" lon="13.6273883"><ele>1135.75</ele><time>2026-05-02T12:09:07.618Z</time></trkpt><trkpt lat="42.0862183" lon="13.6272"><ele>1137.0</ele><time>2026-05-02T12:09:08.618Z</time></trkpt><trkpt lat="42.0862933" lon="13.6270183"><ele>1137.75</ele><time>2026-05-02T12:09:09.619Z</time></trkpt><trkpt lat="42.086355" lon="13.6268567"><ele>1138.5</ele><time>2026-05-02T12:09:10.619Z</time></trkpt><trkpt lat="42.086405" lon="13.62669"><ele>1139.25</ele><time>2026-05-02T12:09:11.619Z</time></trkpt><trkpt lat="42.0864383" lon="13.6265267"><ele>1140.0</ele><time>2026-05-02T12:09:12.618Z</time></trkpt><trkpt lat="42.0864533" lon="13.6263433"><ele>1140.0</ele><time>2026-05-02T12:09:13.618Z</time></trkpt><trkpt lat="42.0864483" lon="13.6261583"><ele>1140.0</ele><time>2026-05-02T12:09:14.619Z</time></trkpt><trkpt lat="42.08642" lon="13.6259667"><ele>1140.0</ele><time>2026-05-02T12:09:15.619Z</time></trkpt><trkpt lat="42.086385" lon="13.625755"><ele>1140.0</ele><time>2026-05-02T12:09:16.619Z</time></trkpt><trkpt lat="42.0863317" lon="13.6255217"><ele>1145.0</ele><time>2026-05-02T12:09:17.619Z</time></trkpt><trkpt lat="42.08627" lon="13.625265"><ele>1150.0</ele><time>2026-05-02T12:09:18.619Z</time></trkpt><trkpt lat="42.0862083" lon="13.6250133"><ele>1155.0</ele><time>2026-05-02T12:09:19.619Z</time></trkpt><trkpt lat="42.0861567" lon="13.6247833"><ele>1155.0</ele><time>2026-05-02T12:09:20.619Z</time></trkpt><trkpt lat="42.08612" lon="13.6245767"><ele>1155.0</ele><time>2026-05-02T12:09:21.618Z</time></trkpt><trkpt lat="42.0861083" lon="13.6243733"><ele>1155.0</ele><time>2026-05-02T12:09:22.618Z</time></trkpt><trkpt lat="42.0861067" lon="13.624175"><ele>1156.0</ele><time>2026-05-02T12:09:23.618Z</time></trkpt><trkpt lat="42.0860967" lon="13.623985"><ele>1157.0</ele><time>2026-05-02T12:09:24.618Z</time></trkpt><trkpt lat="42.0860783" lon="13.6238167"><ele>1158.0</ele><time>2026-05-02T12:09:25.619Z</time></trkpt><trkpt lat="42.086045" lon="13.6236683"><ele>1159.0</ele><time>2026-05-02T12:09:26.618Z</time></trkpt><trkpt lat="42.0859917" lon="13.6235217"><ele>1161.0</ele><time>2026-05-02T12:09:27.619Z</time></trkpt><trkpt lat="42.0859233" lon="13.623375"><ele>1163.0</ele><time>2026-05-02T12:09:28.619Z</time></trkpt><trkpt lat="42.0858617" lon="13.623255"><ele>1165.0</ele><time>2026-05-02T12:09:29.619Z</time></trkpt><trkpt lat="42.085805" lon="13.6231633"><ele>1167.0</ele><time>2026-05-02T12:09:30.618Z</time></trkpt><trkpt lat="42.085745" lon="13.6231183"><ele>1169.0</ele><time>2026-05-02T12:09:31.618Z</time></trkpt><trkpt lat="42.08568" lon="13.6231"><ele>1169.6000000000001</ele><time>2026-05-02T12:09:32.618Z</time></trkpt><trkpt lat="42.085605" lon="13.6231017"><ele>1170.2</ele><time>2026-05-02T12:09:33.619Z</time></trkpt><trkpt lat="42.0855183" lon="13.623125"><ele>1170.8000000000002</ele><time>2026-05-02T12:09:34.618Z</time></trkpt><trkpt lat="42.0854317" lon="13.6231733"><ele>1171.4</ele><time>2026-05-02T12:09:35.618Z</time></trkpt><trkpt lat="42.08533" lon="13.6232467"><ele>1172.0</ele><time>2026-05-02T12:09:36.619Z</time></trkpt><trkpt lat="42.0852233" lon="13.623335"><ele>1172.0</ele><time>2026-05-02T12:09:37.618Z</time></trkpt><trkpt lat="42.0851083" lon="13.62342"><ele>1172.0</ele><time>2026-05-02T12:09:38.619Z</time></trkpt><trkpt lat="42.085" lon="13.623495"><ele>1172.0</ele><time>2026-05-02T12:09:39.618Z</time></trkpt><trkpt lat="42.0849017" lon="13.6235717"><ele>1172.0</ele><time>2026-05-02T12:09:40.618Z</time></trkpt><trkpt lat="42.084795" lon="13.6236433"><ele>1171.4</ele><time>2026-05-02T12:09:41.618Z</time></trkpt><trkpt lat="42.0846883" lon="13.62372"><ele>1170.8000000000002</ele><time>2026-05-02T12:09:42.618Z</time></trkpt><trkpt lat="42.08459" lon="13.6237917"><ele>1170.2</ele><time>2026-05-02T12:09:43.619Z</time></trkpt><trkpt lat="42.0844883" lon="13.6238583"><ele>1169.6000000000001</ele><time>2026-05-02T12:09:44.619Z</time></trkpt><trkpt lat="42.0843983" lon="13.6239183"><ele>1169.0</ele><time>2026-05-02T12:09:45.619Z</time></trkpt><trkpt lat="42.0843133" lon="13.6239817"><ele>1169.0</ele><time>2026-05-02T12:09:46.619Z</time></trkpt><trkpt lat="42.0842367" lon="13.6240433"><ele>1169.0</ele><time>2026-05-02T12:09:47.618Z</time></trkpt><trkpt lat="42.0841783" lon="13.62411"><ele>1169.0</ele><time>2026-05-02T12:09:48.619Z</time></trkpt><trkpt lat="42.0841267" lon="13.6241817"><ele>1169.0</ele><time>2026-05-02T12:09:49.619Z</time></trkpt><trkpt lat="42.0840817" lon="13.6242717"><ele>1169.0</ele><time>2026-05-02T12:09:50.619Z</time></trkpt><trkpt lat="42.0840517" lon="13.624375"><ele>1169.0</ele><time>2026-05-02T12:09:51.619Z</time></trkpt><trkpt lat="42.0840283" lon="13.6244933"><ele>1168.0</ele><time>2026-05-02T12:09:52.619Z</time></trkpt><trkpt lat="42.0840033" lon="13.624615"><ele>1167.0</ele><time>2026-05-02T12:09:53.619Z</time></trkpt><trkpt lat="42.083985" lon="13.6247467"><ele>1166.0</ele><time>2026-05-02T12:09:54.619Z</time></trkpt><trkpt lat="42.08397" lon="13.62488"><ele>1165.0</ele><time>2026-05-02T12:09:55.619Z</time></trkpt><trkpt lat="42.08395" lon="13.6250183"><ele>1164.0</ele><time>2026-05-02T12:09:56.618Z</time></trkpt><trkpt lat="42.0839267" lon="13.6251533"><ele>1164.0</ele><time>2026-05-02T12:09:57.619Z</time></trkpt><trkpt lat="42.0839067" lon="13.6252883"><ele>1164.0</ele><time>2026-05-02T12:09:58.619Z</time></trkpt><trkpt lat="42.0838883" lon="13.625425"><ele>1164.0</ele><time>2026-05-02T12:09:59.618Z</time></trkpt><trkpt lat="42.0838767" lon="13.6255617"><ele>1164.0</ele><time>2026-05-02T12:10:00.619Z</time></trkpt><trkpt lat="42.0838633" lon="13.625685"><ele>1164.0</ele><time>2026-05-02T12:10:01.618Z</time></trkpt><trkpt lat="42.08384" lon="13.6258067"><ele>1162.5</ele><time>2026-05-02T12:10:02.619Z</time></trkpt><trkpt lat="42.08382" lon="13.6259233"><ele>1161.0</ele><time>2026-05-02T12:10:03.619Z</time></trkpt><trkpt lat="42.0838017" lon="13.626035"><ele>1159.5</ele><time>2026-05-02T12:10:04.619Z</time></trkpt><trkpt lat="42.0837883" lon="13.626145"><ele>1158.0</ele><time>2026-05-02T12:10:05.619Z</time></trkpt><trkpt lat="42.0837717" lon="13.6262533"><ele>1156.5</ele><time>2026-05-02T12:10:06.618Z</time></trkpt><trkpt lat="42.0837567" lon="13.62636"><ele>1155.0</ele><time>2026-05-02T12:10:07.619Z</time></trkpt><trkpt lat="42.0837433" lon="13.6264683"><ele>1153.1666666666667</ele><time>2026-05-02T12:10:08.619Z</time></trkpt><trkpt lat="42.0837267" lon="13.6265733"><ele>1151.3333333333333</ele><time>2026-05-02T12:10:09.619Z</time></trkpt><trkpt lat="42.08371" lon="13.6266733"><ele>1149.5</ele><time>2026-05-02T12:10:10.619Z</time></trkpt><trkpt lat="42.0836917" lon="13.62677"><ele>1147.6666666666665</ele><time>2026-05-02T12:10:11.618Z</time></trkpt><trkpt lat="42.08367" lon="13.6268683"><ele>1145.8333333333333</ele><time>2026-05-02T12:10:12.619Z</time></trkpt><trkpt lat="42.08365" lon="13.6269683"><ele>1144.0</ele><time>2026-05-02T12:10:13.617Z</time></trkpt><trkpt lat="42.0836367" lon="13.627075"><ele>1142.8571428571427</ele><time>2026-05-02T12:10:14.618Z</time></trkpt><trkpt lat="42.08362" lon="13.6271783"><ele>1141.7142857142858</ele><time>2026-05-02T12:10:15.618Z</time></trkpt><trkpt lat="42.08361" lon="13.6272833"><ele>1140.5714285714284</ele><time>2026-05-02T12:10:16.618Z</time></trkpt><trkpt lat="42.08359" lon="13.62737"><ele>1139.4285714285713</ele><time>2026-05-02T12:10:17.617Z</time></trkpt><trkpt lat="42.0835617" lon="13.6274517"><ele>1138.2857142857142</ele><time>2026-05-02T12:10:18.618Z</time></trkpt><trkpt lat="42.0835217" lon="13.6275217"><ele>1137.142857142857</ele><time>2026-05-02T12:10:19.617Z</time></trkpt><trkpt lat="42.0834717" lon="13.62759"><ele>1136.0</ele><time>2026-05-02T12:10:20.617Z</time></trkpt><trkpt lat="42.0834183" lon="13.6276533"><ele>1136.0</ele><time>2026-05-02T12:10:21.618Z</time></trkpt><trkpt lat="42.0833567" lon="13.627705"><ele>1136.0</ele><time>2026-05-02T12:10:22.618Z</time></trkpt><trkpt lat="42.0832967" lon="13.6277467"><ele>1136.0</ele><time>2026-05-02T12:10:23.617Z</time></trkpt><trkpt lat="42.083235" lon="13.6277867"><ele>1136.0</ele><time>2026-05-02T12:10:24.618Z</time></trkpt><trkpt lat="42.0831617" lon="13.6278333"><ele>1136.0</ele><time>2026-05-02T12:10:26.617Z</time></trkpt><trkpt lat="42.0830917" lon="13.6278683"><ele>1136.0</ele><time>2026-05-02T12:11:58.617Z</time></trkpt><trkpt lat="42.082975" lon="13.627955"><ele>1134.1666666666667</ele><time>2026-05-02T12:12:00.617Z</time></trkpt><trkpt lat="42.0829" lon="13.628005"><ele>1132.3333333333335</ele><time>2026-05-02T12:12:01.617Z</time></trkpt><trkpt lat="42.08282" lon="13.62806"><ele>1130.5</ele><time>2026-05-02T12:12:02.617Z</time></trkpt><trkpt lat="42.0827383" lon="13.62812"><ele>1128.6666666666667</ele><time>2026-05-02T12:12:03.617Z</time></trkpt><trkpt lat="42.0826583" lon="13.628175"><ele>1126.8333333333333</ele><time>2026-05-02T12:12:04.617Z</time></trkpt><trkpt lat="42.0825817" lon="13.62823"><ele>1125.0</ele><time>2026-05-02T12:12:05.618Z</time></trkpt><trkpt lat="42.082505" lon="13.62828"><ele>1125.0</ele><time>2026-05-02T12:12:06.617Z</time></trkpt><trkpt lat="42.082435" lon="13.6283383"><ele>1125.0</ele><time>2026-05-02T12:12:07.617Z</time></trkpt><trkpt lat="42.0823567" lon="13.62839"><ele>1125.0</ele><time>2026-05-02T12:12:08.617Z</time></trkpt><trkpt lat="42.082275" lon="13.6284433"><ele>1125.0</ele><time>2026-05-02T12:12:09.617Z</time></trkpt><trkpt lat="42.0822" lon="13.6284917"><ele>1125.0</ele><time>2026-05-02T12:12:10.618Z</time></trkpt><trkpt lat="42.082125" lon="13.62853"><ele>1125.0</ele><time>2026-05-02T12:12:11.618Z</time></trkpt><trkpt lat="42.0820567" lon="13.62857"><ele>1123.8333333333333</ele><time>2026-05-02T12:12:12.618Z</time></trkpt><trkpt lat="42.081985" lon="13.6285967"><ele>1122.6666666666667</ele><time>2026-05-02T12:12:13.618Z</time></trkpt><trkpt lat="42.081915" lon="13.6286117"><ele>1121.5</ele><time>2026-05-02T12:12:14.617Z</time></trkpt><trkpt lat="42.0818367" lon="13.6286117"><ele>1120.3333333333335</ele><time>2026-05-02T12:12:15.617Z</time></trkpt><trkpt lat="42.08176" lon="13.6286"><ele>1119.1666666666667</ele><time>2026-05-02T12:12:16.618Z</time></trkpt><trkpt lat="42.081685" lon="13.6285767"><ele>1118.0</ele><time>2026-05-02T12:12:17.618Z</time></trkpt><trkpt lat="42.0816033" lon="13.6285433"><ele>1115.3333333333335</ele><time>2026-05-02T12:12:18.617Z</time></trkpt><trkpt lat="42.081525" lon="13.6285033"><ele>1112.6666666666667</ele><time>2026-05-02T12:12:19.618Z</time></trkpt><trkpt lat="42.08144" lon="13.6284633"><ele>1110.0</ele><time>2026-05-02T12:12:20.618Z</time></trkpt><trkpt lat="42.0813633" lon="13.6284283"><ele>1107.3333333333333</ele><time>2026-05-02T12:12:21.618Z</time></trkpt><trkpt lat="42.08129" lon="13.62839"><ele>1104.6666666666665</ele><time>2026-05-02T12:12:22.618Z</time></trkpt><trkpt lat="42.08122" lon="13.6283417"><ele>1102.0</ele><time>2026-05-02T12:12:23.618Z</time></trkpt><trkpt lat="42.0811567" lon="13.6282967"><ele>1102.0</ele><time>2026-05-02T12:12:24.618Z</time></trkpt><trkpt lat="42.0811" lon="13.6282333"><ele>1102.0</ele><time>2026-05-02T12:12:25.618Z</time></trkpt><trkpt lat="42.0810383" lon="13.628155"><ele>1102.0</ele><time>2026-05-02T12:12:26.618Z</time></trkpt><trkpt lat="42.0809733" lon="13.62806"><ele>1102.0</ele><time>2026-05-02T12:12:27.618Z</time></trkpt><trkpt lat="42.0809033" lon="13.6279533"><ele>1102.0</ele><time>2026-05-02T12:12:28.617Z</time></trkpt><trkpt lat="42.08081" lon="13.6278367"><ele>1100.0</ele><time>2026-05-02T12:12:29.617Z</time></trkpt><trkpt lat="42.08073" lon="13.627725"><ele>1098.0</ele><time>2026-05-02T12:12:30.617Z</time></trkpt><trkpt lat="42.0806617" lon="13.62761"><ele>1096.0</ele><time>2026-05-02T12:12:31.617Z</time></trkpt><trkpt lat="42.080595" lon="13.627505"><ele>1094.0</ele><time>2026-05-02T12:12:32.618Z</time></trkpt><trkpt lat="42.0805333" lon="13.6274017"><ele>1092.0</ele><time>2026-05-02T12:12:33.617Z</time></trkpt><trkpt lat="42.0804783" lon="13.6273067"><ele>1092.0</ele><time>2026-05-02T12:12:34.617Z</time></trkpt><trkpt lat="42.0804267" lon="13.6272067"><ele>1092.0</ele><time>2026-05-02T12:12:35.617Z</time></trkpt><trkpt lat="42.0803783" lon="13.6270967"><ele>1092.0</ele><time>2026-05-02T12:12:36.617Z</time></trkpt><trkpt lat="42.080345" lon="13.626975"><ele>1092.0</ele><time>2026-05-02T12:12:37.617Z</time></trkpt><trkpt lat="42.0803367" lon="13.6268617"><ele>1092.0</ele><time>2026-05-02T12:12:38.618Z</time></trkpt><trkpt lat="42.08034" lon="13.6267433"><ele>1092.4</ele><time>2026-05-02T12:12:39.618Z</time></trkpt><trkpt lat="42.080355" lon="13.626625"><ele>1092.8000000000002</ele><time>2026-05-02T12:12:40.618Z</time></trkpt><trkpt lat="42.0803817" lon="13.6265033"><ele>1093.2</ele><time>2026-05-02T12:12:41.617Z</time></trkpt><trkpt lat="42.0804167" lon="13.626375"><ele>1093.6000000000001</ele><time>2026-05-02T12:12:42.617Z</time></trkpt><trkpt lat="42.080445" lon="13.626245"><ele>1094.0</ele><time>2026-05-02T12:12:43.617Z</time></trkpt><trkpt lat="42.0804567" lon="13.6261217"><ele>1094.3333333333335</ele><time>2026-05-02T12:12:44.618Z</time></trkpt><trkpt lat="42.0804517" lon="13.626005"><ele>1094.6666666666667</ele><time>2026-05-02T12:12:45.618Z</time></trkpt><trkpt lat="42.0804367" lon="13.6258867"><ele>1095.0</ele><time>2026-05-02T12:12:46.617Z</time></trkpt><trkpt lat="42.0804083" lon="13.6257633"><ele>1095.3333333333333</ele><time>2026-05-02T12:12:47.618Z</time></trkpt><trkpt lat="42.0803867" lon="13.62565"><ele>1095.6666666666665</ele><time>2026-05-02T12:12:48.617Z</time></trkpt><trkpt lat="42.080375" lon="13.6255333"><ele>1096.0</ele><time>2026-05-02T12:12:49.617Z</time></trkpt><trkpt lat="42.0803667" lon="13.625405"><ele>1096.75</ele><time>2026-05-02T12:12:50.617Z</time></trkpt><trkpt lat="42.0803617" lon="13.6252733"><ele>1097.5</ele><time>2026-05-02T12:12:51.618Z</time></trkpt><trkpt lat="42.08036" lon="13.6249933"><ele>1098.25</ele><time>2026-05-02T12:12:53.618Z</time></trkpt><trkpt lat="42.0803617" lon="13.6248417"><ele>1099.0</ele><time>2026-05-02T12:12:54.618Z</time></trkpt><trkpt lat="42.0803617" lon="13.624695"><ele>1099.0</ele><time>2026-05-02T12:12:55.617Z</time></trkpt><trkpt lat="42.0803733" lon="13.6245567"><ele>1099.0</ele><time>2026-05-02T12:12:56.618Z</time></trkpt><trkpt lat="42.0804017" lon="13.6244267"><ele>1099.0</ele><time>2026-05-02T12:12:57.617Z</time></trkpt><trkpt lat="42.0804367" lon="13.6243"><ele>1099.0</ele><time>2026-05-02T12:12:58.618Z</time></trkpt><trkpt lat="42.0804633" lon="13.6241817"><ele>1099.0</ele><time>2026-05-02T12:12:59.617Z</time></trkpt><trkpt lat="42.0804683" lon="13.6240567"><ele>1099.0</ele><time>2026-05-02T12:13:00.618Z</time></trkpt><trkpt lat="42.08046" lon="13.6239267"><ele>1099.0</ele><time>2026-05-02T12:13:01.618Z</time></trkpt><trkpt lat="42.0804383" lon="13.623795"><ele>1099.0</ele><time>2026-05-02T12:13:02.617Z</time></trkpt><trkpt lat="42.0804167" lon="13.6236533"><ele>1099.0</ele><time>2026-05-02T12:13:03.618Z</time></trkpt><trkpt lat="42.0804" lon="13.6235117"><ele>1099.0</ele><time>2026-05-02T12:13:04.617Z</time></trkpt><trkpt lat="42.0803867" lon="13.6233833"><ele>1099.3333333333333</ele><time>2026-05-02T12:13:05.617Z</time></trkpt><trkpt lat="42.080385" lon="13.6232667"><ele>1099.6666666666665</ele><time>2026-05-02T12:13:06.617Z</time></trkpt><trkpt lat="42.0803933" lon="13.62314"><ele>1100.0</ele><time>2026-05-02T12:13:07.618Z</time></trkpt><trkpt lat="42.0804067" lon="13.62301"><ele>1100.3333333333333</ele><time>2026-05-02T12:13:08.617Z</time></trkpt><trkpt lat="42.0804233" lon="13.6228967"><ele>1100.6666666666667</ele><time>2026-05-02T12:13:09.617Z</time></trkpt><trkpt lat="42.08044" lon="13.6227917"><ele>1101.0</ele><time>2026-05-02T12:13:10.618Z</time></trkpt><trkpt lat="42.08045" lon="13.6227017"><ele>1101.0</ele><time>2026-05-02T12:13:11.618Z</time></trkpt><trkpt lat="42.0804583" lon="13.6226067"><ele>1101.0</ele><time>2026-05-02T12:13:12.617Z</time></trkpt><trkpt lat="42.0804667" lon="13.6225167"><ele>1101.0</ele><time>2026-05-02T12:13:13.618Z</time></trkpt><trkpt lat="42.080485" lon="13.622435"><ele>1101.0</ele><time>2026-05-02T12:13:14.618Z</time></trkpt><trkpt lat="42.08051" lon="13.6223567"><ele>1101.0</ele><time>2026-05-02T12:13:15.618Z</time></trkpt><trkpt lat="42.0805433" lon="13.6222833"><ele>1101.0</ele><time>2026-05-02T12:13:16.618Z</time></trkpt><trkpt lat="42.08058" lon="13.6221967"><ele>1101.0</ele><time>2026-05-02T12:13:17.618Z</time></trkpt><trkpt lat="42.0806167" lon="13.6221083"><ele>1101.0</ele><time>2026-05-02T12:13:18.617Z</time></trkpt><trkpt lat="42.0806533" lon="13.6220183"><ele>1101.0</ele><time>2026-05-02T12:13:19.617Z</time></trkpt><trkpt lat="42.0807" lon="13.6219367"><ele>1101.0</ele><time>2026-05-02T12:13:20.617Z</time></trkpt><trkpt lat="42.080745" lon="13.6218717"><ele>1101.0</ele><time>2026-05-02T12:13:21.617Z</time></trkpt><trkpt lat="42.0808367" lon="13.621775"><ele>1101.0</ele><time>2026-05-02T12:13:23.618Z</time></trkpt><trkpt lat="42.0809117" lon="13.6216733"><ele>1101.0</ele><time>2026-05-02T12:13:25.618Z</time></trkpt><trkpt lat="42.08096" lon="13.6215683"><ele>1102.6</ele><time>2026-05-02T12:13:27.617Z</time></trkpt><trkpt lat="42.080995" lon="13.6214583"><ele>1104.1999999999998</ele><time>2026-05-02T12:13:29.618Z</time></trkpt><trkpt lat="42.0810517" lon="13.6213233"><ele>1105.8000000000002</ele><time>2026-05-02T12:13:31.618Z</time></trkpt><trkpt lat="42.0811117" lon="13.6211667"><ele>1107.4</ele><time>2026-05-02T12:13:33.618Z</time></trkpt><trkpt lat="42.0811433" lon="13.62108"><ele>1109.0</ele><time>2026-05-02T12:13:34.618Z</time></trkpt><trkpt lat="42.0811767" lon="13.620985"><ele>1109.0</ele><time>2026-05-02T12:13:35.617Z</time></trkpt><trkpt lat="42.0812117" lon="13.6208733"><ele>1109.0</ele><time>2026-05-02T12:13:36.617Z</time></trkpt><trkpt lat="42.0812417" lon="13.6207617"><ele>1109.0</ele><time>2026-05-02T12:13:37.617Z</time></trkpt><trkpt lat="42.0812683" lon="13.620655"><ele>1109.0</ele><time>2026-05-02T12:13:38.617Z</time></trkpt><trkpt lat="42.081285" lon="13.6205517"><ele>1109.0</ele><time>2026-05-02T12:13:39.616Z</time></trkpt><trkpt lat="42.0813083" lon="13.62045"><ele>1109.0</ele><time>2026-05-02T12:13:40.617Z</time></trkpt><trkpt lat="42.0813317" lon="13.6203433"><ele>1107.8333333333335</ele><time>2026-05-02T12:13:41.616Z</time></trkpt><trkpt lat="42.0813617" lon="13.62024"><ele>1106.6666666666667</ele><time>2026-05-02T12:13:42.616Z</time></trkpt><trkpt lat="42.0813933" lon="13.6201333"><ele>1105.5</ele><time>2026-05-02T12:13:43.617Z</time></trkpt><trkpt lat="42.08142" lon="13.62002"><ele>1104.3333333333333</ele><time>2026-05-02T12:13:44.616Z</time></trkpt><trkpt lat="42.0814433" lon="13.6199117"><ele>1103.1666666666665</ele><time>2026-05-02T12:13:45.616Z</time></trkpt><trkpt lat="42.08147" lon="13.619805"><ele>1102.0</ele><time>2026-05-02T12:13:46.617Z</time></trkpt><trkpt lat="42.08149" lon="13.6197067"><ele>1102.0</ele><time>2026-05-02T12:13:47.616Z</time></trkpt><trkpt lat="42.0815167" lon="13.6196017"><ele>1102.0</ele><time>2026-05-02T12:13:48.616Z</time></trkpt><trkpt lat="42.0815433" lon="13.6195017"><ele>1102.0</ele><time>2026-05-02T12:13:49.617Z</time></trkpt><trkpt lat="42.0815683" lon="13.619395"><ele>1102.0</ele><time>2026-05-02T12:13:50.617Z</time></trkpt><trkpt lat="42.0815983" lon="13.61929"><ele>1102.0</ele><time>2026-05-02T12:13:51.617Z</time></trkpt><trkpt lat="42.0816333" lon="13.6191833"><ele>1102.0</ele><time>2026-05-02T12:13:52.616Z</time></trkpt><trkpt lat="42.0816617" lon="13.61907"><ele>1101.2</ele><time>2026-05-02T12:13:53.617Z</time></trkpt><trkpt lat="42.0817017" lon="13.618945"><ele>1100.4</ele><time>2026-05-02T12:13:54.616Z</time></trkpt><trkpt lat="42.0817567" lon="13.6188"><ele>1099.6</ele><time>2026-05-02T12:13:55.616Z</time></trkpt><trkpt lat="42.0818033" lon="13.6186683"><ele>1098.8</ele><time>2026-05-02T12:13:56.616Z</time></trkpt><trkpt lat="42.081835" lon="13.6185533"><ele>1098.0</ele><time>2026-05-02T12:13:57.616Z</time></trkpt><trkpt lat="42.0818717" lon="13.6184383"><ele>1098.0</ele><time>2026-05-02T12:13:58.617Z</time></trkpt><trkpt lat="42.08191" lon="13.6183183"><ele>1098.0</ele><time>2026-05-02T12:13:59.617Z</time></trkpt><trkpt lat="42.08195" lon="13.6181867"><ele>1098.0</ele><time>2026-05-02T12:14:00.617Z</time></trkpt><trkpt lat="42.08199" lon="13.6180567"><ele>1098.0</ele><time>2026-05-02T12:14:01.617Z</time></trkpt><trkpt lat="42.08203" lon="13.61792"><ele>1098.0</ele><time>2026-05-02T12:14:02.616Z</time></trkpt><trkpt lat="42.0820683" lon="13.6177817"><ele>1095.8</ele><time>2026-05-02T12:14:03.617Z</time></trkpt><trkpt lat="42.0821" lon="13.617655"><ele>1093.6</ele><time>2026-05-02T12:14:04.617Z</time></trkpt><trkpt lat="42.0821233" lon="13.6175267"><ele>1091.4</ele><time>2026-05-02T12:14:05.616Z</time></trkpt><trkpt lat="42.08214" lon="13.6173967"><ele>1089.2</ele><time>2026-05-02T12:14:06.617Z</time></trkpt><trkpt lat="42.08216" lon="13.617275"><ele>1087.0</ele><time>2026-05-02T12:14:07.617Z</time></trkpt><trkpt lat="42.0821883" lon="13.6171533"><ele>1087.0</ele><time>2026-05-02T12:14:08.616Z</time></trkpt><trkpt lat="42.0822133" lon="13.6170317"><ele>1087.0</ele><time>2026-05-02T12:14:09.616Z</time></trkpt><trkpt lat="42.0822383" lon="13.6169183"><ele>1087.0</ele><time>2026-05-02T12:14:10.616Z</time></trkpt><trkpt lat="42.0822533" lon="13.6168033"><ele>1087.0</ele><time>2026-05-02T12:14:11.616Z</time></trkpt><trkpt lat="42.0822517" lon="13.616695"><ele>1087.0</ele><time>2026-05-02T12:14:12.617Z</time></trkpt><trkpt lat="42.0822367" lon="13.6165817"><ele>1087.0</ele><time>2026-05-02T12:14:13.617Z</time></trkpt><trkpt lat="42.0822233" lon="13.6164617"><ele>1085.6</ele><time>2026-05-02T12:14:14.616Z</time></trkpt><trkpt lat="42.0822217" lon="13.6163267"><ele>1084.2</ele><time>2026-05-02T12:14:15.617Z</time></trkpt><trkpt lat="42.08222" lon="13.6161917"><ele>1082.8</ele><time>2026-05-02T12:14:16.617Z</time></trkpt><trkpt lat="42.08222" lon="13.6160567"><ele>1081.4</ele><time>2026-05-02T12:14:17.616Z</time></trkpt><trkpt lat="42.08222" lon="13.615925"><ele>1080.0</ele><time>2026-05-02T12:14:18.617Z</time></trkpt><trkpt lat="42.0822233" lon="13.6157933"><ele>1078.6666666666667</ele><time>2026-05-02T12:14:19.617Z</time></trkpt><trkpt lat="42.0822267" lon="13.6156667"><ele>1077.3333333333333</ele><time>2026-05-02T12:14:20.616Z</time></trkpt><trkpt lat="42.0822267" lon="13.6155433"><ele>1076.0</ele><time>2026-05-02T12:14:21.617Z</time></trkpt><trkpt lat="42.08222" lon="13.6154367"><ele>1074.6666666666665</ele><time>2026-05-02T12:14:22.616Z</time></trkpt><trkpt lat="42.0822117" lon="13.6153233"><ele>1073.3333333333333</ele><time>2026-05-02T12:14:23.616Z</time></trkpt><trkpt lat="42.082205" lon="13.6151917"><ele>1072.0</ele><time>2026-05-02T12:14:24.617Z</time></trkpt><trkpt lat="42.0821967" lon="13.6150533"><ele>1070.8</ele><time>2026-05-02T12:14:25.616Z</time></trkpt><trkpt lat="42.0821917" lon="13.61492"><ele>1069.6</ele><time>2026-05-02T12:14:26.616Z</time></trkpt><trkpt lat="42.0821867" lon="13.6147867"><ele>1068.3999999999999</ele><time>2026-05-02T12:14:27.616Z</time></trkpt><trkpt lat="42.082185" lon="13.6146467"><ele>1067.2</ele><time>2026-05-02T12:14:28.617Z</time></trkpt><trkpt lat="42.0821867" lon="13.614505"><ele>1066.0</ele><time>2026-05-02T12:14:29.617Z</time></trkpt><trkpt lat="42.0821817" lon="13.61437"><ele>1064.25</ele><time>2026-05-02T12:14:30.617Z</time></trkpt><trkpt lat="42.08217" lon="13.6142333"><ele>1062.5</ele><time>2026-05-02T12:14:31.617Z</time></trkpt><trkpt lat="42.082165" lon="13.6140867"><ele>1060.75</ele><time>2026-05-02T12:14:32.617Z</time></trkpt><trkpt lat="42.08216" lon="13.613925"><ele>1059.0</ele><time>2026-05-02T12:14:33.616Z</time></trkpt><trkpt lat="42.0821517" lon="13.6137617"><ele>1057.75</ele><time>2026-05-02T12:14:34.617Z</time></trkpt><trkpt lat="42.0821383" lon="13.6136"><ele>1056.5</ele><time>2026-05-02T12:14:35.616Z</time></trkpt><trkpt lat="42.082125" lon="13.613435"><ele>1055.25</ele><time>2026-05-02T12:14:36.617Z</time></trkpt><trkpt lat="42.0821183" lon="13.6132683"><ele>1054.0</ele><time>2026-05-02T12:14:37.617Z</time></trkpt><trkpt lat="42.0821167" lon="13.613105"><ele>1054.0</ele><time>2026-05-02T12:14:38.617Z</time></trkpt><trkpt lat="42.08211" lon="13.612935"><ele>1054.0</ele><time>2026-05-02T12:14:39.617Z</time></trkpt><trkpt lat="42.0821033" lon="13.6127667"><ele>1054.0</ele><time>2026-05-02T12:14:40.617Z</time></trkpt><trkpt lat="42.0820983" lon="13.6125983"><ele>1054.0</ele><time>2026-05-02T12:14:41.617Z</time></trkpt><trkpt lat="42.0820867" lon="13.6124367"><ele>1053.0</ele><time>2026-05-02T12:14:42.616Z</time></trkpt><trkpt lat="42.08207" lon="13.6122767"><ele>1052.0</ele><time>2026-05-02T12:14:43.617Z</time></trkpt><trkpt lat="42.082055" lon="13.6121217"><ele>1051.0</ele><time>2026-05-02T12:14:44.616Z</time></trkpt><trkpt lat="42.0820467" lon="13.6119783"><ele>1050.0</ele><time>2026-05-02T12:14:45.617Z</time></trkpt><trkpt lat="42.0820383" lon="13.6118367"><ele>1049.0</ele><time>2026-05-02T12:14:46.616Z</time></trkpt><trkpt lat="42.0820317" lon="13.6117017"><ele>1047.6000000000001</ele><time>2026-05-02T12:14:47.617Z</time></trkpt><trkpt lat="42.0820217" lon="13.61156"><ele>1046.2</ele><time>2026-05-02T12:14:48.617Z</time></trkpt><trkpt lat="42.08202" lon="13.61142"><ele>1044.8000000000002</ele><time>2026-05-02T12:14:49.617Z</time></trkpt><trkpt lat="42.0820167" lon="13.6112817"><ele>1043.4</ele><time>2026-05-02T12:14:50.616Z</time></trkpt><trkpt lat="42.082015" lon="13.6111467"><ele>1042.0</ele><time>2026-05-02T12:14:51.616Z</time></trkpt><trkpt lat="42.08203" lon="13.6110317"><ele>1040.1666666666665</ele><time>2026-05-02T12:14:52.616Z</time></trkpt><trkpt lat="42.0820383" lon="13.6109233"><ele>1038.3333333333333</ele><time>2026-05-02T12:14:53.616Z</time></trkpt><trkpt lat="42.0820533" lon="13.610825"><ele>1036.5</ele><time>2026-05-02T12:14:54.616Z</time></trkpt><trkpt lat="42.0820817" lon="13.6107317"><ele>1034.6666666666667</ele><time>2026-05-02T12:14:55.617Z</time></trkpt><trkpt lat="42.08214" lon="13.6106"><ele>1032.8333333333335</ele><time>2026-05-02T12:14:57.616Z</time></trkpt><trkpt lat="42.0821967" lon="13.61052"><ele>1031.0</ele><time>2026-05-02T12:14:59.617Z</time></trkpt><trkpt lat="42.0822583" lon="13.6104817"><ele>1031.0</ele><time>2026-05-02T12:15:01.616Z</time></trkpt><trkpt lat="42.0823317" lon="13.6104583"><ele>1031.0</ele><time>2026-05-02T12:15:03.616Z</time></trkpt><trkpt lat="42.0824317" lon="13.610445"><ele>1031.0</ele><time>2026-05-02T12:15:05.616Z</time></trkpt><trkpt lat="42.0824967" lon="13.610445"><ele>1031.0</ele><time>2026-05-02T12:15:06.616Z</time></trkpt><trkpt lat="42.0826233" lon="13.6104317"><ele>1031.0</ele><time>2026-05-02T12:15:08.617Z</time></trkpt><trkpt lat="42.0827367" lon="13.6103833"><ele>1031.6666666666667</ele><time>2026-05-02T12:15:10.616Z</time></trkpt><trkpt lat="42.0828117" lon="13.6102883"><ele>1032.3333333333335</ele><time>2026-05-02T12:15:12.616Z</time></trkpt><trkpt lat="42.0828483" lon="13.6102083"><ele>1033.0</ele><time>2026-05-02T12:15:14.616Z</time></trkpt><trkpt lat="42.08278" lon="13.6101617"><ele>1033.6666666666667</ele><time>2026-05-02T12:15:48.616Z</time></trkpt><trkpt lat="42.0827083" lon="13.6101417"><ele>1034.3333333333333</ele><time>2026-05-02T12:15:50.616Z</time></trkpt><trkpt lat="42.0826333" lon="13.6100967"><ele>1035.0</ele><time>2026-05-02T12:15:52.617Z</time></trkpt><trkpt lat="42.0825383" lon="13.610075"><ele>1035.0</ele><time>2026-05-02T12:15:54.617Z</time></trkpt><trkpt lat="42.0824317" lon="13.61006"><ele>1035.0</ele><time>2026-05-02T12:15:56.617Z</time></trkpt><trkpt lat="42.08236" lon="13.6100433"><ele>1035.0</ele><time>2026-05-02T12:15:57.616Z</time></trkpt><trkpt lat="42.08228" lon="13.610025"><ele>1035.0</ele><time>2026-05-02T12:15:58.616Z</time></trkpt><trkpt lat="42.0822" lon="13.61001"><ele>1035.0</ele><time>2026-05-02T12:15:59.617Z</time></trkpt><trkpt lat="42.082125" lon="13.609995"><ele>1035.0</ele><time>2026-05-02T12:16:00.617Z</time></trkpt><trkpt lat="42.0820583" lon="13.6099883"><ele>1032.2</ele><time>2026-05-02T12:16:01.617Z</time></trkpt><trkpt lat="42.0819333" lon="13.6100017"><ele>1029.4</ele><time>2026-05-02T12:16:03.617Z</time></trkpt><trkpt lat="42.0818667" lon="13.6100133"><ele>1026.6</ele><time>2026-05-02T12:16:04.617Z</time></trkpt><trkpt lat="42.0818017" lon="13.6100183"><ele>1023.8</ele><time>2026-05-02T12:16:05.616Z</time></trkpt><trkpt lat="42.081695" lon="13.6100167"><ele>1021.0</ele><time>2026-05-02T12:16:07.617Z</time></trkpt><trkpt lat="42.0816017" lon="13.6100317"><ele>1018.9999999999999</ele><time>2026-05-02T12:16:09.617Z</time></trkpt><trkpt lat="42.08154" lon="13.6100517"><ele>1017.0</ele><time>2026-05-02T12:16:10.616Z</time></trkpt><trkpt lat="42.0814783" lon="13.61008"><ele>1015.0</ele><time>2026-05-02T12:16:11.617Z</time></trkpt><trkpt lat="42.0814183" lon="13.610115"><ele>1013.0</ele><time>2026-05-02T12:16:12.616Z</time></trkpt><trkpt lat="42.0813117" lon="13.610185"><ele>1010.9999999999999</ele><time>2026-05-02T12:16:14.617Z</time></trkpt><trkpt lat="42.0812217" lon="13.610255"><ele>1009.0</ele><time>2026-05-02T12:16:16.617Z</time></trkpt><trkpt lat="42.0811317" lon="13.6102867"><ele>1009.0</ele><time>2026-05-02T12:16:18.617Z</time></trkpt><trkpt lat="42.0810433" lon="13.6102767"><ele>1009.0000000000001</ele><time>2026-05-02T12:16:20.617Z</time></trkpt><trkpt lat="42.0809583" lon="13.610245"><ele>1009.0000000000001</ele><time>2026-05-02T12:16:22.617Z</time></trkpt><trkpt lat="42.08086" lon="13.6102183"><ele>1009.0</ele><time>2026-05-02T12:16:24.617Z</time></trkpt><trkpt lat="42.0807433" lon="13.6102167"><ele>1009.0</ele><time>2026-05-02T12:16:26.616Z</time></trkpt><trkpt lat="42.08068" lon="13.6102233"><ele>1007.3333333333333</ele><time>2026-05-02T12:16:27.617Z</time></trkpt><trkpt lat="42.0806167" lon="13.6102367"><ele>1005.6666666666666</ele><time>2026-05-02T12:16:28.617Z</time></trkpt><trkpt lat="42.0805533" lon="13.6102533"><ele>1004.0</ele><time>2026-05-02T12:16:29.616Z</time></trkpt><trkpt lat="42.0804883" lon="13.6102717"><ele>1002.3333333333333</ele><time>2026-05-02T12:16:30.617Z</time></trkpt><trkpt lat="42.0804183" lon="13.6102883"><ele>1000.6666666666666</ele><time>2026-05-02T12:16:31.617Z</time></trkpt><trkpt lat="42.0803533" lon="13.6103083"><ele>999.0</ele><time>2026-05-02T12:16:32.617Z</time></trkpt><trkpt lat="42.080225" lon="13.6103367"><ele>999.0</ele><time>2026-05-02T12:16:34.616Z</time></trkpt><trkpt lat="42.0801583" lon="13.61034"><ele>999.0000000000001</ele><time>2026-05-02T12:16:35.617Z</time></trkpt><trkpt lat="42.0800867" lon="13.610335"><ele>999.0</ele><time>2026-05-02T12:16:36.616Z</time></trkpt><trkpt lat="42.0800167" lon="13.610335"><ele>999.0</ele><time>2026-05-02T12:16:37.616Z</time></trkpt><trkpt lat="42.079935" lon="13.610345"><ele>999.0000000000001</ele><time>2026-05-02T12:16:38.617Z</time></trkpt><trkpt lat="42.079855" lon="13.61037"><ele>999.0</ele><time>2026-05-02T12:16:39.617Z</time></trkpt><trkpt lat="42.0797817" lon="13.6103967"><ele>999.0</ele><time>2026-05-02T12:16:40.617Z</time></trkpt><trkpt lat="42.07971" lon="13.610425"><ele>996.8333333333334</ele><time>2026-05-02T12:16:41.617Z</time></trkpt><trkpt lat="42.0796417" lon="13.6104383"><ele>994.6666666666667</ele><time>2026-05-02T12:16:42.617Z</time></trkpt><trkpt lat="42.07953" lon="13.6104483"><ele>992.5</ele><time>2026-05-02T12:16:44.617Z</time></trkpt><trkpt lat="42.0794683" lon="13.6104233"><ele>990.3333333333334</ele><time>2026-05-02T12:16:45.616Z</time></trkpt><trkpt lat="42.0793983" lon="13.610385"><ele>988.1666666666667</ele><time>2026-05-02T12:16:46.616Z</time></trkpt><trkpt lat="42.0793233" lon="13.6103483"><ele>986.0</ele><time>2026-05-02T12:16:47.617Z</time></trkpt><trkpt lat="42.0792417" lon="13.6103167"><ele>985.5000000000001</ele><time>2026-05-02T12:16:48.616Z</time></trkpt><trkpt lat="42.0791667" lon="13.61029"><ele>985.0</ele><time>2026-05-02T12:16:49.617Z</time></trkpt><trkpt lat="42.0790983" lon="13.610265"><ele>984.5</ele><time>2026-05-02T12:16:50.616Z</time></trkpt><trkpt lat="42.0790333" lon="13.610245"><ele>984.0</ele><time>2026-05-02T12:16:51.617Z</time></trkpt><trkpt lat="42.0789067" lon="13.61024"><ele>983.5000000000001</ele><time>2026-05-02T12:16:53.617Z</time></trkpt><trkpt lat="42.0788417" lon="13.61025"><ele>983.0</ele><time>2026-05-02T12:16:54.616Z</time></trkpt><trkpt lat="42.0787767" lon="13.6102667"><ele>981.0000000000001</ele><time>2026-05-02T12:16:55.617Z</time></trkpt><trkpt lat="42.07871" lon="13.6102817"><ele>979.0</ele><time>2026-05-02T12:16:56.617Z</time></trkpt><trkpt lat="42.0786333" lon="13.6102733"><ele>977.0</ele><time>2026-05-02T12:16:57.617Z</time></trkpt><trkpt lat="42.0785467" lon="13.61026"><ele>975.0</ele><time>2026-05-02T12:16:58.616Z</time></trkpt><trkpt lat="42.0784617" lon="13.610245"><ele>973.0000000000001</ele><time>2026-05-02T12:16:59.617Z</time></trkpt><trkpt lat="42.0783767" lon="13.6102317"><ele>971.0</ele><time>2026-05-02T12:17:00.616Z</time></trkpt><trkpt lat="42.07829" lon="13.6102267"><ele>969.1666666666667</ele><time>2026-05-02T12:17:01.617Z</time></trkpt><trkpt lat="42.07822" lon="13.6102317"><ele>967.3333333333334</ele><time>2026-05-02T12:17:02.616Z</time></trkpt><trkpt lat="42.0781533" lon="13.6102517"><ele>965.5</ele><time>2026-05-02T12:17:03.616Z</time></trkpt><trkpt lat="42.0780333" lon="13.6102917"><ele>963.6666666666667</ele><time>2026-05-02T12:17:05.616Z</time></trkpt><trkpt lat="42.0779617" lon="13.6103083"><ele>961.8333333333334</ele><time>2026-05-02T12:17:06.617Z</time></trkpt><trkpt lat="42.0778917" lon="13.610305"><ele>960.0</ele><time>2026-05-02T12:17:07.616Z</time></trkpt><trkpt lat="42.0778233" lon="13.610295"><ele>960.0</ele><time>2026-05-02T12:17:08.617Z</time></trkpt><trkpt lat="42.077755" lon="13.610285"><ele>960.0</ele><time>2026-05-02T12:17:09.616Z</time></trkpt><trkpt lat="42.0776883" lon="13.610285"><ele>960.0</ele><time>2026-05-02T12:17:10.616Z</time></trkpt><trkpt lat="42.0776267" lon="13.6103083"><ele>960.0</ele><time>2026-05-02T12:17:11.617Z</time></trkpt><trkpt lat="42.0775083" lon="13.61034"><ele>960.0</ele><time>2026-05-02T12:17:13.615Z</time></trkpt><trkpt lat="42.0773867" lon="13.6103283"><ele>960.0</ele><time>2026-05-02T12:17:15.615Z</time></trkpt><trkpt lat="42.0772667" lon="13.6103633"><ele>957.4</ele><time>2026-05-02T12:17:17.616Z</time></trkpt><trkpt lat="42.077145" lon="13.610415"><ele>954.8</ele><time>2026-05-02T12:17:19.615Z</time></trkpt><trkpt lat="42.0770317" lon="13.6104233"><ele>952.2</ele><time>2026-05-02T12:17:21.615Z</time></trkpt><trkpt lat="42.0769033" lon="13.6103983"><ele>949.6</ele><time>2026-05-02T12:17:23.616Z</time></trkpt><trkpt lat="42.0768367" lon="13.61039"><ele>947.0</ele><time>2026-05-02T12:17:24.615Z</time></trkpt><trkpt lat="42.0767683" lon="13.6103917"><ele>947.0</ele><time>2026-05-02T12:17:25.615Z</time></trkpt><trkpt lat="42.076695" lon="13.6103967"><ele>946.9999999999999</ele><time>2026-05-02T12:17:26.616Z</time></trkpt><trkpt lat="42.076625" lon="13.610395"><ele>947.0</ele><time>2026-05-02T12:17:27.616Z</time></trkpt><trkpt lat="42.0765533" lon="13.6103933"><ele>947.0</ele><time>2026-05-02T12:17:28.616Z</time></trkpt><trkpt lat="42.0764833" lon="13.610395"><ele>946.9999999999999</ele><time>2026-05-02T12:17:29.616Z</time></trkpt><trkpt lat="42.0764133" lon="13.6104083"><ele>947.0</ele><time>2026-05-02T12:17:30.615Z</time></trkpt><trkpt lat="42.0763433" lon="13.6104217"><ele>947.0</ele><time>2026-05-02T12:17:31.615Z</time></trkpt><trkpt lat="42.0762733" lon="13.610435"><ele>943.8</ele><time>2026-05-02T12:17:32.616Z</time></trkpt><trkpt lat="42.0762067" lon="13.6104417"><ele>940.6</ele><time>2026-05-02T12:17:33.616Z</time></trkpt><trkpt lat="42.0761167" lon="13.6105067"><ele>937.3999999999999</ele><time>2026-05-02T12:17:35.616Z</time></trkpt><trkpt lat="42.0760317" lon="13.61062"><ele>934.1999999999999</ele><time>2026-05-02T12:17:37.616Z</time></trkpt><trkpt lat="42.0759367" lon="13.6107233"><ele>931.0</ele><time>2026-05-02T12:17:39.615Z</time></trkpt><trkpt lat="42.07584" lon="13.610795"><ele>929.2857142857142</ele><time>2026-05-02T12:17:41.615Z</time></trkpt><trkpt lat="42.0757683" lon="13.6108417"><ele>927.5714285714286</ele><time>2026-05-02T12:17:44.615Z</time></trkpt><trkpt lat="42.0756983" lon="13.61089"><ele>925.8571428571429</ele><time>2026-05-02T12:17:47.616Z</time></trkpt><trkpt lat="42.0756417" lon="13.6109283"><ele>924.1428571428571</ele><time>2026-05-02T12:17:49.616Z</time></trkpt><trkpt lat="42.0755767" lon="13.610975"><ele>922.4285714285713</ele><time>2026-05-02T12:17:51.616Z</time></trkpt><trkpt lat="42.07551" lon="13.6110117"><ele>920.7142857142857</ele><time>2026-05-02T12:17:53.616Z</time></trkpt><trkpt lat="42.0754467" lon="13.6110483"><ele>919.0</ele><time>2026-05-02T12:17:55.616Z</time></trkpt><trkpt lat="42.075375" lon="13.6110917"><ele>918.8333333333333</ele><time>2026-05-02T12:17:57.616Z</time></trkpt><trkpt lat="42.0752967" lon="13.6111817"><ele>918.6666666666666</ele><time>2026-05-02T12:18:00.616Z</time></trkpt><trkpt lat="42.0752467" lon="13.611235"><ele>918.5</ele><time>2026-05-02T12:18:02.616Z</time></trkpt><trkpt lat="42.0752617" lon="13.61132"><ele>918.3333333333333</ele><time>2026-05-02T12:18:29.615Z</time></trkpt><trkpt lat="42.0753317" lon="13.611335"><ele>918.1666666666666</ele><time>2026-05-02T12:18:31.615Z</time></trkpt><trkpt lat="42.0754117" lon="13.6113417"><ele>918.0</ele><time>2026-05-02T12:18:33.615Z</time></trkpt><trkpt lat="42.0754883" lon="13.6113167"><ele>918.0</ele><time>2026-05-02T12:18:36.616Z</time></trkpt><trkpt lat="42.0754133" lon="13.6113783"><ele>918.0</ele><time>2026-05-02T13:16:53.607Z</time></trkpt><trkpt lat="42.0753217" lon="13.61137"><ele>918.0</ele><time>2026-05-02T13:16:56.607Z</time></trkpt><trkpt lat="42.0752167" lon="13.6113167"><ele>918.0</ele><time>2026-05-02T13:17:09.608Z</time></trkpt><trkpt lat="42.0751267" lon="13.6113033"><ele>918.0</ele><time>2026-05-02T13:17:12.607Z</time></trkpt><trkpt lat="42.07504" lon="13.6113367"><ele>916.6666666666666</ele><time>2026-05-02T13:17:14.608Z</time></trkpt><trkpt lat="42.0749167" lon="13.6113433"><ele>915.3333333333333</ele><time>2026-05-02T13:17:16.607Z</time></trkpt><trkpt lat="42.074855" lon="13.6113217"><ele>914.0</ele><time>2026-05-02T13:17:17.608Z</time></trkpt><trkpt lat="42.07478" lon="13.6113033"><ele>912.6666666666666</ele><time>2026-05-02T13:17:18.607Z</time></trkpt><trkpt lat="42.0747133" lon="13.61128"><ele>911.3333333333333</ele><time>2026-05-02T13:17:19.607Z</time></trkpt><trkpt lat="42.074645" lon="13.611255"><ele>910.0</ele><time>2026-05-02T13:17:20.607Z</time></trkpt><trkpt lat="42.0745817" lon="13.61123"><ele>909.9999999999999</ele><time>2026-05-02T13:17:21.608Z</time></trkpt><trkpt lat="42.0745133" lon="13.6112017"><ele>910.0</ele><time>2026-05-02T13:17:22.608Z</time></trkpt><trkpt lat="42.0744367" lon="13.611165"><ele>910.0</ele><time>2026-05-02T13:17:23.607Z</time></trkpt><trkpt lat="42.0743533" lon="13.61112"><ele>910.0</ele><time>2026-05-02T13:17:24.608Z</time></trkpt><trkpt lat="42.0742633" lon="13.611075"><ele>909.9999999999999</ele><time>2026-05-02T13:17:25.607Z</time></trkpt><trkpt lat="42.074175" lon="13.6110283"><ele>910.0</ele><time>2026-05-02T13:17:26.607Z</time></trkpt><trkpt lat="42.0740883" lon="13.6109783"><ele>908.6666666666666</ele><time>2026-05-02T13:17:27.608Z</time></trkpt><trkpt lat="42.0740017" lon="13.6109217"><ele>907.3333333333333</ele><time>2026-05-02T13:17:28.607Z</time></trkpt><trkpt lat="42.07392" lon="13.6108617"><ele>906.0</ele><time>2026-05-02T13:17:29.607Z</time></trkpt><trkpt lat="42.07384" lon="13.6108067"><ele>904.6666666666667</ele><time>2026-05-02T13:17:30.607Z</time></trkpt><trkpt lat="42.0737683" lon="13.6107533"><ele>903.3333333333334</ele><time>2026-05-02T13:17:31.607Z</time></trkpt><trkpt lat="42.0737" lon="13.6106983"><ele>902.0</ele><time>2026-05-02T13:17:32.607Z</time></trkpt><trkpt lat="42.0736383" lon="13.61064"><ele>902.0000000000001</ele><time>2026-05-02T13:17:33.608Z</time></trkpt><trkpt lat="42.0735733" lon="13.61059"><ele>902.0</ele><time>2026-05-02T13:17:34.607Z</time></trkpt><trkpt lat="42.0735083" lon="13.6105417"><ele>902.0</ele><time>2026-05-02T13:17:35.608Z</time></trkpt><trkpt lat="42.0734483" lon="13.6104883"><ele>902.0</ele><time>2026-05-02T13:17:36.607Z</time></trkpt><trkpt lat="42.0733867" lon="13.6104267"><ele>902.0000000000001</ele><time>2026-05-02T13:17:37.608Z</time></trkpt><trkpt lat="42.0733167" lon="13.6103533"><ele>902.0</ele><time>2026-05-02T13:17:38.608Z</time></trkpt><trkpt lat="42.07324" lon="13.6102717"><ele>899.25</ele><time>2026-05-02T13:17:39.607Z</time></trkpt><trkpt lat="42.0731567" lon="13.6101817"><ele>896.5</ele><time>2026-05-02T13:17:40.607Z</time></trkpt><trkpt lat="42.0730733" lon="13.6100883"><ele>893.75</ele><time>2026-05-02T13:17:41.608Z</time></trkpt><trkpt lat="42.0729883" lon="13.609985"><ele>891.0</ele><time>2026-05-02T13:17:42.607Z</time></trkpt><trkpt lat="42.072895" lon="13.60988"><ele>891.0</ele><time>2026-05-02T13:17:43.607Z</time></trkpt><trkpt lat="42.0727983" lon="13.60977"><ele>891.0</ele><time>2026-05-02T13:17:44.608Z</time></trkpt><trkpt lat="42.0727017" lon="13.6096483"><ele>891.0</ele><time>2026-05-02T13:17:45.607Z</time></trkpt><trkpt lat="42.072605" lon="13.609535"><ele>891.0</ele><time>2026-05-02T13:17:46.608Z</time></trkpt><trkpt lat="42.0725133" lon="13.609425"><ele>889.0</ele><time>2026-05-02T13:17:47.608Z</time></trkpt><trkpt lat="42.07243" lon="13.60932"><ele>886.9999999999999</ele><time>2026-05-02T13:17:48.608Z</time></trkpt><trkpt lat="42.0723483" lon="13.6092267"><ele>884.9999999999999</ele><time>2026-05-02T13:17:49.607Z</time></trkpt><trkpt lat="42.0722783" lon="13.6091417"><ele>883.0</ele><time>2026-05-02T13:17:50.608Z</time></trkpt><trkpt lat="42.0722233" lon="13.6090483"><ele>881.0</ele><time>2026-05-02T13:17:51.607Z</time></trkpt><trkpt lat="42.0721883" lon="13.6089267"><ele>881.0</ele><time>2026-05-02T13:17:52.608Z</time></trkpt><trkpt lat="42.0721667" lon="13.608785"><ele>881.0</ele><time>2026-05-02T13:17:53.608Z</time></trkpt><trkpt lat="42.0721433" lon="13.6086317"><ele>881.0</ele><time>2026-05-02T13:17:54.608Z</time></trkpt><trkpt lat="42.0721217" lon="13.608475"><ele>881.0</ele><time>2026-05-02T13:17:55.608Z</time></trkpt><trkpt lat="42.0721033" lon="13.6083267"><ele>880.25</ele><time>2026-05-02T13:17:56.608Z</time></trkpt><trkpt lat="42.0720883" lon="13.60818"><ele>879.5</ele><time>2026-05-02T13:17:57.607Z</time></trkpt><trkpt lat="42.0720817" lon="13.6080267"><ele>878.75</ele><time>2026-05-02T13:17:58.608Z</time></trkpt><trkpt lat="42.0720817" lon="13.60786"><ele>878.0</ele><time>2026-05-02T13:17:59.607Z</time></trkpt><trkpt lat="42.07208" lon="13.6076883"><ele>876.5</ele><time>2026-05-02T13:18:00.607Z</time></trkpt><trkpt lat="42.0720817" lon="13.6075317"><ele>875.0</ele><time>2026-05-02T13:18:01.607Z</time></trkpt><trkpt lat="42.07208" lon="13.60737"><ele>873.5</ele><time>2026-05-02T13:18:02.608Z</time></trkpt><trkpt lat="42.0720817" lon="13.607215"><ele>872.0</ele><time>2026-05-02T13:18:03.608Z</time></trkpt><trkpt lat="42.0720683" lon="13.60707"><ele>869.75</ele><time>2026-05-02T13:18:04.608Z</time></trkpt><trkpt lat="42.0720367" lon="13.606915"><ele>867.5</ele><time>2026-05-02T13:18:05.608Z</time></trkpt><trkpt lat="42.0719833" lon="13.6067717"><ele>865.25</ele><time>2026-05-02T13:18:06.608Z</time></trkpt><trkpt lat="42.07191" lon="13.606635"><ele>863.0</ele><time>2026-05-02T13:18:07.608Z</time></trkpt><trkpt lat="42.0718167" lon="13.606505"><ele>863.0</ele><time>2026-05-02T13:18:08.608Z</time></trkpt><trkpt lat="42.0717133" lon="13.6063833"><ele>863.0</ele><time>2026-05-02T13:18:09.607Z</time></trkpt><trkpt lat="42.071605" lon="13.6062683"><ele>863.0</ele><time>2026-05-02T13:18:10.607Z</time></trkpt><trkpt lat="42.071495" lon="13.6061717"><ele>863.0</ele><time>2026-05-02T13:18:11.608Z</time></trkpt><trkpt lat="42.07139" lon="13.6061017"><ele>859.25</ele><time>2026-05-02T13:18:12.608Z</time></trkpt><trkpt lat="42.0712767" lon="13.6060383"><ele>855.5</ele><time>2026-05-02T13:18:13.608Z</time></trkpt><trkpt lat="42.0711683" lon="13.60597"><ele>851.75</ele><time>2026-05-02T13:18:14.608Z</time></trkpt><trkpt lat="42.0710567" lon="13.605885"><ele>848.0</ele><time>2026-05-02T13:18:15.608Z</time></trkpt><trkpt lat="42.0709483" lon="13.6057667"><ele>848.0</ele><time>2026-05-02T13:18:16.608Z</time></trkpt><trkpt lat="42.0708283" lon="13.6056467"><ele>848.0</ele><time>2026-05-02T13:18:17.608Z</time></trkpt><trkpt lat="42.0707083" lon="13.60554"><ele>848.0</ele><time>2026-05-02T13:18:18.607Z</time></trkpt><trkpt lat="42.0705867" lon="13.6054333"><ele>848.0</ele><time>2026-05-02T13:18:19.607Z</time></trkpt><trkpt lat="42.0704583" lon="13.6053283"><ele>844.0</ele><time>2026-05-02T13:18:20.607Z</time></trkpt><trkpt lat="42.0703383" lon="13.6052217"><ele>840.0</ele><time>2026-05-02T13:18:21.608Z</time></trkpt><trkpt lat="42.07023" lon="13.6051067"><ele>836.0</ele><time>2026-05-02T13:18:22.608Z</time></trkpt><trkpt lat="42.0701233" lon="13.6049933"><ele>832.0</ele><time>2026-05-02T13:18:23.607Z</time></trkpt><trkpt lat="42.0700117" lon="13.604885"><ele>829.0</ele><time>2026-05-02T13:18:24.608Z</time></trkpt><trkpt lat="42.0698967" lon="13.6047817"><ele>826.0</ele><time>2026-05-02T13:18:25.608Z</time></trkpt><trkpt lat="42.0697833" lon="13.6046683"><ele>823.0</ele><time>2026-05-02T13:18:26.608Z</time></trkpt><trkpt lat="42.069665" lon="13.6045533"><ele>820.0</ele><time>2026-05-02T13:18:27.607Z</time></trkpt><trkpt lat="42.0695383" lon="13.604445"><ele>818.25</ele><time>2026-05-02T13:18:28.608Z</time></trkpt><trkpt lat="42.0694167" lon="13.6043283"><ele>816.5</ele><time>2026-05-02T13:18:29.608Z</time></trkpt><trkpt lat="42.0693" lon="13.6042133"><ele>814.75</ele><time>2026-05-02T13:18:30.607Z</time></trkpt><trkpt lat="42.069185" lon="13.60409"><ele>813.0</ele><time>2026-05-02T13:18:31.607Z</time></trkpt><trkpt lat="42.069075" lon="13.6039717"><ele>811.75</ele><time>2026-05-02T13:18:32.607Z</time></trkpt><trkpt lat="42.0689633" lon="13.6038517"><ele>810.5</ele><time>2026-05-02T13:18:33.608Z</time></trkpt><trkpt lat="42.0688567" lon="13.6037317"><ele>809.25</ele><time>2026-05-02T13:18:34.608Z</time></trkpt><trkpt lat="42.068755" lon="13.60362"><ele>808.0</ele><time>2026-05-02T13:18:35.608Z</time></trkpt><trkpt lat="42.0686617" lon="13.6035167"><ele>807.9999999999999</ele><time>2026-05-02T13:18:36.608Z</time></trkpt><trkpt lat="42.0685833" lon="13.60343"><ele>808.0</ele><time>2026-05-02T13:18:37.607Z</time></trkpt><trkpt lat="42.0685133" lon="13.603375"><ele>808.0</ele><time>2026-05-02T13:18:38.608Z</time></trkpt><trkpt lat="42.0684517" lon="13.603345"><ele>808.0</ele><time>2026-05-02T13:18:39.607Z</time></trkpt><trkpt lat="42.068385" lon="13.6033433"><ele>807.9999999999999</ele><time>2026-05-02T13:18:40.607Z</time></trkpt><trkpt lat="42.0683217" lon="13.6033917"><ele>808.0</ele><time>2026-05-02T13:18:41.608Z</time></trkpt><trkpt lat="42.0682467" lon="13.60347"><ele>809.8</ele><time>2026-05-02T13:18:42.608Z</time></trkpt><trkpt lat="42.0681717" lon="13.6035367"><ele>811.5999999999999</ele><time>2026-05-02T13:18:43.607Z</time></trkpt><trkpt lat="42.0680817" lon="13.60357"><ele>813.4000000000001</ele><time>2026-05-02T13:18:44.607Z</time></trkpt><trkpt lat="42.0679767" lon="13.6035767"><ele>815.2</ele><time>2026-05-02T13:18:45.607Z</time></trkpt><trkpt lat="42.0678467" lon="13.6035683"><ele>817.0</ele><time>2026-05-02T13:18:46.607Z</time></trkpt><trkpt lat="42.0677067" lon="13.6035517"><ele>817.0</ele><time>2026-05-02T13:18:47.608Z</time></trkpt><trkpt lat="42.06757" lon="13.6035383"><ele>817.0</ele><time>2026-05-02T13:18:48.608Z</time></trkpt><trkpt lat="42.0674383" lon="13.603535"><ele>817.0</ele><time>2026-05-02T13:18:49.608Z</time></trkpt><trkpt lat="42.0672967" lon="13.603515"><ele>817.0</ele><time>2026-05-02T13:18:50.607Z</time></trkpt><trkpt lat="42.0671533" lon="13.603505"><ele>818.0</ele><time>2026-05-02T13:18:51.607Z</time></trkpt><trkpt lat="42.0670217" lon="13.603485"><ele>819.0</ele><time>2026-05-02T13:18:52.607Z</time></trkpt><trkpt lat="42.066895" lon="13.6034333"><ele>820.0</ele><time>2026-05-02T13:18:53.607Z</time></trkpt><trkpt lat="42.06676" lon="13.6033867"><ele>821.0</ele><time>2026-05-02T13:18:54.607Z</time></trkpt><trkpt lat="42.0666317" lon="13.60334"><ele>822.75</ele><time>2026-05-02T13:18:55.607Z</time></trkpt><trkpt lat="42.0665083" lon="13.6033067"><ele>824.5</ele><time>2026-05-02T13:18:56.608Z</time></trkpt><trkpt lat="42.0663883" lon="13.6032867"><ele>826.25</ele><time>2026-05-02T13:18:57.607Z</time></trkpt><trkpt lat="42.0662667" lon="13.6032917"><ele>828.0</ele><time>2026-05-02T13:18:58.607Z</time></trkpt><trkpt lat="42.0661417" lon="13.6033183"><ele>828.0</ele><time>2026-05-02T13:18:59.607Z</time></trkpt><trkpt lat="42.0660333" lon="13.6033367"><ele>828.0</ele><time>2026-05-02T13:19:00.608Z</time></trkpt><trkpt lat="42.065955" lon="13.6033483"><ele>828.0</ele><time>2026-05-02T13:19:01.608Z</time></trkpt><trkpt lat="42.0658917" lon="13.6033667"><ele>828.0</ele><time>2026-05-02T13:19:02.608Z</time></trkpt><trkpt lat="42.065805" lon="13.6033583"><ele>828.0</ele><time>2026-05-02T13:19:04.607Z</time></trkpt><trkpt lat="42.0657367" lon="13.60331"><ele>828.0</ele><time>2026-05-02T13:19:06.607Z</time></trkpt><trkpt lat="42.065685" lon="13.6031383"><ele>828.2</ele><time>2026-05-02T13:19:08.608Z</time></trkpt><trkpt lat="42.06567" lon="13.60302"><ele>828.4</ele><time>2026-05-02T13:19:09.607Z</time></trkpt><trkpt lat="42.065665" lon="13.6028883"><ele>828.6</ele><time>2026-05-02T13:19:10.607Z</time></trkpt><trkpt lat="42.065675" lon="13.6027867"><ele>828.8000000000001</ele><time>2026-05-02T13:19:11.607Z</time></trkpt><trkpt lat="42.065695" lon="13.6027033"><ele>829.0</ele><time>2026-05-02T13:19:12.608Z</time></trkpt><trkpt lat="42.06578" lon="13.6025833"><ele>828.8333333333333</ele><time>2026-05-02T13:19:14.608Z</time></trkpt><trkpt lat="42.0658233" lon="13.6025083"><ele>828.6666666666666</ele><time>2026-05-02T13:19:15.607Z</time></trkpt><trkpt lat="42.0658517" lon="13.60241"><ele>828.5</ele><time>2026-05-02T13:19:16.607Z</time></trkpt><trkpt lat="42.06587" lon="13.60229"><ele>828.3333333333333</ele><time>2026-05-02T13:19:17.607Z</time></trkpt><trkpt lat="42.0658967" lon="13.602155"><ele>828.1666666666666</ele><time>2026-05-02T13:19:18.608Z</time></trkpt><trkpt lat="42.0659233" lon="13.60202"><ele>828.0</ele><time>2026-05-02T13:19:19.607Z</time></trkpt><trkpt lat="42.06596" lon="13.6018683"><ele>828.0</ele><time>2026-05-02T13:19:20.608Z</time></trkpt><trkpt lat="42.06599" lon="13.6017117"><ele>828.0</ele><time>2026-05-02T13:19:21.607Z</time></trkpt><trkpt lat="42.06602" lon="13.60155"><ele>828.0</ele><time>2026-05-02T13:19:22.608Z</time></trkpt><trkpt lat="42.066045" lon="13.6014"><ele>828.0</ele><time>2026-05-02T13:19:23.607Z</time></trkpt><trkpt lat="42.06606" lon="13.60126"><ele>828.2</ele><time>2026-05-02T13:19:24.608Z</time></trkpt><trkpt lat="42.0660667" lon="13.601125"><ele>828.4</ele><time>2026-05-02T13:19:25.608Z</time></trkpt><trkpt lat="42.0660683" lon="13.6009917"><ele>828.6</ele><time>2026-05-02T13:19:26.608Z</time></trkpt><trkpt lat="42.0660783" lon="13.6008667"><ele>828.8000000000001</ele><time>2026-05-02T13:19:27.607Z</time></trkpt><trkpt lat="42.066095" lon="13.60075"><ele>829.0</ele><time>2026-05-02T13:19:28.608Z</time></trkpt><trkpt lat="42.066115" lon="13.60065"><ele>829.0</ele><time>2026-05-02T13:19:29.607Z</time></trkpt><trkpt lat="42.0661467" lon="13.6004967"><ele>829.0</ele><time>2026-05-02T13:19:31.608Z</time></trkpt><trkpt lat="42.0661667" lon="13.6003817"><ele>829.0</ele><time>2026-05-02T13:19:33.608Z</time></trkpt><trkpt lat="42.0661717" lon="13.6002767"><ele>829.0</ele><time>2026-05-02T13:19:36.608Z</time></trkpt><trkpt lat="42.066085" lon="13.6002083"><ele>829.0</ele><time>2026-05-02T13:19:39.607Z</time></trkpt><trkpt lat="42.0660133" lon="13.60022"><ele>828.8571428571429</ele><time>2026-05-02T13:19:42.607Z</time></trkpt><trkpt lat="42.06595" lon="13.600215"><ele>828.7142857142857</ele><time>2026-05-02T13:19:46.607Z</time></trkpt><trkpt lat="42.0658833" lon="13.600205"><ele>828.5714285714287</ele><time>2026-05-02T13:19:49.608Z</time></trkpt><trkpt lat="42.0658067" lon="13.600205"><ele>828.4285714285714</ele><time>2026-05-02T13:19:51.608Z</time></trkpt><trkpt lat="42.0657133" lon="13.6002067"><ele>828.2857142857143</ele><time>2026-05-02T13:19:53.608Z</time></trkpt><trkpt lat="42.06565" lon="13.6002033"><ele>828.1428571428572</ele><time>2026-05-02T13:19:54.607Z</time></trkpt><trkpt lat="42.0655683" lon="13.6001933"><ele>828.0</ele><time>2026-05-02T13:19:55.608Z</time></trkpt><trkpt lat="42.0654783" lon="13.6001867"><ele>826.2</ele><time>2026-05-02T13:19:56.607Z</time></trkpt><trkpt lat="42.0653833" lon="13.6001817"><ele>824.4</ele><time>2026-05-02T13:19:57.608Z</time></trkpt><trkpt lat="42.0652833" lon="13.6001717"><ele>822.6</ele><time>2026-05-02T13:19:58.607Z</time></trkpt><trkpt lat="42.0651867" lon="13.6001633"><ele>820.8000000000001</ele><time>2026-05-02T13:19:59.608Z</time></trkpt><trkpt lat="42.0650933" lon="13.6001583"><ele>819.0</ele><time>2026-05-02T13:20:00.607Z</time></trkpt><trkpt lat="42.0650033" lon="13.6001483"><ele>817.2</ele><time>2026-05-02T13:20:01.607Z</time></trkpt><trkpt lat="42.06491" lon="13.600145"><ele>815.4000000000001</ele><time>2026-05-02T13:20:02.608Z</time></trkpt><trkpt lat="42.0648133" lon="13.600145"><ele>813.6</ele><time>2026-05-02T13:20:03.608Z</time></trkpt><trkpt lat="42.0647117" lon="13.6001467"><ele>811.8</ele><time>2026-05-02T13:20:04.608Z</time></trkpt><trkpt lat="42.0645983" lon="13.600145"><ele>810.0</ele><time>2026-05-02T13:20:05.607Z</time></trkpt><trkpt lat="42.0644817" lon="13.6001433"><ele>810.0</ele><time>2026-05-02T13:20:06.607Z</time></trkpt><trkpt lat="42.0643717" lon="13.60015"><ele>810.0</ele><time>2026-05-02T13:20:07.608Z</time></trkpt><trkpt lat="42.0642717" lon="13.6001233"><ele>810.0</ele><time>2026-05-02T13:20:08.607Z</time></trkpt><trkpt lat="42.06418" lon="13.6001"><ele>810.0</ele><time>2026-05-02T13:20:09.608Z</time></trkpt><trkpt lat="42.0640917" lon="13.6000833"><ele>810.0</ele><time>2026-05-02T13:20:10.608Z</time></trkpt><trkpt lat="42.06402" lon="13.6000633"><ele>808.6666666666666</ele><time>2026-05-02T13:20:11.608Z</time></trkpt><trkpt lat="42.0639567" lon="13.6000483"><ele>807.3333333333333</ele><time>2026-05-02T13:20:12.608Z</time></trkpt><trkpt lat="42.0638883" lon="13.6000283"><ele>806.0</ele><time>2026-05-02T13:20:13.608Z</time></trkpt><trkpt lat="42.0638217" lon="13.6000067"><ele>804.6666666666666</ele><time>2026-05-02T13:20:14.608Z</time></trkpt><trkpt lat="42.0637183" lon="13.599975"><ele>803.3333333333333</ele><time>2026-05-02T13:20:16.606Z</time></trkpt><trkpt lat="42.0637017" lon="13.59986"><ele>802.0</ele><time>2026-05-02T13:20:19.607Z</time></trkpt><trkpt lat="42.0637417" lon="13.59972"><ele>802.0</ele><time>2026-05-02T13:23:12.606Z</time></trkpt><trkpt lat="42.0637733" lon="13.5996433"><ele>802.0</ele><time>2026-05-02T13:23:13.607Z</time></trkpt><trkpt lat="42.0638183" lon="13.599505"><ele>802.0</ele><time>2026-05-02T13:23:14.606Z</time></trkpt><trkpt lat="42.0638633" lon="13.5993567"><ele>802.0</ele><time>2026-05-02T13:23:15.606Z</time></trkpt><trkpt lat="42.063905" lon="13.5992167"><ele>802.0</ele><time>2026-05-02T13:23:16.606Z</time></trkpt><trkpt lat="42.0639433" lon="13.5991033"><ele>802.4000000000001</ele><time>2026-05-02T13:23:17.607Z</time></trkpt><trkpt lat="42.0639717" lon="13.599015"><ele>802.8000000000001</ele><time>2026-05-02T13:23:18.607Z</time></trkpt><trkpt lat="42.0640167" lon="13.59895"><ele>803.2</ele><time>2026-05-02T13:23:20.605Z</time></trkpt><trkpt lat="42.0641583" lon="13.5989417"><ele>803.6</ele><time>2026-05-02T13:23:22.605Z</time></trkpt><trkpt lat="42.0643017" lon="13.5989417"><ele>804.0</ele><time>2026-05-02T13:23:23.606Z</time></trkpt><trkpt lat="42.0644633" lon="13.5989517"><ele>804.0</ele><time>2026-05-02T13:23:24.605Z</time></trkpt><trkpt lat="42.06462" lon="13.59896"><ele>804.0</ele><time>2026-05-02T13:23:25.606Z</time></trkpt><trkpt lat="42.0647533" lon="13.5989667"><ele>804.0</ele><time>2026-05-02T13:23:26.606Z</time></trkpt><trkpt lat="42.0648783" lon="13.5989767"><ele>804.0</ele><time>2026-05-02T13:23:27.606Z</time></trkpt><trkpt lat="42.06501" lon="13.5989867"><ele>806.75</ele><time>2026-05-02T13:23:28.606Z</time></trkpt><trkpt lat="42.0651533" lon="13.5989867"><ele>809.5</ele><time>2026-05-02T13:23:29.606Z</time></trkpt><trkpt lat="42.0653017" lon="13.5989883"><ele>812.25</ele><time>2026-05-02T13:23:30.605Z</time></trkpt><trkpt lat="42.0654433" lon="13.599"><ele>815.0</ele><time>2026-05-02T13:23:31.605Z</time></trkpt><trkpt lat="42.0655717" lon="13.5990083"><ele>815.0</ele><time>2026-05-02T13:23:32.606Z</time></trkpt><trkpt lat="42.0657083" lon="13.5990033"><ele>815.0</ele><time>2026-05-02T13:23:33.605Z</time></trkpt><trkpt lat="42.065835" lon="13.5990067"><ele>815.0</ele><time>2026-05-02T13:23:34.605Z</time></trkpt><trkpt lat="42.0659683" lon="13.5990167"><ele>815.0</ele><time>2026-05-02T13:23:35.605Z</time></trkpt><trkpt lat="42.06609" lon="13.5990317"><ele>816.6666666666667</ele><time>2026-05-02T13:23:36.606Z</time></trkpt><trkpt lat="42.0661883" lon="13.59904"><ele>818.3333333333334</ele><time>2026-05-02T13:23:37.605Z</time></trkpt><trkpt lat="42.0662667" lon="13.5990517"><ele>820.0</ele><time>2026-05-02T13:23:38.605Z</time></trkpt><trkpt lat="42.0663533" lon="13.5990817"><ele>821.6666666666667</ele><time>2026-05-02T13:23:40.605Z</time></trkpt><trkpt lat="42.0664183" lon="13.5990067"><ele>823.3333333333334</ele><time>2026-05-02T13:23:42.606Z</time></trkpt><trkpt lat="42.0664533" lon="13.59893"><ele>825.0</ele><time>2026-05-02T13:23:43.606Z</time></trkpt><trkpt lat="42.0664917" lon="13.5987883"><ele>825.8</ele><time>2026-05-02T13:23:44.606Z</time></trkpt><trkpt lat="42.0665383" lon="13.5986283"><ele>826.6</ele><time>2026-05-02T13:23:45.605Z</time></trkpt><trkpt lat="42.06659" lon="13.5984833"><ele>827.4000000000001</ele><time>2026-05-02T13:23:46.606Z</time></trkpt><trkpt lat="42.0666483" lon="13.5983717"><ele>828.2</ele><time>2026-05-02T13:23:47.605Z</time></trkpt><trkpt lat="42.0667" lon="13.5982683"><ele>829.0</ele><time>2026-05-02T13:23:48.606Z</time></trkpt><trkpt lat="42.0667533" lon="13.5981517"><ele>829.0</ele><time>2026-05-02T13:23:49.606Z</time></trkpt><trkpt lat="42.0668" lon="13.598045"><ele>829.0</ele><time>2026-05-02T13:23:50.606Z</time></trkpt><trkpt lat="42.066835" lon="13.5979633"><ele>829.0</ele><time>2026-05-02T13:23:51.605Z</time></trkpt><trkpt lat="42.0669067" lon="13.5978933"><ele>829.0</ele><time>2026-05-02T13:23:53.606Z</time></trkpt><trkpt lat="42.0670533" lon="13.5979133"><ele>829.0</ele><time>2026-05-02T13:23:55.605Z</time></trkpt><trkpt lat="42.067175" lon="13.5979267"><ele>829.0</ele><time>2026-05-02T13:23:56.605Z</time></trkpt><trkpt lat="42.067305" lon="13.5979417"><ele>829.0</ele><time>2026-05-02T13:23:57.606Z</time></trkpt><trkpt lat="42.067445" lon="13.597975"><ele>829.0</ele><time>2026-05-02T13:23:58.606Z</time></trkpt><trkpt lat="42.067595" lon="13.5980183"><ele>829.0</ele><time>2026-05-02T13:23:59.605Z</time></trkpt><trkpt lat="42.067755" lon="13.5980633"><ele>832.6666666666666</ele><time>2026-05-02T13:24:00.606Z</time></trkpt><trkpt lat="42.0679217" lon="13.5981133"><ele>836.3333333333333</ele><time>2026-05-02T13:24:01.605Z</time></trkpt><trkpt lat="42.06809" lon="13.59816"><ele>840.0</ele><time>2026-05-02T13:24:02.605Z</time></trkpt><trkpt lat="42.0682567" lon="13.59821"><ele>842.6666666666667</ele><time>2026-05-02T13:24:03.606Z</time></trkpt><trkpt lat="42.06842" lon="13.5982583"><ele>845.3333333333334</ele><time>2026-05-02T13:24:04.605Z</time></trkpt><trkpt lat="42.0685817" lon="13.598295"><ele>848.0</ele><time>2026-05-02T13:24:05.606Z</time></trkpt><trkpt lat="42.0687383" lon="13.598325"><ele>848.0</ele><time>2026-05-02T13:24:06.606Z</time></trkpt><trkpt lat="42.0688783" lon="13.5983617"><ele>848.0</ele><time>2026-05-02T13:24:07.606Z</time></trkpt><trkpt lat="42.06901" lon="13.59839"><ele>848.0</ele><time>2026-05-02T13:24:08.605Z</time></trkpt><trkpt lat="42.069125" lon="13.5984167"><ele>848.0</ele><time>2026-05-02T13:24:09.605Z</time></trkpt><trkpt lat="42.0692167" lon="13.5984533"><ele>850.0</ele><time>2026-05-02T13:24:10.605Z</time></trkpt><trkpt lat="42.0692867" lon="13.5984983"><ele>852.0</ele><time>2026-05-02T13:24:11.606Z</time></trkpt><trkpt lat="42.0693517" lon="13.598605"><ele>854.0</ele><time>2026-05-02T13:24:13.606Z</time></trkpt><trkpt lat="42.0693333" lon="13.59879"><ele>856.0</ele><time>2026-05-02T13:24:15.606Z</time></trkpt><trkpt lat="42.0693" lon="13.5989483"><ele>858.0</ele><time>2026-05-02T13:24:16.606Z</time></trkpt><trkpt lat="42.0692833" lon="13.5991417"><ele>858.5999999999999</ele><time>2026-05-02T13:24:17.605Z</time></trkpt><trkpt lat="42.0692817" lon="13.5993333"><ele>859.1999999999999</ele><time>2026-05-02T13:24:18.605Z</time></trkpt><trkpt lat="42.0692817" lon="13.5994867"><ele>859.8</ele><time>2026-05-02T13:24:19.606Z</time></trkpt><trkpt lat="42.0692967" lon="13.5996117"><ele>860.4</ele><time>2026-05-02T13:24:20.606Z</time></trkpt><trkpt lat="42.06932" lon="13.5997133"><ele>861.0</ele><time>2026-05-02T13:24:21.606Z</time></trkpt><trkpt lat="42.0693533" lon="13.5997967"><ele>861.4</ele><time>2026-05-02T13:24:22.606Z</time></trkpt><trkpt lat="42.0694033" lon="13.5999"><ele>861.8</ele><time>2026-05-02T13:24:24.606Z</time></trkpt><trkpt lat="42.06947" lon="13.599945"><ele>862.1999999999999</ele><time>2026-05-02T13:24:26.605Z</time></trkpt><trkpt lat="42.0695883" lon="13.5999"><ele>862.5999999999999</ele><time>2026-05-02T13:24:28.605Z</time></trkpt><trkpt lat="42.06968" lon="13.5998433"><ele>863.0</ele><time>2026-05-02T13:24:29.605Z</time></trkpt><trkpt lat="42.069795" lon="13.5997917"><ele>863.0</ele><time>2026-05-02T13:24:30.605Z</time></trkpt><trkpt lat="42.069925" lon="13.5997717"><ele>863.0</ele><time>2026-05-02T13:24:31.605Z</time></trkpt><trkpt lat="42.070065" lon="13.599765"><ele>863.0</ele><time>2026-05-02T13:24:32.605Z</time></trkpt><trkpt lat="42.070215" lon="13.599755"><ele>863.0</ele><time>2026-05-02T13:24:33.605Z</time></trkpt><trkpt lat="42.0703783" lon="13.59974"><ele>865.3333333333334</ele><time>2026-05-02T13:24:34.606Z</time></trkpt><trkpt lat="42.0705383" lon="13.5997"><ele>867.6666666666667</ele><time>2026-05-02T13:24:35.606Z</time></trkpt><trkpt lat="42.0707083" lon="13.59964"><ele>870.0</ele><time>2026-05-02T13:24:36.605Z</time></trkpt><trkpt lat="42.0708833" lon="13.59957"><ele>872.0</ele><time>2026-05-02T13:24:37.605Z</time></trkpt><trkpt lat="42.0710467" lon="13.5994933"><ele>874.0</ele><time>2026-05-02T13:24:38.606Z</time></trkpt><trkpt lat="42.0712033" lon="13.5994217"><ele>876.0</ele><time>2026-05-02T13:24:39.606Z</time></trkpt><trkpt lat="42.0713567" lon="13.5993533"><ele>876.0</ele><time>2026-05-02T13:24:40.606Z</time></trkpt><trkpt lat="42.071505" lon="13.5992867"><ele>876.0</ele><time>2026-05-02T13:24:41.605Z</time></trkpt><trkpt lat="42.0716433" lon="13.5992233"><ele>876.0</ele><time>2026-05-02T13:24:42.606Z</time></trkpt><trkpt lat="42.0717817" lon="13.5991583"><ele>876.0</ele><time>2026-05-02T13:24:43.606Z</time></trkpt><trkpt lat="42.0719133" lon="13.599095"><ele>877.75</ele><time>2026-05-02T13:24:44.606Z</time></trkpt><trkpt lat="42.0720417" lon="13.5990333"><ele>879.5</ele><time>2026-05-02T13:24:45.606Z</time></trkpt><trkpt lat="42.0721767" lon="13.598975"><ele>881.25</ele><time>2026-05-02T13:24:46.606Z</time></trkpt><trkpt lat="42.072315" lon="13.5989167"><ele>883.0</ele><time>2026-05-02T13:24:47.606Z</time></trkpt><trkpt lat="42.0724483" lon="13.5988533"><ele>884.75</ele><time>2026-05-02T13:24:48.605Z</time></trkpt><trkpt lat="42.0725867" lon="13.5987933"><ele>886.5</ele><time>2026-05-02T13:24:49.606Z</time></trkpt><trkpt lat="42.0727267" lon="13.598725"><ele>888.25</ele><time>2026-05-02T13:24:50.606Z</time></trkpt><trkpt lat="42.0728633" lon="13.59866"><ele>890.0</ele><time>2026-05-02T13:24:51.605Z</time></trkpt><trkpt lat="42.0730033" lon="13.5986"><ele>892.0</ele><time>2026-05-02T13:24:52.606Z</time></trkpt><trkpt lat="42.0731467" lon="13.598535"><ele>894.0</ele><time>2026-05-02T13:24:53.605Z</time></trkpt><trkpt lat="42.073295" lon="13.5984683"><ele>896.0</ele><time>2026-05-02T13:24:54.606Z</time></trkpt><trkpt lat="42.0734483" lon="13.598395"><ele>898.6666666666667</ele><time>2026-05-02T13:24:55.605Z</time></trkpt><trkpt lat="42.0736033" lon="13.59832"><ele>901.3333333333333</ele><time>2026-05-02T13:24:56.605Z</time></trkpt><trkpt lat="42.0737633" lon="13.5982517"><ele>904.0</ele><time>2026-05-02T13:24:57.605Z</time></trkpt><trkpt lat="42.07393" lon="13.5982033"><ele>904.0</ele><time>2026-05-02T13:24:58.605Z</time></trkpt><trkpt lat="42.0741" lon="13.5981683"><ele>904.0</ele><time>2026-05-02T13:24:59.606Z</time></trkpt><trkpt lat="42.0742783" lon="13.59815"><ele>904.0</ele><time>2026-05-02T13:25:00.606Z</time></trkpt><trkpt lat="42.0744567" lon="13.598145"><ele>907.0</ele><time>2026-05-02T13:25:01.605Z</time></trkpt><trkpt lat="42.0746383" lon="13.5981467"><ele>910.0</ele><time>2026-05-02T13:25:02.606Z</time></trkpt><trkpt lat="42.07481" lon="13.59816"><ele>913.0</ele><time>2026-05-02T13:25:03.606Z</time></trkpt><trkpt lat="42.07497" lon="13.5981733"><ele>916.6666666666666</ele><time>2026-05-02T13:25:04.606Z</time></trkpt><trkpt lat="42.0751283" lon="13.598185"><ele>920.3333333333333</ele><time>2026-05-02T13:25:05.606Z</time></trkpt><trkpt lat="42.07528" lon="13.5982"><ele>924.0</ele><time>2026-05-02T13:25:06.605Z</time></trkpt><trkpt lat="42.075435" lon="13.5982117"><ele>924.0</ele><time>2026-05-02T13:25:07.605Z</time></trkpt><trkpt lat="42.075595" lon="13.5982267"><ele>924.0</ele><time>2026-05-02T13:25:08.605Z</time></trkpt><trkpt lat="42.07575" lon="13.5982233"><ele>924.0</ele><time>2026-05-02T13:25:09.605Z</time></trkpt><trkpt lat="42.0759017" lon="13.5982167"><ele>926.5</ele><time>2026-05-02T13:25:10.605Z</time></trkpt><trkpt lat="42.0760583" lon="13.5982017"><ele>929.0</ele><time>2026-05-02T13:25:11.606Z</time></trkpt><trkpt lat="42.0762067" lon="13.598165"><ele>931.5</ele><time>2026-05-02T13:25:12.605Z</time></trkpt><trkpt lat="42.07633" lon="13.5980967"><ele>934.0</ele><time>2026-05-02T13:25:13.605Z</time></trkpt><trkpt lat="42.076435" lon="13.598015"><ele>934.0</ele><time>2026-05-02T13:25:14.606Z</time></trkpt><trkpt lat="42.0765283" lon="13.5978883"><ele>934.0</ele><time>2026-05-02T13:25:15.605Z</time></trkpt><trkpt lat="42.07661" lon="13.5977283"><ele>934.0</ele><time>2026-05-02T13:25:16.605Z</time></trkpt><trkpt lat="42.0766867" lon="13.597585"><ele>934.0</ele><time>2026-05-02T13:25:17.606Z</time></trkpt><trkpt lat="42.07676" lon="13.5974767"><ele>936.8000000000001</ele><time>2026-05-02T13:25:18.606Z</time></trkpt><trkpt lat="42.0768317" lon="13.597385"><ele>939.6000000000001</ele><time>2026-05-02T13:25:19.606Z</time></trkpt><trkpt lat="42.076915" lon="13.59733"><ele>942.4</ele><time>2026-05-02T13:25:20.605Z</time></trkpt><trkpt lat="42.0770083" lon="13.5973017"><ele>945.2</ele><time>2026-05-02T13:25:21.606Z</time></trkpt><trkpt lat="42.0771033" lon="13.5973033"><ele>948.0</ele><time>2026-05-02T13:25:22.605Z</time></trkpt><trkpt lat="42.0771867" lon="13.5973317"><ele>948.0</ele><time>2026-05-02T13:25:23.605Z</time></trkpt><trkpt lat="42.07726" lon="13.5974017"><ele>948.0</ele><time>2026-05-02T13:25:24.606Z</time></trkpt><trkpt lat="42.0773167" lon="13.59754"><ele>948.0</ele><time>2026-05-02T13:25:25.606Z</time></trkpt><trkpt lat="42.0773583" lon="13.597705"><ele>948.0</ele><time>2026-05-02T13:25:26.605Z</time></trkpt><trkpt lat="42.0774083" lon="13.597865"><ele>949.1666666666666</ele><time>2026-05-02T13:25:27.605Z</time></trkpt><trkpt lat="42.0774633" lon="13.5979733"><ele>950.3333333333333</ele><time>2026-05-02T13:25:28.605Z</time></trkpt><trkpt lat="42.077515" lon="13.5980383"><ele>951.5</ele><time>2026-05-02T13:25:29.605Z</time></trkpt><trkpt lat="42.07762" lon="13.5979867"><ele>952.6666666666666</ele><time>2026-05-02T13:25:31.605Z</time></trkpt><trkpt lat="42.077655" lon="13.5979033"><ele>953.8333333333333</ele><time>2026-05-02T13:25:32.606Z</time></trkpt><trkpt lat="42.0776567" lon="13.5978083"><ele>955.0</ele><time>2026-05-02T13:25:33.606Z</time></trkpt><trkpt lat="42.0776167" lon="13.5976783"><ele>955.25</ele><time>2026-05-02T13:25:34.606Z</time></trkpt><trkpt lat="42.0775533" lon="13.5975267"><ele>955.5</ele><time>2026-05-02T13:25:35.605Z</time></trkpt><trkpt lat="42.0774783" lon="13.5973633"><ele>955.75</ele><time>2026-05-02T13:25:36.606Z</time></trkpt><trkpt lat="42.0774083" lon="13.5971817"><ele>956.0</ele><time>2026-05-02T13:25:37.606Z</time></trkpt><trkpt lat="42.0773333" lon="13.5969917"><ele>956.0</ele><time>2026-05-02T13:25:38.606Z</time></trkpt><trkpt lat="42.0772617" lon="13.59681"><ele>956.0</ele><time>2026-05-02T13:25:39.606Z</time></trkpt><trkpt lat="42.0771883" lon="13.5966383"><ele>956.0</ele><time>2026-05-02T13:25:40.605Z</time></trkpt><trkpt lat="42.077125" lon="13.59648"><ele>956.0</ele><time>2026-05-02T13:25:41.606Z</time></trkpt><trkpt lat="42.07708" lon="13.5963333"><ele>956.0</ele><time>2026-05-02T13:25:42.606Z</time></trkpt><trkpt lat="42.0770633" lon="13.5961817"><ele>955.9999999999999</ele><time>2026-05-02T13:25:43.605Z</time></trkpt><trkpt lat="42.0770733" lon="13.5960467"><ele>955.9999999999999</ele><time>2026-05-02T13:25:44.605Z</time></trkpt><trkpt lat="42.0771133" lon="13.5959183"><ele>956.0</ele><time>2026-05-02T13:25:45.605Z</time></trkpt><trkpt lat="42.0771783" lon="13.5957767"><ele>956.0</ele><time>2026-05-02T13:25:46.605Z</time></trkpt><trkpt lat="42.07727" lon="13.5956267"><ele>955.6666666666667</ele><time>2026-05-02T13:25:47.605Z</time></trkpt><trkpt lat="42.0773867" lon="13.595475"><ele>955.3333333333333</ele><time>2026-05-02T13:25:48.605Z</time></trkpt><trkpt lat="42.0775133" lon="13.5953167"><ele>955.0</ele><time>2026-05-02T13:25:49.605Z</time></trkpt><trkpt lat="42.0776483" lon="13.59516"><ele>959.6666666666666</ele><time>2026-05-02T13:25:50.606Z</time></trkpt><trkpt lat="42.077775" lon="13.5950183"><ele>964.3333333333333</ele><time>2026-05-02T13:25:51.606Z</time></trkpt><trkpt lat="42.0778917" lon="13.5948917"><ele>969.0</ele><time>2026-05-02T13:25:52.606Z</time></trkpt><trkpt lat="42.0780017" lon="13.594785"><ele>969.0</ele><time>2026-05-02T13:25:53.605Z</time></trkpt><trkpt lat="42.0781033" lon="13.5946983"><ele>969.0000000000001</ele><time>2026-05-02T13:25:54.606Z</time></trkpt><trkpt lat="42.0781983" lon="13.5946267"><ele>969.0000000000001</ele><time>2026-05-02T13:25:55.605Z</time></trkpt><trkpt lat="42.0782717" lon="13.594545"><ele>969.0</ele><time>2026-05-02T13:25:56.605Z</time></trkpt><trkpt lat="42.078325" lon="13.5944467"><ele>969.0</ele><time>2026-05-02T13:25:57.606Z</time></trkpt><trkpt lat="42.078345" lon="13.5943117"><ele>970.4000000000001</ele><time>2026-05-02T13:25:58.605Z</time></trkpt><trkpt lat="42.0783267" lon="13.59418"><ele>971.8000000000001</ele><time>2026-05-02T13:25:59.605Z</time></trkpt><trkpt lat="42.0783" lon="13.5940317"><ele>973.1999999999999</ele><time>2026-05-02T13:26:00.605Z</time></trkpt><trkpt lat="42.0782917" lon="13.5938917"><ele>974.5999999999999</ele><time>2026-05-02T13:26:01.606Z</time></trkpt><trkpt lat="42.0783217" lon="13.5937717"><ele>976.0</ele><time>2026-05-02T13:26:02.605Z</time></trkpt><trkpt lat="42.0783817" lon="13.5936633"><ele>976.0</ele><time>2026-05-02T13:26:03.606Z</time></trkpt><trkpt lat="42.0784683" lon="13.5935617"><ele>976.0</ele><time>2026-05-02T13:26:04.606Z</time></trkpt><trkpt lat="42.0785783" lon="13.593455"><ele>976.0</ele><time>2026-05-02T13:26:05.605Z</time></trkpt><trkpt lat="42.0787017" lon="13.5933383"><ele>976.0</ele><time>2026-05-02T13:26:06.606Z</time></trkpt><trkpt lat="42.0788283" lon="13.593215"><ele>976.0</ele><time>2026-05-02T13:26:07.605Z</time></trkpt><trkpt lat="42.07895" lon="13.593095"><ele>976.0</ele><time>2026-05-02T13:26:08.605Z</time></trkpt><trkpt lat="42.0790767" lon="13.592975"><ele>976.0</ele><time>2026-05-02T13:26:09.605Z</time></trkpt><trkpt lat="42.079195" lon="13.592865"><ele>976.0</ele><time>2026-05-02T13:26:10.605Z</time></trkpt><trkpt lat="42.0793083" lon="13.5927583"><ele>979.5</ele><time>2026-05-02T13:26:11.605Z</time></trkpt><trkpt lat="42.0794217" lon="13.5926633"><ele>983.0</ele><time>2026-05-02T13:26:12.604Z</time></trkpt><trkpt lat="42.0795283" lon="13.5925767"><ele>986.5</ele><time>2026-05-02T13:26:13.604Z</time></trkpt><trkpt lat="42.0796367" lon="13.5924733"><ele>990.0</ele><time>2026-05-02T13:26:14.605Z</time></trkpt><trkpt lat="42.0797433" lon="13.592375"><ele>990.0</ele><time>2026-05-02T13:26:15.604Z</time></trkpt><trkpt lat="42.0798467" lon="13.59228"><ele>990.0</ele><time>2026-05-02T13:26:16.604Z</time></trkpt><trkpt lat="42.0799483" lon="13.5921817"><ele>990.0</ele><time>2026-05-02T13:26:17.604Z</time></trkpt><trkpt lat="42.0800567" lon="13.5920817"><ele>990.0</ele><time>2026-05-02T13:26:18.605Z</time></trkpt><trkpt lat="42.0801667" lon="13.591985"><ele>993.5</ele><time>2026-05-02T13:26:19.605Z</time></trkpt><trkpt lat="42.0802783" lon="13.5919017"><ele>997.0</ele><time>2026-05-02T13:26:20.605Z</time></trkpt><trkpt lat="42.08038" lon="13.5918167"><ele>1000.5</ele><time>2026-05-02T13:26:21.604Z</time></trkpt><trkpt lat="42.0804683" lon="13.591735"><ele>1004.0</ele><time>2026-05-02T13:26:22.605Z</time></trkpt><trkpt lat="42.08055" lon="13.5916683"><ele>1004.0000000000001</ele><time>2026-05-02T13:26:23.605Z</time></trkpt><trkpt lat="42.08062" lon="13.5915933"><ele>1004.0</ele><time>2026-05-02T13:26:24.605Z</time></trkpt><trkpt lat="42.080675" lon="13.5915133"><ele>1004.0</ele><time>2026-05-02T13:26:25.605Z</time></trkpt><trkpt lat="42.080715" lon="13.591425"><ele>1004.0</ele><time>2026-05-02T13:26:26.605Z</time></trkpt><trkpt lat="42.08073" lon="13.5913417"><ele>1004.0000000000001</ele><time>2026-05-02T13:26:27.604Z</time></trkpt><trkpt lat="42.08069" lon="13.5912167"><ele>1004.0</ele><time>2026-05-02T13:26:29.604Z</time></trkpt><trkpt lat="42.08064" lon="13.591165"><ele>1005.0</ele><time>2026-05-02T13:26:30.604Z</time></trkpt><trkpt lat="42.0805667" lon="13.5911183"><ele>1006.0000000000001</ele><time>2026-05-02T13:26:31.605Z</time></trkpt><trkpt lat="42.080475" lon="13.5910717"><ele>1007.0000000000001</ele><time>2026-05-02T13:26:32.604Z</time></trkpt><trkpt lat="42.080385" lon="13.5910067"><ele>1008.0</ele><time>2026-05-02T13:26:33.604Z</time></trkpt><trkpt lat="42.0803" lon="13.590945"><ele>1009.0</ele><time>2026-05-02T13:26:34.605Z</time></trkpt><trkpt lat="42.0802167" lon="13.5908817"><ele>1008.9999999999999</ele><time>2026-05-02T13:26:35.605Z</time></trkpt><trkpt lat="42.0801383" lon="13.5908283"><ele>1009.0</ele><time>2026-05-02T13:26:36.604Z</time></trkpt><trkpt lat="42.0800717" lon="13.5907783"><ele>1009.0</ele><time>2026-05-02T13:26:37.605Z</time></trkpt><trkpt lat="42.0800033" lon="13.5907283"><ele>1009.0</ele><time>2026-05-02T13:26:38.605Z</time></trkpt><trkpt lat="42.0799367" lon="13.5906733"><ele>1008.9999999999999</ele><time>2026-05-02T13:26:39.604Z</time></trkpt><trkpt lat="42.0798767" lon="13.5906317"><ele>1009.0</ele><time>2026-05-02T13:26:40.604Z</time></trkpt><trkpt lat="42.079805" lon="13.590595"><ele>1008.9999999999999</ele><time>2026-05-02T13:26:42.605Z</time></trkpt><trkpt lat="42.079835" lon="13.5906733"><ele>1009.0</ele><time>2026-05-02T13:26:46.604Z</time></trkpt><trkpt lat="42.079945" lon="13.5907267"><ele>1009.0</ele><time>2026-05-02T13:26:48.605Z</time></trkpt><trkpt lat="42.0800067" lon="13.5907633"><ele>1009.0</ele><time>2026-05-02T13:26:49.605Z</time></trkpt><trkpt lat="42.0800767" lon="13.5908067"><ele>1008.9999999999999</ele><time>2026-05-02T13:26:50.605Z</time></trkpt><trkpt lat="42.0801583" lon="13.5908533"><ele>1009.0</ele><time>2026-05-02T13:26:51.604Z</time></trkpt><trkpt lat="42.0802417" lon="13.5909033"><ele>1008.9999999999999</ele><time>2026-05-02T13:26:52.605Z</time></trkpt><trkpt lat="42.0803167" lon="13.5909633"><ele>1009.0</ele><time>2026-05-02T13:26:53.604Z</time></trkpt><trkpt lat="42.08038" lon="13.5910283"><ele>1009.0</ele><time>2026-05-02T13:26:54.605Z</time></trkpt><trkpt lat="42.08045" lon="13.59108"><ele>1009.0</ele><time>2026-05-02T13:26:55.604Z</time></trkpt><trkpt lat="42.0805133" lon="13.59111"><ele>1008.9999999999999</ele><time>2026-05-02T13:26:56.605Z</time></trkpt><trkpt lat="42.0806117" lon="13.5911867"><ele>1009.0</ele><time>2026-05-02T13:26:58.605Z</time></trkpt><trkpt lat="42.080675" lon="13.5912333"><ele>1008.9999999999999</ele><time>2026-05-02T13:27:00.605Z</time></trkpt><trkpt lat="42.0807433" lon="13.5912417"><ele>1009.0</ele><time>2026-05-02T13:27:13.605Z</time></trkpt><trkpt lat="42.0807817" lon="13.5911617"><ele>1009.0</ele><time>2026-05-02T13:27:15.604Z</time></trkpt><trkpt lat="42.0807633" lon="13.5910433"><ele>1009.0</ele><time>2026-05-02T13:27:17.604Z</time></trkpt><trkpt lat="42.0806867" lon="13.5909283"><ele>1008.9999999999999</ele><time>2026-05-02T13:27:19.605Z</time></trkpt><trkpt lat="42.0806317" lon="13.590885"><ele>1009.0</ele><time>2026-05-02T13:27:20.605Z</time></trkpt><trkpt lat="42.08057" lon="13.5908333"><ele>1008.9999999999999</ele><time>2026-05-02T13:27:21.605Z</time></trkpt><trkpt lat="42.0805083" lon="13.59078"><ele>1009.0</ele><time>2026-05-02T13:27:22.605Z</time></trkpt><trkpt lat="42.0804417" lon="13.5907267"><ele>1009.0</ele><time>2026-05-02T13:27:23.605Z</time></trkpt><trkpt lat="42.08037" lon="13.590675"><ele>1009.0</ele><time>2026-05-02T13:27:24.605Z</time></trkpt><trkpt lat="42.0803067" lon="13.5906183"><ele>1008.9999999999999</ele><time>2026-05-02T13:27:25.605Z</time></trkpt><trkpt lat="42.0802467" lon="13.5905633"><ele>1009.0</ele><time>2026-05-02T13:27:26.605Z</time></trkpt><trkpt lat="42.0801783" lon="13.5905083"><ele>1008.9999999999999</ele><time>2026-05-02T13:27:27.604Z</time></trkpt><trkpt lat="42.08013" lon="13.5904467"><ele>1009.0</ele><time>2026-05-02T13:27:28.605Z</time></trkpt><trkpt lat="42.0801033" lon="13.59033"><ele>1009.0</ele><time>2026-05-02T13:27:30.604Z</time></trkpt><trkpt lat="42.0801433" lon="13.5902533"><ele>1009.0</ele><time>2026-05-02T13:27:32.604Z</time></trkpt><trkpt lat="42.0801867" lon="13.5901533"><ele>1008.9999999999999</ele><time>2026-05-02T13:27:34.604Z</time></trkpt><trkpt lat="42.0802333" lon="13.5900333"><ele>1009.0</ele><time>2026-05-02T13:27:36.605Z</time></trkpt><trkpt lat="42.080285" lon="13.5898883"><ele>1009.4000000000001</ele><time>2026-05-02T13:27:38.605Z</time></trkpt><trkpt lat="42.0803383" lon="13.5897433"><ele>1009.8000000000001</ele><time>2026-05-02T13:27:40.605Z</time></trkpt><trkpt lat="42.0803667" lon="13.5896333"><ele>1010.1999999999999</ele><time>2026-05-02T13:27:42.605Z</time></trkpt><trkpt lat="42.0803917" lon="13.589515"><ele>1010.5999999999999</ele><time>2026-05-02T13:27:44.605Z</time></trkpt><trkpt lat="42.08041" lon="13.5893683"><ele>1011.0</ele><time>2026-05-02T13:27:46.604Z</time></trkpt><trkpt lat="42.080455" lon="13.5893"><ele>1010.1999999999999</ele><time>2026-05-02T13:27:48.605Z</time></trkpt><trkpt lat="42.0805783" lon="13.5892833"><ele>1009.3999999999999</ele><time>2026-05-02T13:27:50.605Z</time></trkpt><trkpt lat="42.0806667" lon="13.5892817"><ele>1008.6</ele><time>2026-05-02T13:27:51.604Z</time></trkpt><trkpt lat="42.0807533" lon="13.5892867"><ele>1007.8</ele><time>2026-05-02T13:27:52.605Z</time></trkpt><trkpt lat="42.08084" lon="13.5892917"><ele>1007.0</ele><time>2026-05-02T13:27:53.604Z</time></trkpt><trkpt lat="42.080925" lon="13.5893067"><ele>1007.0000000000001</ele><time>2026-05-02T13:27:54.604Z</time></trkpt><trkpt lat="42.0809983" lon="13.58934"><ele>1007.0</ele><time>2026-05-02T13:27:55.604Z</time></trkpt><trkpt lat="42.08107" lon="13.5893783"><ele>1007.0</ele><time>2026-05-02T13:27:56.605Z</time></trkpt><trkpt lat="42.0811483" lon="13.5894133"><ele>1007.0</ele><time>2026-05-02T13:27:57.604Z</time></trkpt><trkpt lat="42.0812267" lon="13.589465"><ele>1007.0000000000001</ele><time>2026-05-02T13:27:58.604Z</time></trkpt><trkpt lat="42.0813" lon="13.589505"><ele>1007.0</ele><time>2026-05-02T13:27:59.605Z</time></trkpt><trkpt lat="42.0813733" lon="13.5895433"><ele>1009.6666666666667</ele><time>2026-05-02T13:28:00.605Z</time></trkpt><trkpt lat="42.0814433" lon="13.5895783"><ele>1012.3333333333334</ele><time>2026-05-02T13:28:01.605Z</time></trkpt><trkpt lat="42.0815067" lon="13.5896067"><ele>1015.0</ele><time>2026-05-02T13:28:02.604Z</time></trkpt><trkpt lat="42.08157" lon="13.5896267"><ele>1017.6666666666667</ele><time>2026-05-02T13:28:03.604Z</time></trkpt><trkpt lat="42.0816917" lon="13.5896383"><ele>1020.3333333333334</ele><time>2026-05-02T13:28:05.604Z</time></trkpt><trkpt lat="42.0817617" lon="13.5896267"><ele>1023.0</ele><time>2026-05-02T13:28:06.604Z</time></trkpt><trkpt lat="42.081835" lon="13.5896117"><ele>1023.4</ele><time>2026-05-02T13:28:07.605Z</time></trkpt><trkpt lat="42.0819067" lon="13.5895867"><ele>1023.8</ele><time>2026-05-02T13:28:08.605Z</time></trkpt><trkpt lat="42.0819733" lon="13.5895817"><ele>1024.2</ele><time>2026-05-02T13:28:09.604Z</time></trkpt><trkpt lat="42.0820783" lon="13.5896117"><ele>1024.6</ele><time>2026-05-02T13:28:11.605Z</time></trkpt><trkpt lat="42.082175" lon="13.5896767"><ele>1025.0</ele><time>2026-05-02T13:28:13.604Z</time></trkpt><trkpt lat="42.0822917" lon="13.589715"><ele>1025.0</ele><time>2026-05-02T13:28:16.605Z</time></trkpt><trkpt lat="42.0823667" lon="13.5896883"><ele>1025.0</ele><time>2026-05-02T13:28:18.604Z</time></trkpt><trkpt lat="42.0824367" lon="13.5896683"><ele>1025.0</ele><time>2026-05-02T13:28:20.604Z</time></trkpt><trkpt lat="42.0825517" lon="13.5896483"><ele>1025.0</ele><time>2026-05-02T13:28:22.604Z</time></trkpt><trkpt lat="42.08262" lon="13.5896717"><ele>1025.0</ele><time>2026-05-02T13:28:23.605Z</time></trkpt><trkpt lat="42.0826783" lon="13.5897133"><ele>1025.0</ele><time>2026-05-02T13:28:24.605Z</time></trkpt><trkpt lat="42.082765" lon="13.5897783"><ele>1025.5</ele><time>2026-05-02T13:28:26.605Z</time></trkpt><trkpt lat="42.082765" lon="13.5896833"><ele>1026.0</ele><time>2026-05-02T13:28:30.604Z</time></trkpt><trkpt lat="42.0827017" lon="13.589605"><ele>1026.5</ele><time>2026-05-02T13:28:32.604Z</time></trkpt><trkpt lat="42.0826817" lon="13.5894517"><ele>1027.0</ele><time>2026-05-02T13:28:34.604Z</time></trkpt><trkpt lat="42.0826733" lon="13.5893517"><ele>1027.5</ele><time>2026-05-02T13:28:35.605Z</time></trkpt><trkpt lat="42.0826533" lon="13.589255"><ele>1028.0</ele><time>2026-05-02T13:28:36.604Z</time></trkpt><trkpt lat="42.08264" lon="13.5891683"><ele>1024.6666666666667</ele><time>2026-05-02T13:28:37.605Z</time></trkpt><trkpt lat="42.08263" lon="13.5890783"><ele>1021.3333333333334</ele><time>2026-05-02T13:28:38.605Z</time></trkpt><trkpt lat="42.0826117" lon="13.588995"><ele>1018.0</ele><time>2026-05-02T13:28:39.605Z</time></trkpt><trkpt lat="42.0825817" lon="13.5888767"><ele>1014.6666666666667</ele><time>2026-05-02T13:28:41.605Z</time></trkpt><trkpt lat="42.08254" lon="13.5887733"><ele>1011.3333333333334</ele><time>2026-05-02T13:28:46.604Z</time></trkpt><trkpt lat="42.0825633" lon="13.5886833"><ele>1008.0</ele><time>2026-05-02T13:28:50.605Z</time></trkpt><trkpt lat="42.0826317" lon="13.588685"><ele>1008.0</ele><time>2026-05-02T13:28:52.604Z</time></trkpt><trkpt lat="42.0827367" lon="13.5887"><ele>1008.0</ele><time>2026-05-02T13:28:54.604Z</time></trkpt><trkpt lat="42.08286" lon="13.5887383"><ele>1008.0</ele><time>2026-05-02T13:28:56.604Z</time></trkpt><trkpt lat="42.0829267" lon="13.5887583"><ele>1008.0</ele><time>2026-05-02T13:28:57.604Z</time></trkpt><trkpt lat="42.0829983" lon="13.588775"><ele>1008.0</ele><time>2026-05-02T13:28:58.604Z</time></trkpt><trkpt lat="42.083075" lon="13.58879"><ele>1008.0</ele><time>2026-05-02T13:28:59.605Z</time></trkpt><trkpt lat="42.0831533" lon="13.5888017"><ele>1008.0</ele><time>2026-05-02T13:29:00.604Z</time></trkpt><trkpt lat="42.0832333" lon="13.5888133"><ele>1008.0</ele><time>2026-05-02T13:29:01.605Z</time></trkpt><trkpt lat="42.0833183" lon="13.5888233"><ele>1008.0</ele><time>2026-05-02T13:29:02.604Z</time></trkpt><trkpt lat="42.083405" lon="13.5888283"><ele>1008.0</ele><time>2026-05-02T13:29:03.605Z</time></trkpt><trkpt lat="42.0834917" lon="13.58883"><ele>1008.0</ele><time>2026-05-02T13:29:04.605Z</time></trkpt><trkpt lat="42.0835817" lon="13.5888283"><ele>1006.5</ele><time>2026-05-02T13:29:05.605Z</time></trkpt><trkpt lat="42.0836683" lon="13.5888217"><ele>1005.0</ele><time>2026-05-02T13:29:06.604Z</time></trkpt><trkpt lat="42.0837533" lon="13.5888267"><ele>1003.5</ele><time>2026-05-02T13:29:07.604Z</time></trkpt><trkpt lat="42.0838383" lon="13.5888367"><ele>1002.0</ele><time>2026-05-02T13:29:08.603Z</time></trkpt><trkpt lat="42.08392" lon="13.5888433"><ele>1000.5</ele><time>2026-05-02T13:29:09.604Z</time></trkpt><trkpt lat="42.0840033" lon="13.58885"><ele>999.0</ele><time>2026-05-02T13:29:10.603Z</time></trkpt><trkpt lat="42.0840833" lon="13.5888517"><ele>997.5714285714287</ele><time>2026-05-02T13:29:11.603Z</time></trkpt><trkpt lat="42.0841567" lon="13.5888417"><ele>996.1428571428572</ele><time>2026-05-02T13:29:12.604Z</time></trkpt><trkpt lat="42.0842283" lon="13.588835"><ele>994.7142857142858</ele><time>2026-05-02T13:29:13.604Z</time></trkpt><trkpt lat="42.0843017" lon="13.588835"><ele>993.2857142857142</ele><time>2026-05-02T13:29:14.604Z</time></trkpt><trkpt lat="42.0843733" lon="13.58883"><ele>991.8571428571428</ele><time>2026-05-02T13:29:15.604Z</time></trkpt><trkpt lat="42.0844483" lon="13.5888217"><ele>990.4285714285713</ele><time>2026-05-02T13:29:16.604Z</time></trkpt><trkpt lat="42.08452" lon="13.588805"><ele>989.0</ele><time>2026-05-02T13:29:17.604Z</time></trkpt><trkpt lat="42.0845933" lon="13.5887933"><ele>989.0000000000001</ele><time>2026-05-02T13:29:18.603Z</time></trkpt><trkpt lat="42.0846617" lon="13.5887967"><ele>989.0</ele><time>2026-05-02T13:29:19.603Z</time></trkpt><trkpt lat="42.0847667" lon="13.5887967"><ele>989.0</ele><time>2026-05-02T13:29:21.603Z</time></trkpt><trkpt lat="42.0848133" lon="13.5887183"><ele>989.0</ele><time>2026-05-02T13:29:23.604Z</time></trkpt><trkpt lat="42.0847817" lon="13.58864"><ele>989.0000000000001</ele><time>2026-05-02T13:29:25.604Z</time></trkpt><trkpt lat="42.08469" lon="13.5886217"><ele>989.0</ele><time>2026-05-02T13:29:27.604Z</time></trkpt><trkpt lat="42.084565" lon="13.58864"><ele>986.0</ele><time>2026-05-02T13:29:29.604Z</time></trkpt><trkpt lat="42.0845017" lon="13.58862"><ele>982.9999999999999</ele><time>2026-05-02T13:29:30.604Z</time></trkpt><trkpt lat="42.0844383" lon="13.5885733"><ele>980.0</ele><time>2026-05-02T13:29:31.603Z</time></trkpt><trkpt lat="42.0843717" lon="13.5885083"><ele>977.0</ele><time>2026-05-02T13:29:32.604Z</time></trkpt><trkpt lat="42.0843033" lon="13.588445"><ele>973.9999999999999</ele><time>2026-05-02T13:29:33.604Z</time></trkpt><trkpt lat="42.0842383" lon="13.5883883"><ele>971.0</ele><time>2026-05-02T13:29:34.604Z</time></trkpt><trkpt lat="42.0841867" lon="13.5883333"><ele>968.0</ele><time>2026-05-02T13:29:35.603Z</time></trkpt><trkpt lat="42.0841417" lon="13.588215"><ele>968.0000000000001</ele><time>2026-05-02T13:29:37.604Z</time></trkpt><trkpt lat="42.0841517" lon="13.5880983"><ele>968.0</ele><time>2026-05-02T13:29:39.603Z</time></trkpt><trkpt lat="42.0842083" lon="13.587995"><ele>968.0</ele><time>2026-05-02T13:29:42.603Z</time></trkpt><trkpt lat="42.084295" lon="13.5879433"><ele>968.0</ele><time>2026-05-02T13:29:44.604Z</time></trkpt><trkpt lat="42.084365" lon="13.5878817"><ele>968.0000000000001</ele><time>2026-05-02T13:29:46.604Z</time></trkpt><trkpt lat="42.0844217" lon="13.587815"><ele>968.0</ele><time>2026-05-02T13:29:49.603Z</time></trkpt><trkpt lat="42.0844983" lon="13.5877183"><ele>965.4</ele><time>2026-05-02T13:29:51.603Z</time></trkpt><trkpt lat="42.0845783" lon="13.5876083"><ele>962.8</ele><time>2026-05-02T13:29:53.604Z</time></trkpt><trkpt lat="42.08466" lon="13.5874767"><ele>960.2</ele><time>2026-05-02T13:29:55.604Z</time></trkpt><trkpt lat="42.084705" lon="13.58741"><ele>957.6</ele><time>2026-05-02T13:29:56.604Z</time></trkpt><trkpt lat="42.0847533" lon="13.5873433"><ele>955.0</ele><time>2026-05-02T13:29:57.604Z</time></trkpt><trkpt lat="42.0848083" lon="13.58728"><ele>954.9999999999999</ele><time>2026-05-02T13:29:58.604Z</time></trkpt><trkpt lat="42.08487" lon="13.5872233"><ele>955.0</ele><time>2026-05-02T13:29:59.604Z</time></trkpt><trkpt lat="42.0849383" lon="13.587175"><ele>955.0</ele><time>2026-05-02T13:30:00.604Z</time></trkpt><trkpt lat="42.0850133" lon="13.5871367"><ele>955.0</ele><time>2026-05-02T13:30:01.603Z</time></trkpt><trkpt lat="42.0850917" lon="13.5871017"><ele>954.9999999999999</ele><time>2026-05-02T13:30:02.603Z</time></trkpt><trkpt lat="42.0851767" lon="13.58708"><ele>955.0</ele><time>2026-05-02T13:30:03.603Z</time></trkpt><trkpt lat="42.0852583" lon="13.5870567"><ele>954.2</ele><time>2026-05-02T13:30:04.604Z</time></trkpt><trkpt lat="42.0853333" lon="13.587035"><ele>953.4</ele><time>2026-05-02T13:30:05.604Z</time></trkpt><trkpt lat="42.0854333" lon="13.5869633"><ele>952.5999999999999</ele><time>2026-05-02T13:30:07.604Z</time></trkpt><trkpt lat="42.0855017" lon="13.5868417"><ele>951.8</ele><time>2026-05-02T13:30:09.604Z</time></trkpt><trkpt lat="42.0855317" lon="13.5867017"><ele>951.0</ele><time>2026-05-02T13:30:11.604Z</time></trkpt><trkpt lat="42.0854917" lon="13.5865333"><ele>949.8</ele><time>2026-05-02T13:30:13.604Z</time></trkpt><trkpt lat="42.08544" lon="13.586425"><ele>948.5999999999999</ele><time>2026-05-02T13:30:14.604Z</time></trkpt><trkpt lat="42.08541" lon="13.5863067"><ele>947.4</ele><time>2026-05-02T13:30:15.603Z</time></trkpt><trkpt lat="42.0853867" lon="13.58619"><ele>946.2</ele><time>2026-05-02T13:30:16.604Z</time></trkpt><trkpt lat="42.085365" lon="13.586075"><ele>945.0</ele><time>2026-05-02T13:30:17.604Z</time></trkpt><trkpt lat="42.0853567" lon="13.58596"><ele>944.8333333333334</ele><time>2026-05-02T13:30:18.603Z</time></trkpt><trkpt lat="42.08536" lon="13.5858483"><ele>944.6666666666667</ele><time>2026-05-02T13:30:19.603Z</time></trkpt><trkpt lat="42.08537" lon="13.58575"><ele>944.5</ele><time>2026-05-02T13:30:20.603Z</time></trkpt><trkpt lat="42.085395" lon="13.5856717"><ele>944.3333333333334</ele><time>2026-05-02T13:30:21.603Z</time></trkpt><trkpt lat="42.0854583" lon="13.5855383"><ele>944.1666666666667</ele><time>2026-05-02T13:30:23.604Z</time></trkpt><trkpt lat="42.085495" lon="13.5854517"><ele>944.0</ele><time>2026-05-02T13:30:24.603Z</time></trkpt><trkpt lat="42.0855317" lon="13.58535"><ele>943.6</ele><time>2026-05-02T13:30:25.604Z</time></trkpt><trkpt lat="42.085565" lon="13.58526"><ele>943.2</ele><time>2026-05-02T13:30:26.604Z</time></trkpt><trkpt lat="42.0856" lon="13.5851567"><ele>942.8000000000001</ele><time>2026-05-02T13:30:27.604Z</time></trkpt><trkpt lat="42.0856383" lon="13.5850367"><ele>942.4000000000001</ele><time>2026-05-02T13:30:28.604Z</time></trkpt><trkpt lat="42.085685" lon="13.58491"><ele>942.0</ele><time>2026-05-02T13:30:29.603Z</time></trkpt><trkpt lat="42.0857317" lon="13.584785"><ele>945.8</ele><time>2026-05-02T13:30:30.604Z</time></trkpt><trkpt lat="42.0857733" lon="13.5846817"><ele>949.6</ele><time>2026-05-02T13:30:31.603Z</time></trkpt><trkpt lat="42.0858067" lon="13.5846017"><ele>953.3999999999999</ele><time>2026-05-02T13:30:32.603Z</time></trkpt><trkpt lat="42.0858783" lon="13.5844917"><ele>957.1999999999999</ele><time>2026-05-02T13:30:34.604Z</time></trkpt><trkpt lat="42.08596" lon="13.58438"><ele>961.0</ele><time>2026-05-02T13:30:36.604Z</time></trkpt><trkpt lat="42.0860217" lon="13.5843217"><ele>961.4999999999999</ele><time>2026-05-02T13:30:38.603Z</time></trkpt><trkpt lat="42.0861033" lon="13.5842667"><ele>962.0</ele><time>2026-05-02T13:30:42.603Z</time></trkpt><trkpt lat="42.0861183" lon="13.5841733"><ele>962.5</ele><time>2026-05-02T13:30:45.604Z</time></trkpt><trkpt lat="42.08609" lon="13.584035"><ele>963.0</ele><time>2026-05-02T13:30:47.604Z</time></trkpt><trkpt lat="42.0860683" lon="13.58394"><ele>963.4999999999999</ele><time>2026-05-02T13:30:48.604Z</time></trkpt><trkpt lat="42.0860367" lon="13.5838267"><ele>964.0</ele><time>2026-05-02T13:30:49.603Z</time></trkpt><trkpt lat="42.0860033" lon="13.5837"><ele>964.6</ele><time>2026-05-02T13:30:50.603Z</time></trkpt><trkpt lat="42.0859617" lon="13.583575"><ele>965.2</ele><time>2026-05-02T13:30:51.603Z</time></trkpt><trkpt lat="42.0859183" lon="13.583455"><ele>965.8000000000001</ele><time>2026-05-02T13:30:52.603Z</time></trkpt><trkpt lat="42.0858683" lon="13.5833317"><ele>966.4000000000001</ele><time>2026-05-02T13:30:53.603Z</time></trkpt><trkpt lat="42.0858117" lon="13.5832133"><ele>967.0</ele><time>2026-05-02T13:30:54.603Z</time></trkpt><trkpt lat="42.0857567" lon="13.583105"><ele>965.6</ele><time>2026-05-02T13:30:55.604Z</time></trkpt><trkpt lat="42.0857117" lon="13.5830117"><ele>964.2</ele><time>2026-05-02T13:30:56.603Z</time></trkpt><trkpt lat="42.0856617" lon="13.5829167"><ele>962.8</ele><time>2026-05-02T13:30:57.604Z</time></trkpt><trkpt lat="42.0856067" lon="13.58281"><ele>961.4</ele><time>2026-05-02T13:30:58.603Z</time></trkpt><trkpt lat="42.0855567" lon="13.5827017"><ele>960.0</ele><time>2026-05-02T13:30:59.604Z</time></trkpt><trkpt lat="42.0855217" lon="13.58257"><ele>960.0</ele><time>2026-05-02T13:31:00.604Z</time></trkpt><trkpt lat="42.08548" lon="13.5824367"><ele>960.0</ele><time>2026-05-02T13:31:01.603Z</time></trkpt><trkpt lat="42.0854367" lon="13.5822817"><ele>960.0</ele><time>2026-05-02T13:31:02.603Z</time></trkpt><trkpt lat="42.0853967" lon="13.5821267"><ele>960.0</ele><time>2026-05-02T13:31:03.604Z</time></trkpt><trkpt lat="42.08534" lon="13.581965"><ele>962.25</ele><time>2026-05-02T13:31:04.604Z</time></trkpt><trkpt lat="42.0852817" lon="13.58179"><ele>964.5</ele><time>2026-05-02T13:31:05.604Z</time></trkpt><trkpt lat="42.0852183" lon="13.581615"><ele>966.75</ele><time>2026-05-02T13:31:06.604Z</time></trkpt><trkpt lat="42.08515" lon="13.5814283"><ele>969.0</ele><time>2026-05-02T13:31:07.604Z</time></trkpt><trkpt lat="42.0850933" lon="13.58125"><ele>970.5</ele><time>2026-05-02T13:31:08.603Z</time></trkpt><trkpt lat="42.0850417" lon="13.58109"><ele>972.0</ele><time>2026-05-02T13:31:09.603Z</time></trkpt><trkpt lat="42.0849917" lon="13.5809433"><ele>973.5</ele><time>2026-05-02T13:31:10.603Z</time></trkpt><trkpt lat="42.08495" lon="13.5807983"><ele>975.0</ele><time>2026-05-02T13:31:11.603Z</time></trkpt><trkpt lat="42.0849117" lon="13.5806683"><ele>975.0</ele><time>2026-05-02T13:31:12.603Z</time></trkpt><trkpt lat="42.08488" lon="13.5805583"><ele>975.0</ele><time>2026-05-02T13:31:13.603Z</time></trkpt><trkpt lat="42.0848517" lon="13.58046"><ele>975.0</ele><time>2026-05-02T13:31:14.604Z</time></trkpt><trkpt lat="42.0848417" lon="13.5803683"><ele>975.0</ele><time>2026-05-02T13:31:15.604Z</time></trkpt><trkpt lat="42.0848383" lon="13.5802817"><ele>975.0</ele><time>2026-05-02T13:31:16.603Z</time></trkpt><trkpt lat="42.084835" lon="13.580115"><ele>975.0</ele><time>2026-05-02T13:31:18.604Z</time></trkpt><trkpt lat="42.08484" lon="13.5800167"><ele>976.0</ele><time>2026-05-02T13:31:19.603Z</time></trkpt><trkpt lat="42.0848483" lon="13.5799183"><ele>977.0</ele><time>2026-05-02T13:31:20.604Z</time></trkpt><trkpt lat="42.084865" lon="13.5798283"><ele>978.0</ele><time>2026-05-02T13:31:21.603Z</time></trkpt><trkpt lat="42.0848817" lon="13.579745"><ele>979.0</ele><time>2026-05-02T13:31:22.603Z</time></trkpt><trkpt lat="42.0849233" lon="13.579605"><ele>980.0</ele><time>2026-05-02T13:31:24.603Z</time></trkpt><trkpt lat="42.0849967" lon="13.5794583"><ele>977.3333333333334</ele><time>2026-05-02T13:31:26.604Z</time></trkpt><trkpt lat="42.0850383" lon="13.5793883"><ele>974.6666666666667</ele><time>2026-05-02T13:31:27.603Z</time></trkpt><trkpt lat="42.0851233" lon="13.57927"><ele>972.0</ele><time>2026-05-02T13:31:29.603Z</time></trkpt><trkpt lat="42.08517" lon="13.5792017"><ele>969.3333333333333</ele><time>2026-05-02T13:31:30.603Z</time></trkpt><trkpt lat="42.0852183" lon="13.5791333"><ele>966.6666666666666</ele><time>2026-05-02T13:31:31.604Z</time></trkpt><trkpt lat="42.0852733" lon="13.5790683"><ele>964.0</ele><time>2026-05-02T13:31:32.603Z</time></trkpt><trkpt lat="42.0853233" lon="13.5789983"><ele>963.9999999999999</ele><time>2026-05-02T13:31:33.604Z</time></trkpt><trkpt lat="42.0853817" lon="13.578935"><ele>964.0</ele><time>2026-05-02T13:31:34.604Z</time></trkpt><trkpt lat="42.0854317" lon="13.57886"><ele>964.0</ele><time>2026-05-02T13:31:35.603Z</time></trkpt><trkpt lat="42.085485" lon="13.5787867"><ele>964.0</ele><time>2026-05-02T13:31:36.603Z</time></trkpt><trkpt lat="42.085535" lon="13.5787083"><ele>963.9999999999999</ele><time>2026-05-02T13:31:37.603Z</time></trkpt><trkpt lat="42.0855833" lon="13.57863"><ele>964.0</ele><time>2026-05-02T13:31:38.604Z</time></trkpt><trkpt lat="42.08563" lon="13.57855"><ele>963.7142857142858</ele><time>2026-05-02T13:31:39.603Z</time></trkpt><trkpt lat="42.0856783" lon="13.57848"><ele>963.4285714285716</ele><time>2026-05-02T13:31:40.604Z</time></trkpt><trkpt lat="42.08572" lon="13.5784117"><ele>963.1428571428571</ele><time>2026-05-02T13:31:41.604Z</time></trkpt><trkpt lat="42.0857567" lon="13.5783383"><ele>962.8571428571429</ele><time>2026-05-02T13:31:42.603Z</time></trkpt><trkpt lat="42.0857917" lon="13.578265"><ele>962.5714285714286</ele><time>2026-05-02T13:31:43.604Z</time></trkpt><trkpt lat="42.0858317" lon="13.5781917"><ele>962.2857142857142</ele><time>2026-05-02T13:31:44.603Z</time></trkpt><trkpt lat="42.08587" lon="13.5781133"><ele>961.9999999999999</ele><time>2026-05-02T13:31:45.603Z</time></trkpt><trkpt lat="42.085905" lon="13.57803"><ele>962.0</ele><time>2026-05-02T13:31:46.604Z</time></trkpt><trkpt lat="42.0859367" lon="13.577885"><ele>962.0</ele><time>2026-05-02T13:31:48.604Z</time></trkpt><trkpt lat="42.08597" lon="13.5777317"><ele>962.0</ele><time>2026-05-02T13:31:50.604Z</time></trkpt><trkpt lat="42.0859917" lon="13.5776517"><ele>962.0</ele><time>2026-05-02T13:31:51.604Z</time></trkpt><trkpt lat="42.08603" lon="13.5775283"><ele>962.0</ele><time>2026-05-02T13:31:53.604Z</time></trkpt><trkpt lat="42.0860767" lon="13.57746"><ele>959.5000000000001</ele><time>2026-05-02T13:31:56.603Z</time></trkpt><trkpt lat="42.0861083" lon="13.577375"><ele>957.0</ele><time>2026-05-02T13:31:58.603Z</time></trkpt><trkpt lat="42.0861033" lon="13.5772483"><ele>954.5</ele><time>2026-05-02T13:32:00.604Z</time></trkpt><trkpt lat="42.0860483" lon="13.5771533"><ele>952.0</ele><time>2026-05-02T13:32:02.603Z</time></trkpt><trkpt lat="42.0859617" lon="13.57712"><ele>949.5000000000001</ele><time>2026-05-02T13:32:04.603Z</time></trkpt><trkpt lat="42.0858817" lon="13.5771667"><ele>947.0</ele><time>2026-05-02T13:32:06.602Z</time></trkpt><trkpt lat="42.0858183" lon="13.5771833"><ele>944.6666666666667</ele><time>2026-05-02T13:32:08.603Z</time></trkpt><trkpt lat="42.0857333" lon="13.5771967"><ele>942.3333333333334</ele><time>2026-05-02T13:32:10.602Z</time></trkpt><trkpt lat="42.0856333" lon="13.5772033"><ele>940.0</ele><time>2026-05-02T13:32:12.602Z</time></trkpt><trkpt lat="42.08556" lon="13.5772267"><ele>937.6666666666667</ele><time>2026-05-02T13:32:14.602Z</time></trkpt><trkpt lat="42.0854983" lon="13.57725"><ele>935.3333333333334</ele><time>2026-05-02T13:32:17.603Z</time></trkpt><trkpt lat="42.0854233" lon="13.5772533"><ele>933.0</ele><time>2026-05-02T13:32:22.603Z</time></trkpt><trkpt lat="42.0853383" lon="13.5772617"><ele>933.0</ele><time>2026-05-02T13:32:26.603Z</time></trkpt><trkpt lat="42.0852633" lon="13.5772883"><ele>933.0</ele><time>2026-05-02T13:32:28.603Z</time></trkpt><trkpt lat="42.08517" lon="13.5773317"><ele>933.0</ele><time>2026-05-02T13:32:30.603Z</time></trkpt><trkpt lat="42.085085" lon="13.5773583"><ele>933.0</ele><time>2026-05-02T13:32:32.603Z</time></trkpt><trkpt lat="42.0849917" lon="13.5772967"><ele>933.0</ele><time>2026-05-02T13:32:34.603Z</time></trkpt><trkpt lat="42.0849683" lon="13.57716"><ele>933.0</ele><time>2026-05-02T13:32:36.602Z</time></trkpt><trkpt lat="42.0850217" lon="13.57702"><ele>933.0</ele><time>2026-05-02T13:32:38.603Z</time></trkpt><trkpt lat="42.085095" lon="13.57693"><ele>933.0</ele><time>2026-05-02T13:32:40.603Z</time></trkpt><trkpt lat="42.0851633" lon="13.5768717"><ele>933.0</ele><time>2026-05-02T13:32:42.603Z</time></trkpt><trkpt lat="42.0852217" lon="13.576775"><ele>933.0</ele><time>2026-05-02T13:32:45.603Z</time></trkpt><trkpt lat="42.0852883" lon="13.576695"><ele>930.0</ele><time>2026-05-02T13:32:47.602Z</time></trkpt><trkpt lat="42.08536" lon="13.57659"><ele>927.0</ele><time>2026-05-02T13:32:49.602Z</time></trkpt><trkpt lat="42.0854417" lon="13.5764667"><ele>924.0</ele><time>2026-05-02T13:32:51.603Z</time></trkpt><trkpt lat="42.0855033" lon="13.576345"><ele>921.0</ele><time>2026-05-02T13:32:53.603Z</time></trkpt><trkpt lat="42.0855167" lon="13.5762283"><ele>918.0</ele><time>2026-05-02T13:32:55.603Z</time></trkpt><trkpt lat="42.0854883" lon="13.576095"><ele>915.4</ele><time>2026-05-02T13:32:57.602Z</time></trkpt><trkpt lat="42.08543" lon="13.57597"><ele>912.8</ele><time>2026-05-02T13:32:59.603Z</time></trkpt><trkpt lat="42.0853567" lon="13.57585"><ele>910.2</ele><time>2026-05-02T13:33:01.602Z</time></trkpt><trkpt lat="42.0852917" lon="13.57575"><ele>907.6</ele><time>2026-05-02T13:33:03.602Z</time></trkpt><trkpt lat="42.0852417" lon="13.575655"><ele>905.0</ele><time>2026-05-02T13:33:05.603Z</time></trkpt><trkpt lat="42.08521" lon="13.5755383"><ele>905.0</ele><time>2026-05-02T13:33:07.602Z</time></trkpt><trkpt lat="42.085195" lon="13.575435"><ele>904.9999999999999</ele><time>2026-05-02T13:33:09.602Z</time></trkpt><trkpt lat="42.0851983" lon="13.5753383"><ele>905.0</ele><time>2026-05-02T13:33:11.602Z</time></trkpt><trkpt lat="42.085185" lon="13.5752283"><ele>905.0</ele><time>2026-05-02T13:33:13.603Z</time></trkpt><trkpt lat="42.0851783" lon="13.5751267"><ele>904.9999999999999</ele><time>2026-05-02T13:33:15.602Z</time></trkpt><trkpt lat="42.0851867" lon="13.5750333"><ele>905.0</ele><time>2026-05-02T13:33:17.603Z</time></trkpt><trkpt lat="42.0852083" lon="13.5749483"><ele>905.0</ele><time>2026-05-02T13:33:19.602Z</time></trkpt><trkpt lat="42.0851867" lon="13.5748633"><ele>902.8333333333334</ele><time>2026-05-02T13:33:21.602Z</time></trkpt><trkpt lat="42.08515" lon="13.5747533"><ele>900.6666666666667</ele><time>2026-05-02T13:33:23.602Z</time></trkpt><trkpt lat="42.0851233" lon="13.5746217"><ele>898.5</ele><time>2026-05-02T13:33:25.602Z</time></trkpt><trkpt lat="42.0850883" lon="13.5745083"><ele>896.3333333333333</ele><time>2026-05-02T13:33:27.603Z</time></trkpt><trkpt lat="42.0850767" lon="13.5744117"><ele>894.1666666666666</ele><time>2026-05-02T13:33:29.602Z</time></trkpt><trkpt lat="42.0850683" lon="13.5743033"><ele>892.0</ele><time>2026-05-02T13:33:32.603Z</time></trkpt><trkpt lat="42.0850533" lon="13.5741817"><ele>889.2</ele><time>2026-05-02T13:33:35.602Z</time></trkpt><trkpt lat="42.085045" lon="13.5740667"><ele>886.4000000000001</ele><time>2026-05-02T13:33:37.602Z</time></trkpt><trkpt lat="42.0849883" lon="13.5738917"><ele>883.5999999999999</ele><time>2026-05-02T13:34:33.602Z</time></trkpt><trkpt lat="42.08501" lon="13.574"><ele>880.8</ele><time>2026-05-02T13:35:18.602Z</time></trkpt><trkpt lat="42.085015" lon="13.5740967"><ele>878.0</ele><time>2026-05-02T13:35:20.602Z</time></trkpt><trkpt lat="42.085025" lon="13.574225"><ele>878.0000000000001</ele><time>2026-05-02T13:35:22.601Z</time></trkpt><trkpt lat="42.085045" lon="13.574355"><ele>878.0</ele><time>2026-05-02T13:35:24.601Z</time></trkpt><trkpt lat="42.0850717" lon="13.5744683"><ele>878.0</ele><time>2026-05-02T13:35:26.601Z</time></trkpt><trkpt lat="42.0851033" lon="13.5746"><ele>878.0</ele><time>2026-05-02T13:35:28.601Z</time></trkpt><trkpt lat="42.0851183" lon="13.5746833"><ele>878.0000000000001</ele><time>2026-05-02T13:35:29.601Z</time></trkpt><trkpt lat="42.0851417" lon="13.57477"><ele>878.0</ele><time>2026-05-02T13:35:30.602Z</time></trkpt><trkpt lat="42.0851767" lon="13.5748433"><ele>880.8</ele><time>2026-05-02T13:35:31.602Z</time></trkpt><trkpt lat="42.0852067" lon="13.5749733"><ele>883.5999999999999</ele><time>2026-05-02T13:35:33.602Z</time></trkpt><trkpt lat="42.0851883" lon="13.5751217"><ele>886.4000000000001</ele><time>2026-05-02T13:35:35.602Z</time></trkpt><trkpt lat="42.08518" lon="13.5752433"><ele>889.2</ele><time>2026-05-02T13:35:37.601Z</time></trkpt><trkpt lat="42.0852117" lon="13.5753783"><ele>892.0</ele><time>2026-05-02T13:35:39.602Z</time></trkpt><trkpt lat="42.085225" lon="13.57547"><ele>894.1666666666666</ele><time>2026-05-02T13:35:40.601Z</time></trkpt><trkpt lat="42.0852433" lon="13.5755633"><ele>896.3333333333333</ele><time>2026-05-02T13:35:41.602Z</time></trkpt><trkpt lat="42.0852617" lon="13.5756483"><ele>898.5</ele><time>2026-05-02T13:35:42.602Z</time></trkpt><trkpt lat="42.0853" lon="13.57576"><ele>900.6666666666667</ele><time>2026-05-02T13:35:44.602Z</time></trkpt><trkpt lat="42.0853733" lon="13.5758667"><ele>902.8333333333334</ele><time>2026-05-02T13:35:46.602Z</time></trkpt><trkpt lat="42.0854133" lon="13.575935"><ele>905.0</ele><time>2026-05-02T13:35:47.602Z</time></trkpt><trkpt lat="42.0854567" lon="13.57601"><ele>905.0</ele><time>2026-05-02T13:35:48.602Z</time></trkpt><trkpt lat="42.0854933" lon="13.5760917"><ele>904.9999999999999</ele><time>2026-05-02T13:35:49.602Z</time></trkpt><trkpt lat="42.0855133" lon="13.57618"><ele>905.0</ele><time>2026-05-02T13:35:50.602Z</time></trkpt><trkpt lat="42.085525" lon="13.576325"><ele>905.0</ele><time>2026-05-02T13:35:52.601Z</time></trkpt><trkpt lat="42.08549" lon="13.5764083"><ele>904.9999999999999</ele><time>2026-05-02T13:35:54.602Z</time></trkpt><trkpt lat="42.0854483" lon="13.5764733"><ele>905.0</ele><time>2026-05-02T13:35:56.602Z</time></trkpt><trkpt lat="42.085385" lon="13.576465"><ele>905.0</ele><time>2026-05-02T13:36:00.601Z</time></trkpt><trkpt lat="42.0853217" lon="13.5764683"><ele>906.0000000000001</ele><time>2026-05-02T13:37:56.6Z</time></trkpt><trkpt lat="42.0852433" lon="13.5764967"><ele>907.0</ele><time>2026-05-02T13:38:14.6Z</time></trkpt><trkpt lat="42.08517" lon="13.576505"><ele>908.0</ele><time>2026-05-02T13:38:17.6Z</time></trkpt><trkpt lat="42.0850817" lon="13.5764467"><ele>909.0</ele><time>2026-05-02T13:38:20.6Z</time></trkpt><trkpt lat="42.08501" lon="13.5763983"><ele>910.0000000000001</ele><time>2026-05-02T13:38:22.601Z</time></trkpt><trkpt lat="42.0849217" lon="13.5763533"><ele>911.0</ele><time>2026-05-02T13:38:24.6Z</time></trkpt><trkpt lat="42.08483" lon="13.5763167"><ele>911.0</ele><time>2026-05-02T13:38:26.6Z</time></trkpt><trkpt lat="42.0847333" lon="13.5762717"><ele>910.9999999999999</ele><time>2026-05-02T13:38:28.6Z</time></trkpt><trkpt lat="42.0846283" lon="13.5762483"><ele>910.9999999999999</ele><time>2026-05-02T13:38:30.6Z</time></trkpt><trkpt lat="42.0845217" lon="13.576225"><ele>911.0</ele><time>2026-05-02T13:38:32.601Z</time></trkpt><trkpt lat="42.0844283" lon="13.5762233"><ele>911.0</ele><time>2026-05-02T13:38:34.6Z</time></trkpt><trkpt lat="42.0843233" lon="13.5762017"><ele>908.5000000000001</ele><time>2026-05-02T13:38:36.601Z</time></trkpt><trkpt lat="42.08424" lon="13.5761833"><ele>906.0</ele><time>2026-05-02T13:38:38.601Z</time></trkpt><trkpt lat="42.084175" lon="13.57616"><ele>903.5</ele><time>2026-05-02T13:38:40.6Z</time></trkpt><trkpt lat="42.0841067" lon="13.5761433"><ele>901.0</ele><time>2026-05-02T13:38:42.6Z</time></trkpt><trkpt lat="42.0840417" lon="13.57612"><ele>898.5000000000001</ele><time>2026-05-02T13:38:44.6Z</time></trkpt><trkpt lat="42.0839667" lon="13.576105"><ele>896.0</ele><time>2026-05-02T13:38:46.6Z</time></trkpt><trkpt lat="42.0838717" lon="13.5761017"><ele>895.4</ele><time>2026-05-02T13:38:48.6Z</time></trkpt><trkpt lat="42.0837617" lon="13.57611"><ele>894.8</ele><time>2026-05-02T13:38:50.601Z</time></trkpt><trkpt lat="42.08365" lon="13.5760883"><ele>894.1999999999999</ele><time>2026-05-02T13:38:52.6Z</time></trkpt><trkpt lat="42.083555" lon="13.5760217"><ele>893.5999999999999</ele><time>2026-05-02T13:38:54.601Z</time></trkpt><trkpt lat="42.0834817" lon="13.5759267"><ele>893.0</ele><time>2026-05-02T13:38:56.601Z</time></trkpt><trkpt lat="42.083405" lon="13.575825"><ele>893.0</ele><time>2026-05-02T13:38:58.6Z</time></trkpt><trkpt lat="42.08335" lon="13.5757"><ele>893.0</ele><time>2026-05-02T13:39:00.6Z</time></trkpt><trkpt lat="42.0832833" lon="13.575575"><ele>893.0</ele><time>2026-05-02T13:39:02.6Z</time></trkpt><trkpt lat="42.08324" lon="13.5755133"><ele>893.0</ele><time>2026-05-02T13:39:03.601Z</time></trkpt><trkpt lat="42.0831733" lon="13.5753867"><ele>893.0</ele><time>2026-05-02T13:39:05.6Z</time></trkpt><trkpt lat="42.0831217" lon="13.57523"><ele>891.6666666666667</ele><time>2026-05-02T13:39:07.601Z</time></trkpt><trkpt lat="42.0830967" lon="13.5751417"><ele>890.3333333333334</ele><time>2026-05-02T13:39:08.601Z</time></trkpt><trkpt lat="42.08307" lon="13.575045"><ele>889.0</ele><time>2026-05-02T13:39:09.601Z</time></trkpt><trkpt lat="42.083045" lon="13.5749467"><ele>887.6666666666667</ele><time>2026-05-02T13:39:10.6Z</time></trkpt><trkpt lat="42.08302" lon="13.5748433"><ele>886.3333333333334</ele><time>2026-05-02T13:39:11.6Z</time></trkpt><trkpt lat="42.0830017" lon="13.574745"><ele>885.0</ele><time>2026-05-02T13:39:12.6Z</time></trkpt><trkpt lat="42.0829533" lon="13.5746467"><ele>885.0</ele><time>2026-05-02T13:39:13.601Z</time></trkpt><trkpt lat="42.0829017" lon="13.574545"><ele>885.0</ele><time>2026-05-02T13:39:14.6Z</time></trkpt><trkpt lat="42.0828533" lon="13.57445"><ele>885.0</ele><time>2026-05-02T13:39:15.601Z</time></trkpt><trkpt lat="42.0828133" lon="13.574355"><ele>885.0</ele><time>2026-05-02T13:39:16.6Z</time></trkpt><trkpt lat="42.082775" lon="13.57426"><ele>885.0</ele><time>2026-05-02T13:39:17.601Z</time></trkpt><trkpt lat="42.082735" lon="13.574175"><ele>885.0</ele><time>2026-05-02T13:39:18.601Z</time></trkpt><trkpt lat="42.082685" lon="13.574085"><ele>884.0</ele><time>2026-05-02T13:39:19.601Z</time></trkpt><trkpt lat="42.0826233" lon="13.5739833"><ele>883.0</ele><time>2026-05-02T13:39:20.6Z</time></trkpt><trkpt lat="42.082565" lon="13.5738817"><ele>882.0</ele><time>2026-05-02T13:39:21.6Z</time></trkpt><trkpt lat="42.0825083" lon="13.5737933"><ele>881.0</ele><time>2026-05-02T13:39:22.601Z</time></trkpt><trkpt lat="42.0824583" lon="13.5737067"><ele>880.0</ele><time>2026-05-02T13:39:23.6Z</time></trkpt><trkpt lat="42.0824133" lon="13.57362"><ele>879.0</ele><time>2026-05-02T13:39:24.6Z</time></trkpt><trkpt lat="42.082365" lon="13.573535"><ele>878.3333333333334</ele><time>2026-05-02T13:39:25.601Z</time></trkpt><trkpt lat="42.0823233" lon="13.5734617"><ele>877.6666666666667</ele><time>2026-05-02T13:39:26.6Z</time></trkpt><trkpt lat="42.0822833" lon="13.5733933"><ele>877.0</ele><time>2026-05-02T13:39:27.601Z</time></trkpt><trkpt lat="42.082245" lon="13.573325"><ele>876.3333333333334</ele><time>2026-05-02T13:39:28.6Z</time></trkpt><trkpt lat="42.0821633" lon="13.5732083"><ele>875.6666666666667</ele><time>2026-05-02T13:39:30.6Z</time></trkpt><trkpt lat="42.0821133" lon="13.573145"><ele>875.0</ele><time>2026-05-02T13:39:31.6Z</time></trkpt><trkpt lat="42.0820167" lon="13.5730333"><ele>875.0000000000001</ele><time>2026-05-02T13:39:33.6Z</time></trkpt><trkpt lat="42.0819083" lon="13.5729283"><ele>875.0</ele><time>2026-05-02T13:39:35.6Z</time></trkpt><trkpt lat="42.0818483" lon="13.5728733"><ele>875.0</ele><time>2026-05-02T13:39:36.601Z</time></trkpt><trkpt lat="42.081795" lon="13.572805"><ele>875.0</ele><time>2026-05-02T13:39:37.6Z</time></trkpt><trkpt lat="42.081745" lon="13.572725"><ele>875.0000000000001</ele><time>2026-05-02T13:39:38.601Z</time></trkpt><trkpt lat="42.0817" lon="13.5726417"><ele>875.0</ele><time>2026-05-02T13:39:39.601Z</time></trkpt><trkpt lat="42.0816567" lon="13.5725567"><ele>874.6</ele><time>2026-05-02T13:39:40.6Z</time></trkpt><trkpt lat="42.0816133" lon="13.57248"><ele>874.2</ele><time>2026-05-02T13:39:41.6Z</time></trkpt><trkpt lat="42.0815267" lon="13.57236"><ele>873.8</ele><time>2026-05-02T13:39:43.601Z</time></trkpt><trkpt lat="42.08144" lon="13.5722767"><ele>873.4</ele><time>2026-05-02T13:39:45.6Z</time></trkpt><trkpt lat="42.0814183" lon="13.5721683"><ele>873.0</ele><time>2026-05-02T13:39:47.6Z</time></trkpt><trkpt lat="42.0814533" lon="13.5720467"><ele>871.4</ele><time>2026-05-02T13:39:49.601Z</time></trkpt><trkpt lat="42.0814917" lon="13.5719317"><ele>869.8</ele><time>2026-05-02T13:39:51.6Z</time></trkpt><trkpt lat="42.0814783" lon="13.5718433"><ele>868.2</ele><time>2026-05-02T13:39:53.6Z</time></trkpt><trkpt lat="42.0814117" lon="13.5717267"><ele>866.6</ele><time>2026-05-02T13:39:55.6Z</time></trkpt><trkpt lat="42.08132" lon="13.5716317"><ele>865.0</ele><time>2026-05-02T13:39:57.601Z</time></trkpt><trkpt lat="42.08126" lon="13.5715683"><ele>864.9999999999999</ele><time>2026-05-02T13:39:58.6Z</time></trkpt><trkpt lat="42.081205" lon="13.5715083"><ele>865.0</ele><time>2026-05-02T13:39:59.6Z</time></trkpt><trkpt lat="42.0811567" lon="13.57145"><ele>865.0</ele><time>2026-05-02T13:40:00.6Z</time></trkpt><trkpt lat="42.0811067" lon="13.5713967"><ele>865.0</ele><time>2026-05-02T13:40:01.601Z</time></trkpt><trkpt lat="42.081055" lon="13.5713467"><ele>864.9999999999999</ele><time>2026-05-02T13:40:02.601Z</time></trkpt><trkpt lat="42.0809983" lon="13.5713067"><ele>865.0</ele><time>2026-05-02T13:40:03.601Z</time></trkpt><trkpt lat="42.080895" lon="13.5712"><ele>863.0</ele><time>2026-05-02T13:40:05.6Z</time></trkpt><trkpt lat="42.0808217" lon="13.571075"><ele>861.0</ele><time>2026-05-02T13:40:07.6Z</time></trkpt><trkpt lat="42.0807883" lon="13.5709883"><ele>859.0</ele><time>2026-05-02T13:40:08.601Z</time></trkpt><trkpt lat="42.08075" lon="13.5708817"><ele>857.0</ele><time>2026-05-02T13:40:09.601Z</time></trkpt><trkpt lat="42.080705" lon="13.5707683"><ele>855.0</ele><time>2026-05-02T13:40:10.6Z</time></trkpt><trkpt lat="42.0806517" lon="13.57065"><ele>857.6</ele><time>2026-05-02T13:40:11.6Z</time></trkpt><trkpt lat="42.0805983" lon="13.5705283"><ele>860.2</ele><time>2026-05-02T13:40:12.6Z</time></trkpt><trkpt lat="42.0805533" lon="13.57041"><ele>862.8</ele><time>2026-05-02T13:40:13.601Z</time></trkpt><trkpt lat="42.0805083" lon="13.57028"><ele>865.4</ele><time>2026-05-02T13:40:14.601Z</time></trkpt><trkpt lat="42.0804783" lon="13.5701667"><ele>868.0</ele><time>2026-05-02T13:40:15.6Z</time></trkpt><trkpt lat="42.0804533" lon="13.570055"><ele>867.9999999999999</ele><time>2026-05-02T13:40:16.601Z</time></trkpt><trkpt lat="42.08043" lon="13.5699567"><ele>868.0</ele><time>2026-05-02T13:40:17.6Z</time></trkpt><trkpt lat="42.0804133" lon="13.5698583"><ele>868.0</ele><time>2026-05-02T13:40:18.601Z</time></trkpt><trkpt lat="42.0804017" lon="13.5697683"><ele>868.0</ele><time>2026-05-02T13:40:19.601Z</time></trkpt><trkpt lat="42.0803833" lon="13.5696067"><ele>867.9999999999999</ele><time>2026-05-02T13:40:21.6Z</time></trkpt><trkpt lat="42.0803717" lon="13.5695183"><ele>868.0</ele><time>2026-05-02T13:40:22.601Z</time></trkpt><trkpt lat="42.0803633" lon="13.56943"><ele>866.1666666666666</ele><time>2026-05-02T13:40:23.601Z</time></trkpt><trkpt lat="42.0803467" lon="13.5693367"><ele>864.3333333333333</ele><time>2026-05-02T13:40:24.6Z</time></trkpt><trkpt lat="42.0803067" lon="13.5691783"><ele>862.5</ele><time>2026-05-02T13:40:26.6Z</time></trkpt><trkpt lat="42.0802683" lon="13.569085"><ele>860.6666666666667</ele><time>2026-05-02T13:40:27.6Z</time></trkpt><trkpt lat="42.080225" lon="13.56899"><ele>858.8333333333334</ele><time>2026-05-02T13:40:28.6Z</time></trkpt><trkpt lat="42.0801817" lon="13.568895"><ele>857.0</ele><time>2026-05-02T13:40:29.601Z</time></trkpt><trkpt lat="42.080145" lon="13.5688017"><ele>857.0000000000001</ele><time>2026-05-02T13:40:30.6Z</time></trkpt><trkpt lat="42.080115" lon="13.5687017"><ele>857.0</ele><time>2026-05-02T13:40:31.601Z</time></trkpt><trkpt lat="42.08009" lon="13.568595"><ele>857.0</ele><time>2026-05-02T13:40:32.6Z</time></trkpt><trkpt lat="42.080065" lon="13.5684783"><ele>857.0</ele><time>2026-05-02T13:40:33.601Z</time></trkpt><trkpt lat="42.08005" lon="13.5683633"><ele>857.0000000000001</ele><time>2026-05-02T13:40:34.601Z</time></trkpt><trkpt lat="42.0800383" lon="13.5682467"><ele>857.0</ele><time>2026-05-02T13:40:35.6Z</time></trkpt><trkpt lat="42.080035" lon="13.568135"><ele>854.8333333333334</ele><time>2026-05-02T13:40:36.6Z</time></trkpt><trkpt lat="42.0800367" lon="13.5680167"><ele>852.6666666666667</ele><time>2026-05-02T13:40:37.6Z</time></trkpt><trkpt lat="42.0800417" lon="13.567905"><ele>850.5</ele><time>2026-05-02T13:40:38.601Z</time></trkpt><trkpt lat="42.0800567" lon="13.5678"><ele>848.3333333333333</ele><time>2026-05-02T13:40:39.6Z</time></trkpt><trkpt lat="42.0800833" lon="13.567695"><ele>846.1666666666666</ele><time>2026-05-02T13:40:40.6Z</time></trkpt><trkpt lat="42.080115" lon="13.567595"><ele>844.0</ele><time>2026-05-02T13:40:41.601Z</time></trkpt><trkpt lat="42.08016" lon="13.5674967"><ele>842.8000000000001</ele><time>2026-05-02T13:40:42.6Z</time></trkpt><trkpt lat="42.0802017" lon="13.5673883"><ele>841.6</ele><time>2026-05-02T13:40:43.601Z</time></trkpt><trkpt lat="42.0802483" lon="13.5672833"><ele>840.4</ele><time>2026-05-02T13:40:44.6Z</time></trkpt><trkpt lat="42.08031" lon="13.567175"><ele>839.2</ele><time>2026-05-02T13:40:45.6Z</time></trkpt><trkpt lat="42.0803733" lon="13.5670817"><ele>838.0</ele><time>2026-05-02T13:40:46.601Z</time></trkpt><trkpt lat="42.0804383" lon="13.566995"><ele>837.9999999999999</ele><time>2026-05-02T13:40:47.6Z</time></trkpt><trkpt lat="42.0804933" lon="13.5669383"><ele>838.0</ele><time>2026-05-02T13:40:48.6Z</time></trkpt><trkpt lat="42.08054" lon="13.56688"><ele>838.0</ele><time>2026-05-02T13:40:49.599Z</time></trkpt><trkpt lat="42.0805867" lon="13.5667683"><ele>838.0</ele><time>2026-05-02T13:40:51.6Z</time></trkpt><trkpt lat="42.0805767" lon="13.5666217"><ele>837.9999999999999</ele><time>2026-05-02T13:40:53.599Z</time></trkpt><trkpt lat="42.0805467" lon="13.566545"><ele>838.0</ele><time>2026-05-02T13:40:54.6Z</time></trkpt><trkpt lat="42.080515" lon="13.566465"><ele>837.9999999999999</ele><time>2026-05-02T13:40:55.599Z</time></trkpt><trkpt lat="42.080495" lon="13.5663717"><ele>838.0</ele><time>2026-05-02T13:40:56.6Z</time></trkpt><trkpt lat="42.080485" lon="13.5662667"><ele>838.0</ele><time>2026-05-02T13:40:57.6Z</time></trkpt><trkpt lat="42.08048" lon="13.5661483"><ele>838.0</ele><time>2026-05-02T13:40:58.599Z</time></trkpt><trkpt lat="42.0804883" lon="13.5660133"><ele>837.9999999999999</ele><time>2026-05-02T13:40:59.6Z</time></trkpt><trkpt lat="42.0804783" lon="13.5658767"><ele>838.0</ele><time>2026-05-02T13:41:00.6Z</time></trkpt><trkpt lat="42.0804667" lon="13.5657633"><ele>838.0</ele><time>2026-05-02T13:41:01.6Z</time></trkpt><trkpt lat="42.08044" lon="13.5656567"><ele>838.0</ele><time>2026-05-02T13:41:02.599Z</time></trkpt><trkpt lat="42.0803983" lon="13.5655467"><ele>838.0</ele><time>2026-05-02T13:41:03.6Z</time></trkpt><trkpt lat="42.08035" lon="13.5654283"><ele>838.0</ele><time>2026-05-02T13:41:04.6Z</time></trkpt><trkpt lat="42.0802933" lon="13.5652933"><ele>838.0</ele><time>2026-05-02T13:41:05.6Z</time></trkpt><trkpt lat="42.0802433" lon="13.5651583"><ele>835.5999999999999</ele><time>2026-05-02T13:41:06.6Z</time></trkpt><trkpt lat="42.0802033" lon="13.5650183"><ele>833.1999999999999</ele><time>2026-05-02T13:41:07.599Z</time></trkpt><trkpt lat="42.0801667" lon="13.5648817"><ele>830.8</ele><time>2026-05-02T13:41:08.6Z</time></trkpt><trkpt lat="42.080135" lon="13.56475"><ele>828.4</ele><time>2026-05-02T13:41:09.599Z</time></trkpt><trkpt lat="42.0801067" lon="13.5646267"><ele>826.0</ele><time>2026-05-02T13:41:10.6Z</time></trkpt><trkpt lat="42.080095" lon="13.564475"><ele>824.0</ele><time>2026-05-02T13:41:11.6Z</time></trkpt><trkpt lat="42.0800917" lon="13.5643017"><ele>822.0</ele><time>2026-05-02T13:41:12.6Z</time></trkpt><trkpt lat="42.0800917" lon="13.564145"><ele>820.0</ele><time>2026-05-02T13:41:13.599Z</time></trkpt><trkpt lat="42.0800833" lon="13.5639633"><ele>818.0</ele><time>2026-05-02T13:41:14.599Z</time></trkpt><trkpt lat="42.0800733" lon="13.5637883"><ele>817.8</ele><time>2026-05-02T13:41:15.6Z</time></trkpt><trkpt lat="42.0800633" lon="13.5636367"><ele>817.5999999999999</ele><time>2026-05-02T13:41:16.599Z</time></trkpt><trkpt lat="42.0800533" lon="13.5634883"><ele>817.4000000000001</ele><time>2026-05-02T13:41:17.6Z</time></trkpt><trkpt lat="42.0800533" lon="13.5633367"><ele>817.2</ele><time>2026-05-02T13:41:18.599Z</time></trkpt><trkpt lat="42.0800517" lon="13.5631883"><ele>817.0</ele><time>2026-05-02T13:41:19.599Z</time></trkpt><trkpt lat="42.08005" lon="13.5630467"><ele>816.9999999999999</ele><time>2026-05-02T13:41:20.6Z</time></trkpt><trkpt lat="42.0800483" lon="13.5629233"><ele>817.0</ele><time>2026-05-02T13:41:21.599Z</time></trkpt><trkpt lat="42.080055" lon="13.5628083"><ele>817.0</ele><time>2026-05-02T13:41:22.6Z</time></trkpt><trkpt lat="42.0800617" lon="13.56271"><ele>817.0</ele><time>2026-05-02T13:41:23.599Z</time></trkpt><trkpt lat="42.0800633" lon="13.5626217"><ele>816.9999999999999</ele><time>2026-05-02T13:41:24.599Z</time></trkpt><trkpt lat="42.0800467" lon="13.5625267"><ele>817.0</ele><time>2026-05-02T13:41:25.6Z</time></trkpt><trkpt lat="42.0800167" lon="13.562435"><ele>815.2</ele><time>2026-05-02T13:41:26.6Z</time></trkpt><trkpt lat="42.0799817" lon="13.5623417"><ele>813.4000000000001</ele><time>2026-05-02T13:41:27.6Z</time></trkpt><trkpt lat="42.0799383" lon="13.5622517"><ele>811.5999999999999</ele><time>2026-05-02T13:41:28.599Z</time></trkpt><trkpt lat="42.079875" lon="13.5620583"><ele>809.8</ele><time>2026-05-02T13:41:30.599Z</time></trkpt><trkpt lat="42.07986" lon="13.5619583"><ele>808.0</ele><time>2026-05-02T13:41:31.599Z</time></trkpt><trkpt lat="42.07986" lon="13.5618317"><ele>806.6666666666666</ele><time>2026-05-02T13:41:32.599Z</time></trkpt><trkpt lat="42.0798633" lon="13.5617"><ele>805.3333333333333</ele><time>2026-05-02T13:41:33.599Z</time></trkpt><trkpt lat="42.0798767" lon="13.5615717"><ele>804.0</ele><time>2026-05-02T13:41:34.599Z</time></trkpt><trkpt lat="42.0798917" lon="13.5614567"><ele>802.6666666666667</ele><time>2026-05-02T13:41:35.6Z</time></trkpt><trkpt lat="42.079915" lon="13.561365"><ele>801.3333333333334</ele><time>2026-05-02T13:41:36.6Z</time></trkpt><trkpt lat="42.0799417" lon="13.5612867"><ele>800.0</ele><time>2026-05-02T13:41:37.599Z</time></trkpt><trkpt lat="42.07999" lon="13.561205"><ele>799.0000000000001</ele><time>2026-05-02T13:41:38.599Z</time></trkpt><trkpt lat="42.0800417" lon="13.56113"><ele>798.0</ele><time>2026-05-02T13:41:39.599Z</time></trkpt><trkpt lat="42.080085" lon="13.56105"><ele>797.0</ele><time>2026-05-02T13:41:40.599Z</time></trkpt><trkpt lat="42.080115" lon="13.5609667"><ele>796.0</ele><time>2026-05-02T13:41:41.599Z</time></trkpt><trkpt lat="42.080135" lon="13.5607983"><ele>795.0000000000001</ele><time>2026-05-02T13:41:43.6Z</time></trkpt><trkpt lat="42.0801283" lon="13.56071"><ele>794.0</ele><time>2026-05-02T13:41:44.6Z</time></trkpt><trkpt lat="42.0801017" lon="13.5606"><ele>794.0000000000001</ele><time>2026-05-02T13:41:45.6Z</time></trkpt><trkpt lat="42.0800667" lon="13.5604867"><ele>794.0</ele><time>2026-05-02T13:41:46.6Z</time></trkpt><trkpt lat="42.0800267" lon="13.5603767"><ele>794.0</ele><time>2026-05-02T13:41:47.599Z</time></trkpt><trkpt lat="42.079985" lon="13.56028"><ele>794.0</ele><time>2026-05-02T13:41:48.6Z</time></trkpt><trkpt lat="42.0799417" lon="13.560185"><ele>794.0000000000001</ele><time>2026-05-02T13:41:49.6Z</time></trkpt><trkpt lat="42.0799" lon="13.5601"><ele>794.0</ele><time>2026-05-02T13:41:50.6Z</time></trkpt><trkpt lat="42.0798567" lon="13.56002"><ele>796.0000000000001</ele><time>2026-05-02T13:41:51.599Z</time></trkpt><trkpt lat="42.0798083" lon="13.5599433"><ele>798.0</ele><time>2026-05-02T13:41:52.6Z</time></trkpt><trkpt lat="42.0797583" lon="13.55987"><ele>800.0</ele><time>2026-05-02T13:41:53.6Z</time></trkpt><trkpt lat="42.0797117" lon="13.5597883"><ele>802.0</ele><time>2026-05-02T13:41:54.599Z</time></trkpt><trkpt lat="42.079665" lon="13.5597017"><ele>804.0000000000001</ele><time>2026-05-02T13:41:55.6Z</time></trkpt><trkpt lat="42.0796167" lon="13.5596083"><ele>806.0</ele><time>2026-05-02T13:41:56.599Z</time></trkpt><trkpt lat="42.0795683" lon="13.55951"><ele>800.0</ele><time>2026-05-02T13:41:57.599Z</time></trkpt><trkpt lat="42.07951" lon="13.5594133"><ele>794.0</ele><time>2026-05-02T13:41:58.6Z</time></trkpt><trkpt lat="42.0794583" lon="13.55931"><ele>788.0</ele><time>2026-05-02T13:41:59.6Z</time></trkpt><trkpt lat="42.0794117" lon="13.5591983"><ele>782.0</ele><time>2026-05-02T13:42:00.6Z</time></trkpt><trkpt lat="42.07931" lon="13.55897"><ele>782.0</ele><time>2026-05-02T13:42:02.599Z</time></trkpt><trkpt lat="42.0792467" lon="13.5588633"><ele>782.0</ele><time>2026-05-02T13:42:03.6Z</time></trkpt><trkpt lat="42.0791717" lon="13.5587467"><ele>782.0</ele><time>2026-05-02T13:42:04.599Z</time></trkpt><trkpt lat="42.0790833" lon="13.55861"><ele>782.0</ele><time>2026-05-02T13:42:05.599Z</time></trkpt><trkpt lat="42.0790083" lon="13.558485"><ele>782.4000000000001</ele><time>2026-05-02T13:42:06.6Z</time></trkpt><trkpt lat="42.07894" lon="13.5583667"><ele>782.8000000000001</ele><time>2026-05-02T13:42:07.6Z</time></trkpt><trkpt lat="42.0788783" lon="13.558255"><ele>783.2</ele><time>2026-05-02T13:42:08.6Z</time></trkpt><trkpt lat="42.078825" lon="13.5581383"><ele>783.6</ele><time>2026-05-02T13:42:09.6Z</time></trkpt><trkpt lat="42.07878" lon="13.5580267"><ele>784.0</ele><time>2026-05-02T13:42:10.6Z</time></trkpt><trkpt lat="42.078735" lon="13.5579217"><ele>780.0</ele><time>2026-05-02T13:42:11.599Z</time></trkpt><trkpt lat="42.0786383" lon="13.5577333"><ele>776.0</ele><time>2026-05-02T13:42:13.6Z</time></trkpt><trkpt lat="42.0785983" lon="13.5576283"><ele>772.0</ele><time>2026-05-02T13:42:14.599Z</time></trkpt><trkpt lat="42.07856" lon="13.5575183"><ele>768.0</ele><time>2026-05-02T13:42:15.599Z</time></trkpt><trkpt lat="42.0785133" lon="13.5574017"><ele>764.0</ele><time>2026-05-02T13:42:16.6Z</time></trkpt><trkpt lat="42.0784617" lon="13.557285"><ele>764.0</ele><time>2026-05-02T13:42:17.6Z</time></trkpt><trkpt lat="42.0784117" lon="13.5571667"><ele>764.0</ele><time>2026-05-02T13:42:18.6Z</time></trkpt><trkpt lat="42.07836" lon="13.5570567"><ele>764.0</ele><time>2026-05-02T13:42:19.6Z</time></trkpt><trkpt lat="42.0783183" lon="13.5569783"><ele>764.0</ele><time>2026-05-02T13:42:20.599Z</time></trkpt><trkpt lat="42.0782667" lon="13.5568533"><ele>764.0</ele><time>2026-05-02T13:42:22.599Z</time></trkpt><trkpt lat="42.078225" lon="13.55669"><ele>765.8000000000001</ele><time>2026-05-02T13:42:24.6Z</time></trkpt><trkpt lat="42.07822" lon="13.5565867"><ele>767.6</ele><time>2026-05-02T13:42:25.6Z</time></trkpt><trkpt lat="42.0782017" lon="13.5564683"><ele>769.4</ele><time>2026-05-02T13:42:26.6Z</time></trkpt><trkpt lat="42.078185" lon="13.55634"><ele>771.2</ele><time>2026-05-02T13:42:27.6Z</time></trkpt><trkpt lat="42.0781617" lon="13.5562067"><ele>773.0</ele><time>2026-05-02T13:42:28.599Z</time></trkpt><trkpt lat="42.0781267" lon="13.5560883"><ele>773.0</ele><time>2026-05-02T13:42:29.6Z</time></trkpt><trkpt lat="42.0780817" lon="13.55596"><ele>773.0</ele><time>2026-05-02T13:42:30.599Z</time></trkpt><trkpt lat="42.0780267" lon="13.5558433"><ele>773.0</ele><time>2026-05-02T13:42:31.6Z</time></trkpt><trkpt lat="42.07797" lon="13.5557383"><ele>773.0</ele><time>2026-05-02T13:42:32.599Z</time></trkpt><trkpt lat="42.0779133" lon="13.5556317"><ele>773.0</ele><time>2026-05-02T13:42:33.599Z</time></trkpt><trkpt lat="42.0778617" lon="13.5555267"><ele>773.0000000000001</ele><time>2026-05-02T13:42:34.6Z</time></trkpt><trkpt lat="42.0778317" lon="13.55543"><ele>773.0</ele><time>2026-05-02T13:42:35.599Z</time></trkpt><trkpt lat="42.0778167" lon="13.55532"><ele>773.0</ele><time>2026-05-02T13:42:36.599Z</time></trkpt><trkpt lat="42.0778233" lon="13.55521"><ele>773.0</ele><time>2026-05-02T13:42:37.6Z</time></trkpt><trkpt lat="42.0778367" lon="13.5551033"><ele>773.0000000000001</ele><time>2026-05-02T13:42:38.6Z</time></trkpt><trkpt lat="42.0778317" lon="13.5549933"><ele>773.0</ele><time>2026-05-02T13:42:39.6Z</time></trkpt><trkpt lat="42.077805" lon="13.5548833"><ele>770.0</ele><time>2026-05-02T13:42:40.6Z</time></trkpt><trkpt lat="42.0777617" lon="13.5547783"><ele>767.0</ele><time>2026-05-02T13:42:41.599Z</time></trkpt><trkpt lat="42.0777133" lon="13.5546633"><ele>764.0</ele><time>2026-05-02T13:42:42.6Z</time></trkpt><trkpt lat="42.0776483" lon="13.5545533"><ele>761.0</ele><time>2026-05-02T13:42:43.6Z</time></trkpt><trkpt lat="42.0775667" lon="13.5544583"><ele>758.0</ele><time>2026-05-02T13:42:44.599Z</time></trkpt><trkpt lat="42.07748" lon="13.55436"><ele>758.6666666666666</ele><time>2026-05-02T13:42:45.6Z</time></trkpt><trkpt lat="42.07739" lon="13.5542917"><ele>759.3333333333333</ele><time>2026-05-02T13:42:46.6Z</time></trkpt><trkpt lat="42.0773167" lon="13.5542333"><ele>760.0</ele><time>2026-05-02T13:42:47.6Z</time></trkpt><trkpt lat="42.0772533" lon="13.5541583"><ele>760.6666666666666</ele><time>2026-05-02T13:42:48.6Z</time></trkpt><trkpt lat="42.0772017" lon="13.5540783"><ele>761.3333333333334</ele><time>2026-05-02T13:42:49.599Z</time></trkpt><trkpt lat="42.0771583" lon="13.553985"><ele>762.0</ele><time>2026-05-02T13:42:50.6Z</time></trkpt><trkpt lat="42.0771283" lon="13.55388"><ele>762.0</ele><time>2026-05-02T13:42:51.6Z</time></trkpt><trkpt lat="42.07711" lon="13.5537733"><ele>762.0</ele><time>2026-05-02T13:42:52.6Z</time></trkpt><trkpt lat="42.0770833" lon="13.5536833"><ele>762.0</ele><time>2026-05-02T13:42:53.6Z</time></trkpt><trkpt lat="42.0770217" lon="13.553555"><ele>762.0</ele><time>2026-05-02T13:42:55.6Z</time></trkpt><trkpt lat="42.0770133" lon="13.553465"><ele>762.0</ele><time>2026-05-02T13:42:57.599Z</time></trkpt><trkpt lat="42.0770683" lon="13.5533983"><ele>762.0</ele><time>2026-05-02T13:42:59.6Z</time></trkpt><trkpt lat="42.07713" lon="13.5533667"><ele>759.0</ele><time>2026-05-02T13:43:00.6Z</time></trkpt><trkpt lat="42.0772167" lon="13.5533383"><ele>756.0</ele><time>2026-05-02T13:43:01.599Z</time></trkpt><trkpt lat="42.0773133" lon="13.5533033"><ele>753.0</ele><time>2026-05-02T13:43:02.599Z</time></trkpt><trkpt lat="42.0774133" lon="13.5532483"><ele>750.0</ele><time>2026-05-02T13:43:03.599Z</time></trkpt><trkpt lat="42.077495" lon="13.5531717"><ele>747.0</ele><time>2026-05-02T13:43:04.6Z</time></trkpt><trkpt lat="42.07755" lon="13.553065"><ele>747.0</ele><time>2026-05-02T13:43:05.599Z</time></trkpt><trkpt lat="42.0775767" lon="13.55292"><ele>747.0</ele><time>2026-05-02T13:43:06.599Z</time></trkpt><trkpt lat="42.0775733" lon="13.552745"><ele>747.0</ele><time>2026-05-02T13:43:07.6Z</time></trkpt><trkpt lat="42.0775317" lon="13.552565"><ele>747.0</ele><time>2026-05-02T13:43:08.6Z</time></trkpt><trkpt lat="42.0774817" lon="13.5523817"><ele>747.0</ele><time>2026-05-02T13:43:09.6Z</time></trkpt><trkpt lat="42.07742" lon="13.55219"><ele>747.0</ele><time>2026-05-02T13:43:10.6Z</time></trkpt><trkpt lat="42.0773633" lon="13.55199"><ele>747.0</ele><time>2026-05-02T13:43:11.6Z</time></trkpt><trkpt lat="42.0773017" lon="13.5517883"><ele>747.0</ele><time>2026-05-02T13:43:12.599Z</time></trkpt><trkpt lat="42.0772267" lon="13.551595"><ele>747.0</ele><time>2026-05-02T13:43:13.599Z</time></trkpt><trkpt lat="42.0771333" lon="13.5514267"><ele>747.0</ele><time>2026-05-02T13:43:14.6Z</time></trkpt><trkpt lat="42.0770217" lon="13.551285"><ele>749.0</ele><time>2026-05-02T13:43:15.6Z</time></trkpt><trkpt lat="42.0769183" lon="13.55117"><ele>751.0</ele><time>2026-05-02T13:43:16.599Z</time></trkpt><trkpt lat="42.07681" lon="13.5510817"><ele>753.0</ele><time>2026-05-02T13:43:17.6Z</time></trkpt><trkpt lat="42.076715" lon="13.55101"><ele>755.0</ele><time>2026-05-02T13:43:18.6Z</time></trkpt><trkpt lat="42.0766433" lon="13.5509317"><ele>755.0</ele><time>2026-05-02T13:43:19.599Z</time></trkpt><trkpt lat="42.0765917" lon="13.5508633"><ele>755.0</ele><time>2026-05-02T13:43:20.6Z</time></trkpt><trkpt lat="42.076565" lon="13.5507317"><ele>755.0</ele><time>2026-05-02T13:43:22.599Z</time></trkpt><trkpt lat="42.0766433" lon="13.5506633"><ele>755.0</ele><time>2026-05-02T13:43:25.599Z</time></trkpt><trkpt lat="42.0767883" lon="13.5506433"><ele>755.0</ele><time>2026-05-02T13:43:27.6Z</time></trkpt><trkpt lat="42.076885" lon="13.5506183"><ele>755.0</ele><time>2026-05-02T13:43:28.6Z</time></trkpt><trkpt lat="42.0769833" lon="13.5505783"><ele>755.0</ele><time>2026-05-02T13:43:29.6Z</time></trkpt><trkpt lat="42.0771017" lon="13.5505417"><ele>755.0</ele><time>2026-05-02T13:43:30.599Z</time></trkpt><trkpt lat="42.0772133" lon="13.5505033"><ele>755.0</ele><time>2026-05-02T13:43:31.599Z</time></trkpt><trkpt lat="42.0773267" lon="13.55046"><ele>757.0</ele><time>2026-05-02T13:43:32.599Z</time></trkpt><trkpt lat="42.0774433" lon="13.5504117"><ele>759.0</ele><time>2026-05-02T13:43:33.6Z</time></trkpt><trkpt lat="42.077565" lon="13.5503633"><ele>761.0</ele><time>2026-05-02T13:43:34.6Z</time></trkpt><trkpt lat="42.0776817" lon="13.5503133"><ele>763.0</ele><time>2026-05-02T13:43:35.6Z</time></trkpt><trkpt lat="42.0778017" lon="13.5502633"><ele>763.0</ele><time>2026-05-02T13:43:36.599Z</time></trkpt><trkpt lat="42.0779067" lon="13.5502183"><ele>763.0</ele><time>2026-05-02T13:43:37.6Z</time></trkpt><trkpt lat="42.0780133" lon="13.5501783"><ele>763.0</ele><time>2026-05-02T13:43:38.6Z</time></trkpt><trkpt lat="42.078125" lon="13.550135"><ele>763.0</ele><time>2026-05-02T13:43:39.6Z</time></trkpt><trkpt lat="42.078235" lon="13.5500917"><ele>766.5</ele><time>2026-05-02T13:43:40.599Z</time></trkpt><trkpt lat="42.078345" lon="13.55004"><ele>770.0</ele><time>2026-05-02T13:43:41.6Z</time></trkpt><trkpt lat="42.0784533" lon="13.54999"><ele>773.5</ele><time>2026-05-02T13:43:42.599Z</time></trkpt><trkpt lat="42.0785633" lon="13.5499417"><ele>777.0</ele><time>2026-05-02T13:43:43.6Z</time></trkpt><trkpt lat="42.0786717" lon="13.5498933"><ele>777.0</ele><time>2026-05-02T13:43:44.599Z</time></trkpt><trkpt lat="42.0787733" lon="13.549835"><ele>777.0</ele><time>2026-05-02T13:43:45.6Z</time></trkpt><trkpt lat="42.078885" lon="13.54979"><ele>777.0</ele><time>2026-05-02T13:43:46.6Z</time></trkpt><trkpt lat="42.0789933" lon="13.5497417"><ele>777.0</ele><time>2026-05-02T13:43:47.599Z</time></trkpt><trkpt lat="42.079105" lon="13.5496917"><ele>777.6</ele><time>2026-05-02T13:43:48.6Z</time></trkpt><trkpt lat="42.0792233" lon="13.549645"><ele>778.2</ele><time>2026-05-02T13:43:49.599Z</time></trkpt><trkpt lat="42.0793283" lon="13.5495983"><ele>778.8</ele><time>2026-05-02T13:43:50.599Z</time></trkpt><trkpt lat="42.0794117" lon="13.5495567"><ele>779.4</ele><time>2026-05-02T13:43:51.599Z</time></trkpt><trkpt lat="42.0794733" lon="13.5495283"><ele>780.0</ele><time>2026-05-02T13:43:52.599Z</time></trkpt><trkpt lat="42.079545" lon="13.5494917"><ele>780.0</ele><time>2026-05-02T13:43:54.599Z</time></trkpt><trkpt lat="42.079635" lon="13.549455"><ele>780.0</ele><time>2026-05-02T13:43:57.599Z</time></trkpt><trkpt lat="42.0796967" lon="13.54941"><ele>780.0</ele><time>2026-05-02T13:43:58.599Z</time></trkpt><trkpt lat="42.0797667" lon="13.5493483"><ele>780.0</ele><time>2026-05-02T13:43:59.599Z</time></trkpt><trkpt lat="42.0798467" lon="13.549275"><ele>780.0</ele><time>2026-05-02T13:44:00.599Z</time></trkpt><trkpt lat="42.0799233" lon="13.5491967"><ele>780.0</ele><time>2026-05-02T13:44:01.599Z</time></trkpt><trkpt lat="42.079995" lon="13.549125"><ele>781.5</ele><time>2026-05-02T13:44:02.599Z</time></trkpt><trkpt lat="42.0800633" lon="13.54906"><ele>783.0</ele><time>2026-05-02T13:44:03.599Z</time></trkpt><trkpt lat="42.080125" lon="13.5489983"><ele>784.5</ele><time>2026-05-02T13:44:04.599Z</time></trkpt><trkpt lat="42.08018" lon="13.54894"><ele>786.0</ele><time>2026-05-02T13:44:05.598Z</time></trkpt><trkpt lat="42.0802317" lon="13.5488717"><ele>787.5</ele><time>2026-05-02T13:44:06.598Z</time></trkpt><trkpt lat="42.0802833" lon="13.5488083"><ele>789.0</ele><time>2026-05-02T13:44:07.599Z</time></trkpt><trkpt lat="42.080345" lon="13.5487383"><ele>787.3333333333334</ele><time>2026-05-02T13:44:08.599Z</time></trkpt><trkpt lat="42.080415" lon="13.54867"><ele>785.6666666666667</ele><time>2026-05-02T13:44:09.599Z</time></trkpt><trkpt lat="42.0804883" lon="13.548595"><ele>784.0</ele><time>2026-05-02T13:44:10.598Z</time></trkpt><trkpt lat="42.0805633" lon="13.5485267"><ele>782.3333333333334</ele><time>2026-05-02T13:44:11.599Z</time></trkpt><trkpt lat="42.0806317" lon="13.5484567"><ele>780.6666666666667</ele><time>2026-05-02T13:44:12.598Z</time></trkpt><trkpt lat="42.080695" lon="13.5483917"><ele>779.0</ele><time>2026-05-02T13:44:13.599Z</time></trkpt><trkpt lat="42.08075" lon="13.5483283"><ele>779.8571428571429</ele><time>2026-05-02T13:44:14.599Z</time></trkpt><trkpt lat="42.08081" lon="13.5482567"><ele>780.7142857142858</ele><time>2026-05-02T13:44:15.598Z</time></trkpt><trkpt lat="42.0808717" lon="13.5481917"><ele>781.5714285714287</ele><time>2026-05-02T13:44:16.598Z</time></trkpt><trkpt lat="42.0809333" lon="13.5481233"><ele>782.4285714285714</ele><time>2026-05-02T13:44:17.599Z</time></trkpt><trkpt lat="42.08099" lon="13.54806"><ele>783.2857142857142</ele><time>2026-05-02T13:44:18.599Z</time></trkpt><trkpt lat="42.081045" lon="13.5480133"><ele>784.1428571428572</ele><time>2026-05-02T13:44:19.598Z</time></trkpt><trkpt lat="42.081105" lon="13.54796"><ele>785.0</ele><time>2026-05-02T13:44:21.599Z</time></trkpt><trkpt lat="42.0811733" lon="13.5478833"><ele>782.6666666666667</ele><time>2026-05-02T13:44:27.598Z</time></trkpt><trkpt lat="42.08126" lon="13.5478"><ele>780.3333333333334</ele><time>2026-05-02T13:44:29.598Z</time></trkpt><trkpt lat="42.081315" lon="13.54774"><ele>778.0</ele><time>2026-05-02T13:44:30.599Z</time></trkpt><trkpt lat="42.0813733" lon="13.547665"><ele>775.6666666666667</ele><time>2026-05-02T13:44:31.598Z</time></trkpt><trkpt lat="42.0814383" lon="13.54761"><ele>773.3333333333334</ele><time>2026-05-02T13:44:32.599Z</time></trkpt><trkpt lat="42.0815033" lon="13.5475567"><ele>771.0</ele><time>2026-05-02T13:44:33.598Z</time></trkpt><trkpt lat="42.081575" lon="13.5475017"><ele>771.3333333333334</ele><time>2026-05-02T13:44:34.598Z</time></trkpt><trkpt lat="42.08165" lon="13.5474583"><ele>771.6666666666667</ele><time>2026-05-02T13:44:35.599Z</time></trkpt><trkpt lat="42.0817167" lon="13.54742"><ele>772.0</ele><time>2026-05-02T13:44:36.599Z</time></trkpt><trkpt lat="42.0817867" lon="13.5473883"><ele>772.3333333333334</ele><time>2026-05-02T13:44:37.599Z</time></trkpt><trkpt lat="42.0818667" lon="13.5473567"><ele>772.6666666666667</ele><time>2026-05-02T13:44:38.599Z</time></trkpt><trkpt lat="42.0819433" lon="13.54732"><ele>773.0</ele><time>2026-05-02T13:44:39.598Z</time></trkpt><trkpt lat="42.0820167" lon="13.5472933"><ele>773.0000000000001</ele><time>2026-05-02T13:44:40.598Z</time></trkpt><trkpt lat="42.082085" lon="13.5472617"><ele>773.0</ele><time>2026-05-02T13:44:41.598Z</time></trkpt><trkpt lat="42.082145" lon="13.5472267"><ele>773.0</ele><time>2026-05-02T13:44:42.599Z</time></trkpt><trkpt lat="42.082235" lon="13.5471117"><ele>773.0</ele><time>2026-05-02T13:44:44.599Z</time></trkpt><trkpt lat="42.0822733" lon="13.5470383"><ele>773.0000000000001</ele><time>2026-05-02T13:44:45.598Z</time></trkpt><trkpt lat="42.08231" lon="13.5469433"><ele>773.0</ele><time>2026-05-02T13:44:46.599Z</time></trkpt><trkpt lat="42.0823483" lon="13.54685"><ele>773.5999999999999</ele><time>2026-05-02T13:44:47.598Z</time></trkpt><trkpt lat="42.08238" lon="13.5467567"><ele>774.1999999999999</ele><time>2026-05-02T13:44:48.598Z</time></trkpt><trkpt lat="42.082405" lon="13.546655"><ele>774.8</ele><time>2026-05-02T13:44:49.598Z</time></trkpt><trkpt lat="42.0824233" lon="13.5465617"><ele>775.4</ele><time>2026-05-02T13:44:50.598Z</time></trkpt><trkpt lat="42.0824717" lon="13.5464067"><ele>776.0</ele><time>2026-05-02T13:44:52.598Z</time></trkpt><trkpt lat="42.0825033" lon="13.5462317"><ele>775.0000000000001</ele><time>2026-05-02T13:44:54.599Z</time></trkpt><trkpt lat="42.0825117" lon="13.5461167"><ele>774.0</ele><time>2026-05-02T13:44:55.598Z</time></trkpt><trkpt lat="42.0825283" lon="13.5459967"><ele>773.0</ele><time>2026-05-02T13:44:56.598Z</time></trkpt><trkpt lat="42.0825433" lon="13.54588"><ele>772.0</ele><time>2026-05-02T13:44:57.599Z</time></trkpt><trkpt lat="42.0825533" lon="13.5457567"><ele>771.0000000000001</ele><time>2026-05-02T13:44:58.599Z</time></trkpt><trkpt lat="42.0825583" lon="13.54564"><ele>770.0</ele><time>2026-05-02T13:44:59.599Z</time></trkpt><trkpt lat="42.082555" lon="13.5455233"><ele>770.0</ele><time>2026-05-02T13:45:00.598Z</time></trkpt><trkpt lat="42.0825417" lon="13.5454017"><ele>770.0</ele><time>2026-05-02T13:45:01.599Z</time></trkpt><trkpt lat="42.0825233" lon="13.5452767"><ele>770.0</ele><time>2026-05-02T13:45:02.599Z</time></trkpt><trkpt lat="42.0825067" lon="13.545145"><ele>770.0</ele><time>2026-05-02T13:45:03.599Z</time></trkpt><trkpt lat="42.0824867" lon="13.5450167"><ele>770.0</ele><time>2026-05-02T13:45:04.599Z</time></trkpt><trkpt lat="42.082465" lon="13.5448933"><ele>769.5</ele><time>2026-05-02T13:45:05.598Z</time></trkpt><trkpt lat="42.0824417" lon="13.5447767"><ele>769.0</ele><time>2026-05-02T13:45:06.598Z</time></trkpt><trkpt lat="42.0823967" lon="13.544515"><ele>768.5</ele><time>2026-05-02T13:45:08.598Z</time></trkpt><trkpt lat="42.0823817" lon="13.544375"><ele>768.0</ele><time>2026-05-02T13:45:09.598Z</time></trkpt><trkpt lat="42.0823667" lon="13.5442517"><ele>765.6666666666666</ele><time>2026-05-02T13:45:10.599Z</time></trkpt><trkpt lat="42.082365" lon="13.5441333"><ele>763.3333333333334</ele><time>2026-05-02T13:45:11.598Z</time></trkpt><trkpt lat="42.0823733" lon="13.54403"><ele>761.0</ele><time>2026-05-02T13:45:12.598Z</time></trkpt><trkpt lat="42.082375" lon="13.5439283"><ele>758.6666666666667</ele><time>2026-05-02T13:45:13.598Z</time></trkpt><trkpt lat="42.0823783" lon="13.5438433"><ele>756.3333333333334</ele><time>2026-05-02T13:45:14.599Z</time></trkpt><trkpt lat="42.0823767" lon="13.54372"><ele>754.0</ele><time>2026-05-02T13:45:16.598Z</time></trkpt><trkpt lat="42.0823417" lon="13.5436183"><ele>753.4000000000001</ele><time>2026-05-02T13:45:18.598Z</time></trkpt><trkpt lat="42.082295" lon="13.5435383"><ele>752.8</ele><time>2026-05-02T13:45:20.599Z</time></trkpt><trkpt lat="42.082205" lon="13.5435133"><ele>752.2</ele><time>2026-05-02T13:45:22.598Z</time></trkpt><trkpt lat="42.0820717" lon="13.5435167"><ele>751.5999999999999</ele><time>2026-05-02T13:45:24.598Z</time></trkpt><trkpt lat="42.081995" lon="13.5435117"><ele>751.0</ele><time>2026-05-02T13:45:25.599Z</time></trkpt><trkpt lat="42.0819183" lon="13.5435133"><ele>751.0</ele><time>2026-05-02T13:45:26.598Z</time></trkpt><trkpt lat="42.08185" lon="13.5435117"><ele>751.0</ele><time>2026-05-02T13:45:27.598Z</time></trkpt><trkpt lat="42.081775" lon="13.54351"><ele>751.0</ele><time>2026-05-02T13:45:28.598Z</time></trkpt><trkpt lat="42.081695" lon="13.5435117"><ele>751.0</ele><time>2026-05-02T13:45:29.599Z</time></trkpt><trkpt lat="42.081605" lon="13.5435117"><ele>751.0</ele><time>2026-05-02T13:45:30.598Z</time></trkpt><trkpt lat="42.0815117" lon="13.54351"><ele>751.0</ele><time>2026-05-02T13:45:31.599Z</time></trkpt><trkpt lat="42.081425" lon="13.5434983"><ele>750.3333333333334</ele><time>2026-05-02T13:45:32.599Z</time></trkpt><trkpt lat="42.0813433" lon="13.5434933"><ele>749.6666666666667</ele><time>2026-05-02T13:45:33.599Z</time></trkpt><trkpt lat="42.0812633" lon="13.5434983"><ele>749.0</ele><time>2026-05-02T13:45:34.598Z</time></trkpt><trkpt lat="42.0811967" lon="13.543485"><ele>748.3333333333334</ele><time>2026-05-02T13:45:35.598Z</time></trkpt><trkpt lat="42.081125" lon="13.5434933"><ele>747.6666666666666</ele><time>2026-05-02T13:45:36.599Z</time></trkpt><trkpt lat="42.081045" lon="13.5435017"><ele>747.0</ele><time>2026-05-02T13:45:37.598Z</time></trkpt><trkpt lat="42.0809567" lon="13.5435017"><ele>747.0</ele><time>2026-05-02T13:45:38.598Z</time></trkpt><trkpt lat="42.0808617" lon="13.5435133"><ele>747.0</ele><time>2026-05-02T13:45:39.598Z</time></trkpt><trkpt lat="42.0807667" lon="13.543515"><ele>747.0</ele><time>2026-05-02T13:45:40.598Z</time></trkpt><trkpt lat="42.0806817" lon="13.5435233"><ele>747.0</ele><time>2026-05-02T13:45:41.598Z</time></trkpt><trkpt lat="42.0805967" lon="13.5435333"><ele>747.0</ele><time>2026-05-02T13:45:42.599Z</time></trkpt><trkpt lat="42.0805017" lon="13.5435317"><ele>746.5</ele><time>2026-05-02T13:45:43.599Z</time></trkpt><trkpt lat="42.0804067" lon="13.543535"><ele>746.0</ele><time>2026-05-02T13:45:44.599Z</time></trkpt><trkpt lat="42.080325" lon="13.5435283"><ele>745.5</ele><time>2026-05-02T13:45:45.598Z</time></trkpt><trkpt lat="42.0802533" lon="13.5435283"><ele>745.0</ele><time>2026-05-02T13:45:46.599Z</time></trkpt><trkpt lat="42.080185" lon="13.543525"><ele>744.5</ele><time>2026-05-02T13:45:47.598Z</time></trkpt><trkpt lat="42.0801083" lon="13.543525"><ele>744.0</ele><time>2026-05-02T13:45:48.598Z</time></trkpt><trkpt lat="42.0800283" lon="13.543535"><ele>744.0</ele><time>2026-05-02T13:45:49.598Z</time></trkpt><trkpt lat="42.0799517" lon="13.5435367"><ele>744.0</ele><time>2026-05-02T13:45:50.598Z</time></trkpt><trkpt lat="42.07984" lon="13.5435167"><ele>744.0</ele><time>2026-05-02T13:45:52.598Z</time></trkpt><trkpt lat="42.079755" lon="13.54344"><ele>744.0</ele><time>2026-05-02T13:45:54.598Z</time></trkpt><trkpt lat="42.0797267" lon="13.5433517"><ele>744.0</ele><time>2026-05-02T13:45:55.599Z</time></trkpt><trkpt lat="42.0796967" lon="13.5432467"><ele>744.0</ele><time>2026-05-02T13:45:56.599Z</time></trkpt><trkpt lat="42.0796617" lon="13.5431433"><ele>743.5</ele><time>2026-05-02T13:45:57.599Z</time></trkpt><trkpt lat="42.0796267" lon="13.543045"><ele>743.0</ele><time>2026-05-02T13:45:58.598Z</time></trkpt><trkpt lat="42.0795967" lon="13.5429567"><ele>742.5</ele><time>2026-05-02T13:45:59.598Z</time></trkpt><trkpt lat="42.0795517" lon="13.5428917"><ele>742.0</ele><time>2026-05-02T13:46:00.599Z</time></trkpt><trkpt lat="42.0794783" lon="13.5428583"><ele>741.5</ele><time>2026-05-02T13:46:01.599Z</time></trkpt><trkpt lat="42.0793883" lon="13.5428417"><ele>741.0</ele><time>2026-05-02T13:46:02.599Z</time></trkpt><trkpt lat="42.079295" lon="13.5428167"><ele>741.0</ele><time>2026-05-02T13:46:03.598Z</time></trkpt><trkpt lat="42.0792033" lon="13.5427867"><ele>741.0</ele><time>2026-05-02T13:46:04.599Z</time></trkpt><trkpt lat="42.079115" lon="13.542765"><ele>741.0</ele><time>2026-05-02T13:46:05.599Z</time></trkpt><trkpt lat="42.0790333" lon="13.5427217"><ele>741.0</ele><time>2026-05-02T13:46:06.598Z</time></trkpt><trkpt lat="42.078955" lon="13.5426733"><ele>741.0</ele><time>2026-05-02T13:46:07.599Z</time></trkpt><trkpt lat="42.0788767" lon="13.5426"><ele>740.5</ele><time>2026-05-02T13:46:08.599Z</time></trkpt><trkpt lat="42.0788067" lon="13.5425217"><ele>740.0</ele><time>2026-05-02T13:46:09.598Z</time></trkpt><trkpt lat="42.07874" lon="13.5424367"><ele>739.5</ele><time>2026-05-02T13:46:10.599Z</time></trkpt><trkpt lat="42.07868" lon="13.5423517"><ele>739.0</ele><time>2026-05-02T13:46:11.598Z</time></trkpt><trkpt lat="42.0786217" lon="13.5422717"><ele>738.5</ele><time>2026-05-02T13:46:12.598Z</time></trkpt><trkpt lat="42.0785667" lon="13.542195"><ele>738.0</ele><time>2026-05-02T13:46:13.598Z</time></trkpt><trkpt lat="42.078505" lon="13.5421283"><ele>738.0</ele><time>2026-05-02T13:46:14.599Z</time></trkpt><trkpt lat="42.0784517" lon="13.5420567"><ele>738.0</ele><time>2026-05-02T13:46:15.598Z</time></trkpt><trkpt lat="42.0784017" lon="13.5419833"><ele>738.0</ele><time>2026-05-02T13:46:16.598Z</time></trkpt><trkpt lat="42.0783567" lon="13.5419217"><ele>738.0</ele><time>2026-05-02T13:46:17.598Z</time></trkpt><trkpt lat="42.0783217" lon="13.54178"><ele>738.0</ele><time>2026-05-02T13:46:19.599Z</time></trkpt><trkpt lat="42.07837" lon="13.541645"><ele>738.0</ele><time>2026-05-02T13:46:21.599Z</time></trkpt><trkpt lat="42.0784283" lon="13.5415633"><ele>738.4</ele><time>2026-05-02T13:46:23.598Z</time></trkpt><trkpt lat="42.0784083" lon="13.5414567"><ele>738.8</ele><time>2026-05-02T13:46:26.598Z</time></trkpt><trkpt lat="42.0783317" lon="13.5413333"><ele>739.2</ele><time>2026-05-02T13:46:28.599Z</time></trkpt><trkpt lat="42.0783317" lon="13.5412167"><ele>739.6</ele><time>2026-05-02T13:46:30.598Z</time></trkpt><trkpt lat="42.0783833" lon="13.5411267"><ele>740.0</ele><time>2026-05-02T13:46:32.599Z</time></trkpt><trkpt lat="42.07838" lon="13.541015"><ele>740.3333333333333</ele><time>2026-05-02T13:46:34.598Z</time></trkpt><trkpt lat="42.0783483" lon="13.5409417"><ele>740.6666666666666</ele><time>2026-05-02T13:46:35.599Z</time></trkpt><trkpt lat="42.0783067" lon="13.5408583"><ele>741.0</ele><time>2026-05-02T13:46:36.598Z</time></trkpt><trkpt lat="42.078255" lon="13.5407567"><ele>741.3333333333334</ele><time>2026-05-02T13:46:37.598Z</time></trkpt><trkpt lat="42.0781883" lon="13.5406467"><ele>741.6666666666667</ele><time>2026-05-02T13:46:38.598Z</time></trkpt><trkpt lat="42.07812" lon="13.5405417"><ele>742.0</ele><time>2026-05-02T13:46:39.598Z</time></trkpt><trkpt lat="42.07806" lon="13.5404483"><ele>740.5</ele><time>2026-05-02T13:46:40.599Z</time></trkpt><trkpt lat="42.07801" lon="13.5403717"><ele>739.0</ele><time>2026-05-02T13:46:41.599Z</time></trkpt><trkpt lat="42.07797" lon="13.5402467"><ele>737.5</ele><time>2026-05-02T13:46:43.599Z</time></trkpt><trkpt lat="42.07802" lon="13.5401183"><ele>736.0</ele><time>2026-05-02T13:46:45.598Z</time></trkpt><trkpt lat="42.0780717" lon="13.5400533"><ele>734.5</ele><time>2026-05-02T13:46:46.598Z</time></trkpt><trkpt lat="42.0781367" lon="13.54"><ele>733.0</ele><time>2026-05-02T13:46:47.599Z</time></trkpt><trkpt lat="42.0781983" lon="13.539955"><ele>734.6666666666667</ele><time>2026-05-02T13:46:48.598Z</time></trkpt><trkpt lat="42.078295" lon="13.5399017"><ele>736.3333333333334</ele><time>2026-05-02T13:46:50.598Z</time></trkpt><trkpt lat="42.07836" lon="13.53993"><ele>738.0</ele><time>2026-05-02T13:46:52.597Z</time></trkpt><trkpt lat="42.0784233" lon="13.5399783"><ele>739.6666666666666</ele><time>2026-05-02T13:46:54.598Z</time></trkpt><trkpt lat="42.0785283" lon="13.53999"><ele>741.3333333333333</ele><time>2026-05-02T13:46:56.597Z</time></trkpt><trkpt lat="42.0785933" lon="13.53999"><ele>743.0</ele><time>2026-05-02T13:46:57.597Z</time></trkpt><trkpt lat="42.0786717" lon="13.5399867"><ele>743.0</ele><time>2026-05-02T13:46:58.598Z</time></trkpt><trkpt lat="42.0787483" lon="13.5399867"><ele>743.0</ele><time>2026-05-02T13:46:59.597Z</time></trkpt><trkpt lat="42.0788217" lon="13.5399867"><ele>743.0</ele><time>2026-05-02T13:47:00.598Z</time></trkpt><trkpt lat="42.0788883" lon="13.5399833"><ele>743.0</ele><time>2026-05-02T13:47:01.597Z</time></trkpt><trkpt lat="42.0789983" lon="13.53998"><ele>743.0</ele><time>2026-05-02T13:47:03.598Z</time></trkpt><trkpt lat="42.07908" lon="13.5399917"><ele>743.0</ele><time>2026-05-02T13:47:05.598Z</time></trkpt><trkpt lat="42.07913" lon="13.54012"><ele>743.0</ele><time>2026-05-02T13:47:07.598Z</time></trkpt><trkpt lat="42.0791817" lon="13.5402833"><ele>743.0</ele><time>2026-05-02T13:47:09.597Z</time></trkpt><trkpt lat="42.0792633" lon="13.5403883"><ele>743.0</ele><time>2026-05-02T13:47:11.597Z</time></trkpt><trkpt lat="42.0793783" lon="13.5403633"><ele>743.0</ele><time>2026-05-02T13:47:13.597Z</time></trkpt><trkpt lat="42.0794883" lon="13.5403333"><ele>743.3333333333333</ele><time>2026-05-02T13:47:15.597Z</time></trkpt><trkpt lat="42.0795667" lon="13.5402917"><ele>743.6666666666666</ele><time>2026-05-02T13:47:20.598Z</time></trkpt><trkpt lat="42.0795883" lon="13.5401633"><ele>744.0</ele><time>2026-05-02T13:47:23.598Z</time></trkpt><trkpt lat="42.0795783" lon="13.5400783"><ele>744.3333333333334</ele><time>2026-05-02T13:47:24.598Z</time></trkpt><trkpt lat="42.0795617" lon="13.5399717"><ele>744.6666666666667</ele><time>2026-05-02T13:47:26.598Z</time></trkpt><trkpt lat="42.07955" lon="13.54009"><ele>745.0</ele><time>2026-05-02T13:47:40.597Z</time></trkpt><trkpt lat="42.0795733" lon="13.5401717"><ele>745.0</ele><time>2026-05-02T13:47:41.597Z</time></trkpt><trkpt lat="42.079595" lon="13.5402833"><ele>745.0</ele><time>2026-05-02T13:47:42.598Z</time></trkpt><trkpt lat="42.0796217" lon="13.5404017"><ele>745.0</ele><time>2026-05-02T13:47:43.598Z</time></trkpt><trkpt lat="42.0796467" lon="13.5405283"><ele>745.0</ele><time>2026-05-02T13:47:44.597Z</time></trkpt><trkpt lat="42.0796717" lon="13.5406617"><ele>745.0</ele><time>2026-05-02T13:47:45.597Z</time></trkpt><trkpt lat="42.079715" lon="13.5407767"><ele>744.8</ele><time>2026-05-02T13:47:46.598Z</time></trkpt><trkpt lat="42.0797767" lon="13.54088"><ele>744.6</ele><time>2026-05-02T13:47:47.598Z</time></trkpt><trkpt lat="42.079855" lon="13.5409683"><ele>744.4000000000001</ele><time>2026-05-02T13:47:48.598Z</time></trkpt><trkpt lat="42.0799517" lon="13.5410267"><ele>744.2</ele><time>2026-05-02T13:47:49.597Z</time></trkpt><trkpt lat="42.080055" lon="13.541055"><ele>744.0</ele><time>2026-05-02T13:47:50.597Z</time></trkpt><trkpt lat="42.0801583" lon="13.5410733"><ele>744.0</ele><time>2026-05-02T13:47:51.598Z</time></trkpt><trkpt lat="42.0802633" lon="13.5410767"><ele>744.0</ele><time>2026-05-02T13:47:52.597Z</time></trkpt><trkpt lat="42.08038" lon="13.541065"><ele>744.0</ele><time>2026-05-02T13:47:53.598Z</time></trkpt><trkpt lat="42.0805033" lon="13.5410583"><ele>744.0</ele><time>2026-05-02T13:47:54.597Z</time></trkpt><trkpt lat="42.0806283" lon="13.5410583"><ele>744.0</ele><time>2026-05-02T13:47:55.598Z</time></trkpt><trkpt lat="42.08076" lon="13.5410517"><ele>744.0</ele><time>2026-05-02T13:47:56.598Z</time></trkpt><trkpt lat="42.080895" lon="13.54106"><ele>744.0</ele><time>2026-05-02T13:47:57.597Z</time></trkpt><trkpt lat="42.0810283" lon="13.541065"><ele>744.0</ele><time>2026-05-02T13:47:58.598Z</time></trkpt><trkpt lat="42.0811633" lon="13.5410767"><ele>744.25</ele><time>2026-05-02T13:47:59.598Z</time></trkpt><trkpt lat="42.08129" lon="13.541095"><ele>744.5</ele><time>2026-05-02T13:48:00.597Z</time></trkpt><trkpt lat="42.0814133" lon="13.5411133"><ele>744.75</ele><time>2026-05-02T13:48:01.597Z</time></trkpt><trkpt lat="42.081525" lon="13.5411417"><ele>745.0</ele><time>2026-05-02T13:48:02.598Z</time></trkpt><trkpt lat="42.0816283" lon="13.5411733"><ele>745.1666666666667</ele><time>2026-05-02T13:48:03.598Z</time></trkpt><trkpt lat="42.081715" lon="13.5412117"><ele>745.3333333333334</ele><time>2026-05-02T13:48:04.598Z</time></trkpt><trkpt lat="42.0817933" lon="13.5412483"><ele>745.5</ele><time>2026-05-02T13:48:05.598Z</time></trkpt><trkpt lat="42.0818667" lon="13.5412967"><ele>745.6666666666666</ele><time>2026-05-02T13:48:06.597Z</time></trkpt><trkpt lat="42.0819217" lon="13.5413683"><ele>745.8333333333333</ele><time>2026-05-02T13:48:07.598Z</time></trkpt><trkpt lat="42.08197" lon="13.5414283"><ele>746.0</ele><time>2026-05-02T13:48:08.597Z</time></trkpt><trkpt lat="42.082035" lon="13.54151"><ele>746.0</ele><time>2026-05-02T13:48:10.597Z</time></trkpt><trkpt lat="42.08212" lon="13.5415133"><ele>746.0</ele><time>2026-05-02T13:48:13.598Z</time></trkpt><trkpt lat="42.0821717" lon="13.5414167"><ele>746.0</ele><time>2026-05-02T13:48:23.598Z</time></trkpt><trkpt lat="42.0822333" lon="13.54137"><ele>746.0</ele><time>2026-05-02T13:49:27.597Z</time></trkpt><trkpt lat="42.0822833" lon="13.541515"><ele>746.0</ele><time>2026-05-02T13:55:06.595Z</time></trkpt><trkpt lat="42.082335" lon="13.5414067"><ele>746.0</ele><time>2026-05-02T14:01:11.594Z</time></trkpt><trkpt lat="42.0823283" lon="13.5413083"><ele>746.0</ele><time>2026-05-02T14:01:14.593Z</time></trkpt><trkpt lat="42.08226" lon="13.5413067"><ele>746.0</ele><time>2026-05-02T14:01:16.593Z</time></trkpt><trkpt lat="42.08219" lon="13.5413667"><ele>746.0</ele><time>2026-05-02T14:01:18.594Z</time></trkpt><trkpt lat="42.0821333" lon="13.54143"><ele>746.0</ele><time>2026-05-02T14:01:22.593Z</time></trkpt><trkpt lat="42.0821167" lon="13.5415533"><ele>746.0</ele><time>2026-05-02T14:01:29.593Z</time></trkpt><trkpt lat="42.0821383" lon="13.541655"><ele>746.0</ele><time>2026-05-02T14:01:30.594Z</time></trkpt><trkpt lat="42.0821867" lon="13.5417667"><ele>746.0</ele><time>2026-05-02T14:01:31.594Z</time></trkpt><trkpt lat="42.08225" lon="13.5418967"><ele>746.0</ele><time>2026-05-02T14:01:32.593Z</time></trkpt><trkpt lat="42.0823217" lon="13.5420517"><ele>746.0</ele><time>2026-05-02T14:01:33.594Z</time></trkpt><trkpt lat="42.0823783" lon="13.5422067"><ele>746.1999999999999</ele><time>2026-05-02T14:01:34.593Z</time></trkpt><trkpt lat="42.08243" lon="13.5423283"><ele>746.4</ele><time>2026-05-02T14:01:35.593Z</time></trkpt><trkpt lat="42.0824767" lon="13.5424267"><ele>746.6</ele><time>2026-05-02T14:01:36.593Z</time></trkpt><trkpt lat="42.08253" lon="13.5425367"><ele>746.8</ele><time>2026-05-02T14:01:38.593Z</time></trkpt><trkpt lat="42.082605" lon="13.54265"><ele>747.0</ele><time>2026-05-02T14:01:54.594Z</time></trkpt><trkpt lat="42.0827167" lon="13.5426117"><ele>748.0</ele><time>2026-05-02T14:01:56.594Z</time></trkpt><trkpt lat="42.08277" lon="13.5425233"><ele>749.0</ele><time>2026-05-02T14:01:57.594Z</time></trkpt><trkpt lat="42.08282" lon="13.542415"><ele>750.0</ele><time>2026-05-02T14:01:58.593Z</time></trkpt><trkpt lat="42.0828583" lon="13.5423167"><ele>751.0</ele><time>2026-05-02T14:01:59.594Z</time></trkpt><trkpt lat="42.0828933" lon="13.5422267"><ele>752.0</ele><time>2026-05-02T14:02:00.594Z</time></trkpt><trkpt lat="42.0829233" lon="13.54214"><ele>753.0</ele><time>2026-05-02T14:02:01.593Z</time></trkpt><trkpt lat="42.0829683" lon="13.5420517"><ele>753.0</ele><time>2026-05-02T14:02:03.594Z</time></trkpt><trkpt lat="42.0828967" lon="13.542115"><ele>753.0</ele><time>2026-05-02T14:02:17.593Z</time></trkpt><trkpt lat="42.082865" lon="13.5421967"><ele>753.0</ele><time>2026-05-02T14:02:18.593Z</time></trkpt><trkpt lat="42.0828383" lon="13.542285"><ele>753.0</ele><time>2026-05-02T14:02:19.594Z</time></trkpt><trkpt lat="42.0827983" lon="13.542385"><ele>753.0</ele><time>2026-05-02T14:02:20.593Z</time></trkpt><trkpt lat="42.0827567" lon="13.5424867"><ele>753.0</ele><time>2026-05-02T14:02:21.593Z</time></trkpt><trkpt lat="42.082705" lon="13.5425683"><ele>753.0</ele><time>2026-05-02T14:02:22.594Z</time></trkpt><trkpt lat="42.0826417" lon="13.5426167"><ele>753.0</ele><time>2026-05-02T14:02:23.593Z</time></trkpt><trkpt lat="42.08257" lon="13.5426617"><ele>753.0</ele><time>2026-05-02T14:02:24.594Z</time></trkpt><trkpt lat="42.0824983" lon="13.5427117"><ele>753.0</ele><time>2026-05-02T14:02:25.594Z</time></trkpt><trkpt lat="42.0824217" lon="13.5427833"><ele>753.0</ele><time>2026-05-02T14:02:26.593Z</time></trkpt><trkpt lat="42.0823633" lon="13.5428583"><ele>753.0</ele><time>2026-05-02T14:02:27.594Z</time></trkpt><trkpt lat="42.0823283" lon="13.5429417"><ele>752.6666666666666</ele><time>2026-05-02T14:02:28.593Z</time></trkpt><trkpt lat="42.0823133" lon="13.5430417"><ele>752.3333333333334</ele><time>2026-05-02T14:02:29.593Z</time></trkpt><trkpt lat="42.0823067" lon="13.5431383"><ele>752.0</ele><time>2026-05-02T14:02:30.594Z</time></trkpt><trkpt lat="42.08231" lon="13.543225"><ele>751.6666666666667</ele><time>2026-05-02T14:02:31.594Z</time></trkpt><trkpt lat="42.0823267" lon="13.5433383"><ele>751.3333333333334</ele><time>2026-05-02T14:02:33.594Z</time></trkpt><trkpt lat="42.0823833" lon="13.5433867"><ele>751.0</ele><time>2026-05-02T14:02:35.594Z</time></trkpt><trkpt lat="42.08245" lon="13.5432817"><ele>752.6666666666667</ele><time>2026-05-02T14:02:37.593Z</time></trkpt><trkpt lat="42.082495" lon="13.543185"><ele>754.3333333333334</ele><time>2026-05-02T14:02:38.594Z</time></trkpt><trkpt lat="42.0825583" lon="13.543085"><ele>756.0</ele><time>2026-05-02T14:02:39.593Z</time></trkpt><trkpt lat="42.082625" lon="13.5430067"><ele>757.6666666666666</ele><time>2026-05-02T14:02:40.593Z</time></trkpt><trkpt lat="42.0826833" lon="13.5429667"><ele>759.3333333333333</ele><time>2026-05-02T14:02:41.594Z</time></trkpt><trkpt lat="42.0827467" lon="13.542965"><ele>761.0</ele><time>2026-05-02T14:02:42.594Z</time></trkpt><trkpt lat="42.0828267" lon="13.5429733"><ele>761.0</ele><time>2026-05-02T14:02:43.594Z</time></trkpt><trkpt lat="42.0829267" lon="13.5429917"><ele>761.0</ele><time>2026-05-02T14:02:44.593Z</time></trkpt><trkpt lat="42.0830517" lon="13.5430217"><ele>761.0</ele><time>2026-05-02T14:02:45.594Z</time></trkpt><trkpt lat="42.0831817" lon="13.54304"><ele>761.0</ele><time>2026-05-02T14:02:46.592Z</time></trkpt><trkpt lat="42.0833217" lon="13.543075"><ele>765.0</ele><time>2026-05-02T14:02:47.593Z</time></trkpt><trkpt lat="42.083445" lon="13.5430833"><ele>769.0</ele><time>2026-05-02T14:02:48.592Z</time></trkpt><trkpt lat="42.0835717" lon="13.54308"><ele>773.0</ele><time>2026-05-02T14:02:49.592Z</time></trkpt><trkpt lat="42.0837" lon="13.5430633"><ele>777.0</ele><time>2026-05-02T14:02:50.592Z</time></trkpt><trkpt lat="42.0838383" lon="13.543045"><ele>777.0</ele><time>2026-05-02T14:02:51.593Z</time></trkpt><trkpt lat="42.0839717" lon="13.5430083"><ele>777.0</ele><time>2026-05-02T14:02:52.593Z</time></trkpt><trkpt lat="42.0840917" lon="13.54296"><ele>777.0</ele><time>2026-05-02T14:02:53.592Z</time></trkpt><trkpt lat="42.0842117" lon="13.54293"><ele>777.0</ele><time>2026-05-02T14:02:54.592Z</time></trkpt><trkpt lat="42.084325" lon="13.54292"><ele>779.25</ele><time>2026-05-02T14:02:55.592Z</time></trkpt><trkpt lat="42.0844433" lon="13.542925"><ele>781.5</ele><time>2026-05-02T14:02:56.592Z</time></trkpt><trkpt lat="42.0845617" lon="13.5429533"><ele>783.75</ele><time>2026-05-02T14:02:57.592Z</time></trkpt><trkpt lat="42.0846783" lon="13.5429767"><ele>786.0</ele><time>2026-05-02T14:02:58.592Z</time></trkpt><trkpt lat="42.08479" lon="13.5430033"><ele>786.0</ele><time>2026-05-02T14:02:59.592Z</time></trkpt><trkpt lat="42.0848917" lon="13.543015"><ele>786.0</ele><time>2026-05-02T14:03:00.593Z</time></trkpt><trkpt lat="42.084995" lon="13.5430233"><ele>786.0</ele><time>2026-05-02T14:03:01.593Z</time></trkpt><trkpt lat="42.0851083" lon="13.54304"><ele>786.0</ele><time>2026-05-02T14:03:02.592Z</time></trkpt><trkpt lat="42.085215" lon="13.5430517"><ele>786.0</ele><time>2026-05-02T14:03:03.592Z</time></trkpt><trkpt lat="42.085315" lon="13.5430817"><ele>787.8</ele><time>2026-05-02T14:03:04.592Z</time></trkpt><trkpt lat="42.0854083" lon="13.5431233"><ele>789.5999999999999</ele><time>2026-05-02T14:03:05.592Z</time></trkpt><trkpt lat="42.0855033" lon="13.5431767"><ele>791.4</ele><time>2026-05-02T14:03:06.592Z</time></trkpt><trkpt lat="42.08559" lon="13.5432417"><ele>793.2</ele><time>2026-05-02T14:03:07.592Z</time></trkpt><trkpt lat="42.0856733" lon="13.5432917"><ele>795.0</ele><time>2026-05-02T14:03:08.592Z</time></trkpt><trkpt lat="42.085745" lon="13.5433217"><ele>794.8333333333334</ele><time>2026-05-02T14:03:09.593Z</time></trkpt><trkpt lat="42.0858117" lon="13.5433483"><ele>794.6666666666667</ele><time>2026-05-02T14:03:10.592Z</time></trkpt><trkpt lat="42.0858867" lon="13.5433833"><ele>794.5</ele><time>2026-05-02T14:03:11.593Z</time></trkpt><trkpt lat="42.085965" lon="13.543425"><ele>794.3333333333334</ele><time>2026-05-02T14:03:12.593Z</time></trkpt><trkpt lat="42.08604" lon="13.54345"><ele>794.1666666666667</ele><time>2026-05-02T14:03:13.592Z</time></trkpt><trkpt lat="42.0861283" lon="13.54347"><ele>794.0</ele><time>2026-05-02T14:03:14.592Z</time></trkpt><trkpt lat="42.0862117" lon="13.54349"><ele>794.0000000000001</ele><time>2026-05-02T14:03:15.593Z</time></trkpt><trkpt lat="42.0862933" lon="13.5435033"><ele>794.0</ele><time>2026-05-02T14:03:16.592Z</time></trkpt><trkpt lat="42.0863717" lon="13.5435183"><ele>794.0</ele><time>2026-05-02T14:03:17.593Z</time></trkpt><trkpt lat="42.0864467" lon="13.543535"><ele>794.0</ele><time>2026-05-02T14:03:18.592Z</time></trkpt><trkpt lat="42.0865167" lon="13.5435517"><ele>794.0000000000001</ele><time>2026-05-02T14:03:19.593Z</time></trkpt><trkpt lat="42.08659" lon="13.543575"><ele>794.0</ele><time>2026-05-02T14:03:20.593Z</time></trkpt><trkpt lat="42.0866683" lon="13.5435817"><ele>793.6</ele><time>2026-05-02T14:03:21.593Z</time></trkpt><trkpt lat="42.0867483" lon="13.54358"><ele>793.2</ele><time>2026-05-02T14:03:22.592Z</time></trkpt><trkpt lat="42.0868217" lon="13.54357"><ele>792.8000000000001</ele><time>2026-05-02T14:03:23.592Z</time></trkpt><trkpt lat="42.0868917" lon="13.5435683"><ele>792.4000000000001</ele><time>2026-05-02T14:03:24.592Z</time></trkpt><trkpt lat="42.0870017" lon="13.54351"><ele>792.0</ele><time>2026-05-02T14:03:26.592Z</time></trkpt><trkpt lat="42.0871117" lon="13.5434283"><ele>792.0</ele><time>2026-05-02T14:03:28.593Z</time></trkpt><trkpt lat="42.0871617" lon="13.543375"><ele>792.0</ele><time>2026-05-02T14:03:29.592Z</time></trkpt><trkpt lat="42.0872133" lon="13.5433233"><ele>792.0</ele><time>2026-05-02T14:03:30.593Z</time></trkpt><trkpt lat="42.0872933" lon="13.54324"><ele>792.0</ele><time>2026-05-02T14:03:32.592Z</time></trkpt><trkpt lat="42.08734" lon="13.54318"><ele>792.0</ele><time>2026-05-02T14:03:35.593Z</time></trkpt><trkpt lat="42.087375" lon="13.5431083"><ele>792.0</ele><time>2026-05-02T14:03:40.593Z</time></trkpt><trkpt lat="42.0874883" lon="13.542935"><ele>792.0</ele><time>2026-05-02T14:03:43.592Z</time></trkpt><trkpt lat="42.087535" lon="13.5428567"><ele>792.0</ele><time>2026-05-02T14:03:45.593Z</time></trkpt><trkpt lat="42.0876067" lon="13.5427333"><ele>792.0</ele><time>2026-05-02T14:03:59.593Z</time></trkpt><trkpt lat="42.0876733" lon="13.5427083"><ele>792.0</ele><time>2026-05-02T14:04:03.592Z</time></trkpt><trkpt lat="42.08773" lon="13.54257"><ele>792.0</ele><time>2026-05-02T14:04:05.593Z</time></trkpt><trkpt lat="42.0877883" lon="13.5424483"><ele>792.0</ele><time>2026-05-02T14:04:06.593Z</time></trkpt><trkpt lat="42.0878717" lon="13.5423383"><ele>792.0</ele><time>2026-05-02T14:04:07.592Z</time></trkpt><trkpt lat="42.0879767" lon="13.54221"><ele>792.0</ele><time>2026-05-02T14:04:08.593Z</time></trkpt><trkpt lat="42.0880917" lon="13.5421167"><ele>792.0</ele><time>2026-05-02T14:04:09.593Z</time></trkpt><trkpt lat="42.088205" lon="13.5420433"><ele>792.8</ele><time>2026-05-02T14:04:10.593Z</time></trkpt><trkpt lat="42.0883083" lon="13.5419733"><ele>793.6</ele><time>2026-05-02T14:04:11.593Z</time></trkpt><trkpt lat="42.08841" lon="13.5419167"><ele>794.4</ele><time>2026-05-02T14:04:12.593Z</time></trkpt><trkpt lat="42.0885" lon="13.5418617"><ele>795.1999999999999</ele><time>2026-05-02T14:04:13.592Z</time></trkpt><trkpt lat="42.0885783" lon="13.5418"><ele>796.0</ele><time>2026-05-02T14:04:14.592Z</time></trkpt><trkpt lat="42.08864" lon="13.5417233"><ele>796.0</ele><time>2026-05-02T14:04:15.593Z</time></trkpt><trkpt lat="42.0886833" lon="13.5416333"><ele>796.0</ele><time>2026-05-02T14:04:16.593Z</time></trkpt><trkpt lat="42.08869" lon="13.5415167"><ele>796.0</ele><time>2026-05-02T14:04:17.592Z</time></trkpt><trkpt lat="42.0886717" lon="13.5413783"><ele>796.0</ele><time>2026-05-02T14:04:18.592Z</time></trkpt><trkpt lat="42.0886417" lon="13.5412433"><ele>796.0</ele><time>2026-05-02T14:04:19.593Z</time></trkpt><trkpt lat="42.0885917" lon="13.5411083"><ele>795.8</ele><time>2026-05-02T14:04:20.593Z</time></trkpt><trkpt lat="42.088535" lon="13.54099"><ele>795.5999999999999</ele><time>2026-05-02T14:04:21.593Z</time></trkpt><trkpt lat="42.0884683" lon="13.54088"><ele>795.4</ele><time>2026-05-02T14:04:22.592Z</time></trkpt><trkpt lat="42.0884" lon="13.5407817"><ele>795.2</ele><time>2026-05-02T14:04:23.592Z</time></trkpt><trkpt lat="42.0883533" lon="13.540675"><ele>795.0</ele><time>2026-05-02T14:04:24.592Z</time></trkpt><trkpt lat="42.0883183" lon="13.5405533"><ele>795.0</ele><time>2026-05-02T14:04:25.592Z</time></trkpt><trkpt lat="42.0883" lon="13.540415"><ele>795.0</ele><time>2026-05-02T14:04:26.593Z</time></trkpt><trkpt lat="42.0882967" lon="13.5402633"><ele>795.0</ele><time>2026-05-02T14:04:27.593Z</time></trkpt><trkpt lat="42.0882933" lon="13.5401117"><ele>795.0</ele><time>2026-05-02T14:04:28.593Z</time></trkpt><trkpt lat="42.0883" lon="13.5399633"><ele>795.0</ele><time>2026-05-02T14:04:29.592Z</time></trkpt><trkpt lat="42.08831" lon="13.539825"><ele>794.8333333333334</ele><time>2026-05-02T14:04:30.592Z</time></trkpt><trkpt lat="42.08832" lon="13.5397033"><ele>794.6666666666667</ele><time>2026-05-02T14:04:31.593Z</time></trkpt><trkpt lat="42.0883383" lon="13.5395883"><ele>794.5</ele><time>2026-05-02T14:04:32.593Z</time></trkpt><trkpt lat="42.0883533" lon="13.5394783"><ele>794.3333333333334</ele><time>2026-05-02T14:04:33.592Z</time></trkpt><trkpt lat="42.0883683" lon="13.5393633"><ele>794.1666666666667</ele><time>2026-05-02T14:04:34.592Z</time></trkpt><trkpt lat="42.08838" lon="13.5392383"><ele>794.0</ele><time>2026-05-02T14:04:35.592Z</time></trkpt><trkpt lat="42.0883867" lon="13.5391067"><ele>794.0</ele><time>2026-05-02T14:04:36.593Z</time></trkpt><trkpt lat="42.088385" lon="13.53899"><ele>794.0</ele><time>2026-05-02T14:04:37.592Z</time></trkpt><trkpt lat="42.0883717" lon="13.538885"><ele>794.0</ele><time>2026-05-02T14:04:38.592Z</time></trkpt><trkpt lat="42.0883617" lon="13.5387567"><ele>794.0</ele><time>2026-05-02T14:04:40.593Z</time></trkpt><trkpt lat="42.0883833" lon="13.5386417"><ele>794.0</ele><time>2026-05-02T14:04:48.592Z</time></trkpt><trkpt lat="42.0885267" lon="13.53856"><ele>794.0000000000001</ele><time>2026-05-02T14:04:51.593Z</time></trkpt><trkpt lat="42.0885933" lon="13.53853"><ele>794.0</ele><time>2026-05-02T14:04:52.593Z</time></trkpt><trkpt lat="42.0886733" lon="13.5384967"><ele>794.0</ele><time>2026-05-02T14:04:53.593Z</time></trkpt><trkpt lat="42.08875" lon="13.5384567"><ele>794.0</ele><time>2026-05-02T14:04:54.592Z</time></trkpt><trkpt lat="42.0888167" lon="13.5384033"><ele>794.0000000000001</ele><time>2026-05-02T14:04:55.592Z</time></trkpt><trkpt lat="42.0889183" lon="13.5383033"><ele>794.0</ele><time>2026-05-02T14:04:57.592Z</time></trkpt><trkpt lat="42.08896" lon="13.538235"><ele>794.0000000000001</ele><time>2026-05-02T14:04:58.593Z</time></trkpt><trkpt lat="42.089" lon="13.5381517"><ele>794.0</ele><time>2026-05-02T14:04:59.593Z</time></trkpt><trkpt lat="42.089045" lon="13.5380683"><ele>794.0</ele><time>2026-05-02T14:05:00.592Z</time></trkpt><trkpt lat="42.0890917" lon="13.53797"><ele>794.0</ele><time>2026-05-02T14:05:01.592Z</time></trkpt><trkpt lat="42.0891433" lon="13.5378667"><ele>794.0000000000001</ele><time>2026-05-02T14:05:02.592Z</time></trkpt><trkpt lat="42.0892067" lon="13.537765"><ele>794.0</ele><time>2026-05-02T14:05:03.592Z</time></trkpt><trkpt lat="42.0892717" lon="13.5376633"><ele>795.5000000000001</ele><time>2026-05-02T14:05:04.593Z</time></trkpt><trkpt lat="42.0893433" lon="13.5375767"><ele>797.0</ele><time>2026-05-02T14:05:05.593Z</time></trkpt><trkpt lat="42.0894083" lon="13.5375083"><ele>798.5</ele><time>2026-05-02T14:05:06.593Z</time></trkpt><trkpt lat="42.0894717" lon="13.5374567"><ele>800.0</ele><time>2026-05-02T14:05:07.592Z</time></trkpt><trkpt lat="42.0895283" lon="13.5373817"><ele>801.5000000000001</ele><time>2026-05-02T14:05:08.593Z</time></trkpt><trkpt lat="42.0895917" lon="13.5372967"><ele>803.0</ele><time>2026-05-02T14:05:09.592Z</time></trkpt><trkpt lat="42.0896617" lon="13.5372167"><ele>803.0000000000001</ele><time>2026-05-02T14:05:10.593Z</time></trkpt><trkpt lat="42.0897317" lon="13.537135"><ele>803.0</ele><time>2026-05-02T14:05:11.592Z</time></trkpt><trkpt lat="42.089795" lon="13.53706"><ele>803.0</ele><time>2026-05-02T14:05:12.593Z</time></trkpt><trkpt lat="42.08985" lon="13.5369867"><ele>803.0</ele><time>2026-05-02T14:05:13.592Z</time></trkpt><trkpt lat="42.089905" lon="13.53692"><ele>803.0000000000001</ele><time>2026-05-02T14:05:14.593Z</time></trkpt><trkpt lat="42.0899717" lon="13.5368567"><ele>803.0</ele><time>2026-05-02T14:05:15.593Z</time></trkpt><trkpt lat="42.0900267" lon="13.5367717"><ele>803.8333333333334</ele><time>2026-05-02T14:05:16.592Z</time></trkpt><trkpt lat="42.0900917" lon="13.5366867"><ele>804.6666666666667</ele><time>2026-05-02T14:05:17.593Z</time></trkpt><trkpt lat="42.0901533" lon="13.5366267"><ele>805.5</ele><time>2026-05-02T14:05:18.592Z</time></trkpt><trkpt lat="42.090205" lon="13.5365683"><ele>806.3333333333333</ele><time>2026-05-02T14:05:19.593Z</time></trkpt><trkpt lat="42.0902933" lon="13.536465"><ele>807.1666666666666</ele><time>2026-05-02T14:05:21.592Z</time></trkpt><trkpt lat="42.0903283" lon="13.5363517"><ele>808.0</ele><time>2026-05-02T14:05:23.592Z</time></trkpt><trkpt lat="42.090295" lon="13.5361533"><ele>808.0</ele><time>2026-05-02T14:05:25.593Z</time></trkpt><trkpt lat="42.09026" lon="13.5360217"><ele>808.0</ele><time>2026-05-02T14:05:26.593Z</time></trkpt><trkpt lat="42.0902317" lon="13.5358883"><ele>808.0</ele><time>2026-05-02T14:05:27.592Z</time></trkpt><trkpt lat="42.0902117" lon="13.5357667"><ele>808.0</ele><time>2026-05-02T14:05:28.593Z</time></trkpt><trkpt lat="42.090195" lon="13.53566"><ele>808.0</ele><time>2026-05-02T14:05:29.593Z</time></trkpt><trkpt lat="42.0901817" lon="13.53551"><ele>808.0</ele><time>2026-05-02T14:05:31.592Z</time></trkpt><trkpt lat="42.0901817" lon="13.5354083"><ele>808.0</ele><time>2026-05-02T14:05:33.593Z</time></trkpt><trkpt lat="42.0902" lon="13.5353017"><ele>808.0</ele><time>2026-05-02T14:05:35.592Z</time></trkpt><trkpt lat="42.0902417" lon="13.535055"><ele>808.0</ele><time>2026-05-02T14:05:38.593Z</time></trkpt><trkpt lat="42.0902567" lon="13.5349217"><ele>808.0</ele><time>2026-05-02T14:05:39.593Z</time></trkpt><trkpt lat="42.09027" lon="13.534785"><ele>807.9999999999999</ele><time>2026-05-02T14:05:40.592Z</time></trkpt><trkpt lat="42.0902917" lon="13.53467"><ele>808.0</ele><time>2026-05-02T14:05:41.592Z</time></trkpt><trkpt lat="42.090315" lon="13.534575"><ele>808.0</ele><time>2026-05-02T14:05:42.592Z</time></trkpt><trkpt lat="42.0903533" lon="13.5344883"><ele>808.0</ele><time>2026-05-02T14:05:43.591Z</time></trkpt><trkpt lat="42.0904083" lon="13.5344017"><ele>807.9999999999999</ele><time>2026-05-02T14:05:44.592Z</time></trkpt><trkpt lat="42.0904783" lon="13.5342967"><ele>808.0</ele><time>2026-05-02T14:05:45.592Z</time></trkpt><trkpt lat="42.0905533" lon="13.53419"><ele>808.0</ele><time>2026-05-02T14:05:46.591Z</time></trkpt><trkpt lat="42.0906267" lon="13.534085"><ele>808.0</ele><time>2026-05-02T14:05:47.592Z</time></trkpt><trkpt lat="42.0906967" lon="13.53396"><ele>808.0</ele><time>2026-05-02T14:05:48.591Z</time></trkpt><trkpt lat="42.0907683" lon="13.53382"><ele>808.0</ele><time>2026-05-02T14:05:49.591Z</time></trkpt><trkpt lat="42.09084" lon="13.5336867"><ele>809.2</ele><time>2026-05-02T14:05:50.591Z</time></trkpt><trkpt lat="42.090905" lon="13.5335667"><ele>810.4</ele><time>2026-05-02T14:05:51.591Z</time></trkpt><trkpt lat="42.0909683" lon="13.5334433"><ele>811.6</ele><time>2026-05-02T14:05:52.592Z</time></trkpt><trkpt lat="42.0910267" lon="13.5333217"><ele>812.8000000000001</ele><time>2026-05-02T14:05:53.592Z</time></trkpt><trkpt lat="42.0910767" lon="13.53321"><ele>814.0</ele><time>2026-05-02T14:05:54.591Z</time></trkpt><trkpt lat="42.0911233" lon="13.5331017"><ele>814.0</ele><time>2026-05-02T14:05:55.592Z</time></trkpt><trkpt lat="42.09117" lon="13.5330017"><ele>814.0</ele><time>2026-05-02T14:05:56.592Z</time></trkpt><trkpt lat="42.091225" lon="13.5328983"><ele>814.0</ele><time>2026-05-02T14:05:57.591Z</time></trkpt><trkpt lat="42.0912867" lon="13.5328"><ele>814.0</ele><time>2026-05-02T14:05:58.591Z</time></trkpt><trkpt lat="42.0913533" lon="13.53271"><ele>814.0</ele><time>2026-05-02T14:05:59.592Z</time></trkpt><trkpt lat="42.0914217" lon="13.532625"><ele>814.25</ele><time>2026-05-02T14:06:00.591Z</time></trkpt><trkpt lat="42.0914933" lon="13.5325333"><ele>814.5</ele><time>2026-05-02T14:06:01.591Z</time></trkpt><trkpt lat="42.0915767" lon="13.532435"><ele>814.75</ele><time>2026-05-02T14:06:02.592Z</time></trkpt><trkpt lat="42.091665" lon="13.532325"><ele>815.0</ele><time>2026-05-02T14:06:03.592Z</time></trkpt><trkpt lat="42.0917517" lon="13.5321967"><ele>816.25</ele><time>2026-05-02T14:06:04.592Z</time></trkpt><trkpt lat="42.09182" lon="13.5320583"><ele>817.5</ele><time>2026-05-02T14:06:05.592Z</time></trkpt><trkpt lat="42.0918767" lon="13.5319283"><ele>818.75</ele><time>2026-05-02T14:06:06.592Z</time></trkpt><trkpt lat="42.0919167" lon="13.5317783"><ele>820.0</ele><time>2026-05-02T14:06:07.592Z</time></trkpt><trkpt lat="42.09196" lon="13.5316083"><ele>820.0</ele><time>2026-05-02T14:06:08.592Z</time></trkpt><trkpt lat="42.0919983" lon="13.531425"><ele>820.0</ele><time>2026-05-02T14:06:09.592Z</time></trkpt><trkpt lat="42.09204" lon="13.53122"><ele>820.0</ele><time>2026-05-02T14:06:10.591Z</time></trkpt><trkpt lat="42.09209" lon="13.531005"><ele>819.3333333333333</ele><time>2026-05-02T14:06:11.591Z</time></trkpt><trkpt lat="42.09215" lon="13.5307783"><ele>818.6666666666667</ele><time>2026-05-02T14:06:12.592Z</time></trkpt><trkpt lat="42.092225" lon="13.5305717"><ele>818.0</ele><time>2026-05-02T14:06:13.591Z</time></trkpt><trkpt lat="42.0922883" lon="13.53037"><ele>817.6666666666667</ele><time>2026-05-02T14:06:14.591Z</time></trkpt><trkpt lat="42.0923583" lon="13.5301867"><ele>817.3333333333333</ele><time>2026-05-02T14:06:15.591Z</time></trkpt><trkpt lat="42.092435" lon="13.52999"><ele>817.0</ele><time>2026-05-02T14:06:16.592Z</time></trkpt><trkpt lat="42.092515" lon="13.5297983"><ele>819.6666666666666</ele><time>2026-05-02T14:06:17.591Z</time></trkpt><trkpt lat="42.0925983" lon="13.52961"><ele>822.3333333333333</ele><time>2026-05-02T14:06:18.591Z</time></trkpt><trkpt lat="42.09267" lon="13.529415"><ele>825.0</ele><time>2026-05-02T14:06:19.591Z</time></trkpt><trkpt lat="42.0927417" lon="13.52922"><ele>825.0</ele><time>2026-05-02T14:06:20.592Z</time></trkpt><trkpt lat="42.0928133" lon="13.529025"><ele>825.0</ele><time>2026-05-02T14:06:21.592Z</time></trkpt><trkpt lat="42.0929283" lon="13.528675"><ele>825.0</ele><time>2026-05-02T14:06:23.592Z</time></trkpt><trkpt lat="42.09298" lon="13.5285333"><ele>824.3333333333334</ele><time>2026-05-02T14:06:24.591Z</time></trkpt><trkpt lat="42.0930367" lon="13.5284267"><ele>823.6666666666667</ele><time>2026-05-02T14:06:25.592Z</time></trkpt><trkpt lat="42.0930833" lon="13.5283383"><ele>823.0</ele><time>2026-05-02T14:06:26.592Z</time></trkpt><trkpt lat="42.093135" lon="13.528255"><ele>822.3333333333334</ele><time>2026-05-02T14:06:27.592Z</time></trkpt><trkpt lat="42.0931933" lon="13.5281683"><ele>821.6666666666667</ele><time>2026-05-02T14:06:28.592Z</time></trkpt><trkpt lat="42.0932617" lon="13.5280767"><ele>821.0</ele><time>2026-05-02T14:06:29.591Z</time></trkpt><trkpt lat="42.09334" lon="13.5279833"><ele>822.1666666666667</ele><time>2026-05-02T14:06:30.591Z</time></trkpt><trkpt lat="42.093425" lon="13.5278933"><ele>823.3333333333334</ele><time>2026-05-02T14:06:31.591Z</time></trkpt><trkpt lat="42.09349" lon="13.527825"><ele>824.5</ele><time>2026-05-02T14:06:32.591Z</time></trkpt><trkpt lat="42.0935517" lon="13.5277733"><ele>825.6666666666667</ele><time>2026-05-02T14:06:33.591Z</time></trkpt><trkpt lat="42.0936367" lon="13.527705"><ele>826.8333333333334</ele><time>2026-05-02T14:06:35.592Z</time></trkpt><trkpt lat="42.0937167" lon="13.5276583"><ele>828.0</ele><time>2026-05-02T14:06:59.591Z</time></trkpt><trkpt lat="42.0937983" lon="13.5275817"><ele>828.0</ele><time>2026-05-02T14:07:01.592Z</time></trkpt><trkpt lat="42.0938467" lon="13.52748"><ele>828.0</ele><time>2026-05-02T14:07:03.591Z</time></trkpt><trkpt lat="42.093865" lon="13.5273367"><ele>828.0</ele><time>2026-05-02T14:07:05.592Z</time></trkpt><trkpt lat="42.0938833" lon="13.5271783"><ele>828.0</ele><time>2026-05-02T14:07:07.591Z</time></trkpt><trkpt lat="42.0938967" lon="13.5270167"><ele>828.0</ele><time>2026-05-02T14:07:09.591Z</time></trkpt><trkpt lat="42.0939133" lon="13.5268583"><ele>827.6666666666666</ele><time>2026-05-02T14:07:11.592Z</time></trkpt><trkpt lat="42.09393" lon="13.5267733"><ele>827.3333333333333</ele><time>2026-05-02T14:07:12.592Z</time></trkpt><trkpt lat="42.093965" lon="13.5266117"><ele>827.0</ele><time>2026-05-02T14:07:14.591Z</time></trkpt><trkpt lat="42.0939833" lon="13.52653"><ele>826.6666666666666</ele><time>2026-05-02T14:07:15.591Z</time></trkpt><trkpt lat="42.0940033" lon="13.5264417"><ele>826.3333333333333</ele><time>2026-05-02T14:07:16.591Z</time></trkpt><trkpt lat="42.0940167" lon="13.5263483"><ele>826.0</ele><time>2026-05-02T14:07:17.592Z</time></trkpt><trkpt lat="42.0940267" lon="13.526255"><ele>827.0</ele><time>2026-05-02T14:07:18.592Z</time></trkpt><trkpt lat="42.0940367" lon="13.5261683"><ele>828.0</ele><time>2026-05-02T14:07:19.592Z</time></trkpt><trkpt lat="42.0940483" lon="13.5260817"><ele>829.0</ele><time>2026-05-02T14:07:20.591Z</time></trkpt><trkpt lat="42.094065" lon="13.5259983"><ele>830.0</ele><time>2026-05-02T14:07:21.592Z</time></trkpt><trkpt lat="42.0940883" lon="13.52591"><ele>831.0</ele><time>2026-05-02T14:07:22.591Z</time></trkpt><trkpt lat="42.0941683" lon="13.525665"><ele>831.0</ele><time>2026-05-02T14:07:25.592Z</time></trkpt><trkpt lat="42.0942067" lon="13.525525"><ele>831.0</ele><time>2026-05-02T14:07:27.592Z</time></trkpt><trkpt lat="42.094225" lon="13.5253617"><ele>831.0</ele><time>2026-05-02T14:07:29.592Z</time></trkpt><trkpt lat="42.0942617" lon="13.525275"><ele>831.0</ele><time>2026-05-02T14:07:30.592Z</time></trkpt><trkpt lat="42.0943167" lon="13.5251917"><ele>831.0</ele><time>2026-05-02T14:07:31.591Z</time></trkpt><trkpt lat="42.0943883" lon="13.5251033"><ele>828.6666666666666</ele><time>2026-05-02T14:07:32.592Z</time></trkpt><trkpt lat="42.094455" lon="13.5250217"><ele>826.3333333333333</ele><time>2026-05-02T14:07:33.591Z</time></trkpt><trkpt lat="42.0945117" lon="13.5249567"><ele>824.0</ele><time>2026-05-02T14:07:34.592Z</time></trkpt><trkpt lat="42.0945667" lon="13.5249"><ele>821.6666666666666</ele><time>2026-05-02T14:07:35.592Z</time></trkpt><trkpt lat="42.0946717" lon="13.5248017"><ele>819.3333333333333</ele><time>2026-05-02T14:07:37.592Z</time></trkpt><trkpt lat="42.09472" lon="13.524745"><ele>817.0</ele><time>2026-05-02T14:07:38.592Z</time></trkpt><trkpt lat="42.094815" lon="13.524635"><ele>817.6666666666666</ele><time>2026-05-02T14:07:40.591Z</time></trkpt><trkpt lat="42.0949117" lon="13.524525"><ele>818.3333333333333</ele><time>2026-05-02T14:07:42.591Z</time></trkpt><trkpt lat="42.0949667" lon="13.52448"><ele>819.0</ele><time>2026-05-02T14:07:43.592Z</time></trkpt><trkpt lat="42.0950317" lon="13.5244333"><ele>819.6666666666667</ele><time>2026-05-02T14:07:44.592Z</time></trkpt><trkpt lat="42.0951083" lon="13.52438"><ele>820.3333333333334</ele><time>2026-05-02T14:07:45.591Z</time></trkpt><trkpt lat="42.0951883" lon="13.524325"><ele>821.0</ele><time>2026-05-02T14:07:46.591Z</time></trkpt><trkpt lat="42.0952683" lon="13.5242633"><ele>821.0</ele><time>2026-05-02T14:07:47.592Z</time></trkpt><trkpt lat="42.095345" lon="13.524185"><ele>821.0</ele><time>2026-05-02T14:07:48.592Z</time></trkpt><trkpt lat="42.09542" lon="13.5241017"><ele>821.0</ele><time>2026-05-02T14:07:49.592Z</time></trkpt><trkpt lat="42.0954967" lon="13.52401"><ele>821.0</ele><time>2026-05-02T14:07:50.592Z</time></trkpt><trkpt lat="42.0955717" lon="13.5239333"><ele>821.0</ele><time>2026-05-02T14:07:51.592Z</time></trkpt><trkpt lat="42.0956267" lon="13.52386"><ele>821.0000000000001</ele><time>2026-05-02T14:07:52.591Z</time></trkpt><trkpt lat="42.0957067" lon="13.523735"><ele>821.0</ele><time>2026-05-02T14:07:54.592Z</time></trkpt><trkpt lat="42.0957467" lon="13.5236583"><ele>821.0</ele><time>2026-05-02T14:07:55.592Z</time></trkpt><trkpt lat="42.095775" lon="13.523565"><ele>821.0</ele><time>2026-05-02T14:07:56.591Z</time></trkpt><trkpt lat="42.095805" lon="13.5234617"><ele>821.0000000000001</ele><time>2026-05-02T14:07:57.592Z</time></trkpt><trkpt lat="42.0958233" lon="13.5233633"><ele>821.0</ele><time>2026-05-02T14:07:58.591Z</time></trkpt><trkpt lat="42.09584" lon="13.5232683"><ele>822.5999999999999</ele><time>2026-05-02T14:07:59.592Z</time></trkpt><trkpt lat="42.095875" lon="13.5231767"><ele>824.2</ele><time>2026-05-02T14:08:00.591Z</time></trkpt><trkpt lat="42.09592" lon="13.5230733"><ele>825.8</ele><time>2026-05-02T14:08:01.591Z</time></trkpt><trkpt lat="42.095975" lon="13.522955"><ele>827.4000000000001</ele><time>2026-05-02T14:08:02.592Z</time></trkpt><trkpt lat="42.0960167" lon="13.5228367"><ele>829.0</ele><time>2026-05-02T14:08:03.591Z</time></trkpt><trkpt lat="42.09605" lon="13.5227133"><ele>829.8000000000001</ele><time>2026-05-02T14:08:04.592Z</time></trkpt><trkpt lat="42.0960783" lon="13.522605"><ele>830.6</ele><time>2026-05-02T14:08:05.592Z</time></trkpt><trkpt lat="42.0961083" lon="13.522525"><ele>831.4</ele><time>2026-05-02T14:08:06.591Z</time></trkpt><trkpt lat="42.0961383" lon="13.5223717"><ele>832.2</ele><time>2026-05-02T14:08:08.591Z</time></trkpt><trkpt lat="42.0961867" lon="13.522235"><ele>833.0</ele><time>2026-05-02T14:08:10.591Z</time></trkpt><trkpt lat="42.09626" lon="13.52213"><ele>833.4</ele><time>2026-05-02T14:08:12.592Z</time></trkpt><trkpt lat="42.0963767" lon="13.5219483"><ele>833.8</ele><time>2026-05-02T14:08:15.592Z</time></trkpt><trkpt lat="42.096415" lon="13.5218733"><ele>834.2</ele><time>2026-05-02T14:08:17.592Z</time></trkpt><trkpt lat="42.09648" lon="13.5218667"><ele>834.6</ele><time>2026-05-02T14:08:23.592Z</time></trkpt><trkpt lat="42.09656" lon="13.52185"><ele>835.0</ele><time>2026-05-02T14:08:25.591Z</time></trkpt><trkpt lat="42.0966467" lon="13.5218383"><ele>835.0000000000001</ele><time>2026-05-02T14:08:27.591Z</time></trkpt><trkpt lat="42.0965783" lon="13.5218583"><ele>835.0</ele><time>2026-05-02T14:08:43.591Z</time></trkpt><trkpt lat="42.0965117" lon="13.5218817"><ele>835.0</ele><time>2026-05-02T14:08:45.59Z</time></trkpt><trkpt lat="42.0964467" lon="13.5219"><ele>835.0</ele><time>2026-05-02T14:08:47.59Z</time></trkpt><trkpt lat="42.0963783" lon="13.5218983"><ele>835.0</ele><time>2026-05-02T14:08:50.591Z</time></trkpt><trkpt lat="42.0962983" lon="13.52187"><ele>835.0000000000001</ele><time>2026-05-02T14:08:53.591Z</time></trkpt><trkpt lat="42.09626" lon="13.5218017"><ele>835.0</ele><time>2026-05-02T14:08:57.591Z</time></trkpt><trkpt lat="42.0963017" lon="13.5216967"><ele>835.0</ele><time>2026-05-02T14:09:01.59Z</time></trkpt><trkpt lat="42.0963333" lon="13.5216033"><ele>835.0</ele><time>2026-05-02T14:09:03.59Z</time></trkpt><trkpt lat="42.0963567" lon="13.5214017"><ele>835.0</ele><time>2026-05-02T14:09:06.59Z</time></trkpt><trkpt lat="42.0963867" lon="13.5212683"><ele>835.0</ele><time>2026-05-02T14:09:08.591Z</time></trkpt><trkpt lat="42.096415" lon="13.5211767"><ele>835.0</ele><time>2026-05-02T14:09:10.591Z</time></trkpt><trkpt lat="42.0964583" lon="13.5210783"><ele>834.8</ele><time>2026-05-02T14:09:12.59Z</time></trkpt><trkpt lat="42.0965233" lon="13.5209633"><ele>834.6</ele><time>2026-05-02T14:09:14.591Z</time></trkpt><trkpt lat="42.0966167" lon="13.5208383"><ele>834.4000000000001</ele><time>2026-05-02T14:09:16.591Z</time></trkpt><trkpt lat="42.0966683" lon="13.5207717"><ele>834.2</ele><time>2026-05-02T14:09:17.591Z</time></trkpt><trkpt lat="42.0967233" lon="13.5207033"><ele>834.0</ele><time>2026-05-02T14:09:18.59Z</time></trkpt><trkpt lat="42.096775" lon="13.5206233"><ele>835.3333333333334</ele><time>2026-05-02T14:09:19.591Z</time></trkpt><trkpt lat="42.09682" lon="13.52055"><ele>836.6666666666667</ele><time>2026-05-02T14:09:20.59Z</time></trkpt><trkpt lat="42.0968683" lon="13.520485"><ele>838.0</ele><time>2026-05-02T14:09:21.59Z</time></trkpt><trkpt lat="42.0969217" lon="13.5204117"><ele>839.3333333333334</ele><time>2026-05-02T14:09:22.59Z</time></trkpt><trkpt lat="42.0970183" lon="13.5202767"><ele>840.6666666666667</ele><time>2026-05-02T14:09:24.59Z</time></trkpt><trkpt lat="42.0970783" lon="13.5202217"><ele>842.0</ele><time>2026-05-02T14:09:25.591Z</time></trkpt><trkpt lat="42.09715" lon="13.52018"><ele>842.0000000000001</ele><time>2026-05-02T14:09:26.591Z</time></trkpt><trkpt lat="42.09722" lon="13.5201467"><ele>842.0</ele><time>2026-05-02T14:09:27.591Z</time></trkpt><trkpt lat="42.097285" lon="13.5201217"><ele>842.0</ele><time>2026-05-02T14:09:28.59Z</time></trkpt><trkpt lat="42.0973633" lon="13.5200733"><ele>842.0</ele><time>2026-05-02T14:09:30.591Z</time></trkpt><trkpt lat="42.09741" lon="13.5200117"><ele>842.0000000000001</ele><time>2026-05-02T14:09:32.591Z</time></trkpt><trkpt lat="42.0974083" lon="13.51991"><ele>842.0</ele><time>2026-05-02T14:09:35.59Z</time></trkpt><trkpt lat="42.0973567" lon="13.5198117"><ele>842.0000000000001</ele><time>2026-05-02T14:09:37.591Z</time></trkpt><trkpt lat="42.0973133" lon="13.5197117"><ele>842.0</ele><time>2026-05-02T14:09:39.59Z</time></trkpt><trkpt lat="42.0973183" lon="13.5196233"><ele>842.0</ele><time>2026-05-02T14:09:41.591Z</time></trkpt><trkpt lat="42.097315" lon="13.5195233"><ele>842.0</ele><time>2026-05-02T14:09:44.591Z</time></trkpt><trkpt lat="42.09729" lon="13.5194133"><ele>842.0000000000001</ele><time>2026-05-02T14:09:47.591Z</time></trkpt><trkpt lat="42.0972533" lon="13.5193267"><ele>842.0</ele><time>2026-05-02T14:09:50.59Z</time></trkpt><trkpt lat="42.0972" lon="13.5192383"><ele>845.25</ele><time>2026-05-02T14:09:53.59Z</time></trkpt><trkpt lat="42.0971617" lon="13.51907"><ele>848.5</ele><time>2026-05-02T14:09:56.59Z</time></trkpt><trkpt lat="42.09717" lon="13.518945"><ele>851.75</ele><time>2026-05-02T14:09:58.591Z</time></trkpt><trkpt lat="42.0972283" lon="13.5187633"><ele>855.0</ele><time>2026-05-02T14:10:01.59Z</time></trkpt><trkpt lat="42.097275" lon="13.5186167"><ele>857.8</ele><time>2026-05-02T14:10:03.591Z</time></trkpt><trkpt lat="42.0973283" lon="13.5184533"><ele>860.6</ele><time>2026-05-02T14:10:05.591Z</time></trkpt><trkpt lat="42.0973883" lon="13.5182867"><ele>863.4000000000001</ele><time>2026-05-02T14:10:07.591Z</time></trkpt><trkpt lat="42.0974233" lon="13.5182017"><ele>866.2</ele><time>2026-05-02T14:10:08.59Z</time></trkpt><trkpt lat="42.097465" lon="13.518125"><ele>869.0</ele><time>2026-05-02T14:10:09.59Z</time></trkpt><trkpt lat="42.0975117" lon="13.5180383"><ele>870.4000000000001</ele><time>2026-05-02T14:10:10.591Z</time></trkpt><trkpt lat="42.0975617" lon="13.5179533"><ele>871.8000000000001</ele><time>2026-05-02T14:10:11.59Z</time></trkpt><trkpt lat="42.0976033" lon="13.5178683"><ele>873.1999999999999</ele><time>2026-05-02T14:10:12.59Z</time></trkpt><trkpt lat="42.0976433" lon="13.51778"><ele>874.5999999999999</ele><time>2026-05-02T14:10:13.591Z</time></trkpt><trkpt lat="42.0976917" lon="13.5176833"><ele>876.0</ele><time>2026-05-02T14:10:14.59Z</time></trkpt><trkpt lat="42.097775" lon="13.51752"><ele>876.0</ele><time>2026-05-02T14:10:16.59Z</time></trkpt><trkpt lat="42.09781" lon="13.5174333"><ele>875.9999999999999</ele><time>2026-05-02T14:10:17.59Z</time></trkpt><trkpt lat="42.0978733" lon="13.51726"><ele>875.9999999999999</ele><time>2026-05-02T14:10:19.591Z</time></trkpt><trkpt lat="42.0979067" lon="13.517155"><ele>876.0</ele><time>2026-05-02T14:10:20.59Z</time></trkpt><trkpt lat="42.0979367" lon="13.51704"><ele>876.0</ele><time>2026-05-02T14:10:21.591Z</time></trkpt><trkpt lat="42.0979567" lon="13.5169233"><ele>876.0</ele><time>2026-05-02T14:10:22.59Z</time></trkpt><trkpt lat="42.0979767" lon="13.5167867"><ele>876.0</ele><time>2026-05-02T14:10:23.59Z</time></trkpt><trkpt lat="42.0980033" lon="13.5166433"><ele>876.0</ele><time>2026-05-02T14:10:24.591Z</time></trkpt><trkpt lat="42.0980267" lon="13.516495"><ele>876.0</ele><time>2026-05-02T14:10:25.591Z</time></trkpt><trkpt lat="42.0980983" lon="13.51623"><ele>877.5999999999999</ele><time>2026-05-02T14:10:27.59Z</time></trkpt><trkpt lat="42.0981217" lon="13.5161233"><ele>879.1999999999999</ele><time>2026-05-02T14:10:28.591Z</time></trkpt><trkpt lat="42.0981467" lon="13.5160317"><ele>880.8000000000001</ele><time>2026-05-02T14:10:29.59Z</time></trkpt><trkpt lat="42.09824" lon="13.51585"><ele>882.4000000000001</ele><time>2026-05-02T14:10:31.591Z</time></trkpt><trkpt lat="42.0983033" lon="13.5157567"><ele>884.0</ele><time>2026-05-02T14:10:32.591Z</time></trkpt><trkpt lat="42.0983667" lon="13.5156683"><ele>887.2</ele><time>2026-05-02T14:10:33.59Z</time></trkpt><trkpt lat="42.09847" lon="13.5154967"><ele>890.4000000000001</ele><time>2026-05-02T14:10:35.591Z</time></trkpt><trkpt lat="42.0985133" lon="13.5154083"><ele>893.6</ele><time>2026-05-02T14:10:36.59Z</time></trkpt><trkpt lat="42.09855" lon="13.5153217"><ele>896.8</ele><time>2026-05-02T14:10:37.591Z</time></trkpt><trkpt lat="42.0985933" lon="13.51524"><ele>900.0</ele><time>2026-05-02T14:10:38.59Z</time></trkpt><trkpt lat="42.0986867" lon="13.51506"><ele>901.25</ele><time>2026-05-02T14:10:40.591Z</time></trkpt><trkpt lat="42.0988067" lon="13.5148067"><ele>902.5</ele><time>2026-05-02T14:10:42.591Z</time></trkpt><trkpt lat="42.098855" lon="13.5146917"><ele>903.75</ele><time>2026-05-02T14:10:43.59Z</time></trkpt><trkpt lat="42.0988867" lon="13.5145917"><ele>905.0</ele><time>2026-05-02T14:10:44.59Z</time></trkpt><trkpt lat="42.0989117" lon="13.5145117"><ele>906.6666666666667</ele><time>2026-05-02T14:10:45.59Z</time></trkpt><trkpt lat="42.09893" lon="13.5143883"><ele>908.3333333333333</ele><time>2026-05-02T14:10:47.591Z</time></trkpt><trkpt lat="42.0987817" lon="13.5140933"><ele>910.0</ele><time>2026-05-02T14:10:51.59Z</time></trkpt><trkpt lat="42.0986767" lon="13.5138"><ele>912.2</ele><time>2026-05-02T14:10:53.591Z</time></trkpt><trkpt lat="42.098635" lon="13.513645"><ele>914.4</ele><time>2026-05-02T14:10:54.59Z</time></trkpt><trkpt lat="42.0986" lon="13.5135217"><ele>916.5999999999999</ele><time>2026-05-02T14:10:55.591Z</time></trkpt><trkpt lat="42.098565" lon="13.5134133"><ele>918.8</ele><time>2026-05-02T14:10:56.591Z</time></trkpt><trkpt lat="42.09855" lon="13.5133083"><ele>921.0</ele><time>2026-05-02T14:10:57.591Z</time></trkpt><trkpt lat="42.0985467" lon="13.5131967"><ele>921.0</ele><time>2026-05-02T14:10:58.591Z</time></trkpt><trkpt lat="42.09854" lon="13.5130783"><ele>921.0</ele><time>2026-05-02T14:10:59.591Z</time></trkpt><trkpt lat="42.0985217" lon="13.5129783"><ele>921.0</ele><time>2026-05-02T14:11:00.591Z</time></trkpt><trkpt lat="42.0984933" lon="13.5128867"><ele>921.0</ele><time>2026-05-02T14:11:01.591Z</time></trkpt><trkpt lat="42.09846" lon="13.5127983"><ele>921.0</ele><time>2026-05-02T14:11:02.59Z</time></trkpt><trkpt lat="42.0984317" lon="13.5126983"><ele>921.0</ele><time>2026-05-02T14:11:03.59Z</time></trkpt><trkpt lat="42.0984083" lon="13.5125967"><ele>921.8</ele><time>2026-05-02T14:11:04.591Z</time></trkpt><trkpt lat="42.0984017" lon="13.512465"><ele>922.5999999999999</ele><time>2026-05-02T14:11:05.591Z</time></trkpt><trkpt lat="42.0983933" lon="13.5123167"><ele>923.4</ele><time>2026-05-02T14:11:06.591Z</time></trkpt><trkpt lat="42.098385" lon="13.512175"><ele>924.2</ele><time>2026-05-02T14:11:07.59Z</time></trkpt><trkpt lat="42.0983967" lon="13.512035"><ele>925.0</ele><time>2026-05-02T14:11:08.59Z</time></trkpt><trkpt lat="42.0984183" lon="13.51189"><ele>925.6666666666666</ele><time>2026-05-02T14:11:09.591Z</time></trkpt><trkpt lat="42.0984383" lon="13.511755"><ele>926.3333333333333</ele><time>2026-05-02T14:11:10.59Z</time></trkpt><trkpt lat="42.098445" lon="13.51163"><ele>927.0</ele><time>2026-05-02T14:11:11.591Z</time></trkpt><trkpt lat="42.0984383" lon="13.5115183"><ele>927.6666666666667</ele><time>2026-05-02T14:11:12.591Z</time></trkpt><trkpt lat="42.0984217" lon="13.5114083"><ele>928.3333333333334</ele><time>2026-05-02T14:11:13.59Z</time></trkpt><trkpt lat="42.0983983" lon="13.5113083"><ele>929.0</ele><time>2026-05-02T14:11:14.59Z</time></trkpt><trkpt lat="42.0983617" lon="13.511215"><ele>930.1666666666667</ele><time>2026-05-02T14:11:15.591Z</time></trkpt><trkpt lat="42.098315" lon="13.51113"><ele>931.3333333333334</ele><time>2026-05-02T14:11:16.591Z</time></trkpt><trkpt lat="42.0982617" lon="13.51105"><ele>932.5</ele><time>2026-05-02T14:11:17.591Z</time></trkpt><trkpt lat="42.0982117" lon="13.5109733"><ele>933.6666666666667</ele><time>2026-05-02T14:11:18.59Z</time></trkpt><trkpt lat="42.0981567" lon="13.5108867"><ele>934.8333333333334</ele><time>2026-05-02T14:11:19.59Z</time></trkpt><trkpt lat="42.09811" lon="13.5107767"><ele>936.0</ele><time>2026-05-02T14:11:20.591Z</time></trkpt><trkpt lat="42.0980717" lon="13.510655"><ele>931.1999999999999</ele><time>2026-05-02T14:11:21.591Z</time></trkpt><trkpt lat="42.0980333" lon="13.510535"><ele>926.3999999999999</ele><time>2026-05-02T14:11:22.59Z</time></trkpt><trkpt lat="42.097995" lon="13.5104217"><ele>921.6</ele><time>2026-05-02T14:11:23.591Z</time></trkpt><trkpt lat="42.09794" lon="13.5103117"><ele>916.8</ele><time>2026-05-02T14:11:24.591Z</time></trkpt><trkpt lat="42.0978867" lon="13.5102017"><ele>912.0</ele><time>2026-05-02T14:11:25.591Z</time></trkpt><trkpt lat="42.09783" lon="13.5101017"><ele>912.0</ele><time>2026-05-02T14:11:26.59Z</time></trkpt><trkpt lat="42.09778" lon="13.5100033"><ele>912.0</ele><time>2026-05-02T14:11:27.591Z</time></trkpt><trkpt lat="42.09774" lon="13.5099"><ele>912.0</ele><time>2026-05-02T14:11:28.591Z</time></trkpt><trkpt lat="42.0977033" lon="13.5098017"><ele>912.0</ele><time>2026-05-02T14:11:29.591Z</time></trkpt><trkpt lat="42.0976667" lon="13.5097083"><ele>912.0</ele><time>2026-05-02T14:11:30.591Z</time></trkpt><trkpt lat="42.09764" lon="13.5096133"><ele>912.0</ele><time>2026-05-02T14:11:31.591Z</time></trkpt><trkpt lat="42.0976217" lon="13.5095167"><ele>912.0</ele><time>2026-05-02T14:11:32.59Z</time></trkpt><trkpt lat="42.09761" lon="13.5094267"><ele>912.0</ele><time>2026-05-02T14:11:33.591Z</time></trkpt><trkpt lat="42.0976233" lon="13.5093333"><ele>912.0</ele><time>2026-05-02T14:11:34.59Z</time></trkpt><trkpt lat="42.0976583" lon="13.5092133"><ele>912.0</ele><time>2026-05-02T14:11:35.589Z</time></trkpt><trkpt lat="42.0976967" lon="13.5090667"><ele>912.0</ele><time>2026-05-02T14:11:36.59Z</time></trkpt><trkpt lat="42.0977633" lon="13.5087217"><ele>912.0</ele><time>2026-05-02T14:11:38.59Z</time></trkpt><trkpt lat="42.0977817" lon="13.50853"><ele>912.0</ele><time>2026-05-02T14:11:39.59Z</time></trkpt><trkpt lat="42.0978117" lon="13.50816"><ele>912.0</ele><time>2026-05-02T14:11:41.59Z</time></trkpt><trkpt lat="42.09784" lon="13.5079783"><ele>912.3333333333333</ele><time>2026-05-02T14:11:42.589Z</time></trkpt><trkpt lat="42.0978983" lon="13.5076583"><ele>912.6666666666666</ele><time>2026-05-02T14:11:44.589Z</time></trkpt><trkpt lat="42.0979367" lon="13.5075183"><ele>913.0</ele><time>2026-05-02T14:11:45.589Z</time></trkpt><trkpt lat="42.0979817" lon="13.507405"><ele>913.0</ele><time>2026-05-02T14:11:46.59Z</time></trkpt><trkpt lat="42.0980367" lon="13.507305"><ele>913.0</ele><time>2026-05-02T14:11:47.589Z</time></trkpt><trkpt lat="42.0981167" lon="13.50721"><ele>913.0</ele><time>2026-05-02T14:11:48.59Z</time></trkpt><trkpt lat="42.0982067" lon="13.5071133"><ele>913.0</ele><time>2026-05-02T14:11:49.59Z</time></trkpt><trkpt lat="42.0982967" lon="13.5070167"><ele>913.0</ele><time>2026-05-02T14:11:50.589Z</time></trkpt><trkpt lat="42.0984517" lon="13.506815"><ele>913.6666666666666</ele><time>2026-05-02T14:11:52.589Z</time></trkpt><trkpt lat="42.098505" lon="13.5067233"><ele>914.3333333333333</ele><time>2026-05-02T14:11:53.589Z</time></trkpt><trkpt lat="42.0985833" lon="13.5065133"><ele>915.0</ele><time>2026-05-02T14:11:55.59Z</time></trkpt><trkpt lat="42.0986583" lon="13.5061983"><ele>915.0</ele><time>2026-05-02T14:11:57.589Z</time></trkpt><trkpt lat="42.0987067" lon="13.506035"><ele>915.0</ele><time>2026-05-02T14:11:58.589Z</time></trkpt><trkpt lat="42.0987483" lon="13.50588"><ele>915.0</ele><time>2026-05-02T14:11:59.589Z</time></trkpt><trkpt lat="42.098785" lon="13.505745"><ele>915.0</ele><time>2026-05-02T14:12:00.59Z</time></trkpt><trkpt lat="42.09886" lon="13.505525"><ele>916.3333333333333</ele><time>2026-05-02T14:12:02.59Z</time></trkpt><trkpt lat="42.0989083" lon="13.5054083"><ele>917.6666666666666</ele><time>2026-05-02T14:12:03.589Z</time></trkpt><trkpt lat="42.0990633" lon="13.5051533"><ele>919.0</ele><time>2026-05-02T14:12:05.589Z</time></trkpt><trkpt lat="42.0991467" lon="13.505035"><ele>920.75</ele><time>2026-05-02T14:12:06.59Z</time></trkpt><trkpt lat="42.0993067" lon="13.504845"><ele>922.5</ele><time>2026-05-02T14:12:08.59Z</time></trkpt><trkpt lat="42.0993767" lon="13.5047317"><ele>924.25</ele><time>2026-05-02T14:12:09.59Z</time></trkpt><trkpt lat="42.0994483" lon="13.5046"><ele>926.0</ele><time>2026-05-02T14:12:10.59Z</time></trkpt><trkpt lat="42.0996017" lon="13.5043017"><ele>927.6666666666667</ele><time>2026-05-02T14:12:12.589Z</time></trkpt><trkpt lat="42.0996733" lon="13.5041433"><ele>929.3333333333333</ele><time>2026-05-02T14:12:13.589Z</time></trkpt><trkpt lat="42.09982" lon="13.5038117"><ele>931.0</ele><time>2026-05-02T14:12:15.589Z</time></trkpt><trkpt lat="42.100015" lon="13.5033833"><ele>932.0</ele><time>2026-05-02T14:12:17.59Z</time></trkpt><trkpt lat="42.1001217" lon="13.5031583"><ele>933.0</ele><time>2026-05-02T14:12:18.589Z</time></trkpt><trkpt lat="42.100335" lon="13.5027417"><ele>936.3333333333333</ele><time>2026-05-02T14:12:20.59Z</time></trkpt><trkpt lat="42.100515" lon="13.5024033"><ele>939.6666666666666</ele><time>2026-05-02T14:12:22.59Z</time></trkpt><trkpt lat="42.100605" lon="13.5022617"><ele>943.0</ele><time>2026-05-02T14:12:23.589Z</time></trkpt><trkpt lat="42.100705" lon="13.502125"><ele>944.6666666666666</ele><time>2026-05-02T14:12:24.59Z</time></trkpt><trkpt lat="42.10081" lon="13.5019967"><ele>946.3333333333333</ele><time>2026-05-02T14:12:25.589Z</time></trkpt><trkpt lat="42.10091" lon="13.5018933"><ele>948.0</ele><time>2026-05-02T14:12:26.59Z</time></trkpt><trkpt lat="42.10114" lon="13.501625"><ele>948.0</ele><time>2026-05-02T14:12:29.589Z</time></trkpt><trkpt lat="42.1012033" lon="13.5015233"><ele>948.0</ele><time>2026-05-02T14:12:30.59Z</time></trkpt><trkpt lat="42.1012617" lon="13.5014217"><ele>948.0</ele><time>2026-05-02T14:12:31.59Z</time></trkpt><trkpt lat="42.1013117" lon="13.50133"><ele>948.0</ele><time>2026-05-02T14:12:32.59Z</time></trkpt><trkpt lat="42.1013533" lon="13.5012417"><ele>948.0</ele><time>2026-05-02T14:12:33.59Z</time></trkpt><trkpt lat="42.1013933" lon="13.50117"><ele>948.0</ele><time>2026-05-02T14:12:34.589Z</time></trkpt><trkpt lat="42.1014567" lon="13.5011167"><ele>948.0</ele><time>2026-05-02T14:12:36.589Z</time></trkpt><trkpt lat="42.1015183" lon="13.5011733"><ele>948.0</ele><time>2026-05-02T14:12:38.589Z</time></trkpt><trkpt lat="42.101565" lon="13.501305"><ele>948.0</ele><time>2026-05-02T14:12:40.589Z</time></trkpt><trkpt lat="42.1016017" lon="13.5014683"><ele>948.0</ele><time>2026-05-02T14:12:42.589Z</time></trkpt><trkpt lat="42.10162" lon="13.501575"><ele>948.0</ele><time>2026-05-02T14:12:43.59Z</time></trkpt><trkpt lat="42.1016467" lon="13.501705"><ele>947.4</ele><time>2026-05-02T14:12:44.589Z</time></trkpt><trkpt lat="42.101675" lon="13.5018333"><ele>946.8</ele><time>2026-05-02T14:12:45.59Z</time></trkpt><trkpt lat="42.1017083" lon="13.5019567"><ele>946.2</ele><time>2026-05-02T14:12:46.589Z</time></trkpt><trkpt lat="42.10175" lon="13.5020717"><ele>945.6</ele><time>2026-05-02T14:12:47.589Z</time></trkpt><trkpt lat="42.1017867" lon="13.5021933"><ele>945.0</ele><time>2026-05-02T14:12:48.589Z</time></trkpt><trkpt lat="42.1018183" lon="13.5023217"><ele>945.0</ele><time>2026-05-02T14:12:49.589Z</time></trkpt><trkpt lat="42.1018533" lon="13.502455"><ele>945.0</ele><time>2026-05-02T14:12:50.59Z</time></trkpt><trkpt lat="42.1018933" lon="13.5025733"><ele>945.0</ele><time>2026-05-02T14:12:51.589Z</time></trkpt><trkpt lat="42.101935" lon="13.502685"><ele>945.0</ele><time>2026-05-02T14:12:52.589Z</time></trkpt><trkpt lat="42.1019833" lon="13.5027767"><ele>945.0</ele><time>2026-05-02T14:12:53.59Z</time></trkpt><trkpt lat="42.1020367" lon="13.5028633"><ele>944.0</ele><time>2026-05-02T14:12:54.589Z</time></trkpt><trkpt lat="42.1020867" lon="13.5029417"><ele>943.0</ele><time>2026-05-02T14:12:55.59Z</time></trkpt><trkpt lat="42.10213" lon="13.5030133"><ele>942.0</ele><time>2026-05-02T14:12:56.59Z</time></trkpt><trkpt lat="42.1021783" lon="13.5031333"><ele>941.0</ele><time>2026-05-02T14:12:58.59Z</time></trkpt><trkpt lat="42.1021917" lon="13.5032667"><ele>940.0</ele><time>2026-05-02T14:13:00.59Z</time></trkpt><trkpt lat="42.1021333" lon="13.503445"><ele>940.0</ele><time>2026-05-02T14:13:02.59Z</time></trkpt><trkpt lat="42.10208" lon="13.50356"><ele>940.0</ele><time>2026-05-02T14:13:03.59Z</time></trkpt><trkpt lat="42.10202" lon="13.5036867"><ele>940.0</ele><time>2026-05-02T14:13:04.59Z</time></trkpt><trkpt lat="42.10195" lon="13.5038167"><ele>940.0</ele><time>2026-05-02T14:13:05.59Z</time></trkpt><trkpt lat="42.1018833" lon="13.5039517"><ele>938.75</ele><time>2026-05-02T14:13:06.59Z</time></trkpt><trkpt lat="42.101835" lon="13.504085"><ele>937.5</ele><time>2026-05-02T14:13:07.589Z</time></trkpt><trkpt lat="42.10178" lon="13.5042267"><ele>936.25</ele><time>2026-05-02T14:13:08.589Z</time></trkpt><trkpt lat="42.1017217" lon="13.504365"><ele>935.0</ele><time>2026-05-02T14:13:09.59Z</time></trkpt><trkpt lat="42.101665" lon="13.5045"><ele>935.0</ele><time>2026-05-02T14:13:10.59Z</time></trkpt><trkpt lat="42.1015983" lon="13.5046317"><ele>935.0</ele><time>2026-05-02T14:13:11.59Z</time></trkpt><trkpt lat="42.10154" lon="13.5047667"><ele>935.0</ele><time>2026-05-02T14:13:12.59Z</time></trkpt><trkpt lat="42.10149" lon="13.5049017"><ele>935.0</ele><time>2026-05-02T14:13:13.589Z</time></trkpt><trkpt lat="42.1014467" lon="13.5050267"><ele>935.0</ele><time>2026-05-02T14:13:14.589Z</time></trkpt><trkpt lat="42.1014183" lon="13.5051383"><ele>934.2</ele><time>2026-05-02T14:13:15.59Z</time></trkpt><trkpt lat="42.101395" lon="13.5052467"><ele>933.4</ele><time>2026-05-02T14:13:16.59Z</time></trkpt><trkpt lat="42.1013783" lon="13.5053567"><ele>932.5999999999999</ele><time>2026-05-02T14:13:17.59Z</time></trkpt><trkpt lat="42.1013567" lon="13.50548"><ele>931.8</ele><time>2026-05-02T14:13:18.589Z</time></trkpt><trkpt lat="42.1013333" lon="13.5056083"><ele>931.0</ele><time>2026-05-02T14:13:19.589Z</time></trkpt><trkpt lat="42.1013067" lon="13.505745"><ele>931.0</ele><time>2026-05-02T14:13:20.589Z</time></trkpt><trkpt lat="42.1012783" lon="13.5058867"><ele>931.0</ele><time>2026-05-02T14:13:21.589Z</time></trkpt><trkpt lat="42.10125" lon="13.5060383"><ele>931.0</ele><time>2026-05-02T14:13:22.59Z</time></trkpt><trkpt lat="42.10123" lon="13.5061917"><ele>931.0</ele><time>2026-05-02T14:13:23.59Z</time></trkpt><trkpt lat="42.10121" lon="13.5063517"><ele>931.0</ele><time>2026-05-02T14:13:24.589Z</time></trkpt><trkpt lat="42.1011983" lon="13.50651"><ele>931.0</ele><time>2026-05-02T14:13:25.589Z</time></trkpt><trkpt lat="42.1011783" lon="13.5066667"><ele>931.0</ele><time>2026-05-02T14:13:26.589Z</time></trkpt><trkpt lat="42.1011633" lon="13.5068217"><ele>931.0</ele><time>2026-05-02T14:13:27.59Z</time></trkpt><trkpt lat="42.101155" lon="13.506965"><ele>932.5999999999999</ele><time>2026-05-02T14:13:28.589Z</time></trkpt><trkpt lat="42.1011533" lon="13.5071133"><ele>934.1999999999999</ele><time>2026-05-02T14:13:29.59Z</time></trkpt><trkpt lat="42.1011683" lon="13.5072583"><ele>935.8000000000001</ele><time>2026-05-02T14:13:30.59Z</time></trkpt><trkpt lat="42.1011867" lon="13.5074133"><ele>937.4000000000001</ele><time>2026-05-02T14:13:31.59Z</time></trkpt><trkpt lat="42.1011917" lon="13.5075483"><ele>939.0</ele><time>2026-05-02T14:13:32.59Z</time></trkpt><trkpt lat="42.1011833" lon="13.50768"><ele>939.0</ele><time>2026-05-02T14:13:33.589Z</time></trkpt><trkpt lat="42.1011633" lon="13.5078183"><ele>939.0000000000001</ele><time>2026-05-02T14:13:34.589Z</time></trkpt><trkpt lat="42.1011467" lon="13.50796"><ele>939.0000000000001</ele><time>2026-05-02T14:13:35.589Z</time></trkpt><trkpt lat="42.1011267" lon="13.508105"><ele>939.0</ele><time>2026-05-02T14:13:36.59Z</time></trkpt><trkpt lat="42.101105" lon="13.5082633"><ele>939.0</ele><time>2026-05-02T14:13:37.589Z</time></trkpt><trkpt lat="42.1010883" lon="13.5084333"><ele>940.75</ele><time>2026-05-02T14:13:38.59Z</time></trkpt><trkpt lat="42.1010667" lon="13.5085883"><ele>942.5</ele><time>2026-05-02T14:13:39.59Z</time></trkpt><trkpt lat="42.101035" lon="13.5087317"><ele>944.25</ele><time>2026-05-02T14:13:40.59Z</time></trkpt><trkpt lat="42.10101" lon="13.5088667"><ele>946.0</ele><time>2026-05-02T14:13:41.59Z</time></trkpt><trkpt lat="42.1009433" lon="13.5091333"><ele>947.6666666666666</ele><time>2026-05-02T14:13:43.589Z</time></trkpt><trkpt lat="42.1008933" lon="13.5092617"><ele>949.3333333333333</ele><time>2026-05-02T14:13:44.59Z</time></trkpt><trkpt lat="42.1008383" lon="13.5093783"><ele>951.0</ele><time>2026-05-02T14:13:45.589Z</time></trkpt><trkpt lat="42.1007833" lon="13.509475"><ele>952.6666666666667</ele><time>2026-05-02T14:13:46.589Z</time></trkpt><trkpt lat="42.1007433" lon="13.5095483"><ele>954.3333333333334</ele><time>2026-05-02T14:13:47.59Z</time></trkpt><trkpt lat="42.1006983" lon="13.5096317"><ele>956.0</ele><time>2026-05-02T14:13:49.59Z</time></trkpt><trkpt lat="42.1007917" lon="13.5096783"><ele>956.0</ele><time>2026-05-02T14:14:15.59Z</time></trkpt><trkpt lat="42.1008517" lon="13.50957"><ele>955.9999999999999</ele><time>2026-05-02T14:14:17.59Z</time></trkpt><trkpt lat="42.1009" lon="13.5094717"><ele>955.9999999999999</ele><time>2026-05-02T14:14:18.589Z</time></trkpt><trkpt lat="42.1009667" lon="13.5093483"><ele>956.0</ele><time>2026-05-02T14:14:19.59Z</time></trkpt><trkpt lat="42.1010483" lon="13.5092067"><ele>956.0</ele><time>2026-05-02T14:14:20.589Z</time></trkpt><trkpt lat="42.101145" lon="13.50907"><ele>956.0</ele><time>2026-05-02T14:14:21.59Z</time></trkpt><trkpt lat="42.10126" lon="13.5089117"><ele>956.0</ele><time>2026-05-02T14:14:22.59Z</time></trkpt><trkpt lat="42.1013883" lon="13.5087467"><ele>956.0</ele><time>2026-05-02T14:14:23.59Z</time></trkpt><trkpt lat="42.1015217" lon="13.50858"><ele>955.0</ele><time>2026-05-02T14:14:24.59Z</time></trkpt><trkpt lat="42.1016533" lon="13.5084117"><ele>954.0</ele><time>2026-05-02T14:14:25.59Z</time></trkpt><trkpt lat="42.1017917" lon="13.5082383"><ele>953.0</ele><time>2026-05-02T14:14:26.59Z</time></trkpt><trkpt lat="42.1019317" lon="13.5080567"><ele>951.0</ele><time>2026-05-02T14:14:27.59Z</time></trkpt><trkpt lat="42.1020617" lon="13.5078733"><ele>949.0</ele><time>2026-05-02T14:14:28.589Z</time></trkpt><trkpt lat="42.102185" lon="13.50768"><ele>947.0</ele><time>2026-05-02T14:14:29.589Z</time></trkpt><trkpt lat="42.102295" lon="13.507485"><ele>947.0</ele><time>2026-05-02T14:14:30.59Z</time></trkpt><trkpt lat="42.1023833" lon="13.5072983"><ele>947.0</ele><time>2026-05-02T14:14:31.59Z</time></trkpt><trkpt lat="42.102465" lon="13.507125"><ele>947.0</ele><time>2026-05-02T14:14:32.589Z</time></trkpt><trkpt lat="42.1025333" lon="13.506945"><ele>951.0</ele><time>2026-05-02T14:14:33.589Z</time></trkpt><trkpt lat="42.1026033" lon="13.506755"><ele>955.0</ele><time>2026-05-02T14:14:34.589Z</time></trkpt><trkpt lat="42.1026683" lon="13.506555"><ele>959.0</ele><time>2026-05-02T14:14:35.59Z</time></trkpt><trkpt lat="42.1027333" lon="13.5063483"><ele>956.3333333333334</ele><time>2026-05-02T14:14:36.59Z</time></trkpt><trkpt lat="42.1027967" lon="13.5061283"><ele>953.6666666666667</ele><time>2026-05-02T14:14:37.589Z</time></trkpt><trkpt lat="42.1028567" lon="13.50592"><ele>951.0</ele><time>2026-05-02T14:14:38.589Z</time></trkpt><trkpt lat="42.1029117" lon="13.5057233"><ele>951.0</ele><time>2026-05-02T14:14:39.59Z</time></trkpt><trkpt lat="42.102965" lon="13.505545"><ele>951.0</ele><time>2026-05-02T14:14:40.59Z</time></trkpt><trkpt lat="42.103025" lon="13.5053717"><ele>951.0</ele><time>2026-05-02T14:14:41.589Z</time></trkpt><trkpt lat="42.1030917" lon="13.5052067"><ele>951.0</ele><time>2026-05-02T14:14:42.59Z</time></trkpt><trkpt lat="42.1031817" lon="13.50506"><ele>955.0</ele><time>2026-05-02T14:14:43.589Z</time></trkpt><trkpt lat="42.10329" lon="13.5049483"><ele>959.0</ele><time>2026-05-02T14:14:44.589Z</time></trkpt><trkpt lat="42.1034083" lon="13.5048533"><ele>963.0</ele><time>2026-05-02T14:14:45.589Z</time></trkpt><trkpt lat="42.10352" lon="13.50478"><ele>967.0</ele><time>2026-05-02T14:14:46.588Z</time></trkpt><trkpt lat="42.1036333" lon="13.504705"><ele>967.0</ele><time>2026-05-02T14:14:47.589Z</time></trkpt><trkpt lat="42.103745" lon="13.5046317"><ele>967.0</ele><time>2026-05-02T14:14:48.588Z</time></trkpt><trkpt lat="42.1038583" lon="13.50455"><ele>967.0</ele><time>2026-05-02T14:14:49.588Z</time></trkpt><trkpt lat="42.1039667" lon="13.5044567"><ele>967.0</ele><time>2026-05-02T14:14:50.589Z</time></trkpt><trkpt lat="42.1040633" lon="13.5043617"><ele>968.0</ele><time>2026-05-02T14:14:51.588Z</time></trkpt><trkpt lat="42.1041567" lon="13.50426"><ele>969.0</ele><time>2026-05-02T14:14:52.588Z</time></trkpt><trkpt lat="42.1042533" lon="13.50414"><ele>970.0</ele><time>2026-05-02T14:14:53.588Z</time></trkpt><trkpt lat="42.1043467" lon="13.504"><ele>971.0</ele><time>2026-05-02T14:14:54.589Z</time></trkpt><trkpt lat="42.1044267" lon="13.5038517"><ele>970.25</ele><time>2026-05-02T14:14:55.588Z</time></trkpt><trkpt lat="42.1045067" lon="13.5037017"><ele>969.5</ele><time>2026-05-02T14:14:56.588Z</time></trkpt><trkpt lat="42.104575" lon="13.503555"><ele>968.75</ele><time>2026-05-02T14:14:57.588Z</time></trkpt><trkpt lat="42.1046433" lon="13.5034067"><ele>968.0</ele><time>2026-05-02T14:14:58.589Z</time></trkpt><trkpt lat="42.104705" lon="13.5032717"><ele>968.0</ele><time>2026-05-02T14:14:59.588Z</time></trkpt><trkpt lat="42.104765" lon="13.5031267"><ele>968.0</ele><time>2026-05-02T14:15:00.589Z</time></trkpt><trkpt lat="42.1048233" lon="13.5029833"><ele>968.0</ele><time>2026-05-02T14:15:01.589Z</time></trkpt><trkpt lat="42.104875" lon="13.5028317"><ele>968.0</ele><time>2026-05-02T14:15:02.588Z</time></trkpt><trkpt lat="42.1049217" lon="13.5026717"><ele>972.25</ele><time>2026-05-02T14:15:03.589Z</time></trkpt><trkpt lat="42.1049667" lon="13.5025083"><ele>976.5</ele><time>2026-05-02T14:15:04.589Z</time></trkpt><trkpt lat="42.105015" lon="13.50234"><ele>980.75</ele><time>2026-05-02T14:15:05.588Z</time></trkpt><trkpt lat="42.105065" lon="13.502165"><ele>985.0</ele><time>2026-05-02T14:15:06.589Z</time></trkpt><trkpt lat="42.1051117" lon="13.5019933"><ele>985.0</ele><time>2026-05-02T14:15:07.588Z</time></trkpt><trkpt lat="42.1051583" lon="13.501815"><ele>985.0</ele><time>2026-05-02T14:15:08.589Z</time></trkpt><trkpt lat="42.1051983" lon="13.5016467"><ele>985.0</ele><time>2026-05-02T14:15:09.589Z</time></trkpt><trkpt lat="42.1052367" lon="13.5014783"><ele>985.0</ele><time>2026-05-02T14:15:10.589Z</time></trkpt><trkpt lat="42.1052717" lon="13.5013233"><ele>984.75</ele><time>2026-05-02T14:15:11.589Z</time></trkpt><trkpt lat="42.105305" lon="13.50115"><ele>984.5</ele><time>2026-05-02T14:15:12.589Z</time></trkpt><trkpt lat="42.1053417" lon="13.5009767"><ele>984.25</ele><time>2026-05-02T14:15:13.589Z</time></trkpt><trkpt lat="42.10536" lon="13.5007933"><ele>984.0</ele><time>2026-05-02T14:15:14.588Z</time></trkpt><trkpt lat="42.1053767" lon="13.5006317"><ele>984.0</ele><time>2026-05-02T14:15:15.588Z</time></trkpt><trkpt lat="42.1053883" lon="13.5004817"><ele>984.0</ele><time>2026-05-02T14:15:16.589Z</time></trkpt><trkpt lat="42.1053933" lon="13.5003283"><ele>984.0</ele><time>2026-05-02T14:15:17.589Z</time></trkpt><trkpt lat="42.1053967" lon="13.500165"><ele>984.0</ele><time>2026-05-02T14:15:18.588Z</time></trkpt><trkpt lat="42.1053883" lon="13.5000083"><ele>986.0</ele><time>2026-05-02T14:15:19.589Z</time></trkpt><trkpt lat="42.1053583" lon="13.49986"><ele>988.0</ele><time>2026-05-02T14:15:20.588Z</time></trkpt><trkpt lat="42.1053117" lon="13.49973"><ele>990.0</ele><time>2026-05-02T14:15:21.589Z</time></trkpt><trkpt lat="42.1052467" lon="13.499605"><ele>992.0</ele><time>2026-05-02T14:15:22.588Z</time></trkpt><trkpt lat="42.1051633" lon="13.4994917"><ele>992.0</ele><time>2026-05-02T14:15:23.588Z</time></trkpt><trkpt lat="42.1050717" lon="13.49938"><ele>992.0</ele><time>2026-05-02T14:15:24.588Z</time></trkpt><trkpt lat="42.104975" lon="13.4992617"><ele>992.0</ele><time>2026-05-02T14:15:25.589Z</time></trkpt><trkpt lat="42.1048717" lon="13.4991533"><ele>992.0</ele><time>2026-05-02T14:15:26.588Z</time></trkpt><trkpt lat="42.10478" lon="13.4990383"><ele>992.0</ele><time>2026-05-02T14:15:27.589Z</time></trkpt><trkpt lat="42.1046933" lon="13.4989183"><ele>992.0</ele><time>2026-05-02T14:15:28.589Z</time></trkpt><trkpt lat="42.1046217" lon="13.498795"><ele>992.0</ele><time>2026-05-02T14:15:29.588Z</time></trkpt><trkpt lat="42.10456" lon="13.4986533"><ele>992.0</ele><time>2026-05-02T14:15:30.588Z</time></trkpt><trkpt lat="42.1045267" lon="13.4985033"><ele>992.5</ele><time>2026-05-02T14:15:31.589Z</time></trkpt><trkpt lat="42.1045133" lon="13.4983383"><ele>993.0</ele><time>2026-05-02T14:15:32.589Z</time></trkpt><trkpt lat="42.10452" lon="13.4981833"><ele>993.5</ele><time>2026-05-02T14:15:33.589Z</time></trkpt><trkpt lat="42.1045567" lon="13.4980417"><ele>994.0</ele><time>2026-05-02T14:15:34.588Z</time></trkpt><trkpt lat="42.1046133" lon="13.49791"><ele>994.0</ele><time>2026-05-02T14:15:35.589Z</time></trkpt><trkpt lat="42.1046933" lon="13.497775"><ele>994.0</ele><time>2026-05-02T14:15:36.589Z</time></trkpt><trkpt lat="42.10479" lon="13.497655"><ele>994.0</ele><time>2026-05-02T14:15:37.589Z</time></trkpt><trkpt lat="42.1048933" lon="13.497545"><ele>994.0</ele><time>2026-05-02T14:15:38.589Z</time></trkpt><trkpt lat="42.10501" lon="13.4974533"><ele>995.75</ele><time>2026-05-02T14:15:39.588Z</time></trkpt><trkpt lat="42.1051383" lon="13.4973567"><ele>997.5</ele><time>2026-05-02T14:15:40.589Z</time></trkpt><trkpt lat="42.1052583" lon="13.4972483"><ele>999.25</ele><time>2026-05-02T14:15:41.588Z</time></trkpt><trkpt lat="42.10538" lon="13.49715"><ele>1001.0</ele><time>2026-05-02T14:15:42.589Z</time></trkpt><trkpt lat="42.1054983" lon="13.4970583"><ele>1001.0</ele><time>2026-05-02T14:15:43.589Z</time></trkpt><trkpt lat="42.1056133" lon="13.4969533"><ele>1001.0</ele><time>2026-05-02T14:15:44.589Z</time></trkpt><trkpt lat="42.105735" lon="13.4968533"><ele>1001.0</ele><time>2026-05-02T14:15:45.589Z</time></trkpt><trkpt lat="42.10585" lon="13.4967667"><ele>1001.0</ele><time>2026-05-02T14:15:46.588Z</time></trkpt><trkpt lat="42.1059633" lon="13.49668"><ele>1003.0</ele><time>2026-05-02T14:15:47.588Z</time></trkpt><trkpt lat="42.1060967" lon="13.496565"><ele>1005.0</ele><time>2026-05-02T14:15:48.588Z</time></trkpt><trkpt lat="42.1062517" lon="13.49642"><ele>1007.0</ele><time>2026-05-02T14:15:49.588Z</time></trkpt><trkpt lat="42.1065117" lon="13.4960617"><ele>1010.6666666666667</ele><time>2026-05-02T14:15:51.588Z</time></trkpt><trkpt lat="42.106595" lon="13.495855"><ele>1014.3333333333333</ele><time>2026-05-02T14:15:52.589Z</time></trkpt><trkpt lat="42.1066567" lon="13.4956383"><ele>1018.0</ele><time>2026-05-02T14:15:53.588Z</time></trkpt><trkpt lat="42.1067067" lon="13.49538"><ele>1018.0</ele><time>2026-05-02T14:15:54.589Z</time></trkpt><trkpt lat="42.10675" lon="13.4951117"><ele>1018.0</ele><time>2026-05-02T14:15:55.588Z</time></trkpt><trkpt lat="42.1067933" lon="13.4948667"><ele>1018.0</ele><time>2026-05-02T14:15:56.589Z</time></trkpt><trkpt lat="42.10684" lon="13.4946583"><ele>1017.5</ele><time>2026-05-02T14:15:57.588Z</time></trkpt><trkpt lat="42.1068967" lon="13.4944767"><ele>1017.0</ele><time>2026-05-02T14:15:58.588Z</time></trkpt><trkpt lat="42.106965" lon="13.494315"><ele>1016.5</ele><time>2026-05-02T14:15:59.589Z</time></trkpt><trkpt lat="42.1070483" lon="13.49416"><ele>1016.0</ele><time>2026-05-02T14:16:00.588Z</time></trkpt><trkpt lat="42.1071467" lon="13.4940133"><ele>1016.0</ele><time>2026-05-02T14:16:01.588Z</time></trkpt><trkpt lat="42.1072483" lon="13.49388"><ele>1016.0</ele><time>2026-05-02T14:16:02.588Z</time></trkpt><trkpt lat="42.107355" lon="13.493735"><ele>1016.0</ele><time>2026-05-02T14:16:03.589Z</time></trkpt><trkpt lat="42.1074517" lon="13.4935867"><ele>1016.0</ele><time>2026-05-02T14:16:04.588Z</time></trkpt><trkpt lat="42.1075417" lon="13.4934633"><ele>1019.5</ele><time>2026-05-02T14:16:05.589Z</time></trkpt><trkpt lat="42.10761" lon="13.4933283"><ele>1023.0</ele><time>2026-05-02T14:16:06.589Z</time></trkpt><trkpt lat="42.1076617" lon="13.4931583"><ele>1026.5</ele><time>2026-05-02T14:16:07.588Z</time></trkpt><trkpt lat="42.10767" lon="13.4929833"><ele>1030.0</ele><time>2026-05-02T14:16:08.589Z</time></trkpt><trkpt lat="42.10765" lon="13.4927917"><ele>1032.0</ele><time>2026-05-02T14:16:09.589Z</time></trkpt><trkpt lat="42.1076083" lon="13.4925833"><ele>1034.0</ele><time>2026-05-02T14:16:10.589Z</time></trkpt><trkpt lat="42.1075617" lon="13.4923767"><ele>1036.0</ele><time>2026-05-02T14:16:11.589Z</time></trkpt><trkpt lat="42.1075183" lon="13.4921717"><ele>1038.5</ele><time>2026-05-02T14:16:12.589Z</time></trkpt><trkpt lat="42.1074667" lon="13.4919767"><ele>1041.0</ele><time>2026-05-02T14:16:13.588Z</time></trkpt><trkpt lat="42.1074083" lon="13.4918"><ele>1043.5</ele><time>2026-05-02T14:16:14.589Z</time></trkpt><trkpt lat="42.1073317" lon="13.49166"><ele>1046.0</ele><time>2026-05-02T14:16:15.589Z</time></trkpt><trkpt lat="42.1072433" lon="13.4915267"><ele>1041.75</ele><time>2026-05-02T14:16:16.589Z</time></trkpt><trkpt lat="42.1071667" lon="13.4913933"><ele>1037.5</ele><time>2026-05-02T14:16:17.589Z</time></trkpt><trkpt lat="42.1071083" lon="13.491245"><ele>1033.25</ele><time>2026-05-02T14:16:18.588Z</time></trkpt><trkpt lat="42.10708" lon="13.4910833"><ele>1029.0</ele><time>2026-05-02T14:16:19.588Z</time></trkpt><trkpt lat="42.107075" lon="13.4909017"><ele>1029.0</ele><time>2026-05-02T14:16:20.589Z</time></trkpt><trkpt lat="42.1070917" lon="13.490695"><ele>1029.0</ele><time>2026-05-02T14:16:21.589Z</time></trkpt><trkpt lat="42.1071183" lon="13.4904967"><ele>1029.0</ele><time>2026-05-02T14:16:22.589Z</time></trkpt><trkpt lat="42.1071517" lon="13.4903"><ele>1030.3333333333333</ele><time>2026-05-02T14:16:23.589Z</time></trkpt><trkpt lat="42.1071983" lon="13.4901"><ele>1031.6666666666665</ele><time>2026-05-02T14:16:24.589Z</time></trkpt><trkpt lat="42.1072417" lon="13.4898983"><ele>1033.0</ele><time>2026-05-02T14:16:25.588Z</time></trkpt><trkpt lat="42.10728" lon="13.4897117"><ele>1034.5</ele><time>2026-05-02T14:16:26.588Z</time></trkpt><trkpt lat="42.1073117" lon="13.4895333"><ele>1036.0</ele><time>2026-05-02T14:16:27.589Z</time></trkpt><trkpt lat="42.1073467" lon="13.4893783"><ele>1037.5</ele><time>2026-05-02T14:16:28.589Z</time></trkpt><trkpt lat="42.1073767" lon="13.4892333"><ele>1039.0</ele><time>2026-05-02T14:16:29.589Z</time></trkpt><trkpt lat="42.1074133" lon="13.4890967"><ele>1041.0</ele><time>2026-05-02T14:16:30.589Z</time></trkpt><trkpt lat="42.1074633" lon="13.488965"><ele>1043.0</ele><time>2026-05-02T14:16:31.589Z</time></trkpt><trkpt lat="42.10753" lon="13.48884"><ele>1045.0</ele><time>2026-05-02T14:16:32.588Z</time></trkpt><trkpt lat="42.107615" lon="13.488725"><ele>1047.0</ele><time>2026-05-02T14:16:33.589Z</time></trkpt><trkpt lat="42.1077067" lon="13.48864"><ele>1047.0</ele><time>2026-05-02T14:16:34.589Z</time></trkpt><trkpt lat="42.1078" lon="13.488575"><ele>1047.0</ele><time>2026-05-02T14:16:35.589Z</time></trkpt><trkpt lat="42.1079033" lon="13.4885267"><ele>1047.0</ele><time>2026-05-02T14:16:36.588Z</time></trkpt><trkpt lat="42.10802" lon="13.4884883"><ele>1047.0</ele><time>2026-05-02T14:16:37.589Z</time></trkpt><trkpt lat="42.1081383" lon="13.4884533"><ele>1051.25</ele><time>2026-05-02T14:16:38.589Z</time></trkpt><trkpt lat="42.1082617" lon="13.488405"><ele>1055.5</ele><time>2026-05-02T14:16:39.589Z</time></trkpt><trkpt lat="42.1083783" lon="13.4883433"><ele>1059.75</ele><time>2026-05-02T14:16:40.588Z</time></trkpt><trkpt lat="42.1084867" lon="13.4882667"><ele>1064.0</ele><time>2026-05-02T14:16:41.588Z</time></trkpt><trkpt lat="42.1085883" lon="13.4881767"><ele>1064.0</ele><time>2026-05-02T14:16:42.588Z</time></trkpt><trkpt lat="42.10868" lon="13.4880833"><ele>1064.0</ele><time>2026-05-02T14:16:43.589Z</time></trkpt><trkpt lat="42.1087583" lon="13.4879833"><ele>1064.0</ele><time>2026-05-02T14:16:44.589Z</time></trkpt><trkpt lat="42.108835" lon="13.487875"><ele>1064.0</ele><time>2026-05-02T14:16:45.588Z</time></trkpt><trkpt lat="42.108905" lon="13.4877683"><ele>1064.0</ele><time>2026-05-02T14:16:46.589Z</time></trkpt><trkpt lat="42.1089617" lon="13.4876683"><ele>1064.8333333333335</ele><time>2026-05-02T14:16:47.588Z</time></trkpt><trkpt lat="42.1090017" lon="13.4875733"><ele>1065.6666666666667</ele><time>2026-05-02T14:16:48.588Z</time></trkpt><trkpt lat="42.1090233" lon="13.4874783"><ele>1066.5</ele><time>2026-05-02T14:16:49.588Z</time></trkpt><trkpt lat="42.109035" lon="13.4873533"><ele>1067.3333333333333</ele><time>2026-05-02T14:16:51.588Z</time></trkpt><trkpt lat="42.1090767" lon="13.487265"><ele>1068.1666666666665</ele><time>2026-05-02T14:16:54.588Z</time></trkpt><trkpt lat="42.1091583" lon="13.4871967"><ele>1069.0</ele><time>2026-05-02T14:18:12.588Z</time></trkpt><trkpt lat="42.109245" lon="13.4870567"><ele>1069.0</ele><time>2026-05-02T14:18:14.588Z</time></trkpt><trkpt lat="42.1093567" lon="13.4868383"><ele>1069.0</ele><time>2026-05-02T14:18:16.588Z</time></trkpt><trkpt lat="42.1094317" lon="13.4866933"><ele>1069.0</ele><time>2026-05-02T14:18:17.588Z</time></trkpt><trkpt lat="42.109515" lon="13.48653"><ele>1066.5</ele><time>2026-05-02T14:18:18.587Z</time></trkpt><trkpt lat="42.1097167" lon="13.4861533"><ele>1064.0</ele><time>2026-05-02T14:18:20.587Z</time></trkpt><trkpt lat="42.1098133" lon="13.4859583"><ele>1064.0</ele><time>2026-05-02T14:18:21.588Z</time></trkpt><trkpt lat="42.1098983" lon="13.485765"><ele>1064.0</ele><time>2026-05-02T14:18:22.588Z</time></trkpt><trkpt lat="42.1099617" lon="13.48558"><ele>1064.0</ele><time>2026-05-02T14:18:23.587Z</time></trkpt><trkpt lat="42.1099967" lon="13.485375"><ele>1070.3333333333335</ele><time>2026-05-02T14:18:24.588Z</time></trkpt><trkpt lat="42.1100017" lon="13.4851567"><ele>1076.6666666666667</ele><time>2026-05-02T14:18:25.588Z</time></trkpt><trkpt lat="42.1099817" lon="13.484925"><ele>1083.0</ele><time>2026-05-02T14:18:26.587Z</time></trkpt><trkpt lat="42.10996" lon="13.4847"><ele>1084.5</ele><time>2026-05-02T14:18:27.588Z</time></trkpt><trkpt lat="42.1099417" lon="13.4844933"><ele>1086.0</ele><time>2026-05-02T14:18:28.588Z</time></trkpt><trkpt lat="42.1099333" lon="13.4842933"><ele>1087.5</ele><time>2026-05-02T14:18:29.588Z</time></trkpt><trkpt lat="42.1099367" lon="13.484115"><ele>1089.0</ele><time>2026-05-02T14:18:30.588Z</time></trkpt><trkpt lat="42.1099467" lon="13.4839417"><ele>1089.0</ele><time>2026-05-02T14:18:31.587Z</time></trkpt><trkpt lat="42.10997" lon="13.483765"><ele>1089.0</ele><time>2026-05-02T14:18:32.587Z</time></trkpt><trkpt lat="42.11001" lon="13.483585"><ele>1089.0</ele><time>2026-05-02T14:18:33.588Z</time></trkpt><trkpt lat="42.110065" lon="13.4833983"><ele>1089.0</ele><time>2026-05-02T14:18:34.588Z</time></trkpt><trkpt lat="42.1101333" lon="13.4832233"><ele>1088.6666666666667</ele><time>2026-05-02T14:18:35.587Z</time></trkpt><trkpt lat="42.1102167" lon="13.4830567"><ele>1088.3333333333335</ele><time>2026-05-02T14:18:36.588Z</time></trkpt><trkpt lat="42.1103183" lon="13.48289"><ele>1088.0</ele><time>2026-05-02T14:18:37.588Z</time></trkpt><trkpt lat="42.1104267" lon="13.48275"><ele>1085.6666666666667</ele><time>2026-05-02T14:18:38.588Z</time></trkpt><trkpt lat="42.1105383" lon="13.4826117"><ele>1083.3333333333333</ele><time>2026-05-02T14:18:39.588Z</time></trkpt><trkpt lat="42.1106517" lon="13.4824733"><ele>1081.0</ele><time>2026-05-02T14:18:40.588Z</time></trkpt><trkpt lat="42.1107633" lon="13.48234"><ele>1084.75</ele><time>2026-05-02T14:18:41.587Z</time></trkpt><trkpt lat="42.1108617" lon="13.4822117"><ele>1088.5</ele><time>2026-05-02T14:18:42.587Z</time></trkpt><trkpt lat="42.1109517" lon="13.4820483"><ele>1092.25</ele><time>2026-05-02T14:18:43.588Z</time></trkpt><trkpt lat="42.1110167" lon="13.4818683"><ele>1096.0</ele><time>2026-05-02T14:18:44.587Z</time></trkpt><trkpt lat="42.111075" lon="13.481645"><ele>1096.0</ele><time>2026-05-02T14:18:45.588Z</time></trkpt><trkpt lat="42.111135" lon="13.4813967"><ele>1096.0</ele><time>2026-05-02T14:18:46.588Z</time></trkpt><trkpt lat="42.11118" lon="13.48115"><ele>1096.0</ele><time>2026-05-02T14:18:47.588Z</time></trkpt><trkpt lat="42.1112267" lon="13.4809"><ele>1096.3333333333333</ele><time>2026-05-02T14:18:48.587Z</time></trkpt><trkpt lat="42.11127" lon="13.480655"><ele>1096.6666666666667</ele><time>2026-05-02T14:18:49.588Z</time></trkpt><trkpt lat="42.1112917" lon="13.4804233"><ele>1097.0</ele><time>2026-05-02T14:18:50.587Z</time></trkpt><trkpt lat="42.1113133" lon="13.48019"><ele>1097.6666666666667</ele><time>2026-05-02T14:18:51.587Z</time></trkpt><trkpt lat="42.1113083" lon="13.4799583"><ele>1098.3333333333333</ele><time>2026-05-02T14:18:52.587Z</time></trkpt><trkpt lat="42.11129" lon="13.4797383"><ele>1099.0</ele><time>2026-05-02T14:18:53.587Z</time></trkpt><trkpt lat="42.1112433" lon="13.4795183"><ele>1102.0</ele><time>2026-05-02T14:18:54.587Z</time></trkpt><trkpt lat="42.1111883" lon="13.4792983"><ele>1105.0</ele><time>2026-05-02T14:18:55.588Z</time></trkpt><trkpt lat="42.1111317" lon="13.479075"><ele>1108.0</ele><time>2026-05-02T14:18:56.588Z</time></trkpt><trkpt lat="42.11108" lon="13.4788517"><ele>1109.0</ele><time>2026-05-02T14:18:57.588Z</time></trkpt><trkpt lat="42.1110283" lon="13.478635"><ele>1110.0</ele><time>2026-05-02T14:18:58.588Z</time></trkpt><trkpt lat="42.1109883" lon="13.47842"><ele>1111.0</ele><time>2026-05-02T14:18:59.588Z</time></trkpt><trkpt lat="42.1109717" lon="13.4782183"><ele>1111.0</ele><time>2026-05-02T14:19:00.587Z</time></trkpt><trkpt lat="42.1109583" lon="13.4780033"><ele>1111.0</ele><time>2026-05-02T14:19:01.587Z</time></trkpt><trkpt lat="42.1109417" lon="13.477795"><ele>1111.0</ele><time>2026-05-02T14:19:02.588Z</time></trkpt><trkpt lat="42.1109167" lon="13.4775983"><ele>1110.6666666666665</ele><time>2026-05-02T14:19:03.588Z</time></trkpt><trkpt lat="42.1108767" lon="13.4774183"><ele>1110.3333333333333</ele><time>2026-05-02T14:19:04.587Z</time></trkpt><trkpt lat="42.1108217" lon="13.477225"><ele>1110.0</ele><time>2026-05-02T14:19:05.587Z</time></trkpt><trkpt lat="42.11075" lon="13.4770317"><ele>1105.6666666666667</ele><time>2026-05-02T14:19:06.588Z</time></trkpt><trkpt lat="42.11066" lon="13.4768567"><ele>1101.3333333333335</ele><time>2026-05-02T14:19:07.588Z</time></trkpt><trkpt lat="42.110555" lon="13.47669"><ele>1097.0</ele><time>2026-05-02T14:19:08.588Z</time></trkpt><trkpt lat="42.11046" lon="13.4765217"><ele>1097.0</ele><time>2026-05-02T14:19:09.587Z</time></trkpt><trkpt lat="42.11037" lon="13.4763517"><ele>1097.0</ele><time>2026-05-02T14:19:10.588Z</time></trkpt><trkpt lat="42.1102983" lon="13.476165"><ele>1097.0</ele><time>2026-05-02T14:19:11.588Z</time></trkpt><trkpt lat="42.1102467" lon="13.4759717"><ele>1098.3333333333335</ele><time>2026-05-02T14:19:12.587Z</time></trkpt><trkpt lat="42.1102067" lon="13.4757633"><ele>1099.6666666666667</ele><time>2026-05-02T14:19:13.588Z</time></trkpt><trkpt lat="42.1101667" lon="13.47555"><ele>1101.0</ele><time>2026-05-02T14:19:14.587Z</time></trkpt><trkpt lat="42.1101267" lon="13.4753233"><ele>1101.0</ele><time>2026-05-02T14:19:15.587Z</time></trkpt><trkpt lat="42.11009" lon="13.4751033"><ele>1101.0</ele><time>2026-05-02T14:19:16.588Z</time></trkpt><trkpt lat="42.1100367" lon="13.47489"><ele>1101.0</ele><time>2026-05-02T14:19:17.587Z</time></trkpt><trkpt lat="42.1099667" lon="13.4746883"><ele>1097.0</ele><time>2026-05-02T14:19:18.588Z</time></trkpt><trkpt lat="42.10989" lon="13.4744917"><ele>1093.0</ele><time>2026-05-02T14:19:19.588Z</time></trkpt><trkpt lat="42.109805" lon="13.474295"><ele>1089.0</ele><time>2026-05-02T14:19:20.588Z</time></trkpt><trkpt lat="42.1097233" lon="13.47409"><ele>1089.0</ele><time>2026-05-02T14:19:21.588Z</time></trkpt><trkpt lat="42.1096383" lon="13.47389"><ele>1089.0</ele><time>2026-05-02T14:19:22.587Z</time></trkpt><trkpt lat="42.1095533" lon="13.4736833"><ele>1089.0</ele><time>2026-05-02T14:19:23.588Z</time></trkpt><trkpt lat="42.1094667" lon="13.4734833"><ele>1090.6666666666667</ele><time>2026-05-02T14:19:24.588Z</time></trkpt><trkpt lat="42.1093783" lon="13.4732767"><ele>1092.3333333333335</ele><time>2026-05-02T14:19:25.588Z</time></trkpt><trkpt lat="42.1092933" lon="13.47307"><ele>1094.0</ele><time>2026-05-02T14:19:26.587Z</time></trkpt><trkpt lat="42.1092183" lon="13.472855"><ele>1095.0</ele><time>2026-05-02T14:19:27.587Z</time></trkpt><trkpt lat="42.109155" lon="13.4726467"><ele>1096.0</ele><time>2026-05-02T14:19:28.588Z</time></trkpt><trkpt lat="42.1090983" lon="13.4724317"><ele>1097.0</ele><time>2026-05-02T14:19:29.587Z</time></trkpt><trkpt lat="42.1090433" lon="13.4722233"><ele>1094.6666666666667</ele><time>2026-05-02T14:19:30.587Z</time></trkpt><trkpt lat="42.1089983" lon="13.4720083"><ele>1092.3333333333333</ele><time>2026-05-02T14:19:31.588Z</time></trkpt><trkpt lat="42.1089467" lon="13.4718017"><ele>1090.0</ele><time>2026-05-02T14:19:32.587Z</time></trkpt><trkpt lat="42.1089" lon="13.4715967"><ele>1090.0</ele><time>2026-05-02T14:19:33.587Z</time></trkpt><trkpt lat="42.1088567" lon="13.4713967"><ele>1090.0</ele><time>2026-05-02T14:19:34.587Z</time></trkpt><trkpt lat="42.1088333" lon="13.4711967"><ele>1090.0</ele><time>2026-05-02T14:19:35.587Z</time></trkpt><trkpt lat="42.1088233" lon="13.4709933"><ele>1090.3333333333333</ele><time>2026-05-02T14:19:36.588Z</time></trkpt><trkpt lat="42.108825" lon="13.4707783"><ele>1090.6666666666667</ele><time>2026-05-02T14:19:37.588Z</time></trkpt><trkpt lat="42.10883" lon="13.4705667"><ele>1091.0</ele><time>2026-05-02T14:19:38.587Z</time></trkpt><trkpt lat="42.108835" lon="13.4703633"><ele>1089.6666666666667</ele><time>2026-05-02T14:19:39.587Z</time></trkpt><trkpt lat="42.10883" lon="13.4701633"><ele>1088.3333333333333</ele><time>2026-05-02T14:19:40.587Z</time></trkpt><trkpt lat="42.1088017" lon="13.46997"><ele>1087.0</ele><time>2026-05-02T14:19:41.587Z</time></trkpt><trkpt lat="42.10876" lon="13.4697633"><ele>1086.6666666666665</ele><time>2026-05-02T14:19:42.587Z</time></trkpt><trkpt lat="42.10871" lon="13.4695583"><ele>1086.3333333333333</ele><time>2026-05-02T14:19:43.587Z</time></trkpt><trkpt lat="42.1086383" lon="13.469355"><ele>1086.0</ele><time>2026-05-02T14:19:44.587Z</time></trkpt><trkpt lat="42.1085633" lon="13.469145"><ele>1086.0</ele><time>2026-05-02T14:19:45.588Z</time></trkpt><trkpt lat="42.1084867" lon="13.4689433"><ele>1086.0</ele><time>2026-05-02T14:19:46.587Z</time></trkpt><trkpt lat="42.1084117" lon="13.468745"><ele>1086.0</ele><time>2026-05-02T14:19:47.587Z</time></trkpt><trkpt lat="42.1083383" lon="13.46855"><ele>1084.6666666666667</ele><time>2026-05-02T14:19:48.587Z</time></trkpt><trkpt lat="42.1082667" lon="13.46836"><ele>1083.3333333333335</ele><time>2026-05-02T14:19:49.587Z</time></trkpt><trkpt lat="42.108195" lon="13.46817"><ele>1082.0</ele><time>2026-05-02T14:19:50.587Z</time></trkpt><trkpt lat="42.1081233" lon="13.46797"><ele>1084.0</ele><time>2026-05-02T14:19:51.588Z</time></trkpt><trkpt lat="42.1080567" lon="13.4677767"><ele>1086.0</ele><time>2026-05-02T14:19:52.587Z</time></trkpt><trkpt lat="42.1079867" lon="13.467595"><ele>1088.0</ele><time>2026-05-02T14:19:53.587Z</time></trkpt><trkpt lat="42.1079117" lon="13.4674083"><ele>1088.0</ele><time>2026-05-02T14:19:54.587Z</time></trkpt><trkpt lat="42.1078517" lon="13.4672167"><ele>1088.0</ele><time>2026-05-02T14:19:55.588Z</time></trkpt><trkpt lat="42.1077867" lon="13.467035"><ele>1088.0</ele><time>2026-05-02T14:19:56.587Z</time></trkpt><trkpt lat="42.10773" lon="13.4668467"><ele>1089.6666666666667</ele><time>2026-05-02T14:19:57.588Z</time></trkpt><trkpt lat="42.107665" lon="13.46666"><ele>1091.3333333333333</ele><time>2026-05-02T14:19:58.588Z</time></trkpt><trkpt lat="42.1075967" lon="13.4664767"><ele>1093.0</ele><time>2026-05-02T14:19:59.587Z</time></trkpt><trkpt lat="42.1075217" lon="13.4662933"><ele>1094.75</ele><time>2026-05-02T14:20:00.587Z</time></trkpt><trkpt lat="42.107465" lon="13.46612"><ele>1096.5</ele><time>2026-05-02T14:20:01.587Z</time></trkpt><trkpt lat="42.1074267" lon="13.4659533"><ele>1098.25</ele><time>2026-05-02T14:20:02.588Z</time></trkpt><trkpt lat="42.1073983" lon="13.4657883"><ele>1100.0</ele><time>2026-05-02T14:20:03.587Z</time></trkpt><trkpt lat="42.1073783" lon="13.4656233"><ele>1100.5</ele><time>2026-05-02T14:20:04.588Z</time></trkpt><trkpt lat="42.1073733" lon="13.46546"><ele>1101.0</ele><time>2026-05-02T14:20:05.588Z</time></trkpt><trkpt lat="42.10739" lon="13.4652917"><ele>1101.5</ele><time>2026-05-02T14:20:06.587Z</time></trkpt><trkpt lat="42.1074217" lon="13.465115"><ele>1102.0</ele><time>2026-05-02T14:20:07.588Z</time></trkpt><trkpt lat="42.1074683" lon="13.4649467"><ele>1102.5</ele><time>2026-05-02T14:20:08.588Z</time></trkpt><trkpt lat="42.1075267" lon="13.464785"><ele>1103.0</ele><time>2026-05-02T14:20:09.587Z</time></trkpt><trkpt lat="42.1075933" lon="13.4646267"><ele>1103.5</ele><time>2026-05-02T14:20:10.588Z</time></trkpt><trkpt lat="42.1076683" lon="13.4644683"><ele>1104.0</ele><time>2026-05-02T14:20:11.588Z</time></trkpt><trkpt lat="42.1077483" lon="13.4643233"><ele>1102.75</ele><time>2026-05-02T14:20:12.588Z</time></trkpt><trkpt lat="42.1078267" lon="13.4641783"><ele>1101.5</ele><time>2026-05-02T14:20:13.587Z</time></trkpt><trkpt lat="42.1078967" lon="13.4640367"><ele>1100.25</ele><time>2026-05-02T14:20:14.588Z</time></trkpt><trkpt lat="42.1079667" lon="13.4639083"><ele>1099.0</ele><time>2026-05-02T14:20:15.588Z</time></trkpt><trkpt lat="42.1080333" lon="13.46379"><ele>1099.0</ele><time>2026-05-02T14:20:16.588Z</time></trkpt><trkpt lat="42.1081" lon="13.4636717"><ele>1099.0</ele><time>2026-05-02T14:20:17.588Z</time></trkpt><trkpt lat="42.1081683" lon="13.463555"><ele>1099.0</ele><time>2026-05-02T14:20:18.588Z</time></trkpt><trkpt lat="42.1082267" lon="13.463435"><ele>1099.0</ele><time>2026-05-02T14:20:19.588Z</time></trkpt><trkpt lat="42.1082917" lon="13.463305"><ele>1099.0</ele><time>2026-05-02T14:20:20.588Z</time></trkpt><trkpt lat="42.1083517" lon="13.4631767"><ele>1100.6000000000001</ele><time>2026-05-02T14:20:21.587Z</time></trkpt><trkpt lat="42.1084083" lon="13.4630583"><ele>1102.2</ele><time>2026-05-02T14:20:22.587Z</time></trkpt><trkpt lat="42.1084583" lon="13.4629483"><ele>1103.8000000000002</ele><time>2026-05-02T14:20:23.588Z</time></trkpt><trkpt lat="42.1085083" lon="13.4628433"><ele>1105.4</ele><time>2026-05-02T14:20:24.587Z</time></trkpt><trkpt lat="42.1085467" lon="13.4627267"><ele>1107.0</ele><time>2026-05-02T14:20:25.588Z</time></trkpt><trkpt lat="42.1085783" lon="13.4626183"><ele>1107.6666666666667</ele><time>2026-05-02T14:20:26.588Z</time></trkpt><trkpt lat="42.108605" lon="13.46251"><ele>1108.3333333333333</ele><time>2026-05-02T14:20:27.588Z</time></trkpt><trkpt lat="42.1086283" lon="13.4624083"><ele>1109.0</ele><time>2026-05-02T14:20:28.587Z</time></trkpt><trkpt lat="42.1086467" lon="13.4623183"><ele>1109.6666666666665</ele><time>2026-05-02T14:20:29.588Z</time></trkpt><trkpt lat="42.1086883" lon="13.4621867"><ele>1110.3333333333333</ele><time>2026-05-02T14:20:31.588Z</time></trkpt><trkpt lat="42.108715" lon="13.4620817"><ele>1111.0</ele><time>2026-05-02T14:20:34.588Z</time></trkpt><trkpt lat="42.1087317" lon="13.46199"><ele>1111.1666666666665</ele><time>2026-05-02T14:20:36.587Z</time></trkpt><trkpt lat="42.1087617" lon="13.4618617"><ele>1111.3333333333333</ele><time>2026-05-02T14:20:38.587Z</time></trkpt><trkpt lat="42.1087833" lon="13.4617333"><ele>1111.5</ele><time>2026-05-02T14:20:40.588Z</time></trkpt><trkpt lat="42.1087317" lon="13.461675"><ele>1111.6666666666667</ele><time>2026-05-02T14:20:43.588Z</time></trkpt><trkpt lat="42.1086567" lon="13.4617033"><ele>1111.8333333333335</ele><time>2026-05-02T14:20:45.588Z</time></trkpt><trkpt lat="42.10859" lon="13.4617367"><ele>1112.0</ele><time>2026-05-02T14:20:47.587Z</time></trkpt><trkpt lat="42.1085333" lon="13.4617767"><ele>1112.0</ele><time>2026-05-02T14:20:49.588Z</time></trkpt><trkpt lat="42.108475" lon="13.46181"><ele>1112.0</ele><time>2026-05-02T14:20:52.588Z</time></trkpt><trkpt lat="42.1084067" lon="13.4618817"><ele>1112.0</ele><time>2026-05-02T14:20:58.587Z</time></trkpt><trkpt lat="42.1083367" lon="13.461915"><ele>1112.0</ele><time>2026-05-02T14:21:01.588Z</time></trkpt><trkpt lat="42.10837" lon="13.4618383"><ele>1112.0</ele><time>2026-05-02T14:21:07.587Z</time></trkpt><trkpt lat="42.1084383" lon="13.4618267"><ele>1112.0</ele><time>2026-05-02T14:21:11.588Z</time></trkpt><trkpt lat="42.1085217" lon="13.4617933"><ele>1112.0</ele><time>2026-05-02T14:23:00.586Z</time></trkpt><trkpt lat="42.1086033" lon="13.4617333"><ele>1112.0</ele><time>2026-05-02T14:23:02.587Z</time></trkpt><trkpt lat="42.1086767" lon="13.4616983"><ele>1112.0</ele><time>2026-05-02T14:23:05.586Z</time></trkpt><trkpt lat="42.108735" lon="13.461635"><ele>1112.0</ele><time>2026-05-02T14:23:09.586Z</time></trkpt><trkpt lat="42.1087217" lon="13.4615433"><ele>1112.0</ele><time>2026-05-02T14:23:11.587Z</time></trkpt><trkpt lat="42.1087067" lon="13.4614517"><ele>1112.0</ele><time>2026-05-02T14:23:13.586Z</time></trkpt><trkpt lat="42.1086917" lon="13.4613683"><ele>1112.0</ele><time>2026-05-02T14:23:16.587Z</time></trkpt><trkpt lat="42.1086483" lon="13.4612433"><ele>1110.8333333333335</ele><time>2026-05-02T14:23:19.587Z</time></trkpt><trkpt lat="42.1086183" lon="13.4611167"><ele>1109.6666666666667</ele><time>2026-05-02T14:23:21.586Z</time></trkpt><trkpt lat="42.1086" lon="13.4610267"><ele>1108.5</ele><time>2026-05-02T14:23:22.586Z</time></trkpt><trkpt lat="42.1085833" lon="13.4609267"><ele>1107.3333333333333</ele><time>2026-05-02T14:23:23.587Z</time></trkpt><trkpt lat="42.108565" lon="13.4608183"><ele>1106.1666666666665</ele><time>2026-05-02T14:23:24.587Z</time></trkpt><trkpt lat="42.1085517" lon="13.4607233"><ele>1105.0</ele><time>2026-05-02T14:23:25.587Z</time></trkpt><trkpt lat="42.1085383" lon="13.460635"><ele>1105.0</ele><time>2026-05-02T14:23:26.587Z</time></trkpt><trkpt lat="42.10852" lon="13.4605483"><ele>1105.0</ele><time>2026-05-02T14:23:27.587Z</time></trkpt><trkpt lat="42.1084967" lon="13.4604683"><ele>1105.0</ele><time>2026-05-02T14:23:28.586Z</time></trkpt><trkpt lat="42.1084717" lon="13.460385"><ele>1105.0</ele><time>2026-05-02T14:23:29.586Z</time></trkpt><trkpt lat="42.1084283" lon="13.46024"><ele>1105.0</ele><time>2026-05-02T14:23:31.587Z</time></trkpt><trkpt lat="42.108465" lon="13.4600533"><ele>1102.6</ele><time>2026-05-02T14:23:34.587Z</time></trkpt><trkpt lat="42.1085283" lon="13.4599667"><ele>1100.2</ele><time>2026-05-02T14:23:36.586Z</time></trkpt><trkpt lat="42.108555" lon="13.4598733"><ele>1097.8</ele><time>2026-05-02T14:23:39.587Z</time></trkpt><trkpt lat="42.1085667" lon="13.4597683"><ele>1095.4</ele><time>2026-05-02T14:23:41.586Z</time></trkpt><trkpt lat="42.10855" lon="13.4596383"><ele>1093.0</ele><time>2026-05-02T14:23:43.587Z</time></trkpt><trkpt lat="42.1085217" lon="13.4594833"><ele>1091.4285714285716</ele><time>2026-05-02T14:23:45.587Z</time></trkpt><trkpt lat="42.1085133" lon="13.4593933"><ele>1089.857142857143</ele><time>2026-05-02T14:23:46.587Z</time></trkpt><trkpt lat="42.1085083" lon="13.4592983"><ele>1088.2857142857142</ele><time>2026-05-02T14:23:47.587Z</time></trkpt><trkpt lat="42.1085017" lon="13.4591933"><ele>1086.7142857142858</ele><time>2026-05-02T14:23:48.587Z</time></trkpt><trkpt lat="42.1084967" lon="13.4590867"><ele>1085.142857142857</ele><time>2026-05-02T14:23:49.587Z</time></trkpt><trkpt lat="42.1084883" lon="13.4589817"><ele>1083.5714285714287</ele><time>2026-05-02T14:23:50.587Z</time></trkpt><trkpt lat="42.1084867" lon="13.458885"><ele>1082.0</ele><time>2026-05-02T14:23:51.587Z</time></trkpt><trkpt lat="42.1085283" lon="13.45868"><ele>1080.2</ele><time>2026-05-02T14:23:54.586Z</time></trkpt><trkpt lat="42.10854" lon="13.4585367"><ele>1078.4</ele><time>2026-05-02T14:23:56.586Z</time></trkpt><trkpt lat="42.108545" lon="13.4584"><ele>1076.6</ele><time>2026-05-02T14:23:58.587Z</time></trkpt><trkpt lat="42.1085417" lon="13.458245"><ele>1074.8</ele><time>2026-05-02T14:24:00.586Z</time></trkpt><trkpt lat="42.1085383" lon="13.4581517"><ele>1073.0</ele><time>2026-05-02T14:24:01.587Z</time></trkpt><trkpt lat="42.1085433" lon="13.4580533"><ele>1071.5</ele><time>2026-05-02T14:24:02.586Z</time></trkpt><trkpt lat="42.1085567" lon="13.4579517"><ele>1070.0</ele><time>2026-05-02T14:24:03.587Z</time></trkpt><trkpt lat="42.1085767" lon="13.4578483"><ele>1068.5</ele><time>2026-05-02T14:24:04.586Z</time></trkpt><trkpt lat="42.1086083" lon="13.4577483"><ele>1067.0</ele><time>2026-05-02T14:24:05.586Z</time></trkpt><trkpt lat="42.10864" lon="13.4576567"><ele>1065.5</ele><time>2026-05-02T14:24:06.587Z</time></trkpt><trkpt lat="42.1086467" lon="13.45752"><ele>1064.0</ele><time>2026-05-02T14:24:08.586Z</time></trkpt><trkpt lat="42.1086367" lon="13.4573933"><ele>1064.0</ele><time>2026-05-02T14:24:10.586Z</time></trkpt><trkpt lat="42.1086283" lon="13.4572317"><ele>1064.0</ele><time>2026-05-02T14:24:12.586Z</time></trkpt><trkpt lat="42.1086267" lon="13.4570383"><ele>1064.0</ele><time>2026-05-02T14:24:14.587Z</time></trkpt><trkpt lat="42.1086383" lon="13.4568717"><ele>1064.0</ele><time>2026-05-02T14:24:16.586Z</time></trkpt><trkpt lat="42.1086467" lon="13.4567717"><ele>1062.3333333333335</ele><time>2026-05-02T14:24:17.586Z</time></trkpt><trkpt lat="42.108655" lon="13.456665"><ele>1060.6666666666667</ele><time>2026-05-02T14:24:18.586Z</time></trkpt><trkpt lat="42.10865" lon="13.45656"><ele>1059.0</ele><time>2026-05-02T14:24:19.587Z</time></trkpt><trkpt lat="42.1086433" lon="13.456455"><ele>1057.3333333333333</ele><time>2026-05-02T14:24:20.586Z</time></trkpt><trkpt lat="42.1086367" lon="13.4563633"><ele>1055.6666666666665</ele><time>2026-05-02T14:24:21.586Z</time></trkpt><trkpt lat="42.1086067" lon="13.4561817"><ele>1054.0</ele><time>2026-05-02T14:24:23.587Z</time></trkpt><trkpt lat="42.1085817" lon="13.4560817"><ele>1052.8333333333333</ele><time>2026-05-02T14:24:24.587Z</time></trkpt><trkpt lat="42.1085533" lon="13.455985"><ele>1051.6666666666665</ele><time>2026-05-02T14:24:25.586Z</time></trkpt><trkpt lat="42.1085217" lon="13.4558983"><ele>1050.5</ele><time>2026-05-02T14:24:26.587Z</time></trkpt><trkpt lat="42.108495" lon="13.4558133"><ele>1049.3333333333333</ele><time>2026-05-02T14:24:27.587Z</time></trkpt><trkpt lat="42.108475" lon="13.4557133"><ele>1048.1666666666667</ele><time>2026-05-02T14:24:28.587Z</time></trkpt><trkpt lat="42.1084617" lon="13.4556117"><ele>1047.0</ele><time>2026-05-02T14:24:29.586Z</time></trkpt><trkpt lat="42.10845" lon="13.4554983"><ele>1046.1428571428573</ele><time>2026-05-02T14:24:30.586Z</time></trkpt><trkpt lat="42.108435" lon="13.4554017"><ele>1045.2857142857142</ele><time>2026-05-02T14:24:31.587Z</time></trkpt><trkpt lat="42.1084117" lon="13.4553067"><ele>1044.4285714285716</ele><time>2026-05-02T14:24:32.587Z</time></trkpt><trkpt lat="42.1083967" lon="13.4552117"><ele>1043.5714285714287</ele><time>2026-05-02T14:24:33.586Z</time></trkpt><trkpt lat="42.1083817" lon="13.4551217"><ele>1042.7142857142858</ele><time>2026-05-02T14:24:34.587Z</time></trkpt><trkpt lat="42.1083617" lon="13.455025"><ele>1041.857142857143</ele><time>2026-05-02T14:24:35.587Z</time></trkpt><trkpt lat="42.1083383" lon="13.45492"><ele>1041.0</ele><time>2026-05-02T14:24:36.586Z</time></trkpt><trkpt lat="42.1083133" lon="13.454815"><ele>1041.0</ele><time>2026-05-02T14:24:37.587Z</time></trkpt><trkpt lat="42.1082983" lon="13.4547117"><ele>1041.0</ele><time>2026-05-02T14:24:38.587Z</time></trkpt><trkpt lat="42.10829" lon="13.4545867"><ele>1041.0</ele><time>2026-05-02T14:24:39.586Z</time></trkpt><trkpt lat="42.1082633" lon="13.4543533"><ele>1041.0</ele><time>2026-05-02T14:24:41.587Z</time></trkpt><trkpt lat="42.10825" lon="13.4542267"><ele>1041.0</ele><time>2026-05-02T14:24:42.586Z</time></trkpt><trkpt lat="42.1082417" lon="13.4541"><ele>1038.3999999999999</ele><time>2026-05-02T14:24:43.586Z</time></trkpt><trkpt lat="42.108235" lon="13.45397"><ele>1035.8</ele><time>2026-05-02T14:24:44.587Z</time></trkpt><trkpt lat="42.108235" lon="13.4538417"><ele>1033.1999999999998</ele><time>2026-05-02T14:24:45.587Z</time></trkpt><trkpt lat="42.1082283" lon="13.453715"><ele>1030.6</ele><time>2026-05-02T14:24:46.587Z</time></trkpt><trkpt lat="42.1082183" lon="13.453605"><ele>1028.0</ele><time>2026-05-02T14:24:47.586Z</time></trkpt><trkpt lat="42.1082" lon="13.4534917"><ele>1026.4</ele><time>2026-05-02T14:24:48.586Z</time></trkpt><trkpt lat="42.1081717" lon="13.4533717"><ele>1024.8</ele><time>2026-05-02T14:24:49.587Z</time></trkpt><trkpt lat="42.108125" lon="13.45324"><ele>1023.2</ele><time>2026-05-02T14:24:50.587Z</time></trkpt><trkpt lat="42.1080817" lon="13.4531333"><ele>1021.6</ele><time>2026-05-02T14:24:51.586Z</time></trkpt><trkpt lat="42.108055" lon="13.4530183"><ele>1020.0</ele><time>2026-05-02T14:24:52.587Z</time></trkpt><trkpt lat="42.1080317" lon="13.4528933"><ele>1018.8</ele><time>2026-05-02T14:24:53.587Z</time></trkpt><trkpt lat="42.1080183" lon="13.452775"><ele>1017.6</ele><time>2026-05-02T14:24:54.587Z</time></trkpt><trkpt lat="42.1080167" lon="13.452645"><ele>1016.4000000000001</ele><time>2026-05-02T14:24:55.586Z</time></trkpt><trkpt lat="42.108015" lon="13.4525067"><ele>1015.2</ele><time>2026-05-02T14:24:56.587Z</time></trkpt><trkpt lat="42.1080183" lon="13.4523683"><ele>1014.0</ele><time>2026-05-02T14:24:57.587Z</time></trkpt><trkpt lat="42.1080233" lon="13.45225"><ele>1014.0</ele><time>2026-05-02T14:24:58.587Z</time></trkpt><trkpt lat="42.1080233" lon="13.4521383"><ele>1014.0</ele><time>2026-05-02T14:24:59.587Z</time></trkpt><trkpt lat="42.10802" lon="13.4520317"><ele>1014.0</ele><time>2026-05-02T14:25:00.587Z</time></trkpt><trkpt lat="42.1079933" lon="13.4519267"><ele>1014.0</ele><time>2026-05-02T14:25:01.587Z</time></trkpt><trkpt lat="42.1079583" lon="13.4518183"><ele>1014.0</ele><time>2026-05-02T14:25:02.586Z</time></trkpt><trkpt lat="42.10794" lon="13.4517133"><ele>1014.0</ele><time>2026-05-02T14:25:03.586Z</time></trkpt><trkpt lat="42.1079317" lon="13.4516233"><ele>1014.0</ele><time>2026-05-02T14:25:04.587Z</time></trkpt><trkpt lat="42.10792" lon="13.4514883"><ele>1014.0000000000001</ele><time>2026-05-02T14:25:06.586Z</time></trkpt><trkpt lat="42.1078833" lon="13.45132"><ele>1014.0000000000001</ele><time>2026-05-02T14:25:08.587Z</time></trkpt><trkpt lat="42.10785" lon="13.451215"><ele>1014.0</ele><time>2026-05-02T14:25:09.586Z</time></trkpt><trkpt lat="42.107805" lon="13.451115"><ele>1014.0</ele><time>2026-05-02T14:25:10.586Z</time></trkpt><trkpt lat="42.1077667" lon="13.4510067"><ele>1013.8000000000001</ele><time>2026-05-02T14:25:11.587Z</time></trkpt><trkpt lat="42.1077167" lon="13.4508867"><ele>1013.6000000000001</ele><time>2026-05-02T14:25:12.586Z</time></trkpt><trkpt lat="42.1076717" lon="13.45077"><ele>1013.4</ele><time>2026-05-02T14:25:13.586Z</time></trkpt><trkpt lat="42.10762" lon="13.4506467"><ele>1013.2</ele><time>2026-05-02T14:25:14.587Z</time></trkpt><trkpt lat="42.107555" lon="13.4505283"><ele>1013.0</ele><time>2026-05-02T14:25:15.587Z</time></trkpt><trkpt lat="42.1074983" lon="13.4504067"><ele>1012.2</ele><time>2026-05-02T14:25:16.586Z</time></trkpt><trkpt lat="42.1074433" lon="13.4502833"><ele>1011.4</ele><time>2026-05-02T14:25:17.587Z</time></trkpt><trkpt lat="42.1073867" lon="13.4501833"><ele>1010.6000000000001</ele><time>2026-05-02T14:25:18.586Z</time></trkpt><trkpt lat="42.107335" lon="13.45008"><ele>1009.8000000000001</ele><time>2026-05-02T14:25:19.586Z</time></trkpt><trkpt lat="42.1072867" lon="13.4499833"><ele>1009.0</ele><time>2026-05-02T14:25:20.586Z</time></trkpt><trkpt lat="42.107245" lon="13.4498867"><ele>1008.3333333333333</ele><time>2026-05-02T14:25:21.587Z</time></trkpt><trkpt lat="42.1072017" lon="13.44979"><ele>1007.6666666666666</ele><time>2026-05-02T14:25:22.587Z</time></trkpt><trkpt lat="42.1071667" lon="13.449705"><ele>1007.0</ele><time>2026-05-02T14:25:23.587Z</time></trkpt><trkpt lat="42.10712" lon="13.4496167"><ele>1006.3333333333333</ele><time>2026-05-02T14:25:24.587Z</time></trkpt><trkpt lat="42.1070717" lon="13.44953"><ele>1005.6666666666666</ele><time>2026-05-02T14:25:25.587Z</time></trkpt><trkpt lat="42.1070167" lon="13.4494483"><ele>1005.0</ele><time>2026-05-02T14:25:26.587Z</time></trkpt><trkpt lat="42.106975" lon="13.4493667"><ele>1004.5</ele><time>2026-05-02T14:25:27.587Z</time></trkpt><trkpt lat="42.1069367" lon="13.4492867"><ele>1004.0</ele><time>2026-05-02T14:25:28.587Z</time></trkpt><trkpt lat="42.1068967" lon="13.449185"><ele>1003.5</ele><time>2026-05-02T14:25:29.587Z</time></trkpt><trkpt lat="42.1068583" lon="13.44908"><ele>1003.0</ele><time>2026-05-02T14:25:30.586Z</time></trkpt><trkpt lat="42.106815" lon="13.4489783"><ele>1002.5</ele><time>2026-05-02T14:25:31.587Z</time></trkpt><trkpt lat="42.106775" lon="13.44887"><ele>1002.0</ele><time>2026-05-02T14:25:32.586Z</time></trkpt><trkpt lat="42.1067333" lon="13.4487517"><ele>1001.6666666666666</ele><time>2026-05-02T14:25:33.586Z</time></trkpt><trkpt lat="42.1066933" lon="13.44864"><ele>1001.3333333333333</ele><time>2026-05-02T14:25:34.587Z</time></trkpt><trkpt lat="42.1066567" lon="13.4485233"><ele>1001.0</ele><time>2026-05-02T14:25:35.587Z</time></trkpt><trkpt lat="42.106615" lon="13.4484117"><ele>1000.6666666666666</ele><time>2026-05-02T14:25:36.587Z</time></trkpt><trkpt lat="42.1065767" lon="13.448315"><ele>1000.3333333333333</ele><time>2026-05-02T14:25:37.587Z</time></trkpt><trkpt lat="42.106545" lon="13.4482383"><ele>1000.0</ele><time>2026-05-02T14:25:38.587Z</time></trkpt><trkpt lat="42.1064767" lon="13.44813"><ele>998.9999999999999</ele><time>2026-05-02T14:25:40.586Z</time></trkpt><trkpt lat="42.10635" lon="13.4480917"><ele>998.0</ele><time>2026-05-02T14:25:42.585Z</time></trkpt><trkpt lat="42.1062767" lon="13.44807"><ele>997.0</ele><time>2026-05-02T14:25:43.586Z</time></trkpt><trkpt lat="42.106205" lon="13.4480517"><ele>996.0</ele><time>2026-05-02T14:25:44.585Z</time></trkpt><trkpt lat="42.10614" lon="13.4480333"><ele>994.9999999999999</ele><time>2026-05-02T14:25:45.585Z</time></trkpt><trkpt lat="42.1060783" lon="13.4480083"><ele>994.0</ele><time>2026-05-02T14:25:46.585Z</time></trkpt><trkpt lat="42.10602" lon="13.4479733"><ele>993.6666666666666</ele><time>2026-05-02T14:25:47.585Z</time></trkpt><trkpt lat="42.1059267" lon="13.4478767"><ele>993.3333333333333</ele><time>2026-05-02T14:25:49.585Z</time></trkpt><trkpt lat="42.10589" lon="13.4478"><ele>993.0</ele><time>2026-05-02T14:25:50.586Z</time></trkpt><trkpt lat="42.1058583" lon="13.4477183"><ele>992.6666666666667</ele><time>2026-05-02T14:25:51.586Z</time></trkpt><trkpt lat="42.1058283" lon="13.4476183"><ele>992.3333333333334</ele><time>2026-05-02T14:25:52.585Z</time></trkpt><trkpt lat="42.105805" lon="13.44751"><ele>992.0</ele><time>2026-05-02T14:25:53.586Z</time></trkpt><trkpt lat="42.1057783" lon="13.4474033"><ele>992.0000000000001</ele><time>2026-05-02T14:25:54.586Z</time></trkpt><trkpt lat="42.1057517" lon="13.44731"><ele>992.0</ele><time>2026-05-02T14:25:55.585Z</time></trkpt><trkpt lat="42.105725" lon="13.4472133"><ele>992.0</ele><time>2026-05-02T14:25:56.586Z</time></trkpt><trkpt lat="42.10571" lon="13.44712"><ele>992.0</ele><time>2026-05-02T14:25:57.586Z</time></trkpt><trkpt lat="42.1057" lon="13.4469567"><ele>992.0000000000001</ele><time>2026-05-02T14:25:59.586Z</time></trkpt><trkpt lat="42.1057083" lon="13.44687"><ele>992.0</ele><time>2026-05-02T14:26:00.585Z</time></trkpt><trkpt lat="42.1057533" lon="13.4467217"><ele>990.8</ele><time>2026-05-02T14:26:02.585Z</time></trkpt><trkpt lat="42.1058133" lon="13.4465817"><ele>989.6</ele><time>2026-05-02T14:26:04.586Z</time></trkpt><trkpt lat="42.1058183" lon="13.44645"><ele>988.3999999999999</ele><time>2026-05-02T14:26:06.585Z</time></trkpt><trkpt lat="42.105775" lon="13.4463067"><ele>987.1999999999999</ele><time>2026-05-02T14:26:08.586Z</time></trkpt><trkpt lat="42.1057133" lon="13.4462033"><ele>986.0</ele><time>2026-05-02T14:26:10.586Z</time></trkpt><trkpt lat="42.1056567" lon="13.44609"><ele>984.5000000000001</ele><time>2026-05-02T14:26:12.585Z</time></trkpt><trkpt lat="42.1056283" lon="13.44601"><ele>983.0</ele><time>2026-05-02T14:26:13.585Z</time></trkpt><trkpt lat="42.1056" lon="13.4459317"><ele>981.5</ele><time>2026-05-02T14:26:14.585Z</time></trkpt><trkpt lat="42.105565" lon="13.445845"><ele>980.0</ele><time>2026-05-02T14:26:15.585Z</time></trkpt><trkpt lat="42.1055283" lon="13.445755"><ele>978.5000000000001</ele><time>2026-05-02T14:26:16.586Z</time></trkpt><trkpt lat="42.10549" lon="13.4456733"><ele>977.0</ele><time>2026-05-02T14:26:17.586Z</time></trkpt><trkpt lat="42.1054233" lon="13.445525"><ele>977.0</ele><time>2026-05-02T14:26:19.585Z</time></trkpt><trkpt lat="42.1053883" lon="13.445445"><ele>977.0</ele><time>2026-05-02T14:26:20.586Z</time></trkpt><trkpt lat="42.1053367" lon="13.4452933"><ele>977.0</ele><time>2026-05-02T14:26:22.585Z</time></trkpt><trkpt lat="42.1052867" lon="13.4451267"><ele>977.0</ele><time>2026-05-02T14:26:24.586Z</time></trkpt><trkpt lat="42.1052567" lon="13.44503"><ele>977.0</ele><time>2026-05-02T14:26:25.585Z</time></trkpt><trkpt lat="42.105205" lon="13.4449233"><ele>977.0</ele><time>2026-05-02T14:26:26.585Z</time></trkpt><trkpt lat="42.1051517" lon="13.444795"><ele>977.0</ele><time>2026-05-02T14:26:27.586Z</time></trkpt><trkpt lat="42.1051017" lon="13.4446683"><ele>977.0</ele><time>2026-05-02T14:26:28.586Z</time></trkpt><trkpt lat="42.10505" lon="13.44453"><ele>977.0</ele><time>2026-05-02T14:26:29.586Z</time></trkpt><trkpt lat="42.1050017" lon="13.4444117"><ele>977.0</ele><time>2026-05-02T14:26:30.586Z</time></trkpt><trkpt lat="42.1049517" lon="13.444285"><ele>976.2</ele><time>2026-05-02T14:26:31.586Z</time></trkpt><trkpt lat="42.1049033" lon="13.4441683"><ele>975.4000000000001</ele><time>2026-05-02T14:26:32.585Z</time></trkpt><trkpt lat="42.10486" lon="13.4440383"><ele>974.5999999999999</ele><time>2026-05-02T14:26:33.585Z</time></trkpt><trkpt lat="42.1048083" lon="13.44391"><ele>973.8</ele><time>2026-05-02T14:26:34.585Z</time></trkpt><trkpt lat="42.1047333" lon="13.4437883"><ele>973.0</ele><time>2026-05-02T14:26:35.586Z</time></trkpt><trkpt lat="42.104665" lon="13.44367"><ele>973.0</ele><time>2026-05-02T14:26:36.585Z</time></trkpt><trkpt lat="42.1046133" lon="13.4435317"><ele>973.0</ele><time>2026-05-02T14:26:37.586Z</time></trkpt><trkpt lat="42.1045733" lon="13.4433733"><ele>973.0</ele><time>2026-05-02T14:26:38.585Z</time></trkpt><trkpt lat="42.1045233" lon="13.4432183"><ele>973.0</ele><time>2026-05-02T14:26:39.585Z</time></trkpt><trkpt lat="42.1044467" lon="13.4430667"><ele>973.0</ele><time>2026-05-02T14:26:40.585Z</time></trkpt><trkpt lat="42.1043467" lon="13.4429283"><ele>973.0</ele><time>2026-05-02T14:26:41.585Z</time></trkpt><trkpt lat="42.1042517" lon="13.4427933"><ele>973.0</ele><time>2026-05-02T14:26:42.585Z</time></trkpt><trkpt lat="42.1041667" lon="13.4426483"><ele>973.0</ele><time>2026-05-02T14:26:43.585Z</time></trkpt><trkpt lat="42.104085" lon="13.44249"><ele>972.25</ele><time>2026-05-02T14:26:44.585Z</time></trkpt><trkpt lat="42.1040167" lon="13.44232"><ele>971.5</ele><time>2026-05-02T14:26:45.586Z</time></trkpt><trkpt lat="42.10395" lon="13.442125"><ele>970.75</ele><time>2026-05-02T14:26:46.585Z</time></trkpt><trkpt lat="42.1038833" lon="13.4419567"><ele>970.0</ele><time>2026-05-02T14:26:47.585Z</time></trkpt><trkpt lat="42.1038267" lon="13.441795"><ele>970.0</ele><time>2026-05-02T14:26:48.585Z</time></trkpt><trkpt lat="42.1037667" lon="13.4416317"><ele>970.0</ele><time>2026-05-02T14:26:49.585Z</time></trkpt><trkpt lat="42.10369" lon="13.44148"><ele>970.0</ele><time>2026-05-02T14:26:50.586Z</time></trkpt><trkpt lat="42.1035933" lon="13.4413583"><ele>970.0</ele><time>2026-05-02T14:26:51.585Z</time></trkpt><trkpt lat="42.103505" lon="13.44124"><ele>970.6</ele><time>2026-05-02T14:26:52.586Z</time></trkpt><trkpt lat="42.1034267" lon="13.4411267"><ele>971.2</ele><time>2026-05-02T14:26:53.585Z</time></trkpt><trkpt lat="42.10336" lon="13.4410233"><ele>971.8</ele><time>2026-05-02T14:26:54.586Z</time></trkpt><trkpt lat="42.1033017" lon="13.4409283"><ele>972.4</ele><time>2026-05-02T14:26:55.585Z</time></trkpt><trkpt lat="42.1032683" lon="13.4408417"><ele>973.0</ele><time>2026-05-02T14:26:56.585Z</time></trkpt><trkpt lat="42.10322" lon="13.4407217"><ele>972.8333333333333</ele><time>2026-05-02T14:26:58.585Z</time></trkpt><trkpt lat="42.1031683" lon="13.4406217"><ele>972.6666666666666</ele><time>2026-05-02T14:27:00.585Z</time></trkpt><trkpt lat="42.103115" lon="13.4405367"><ele>972.5</ele><time>2026-05-02T14:27:02.586Z</time></trkpt><trkpt lat="42.103055" lon="13.440445"><ele>972.3333333333333</ele><time>2026-05-02T14:27:04.586Z</time></trkpt><trkpt lat="42.1029767" lon="13.44034"><ele>972.1666666666666</ele><time>2026-05-02T14:27:06.586Z</time></trkpt><trkpt lat="42.10293" lon="13.44028"><ele>972.0</ele><time>2026-05-02T14:27:07.586Z</time></trkpt><trkpt lat="42.1028767" lon="13.4402183"><ele>972.0</ele><time>2026-05-02T14:27:08.585Z</time></trkpt><trkpt lat="42.1028133" lon="13.4401733"><ele>972.0</ele><time>2026-05-02T14:27:09.586Z</time></trkpt><trkpt lat="42.10274" lon="13.440135"><ele>972.0</ele><time>2026-05-02T14:27:10.585Z</time></trkpt><trkpt lat="42.102655" lon="13.4400983"><ele>972.0</ele><time>2026-05-02T14:27:11.585Z</time></trkpt><trkpt lat="42.1025683" lon="13.4400583"><ele>972.0</ele><time>2026-05-02T14:27:12.586Z</time></trkpt><trkpt lat="42.1024867" lon="13.4400117"><ele>972.0</ele><time>2026-05-02T14:27:13.585Z</time></trkpt><trkpt lat="42.1024033" lon="13.43995"><ele>971.75</ele><time>2026-05-02T14:27:14.585Z</time></trkpt><trkpt lat="42.102325" lon="13.4398683"><ele>971.5</ele><time>2026-05-02T14:27:15.586Z</time></trkpt><trkpt lat="42.1022433" lon="13.4397617"><ele>971.25</ele><time>2026-05-02T14:27:16.586Z</time></trkpt><trkpt lat="42.1021567" lon="13.439645"><ele>971.0</ele><time>2026-05-02T14:27:17.586Z</time></trkpt><trkpt lat="42.1020767" lon="13.4395267"><ele>972.25</ele><time>2026-05-02T14:27:18.585Z</time></trkpt><trkpt lat="42.1020117" lon="13.4394133"><ele>973.5</ele><time>2026-05-02T14:27:19.586Z</time></trkpt><trkpt lat="42.1019417" lon="13.4393"><ele>974.75</ele><time>2026-05-02T14:27:20.585Z</time></trkpt><trkpt lat="42.10186" lon="13.4391867"><ele>976.0</ele><time>2026-05-02T14:27:21.586Z</time></trkpt><trkpt lat="42.10177" lon="13.4390817"><ele>975.9999999999999</ele><time>2026-05-02T14:27:22.586Z</time></trkpt><trkpt lat="42.10169" lon="13.43898"><ele>976.0</ele><time>2026-05-02T14:27:23.586Z</time></trkpt><trkpt lat="42.1016217" lon="13.43889"><ele>976.0</ele><time>2026-05-02T14:27:24.586Z</time></trkpt><trkpt lat="42.1015617" lon="13.4388017"><ele>976.0</ele><time>2026-05-02T14:27:25.586Z</time></trkpt><trkpt lat="42.1015167" lon="13.4387233"><ele>975.9999999999999</ele><time>2026-05-02T14:27:26.585Z</time></trkpt><trkpt lat="42.1014733" lon="13.4386583"><ele>976.0</ele><time>2026-05-02T14:27:27.586Z</time></trkpt><trkpt lat="42.1013933" lon="13.4385417"><ele>975.8</ele><time>2026-05-02T14:27:29.586Z</time></trkpt><trkpt lat="42.10135" lon="13.43845"><ele>975.5999999999999</ele><time>2026-05-02T14:27:30.586Z</time></trkpt><trkpt lat="42.1012983" lon="13.4383367"><ele>975.4</ele><time>2026-05-02T14:27:31.585Z</time></trkpt><trkpt lat="42.1012267" lon="13.4382083"><ele>975.2</ele><time>2026-05-02T14:27:32.586Z</time></trkpt><trkpt lat="42.1011317" lon="13.4380633"><ele>975.0</ele><time>2026-05-02T14:27:33.586Z</time></trkpt><trkpt lat="42.1010317" lon="13.4379117"><ele>975.0</ele><time>2026-05-02T14:27:34.586Z</time></trkpt><trkpt lat="42.1009417" lon="13.437765"><ele>975.0</ele><time>2026-05-02T14:27:35.586Z</time></trkpt><trkpt lat="42.1008733" lon="13.437635"><ele>975.0</ele><time>2026-05-02T14:27:36.586Z</time></trkpt><trkpt lat="42.1008217" lon="13.43754"><ele>975.0</ele><time>2026-05-02T14:27:37.586Z</time></trkpt><trkpt lat="42.1007767" lon="13.43746"><ele>975.0</ele><time>2026-05-02T14:27:38.585Z</time></trkpt><trkpt lat="42.1007067" lon="13.4373483"><ele>974.5</ele><time>2026-05-02T14:27:40.586Z</time></trkpt><trkpt lat="42.10063" lon="13.437235"><ele>974.0</ele><time>2026-05-02T14:27:42.586Z</time></trkpt><trkpt lat="42.1005883" lon="13.4371633"><ele>973.5</ele><time>2026-05-02T14:27:43.585Z</time></trkpt><trkpt lat="42.1005483" lon="13.4370733"><ele>973.0</ele><time>2026-05-02T14:27:44.585Z</time></trkpt><trkpt lat="42.1005083" lon="13.4369783"><ele>972.5</ele><time>2026-05-02T14:27:45.585Z</time></trkpt><trkpt lat="42.1004583" lon="13.4368783"><ele>972.0</ele><time>2026-05-02T14:27:46.585Z</time></trkpt><trkpt lat="42.100405" lon="13.4367733"><ele>972.0</ele><time>2026-05-02T14:27:47.586Z</time></trkpt><trkpt lat="42.1003417" lon="13.43665"><ele>972.0</ele><time>2026-05-02T14:27:48.586Z</time></trkpt><trkpt lat="42.1002883" lon="13.4365383"><ele>972.0</ele><time>2026-05-02T14:27:49.586Z</time></trkpt><trkpt lat="42.1002217" lon="13.4364167"><ele>972.0</ele><time>2026-05-02T14:27:50.586Z</time></trkpt><trkpt lat="42.1001567" lon="13.4362833"><ele>972.0</ele><time>2026-05-02T14:27:51.585Z</time></trkpt><trkpt lat="42.1001033" lon="13.4361483"><ele>972.0</ele><time>2026-05-02T14:27:52.586Z</time></trkpt><trkpt lat="42.1000483" lon="13.43602"><ele>972.0</ele><time>2026-05-02T14:27:53.586Z</time></trkpt><trkpt lat="42.0999967" lon="13.4359"><ele>972.0</ele><time>2026-05-02T14:27:54.585Z</time></trkpt><trkpt lat="42.0999483" lon="13.4357783"><ele>972.0</ele><time>2026-05-02T14:27:55.586Z</time></trkpt><trkpt lat="42.099905" lon="13.4356517"><ele>972.0</ele><time>2026-05-02T14:27:56.585Z</time></trkpt><trkpt lat="42.0998567" lon="13.435525"><ele>972.4000000000001</ele><time>2026-05-02T14:27:57.585Z</time></trkpt><trkpt lat="42.09981" lon="13.4353983"><ele>972.8000000000001</ele><time>2026-05-02T14:27:58.585Z</time></trkpt><trkpt lat="42.0997667" lon="13.435275"><ele>973.2</ele><time>2026-05-02T14:27:59.585Z</time></trkpt><trkpt lat="42.099725" lon="13.4351483"><ele>973.6</ele><time>2026-05-02T14:28:00.586Z</time></trkpt><trkpt lat="42.0996867" lon="13.4350083"><ele>974.0</ele><time>2026-05-02T14:28:01.586Z</time></trkpt><trkpt lat="42.0996367" lon="13.4348683"><ele>974.0</ele><time>2026-05-02T14:28:02.585Z</time></trkpt><trkpt lat="42.099585" lon="13.434735"><ele>974.0000000000001</ele><time>2026-05-02T14:28:03.585Z</time></trkpt><trkpt lat="42.0995233" lon="13.4346033"><ele>974.0000000000001</ele><time>2026-05-02T14:28:04.586Z</time></trkpt><trkpt lat="42.0994733" lon="13.4344883"><ele>974.0</ele><time>2026-05-02T14:28:05.586Z</time></trkpt><trkpt lat="42.0994333" lon="13.4343817"><ele>974.0</ele><time>2026-05-02T14:28:06.585Z</time></trkpt><trkpt lat="42.0994" lon="13.434275"><ele>974.2</ele><time>2026-05-02T14:28:07.586Z</time></trkpt><trkpt lat="42.0993733" lon="13.4341883"><ele>974.4000000000001</ele><time>2026-05-02T14:28:08.586Z</time></trkpt><trkpt lat="42.09935" lon="13.4340667"><ele>974.6</ele><time>2026-05-02T14:28:10.586Z</time></trkpt><trkpt lat="42.0993317" lon="13.4339833"><ele>974.8</ele><time>2026-05-02T14:28:12.585Z</time></trkpt><trkpt lat="42.09929" lon="13.4338717"><ele>975.0</ele><time>2026-05-02T14:28:14.586Z</time></trkpt><trkpt lat="42.0991883" lon="13.433755"><ele>974.4</ele><time>2026-05-02T14:28:16.586Z</time></trkpt><trkpt lat="42.0991233" lon="13.4336933"><ele>973.8</ele><time>2026-05-02T14:28:17.585Z</time></trkpt><trkpt lat="42.0990467" lon="13.433615"><ele>973.2</ele><time>2026-05-02T14:28:18.585Z</time></trkpt><trkpt lat="42.0989617" lon="13.433525"><ele>972.6</ele><time>2026-05-02T14:28:19.585Z</time></trkpt><trkpt lat="42.0988667" lon="13.4334367"><ele>972.0</ele><time>2026-05-02T14:28:20.586Z</time></trkpt><trkpt lat="42.0987667" lon="13.4333267"><ele>972.0</ele><time>2026-05-02T14:28:21.586Z</time></trkpt><trkpt lat="42.09866" lon="13.433215"><ele>972.0</ele><time>2026-05-02T14:28:22.585Z</time></trkpt><trkpt lat="42.0985483" lon="13.4331083"><ele>972.0</ele><time>2026-05-02T14:28:23.585Z</time></trkpt><trkpt lat="42.098435" lon="13.4329967"><ele>972.0</ele><time>2026-05-02T14:28:24.586Z</time></trkpt><trkpt lat="42.0983233" lon="13.4328817"><ele>971.25</ele><time>2026-05-02T14:28:25.586Z</time></trkpt><trkpt lat="42.0982133" lon="13.4327767"><ele>970.5</ele><time>2026-05-02T14:28:26.585Z</time></trkpt><trkpt lat="42.0981167" lon="13.4326733"><ele>969.75</ele><time>2026-05-02T14:28:27.585Z</time></trkpt><trkpt lat="42.0980283" lon="13.4325883"><ele>969.0</ele><time>2026-05-02T14:28:28.585Z</time></trkpt><trkpt lat="42.0979617" lon="13.43252"><ele>969.0</ele><time>2026-05-02T14:28:29.585Z</time></trkpt><trkpt lat="42.0978883" lon="13.4324283"><ele>969.0000000000001</ele><time>2026-05-02T14:28:31.585Z</time></trkpt><trkpt lat="42.0979283" lon="13.432335"><ele>969.0000000000001</ele><time>2026-05-02T14:28:35.585Z</time></trkpt><trkpt lat="42.0979983" lon="13.43229"><ele>969.0</ele><time>2026-05-02T14:28:37.585Z</time></trkpt><trkpt lat="42.09809" lon="13.4322933"><ele>969.0</ele><time>2026-05-02T14:28:39.585Z</time></trkpt><trkpt lat="42.0982133" lon="13.4323767"><ele>967.8000000000001</ele><time>2026-05-02T14:28:41.586Z</time></trkpt><trkpt lat="42.098285" lon="13.4324367"><ele>966.6000000000001</ele><time>2026-05-02T14:28:42.585Z</time></trkpt><trkpt lat="42.09837" lon="13.4324967"><ele>965.4</ele><time>2026-05-02T14:28:43.585Z</time></trkpt><trkpt lat="42.0984517" lon="13.4325617"><ele>964.2</ele><time>2026-05-02T14:28:44.585Z</time></trkpt><trkpt lat="42.098535" lon="13.4326367"><ele>963.0</ele><time>2026-05-02T14:28:45.585Z</time></trkpt><trkpt lat="42.0986167" lon="13.432705"><ele>963.0</ele><time>2026-05-02T14:28:46.586Z</time></trkpt><trkpt lat="42.0986933" lon="13.4327767"><ele>963.0</ele><time>2026-05-02T14:28:47.585Z</time></trkpt><trkpt lat="42.0987667" lon="13.432835"><ele>963.0</ele><time>2026-05-02T14:28:48.586Z</time></trkpt><trkpt lat="42.0988667" lon="13.43288"><ele>963.0</ele><time>2026-05-02T14:28:49.586Z</time></trkpt><trkpt lat="42.098965" lon="13.4329167"><ele>963.0</ele><time>2026-05-02T14:28:50.585Z</time></trkpt><trkpt lat="42.09905" lon="13.4329433"><ele>964.0</ele><time>2026-05-02T14:28:51.586Z</time></trkpt><trkpt lat="42.09913" lon="13.4329583"><ele>965.0</ele><time>2026-05-02T14:28:52.585Z</time></trkpt><trkpt lat="42.0992117" lon="13.4329733"><ele>966.0</ele><time>2026-05-02T14:28:53.585Z</time></trkpt><trkpt lat="42.0992767" lon="13.4329967"><ele>967.0</ele><time>2026-05-02T14:28:54.585Z</time></trkpt><trkpt lat="42.099365" lon="13.4330867"><ele>968.0</ele><time>2026-05-02T14:28:56.586Z</time></trkpt><trkpt lat="42.0994583" lon="13.4330883"><ele>969.0</ele><time>2026-05-02T14:28:58.585Z</time></trkpt><trkpt lat="42.099565" lon="13.43302"><ele>965.2</ele><time>2026-05-02T14:29:00.585Z</time></trkpt><trkpt lat="42.0996683" lon="13.4329617"><ele>961.4000000000001</ele><time>2026-05-02T14:29:02.585Z</time></trkpt><trkpt lat="42.0997733" lon="13.43291"><ele>957.6</ele><time>2026-05-02T14:29:04.586Z</time></trkpt><trkpt lat="42.0998717" lon="13.43286"><ele>953.8</ele><time>2026-05-02T14:29:06.586Z</time></trkpt><trkpt lat="42.0999567" lon="13.4327867"><ele>950.0</ele><time>2026-05-02T14:29:08.586Z</time></trkpt><trkpt lat="42.100035" lon="13.4327017"><ele>950.0</ele><time>2026-05-02T14:29:10.586Z</time></trkpt><trkpt lat="42.1001017" lon="13.4326183"><ele>950.0</ele><time>2026-05-02T14:29:12.586Z</time></trkpt><trkpt lat="42.1001617" lon="13.4325067"><ele>950.0</ele><time>2026-05-02T14:29:14.585Z</time></trkpt><trkpt lat="42.1002067" lon="13.432375"><ele>950.0</ele><time>2026-05-02T14:29:16.585Z</time></trkpt><trkpt lat="42.1002483" lon="13.432275"><ele>950.0</ele><time>2026-05-02T14:29:18.585Z</time></trkpt><trkpt lat="42.1002833" lon="13.4322033"><ele>949.3333333333334</ele><time>2026-05-02T14:29:20.586Z</time></trkpt><trkpt lat="42.1003367" lon="13.432115"><ele>948.6666666666667</ele><time>2026-05-02T14:29:51.585Z</time></trkpt><trkpt lat="42.1002833" lon="13.4320283"><ele>948.0</ele><time>2026-05-02T14:30:36.585Z</time></trkpt><trkpt lat="42.100205" lon="13.4319467"><ele>947.3333333333333</ele><time>2026-05-02T14:30:52.584Z</time></trkpt><trkpt lat="42.100145" lon="13.43188"><ele>946.6666666666666</ele><time>2026-05-02T14:30:56.584Z</time></trkpt><trkpt lat="42.1000683" lon="13.4318867"><ele>946.0</ele><time>2026-05-02T14:31:02.584Z</time></trkpt><trkpt lat="42.1000033" lon="13.4319233"><ele>944.5999999999999</ele><time>2026-05-02T14:31:04.584Z</time></trkpt><trkpt lat="42.0999117" lon="13.431975"><ele>943.1999999999999</ele><time>2026-05-02T14:31:06.585Z</time></trkpt><trkpt lat="42.0998067" lon="13.4320383"><ele>941.8000000000001</ele><time>2026-05-02T14:31:08.585Z</time></trkpt><trkpt lat="42.0996983" lon="13.4320917"><ele>940.4000000000001</ele><time>2026-05-02T14:31:10.585Z</time></trkpt><trkpt lat="42.0995967" lon="13.4321183"><ele>939.0</ele><time>2026-05-02T14:31:12.584Z</time></trkpt><trkpt lat="42.0994967" lon="13.4321083"><ele>939.0</ele><time>2026-05-02T14:31:14.584Z</time></trkpt><trkpt lat="42.0994" lon="13.4320533"><ele>939.0</ele><time>2026-05-02T14:31:16.585Z</time></trkpt><trkpt lat="42.0993383" lon="13.4320083"><ele>939.0</ele><time>2026-05-02T14:31:17.584Z</time></trkpt><trkpt lat="42.09927" lon="13.4319833"><ele>939.0</ele><time>2026-05-02T14:31:18.584Z</time></trkpt><trkpt lat="42.0992" lon="13.43195"><ele>939.0</ele><time>2026-05-02T14:31:19.585Z</time></trkpt><trkpt lat="42.0991383" lon="13.431905"><ele>939.0</ele><time>2026-05-02T14:31:20.584Z</time></trkpt><trkpt lat="42.09907" lon="13.4318483"><ele>940.2</ele><time>2026-05-02T14:31:21.585Z</time></trkpt><trkpt lat="42.0989967" lon="13.4317683"><ele>941.4000000000001</ele><time>2026-05-02T14:31:22.585Z</time></trkpt><trkpt lat="42.0989317" lon="13.431685"><ele>942.6</ele><time>2026-05-02T14:31:23.584Z</time></trkpt><trkpt lat="42.0988667" lon="13.4315967"><ele>943.8</ele><time>2026-05-02T14:31:24.585Z</time></trkpt><trkpt lat="42.0988" lon="13.431515"><ele>945.0</ele><time>2026-05-02T14:31:25.585Z</time></trkpt><trkpt lat="42.0987367" lon="13.43143"><ele>945.0</ele><time>2026-05-02T14:31:26.584Z</time></trkpt><trkpt lat="42.09867" lon="13.431345"><ele>945.0</ele><time>2026-05-02T14:31:27.585Z</time></trkpt><trkpt lat="42.0986083" lon="13.4312633"><ele>945.0</ele><time>2026-05-02T14:31:28.585Z</time></trkpt><trkpt lat="42.0985383" lon="13.4311833"><ele>945.0</ele><time>2026-05-02T14:31:29.584Z</time></trkpt><trkpt lat="42.0984683" lon="13.431105"><ele>945.0</ele><time>2026-05-02T14:31:30.585Z</time></trkpt><trkpt lat="42.0983983" lon="13.4310367"><ele>945.0</ele><time>2026-05-02T14:31:31.584Z</time></trkpt><trkpt lat="42.0983317" lon="13.4309717"><ele>946.1666666666666</ele><time>2026-05-02T14:31:32.584Z</time></trkpt><trkpt lat="42.0982683" lon="13.4308967"><ele>947.3333333333333</ele><time>2026-05-02T14:31:33.584Z</time></trkpt><trkpt lat="42.098215" lon="13.4308133"><ele>948.5</ele><time>2026-05-02T14:31:34.584Z</time></trkpt><trkpt lat="42.0981617" lon="13.430725"><ele>949.6666666666666</ele><time>2026-05-02T14:31:35.585Z</time></trkpt><trkpt lat="42.0981033" lon="13.4306433"><ele>950.8333333333333</ele><time>2026-05-02T14:31:36.584Z</time></trkpt><trkpt lat="42.0980483" lon="13.4305683"><ele>952.0</ele><time>2026-05-02T14:31:37.585Z</time></trkpt><trkpt lat="42.0979983" lon="13.43049"><ele>950.2857142857142</ele><time>2026-05-02T14:31:38.585Z</time></trkpt><trkpt lat="42.0979533" lon="13.430405"><ele>948.5714285714286</ele><time>2026-05-02T14:31:39.584Z</time></trkpt><trkpt lat="42.097915" lon="13.4303083"><ele>946.8571428571429</ele><time>2026-05-02T14:31:40.584Z</time></trkpt><trkpt lat="42.0978783" lon="13.430225"><ele>945.1428571428571</ele><time>2026-05-02T14:31:41.585Z</time></trkpt><trkpt lat="42.0978383" lon="13.4301517"><ele>943.4285714285713</ele><time>2026-05-02T14:31:42.585Z</time></trkpt><trkpt lat="42.0977883" lon="13.43007"><ele>941.7142857142857</ele><time>2026-05-02T14:31:43.584Z</time></trkpt><trkpt lat="42.097755" lon="13.4299883"><ele>940.0</ele><time>2026-05-02T14:31:44.585Z</time></trkpt><trkpt lat="42.0977283" lon="13.4299017"><ele>940.0</ele><time>2026-05-02T14:31:45.585Z</time></trkpt><trkpt lat="42.097695" lon="13.4297933"><ele>940.0</ele><time>2026-05-02T14:31:46.584Z</time></trkpt><trkpt lat="42.097655" lon="13.4296833"><ele>940.0</ele><time>2026-05-02T14:31:47.585Z</time></trkpt><trkpt lat="42.097625" lon="13.4295683"><ele>940.0</ele><time>2026-05-02T14:31:48.585Z</time></trkpt><trkpt lat="42.0975933" lon="13.4294467"><ele>940.0</ele><time>2026-05-02T14:31:49.585Z</time></trkpt><trkpt lat="42.097565" lon="13.429315"><ele>940.8</ele><time>2026-05-02T14:31:50.585Z</time></trkpt><trkpt lat="42.0975333" lon="13.4291883"><ele>941.6</ele><time>2026-05-02T14:31:51.584Z</time></trkpt><trkpt lat="42.0975017" lon="13.4290617"><ele>942.4000000000001</ele><time>2026-05-02T14:31:52.585Z</time></trkpt><trkpt lat="42.09747" lon="13.4289383"><ele>943.2</ele><time>2026-05-02T14:31:53.584Z</time></trkpt><trkpt lat="42.0974383" lon="13.42881"><ele>944.0</ele><time>2026-05-02T14:31:54.585Z</time></trkpt><trkpt lat="42.0974033" lon="13.42867"><ele>944.0000000000001</ele><time>2026-05-02T14:31:55.584Z</time></trkpt><trkpt lat="42.0973717" lon="13.4285317"><ele>944.0</ele><time>2026-05-02T14:31:56.584Z</time></trkpt><trkpt lat="42.0973383" lon="13.4284083"><ele>944.0</ele><time>2026-05-02T14:31:57.585Z</time></trkpt><trkpt lat="42.0973117" lon="13.42829"><ele>944.0</ele><time>2026-05-02T14:31:58.585Z</time></trkpt><trkpt lat="42.0972833" lon="13.4281967"><ele>944.0000000000001</ele><time>2026-05-02T14:31:59.585Z</time></trkpt><trkpt lat="42.0972633" lon="13.4281083"><ele>944.0</ele><time>2026-05-02T14:32:00.584Z</time></trkpt><trkpt lat="42.0972417" lon="13.42802"><ele>942.3333333333334</ele><time>2026-05-02T14:32:01.585Z</time></trkpt><trkpt lat="42.097215" lon="13.4279233"><ele>940.6666666666667</ele><time>2026-05-02T14:32:02.585Z</time></trkpt><trkpt lat="42.0971933" lon="13.4278233"><ele>939.0</ele><time>2026-05-02T14:32:03.585Z</time></trkpt><trkpt lat="42.0971733" lon="13.4277217"><ele>937.3333333333333</ele><time>2026-05-02T14:32:04.584Z</time></trkpt><trkpt lat="42.097165" lon="13.4276217"><ele>935.6666666666666</ele><time>2026-05-02T14:32:05.585Z</time></trkpt><trkpt lat="42.0971483" lon="13.4275267"><ele>934.0</ele><time>2026-05-02T14:32:06.585Z</time></trkpt><trkpt lat="42.0971133" lon="13.4273983"><ele>934.0</ele><time>2026-05-02T14:32:07.585Z</time></trkpt><trkpt lat="42.0970783" lon="13.4272567"><ele>934.0000000000001</ele><time>2026-05-02T14:32:08.584Z</time></trkpt><trkpt lat="42.097055" lon="13.42712"><ele>934.0000000000001</ele><time>2026-05-02T14:32:09.585Z</time></trkpt><trkpt lat="42.097035" lon="13.4269933"><ele>934.0</ele><time>2026-05-02T14:32:10.584Z</time></trkpt><trkpt lat="42.0970117" lon="13.4268667"><ele>934.0</ele><time>2026-05-02T14:32:11.585Z</time></trkpt><trkpt lat="42.0969883" lon="13.4267383"><ele>932.6</ele><time>2026-05-02T14:32:12.585Z</time></trkpt><trkpt lat="42.0969717" lon="13.4266117"><ele>931.2</ele><time>2026-05-02T14:32:13.584Z</time></trkpt><trkpt lat="42.09695" lon="13.4264833"><ele>929.8000000000001</ele><time>2026-05-02T14:32:14.584Z</time></trkpt><trkpt lat="42.0969333" lon="13.4263583"><ele>928.4000000000001</ele><time>2026-05-02T14:32:15.584Z</time></trkpt><trkpt lat="42.09692" lon="13.42624"><ele>927.0</ele><time>2026-05-02T14:32:16.584Z</time></trkpt><trkpt lat="42.0968967" lon="13.4261133"><ele>926.2</ele><time>2026-05-02T14:32:17.585Z</time></trkpt><trkpt lat="42.0968733" lon="13.4259767"><ele>925.4000000000001</ele><time>2026-05-02T14:32:18.585Z</time></trkpt><trkpt lat="42.096845" lon="13.425845"><ele>924.5999999999999</ele><time>2026-05-02T14:32:19.584Z</time></trkpt><trkpt lat="42.0968217" lon="13.4257133"><ele>923.8</ele><time>2026-05-02T14:32:20.585Z</time></trkpt><trkpt lat="42.0968017" lon="13.4255817"><ele>923.0</ele><time>2026-05-02T14:32:21.584Z</time></trkpt><trkpt lat="42.0967683" lon="13.4254417"><ele>922.0</ele><time>2026-05-02T14:32:22.585Z</time></trkpt><trkpt lat="42.09672" lon="13.4252833"><ele>921.0</ele><time>2026-05-02T14:32:23.584Z</time></trkpt><trkpt lat="42.09667" lon="13.4251233"><ele>920.0</ele><time>2026-05-02T14:32:24.585Z</time></trkpt><trkpt lat="42.0966233" lon="13.424965"><ele>919.0</ele><time>2026-05-02T14:32:25.585Z</time></trkpt><trkpt lat="42.0965733" lon="13.4248217"><ele>919.5</ele><time>2026-05-02T14:32:26.585Z</time></trkpt><trkpt lat="42.0965183" lon="13.4246767"><ele>920.0</ele><time>2026-05-02T14:32:27.585Z</time></trkpt><trkpt lat="42.0964633" lon="13.424535"><ele>920.5</ele><time>2026-05-02T14:32:28.584Z</time></trkpt><trkpt lat="42.0964067" lon="13.4244033"><ele>921.0</ele><time>2026-05-02T14:32:29.585Z</time></trkpt><trkpt lat="42.0963533" lon="13.4242883"><ele>921.0</ele><time>2026-05-02T14:32:30.585Z</time></trkpt><trkpt lat="42.096285" lon="13.4241683"><ele>920.9999999999999</ele><time>2026-05-02T14:32:31.584Z</time></trkpt><trkpt lat="42.0962133" lon="13.424055"><ele>920.9999999999999</ele><time>2026-05-02T14:32:32.584Z</time></trkpt><trkpt lat="42.0961483" lon="13.4239417"><ele>921.0</ele><time>2026-05-02T14:32:33.584Z</time></trkpt><trkpt lat="42.0960817" lon="13.4238333"><ele>921.0</ele><time>2026-05-02T14:32:34.585Z</time></trkpt><trkpt lat="42.09602" lon="13.4237233"><ele>919.0</ele><time>2026-05-02T14:32:35.585Z</time></trkpt><trkpt lat="42.0959567" lon="13.4235967"><ele>917.0</ele><time>2026-05-02T14:32:36.584Z</time></trkpt><trkpt lat="42.0958933" lon="13.4234683"><ele>915.0</ele><time>2026-05-02T14:32:37.585Z</time></trkpt><trkpt lat="42.0958433" lon="13.4233333"><ele>913.0</ele><time>2026-05-02T14:32:38.584Z</time></trkpt><trkpt lat="42.095795" lon="13.4231967"><ele>915.8</ele><time>2026-05-02T14:32:39.585Z</time></trkpt><trkpt lat="42.095745" lon="13.4230633"><ele>918.5999999999999</ele><time>2026-05-02T14:32:40.585Z</time></trkpt><trkpt lat="42.0957033" lon="13.4229367"><ele>921.4000000000001</ele><time>2026-05-02T14:32:41.585Z</time></trkpt><trkpt lat="42.0956717" lon="13.4228183"><ele>924.2</ele><time>2026-05-02T14:32:42.585Z</time></trkpt><trkpt lat="42.0956517" lon="13.42268"><ele>927.0</ele><time>2026-05-02T14:32:43.585Z</time></trkpt><trkpt lat="42.0956367" lon="13.4225367"><ele>927.0</ele><time>2026-05-02T14:32:44.584Z</time></trkpt><trkpt lat="42.0956217" lon="13.422375"><ele>927.0</ele><time>2026-05-02T14:32:45.585Z</time></trkpt><trkpt lat="42.0956117" lon="13.4222133"><ele>927.0</ele><time>2026-05-02T14:32:46.584Z</time></trkpt><trkpt lat="42.0955983" lon="13.4220517"><ele>927.0</ele><time>2026-05-02T14:32:47.584Z</time></trkpt><trkpt lat="42.0955833" lon="13.4218883"><ele>925.75</ele><time>2026-05-02T14:32:48.585Z</time></trkpt><trkpt lat="42.095575" lon="13.4217217"><ele>924.5</ele><time>2026-05-02T14:32:49.584Z</time></trkpt><trkpt lat="42.095565" lon="13.4215517"><ele>923.25</ele><time>2026-05-02T14:32:50.585Z</time></trkpt><trkpt lat="42.095555" lon="13.4213483"><ele>922.0</ele><time>2026-05-02T14:32:51.585Z</time></trkpt><trkpt lat="42.0955433" lon="13.4211367"><ele>920.0</ele><time>2026-05-02T14:32:52.585Z</time></trkpt><trkpt lat="42.0955383" lon="13.42094"><ele>918.0</ele><time>2026-05-02T14:32:53.585Z</time></trkpt><trkpt lat="42.0955417" lon="13.4207617"><ele>916.0</ele><time>2026-05-02T14:32:54.585Z</time></trkpt><trkpt lat="42.095545" lon="13.42059"><ele>914.0</ele><time>2026-05-02T14:32:55.585Z</time></trkpt><trkpt lat="42.0955417" lon="13.4204283"><ele>913.8000000000001</ele><time>2026-05-02T14:32:56.584Z</time></trkpt><trkpt lat="42.0955367" lon="13.420265"><ele>913.6000000000001</ele><time>2026-05-02T14:32:57.584Z</time></trkpt><trkpt lat="42.0955167" lon="13.42011"><ele>913.4</ele><time>2026-05-02T14:32:58.584Z</time></trkpt><trkpt lat="42.09549" lon="13.41997"><ele>913.2</ele><time>2026-05-02T14:32:59.583Z</time></trkpt><trkpt lat="42.0954767" lon="13.4198467"><ele>913.0</ele><time>2026-05-02T14:33:00.583Z</time></trkpt><trkpt lat="42.0954733" lon="13.419725"><ele>912.3333333333333</ele><time>2026-05-02T14:33:01.584Z</time></trkpt><trkpt lat="42.09547" lon="13.4196083"><ele>911.6666666666666</ele><time>2026-05-02T14:33:02.583Z</time></trkpt><trkpt lat="42.0954717" lon="13.4194933"><ele>911.0</ele><time>2026-05-02T14:33:03.584Z</time></trkpt><trkpt lat="42.0954767" lon="13.4193783"><ele>910.3333333333333</ele><time>2026-05-02T14:33:04.583Z</time></trkpt><trkpt lat="42.0954817" lon="13.4192533"><ele>909.6666666666666</ele><time>2026-05-02T14:33:05.583Z</time></trkpt><trkpt lat="42.0954833" lon="13.4191233"><ele>909.0</ele><time>2026-05-02T14:33:06.583Z</time></trkpt><trkpt lat="42.0954867" lon="13.4189917"><ele>909.0</ele><time>2026-05-02T14:33:07.584Z</time></trkpt><trkpt lat="42.0954883" lon="13.4188617"><ele>909.0000000000001</ele><time>2026-05-02T14:33:08.584Z</time></trkpt><trkpt lat="42.0954817" lon="13.4187383"><ele>909.0000000000001</ele><time>2026-05-02T14:33:09.583Z</time></trkpt><trkpt lat="42.095475" lon="13.4186117"><ele>909.0</ele><time>2026-05-02T14:33:10.583Z</time></trkpt><trkpt lat="42.0954683" lon="13.4184717"><ele>909.0</ele><time>2026-05-02T14:33:11.583Z</time></trkpt><trkpt lat="42.095465" lon="13.4183267"><ele>908.0</ele><time>2026-05-02T14:33:12.584Z</time></trkpt><trkpt lat="42.0954683" lon="13.41818"><ele>907.0000000000001</ele><time>2026-05-02T14:33:13.583Z</time></trkpt><trkpt lat="42.0954667" lon="13.418045"><ele>906.0000000000001</ele><time>2026-05-02T14:33:14.583Z</time></trkpt><trkpt lat="42.095465" lon="13.417915"><ele>905.0</ele><time>2026-05-02T14:33:15.584Z</time></trkpt><trkpt lat="42.0954583" lon="13.4177917"><ele>904.0</ele><time>2026-05-02T14:33:16.583Z</time></trkpt><trkpt lat="42.0954317" lon="13.4176633"><ele>902.75</ele><time>2026-05-02T14:33:17.583Z</time></trkpt><trkpt lat="42.09539" lon="13.4175317"><ele>901.5</ele><time>2026-05-02T14:33:18.584Z</time></trkpt><trkpt lat="42.0953517" lon="13.4173933"><ele>900.25</ele><time>2026-05-02T14:33:19.583Z</time></trkpt><trkpt lat="42.0953183" lon="13.4172333"><ele>899.0</ele><time>2026-05-02T14:33:20.583Z</time></trkpt><trkpt lat="42.095295" lon="13.417075"><ele>898.0000000000001</ele><time>2026-05-02T14:33:21.584Z</time></trkpt><trkpt lat="42.095265" lon="13.416915"><ele>897.0</ele><time>2026-05-02T14:33:22.584Z</time></trkpt><trkpt lat="42.0952417" lon="13.416785"><ele>896.0</ele><time>2026-05-02T14:33:23.583Z</time></trkpt><trkpt lat="42.0952183" lon="13.4166783"><ele>895.0</ele><time>2026-05-02T14:33:24.583Z</time></trkpt><trkpt lat="42.0951967" lon="13.416595"><ele>894.0000000000001</ele><time>2026-05-02T14:33:25.583Z</time></trkpt><trkpt lat="42.095195" lon="13.4164967"><ele>893.0</ele><time>2026-05-02T14:33:28.583Z</time></trkpt><trkpt lat="42.0952667" lon="13.4164783"><ele>893.0000000000001</ele><time>2026-05-02T14:33:30.584Z</time></trkpt><trkpt lat="42.0953783" lon="13.4164217"><ele>893.0</ele><time>2026-05-02T14:33:32.583Z</time></trkpt><trkpt lat="42.0954317" lon="13.416365"><ele>893.0</ele><time>2026-05-02T14:33:33.584Z</time></trkpt><trkpt lat="42.095485" lon="13.4162917"><ele>893.0</ele><time>2026-05-02T14:33:34.584Z</time></trkpt><trkpt lat="42.0955417" lon="13.41621"><ele>893.0000000000001</ele><time>2026-05-02T14:33:35.583Z</time></trkpt><trkpt lat="42.0955917" lon="13.416125"><ele>893.0</ele><time>2026-05-02T14:33:36.583Z</time></trkpt><trkpt lat="42.0956283" lon="13.4160317"><ele>893.3333333333334</ele><time>2026-05-02T14:33:37.584Z</time></trkpt><trkpt lat="42.095645" lon="13.4159317"><ele>893.6666666666667</ele><time>2026-05-02T14:33:38.583Z</time></trkpt><trkpt lat="42.09565" lon="13.4158083"><ele>894.0</ele><time>2026-05-02T14:33:39.584Z</time></trkpt><trkpt lat="42.095655" lon="13.41568"><ele>894.3333333333333</ele><time>2026-05-02T14:33:40.584Z</time></trkpt><trkpt lat="42.0956767" lon="13.4155667"><ele>894.6666666666666</ele><time>2026-05-02T14:33:41.583Z</time></trkpt><trkpt lat="42.0957117" lon="13.41548"><ele>895.0</ele><time>2026-05-02T14:33:42.583Z</time></trkpt><trkpt lat="42.095765" lon="13.415395"><ele>895.0</ele><time>2026-05-02T14:33:43.584Z</time></trkpt><trkpt lat="42.0958433" lon="13.4152933"><ele>895.0</ele><time>2026-05-02T14:33:44.584Z</time></trkpt><trkpt lat="42.09593" lon="13.41517"><ele>895.0</ele><time>2026-05-02T14:33:45.583Z</time></trkpt><trkpt lat="42.0960117" lon="13.4150533"><ele>895.0</ele><time>2026-05-02T14:33:46.583Z</time></trkpt><trkpt lat="42.09609" lon="13.41496"><ele>895.0</ele><time>2026-05-02T14:33:47.584Z</time></trkpt><trkpt lat="42.0961617" lon="13.4148933"><ele>895.0</ele><time>2026-05-02T14:33:48.583Z</time></trkpt><trkpt lat="42.0962367" lon="13.4148367"><ele>895.0</ele><time>2026-05-02T14:33:49.583Z</time></trkpt><trkpt lat="42.09632" lon="13.4147733"><ele>895.0</ele><time>2026-05-02T14:33:50.584Z</time></trkpt><trkpt lat="42.096415" lon="13.4147033"><ele>895.0</ele><time>2026-05-02T14:33:51.583Z</time></trkpt><trkpt lat="42.0965067" lon="13.41464"><ele>895.8</ele><time>2026-05-02T14:33:52.583Z</time></trkpt><trkpt lat="42.0965967" lon="13.414585"><ele>896.6</ele><time>2026-05-02T14:33:53.583Z</time></trkpt><trkpt lat="42.0966917" lon="13.4145267"><ele>897.4000000000001</ele><time>2026-05-02T14:33:54.583Z</time></trkpt><trkpt lat="42.096785" lon="13.4144733"><ele>898.2</ele><time>2026-05-02T14:33:55.584Z</time></trkpt><trkpt lat="42.0968683" lon="13.4144283"><ele>899.0</ele><time>2026-05-02T14:33:56.583Z</time></trkpt><trkpt lat="42.0969467" lon="13.414385"><ele>899.0</ele><time>2026-05-02T14:33:57.584Z</time></trkpt><trkpt lat="42.097025" lon="13.41436"><ele>899.0000000000001</ele><time>2026-05-02T14:33:58.584Z</time></trkpt><trkpt lat="42.09711" lon="13.4143267"><ele>899.0000000000001</ele><time>2026-05-02T14:33:59.584Z</time></trkpt><trkpt lat="42.09719" lon="13.4142717"><ele>899.0</ele><time>2026-05-02T14:34:00.584Z</time></trkpt><trkpt lat="42.097265" lon="13.4141933"><ele>899.0</ele><time>2026-05-02T14:34:01.584Z</time></trkpt><trkpt lat="42.09734" lon="13.4140933"><ele>899.0</ele><time>2026-05-02T14:34:02.583Z</time></trkpt><trkpt lat="42.09741" lon="13.4139933"><ele>899.0000000000001</ele><time>2026-05-02T14:34:03.584Z</time></trkpt><trkpt lat="42.0974867" lon="13.413915"><ele>899.0000000000001</ele><time>2026-05-02T14:34:04.584Z</time></trkpt><trkpt lat="42.09757" lon="13.4138583"><ele>899.0</ele><time>2026-05-02T14:34:05.583Z</time></trkpt><trkpt lat="42.0976583" lon="13.4138183"><ele>899.0</ele><time>2026-05-02T14:34:06.584Z</time></trkpt><trkpt lat="42.09776" lon="13.413785"><ele>898.6</ele><time>2026-05-02T14:34:07.584Z</time></trkpt><trkpt lat="42.0978583" lon="13.41376"><ele>898.2</ele><time>2026-05-02T14:34:08.584Z</time></trkpt><trkpt lat="42.0979567" lon="13.41373"><ele>897.8000000000001</ele><time>2026-05-02T14:34:09.583Z</time></trkpt><trkpt lat="42.0980467" lon="13.4137033"><ele>897.4000000000001</ele><time>2026-05-02T14:34:10.584Z</time></trkpt><trkpt lat="42.0981317" lon="13.4136533"><ele>897.0</ele><time>2026-05-02T14:34:11.584Z</time></trkpt><trkpt lat="42.0982233" lon="13.4135833"><ele>897.25</ele><time>2026-05-02T14:34:12.583Z</time></trkpt><trkpt lat="42.0983333" lon="13.4134933"><ele>897.5</ele><time>2026-05-02T14:34:13.584Z</time></trkpt><trkpt lat="42.0984533" lon="13.4133933"><ele>897.75</ele><time>2026-05-02T14:34:14.583Z</time></trkpt><trkpt lat="42.0985717" lon="13.41329"><ele>898.0</ele><time>2026-05-02T14:34:15.584Z</time></trkpt><trkpt lat="42.0986817" lon="13.4131817"><ele>898.0</ele><time>2026-05-02T14:34:16.584Z</time></trkpt><trkpt lat="42.0987767" lon="13.4130567"><ele>898.0</ele><time>2026-05-02T14:34:17.584Z</time></trkpt><trkpt lat="42.0988717" lon="13.4129367"><ele>898.0</ele><time>2026-05-02T14:34:18.584Z</time></trkpt><trkpt lat="42.0989633" lon="13.4128117"><ele>898.0</ele><time>2026-05-02T14:34:19.584Z</time></trkpt><trkpt lat="42.0990533" lon="13.4127"><ele>897.0</ele><time>2026-05-02T14:34:20.583Z</time></trkpt><trkpt lat="42.0991383" lon="13.4125767"><ele>896.0</ele><time>2026-05-02T14:34:21.584Z</time></trkpt><trkpt lat="42.0992117" lon="13.41245"><ele>895.0</ele><time>2026-05-02T14:34:22.584Z</time></trkpt><trkpt lat="42.09928" lon="13.4123183"><ele>894.0</ele><time>2026-05-02T14:34:23.583Z</time></trkpt><trkpt lat="42.0993383" lon="13.4121733"><ele>892.75</ele><time>2026-05-02T14:34:24.584Z</time></trkpt><trkpt lat="42.0993917" lon="13.4120233"><ele>891.5</ele><time>2026-05-02T14:34:25.584Z</time></trkpt><trkpt lat="42.0994517" lon="13.4118867"><ele>890.25</ele><time>2026-05-02T14:34:26.583Z</time></trkpt><trkpt lat="42.09952" lon="13.4117667"><ele>889.0</ele><time>2026-05-02T14:34:27.583Z</time></trkpt><trkpt lat="42.099595" lon="13.4116533"><ele>888.9999999999999</ele><time>2026-05-02T14:34:28.584Z</time></trkpt><trkpt lat="42.0996617" lon="13.4115467"><ele>889.0</ele><time>2026-05-02T14:34:29.584Z</time></trkpt><trkpt lat="42.099715" lon="13.4114683"><ele>889.0</ele><time>2026-05-02T14:34:30.583Z</time></trkpt><trkpt lat="42.099815" lon="13.411395"><ele>889.0</ele><time>2026-05-02T14:34:32.583Z</time></trkpt><trkpt lat="42.09988" lon="13.4113717"><ele>888.9999999999999</ele><time>2026-05-02T14:34:33.583Z</time></trkpt><trkpt lat="42.0999467" lon="13.4113333"><ele>889.0</ele><time>2026-05-02T14:34:34.583Z</time></trkpt><trkpt lat="42.1000133" lon="13.4112617"><ele>888.0</ele><time>2026-05-02T14:34:35.584Z</time></trkpt><trkpt lat="42.1000917" lon="13.41115"><ele>887.0</ele><time>2026-05-02T14:34:36.583Z</time></trkpt><trkpt lat="42.10018" lon="13.4110183"><ele>886.0</ele><time>2026-05-02T14:34:37.583Z</time></trkpt><trkpt lat="42.10027" lon="13.4108817"><ele>885.0</ele><time>2026-05-02T14:34:38.583Z</time></trkpt><trkpt lat="42.100345" lon="13.4107467"><ele>885.0</ele><time>2026-05-02T14:34:39.584Z</time></trkpt><trkpt lat="42.10042" lon="13.4106233"><ele>885.0</ele><time>2026-05-02T14:34:40.583Z</time></trkpt><trkpt lat="42.1004967" lon="13.4105033"><ele>885.0</ele><time>2026-05-02T14:34:41.583Z</time></trkpt><trkpt lat="42.1005667" lon="13.4103867"><ele>885.0</ele><time>2026-05-02T14:34:42.583Z</time></trkpt><trkpt lat="42.1006267" lon="13.4102767"><ele>885.0</ele><time>2026-05-02T14:34:43.583Z</time></trkpt><trkpt lat="42.1006833" lon="13.4101483"><ele>884.0</ele><time>2026-05-02T14:34:44.583Z</time></trkpt><trkpt lat="42.1007367" lon="13.4100017"><ele>883.0</ele><time>2026-05-02T14:34:45.583Z</time></trkpt><trkpt lat="42.1007867" lon="13.4098517"><ele>882.0</ele><time>2026-05-02T14:34:46.584Z</time></trkpt><trkpt lat="42.1008433" lon="13.409705"><ele>881.0</ele><time>2026-05-02T14:34:47.584Z</time></trkpt><trkpt lat="42.10089" lon="13.40956"><ele>879.5</ele><time>2026-05-02T14:34:48.584Z</time></trkpt><trkpt lat="42.100945" lon="13.4094"><ele>878.0</ele><time>2026-05-02T14:34:49.584Z</time></trkpt><trkpt lat="42.101" lon="13.4092483"><ele>876.5</ele><time>2026-05-02T14:34:50.584Z</time></trkpt><trkpt lat="42.1010567" lon="13.409105"><ele>875.0</ele><time>2026-05-02T14:34:51.584Z</time></trkpt><trkpt lat="42.1011083" lon="13.4089667"><ele>875.0</ele><time>2026-05-02T14:34:52.584Z</time></trkpt><trkpt lat="42.1011617" lon="13.4088417"><ele>875.0</ele><time>2026-05-02T14:34:53.583Z</time></trkpt><trkpt lat="42.10121" lon="13.4087117"><ele>875.0</ele><time>2026-05-02T14:34:54.584Z</time></trkpt><trkpt lat="42.1012567" lon="13.408585"><ele>875.0</ele><time>2026-05-02T14:34:55.584Z</time></trkpt><trkpt lat="42.1012983" lon="13.408455"><ele>875.0</ele><time>2026-05-02T14:34:56.583Z</time></trkpt><trkpt lat="42.1013383" lon="13.4083233"><ele>874.0</ele><time>2026-05-02T14:34:57.583Z</time></trkpt><trkpt lat="42.1013783" lon="13.4081933"><ele>873.0</ele><time>2026-05-02T14:34:58.584Z</time></trkpt><trkpt lat="42.10141" lon="13.4080683"><ele>872.0</ele><time>2026-05-02T14:34:59.583Z</time></trkpt><trkpt lat="42.101435" lon="13.40794"><ele>871.0</ele><time>2026-05-02T14:35:00.584Z</time></trkpt><trkpt lat="42.10146" lon="13.40781"><ele>870.0</ele><time>2026-05-02T14:35:01.584Z</time></trkpt><trkpt lat="42.1015017" lon="13.4076783"><ele>869.6</ele><time>2026-05-02T14:35:02.583Z</time></trkpt><trkpt lat="42.1015567" lon="13.40755"><ele>869.2</ele><time>2026-05-02T14:35:03.583Z</time></trkpt><trkpt lat="42.10161" lon="13.40743"><ele>868.8</ele><time>2026-05-02T14:35:04.584Z</time></trkpt><trkpt lat="42.1016583" lon="13.4073133"><ele>868.4</ele><time>2026-05-02T14:35:05.583Z</time></trkpt><trkpt lat="42.101705" lon="13.4072067"><ele>868.0</ele><time>2026-05-02T14:35:06.584Z</time></trkpt><trkpt lat="42.1017433" lon="13.407105"><ele>866.6666666666666</ele><time>2026-05-02T14:35:07.584Z</time></trkpt><trkpt lat="42.1017833" lon="13.40701"><ele>865.3333333333333</ele><time>2026-05-02T14:35:08.583Z</time></trkpt><trkpt lat="42.1018217" lon="13.4069167"><ele>864.0</ele><time>2026-05-02T14:35:09.583Z</time></trkpt><trkpt lat="42.10186" lon="13.4068233"><ele>862.6666666666667</ele><time>2026-05-02T14:35:10.584Z</time></trkpt><trkpt lat="42.1018967" lon="13.40674"><ele>861.3333333333334</ele><time>2026-05-02T14:35:11.583Z</time></trkpt><trkpt lat="42.101945" lon="13.4066617"><ele>860.0</ele><time>2026-05-02T14:35:12.583Z</time></trkpt><trkpt lat="42.1020033" lon="13.4065833"><ele>860.0000000000001</ele><time>2026-05-02T14:35:13.583Z</time></trkpt><trkpt lat="42.1020733" lon="13.40651"><ele>860.0</ele><time>2026-05-02T14:35:14.583Z</time></trkpt><trkpt lat="42.1021483" lon="13.4064483"><ele>860.0</ele><time>2026-05-02T14:35:15.583Z</time></trkpt><trkpt lat="42.1022217" lon="13.406385"><ele>860.0</ele><time>2026-05-02T14:35:16.583Z</time></trkpt><trkpt lat="42.1022867" lon="13.4063217"><ele>860.0000000000001</ele><time>2026-05-02T14:35:17.584Z</time></trkpt><trkpt lat="42.1023433" lon="13.40625"><ele>860.0</ele><time>2026-05-02T14:35:18.584Z</time></trkpt><trkpt lat="42.1023933" lon="13.4061783"><ele>858.8</ele><time>2026-05-02T14:35:19.583Z</time></trkpt><trkpt lat="42.1024633" lon="13.40606"><ele>857.6</ele><time>2026-05-02T14:35:21.583Z</time></trkpt><trkpt lat="42.10251" lon="13.4059867"><ele>856.4000000000001</ele><time>2026-05-02T14:35:23.583Z</time></trkpt><trkpt lat="42.1025667" lon="13.405895"><ele>855.2</ele><time>2026-05-02T14:35:26.584Z</time></trkpt><trkpt lat="42.102615" lon="13.40578"><ele>854.0</ele><time>2026-05-02T14:35:29.584Z</time></trkpt><trkpt lat="42.1026367" lon="13.4056367"><ele>853.4000000000001</ele><time>2026-05-02T14:35:31.584Z</time></trkpt><trkpt lat="42.10267" lon="13.40547"><ele>852.8000000000001</ele><time>2026-05-02T14:35:33.583Z</time></trkpt><trkpt lat="42.1026967" lon="13.4053817"><ele>852.2</ele><time>2026-05-02T14:35:34.583Z</time></trkpt><trkpt lat="42.1027333" lon="13.4052767"><ele>851.5999999999999</ele><time>2026-05-02T14:35:35.584Z</time></trkpt><trkpt lat="42.10278" lon="13.4051617"><ele>851.0</ele><time>2026-05-02T14:35:36.584Z</time></trkpt><trkpt lat="42.1028283" lon="13.40504"><ele>851.0</ele><time>2026-05-02T14:35:37.584Z</time></trkpt><trkpt lat="42.1028767" lon="13.404915"><ele>851.0</ele><time>2026-05-02T14:35:38.583Z</time></trkpt><trkpt lat="42.1029267" lon="13.4047917"><ele>851.0</ele><time>2026-05-02T14:35:39.584Z</time></trkpt><trkpt lat="42.10297" lon="13.4046683"><ele>851.0</ele><time>2026-05-02T14:35:40.583Z</time></trkpt><trkpt lat="42.10301" lon="13.4045433"><ele>851.0</ele><time>2026-05-02T14:35:41.584Z</time></trkpt><trkpt lat="42.103045" lon="13.404425"><ele>850.4</ele><time>2026-05-02T14:35:42.583Z</time></trkpt><trkpt lat="42.1030817" lon="13.40431"><ele>849.8</ele><time>2026-05-02T14:35:43.584Z</time></trkpt><trkpt lat="42.1031283" lon="13.4041817"><ele>849.1999999999999</ele><time>2026-05-02T14:35:44.584Z</time></trkpt><trkpt lat="42.103175" lon="13.4040567"><ele>848.5999999999999</ele><time>2026-05-02T14:35:45.583Z</time></trkpt><trkpt lat="42.103225" lon="13.4039317"><ele>848.0</ele><time>2026-05-02T14:35:46.583Z</time></trkpt><trkpt lat="42.1032783" lon="13.4038117"><ele>847.2</ele><time>2026-05-02T14:35:47.584Z</time></trkpt><trkpt lat="42.1033317" lon="13.403685"><ele>846.4</ele><time>2026-05-02T14:35:48.584Z</time></trkpt><trkpt lat="42.103385" lon="13.4035783"><ele>845.6</ele><time>2026-05-02T14:35:49.584Z</time></trkpt><trkpt lat="42.10344" lon="13.4034733"><ele>844.8000000000001</ele><time>2026-05-02T14:35:50.583Z</time></trkpt><trkpt lat="42.103495" lon="13.4033567"><ele>844.0</ele><time>2026-05-02T14:35:51.583Z</time></trkpt><trkpt lat="42.1035483" lon="13.4032433"><ele>844.0</ele><time>2026-05-02T14:35:52.583Z</time></trkpt><trkpt lat="42.1036067" lon="13.40313"><ele>844.0</ele><time>2026-05-02T14:35:53.583Z</time></trkpt><trkpt lat="42.1036583" lon="13.4030167"><ele>844.0</ele><time>2026-05-02T14:35:54.584Z</time></trkpt><trkpt lat="42.1037117" lon="13.4028967"><ele>844.0</ele><time>2026-05-02T14:35:55.584Z</time></trkpt><trkpt lat="42.1037667" lon="13.4027817"><ele>844.0</ele><time>2026-05-02T14:35:56.584Z</time></trkpt><trkpt lat="42.10382" lon="13.4026717"><ele>843.8000000000001</ele><time>2026-05-02T14:35:57.583Z</time></trkpt><trkpt lat="42.103875" lon="13.4025717"><ele>843.6</ele><time>2026-05-02T14:35:58.583Z</time></trkpt><trkpt lat="42.10394" lon="13.402475"><ele>843.4</ele><time>2026-05-02T14:35:59.584Z</time></trkpt><trkpt lat="42.1040117" lon="13.4023683"><ele>843.2</ele><time>2026-05-02T14:36:00.583Z</time></trkpt><trkpt lat="42.10409" lon="13.4022667"><ele>843.0</ele><time>2026-05-02T14:36:01.583Z</time></trkpt><trkpt lat="42.10417" lon="13.4021667"><ele>842.0</ele><time>2026-05-02T14:36:02.584Z</time></trkpt><trkpt lat="42.10424" lon="13.4020583"><ele>841.0</ele><time>2026-05-02T14:36:03.583Z</time></trkpt><trkpt lat="42.1043133" lon="13.401945"><ele>840.0</ele><time>2026-05-02T14:36:04.583Z</time></trkpt><trkpt lat="42.1043833" lon="13.4018183"><ele>839.0</ele><time>2026-05-02T14:36:05.583Z</time></trkpt><trkpt lat="42.10445" lon="13.4016933"><ele>839.0</ele><time>2026-05-02T14:36:06.583Z</time></trkpt><trkpt lat="42.1045217" lon="13.4015683"><ele>839.0</ele><time>2026-05-02T14:36:07.583Z</time></trkpt><trkpt lat="42.1045883" lon="13.4014483"><ele>839.0</ele><time>2026-05-02T14:36:08.583Z</time></trkpt><trkpt lat="42.1046517" lon="13.4013317"><ele>839.0</ele><time>2026-05-02T14:36:09.584Z</time></trkpt><trkpt lat="42.1047167" lon="13.4012183"><ele>839.0</ele><time>2026-05-02T14:36:10.583Z</time></trkpt><trkpt lat="42.104775" lon="13.4011083"><ele>838.8000000000001</ele><time>2026-05-02T14:36:11.584Z</time></trkpt><trkpt lat="42.1048333" lon="13.4009967"><ele>838.6</ele><time>2026-05-02T14:36:12.584Z</time></trkpt><trkpt lat="42.1048917" lon="13.40089"><ele>838.4</ele><time>2026-05-02T14:36:13.584Z</time></trkpt><trkpt lat="42.104945" lon="13.400785"><ele>838.2</ele><time>2026-05-02T14:36:14.583Z</time></trkpt><trkpt lat="42.1049983" lon="13.4006783"><ele>838.0</ele><time>2026-05-02T14:36:15.584Z</time></trkpt><trkpt lat="42.10505" lon="13.4005717"><ele>837.2</ele><time>2026-05-02T14:36:16.584Z</time></trkpt><trkpt lat="42.1051083" lon="13.400455"><ele>836.4</ele><time>2026-05-02T14:36:17.584Z</time></trkpt><trkpt lat="42.1051733" lon="13.4003433"><ele>835.6</ele><time>2026-05-02T14:36:18.584Z</time></trkpt><trkpt lat="42.1052383" lon="13.4002233"><ele>834.8000000000001</ele><time>2026-05-02T14:36:19.584Z</time></trkpt><trkpt lat="42.1053017" lon="13.40011"><ele>834.0</ele><time>2026-05-02T14:36:20.583Z</time></trkpt><trkpt lat="42.1053617" lon="13.3999983"><ele>834.0</ele><time>2026-05-02T14:36:21.583Z</time></trkpt><trkpt lat="42.10542" lon="13.399885"><ele>834.0</ele><time>2026-05-02T14:36:22.583Z</time></trkpt><trkpt lat="42.1054717" lon="13.3997683"><ele>834.0</ele><time>2026-05-02T14:36:23.584Z</time></trkpt><trkpt lat="42.1055217" lon="13.3996533"><ele>834.0</ele><time>2026-05-02T14:36:24.584Z</time></trkpt><trkpt lat="42.1055683" lon="13.3995483"><ele>834.0</ele><time>2026-05-02T14:36:25.583Z</time></trkpt><trkpt lat="42.1056033" lon="13.3994433"><ele>833.8333333333334</ele><time>2026-05-02T14:36:26.583Z</time></trkpt><trkpt lat="42.10563" lon="13.399325"><ele>833.6666666666667</ele><time>2026-05-02T14:36:27.584Z</time></trkpt><trkpt lat="42.105635" lon="13.399205"><ele>833.5</ele><time>2026-05-02T14:36:28.583Z</time></trkpt><trkpt lat="42.1056333" lon="13.39907"><ele>833.3333333333334</ele><time>2026-05-02T14:36:29.584Z</time></trkpt><trkpt lat="42.1056383" lon="13.39896"><ele>833.1666666666667</ele><time>2026-05-02T14:36:30.583Z</time></trkpt><trkpt lat="42.1056533" lon="13.39886"><ele>833.0</ele><time>2026-05-02T14:36:31.582Z</time></trkpt><trkpt lat="42.10568" lon="13.3987667"><ele>833.0</ele><time>2026-05-02T14:36:32.582Z</time></trkpt><trkpt lat="42.1057267" lon="13.3986633"><ele>833.0</ele><time>2026-05-02T14:36:33.583Z</time></trkpt><trkpt lat="42.105785" lon="13.3985633"><ele>833.0</ele><time>2026-05-02T14:36:34.582Z</time></trkpt><trkpt lat="42.105865" lon="13.398485"><ele>833.0</ele><time>2026-05-02T14:36:35.583Z</time></trkpt><trkpt lat="42.105955" lon="13.3984167"><ele>833.0</ele><time>2026-05-02T14:36:36.583Z</time></trkpt><trkpt lat="42.1060517" lon="13.3983483"><ele>833.0</ele><time>2026-05-02T14:36:37.583Z</time></trkpt><trkpt lat="42.1061533" lon="13.3982633"><ele>833.0</ele><time>2026-05-02T14:36:38.583Z</time></trkpt><trkpt lat="42.1062633" lon="13.3981783"><ele>833.0</ele><time>2026-05-02T14:36:39.583Z</time></trkpt><trkpt lat="42.1063733" lon="13.3981033"><ele>833.0</ele><time>2026-05-02T14:36:40.583Z</time></trkpt><trkpt lat="42.1064817" lon="13.39803"><ele>834.0</ele><time>2026-05-02T14:36:41.582Z</time></trkpt><trkpt lat="42.1065783" lon="13.3979483"><ele>835.0</ele><time>2026-05-02T14:36:42.582Z</time></trkpt><trkpt lat="42.1066667" lon="13.39785"><ele>836.0</ele><time>2026-05-02T14:36:43.583Z</time></trkpt><trkpt lat="42.1067517" lon="13.3977367"><ele>837.0</ele><time>2026-05-02T14:36:44.583Z</time></trkpt><trkpt lat="42.1068317" lon="13.39761"><ele>837.0</ele><time>2026-05-02T14:36:45.583Z</time></trkpt><trkpt lat="42.10691" lon="13.3974883"><ele>837.0</ele><time>2026-05-02T14:36:46.582Z</time></trkpt><trkpt lat="42.1069833" lon="13.39737"><ele>837.0</ele><time>2026-05-02T14:36:47.583Z</time></trkpt><trkpt lat="42.10705" lon="13.3972533"><ele>837.0</ele><time>2026-05-02T14:36:48.582Z</time></trkpt><trkpt lat="42.1071017" lon="13.397145"><ele>837.0</ele><time>2026-05-02T14:36:49.582Z</time></trkpt><trkpt lat="42.1071533" lon="13.3970483"><ele>837.3333333333334</ele><time>2026-05-02T14:36:50.583Z</time></trkpt><trkpt lat="42.10719" lon="13.39696"><ele>837.6666666666667</ele><time>2026-05-02T14:36:51.582Z</time></trkpt><trkpt lat="42.10721" lon="13.3968183"><ele>838.0</ele><time>2026-05-02T14:36:53.582Z</time></trkpt><trkpt lat="42.107185" lon="13.3967383"><ele>838.3333333333334</ele><time>2026-05-02T14:36:54.583Z</time></trkpt><trkpt lat="42.10714" lon="13.39666"><ele>838.6666666666667</ele><time>2026-05-02T14:36:55.583Z</time></trkpt><trkpt lat="42.107085" lon="13.3965667"><ele>839.0</ele><time>2026-05-02T14:36:56.583Z</time></trkpt><trkpt lat="42.1070217" lon="13.3964417"><ele>840.0</ele><time>2026-05-02T14:36:57.582Z</time></trkpt><trkpt lat="42.1069583" lon="13.39629"><ele>841.0</ele><time>2026-05-02T14:36:58.582Z</time></trkpt><trkpt lat="42.1068717" lon="13.3961217"><ele>842.0</ele><time>2026-05-02T14:36:59.582Z</time></trkpt><trkpt lat="42.1067933" lon="13.3959517"><ele>843.0</ele><time>2026-05-02T14:37:00.582Z</time></trkpt><trkpt lat="42.1067117" lon="13.3957783"><ele>843.0</ele><time>2026-05-02T14:37:01.582Z</time></trkpt><trkpt lat="42.1066367" lon="13.3956017"><ele>843.0</ele><time>2026-05-02T14:37:02.582Z</time></trkpt><trkpt lat="42.1065583" lon="13.3954267"><ele>843.0</ele><time>2026-05-02T14:37:03.582Z</time></trkpt><trkpt lat="42.1064883" lon="13.3952667"><ele>843.0</ele><time>2026-05-02T14:37:04.583Z</time></trkpt><trkpt lat="42.10641" lon="13.3951067"><ele>843.0</ele><time>2026-05-02T14:37:05.583Z</time></trkpt><trkpt lat="42.1063367" lon="13.3949517"><ele>843.0</ele><time>2026-05-02T14:37:06.582Z</time></trkpt><trkpt lat="42.1062667" lon="13.3948183"><ele>843.0</ele><time>2026-05-02T14:37:07.582Z</time></trkpt><trkpt lat="42.10621" lon="13.39468"><ele>843.0</ele><time>2026-05-02T14:37:08.582Z</time></trkpt><trkpt lat="42.106155" lon="13.3945533"><ele>843.0</ele><time>2026-05-02T14:37:09.582Z</time></trkpt><trkpt lat="42.1061117" lon="13.3944517"><ele>843.0</ele><time>2026-05-02T14:37:10.583Z</time></trkpt><trkpt lat="42.1060733" lon="13.3943733"><ele>843.0</ele><time>2026-05-02T14:37:11.583Z</time></trkpt><trkpt lat="42.1060417" lon="13.3942883"><ele>843.0</ele><time>2026-05-02T14:37:13.583Z</time></trkpt><trkpt lat="42.105965" lon="13.3942167"><ele>843.0</ele><time>2026-05-02T14:37:15.583Z</time></trkpt><trkpt lat="42.1058983" lon="13.3941883"><ele>843.0</ele><time>2026-05-02T14:37:16.583Z</time></trkpt><trkpt lat="42.1058183" lon="13.3941583"><ele>841.5</ele><time>2026-05-02T14:37:17.583Z</time></trkpt><trkpt lat="42.1057417" lon="13.394125"><ele>840.0</ele><time>2026-05-02T14:37:18.582Z</time></trkpt><trkpt lat="42.105675" lon="13.3940917"><ele>838.5</ele><time>2026-05-02T14:37:19.582Z</time></trkpt><trkpt lat="42.1056233" lon="13.3940383"><ele>837.0</ele><time>2026-05-02T14:37:20.582Z</time></trkpt><trkpt lat="42.105515" lon="13.39399"><ele>835.5</ele><time>2026-05-02T14:37:22.582Z</time></trkpt><trkpt lat="42.1054433" lon="13.393985"><ele>834.0</ele><time>2026-05-02T14:37:23.582Z</time></trkpt><trkpt lat="42.1053717" lon="13.394"><ele>834.0</ele><time>2026-05-02T14:37:24.582Z</time></trkpt><trkpt lat="42.10531" lon="13.394025"><ele>834.0</ele><time>2026-05-02T14:37:25.582Z</time></trkpt><trkpt lat="42.1052417" lon="13.394075"><ele>834.0</ele><time>2026-05-02T14:37:26.583Z</time></trkpt><trkpt lat="42.1051817" lon="13.3941367"><ele>834.0</ele><time>2026-05-02T14:37:27.583Z</time></trkpt><trkpt lat="42.1051333" lon="13.394205"><ele>834.0</ele><time>2026-05-02T14:37:28.583Z</time></trkpt><trkpt lat="42.105085" lon="13.39427"><ele>834.0</ele><time>2026-05-02T14:37:29.583Z</time></trkpt><trkpt lat="42.1049967" lon="13.3943133"><ele>834.0</ele><time>2026-05-02T14:37:31.583Z</time></trkpt><trkpt lat="42.1049467" lon="13.3942383"><ele>834.0</ele><time>2026-05-02T14:37:33.582Z</time></trkpt><trkpt lat="42.1049433" lon="13.39415"><ele>834.0</ele><time>2026-05-02T14:37:34.582Z</time></trkpt><trkpt lat="42.1049467" lon="13.3940417"><ele>834.0</ele><time>2026-05-02T14:37:35.583Z</time></trkpt><trkpt lat="42.1049733" lon="13.3939033"><ele>834.0</ele><time>2026-05-02T14:37:36.582Z</time></trkpt><trkpt lat="42.1050017" lon="13.3937533"><ele>834.0</ele><time>2026-05-02T14:37:37.582Z</time></trkpt><trkpt lat="42.1050333" lon="13.393605"><ele>833.0</ele><time>2026-05-02T14:37:38.582Z</time></trkpt><trkpt lat="42.1050683" lon="13.3934533"><ele>832.0</ele><time>2026-05-02T14:37:39.582Z</time></trkpt><trkpt lat="42.1051133" lon="13.393295"><ele>831.0</ele><time>2026-05-02T14:37:40.583Z</time></trkpt><trkpt lat="42.105165" lon="13.39315"><ele>830.0</ele><time>2026-05-02T14:37:41.583Z</time></trkpt><trkpt lat="42.1052083" lon="13.3929983"><ele>828.25</ele><time>2026-05-02T14:37:42.583Z</time></trkpt><trkpt lat="42.10523" lon="13.3928367"><ele>826.5</ele><time>2026-05-02T14:37:43.582Z</time></trkpt><trkpt lat="42.105225" lon="13.392675"><ele>824.75</ele><time>2026-05-02T14:37:44.583Z</time></trkpt><trkpt lat="42.1051967" lon="13.392515"><ele>823.0</ele><time>2026-05-02T14:37:45.583Z</time></trkpt><trkpt lat="42.10514" lon="13.392345"><ele>823.0</ele><time>2026-05-02T14:37:46.583Z</time></trkpt><trkpt lat="42.105075" lon="13.39219"><ele>823.0</ele><time>2026-05-02T14:37:47.582Z</time></trkpt><trkpt lat="42.1050133" lon="13.39204"><ele>823.0</ele><time>2026-05-02T14:37:48.583Z</time></trkpt><trkpt lat="42.1049583" lon="13.3918917"><ele>823.0</ele><time>2026-05-02T14:37:49.582Z</time></trkpt><trkpt lat="42.1048967" lon="13.3917467"><ele>822.75</ele><time>2026-05-02T14:37:50.583Z</time></trkpt><trkpt lat="42.1048367" lon="13.3915917"><ele>822.5</ele><time>2026-05-02T14:37:51.582Z</time></trkpt><trkpt lat="42.1047867" lon="13.3914283"><ele>822.25</ele><time>2026-05-02T14:37:52.583Z</time></trkpt><trkpt lat="42.104745" lon="13.3912533"><ele>822.0</ele><time>2026-05-02T14:37:53.583Z</time></trkpt><trkpt lat="42.1047" lon="13.391075"><ele>823.5</ele><time>2026-05-02T14:37:54.583Z</time></trkpt><trkpt lat="42.1046617" lon="13.3908967"><ele>825.0</ele><time>2026-05-02T14:37:55.582Z</time></trkpt><trkpt lat="42.1046217" lon="13.3907333"><ele>826.5</ele><time>2026-05-02T14:37:56.582Z</time></trkpt><trkpt lat="42.1045817" lon="13.390565"><ele>828.0</ele><time>2026-05-02T14:37:57.582Z</time></trkpt><trkpt lat="42.1045417" lon="13.3903983"><ele>828.5999999999999</ele><time>2026-05-02T14:37:58.583Z</time></trkpt><trkpt lat="42.1045067" lon="13.3902417"><ele>829.1999999999999</ele><time>2026-05-02T14:37:59.583Z</time></trkpt><trkpt lat="42.1044733" lon="13.3901183"><ele>829.8</ele><time>2026-05-02T14:38:00.583Z</time></trkpt><trkpt lat="42.1044517" lon="13.3900083"><ele>830.4</ele><time>2026-05-02T14:38:01.583Z</time></trkpt><trkpt lat="42.1044417" lon="13.3899133"><ele>831.0</ele><time>2026-05-02T14:38:02.583Z</time></trkpt><trkpt lat="42.1044417" lon="13.3898117"><ele>831.0</ele><time>2026-05-02T14:38:04.583Z</time></trkpt><trkpt lat="42.104445" lon="13.389725"><ele>831.0</ele><time>2026-05-02T14:38:07.583Z</time></trkpt><trkpt lat="42.1044083" lon="13.3896483"><ele>831.0</ele><time>2026-05-02T14:38:09.582Z</time></trkpt><trkpt lat="42.1043267" lon="13.3895917"><ele>831.0</ele><time>2026-05-02T14:38:11.582Z</time></trkpt><trkpt lat="42.1042033" lon="13.38956"><ele>831.0</ele><time>2026-05-02T14:38:13.582Z</time></trkpt><trkpt lat="42.1041267" lon="13.3895433"><ele>831.0</ele><time>2026-05-02T14:38:14.582Z</time></trkpt><trkpt lat="42.1040433" lon="13.3895233"><ele>830.5999999999999</ele><time>2026-05-02T14:38:15.582Z</time></trkpt><trkpt lat="42.1039617" lon="13.389505"><ele>830.2</ele><time>2026-05-02T14:38:16.583Z</time></trkpt><trkpt lat="42.1038817" lon="13.3895"><ele>829.8</ele><time>2026-05-02T14:38:17.582Z</time></trkpt><trkpt lat="42.10381" lon="13.3894933"><ele>829.4000000000001</ele><time>2026-05-02T14:38:18.582Z</time></trkpt><trkpt lat="42.1037033" lon="13.3894433"><ele>829.0</ele><time>2026-05-02T14:38:20.583Z</time></trkpt><trkpt lat="42.1036167" lon="13.3893217"><ele>829.0</ele><time>2026-05-02T14:38:22.583Z</time></trkpt><trkpt lat="42.1035683" lon="13.3892083"><ele>829.0</ele><time>2026-05-02T14:38:23.583Z</time></trkpt><trkpt lat="42.1035183" lon="13.3890867"><ele>829.0</ele><time>2026-05-02T14:38:24.583Z</time></trkpt><trkpt lat="42.1034667" lon="13.3889567"><ele>829.0</ele><time>2026-05-02T14:38:25.582Z</time></trkpt><trkpt lat="42.1034133" lon="13.3888217"><ele>829.0</ele><time>2026-05-02T14:38:26.583Z</time></trkpt><trkpt lat="42.1033667" lon="13.388695"><ele>828.8000000000001</ele><time>2026-05-02T14:38:27.583Z</time></trkpt><trkpt lat="42.1033117" lon="13.3885817"><ele>828.6</ele><time>2026-05-02T14:38:28.583Z</time></trkpt><trkpt lat="42.1032583" lon="13.3884717"><ele>828.4</ele><time>2026-05-02T14:38:29.583Z</time></trkpt><trkpt lat="42.1032067" lon="13.3883683"><ele>828.2</ele><time>2026-05-02T14:38:30.583Z</time></trkpt><trkpt lat="42.1031667" lon="13.3882817"><ele>828.0</ele><time>2026-05-02T14:38:31.583Z</time></trkpt><trkpt lat="42.103145" lon="13.3881433"><ele>827.5</ele><time>2026-05-02T14:38:33.582Z</time></trkpt><trkpt lat="42.1031717" lon="13.388055"><ele>827.0</ele><time>2026-05-02T14:38:34.583Z</time></trkpt><trkpt lat="42.1032067" lon="13.3879017"><ele>826.5</ele><time>2026-05-02T14:38:36.582Z</time></trkpt><trkpt lat="42.103195" lon="13.3878117"><ele>826.0</ele><time>2026-05-02T14:38:37.583Z</time></trkpt><trkpt lat="42.1031683" lon="13.3877067"><ele>825.5</ele><time>2026-05-02T14:38:38.583Z</time></trkpt><trkpt lat="42.1031367" lon="13.3876117"><ele>825.0</ele><time>2026-05-02T14:38:39.582Z</time></trkpt><trkpt lat="42.1031017" lon="13.38753"><ele>825.0</ele><time>2026-05-02T14:38:40.582Z</time></trkpt><trkpt lat="42.1030633" lon="13.3874367"><ele>825.0</ele><time>2026-05-02T14:38:41.583Z</time></trkpt><trkpt lat="42.1030267" lon="13.3873517"><ele>825.0</ele><time>2026-05-02T14:38:42.582Z</time></trkpt><trkpt lat="42.1029967" lon="13.387275"><ele>825.0</ele><time>2026-05-02T14:38:43.583Z</time></trkpt><trkpt lat="42.1029517" lon="13.3871417"><ele>825.0</ele><time>2026-05-02T14:38:45.583Z</time></trkpt><trkpt lat="42.1029483" lon="13.3870333"><ele>825.0</ele><time>2026-05-02T14:38:47.583Z</time></trkpt><trkpt lat="42.1029833" lon="13.3869267"><ele>825.0</ele><time>2026-05-02T14:38:49.583Z</time></trkpt><trkpt lat="42.1029883" lon="13.3867983"><ele>825.0</ele><time>2026-05-02T14:38:51.582Z</time></trkpt><trkpt lat="42.10294" lon="13.3866583"><ele>825.0</ele><time>2026-05-02T14:38:53.583Z</time></trkpt><trkpt lat="42.102895" lon="13.3865817"><ele>825.0</ele><time>2026-05-02T14:38:54.583Z</time></trkpt><trkpt lat="42.102855" lon="13.3865"><ele>825.0</ele><time>2026-05-02T14:38:55.582Z</time></trkpt><trkpt lat="42.1028117" lon="13.3864033"><ele>825.0</ele><time>2026-05-02T14:38:56.582Z</time></trkpt><trkpt lat="42.1027667" lon="13.3863"><ele>825.2</ele><time>2026-05-02T14:38:57.583Z</time></trkpt><trkpt lat="42.1027233" lon="13.3861883"><ele>825.4</ele><time>2026-05-02T14:38:58.583Z</time></trkpt><trkpt lat="42.1026667" lon="13.38608"><ele>825.5999999999999</ele><time>2026-05-02T14:38:59.583Z</time></trkpt><trkpt lat="42.1026167" lon="13.3859733"><ele>825.8</ele><time>2026-05-02T14:39:00.582Z</time></trkpt><trkpt lat="42.10256" lon="13.385875"><ele>826.0</ele><time>2026-05-02T14:39:01.582Z</time></trkpt><trkpt lat="42.10251" lon="13.3857917"><ele>825.9999999999999</ele><time>2026-05-02T14:39:02.582Z</time></trkpt><trkpt lat="42.10246" lon="13.3857117"><ele>826.0</ele><time>2026-05-02T14:39:03.583Z</time></trkpt><trkpt lat="42.1024183" lon="13.3856417"><ele>826.0</ele><time>2026-05-02T14:39:04.582Z</time></trkpt><trkpt lat="42.10236" lon="13.385535"><ele>826.0</ele><time>2026-05-02T14:39:06.583Z</time></trkpt><trkpt lat="42.1023067" lon="13.3854383"><ele>825.9999999999999</ele><time>2026-05-02T14:39:09.582Z</time></trkpt><trkpt lat="42.1023117" lon="13.385345"><ele>826.0</ele><time>2026-05-02T14:39:11.583Z</time></trkpt><trkpt lat="42.1023517" lon="13.385215"><ele>826.3333333333333</ele><time>2026-05-02T14:39:13.582Z</time></trkpt><trkpt lat="42.102415" lon="13.385115"><ele>826.6666666666666</ele><time>2026-05-02T14:39:15.582Z</time></trkpt><trkpt lat="42.1024933" lon="13.3850033"><ele>827.0</ele><time>2026-05-02T14:39:17.582Z</time></trkpt><trkpt lat="42.102545" lon="13.3849317"><ele>827.3333333333333</ele><time>2026-05-02T14:39:18.582Z</time></trkpt><trkpt lat="42.102595" lon="13.3848567"><ele>827.6666666666666</ele><time>2026-05-02T14:39:19.583Z</time></trkpt><trkpt lat="42.1026483" lon="13.384795"><ele>828.0</ele><time>2026-05-02T14:39:20.582Z</time></trkpt><trkpt lat="42.10271" lon="13.3847367"><ele>828.0</ele><time>2026-05-02T14:39:21.583Z</time></trkpt><trkpt lat="42.10277" lon="13.38469"><ele>828.0</ele><time>2026-05-02T14:39:22.582Z</time></trkpt><trkpt lat="42.1028833" lon="13.38462"><ele>828.0</ele><time>2026-05-02T14:39:24.582Z</time></trkpt><trkpt lat="42.1029467" lon="13.38455"><ele>828.0</ele><time>2026-05-02T14:39:25.582Z</time></trkpt><trkpt lat="42.1030233" lon="13.3844583"><ele>828.0</ele><time>2026-05-02T14:39:26.583Z</time></trkpt><trkpt lat="42.1031117" lon="13.3843433"><ele>828.2</ele><time>2026-05-02T14:39:27.583Z</time></trkpt><trkpt lat="42.1031933" lon="13.38423"><ele>828.4</ele><time>2026-05-02T14:39:28.582Z</time></trkpt><trkpt lat="42.10326" lon="13.384125"><ele>828.6</ele><time>2026-05-02T14:39:29.582Z</time></trkpt><trkpt lat="42.1033233" lon="13.3840167"><ele>828.8000000000001</ele><time>2026-05-02T14:39:30.583Z</time></trkpt><trkpt lat="42.1033833" lon="13.38391"><ele>829.0</ele><time>2026-05-02T14:39:31.582Z</time></trkpt><trkpt lat="42.1034317" lon="13.38381"><ele>830.2</ele><time>2026-05-02T14:39:32.583Z</time></trkpt><trkpt lat="42.1034783" lon="13.3837267"><ele>831.4000000000001</ele><time>2026-05-02T14:39:33.582Z</time></trkpt><trkpt lat="42.1035383" lon="13.3836517"><ele>832.6</ele><time>2026-05-02T14:39:34.582Z</time></trkpt><trkpt lat="42.1036167" lon="13.383575"><ele>833.8</ele><time>2026-05-02T14:39:35.582Z</time></trkpt><trkpt lat="42.1037017" lon="13.3834967"><ele>835.0</ele><time>2026-05-02T14:39:36.582Z</time></trkpt><trkpt lat="42.1037817" lon="13.3834183"><ele>835.0</ele><time>2026-05-02T14:39:37.583Z</time></trkpt><trkpt lat="42.1038633" lon="13.3833433"><ele>835.0</ele><time>2026-05-02T14:39:38.582Z</time></trkpt><trkpt lat="42.103935" lon="13.383265"><ele>835.0</ele><time>2026-05-02T14:39:39.582Z</time></trkpt><trkpt lat="42.1040033" lon="13.3832067"><ele>835.0</ele><time>2026-05-02T14:39:40.582Z</time></trkpt><trkpt lat="42.1040783" lon="13.3831567"><ele>835.0</ele><time>2026-05-02T14:39:41.583Z</time></trkpt><trkpt lat="42.1041683" lon="13.383115"><ele>837.25</ele><time>2026-05-02T14:39:42.582Z</time></trkpt><trkpt lat="42.1042733" lon="13.3830517"><ele>839.5</ele><time>2026-05-02T14:39:43.583Z</time></trkpt><trkpt lat="42.1044" lon="13.3829933"><ele>841.75</ele><time>2026-05-02T14:39:44.583Z</time></trkpt><trkpt lat="42.104525" lon="13.3829367"><ele>844.0</ele><time>2026-05-02T14:39:45.583Z</time></trkpt><trkpt lat="42.1046283" lon="13.3828917"><ele>843.9999999999999</ele><time>2026-05-02T14:39:46.582Z</time></trkpt><trkpt lat="42.1047167" lon="13.3828533"><ele>844.0</ele><time>2026-05-02T14:39:47.582Z</time></trkpt><trkpt lat="42.1048033" lon="13.3828083"><ele>844.0</ele><time>2026-05-02T14:39:48.583Z</time></trkpt><trkpt lat="42.104885" lon="13.382775"><ele>844.0</ele><time>2026-05-02T14:39:49.582Z</time></trkpt><trkpt lat="42.10496" lon="13.3827483"><ele>843.9999999999999</ele><time>2026-05-02T14:39:50.583Z</time></trkpt><trkpt lat="42.10504" lon="13.3827417"><ele>844.0</ele><time>2026-05-02T14:39:51.583Z</time></trkpt><trkpt lat="42.1051283" lon="13.382745"><ele>845.2</ele><time>2026-05-02T14:39:52.582Z</time></trkpt><trkpt lat="42.105225" lon="13.38276"><ele>846.4000000000001</ele><time>2026-05-02T14:39:53.583Z</time></trkpt><trkpt lat="42.10533" lon="13.3827883"><ele>847.6</ele><time>2026-05-02T14:39:54.582Z</time></trkpt><trkpt lat="42.10543" lon="13.382805"><ele>848.8</ele><time>2026-05-02T14:39:55.582Z</time></trkpt><trkpt lat="42.105535" lon="13.3828033"><ele>850.0</ele><time>2026-05-02T14:39:56.583Z</time></trkpt><trkpt lat="42.105635" lon="13.3828133"><ele>850.0</ele><time>2026-05-02T14:39:57.583Z</time></trkpt><trkpt lat="42.1057417" lon="13.3828283"><ele>850.0</ele><time>2026-05-02T14:39:58.582Z</time></trkpt><trkpt lat="42.1058483" lon="13.3828467"><ele>850.0</ele><time>2026-05-02T14:39:59.582Z</time></trkpt><trkpt lat="42.1059667" lon="13.3828517"><ele>850.0</ele><time>2026-05-02T14:40:00.582Z</time></trkpt><trkpt lat="42.106075" lon="13.3828483"><ele>850.0</ele><time>2026-05-02T14:40:01.582Z</time></trkpt><trkpt lat="42.106175" lon="13.3828417"><ele>851.1666666666666</ele><time>2026-05-02T14:40:02.582Z</time></trkpt><trkpt lat="42.106275" lon="13.382835"><ele>852.3333333333333</ele><time>2026-05-02T14:40:03.582Z</time></trkpt><trkpt lat="42.1063583" lon="13.38283"><ele>853.5</ele><time>2026-05-02T14:40:04.582Z</time></trkpt><trkpt lat="42.1064283" lon="13.3828383"><ele>854.6666666666667</ele><time>2026-05-02T14:40:05.583Z</time></trkpt><trkpt lat="42.1064967" lon="13.3828567"><ele>855.8333333333334</ele><time>2026-05-02T14:40:06.582Z</time></trkpt><trkpt lat="42.106555" lon="13.38289"><ele>857.0</ele><time>2026-05-02T14:40:07.582Z</time></trkpt><trkpt lat="42.106645" lon="13.3830283"><ele>858.6</ele><time>2026-05-02T14:40:09.582Z</time></trkpt><trkpt lat="42.1066933" lon="13.3830967"><ele>860.2</ele><time>2026-05-02T14:40:10.583Z</time></trkpt><trkpt lat="42.106775" lon="13.3831583"><ele>861.8</ele><time>2026-05-02T14:40:12.582Z</time></trkpt><trkpt lat="42.1068583" lon="13.3831767"><ele>863.4</ele><time>2026-05-02T14:40:14.581Z</time></trkpt><trkpt lat="42.1069233" lon="13.3833183"><ele>865.0</ele><time>2026-05-02T14:40:16.581Z</time></trkpt><trkpt lat="42.10697" lon="13.3834467"><ele>864.9999999999999</ele><time>2026-05-02T14:40:18.582Z</time></trkpt><trkpt lat="42.1070333" lon="13.3834667"><ele>865.0</ele><time>2026-05-02T14:40:20.582Z</time></trkpt><trkpt lat="42.1071167" lon="13.3833567"><ele>865.0</ele><time>2026-05-02T14:40:22.582Z</time></trkpt><trkpt lat="42.1071667" lon="13.383285"><ele>865.0</ele><time>2026-05-02T14:40:23.582Z</time></trkpt><trkpt lat="42.1072267" lon="13.3832233"><ele>864.9999999999999</ele><time>2026-05-02T14:40:24.581Z</time></trkpt><trkpt lat="42.107275" lon="13.383165"><ele>865.0</ele><time>2026-05-02T14:40:25.581Z</time></trkpt><trkpt lat="42.10733" lon="13.3831117"><ele>864.9999999999999</ele><time>2026-05-02T14:40:26.581Z</time></trkpt><trkpt lat="42.1073883" lon="13.3830667"><ele>865.0</ele><time>2026-05-02T14:40:27.581Z</time></trkpt><trkpt lat="42.1074483" lon="13.383035"><ele>865.0</ele><time>2026-05-02T14:40:28.582Z</time></trkpt><trkpt lat="42.1075083" lon="13.3829933"><ele>865.0</ele><time>2026-05-02T14:40:29.582Z</time></trkpt><trkpt lat="42.1075683" lon="13.3829383"><ele>864.9999999999999</ele><time>2026-05-02T14:40:30.582Z</time></trkpt><trkpt lat="42.1076633" lon="13.38287"><ele>865.0</ele><time>2026-05-02T14:40:32.582Z</time></trkpt><trkpt lat="42.1077683" lon="13.3828617"><ele>866.6666666666666</ele><time>2026-05-02T14:40:34.582Z</time></trkpt><trkpt lat="42.1078367" lon="13.3828567"><ele>868.3333333333333</ele><time>2026-05-02T14:40:35.582Z</time></trkpt><trkpt lat="42.107905" lon="13.38285"><ele>870.0</ele><time>2026-05-02T14:40:36.582Z</time></trkpt><trkpt lat="42.10799" lon="13.38283"><ele>871.6666666666667</ele><time>2026-05-02T14:40:37.581Z</time></trkpt><trkpt lat="42.10807" lon="13.3828017"><ele>873.3333333333334</ele><time>2026-05-02T14:40:38.582Z</time></trkpt><trkpt lat="42.1081483" lon="13.3827883"><ele>875.0</ele><time>2026-05-02T14:40:39.582Z</time></trkpt><trkpt lat="42.108225" lon="13.38279"><ele>875.6666666666667</ele><time>2026-05-02T14:40:40.582Z</time></trkpt><trkpt lat="42.1083083" lon="13.38278"><ele>876.3333333333334</ele><time>2026-05-02T14:40:41.582Z</time></trkpt><trkpt lat="42.1083817" lon="13.3827483"><ele>877.0</ele><time>2026-05-02T14:40:42.581Z</time></trkpt><trkpt lat="42.1084533" lon="13.38274"><ele>877.6666666666667</ele><time>2026-05-02T14:40:43.582Z</time></trkpt><trkpt lat="42.1085333" lon="13.3827383"><ele>878.3333333333334</ele><time>2026-05-02T14:40:44.581Z</time></trkpt><trkpt lat="42.1086067" lon="13.38273"><ele>879.0</ele><time>2026-05-02T14:40:45.581Z</time></trkpt><trkpt lat="42.1086817" lon="13.38269"><ele>879.0</ele><time>2026-05-02T14:40:46.582Z</time></trkpt><trkpt lat="42.1087533" lon="13.382635"><ele>879.0</ele><time>2026-05-02T14:40:47.582Z</time></trkpt><trkpt lat="42.1088217" lon="13.38259"><ele>879.0</ele><time>2026-05-02T14:40:48.581Z</time></trkpt><trkpt lat="42.1089033" lon="13.38256"><ele>879.0</ele><time>2026-05-02T14:40:49.582Z</time></trkpt><trkpt lat="42.1089833" lon="13.3825117"><ele>879.0</ele><time>2026-05-02T14:40:50.582Z</time></trkpt><trkpt lat="42.109065" lon="13.3824517"><ele>879.0</ele><time>2026-05-02T14:40:51.581Z</time></trkpt><trkpt lat="42.1091483" lon="13.382405"><ele>880.2</ele><time>2026-05-02T14:40:52.581Z</time></trkpt><trkpt lat="42.1092517" lon="13.382355"><ele>881.4000000000001</ele><time>2026-05-02T14:40:53.582Z</time></trkpt><trkpt lat="42.10935" lon="13.3823083"><ele>882.6</ele><time>2026-05-02T14:40:54.582Z</time></trkpt><trkpt lat="42.109445" lon="13.3822683"><ele>883.8</ele><time>2026-05-02T14:40:55.582Z</time></trkpt><trkpt lat="42.1095317" lon="13.382215"><ele>885.0</ele><time>2026-05-02T14:40:56.581Z</time></trkpt><trkpt lat="42.1096117" lon="13.3821683"><ele>885.2</ele><time>2026-05-02T14:40:57.582Z</time></trkpt><trkpt lat="42.10968" lon="13.3821"><ele>885.4</ele><time>2026-05-02T14:40:58.582Z</time></trkpt><trkpt lat="42.109745" lon="13.3820483"><ele>885.5999999999999</ele><time>2026-05-02T14:40:59.581Z</time></trkpt><trkpt lat="42.1098533" lon="13.3820083"><ele>885.8</ele><time>2026-05-02T14:41:01.582Z</time></trkpt><trkpt lat="42.1099767" lon="13.38206"><ele>886.0</ele><time>2026-05-02T14:41:03.582Z</time></trkpt><trkpt lat="42.11004" lon="13.3820917"><ele>886.9999999999999</ele><time>2026-05-02T14:41:04.582Z</time></trkpt><trkpt lat="42.1101033" lon="13.3821083"><ele>888.0</ele><time>2026-05-02T14:41:05.581Z</time></trkpt><trkpt lat="42.11018" lon="13.3821083"><ele>889.0</ele><time>2026-05-02T14:41:06.582Z</time></trkpt><trkpt lat="42.110255" lon="13.3820917"><ele>890.0</ele><time>2026-05-02T14:41:07.582Z</time></trkpt><trkpt lat="42.1103233" lon="13.3820683"><ele>890.9999999999999</ele><time>2026-05-02T14:41:08.582Z</time></trkpt><trkpt lat="42.110385" lon="13.382045"><ele>892.0</ele><time>2026-05-02T14:41:09.582Z</time></trkpt><trkpt lat="42.1104883" lon="13.3819883"><ele>891.9999999999999</ele><time>2026-05-02T14:41:11.582Z</time></trkpt><trkpt lat="42.1105533" lon="13.3819217"><ele>892.0</ele><time>2026-05-02T14:41:13.581Z</time></trkpt><trkpt lat="42.1105567" lon="13.3817967"><ele>892.0</ele><time>2026-05-02T14:41:15.581Z</time></trkpt><trkpt lat="42.110545" lon="13.3817017"><ele>892.0</ele><time>2026-05-02T14:41:16.581Z</time></trkpt><trkpt lat="42.11054" lon="13.3815967"><ele>891.9999999999999</ele><time>2026-05-02T14:41:17.582Z</time></trkpt><trkpt lat="42.1105267" lon="13.3814817"><ele>892.0</ele><time>2026-05-02T14:41:18.581Z</time></trkpt><trkpt lat="42.1105217" lon="13.3813683"><ele>892.4000000000001</ele><time>2026-05-02T14:41:19.581Z</time></trkpt><trkpt lat="42.11052" lon="13.3812433"><ele>892.8000000000001</ele><time>2026-05-02T14:41:20.581Z</time></trkpt><trkpt lat="42.1105183" lon="13.3810967"><ele>893.2</ele><time>2026-05-02T14:41:21.582Z</time></trkpt><trkpt lat="42.1105183" lon="13.38094"><ele>893.6</ele><time>2026-05-02T14:41:22.582Z</time></trkpt><trkpt lat="42.1105133" lon="13.3807733"><ele>894.0</ele><time>2026-05-02T14:41:23.581Z</time></trkpt><trkpt lat="42.110515" lon="13.380625"><ele>894.1666666666666</ele><time>2026-05-02T14:41:24.581Z</time></trkpt><trkpt lat="42.1105167" lon="13.380485"><ele>894.3333333333333</ele><time>2026-05-02T14:41:25.582Z</time></trkpt><trkpt lat="42.1105133" lon="13.3803733"><ele>894.5</ele><time>2026-05-02T14:41:26.581Z</time></trkpt><trkpt lat="42.1105117" lon="13.3802867"><ele>894.6666666666666</ele><time>2026-05-02T14:41:27.581Z</time></trkpt><trkpt lat="42.1105" lon="13.38016"><ele>894.8333333333333</ele><time>2026-05-02T14:41:37.581Z</time></trkpt><trkpt lat="42.1105367" lon="13.380075"><ele>895.0</ele><time>2026-05-02T14:41:39.581Z</time></trkpt><trkpt lat="42.1105867" lon="13.3799833"><ele>895.0</ele><time>2026-05-02T14:41:41.582Z</time></trkpt><trkpt lat="42.1105733" lon="13.3798467"><ele>895.0</ele><time>2026-05-02T14:41:43.582Z</time></trkpt><trkpt lat="42.110545" lon="13.3797617"><ele>895.0</ele><time>2026-05-02T14:41:44.581Z</time></trkpt><trkpt lat="42.1105017" lon="13.379665"><ele>895.0</ele><time>2026-05-02T14:41:45.581Z</time></trkpt><trkpt lat="42.1104383" lon="13.3795583"><ele>895.0</ele><time>2026-05-02T14:41:46.582Z</time></trkpt><trkpt lat="42.1103683" lon="13.37946"><ele>896.3333333333333</ele><time>2026-05-02T14:41:47.582Z</time></trkpt><trkpt lat="42.1103033" lon="13.3793717"><ele>897.6666666666666</ele><time>2026-05-02T14:41:48.582Z</time></trkpt><trkpt lat="42.110245" lon="13.379315"><ele>899.0</ele><time>2026-05-02T14:41:49.581Z</time></trkpt><trkpt lat="42.1101783" lon="13.37928"><ele>900.3333333333333</ele><time>2026-05-02T14:41:50.581Z</time></trkpt><trkpt lat="42.1101067" lon="13.379265"><ele>901.6666666666666</ele><time>2026-05-02T14:41:51.581Z</time></trkpt><trkpt lat="42.1100183" lon="13.3792633"><ele>903.0</ele><time>2026-05-02T14:41:52.581Z</time></trkpt><trkpt lat="42.1099267" lon="13.3792717"><ele>901.5999999999999</ele><time>2026-05-02T14:41:53.582Z</time></trkpt><trkpt lat="42.109835" lon="13.3792633"><ele>900.1999999999999</ele><time>2026-05-02T14:41:54.582Z</time></trkpt><trkpt lat="42.1097333" lon="13.379245"><ele>898.8</ele><time>2026-05-02T14:41:55.581Z</time></trkpt><trkpt lat="42.1096217" lon="13.3792217"><ele>897.4</ele><time>2026-05-02T14:41:56.581Z</time></trkpt><trkpt lat="42.1095217" lon="13.37919"><ele>896.0</ele><time>2026-05-02T14:41:57.581Z</time></trkpt><trkpt lat="42.109435" lon="13.3791617"><ele>896.0</ele><time>2026-05-02T14:41:58.581Z</time></trkpt><trkpt lat="42.1093667" lon="13.3791267"><ele>895.9999999999999</ele><time>2026-05-02T14:41:59.581Z</time></trkpt><trkpt lat="42.1092733" lon="13.379055"><ele>895.9999999999999</ele><time>2026-05-02T14:42:01.581Z</time></trkpt><trkpt lat="42.10922" lon="13.37889"><ele>896.0</ele><time>2026-05-02T14:42:03.582Z</time></trkpt><trkpt lat="42.1092" lon="13.3787633"><ele>896.0</ele><time>2026-05-02T14:42:04.581Z</time></trkpt><trkpt lat="42.10917" lon="13.378635"><ele>896.75</ele><time>2026-05-02T14:42:05.581Z</time></trkpt><trkpt lat="42.1091267" lon="13.37851"><ele>897.5</ele><time>2026-05-02T14:42:06.582Z</time></trkpt><trkpt lat="42.1090683" lon="13.3783767"><ele>898.25</ele><time>2026-05-02T14:42:07.582Z</time></trkpt><trkpt lat="42.1089833" lon="13.378235"><ele>899.0</ele><time>2026-05-02T14:42:08.581Z</time></trkpt><trkpt lat="42.108885" lon="13.3781083"><ele>901.6</ele><time>2026-05-02T14:42:09.581Z</time></trkpt><trkpt lat="42.1087983" lon="13.3779983"><ele>904.2</ele><time>2026-05-02T14:42:10.582Z</time></trkpt><trkpt lat="42.10871" lon="13.3779067"><ele>906.8000000000001</ele><time>2026-05-02T14:42:11.582Z</time></trkpt><trkpt lat="42.10862" lon="13.377825"><ele>909.4000000000001</ele><time>2026-05-02T14:42:12.581Z</time></trkpt><trkpt lat="42.1085367" lon="13.3777533"><ele>912.0</ele><time>2026-05-02T14:42:13.581Z</time></trkpt><trkpt lat="42.1084633" lon="13.3777067"><ele>912.0</ele><time>2026-05-02T14:42:14.581Z</time></trkpt><trkpt lat="42.1083917" lon="13.3776783"><ele>912.0</ele><time>2026-05-02T14:42:15.582Z</time></trkpt><trkpt lat="42.1083283" lon="13.3776533"><ele>912.0</ele><time>2026-05-02T14:42:16.582Z</time></trkpt><trkpt lat="42.10821" lon="13.3776267"><ele>912.0</ele><time>2026-05-02T14:42:18.582Z</time></trkpt><trkpt lat="42.108145" lon="13.3776133"><ele>912.0</ele><time>2026-05-02T14:42:19.582Z</time></trkpt><trkpt lat="42.10808" lon="13.3775933"><ele>912.0</ele><time>2026-05-02T14:42:20.582Z</time></trkpt><trkpt lat="42.1080033" lon="13.3775733"><ele>911.8333333333334</ele><time>2026-05-02T14:42:21.581Z</time></trkpt><trkpt lat="42.1079333" lon="13.37754"><ele>911.6666666666667</ele><time>2026-05-02T14:42:22.582Z</time></trkpt><trkpt lat="42.1078667" lon="13.3774917"><ele>911.5</ele><time>2026-05-02T14:42:23.581Z</time></trkpt><trkpt lat="42.1078033" lon="13.3774233"><ele>911.3333333333334</ele><time>2026-05-02T14:42:24.582Z</time></trkpt><trkpt lat="42.1077417" lon="13.377345"><ele>911.1666666666667</ele><time>2026-05-02T14:42:25.582Z</time></trkpt><trkpt lat="42.1076817" lon="13.3772717"><ele>911.0</ele><time>2026-05-02T14:42:26.581Z</time></trkpt><trkpt lat="42.1076067" lon="13.37718"><ele>911.5714285714287</ele><time>2026-05-02T14:42:28.582Z</time></trkpt><trkpt lat="42.1075383" lon="13.3771483"><ele>912.1428571428571</ele><time>2026-05-02T14:42:30.582Z</time></trkpt><trkpt lat="42.10746" lon="13.3771133"><ele>912.7142857142858</ele><time>2026-05-02T14:42:33.582Z</time></trkpt><trkpt lat="42.107405" lon="13.37707"><ele>913.2857142857143</ele><time>2026-05-02T14:42:35.582Z</time></trkpt><trkpt lat="42.1073333" lon="13.3770717"><ele>913.8571428571429</ele><time>2026-05-02T14:42:38.581Z</time></trkpt><trkpt lat="42.107255" lon="13.37712"><ele>914.4285714285714</ele><time>2026-05-02T14:42:43.581Z</time></trkpt><trkpt lat="42.1071833" lon="13.37711"><ele>915.0</ele><time>2026-05-02T14:42:45.581Z</time></trkpt><trkpt lat="42.1070967" lon="13.37706"><ele>913.4</ele><time>2026-05-02T14:42:47.581Z</time></trkpt><trkpt lat="42.1069983" lon="13.377005"><ele>911.8</ele><time>2026-05-02T14:42:49.582Z</time></trkpt><trkpt lat="42.1069167" lon="13.3769267"><ele>910.2</ele><time>2026-05-02T14:42:51.582Z</time></trkpt><trkpt lat="42.10684" lon="13.3768483"><ele>908.6</ele><time>2026-05-02T14:42:53.582Z</time></trkpt><trkpt lat="42.1067317" lon="13.3767683"><ele>907.0</ele><time>2026-05-02T14:42:55.581Z</time></trkpt><trkpt lat="42.1066283" lon="13.3767083"><ele>905.5714285714287</ele><time>2026-05-02T14:42:57.582Z</time></trkpt><trkpt lat="42.1065667" lon="13.3766867"><ele>904.1428571428571</ele><time>2026-05-02T14:42:58.582Z</time></trkpt><trkpt lat="42.1065033" lon="13.3766617"><ele>902.7142857142858</ele><time>2026-05-02T14:42:59.581Z</time></trkpt><trkpt lat="42.1064417" lon="13.3766417"><ele>901.2857142857143</ele><time>2026-05-02T14:43:00.581Z</time></trkpt><trkpt lat="42.1063783" lon="13.376615"><ele>899.8571428571429</ele><time>2026-05-02T14:43:01.582Z</time></trkpt><trkpt lat="42.1063167" lon="13.376595"><ele>898.4285714285714</ele><time>2026-05-02T14:43:02.581Z</time></trkpt><trkpt lat="42.1062033" lon="13.376555"><ele>897.0</ele><time>2026-05-02T14:43:04.582Z</time></trkpt><trkpt lat="42.1060983" lon="13.3764967"><ele>897.0</ele><time>2026-05-02T14:43:06.582Z</time></trkpt><trkpt lat="42.1060183" lon="13.3764117"><ele>897.0</ele><time>2026-05-02T14:43:08.581Z</time></trkpt><trkpt lat="42.10597" lon="13.3763117"><ele>897.0</ele><time>2026-05-02T14:43:10.582Z</time></trkpt><trkpt lat="42.1059167" lon="13.3762467"><ele>897.0</ele><time>2026-05-02T14:43:12.582Z</time></trkpt><trkpt lat="42.10586" lon="13.3761783"><ele>897.0</ele><time>2026-05-02T14:43:14.582Z</time></trkpt><trkpt lat="42.105795" lon="13.376085"><ele>897.0</ele><time>2026-05-02T14:43:16.581Z</time></trkpt><trkpt lat="42.1057267" lon="13.3759967"><ele>894.0</ele><time>2026-05-02T14:43:18.581Z</time></trkpt><trkpt lat="42.1056567" lon="13.3758967"><ele>891.0</ele><time>2026-05-02T14:43:20.581Z</time></trkpt><trkpt lat="42.1055633" lon="13.3757983"><ele>888.0</ele><time>2026-05-02T14:43:22.582Z</time></trkpt><trkpt lat="42.105515" lon="13.3757317"><ele>885.0</ele><time>2026-05-02T14:43:23.582Z</time></trkpt><trkpt lat="42.105465" lon="13.3756683"><ele>882.0</ele><time>2026-05-02T14:43:24.582Z</time></trkpt><trkpt lat="42.10541" lon="13.375605"><ele>879.0</ele><time>2026-05-02T14:43:25.581Z</time></trkpt><trkpt lat="42.1053583" lon="13.3755467"><ele>879.8000000000001</ele><time>2026-05-02T14:43:26.581Z</time></trkpt><trkpt lat="42.1052767" lon="13.3754317"><ele>880.6000000000001</ele><time>2026-05-02T14:43:28.581Z</time></trkpt><trkpt lat="42.1052067" lon="13.3753167"><ele>881.4</ele><time>2026-05-02T14:43:30.582Z</time></trkpt><trkpt lat="42.1051333" lon="13.37524"><ele>882.2</ele><time>2026-05-02T14:43:32.582Z</time></trkpt><trkpt lat="42.1050617" lon="13.3751783"><ele>883.0</ele><time>2026-05-02T14:43:34.582Z</time></trkpt><trkpt lat="42.1050417" lon="13.3750467"><ele>882.9999999999999</ele><time>2026-05-02T14:43:37.581Z</time></trkpt><trkpt lat="42.1050083" lon="13.37494"><ele>883.0</ele><time>2026-05-02T14:43:39.582Z</time></trkpt><trkpt lat="42.104935" lon="13.3748367"><ele>883.0</ele><time>2026-05-02T14:43:41.582Z</time></trkpt><trkpt lat="42.10489" lon="13.3747767"><ele>883.0</ele><time>2026-05-02T14:43:42.581Z</time></trkpt><trkpt lat="42.104855" lon="13.3747017"><ele>882.9999999999999</ele><time>2026-05-02T14:43:43.582Z</time></trkpt><trkpt lat="42.1048083" lon="13.3745467"><ele>883.0</ele><time>2026-05-02T14:43:45.581Z</time></trkpt><trkpt lat="42.1047617" lon="13.3744067"><ele>880.8</ele><time>2026-05-02T14:43:47.581Z</time></trkpt><trkpt lat="42.1046867" lon="13.3743167"><ele>878.5999999999999</ele><time>2026-05-02T14:43:49.581Z</time></trkpt><trkpt lat="42.10459" lon="13.3742967"><ele>876.4000000000001</ele><time>2026-05-02T14:43:51.582Z</time></trkpt><trkpt lat="42.1045233" lon="13.3742783"><ele>874.2</ele><time>2026-05-02T14:43:53.581Z</time></trkpt><trkpt lat="42.1044533" lon="13.3741567"><ele>872.0</ele><time>2026-05-02T14:43:55.582Z</time></trkpt><trkpt lat="42.1044083" lon="13.3740517"><ele>872.0</ele><time>2026-05-02T14:43:56.581Z</time></trkpt><trkpt lat="42.1043567" lon="13.3739267"><ele>872.0</ele><time>2026-05-02T14:43:57.581Z</time></trkpt><trkpt lat="42.1042867" lon="13.3738117"><ele>872.0</ele><time>2026-05-02T14:43:58.581Z</time></trkpt><trkpt lat="42.1042133" lon="13.3737117"><ele>872.0</ele><time>2026-05-02T14:43:59.582Z</time></trkpt><trkpt lat="42.1041467" lon="13.3736283"><ele>872.0</ele><time>2026-05-02T14:44:00.581Z</time></trkpt><trkpt lat="42.1040917" lon="13.37355"><ele>871.1666666666667</ele><time>2026-05-02T14:44:01.582Z</time></trkpt><trkpt lat="42.1040383" lon="13.3734783"><ele>870.3333333333334</ele><time>2026-05-02T14:44:02.581Z</time></trkpt><trkpt lat="42.1039917" lon="13.373395"><ele>869.5</ele><time>2026-05-02T14:44:03.581Z</time></trkpt><trkpt lat="42.1039567" lon="13.3733133"><ele>868.6666666666667</ele><time>2026-05-02T14:44:04.581Z</time></trkpt><trkpt lat="42.103915" lon="13.373245"><ele>867.8333333333334</ele><time>2026-05-02T14:44:05.581Z</time></trkpt><trkpt lat="42.10382" lon="13.37314"><ele>867.0</ele><time>2026-05-02T14:44:07.581Z</time></trkpt><trkpt lat="42.1037633" lon="13.3730783"><ele>868.6666666666666</ele><time>2026-05-02T14:44:08.581Z</time></trkpt><trkpt lat="42.1036983" lon="13.3730167"><ele>870.3333333333333</ele><time>2026-05-02T14:44:09.58Z</time></trkpt><trkpt lat="42.1036367" lon="13.3729333"><ele>872.0</ele><time>2026-05-02T14:44:10.581Z</time></trkpt><trkpt lat="42.1035917" lon="13.372845"><ele>873.6666666666666</ele><time>2026-05-02T14:44:11.58Z</time></trkpt><trkpt lat="42.103545" lon="13.3727617"><ele>875.3333333333333</ele><time>2026-05-02T14:44:12.581Z</time></trkpt><trkpt lat="42.1034967" lon="13.37268"><ele>877.0</ele><time>2026-05-02T14:44:13.581Z</time></trkpt><trkpt lat="42.10345" lon="13.37261"><ele>876.9999999999999</ele><time>2026-05-02T14:44:14.581Z</time></trkpt><trkpt lat="42.1033967" lon="13.372555"><ele>877.0</ele><time>2026-05-02T14:44:15.581Z</time></trkpt><trkpt lat="42.1033283" lon="13.372485"><ele>877.0</ele><time>2026-05-02T14:44:17.58Z</time></trkpt><trkpt lat="42.103315" lon="13.3723867"><ele>877.0</ele><time>2026-05-02T14:44:19.581Z</time></trkpt><trkpt lat="42.1032967" lon="13.3722767"><ele>876.9999999999999</ele><time>2026-05-02T14:44:21.581Z</time></trkpt><trkpt lat="42.10324" lon="13.3721817"><ele>877.0</ele><time>2026-05-02T14:44:23.581Z</time></trkpt><trkpt lat="42.1031717" lon="13.3720867"><ele>874.8</ele><time>2026-05-02T14:44:25.581Z</time></trkpt><trkpt lat="42.1031033" lon="13.3720017"><ele>872.6</ele><time>2026-05-02T14:44:27.581Z</time></trkpt><trkpt lat="42.103025" lon="13.3719283"><ele>870.3999999999999</ele><time>2026-05-02T14:44:29.58Z</time></trkpt><trkpt lat="42.102935" lon="13.3718633"><ele>868.1999999999999</ele><time>2026-05-02T14:44:31.581Z</time></trkpt><trkpt lat="42.1028583" lon="13.3717883"><ele>866.0</ele><time>2026-05-02T14:44:33.58Z</time></trkpt><trkpt lat="42.1027883" lon="13.3716833"><ele>866.0000000000001</ele><time>2026-05-02T14:44:35.58Z</time></trkpt><trkpt lat="42.1027383" lon="13.3716"><ele>866.0</ele><time>2026-05-02T14:44:37.581Z</time></trkpt><trkpt lat="42.10269" lon="13.371505"><ele>866.0</ele><time>2026-05-02T14:44:40.581Z</time></trkpt><trkpt lat="42.10266" lon="13.3714167"><ele>866.0</ele><time>2026-05-02T14:44:42.581Z</time></trkpt><trkpt lat="42.10259" lon="13.3713367"><ele>866.0000000000001</ele><time>2026-05-02T14:44:44.581Z</time></trkpt><trkpt lat="42.1025133" lon="13.3712733"><ele>866.0</ele><time>2026-05-02T14:44:46.58Z</time></trkpt><trkpt lat="42.1024417" lon="13.3711983"><ele>863.3333333333334</ele><time>2026-05-02T14:44:48.581Z</time></trkpt><trkpt lat="42.1023783" lon="13.37112"><ele>860.6666666666667</ele><time>2026-05-02T14:44:50.58Z</time></trkpt><trkpt lat="42.1023133" lon="13.37106"><ele>858.0</ele><time>2026-05-02T14:44:52.58Z</time></trkpt><trkpt lat="42.1022267" lon="13.37102"><ele>855.3333333333333</ele><time>2026-05-02T14:44:54.58Z</time></trkpt><trkpt lat="42.1021533" lon="13.37094"><ele>852.6666666666666</ele><time>2026-05-02T14:44:56.581Z</time></trkpt><trkpt lat="42.1020867" lon="13.3708783"><ele>850.0</ele><time>2026-05-02T14:44:58.58Z</time></trkpt><trkpt lat="42.10201" lon="13.370845"><ele>850.0</ele><time>2026-05-02T14:45:00.581Z</time></trkpt><trkpt lat="42.1019483" lon="13.37078"><ele>850.0</ele><time>2026-05-02T14:45:02.58Z</time></trkpt><trkpt lat="42.1018833" lon="13.3707117"><ele>850.0</ele><time>2026-05-02T14:45:04.581Z</time></trkpt><trkpt lat="42.10182" lon="13.370675"><ele>850.0</ele><time>2026-05-02T14:45:06.581Z</time></trkpt><trkpt lat="42.10176" lon="13.3706483"><ele>850.0</ele><time>2026-05-02T14:45:08.581Z</time></trkpt><trkpt lat="42.1017033" lon="13.370595"><ele>850.0</ele><time>2026-05-02T14:45:10.58Z</time></trkpt><trkpt lat="42.1016567" lon="13.3705317"><ele>850.0</ele><time>2026-05-02T14:45:12.581Z</time></trkpt><trkpt lat="42.1015917" lon="13.3705017"><ele>846.3333333333333</ele><time>2026-05-02T14:45:14.58Z</time></trkpt><trkpt lat="42.1015183" lon="13.3705383"><ele>842.6666666666666</ele><time>2026-05-02T14:45:16.58Z</time></trkpt><trkpt lat="42.101455" lon="13.3705417"><ele>839.0</ele><time>2026-05-02T14:45:18.581Z</time></trkpt><trkpt lat="42.1013733" lon="13.3705083"><ele>835.3333333333333</ele><time>2026-05-02T14:45:20.581Z</time></trkpt><trkpt lat="42.10129" lon="13.370495"><ele>831.6666666666666</ele><time>2026-05-02T14:45:22.58Z</time></trkpt><trkpt lat="42.1012133" lon="13.370495"><ele>828.0</ele><time>2026-05-02T14:45:25.58Z</time></trkpt><trkpt lat="42.101145" lon="13.3705433"><ele>828.0</ele><time>2026-05-02T14:45:28.58Z</time></trkpt><trkpt lat="42.10107" lon="13.3705917"><ele>828.0</ele><time>2026-05-02T14:45:30.581Z</time></trkpt><trkpt lat="42.1010017" lon="13.37064"><ele>828.0</ele><time>2026-05-02T14:45:32.58Z</time></trkpt><trkpt lat="42.1009333" lon="13.37069"><ele>828.0</ele><time>2026-05-02T14:45:34.58Z</time></trkpt><trkpt lat="42.1008533" lon="13.37067"><ele>828.0</ele><time>2026-05-02T14:45:37.581Z</time></trkpt><trkpt lat="42.1007767" lon="13.3706067"><ele>828.0</ele><time>2026-05-02T14:45:39.58Z</time></trkpt><trkpt lat="42.1006883" lon="13.3705483"><ele>826.1666666666666</ele><time>2026-05-02T14:45:41.581Z</time></trkpt><trkpt lat="42.1006033" lon="13.3704883"><ele>824.3333333333333</ele><time>2026-05-02T14:45:43.581Z</time></trkpt><trkpt lat="42.1005267" lon="13.3704633"><ele>822.5</ele><time>2026-05-02T14:45:45.581Z</time></trkpt><trkpt lat="42.10044" lon="13.37047"><ele>820.6666666666666</ele><time>2026-05-02T14:45:47.58Z</time></trkpt><trkpt lat="42.1003417" lon="13.3705117"><ele>818.8333333333333</ele><time>2026-05-02T14:45:49.58Z</time></trkpt><trkpt lat="42.1002867" lon="13.3705717"><ele>817.0</ele><time>2026-05-02T14:45:51.58Z</time></trkpt><trkpt lat="42.1002117" lon="13.3705667"><ele>816.9999999999999</ele><time>2026-05-02T14:45:54.581Z</time></trkpt><trkpt lat="42.100155" lon="13.3704967"><ele>817.0</ele><time>2026-05-02T14:45:56.581Z</time></trkpt><trkpt lat="42.100085" lon="13.3704267"><ele>817.0</ele><time>2026-05-02T14:45:58.581Z</time></trkpt><trkpt lat="42.09999" lon="13.3703617"><ele>817.0</ele><time>2026-05-02T14:46:00.581Z</time></trkpt><trkpt lat="42.0999333" lon="13.3703217"><ele>816.9999999999999</ele><time>2026-05-02T14:46:01.58Z</time></trkpt><trkpt lat="42.0998783" lon="13.37027"><ele>817.0</ele><time>2026-05-02T14:46:02.58Z</time></trkpt><trkpt lat="42.0998217" lon="13.3702183"><ele>814.5714285714286</ele><time>2026-05-02T14:46:03.581Z</time></trkpt><trkpt lat="42.0997667" lon="13.3701667"><ele>812.1428571428571</ele><time>2026-05-02T14:46:04.58Z</time></trkpt><trkpt lat="42.0997117" lon="13.3701083"><ele>809.7142857142858</ele><time>2026-05-02T14:46:05.581Z</time></trkpt><trkpt lat="42.09966" lon="13.370045"><ele>807.2857142857142</ele><time>2026-05-02T14:46:06.58Z</time></trkpt><trkpt lat="42.0996017" lon="13.3699867"><ele>804.8571428571429</ele><time>2026-05-02T14:46:07.581Z</time></trkpt><trkpt lat="42.09954" lon="13.3699133"><ele>802.4285714285714</ele><time>2026-05-02T14:46:08.581Z</time></trkpt><trkpt lat="42.09948" lon="13.36983"><ele>800.0</ele><time>2026-05-02T14:46:09.581Z</time></trkpt><trkpt lat="42.0994183" lon="13.3697433"><ele>800.3333333333334</ele><time>2026-05-02T14:46:10.58Z</time></trkpt><trkpt lat="42.0993567" lon="13.3696583"><ele>800.6666666666667</ele><time>2026-05-02T14:46:11.581Z</time></trkpt><trkpt lat="42.0993017" lon="13.369585"><ele>801.0</ele><time>2026-05-02T14:46:12.581Z</time></trkpt><trkpt lat="42.099245" lon="13.3695183"><ele>801.3333333333333</ele><time>2026-05-02T14:46:13.581Z</time></trkpt><trkpt lat="42.0991817" lon="13.3694467"><ele>801.6666666666666</ele><time>2026-05-02T14:46:14.58Z</time></trkpt><trkpt lat="42.099115" lon="13.3693783"><ele>802.0</ele><time>2026-05-02T14:46:15.581Z</time></trkpt><trkpt lat="42.0990517" lon="13.3693033"><ele>799.9999999999999</ele><time>2026-05-02T14:46:16.581Z</time></trkpt><trkpt lat="42.09899" lon="13.36923"><ele>798.0</ele><time>2026-05-02T14:46:17.581Z</time></trkpt><trkpt lat="42.09892" lon="13.3691517"><ele>796.0</ele><time>2026-05-02T14:46:18.581Z</time></trkpt><trkpt lat="42.098855" lon="13.369085"><ele>794.0</ele><time>2026-05-02T14:46:19.58Z</time></trkpt><trkpt lat="42.09879" lon="13.3690217"><ele>791.9999999999999</ele><time>2026-05-02T14:46:20.581Z</time></trkpt><trkpt lat="42.0987383" lon="13.3689683"><ele>790.0</ele><time>2026-05-02T14:46:21.581Z</time></trkpt><trkpt lat="42.098615" lon="13.3688967"><ele>789.3333333333333</ele><time>2026-05-02T14:46:23.581Z</time></trkpt><trkpt lat="42.09854" lon="13.3688517"><ele>788.6666666666666</ele><time>2026-05-02T14:46:24.58Z</time></trkpt><trkpt lat="42.0984617" lon="13.3688117"><ele>788.0</ele><time>2026-05-02T14:46:25.581Z</time></trkpt><trkpt lat="42.098385" lon="13.36877"><ele>787.3333333333333</ele><time>2026-05-02T14:46:26.581Z</time></trkpt><trkpt lat="42.09831" lon="13.368725"><ele>786.6666666666666</ele><time>2026-05-02T14:46:27.58Z</time></trkpt><trkpt lat="42.0982383" lon="13.368685"><ele>786.0</ele><time>2026-05-02T14:46:28.581Z</time></trkpt><trkpt lat="42.0981633" lon="13.36865"><ele>786.0</ele><time>2026-05-02T14:46:29.58Z</time></trkpt><trkpt lat="42.09809" lon="13.3686167"><ele>786.0</ele><time>2026-05-02T14:46:30.581Z</time></trkpt><trkpt lat="42.0980133" lon="13.368585"><ele>786.0</ele><time>2026-05-02T14:46:31.58Z</time></trkpt><trkpt lat="42.0979383" lon="13.3685517"><ele>786.0</ele><time>2026-05-02T14:46:32.58Z</time></trkpt><trkpt lat="42.0978667" lon="13.3685217"><ele>786.0</ele><time>2026-05-02T14:46:33.58Z</time></trkpt><trkpt lat="42.0977967" lon="13.368495"><ele>786.0</ele><time>2026-05-02T14:46:34.58Z</time></trkpt><trkpt lat="42.0977317" lon="13.368465"><ele>786.0</ele><time>2026-05-02T14:46:35.581Z</time></trkpt><trkpt lat="42.0976717" lon="13.368435"><ele>786.0</ele><time>2026-05-02T14:46:36.581Z</time></trkpt><trkpt lat="42.09761" lon="13.3684117"><ele>786.0</ele><time>2026-05-02T14:46:37.58Z</time></trkpt><trkpt lat="42.0974917" lon="13.3683733"><ele>786.0</ele><time>2026-05-02T14:46:39.58Z</time></trkpt><trkpt lat="42.0973833" lon="13.36834"><ele>786.0</ele><time>2026-05-02T14:46:41.58Z</time></trkpt><trkpt lat="42.0972817" lon="13.3683117"><ele>782.8</ele><time>2026-05-02T14:46:43.58Z</time></trkpt><trkpt lat="42.0971817" lon="13.3682767"><ele>779.5999999999999</ele><time>2026-05-02T14:46:45.581Z</time></trkpt><trkpt lat="42.0970833" lon="13.3682217"><ele>776.4</ele><time>2026-05-02T14:46:47.581Z</time></trkpt><trkpt lat="42.0969767" lon="13.3681517"><ele>773.2</ele><time>2026-05-02T14:46:49.58Z</time></trkpt><trkpt lat="42.0969167" lon="13.368105"><ele>770.0</ele><time>2026-05-02T14:46:50.58Z</time></trkpt><trkpt lat="42.0968583" lon="13.3680633"><ele>769.0000000000001</ele><time>2026-05-02T14:46:51.58Z</time></trkpt><trkpt lat="42.0968033" lon="13.3680133"><ele>768.0</ele><time>2026-05-02T14:46:52.581Z</time></trkpt><trkpt lat="42.0967517" lon="13.3679583"><ele>767.0</ele><time>2026-05-02T14:46:53.58Z</time></trkpt><trkpt lat="42.0966617" lon="13.3678683"><ele>766.0</ele><time>2026-05-02T14:46:55.581Z</time></trkpt><trkpt lat="42.0965867" lon="13.3677833"><ele>765.0</ele><time>2026-05-02T14:46:57.58Z</time></trkpt><trkpt lat="42.0965033" lon="13.367695"><ele>764.0</ele><time>2026-05-02T14:46:59.58Z</time></trkpt><trkpt lat="42.09642" lon="13.367595"><ele>762.1666666666666</ele><time>2026-05-02T14:47:01.581Z</time></trkpt><trkpt lat="42.0963533" lon="13.3675083"><ele>760.3333333333333</ele><time>2026-05-02T14:47:03.581Z</time></trkpt><trkpt lat="42.0962817" lon="13.3674233"><ele>758.5</ele><time>2026-05-02T14:47:05.581Z</time></trkpt><trkpt lat="42.0962183" lon="13.367345"><ele>756.6666666666666</ele><time>2026-05-02T14:47:07.58Z</time></trkpt><trkpt lat="42.0961483" lon="13.3672867"><ele>754.8333333333334</ele><time>2026-05-02T14:47:09.58Z</time></trkpt><trkpt lat="42.0960717" lon="13.3672417"><ele>753.0</ele><time>2026-05-02T14:47:11.58Z</time></trkpt><trkpt lat="42.0959883" lon="13.367195"><ele>750.8333333333334</ele><time>2026-05-02T14:47:13.581Z</time></trkpt><trkpt lat="42.0958733" lon="13.367145"><ele>748.6666666666666</ele><time>2026-05-02T14:47:15.58Z</time></trkpt><trkpt lat="42.0957967" lon="13.3671183"><ele>746.5</ele><time>2026-05-02T14:47:16.581Z</time></trkpt><trkpt lat="42.095715" lon="13.3670833"><ele>744.3333333333333</ele><time>2026-05-02T14:47:17.581Z</time></trkpt><trkpt lat="42.09564" lon="13.3670517"><ele>742.1666666666666</ele><time>2026-05-02T14:47:18.58Z</time></trkpt><trkpt lat="42.0955633" lon="13.36702"><ele>740.0</ele><time>2026-05-02T14:47:19.581Z</time></trkpt><trkpt lat="42.0954833" lon="13.3669767"><ele>739.0</ele><time>2026-05-02T14:47:20.58Z</time></trkpt><trkpt lat="42.0954033" lon="13.3669317"><ele>738.0</ele><time>2026-05-02T14:47:21.581Z</time></trkpt><trkpt lat="42.0953183" lon="13.3668833"><ele>737.0</ele><time>2026-05-02T14:47:22.58Z</time></trkpt><trkpt lat="42.0952267" lon="13.36683"><ele>736.0</ele><time>2026-05-02T14:47:23.581Z</time></trkpt><trkpt lat="42.0951283" lon="13.3667867"><ele>735.0</ele><time>2026-05-02T14:47:24.581Z</time></trkpt><trkpt lat="42.0950333" lon="13.3667433"><ele>735.0</ele><time>2026-05-02T14:47:25.581Z</time></trkpt><trkpt lat="42.0949433" lon="13.366695"><ele>735.0</ele><time>2026-05-02T14:47:26.581Z</time></trkpt><trkpt lat="42.0948667" lon="13.366665"><ele>735.0</ele><time>2026-05-02T14:47:27.581Z</time></trkpt><trkpt lat="42.0947567" lon="13.3666617"><ele>735.0</ele><time>2026-05-02T14:47:29.58Z</time></trkpt><trkpt lat="42.0946883" lon="13.36668"><ele>735.0</ele><time>2026-05-02T14:47:31.581Z</time></trkpt><trkpt lat="42.09462" lon="13.3666283"><ele>735.0</ele><time>2026-05-02T14:47:33.581Z</time></trkpt><trkpt lat="42.0945283" lon="13.3665283"><ele>734.8</ele><time>2026-05-02T14:47:35.58Z</time></trkpt><trkpt lat="42.0944383" lon="13.3664483"><ele>734.6</ele><time>2026-05-02T14:47:37.58Z</time></trkpt><trkpt lat="42.0943733" lon="13.36636"><ele>734.4000000000001</ele><time>2026-05-02T14:47:39.581Z</time></trkpt><trkpt lat="42.0943383" lon="13.3662683"><ele>734.2</ele><time>2026-05-02T14:47:41.581Z</time></trkpt><trkpt lat="42.0943667" lon="13.36618"><ele>734.0</ele><time>2026-05-02T14:47:43.581Z</time></trkpt><trkpt lat="42.09442" lon="13.3660583"><ele>734.3333333333333</ele><time>2026-05-02T14:47:52.579Z</time></trkpt><trkpt lat="42.0944867" lon="13.3659317"><ele>734.6666666666666</ele><time>2026-05-02T14:47:54.579Z</time></trkpt><trkpt lat="42.0945383" lon="13.365855"><ele>735.0</ele><time>2026-05-02T14:47:55.579Z</time></trkpt><trkpt lat="42.0945933" lon="13.3657767"><ele>735.3333333333334</ele><time>2026-05-02T14:47:56.579Z</time></trkpt><trkpt lat="42.0946467" lon="13.3657083"><ele>735.6666666666667</ele><time>2026-05-02T14:47:57.579Z</time></trkpt><trkpt lat="42.0947033" lon="13.365625"><ele>736.0</ele><time>2026-05-02T14:47:58.579Z</time></trkpt><trkpt lat="42.0947633" lon="13.3655267"><ele>736.0</ele><time>2026-05-02T14:47:59.58Z</time></trkpt><trkpt lat="42.0948283" lon="13.3654217"><ele>736.0</ele><time>2026-05-02T14:48:00.579Z</time></trkpt><trkpt lat="42.0948983" lon="13.3652933"><ele>736.0</ele><time>2026-05-02T14:48:01.579Z</time></trkpt><trkpt lat="42.09499" lon="13.3651517"><ele>736.0</ele><time>2026-05-02T14:48:02.58Z</time></trkpt><trkpt lat="42.0950933" lon="13.3650067"><ele>734.25</ele><time>2026-05-02T14:48:03.579Z</time></trkpt><trkpt lat="42.0952" lon="13.3648617"><ele>732.5</ele><time>2026-05-02T14:48:04.579Z</time></trkpt><trkpt lat="42.095305" lon="13.3647183"><ele>730.75</ele><time>2026-05-02T14:48:05.58Z</time></trkpt><trkpt lat="42.0954067" lon="13.36458"><ele>729.0</ele><time>2026-05-02T14:48:06.58Z</time></trkpt><trkpt lat="42.0955133" lon="13.3644533"><ele>728.75</ele><time>2026-05-02T14:48:07.58Z</time></trkpt><trkpt lat="42.0956183" lon="13.3643383"><ele>728.5</ele><time>2026-05-02T14:48:08.579Z</time></trkpt><trkpt lat="42.0957183" lon="13.3642267"><ele>728.25</ele><time>2026-05-02T14:48:09.579Z</time></trkpt><trkpt lat="42.0958183" lon="13.3640867"><ele>728.0</ele><time>2026-05-02T14:48:10.579Z</time></trkpt><trkpt lat="42.09592" lon="13.363925"><ele>726.0</ele><time>2026-05-02T14:48:11.58Z</time></trkpt><trkpt lat="42.096025" lon="13.3637617"><ele>724.0</ele><time>2026-05-02T14:48:12.579Z</time></trkpt><trkpt lat="42.0961333" lon="13.3635967"><ele>722.0</ele><time>2026-05-02T14:48:13.58Z</time></trkpt><trkpt lat="42.0962433" lon="13.3634267"><ele>722.0</ele><time>2026-05-02T14:48:14.58Z</time></trkpt><trkpt lat="42.09635" lon="13.3632367"><ele>722.0</ele><time>2026-05-02T14:48:15.58Z</time></trkpt><trkpt lat="42.09648" lon="13.3630383"><ele>722.0</ele><time>2026-05-02T14:48:16.58Z</time></trkpt><trkpt lat="42.0966167" lon="13.3628383"><ele>720.0</ele><time>2026-05-02T14:48:17.58Z</time></trkpt><trkpt lat="42.0967583" lon="13.3626367"><ele>718.0</ele><time>2026-05-02T14:48:18.579Z</time></trkpt><trkpt lat="42.096895" lon="13.362435"><ele>716.0</ele><time>2026-05-02T14:48:19.58Z</time></trkpt><trkpt lat="42.0970217" lon="13.36224"><ele>715.6666666666666</ele><time>2026-05-02T14:48:20.58Z</time></trkpt><trkpt lat="42.097145" lon="13.3620483"><ele>715.3333333333334</ele><time>2026-05-02T14:48:21.58Z</time></trkpt><trkpt lat="42.097265" lon="13.361865"><ele>715.0</ele><time>2026-05-02T14:48:22.58Z</time></trkpt><trkpt lat="42.0973817" lon="13.3616867"><ele>714.6666666666667</ele><time>2026-05-02T14:48:23.58Z</time></trkpt><trkpt lat="42.097495" lon="13.3615183"><ele>714.3333333333334</ele><time>2026-05-02T14:48:24.579Z</time></trkpt><trkpt lat="42.0976083" lon="13.3613517"><ele>714.0</ele><time>2026-05-02T14:48:25.58Z</time></trkpt><trkpt lat="42.097715" lon="13.3611883"><ele>714.0</ele><time>2026-05-02T14:48:26.579Z</time></trkpt><trkpt lat="42.0978233" lon="13.3610217"><ele>714.0</ele><time>2026-05-02T14:48:27.58Z</time></trkpt><trkpt lat="42.0979283" lon="13.36086"><ele>714.0</ele><time>2026-05-02T14:48:28.579Z</time></trkpt><trkpt lat="42.0980333" lon="13.360705"><ele>714.0</ele><time>2026-05-02T14:48:29.579Z</time></trkpt><trkpt lat="42.0981433" lon="13.3605617"><ele>714.0</ele><time>2026-05-02T14:48:30.579Z</time></trkpt><trkpt lat="42.09825" lon="13.3604183"><ele>714.0</ele><time>2026-05-02T14:48:31.58Z</time></trkpt><trkpt lat="42.0983617" lon="13.360275"><ele>712.3333333333334</ele><time>2026-05-02T14:48:32.579Z</time></trkpt><trkpt lat="42.0984833" lon="13.360115"><ele>710.6666666666667</ele><time>2026-05-02T14:48:33.579Z</time></trkpt><trkpt lat="42.0986217" lon="13.3599633"><ele>709.0</ele><time>2026-05-02T14:48:34.58Z</time></trkpt><trkpt lat="42.0987633" lon="13.3598083"><ele>708.6666666666667</ele><time>2026-05-02T14:48:35.58Z</time></trkpt><trkpt lat="42.0989067" lon="13.3596567"><ele>708.3333333333334</ele><time>2026-05-02T14:48:36.579Z</time></trkpt><trkpt lat="42.099045" lon="13.359505"><ele>708.0</ele><time>2026-05-02T14:48:37.58Z</time></trkpt><trkpt lat="42.0991717" lon="13.3593467"><ele>708.0</ele><time>2026-05-02T14:48:38.58Z</time></trkpt><trkpt lat="42.0992967" lon="13.3591833"><ele>708.0</ele><time>2026-05-02T14:48:39.58Z</time></trkpt><trkpt lat="42.09942" lon="13.359035"><ele>708.0</ele><time>2026-05-02T14:48:40.58Z</time></trkpt><trkpt lat="42.0995417" lon="13.3588833"><ele>708.0</ele><time>2026-05-02T14:48:41.58Z</time></trkpt><trkpt lat="42.0996617" lon="13.358725"><ele>708.0</ele><time>2026-05-02T14:48:42.58Z</time></trkpt><trkpt lat="42.099775" lon="13.3585583"><ele>708.0</ele><time>2026-05-02T14:48:43.579Z</time></trkpt><trkpt lat="42.099895" lon="13.3583967"><ele>708.3333333333334</ele><time>2026-05-02T14:48:44.579Z</time></trkpt><trkpt lat="42.1000333" lon="13.3582417"><ele>708.6666666666667</ele><time>2026-05-02T14:48:45.58Z</time></trkpt><trkpt lat="42.1001783" lon="13.3580867"><ele>709.0</ele><time>2026-05-02T14:48:46.58Z</time></trkpt><trkpt lat="42.10032" lon="13.3579383"><ele>709.0</ele><time>2026-05-02T14:48:47.58Z</time></trkpt><trkpt lat="42.1004583" lon="13.3577933"><ele>709.0</ele><time>2026-05-02T14:48:48.579Z</time></trkpt><trkpt lat="42.1005983" lon="13.357655"><ele>709.0</ele><time>2026-05-02T14:48:49.58Z</time></trkpt><trkpt lat="42.1007283" lon="13.357515"><ele>709.3333333333334</ele><time>2026-05-02T14:48:50.58Z</time></trkpt><trkpt lat="42.1008433" lon="13.3573633"><ele>709.6666666666666</ele><time>2026-05-02T14:48:51.58Z</time></trkpt><trkpt lat="42.100955" lon="13.3572317"><ele>710.0</ele><time>2026-05-02T14:48:52.58Z</time></trkpt><trkpt lat="42.1010733" lon="13.3571217"><ele>710.0</ele><time>2026-05-02T14:48:53.579Z</time></trkpt><trkpt lat="42.1011917" lon="13.357035"><ele>710.0</ele><time>2026-05-02T14:48:54.58Z</time></trkpt><trkpt lat="42.10131" lon="13.3569583"><ele>710.0</ele><time>2026-05-02T14:48:55.58Z</time></trkpt><trkpt lat="42.10143" lon="13.356865"><ele>710.0</ele><time>2026-05-02T14:48:56.579Z</time></trkpt><trkpt lat="42.1015517" lon="13.3567483"><ele>711.0</ele><time>2026-05-02T14:48:57.579Z</time></trkpt><trkpt lat="42.1016717" lon="13.3566117"><ele>712.0</ele><time>2026-05-02T14:48:58.58Z</time></trkpt><trkpt lat="42.1017867" lon="13.3564817"><ele>713.0</ele><time>2026-05-02T14:48:59.579Z</time></trkpt><trkpt lat="42.1019033" lon="13.3563433"><ele>713.0</ele><time>2026-05-02T14:49:00.579Z</time></trkpt><trkpt lat="42.1020133" lon="13.3561917"><ele>713.0</ele><time>2026-05-02T14:49:01.58Z</time></trkpt><trkpt lat="42.1021267" lon="13.3560333"><ele>713.0</ele><time>2026-05-02T14:49:02.58Z</time></trkpt><trkpt lat="42.102245" lon="13.3558833"><ele>713.0</ele><time>2026-05-02T14:49:03.579Z</time></trkpt><trkpt lat="42.1023617" lon="13.355735"><ele>713.0</ele><time>2026-05-02T14:49:04.579Z</time></trkpt><trkpt lat="42.102475" lon="13.3555817"><ele>713.0</ele><time>2026-05-02T14:49:05.579Z</time></trkpt><trkpt lat="42.10259" lon="13.355435"><ele>713.0</ele><time>2026-05-02T14:49:06.579Z</time></trkpt><trkpt lat="42.1027083" lon="13.355285"><ele>713.0</ele><time>2026-05-02T14:49:07.579Z</time></trkpt><trkpt lat="42.1028233" lon="13.35513"><ele>713.0</ele><time>2026-05-02T14:49:08.58Z</time></trkpt><trkpt lat="42.1029417" lon="13.3549767"><ele>713.0</ele><time>2026-05-02T14:49:09.58Z</time></trkpt><trkpt lat="42.1030683" lon="13.3548217"><ele>713.0</ele><time>2026-05-02T14:49:10.579Z</time></trkpt><trkpt lat="42.103195" lon="13.354665"><ele>713.0</ele><time>2026-05-02T14:49:11.579Z</time></trkpt><trkpt lat="42.1033167" lon="13.354515"><ele>716.3333333333333</ele><time>2026-05-02T14:49:12.58Z</time></trkpt><trkpt lat="42.1034367" lon="13.3543517"><ele>719.6666666666666</ele><time>2026-05-02T14:49:13.58Z</time></trkpt><trkpt lat="42.1035517" lon="13.3541883"><ele>723.0</ele><time>2026-05-02T14:49:14.58Z</time></trkpt><trkpt lat="42.1036733" lon="13.3540333"><ele>723.0</ele><time>2026-05-02T14:49:15.579Z</time></trkpt><trkpt lat="42.1037917" lon="13.3538783"><ele>723.0</ele><time>2026-05-02T14:49:16.58Z</time></trkpt><trkpt lat="42.103905" lon="13.35372"><ele>723.0</ele><time>2026-05-02T14:49:17.58Z</time></trkpt><trkpt lat="42.1040217" lon="13.3535617"><ele>725.3333333333334</ele><time>2026-05-02T14:49:18.579Z</time></trkpt><trkpt lat="42.10414" lon="13.3534133"><ele>727.6666666666667</ele><time>2026-05-02T14:49:19.579Z</time></trkpt><trkpt lat="42.1042617" lon="13.35327"><ele>730.0</ele><time>2026-05-02T14:49:20.579Z</time></trkpt><trkpt lat="42.1043967" lon="13.3531467"><ele>731.0</ele><time>2026-05-02T14:49:21.58Z</time></trkpt><trkpt lat="42.1045367" lon="13.353035"><ele>732.0</ele><time>2026-05-02T14:49:22.579Z</time></trkpt><trkpt lat="42.1046817" lon="13.352915"><ele>733.0</ele><time>2026-05-02T14:49:23.58Z</time></trkpt><trkpt lat="42.1048217" lon="13.3528"><ele>735.3333333333334</ele><time>2026-05-02T14:49:24.579Z</time></trkpt><trkpt lat="42.1049633" lon="13.3526917"><ele>737.6666666666666</ele><time>2026-05-02T14:49:25.58Z</time></trkpt><trkpt lat="42.1050933" lon="13.3525917"><ele>740.0</ele><time>2026-05-02T14:49:26.58Z</time></trkpt><trkpt lat="42.1052267" lon="13.35249"><ele>740.0</ele><time>2026-05-02T14:49:27.58Z</time></trkpt><trkpt lat="42.10536" lon="13.352385"><ele>740.0</ele><time>2026-05-02T14:49:28.58Z</time></trkpt><trkpt lat="42.1054983" lon="13.3522767"><ele>740.0</ele><time>2026-05-02T14:49:29.579Z</time></trkpt><trkpt lat="42.1056383" lon="13.3521683"><ele>741.0</ele><time>2026-05-02T14:49:30.58Z</time></trkpt><trkpt lat="42.10577" lon="13.3520583"><ele>742.0</ele><time>2026-05-02T14:49:31.579Z</time></trkpt><trkpt lat="42.105895" lon="13.3519567"><ele>743.0</ele><time>2026-05-02T14:49:32.58Z</time></trkpt><trkpt lat="42.10601" lon="13.3518583"><ele>744.0</ele><time>2026-05-02T14:49:33.579Z</time></trkpt><trkpt lat="42.10612" lon="13.3517717"><ele>744.0</ele><time>2026-05-02T14:49:34.579Z</time></trkpt><trkpt lat="42.1062233" lon="13.3516883"><ele>744.0</ele><time>2026-05-02T14:49:35.579Z</time></trkpt><trkpt lat="42.1063217" lon="13.3516033"><ele>744.0</ele><time>2026-05-02T14:49:36.58Z</time></trkpt><trkpt lat="42.1064167" lon="13.35153"><ele>744.0</ele><time>2026-05-02T14:49:37.58Z</time></trkpt><trkpt lat="42.1065067" lon="13.3514617"><ele>744.6</ele><time>2026-05-02T14:49:38.579Z</time></trkpt><trkpt lat="42.1066" lon="13.3514067"><ele>745.2</ele><time>2026-05-02T14:49:39.58Z</time></trkpt><trkpt lat="42.1066917" lon="13.3513683"><ele>745.8000000000001</ele><time>2026-05-02T14:49:40.58Z</time></trkpt><trkpt lat="42.1067783" lon="13.3513317"><ele>746.4000000000001</ele><time>2026-05-02T14:49:41.579Z</time></trkpt><trkpt lat="42.1068583" lon="13.351295"><ele>747.0</ele><time>2026-05-02T14:49:42.579Z</time></trkpt><trkpt lat="42.1069267" lon="13.3512467"><ele>747.0</ele><time>2026-05-02T14:49:43.58Z</time></trkpt><trkpt lat="42.10698" lon="13.3511783"><ele>747.0</ele><time>2026-05-02T14:49:44.579Z</time></trkpt><trkpt lat="42.1070183" lon="13.3510883"><ele>747.0</ele><time>2026-05-02T14:49:45.58Z</time></trkpt><trkpt lat="42.10705" lon="13.3509633"><ele>747.0</ele><time>2026-05-02T14:49:46.579Z</time></trkpt><trkpt lat="42.1070767" lon="13.3508067"><ele>747.0</ele><time>2026-05-02T14:49:47.58Z</time></trkpt><trkpt lat="42.1070933" lon="13.3506617"><ele>747.3333333333334</ele><time>2026-05-02T14:49:48.58Z</time></trkpt><trkpt lat="42.1071067" lon="13.3505317"><ele>747.6666666666666</ele><time>2026-05-02T14:49:49.58Z</time></trkpt><trkpt lat="42.1071233" lon="13.3504133"><ele>748.0</ele><time>2026-05-02T14:49:50.579Z</time></trkpt><trkpt lat="42.107145" lon="13.3503033"><ele>748.3333333333333</ele><time>2026-05-02T14:49:51.58Z</time></trkpt><trkpt lat="42.1071633" lon="13.3501967"><ele>748.6666666666666</ele><time>2026-05-02T14:49:52.58Z</time></trkpt><trkpt lat="42.1071917" lon="13.3500983"><ele>749.0</ele><time>2026-05-02T14:49:53.579Z</time></trkpt><trkpt lat="42.107235" lon="13.349995"><ele>749.0</ele><time>2026-05-02T14:49:54.579Z</time></trkpt><trkpt lat="42.10729" lon="13.3498917"><ele>749.0</ele><time>2026-05-02T14:49:55.58Z</time></trkpt><trkpt lat="42.1073567" lon="13.3497883"><ele>749.0</ele><time>2026-05-02T14:49:56.579Z</time></trkpt><trkpt lat="42.1074183" lon="13.3496967"><ele>749.0</ele><time>2026-05-02T14:49:57.579Z</time></trkpt><trkpt lat="42.1074767" lon="13.34962"><ele>749.0</ele><time>2026-05-02T14:49:58.58Z</time></trkpt><trkpt lat="42.10753" lon="13.3495517"><ele>749.0</ele><time>2026-05-02T14:49:59.58Z</time></trkpt><trkpt lat="42.107575" lon="13.3494917"><ele>749.4000000000001</ele><time>2026-05-02T14:50:00.58Z</time></trkpt><trkpt lat="42.10767" lon="13.3493717"><ele>749.8</ele><time>2026-05-02T14:50:02.579Z</time></trkpt><trkpt lat="42.1077183" lon="13.3493133"><ele>750.2</ele><time>2026-05-02T14:50:03.579Z</time></trkpt><trkpt lat="42.1077883" lon="13.3491633"><ele>750.5999999999999</ele><time>2026-05-02T14:50:05.58Z</time></trkpt><trkpt lat="42.10781" lon="13.349055"><ele>751.0</ele><time>2026-05-02T14:50:06.58Z</time></trkpt><trkpt lat="42.1078283" lon="13.3489317"><ele>751.0</ele><time>2026-05-02T14:50:07.58Z</time></trkpt><trkpt lat="42.1078417" lon="13.3488083"><ele>751.0</ele><time>2026-05-02T14:50:08.579Z</time></trkpt><trkpt lat="42.107855" lon="13.3486817"><ele>751.0</ele><time>2026-05-02T14:50:09.579Z</time></trkpt><trkpt lat="42.10787" lon="13.34856"><ele>751.0</ele><time>2026-05-02T14:50:10.58Z</time></trkpt><trkpt lat="42.10789" lon="13.3484367"><ele>751.0</ele><time>2026-05-02T14:50:11.579Z</time></trkpt><trkpt lat="42.107905" lon="13.348315"><ele>751.0</ele><time>2026-05-02T14:50:12.579Z</time></trkpt><trkpt lat="42.1079183" lon="13.3481917"><ele>751.0</ele><time>2026-05-02T14:50:13.58Z</time></trkpt><trkpt lat="42.1079317" lon="13.34808"><ele>751.0</ele><time>2026-05-02T14:50:14.58Z</time></trkpt><trkpt lat="42.1079433" lon="13.347975"><ele>751.0</ele><time>2026-05-02T14:50:15.579Z</time></trkpt><trkpt lat="42.1079483" lon="13.34789"><ele>751.0</ele><time>2026-05-02T14:50:16.58Z</time></trkpt><trkpt lat="42.1079583" lon="13.3477883"><ele>751.0</ele><time>2026-05-02T14:50:18.58Z</time></trkpt><trkpt lat="42.108025" lon="13.347695"><ele>751.3333333333334</ele><time>2026-05-02T14:50:21.579Z</time></trkpt><trkpt lat="42.1081183" lon="13.3476483"><ele>751.6666666666667</ele><time>2026-05-02T14:50:23.58Z</time></trkpt><trkpt lat="42.1081833" lon="13.3476183"><ele>752.0</ele><time>2026-05-02T14:50:24.58Z</time></trkpt><trkpt lat="42.108255" lon="13.3475833"><ele>752.3333333333334</ele><time>2026-05-02T14:50:25.579Z</time></trkpt><trkpt lat="42.1083367" lon="13.3475367"><ele>752.6666666666666</ele><time>2026-05-02T14:50:26.58Z</time></trkpt><trkpt lat="42.1084383" lon="13.3474767"><ele>753.0</ele><time>2026-05-02T14:50:27.58Z</time></trkpt><trkpt lat="42.1085617" lon="13.3474217"><ele>754.6666666666666</ele><time>2026-05-02T14:50:28.579Z</time></trkpt><trkpt lat="42.1086933" lon="13.3473667"><ele>756.3333333333333</ele><time>2026-05-02T14:50:29.579Z</time></trkpt><trkpt lat="42.1088417" lon="13.3473133"><ele>758.0</ele><time>2026-05-02T14:50:30.58Z</time></trkpt><trkpt lat="42.1090117" lon="13.3472683"><ele>760.3333333333333</ele><time>2026-05-02T14:50:31.58Z</time></trkpt><trkpt lat="42.1091867" lon="13.34722"><ele>762.6666666666666</ele><time>2026-05-02T14:50:32.579Z</time></trkpt><trkpt lat="42.1093733" lon="13.3471733"><ele>765.0</ele><time>2026-05-02T14:50:33.58Z</time></trkpt><trkpt lat="42.1095667" lon="13.3471317"><ele>765.0</ele><time>2026-05-02T14:50:34.579Z</time></trkpt><trkpt lat="42.10976" lon="13.347085"><ele>765.0</ele><time>2026-05-02T14:50:35.58Z</time></trkpt><trkpt lat="42.1099483" lon="13.3470383"><ele>765.0</ele><time>2026-05-02T14:50:36.579Z</time></trkpt><trkpt lat="42.1101317" lon="13.3469817"><ele>767.6666666666667</ele><time>2026-05-02T14:50:37.579Z</time></trkpt><trkpt lat="42.1103067" lon="13.3469317"><ele>770.3333333333334</ele><time>2026-05-02T14:50:38.579Z</time></trkpt><trkpt lat="42.1104883" lon="13.34687"><ele>773.0</ele><time>2026-05-02T14:50:39.58Z</time></trkpt><trkpt lat="42.1106667" lon="13.3468033"><ele>774.6666666666667</ele><time>2026-05-02T14:50:40.579Z</time></trkpt><trkpt lat="42.1108317" lon="13.34673"><ele>776.3333333333333</ele><time>2026-05-02T14:50:41.58Z</time></trkpt><trkpt lat="42.1109983" lon="13.3466517"><ele>778.0</ele><time>2026-05-02T14:50:42.579Z</time></trkpt><trkpt lat="42.111165" lon="13.346575"><ele>778.0</ele><time>2026-05-02T14:50:43.58Z</time></trkpt><trkpt lat="42.1113333" lon="13.3465"><ele>778.0</ele><time>2026-05-02T14:50:44.579Z</time></trkpt><trkpt lat="42.1115017" lon="13.34642"><ele>778.0</ele><time>2026-05-02T14:50:45.579Z</time></trkpt><trkpt lat="42.1116683" lon="13.34633"><ele>780.3333333333333</ele><time>2026-05-02T14:50:46.58Z</time></trkpt><trkpt lat="42.11184" lon="13.346255"><ele>782.6666666666667</ele><time>2026-05-02T14:50:47.58Z</time></trkpt><trkpt lat="42.1120183" lon="13.34617"><ele>785.0</ele><time>2026-05-02T14:50:48.579Z</time></trkpt><trkpt lat="42.112195" lon="13.3460767"><ele>785.0</ele><time>2026-05-02T14:50:49.58Z</time></trkpt><trkpt lat="42.1123717" lon="13.3459683"><ele>785.0</ele><time>2026-05-02T14:50:50.579Z</time></trkpt><trkpt lat="42.1125483" lon="13.3458567"><ele>785.0</ele><time>2026-05-02T14:50:51.579Z</time></trkpt><trkpt lat="42.112715" lon="13.3457433"><ele>786.0</ele><time>2026-05-02T14:50:52.579Z</time></trkpt><trkpt lat="42.112875" lon="13.3456267"><ele>787.0</ele><time>2026-05-02T14:50:53.58Z</time></trkpt><trkpt lat="42.1130317" lon="13.3455267"><ele>788.0</ele><time>2026-05-02T14:50:54.579Z</time></trkpt><trkpt lat="42.113185" lon="13.3454167"><ele>791.3333333333334</ele><time>2026-05-02T14:50:55.58Z</time></trkpt><trkpt lat="42.1133383" lon="13.3453067"><ele>794.6666666666667</ele><time>2026-05-02T14:50:56.58Z</time></trkpt><trkpt lat="42.113495" lon="13.3452"><ele>798.0</ele><time>2026-05-02T14:50:57.58Z</time></trkpt><trkpt lat="42.1136467" lon="13.345085"><ele>798.0</ele><time>2026-05-02T14:50:58.58Z</time></trkpt><trkpt lat="42.1137933" lon="13.3449767"><ele>798.0</ele><time>2026-05-02T14:50:59.58Z</time></trkpt><trkpt lat="42.1139433" lon="13.3448733"><ele>798.0</ele><time>2026-05-02T14:51:00.579Z</time></trkpt><trkpt lat="42.114085" lon="13.3447767"><ele>800.0</ele><time>2026-05-02T14:51:01.579Z</time></trkpt><trkpt lat="42.11422" lon="13.344695"><ele>802.0</ele><time>2026-05-02T14:51:02.58Z</time></trkpt><trkpt lat="42.11436" lon="13.3446267"><ele>804.0</ele><time>2026-05-02T14:51:03.579Z</time></trkpt><trkpt lat="42.11451" lon="13.3445667"><ele>804.0</ele><time>2026-05-02T14:51:04.579Z</time></trkpt><trkpt lat="42.114675" lon="13.3445317"><ele>804.0</ele><time>2026-05-02T14:51:05.579Z</time></trkpt><trkpt lat="42.1148433" lon="13.3445117"><ele>804.0</ele><time>2026-05-02T14:51:06.579Z</time></trkpt><trkpt lat="42.115015" lon="13.344495"><ele>805.3333333333333</ele><time>2026-05-02T14:51:07.579Z</time></trkpt><trkpt lat="42.1151983" lon="13.3444767"><ele>806.6666666666666</ele><time>2026-05-02T14:51:08.579Z</time></trkpt><trkpt lat="42.1153883" lon="13.3444583"><ele>808.0</ele><time>2026-05-02T14:51:09.58Z</time></trkpt><trkpt lat="42.115575" lon="13.344445"><ele>808.6666666666666</ele><time>2026-05-02T14:51:10.579Z</time></trkpt><trkpt lat="42.1157567" lon="13.3444333"><ele>809.3333333333333</ele><time>2026-05-02T14:51:11.579Z</time></trkpt><trkpt lat="42.11593" lon="13.344415"><ele>810.0</ele><time>2026-05-02T14:51:12.579Z</time></trkpt><trkpt lat="42.116105" lon="13.3443833"><ele>810.0</ele><time>2026-05-02T14:51:13.579Z</time></trkpt><trkpt lat="42.1162833" lon="13.3443517"><ele>810.0</ele><time>2026-05-02T14:51:14.58Z</time></trkpt><trkpt lat="42.116455" lon="13.3443283"><ele>810.0</ele><time>2026-05-02T14:51:15.579Z</time></trkpt><trkpt lat="42.11663" lon="13.34429"><ele>813.0</ele><time>2026-05-02T14:51:16.579Z</time></trkpt><trkpt lat="42.1168083" lon="13.3442683"><ele>816.0</ele><time>2026-05-02T14:51:17.579Z</time></trkpt><trkpt lat="42.1169883" lon="13.3442483"><ele>819.0</ele><time>2026-05-02T14:51:18.579Z</time></trkpt><trkpt lat="42.117175" lon="13.3442283"><ele>819.0</ele><time>2026-05-02T14:51:19.579Z</time></trkpt><trkpt lat="42.117355" lon="13.3442117"><ele>819.0</ele><time>2026-05-02T14:51:20.58Z</time></trkpt><trkpt lat="42.1175317" lon="13.344185"><ele>819.0</ele><time>2026-05-02T14:51:21.579Z</time></trkpt><trkpt lat="42.1177067" lon="13.344155"><ele>821.3333333333333</ele><time>2026-05-02T14:51:22.58Z</time></trkpt><trkpt lat="42.11788" lon="13.3441333"><ele>823.6666666666666</ele><time>2026-05-02T14:51:23.58Z</time></trkpt><trkpt lat="42.1180517" lon="13.3441283"><ele>826.0</ele><time>2026-05-02T14:51:24.58Z</time></trkpt><trkpt lat="42.1182233" lon="13.3441383"><ele>827.3333333333333</ele><time>2026-05-02T14:51:25.58Z</time></trkpt><trkpt lat="42.1183983" lon="13.3441617"><ele>828.6666666666667</ele><time>2026-05-02T14:51:26.58Z</time></trkpt><trkpt lat="42.1185767" lon="13.344185"><ele>830.0</ele><time>2026-05-02T14:51:27.58Z</time></trkpt><trkpt lat="42.1187533" lon="13.3442117"><ele>830.0</ele><time>2026-05-02T14:51:28.579Z</time></trkpt><trkpt lat="42.1189317" lon="13.3442333"><ele>830.0</ele><time>2026-05-02T14:51:29.58Z</time></trkpt><trkpt lat="42.11911" lon="13.3442583"><ele>830.0</ele><time>2026-05-02T14:51:30.58Z</time></trkpt><trkpt lat="42.1192767" lon="13.3442817"><ele>833.0</ele><time>2026-05-02T14:51:31.579Z</time></trkpt><trkpt lat="42.119445" lon="13.3442867"><ele>836.0</ele><time>2026-05-02T14:51:32.58Z</time></trkpt><trkpt lat="42.1196217" lon="13.3442783"><ele>839.0</ele><time>2026-05-02T14:51:33.58Z</time></trkpt><trkpt lat="42.1198017" lon="13.3442567"><ele>841.3333333333334</ele><time>2026-05-02T14:51:34.58Z</time></trkpt><trkpt lat="42.1199833" lon="13.344215"><ele>843.6666666666667</ele><time>2026-05-02T14:51:35.579Z</time></trkpt><trkpt lat="42.1201683" lon="13.3441583"><ele>846.0</ele><time>2026-05-02T14:51:36.579Z</time></trkpt><trkpt lat="42.1203467" lon="13.3440967"><ele>846.0</ele><time>2026-05-02T14:51:37.578Z</time></trkpt><trkpt lat="42.1205267" lon="13.344035"><ele>846.0</ele><time>2026-05-02T14:51:38.579Z</time></trkpt><trkpt lat="42.1207017" lon="13.3439767"><ele>846.0</ele><time>2026-05-02T14:51:39.578Z</time></trkpt><trkpt lat="42.1208717" lon="13.34392"><ele>849.0</ele><time>2026-05-02T14:51:40.578Z</time></trkpt><trkpt lat="42.1210367" lon="13.3438617"><ele>852.0</ele><time>2026-05-02T14:51:41.579Z</time></trkpt><trkpt lat="42.1211933" lon="13.3438017"><ele>855.0</ele><time>2026-05-02T14:51:42.579Z</time></trkpt><trkpt lat="42.1213383" lon="13.3437117"><ele>855.0</ele><time>2026-05-02T14:51:43.579Z</time></trkpt><trkpt lat="42.1214717" lon="13.34362"><ele>855.0</ele><time>2026-05-02T14:51:44.579Z</time></trkpt><trkpt lat="42.12157" lon="13.343515"><ele>855.0</ele><time>2026-05-02T14:51:45.578Z</time></trkpt><trkpt lat="42.121645" lon="13.3433967"><ele>855.0</ele><time>2026-05-02T14:51:46.579Z</time></trkpt><trkpt lat="42.1216833" lon="13.3432583"><ele>857.5</ele><time>2026-05-02T14:51:47.578Z</time></trkpt><trkpt lat="42.1216967" lon="13.3431117"><ele>860.0</ele><time>2026-05-02T14:51:48.579Z</time></trkpt><trkpt lat="42.1216833" lon="13.342945"><ele>862.5</ele><time>2026-05-02T14:51:49.578Z</time></trkpt><trkpt lat="42.1216667" lon="13.3427833"><ele>865.0</ele><time>2026-05-02T14:51:50.578Z</time></trkpt><trkpt lat="42.1216567" lon="13.3426217"><ele>864.25</ele><time>2026-05-02T14:51:51.579Z</time></trkpt><trkpt lat="42.12164" lon="13.3424483"><ele>863.5</ele><time>2026-05-02T14:51:52.579Z</time></trkpt><trkpt lat="42.1216167" lon="13.34226"><ele>862.75</ele><time>2026-05-02T14:51:53.578Z</time></trkpt><trkpt lat="42.1215783" lon="13.3420583"><ele>862.0</ele><time>2026-05-02T14:51:54.578Z</time></trkpt><trkpt lat="42.1215367" lon="13.34187"><ele>862.0</ele><time>2026-05-02T14:51:55.578Z</time></trkpt><trkpt lat="42.1215" lon="13.3416983"><ele>862.0</ele><time>2026-05-02T14:51:56.578Z</time></trkpt><trkpt lat="42.1214783" lon="13.341515"><ele>862.0</ele><time>2026-05-02T14:51:57.579Z</time></trkpt><trkpt lat="42.1214683" lon="13.3413217"><ele>862.0</ele><time>2026-05-02T14:51:58.578Z</time></trkpt><trkpt lat="42.12147" lon="13.34112"><ele>862.75</ele><time>2026-05-02T14:51:59.578Z</time></trkpt><trkpt lat="42.1214717" lon="13.3409183"><ele>863.5</ele><time>2026-05-02T14:52:00.579Z</time></trkpt><trkpt lat="42.1214683" lon="13.3407167"><ele>864.25</ele><time>2026-05-02T14:52:01.579Z</time></trkpt><trkpt lat="42.1214617" lon="13.3405217"><ele>865.0</ele><time>2026-05-02T14:52:02.578Z</time></trkpt><trkpt lat="42.1214517" lon="13.3403417"><ele>867.5</ele><time>2026-05-02T14:52:03.579Z</time></trkpt><trkpt lat="42.1214333" lon="13.3401517"><ele>870.0</ele><time>2026-05-02T14:52:04.579Z</time></trkpt><trkpt lat="42.1214133" lon="13.3399617"><ele>872.5</ele><time>2026-05-02T14:52:05.578Z</time></trkpt><trkpt lat="42.12138" lon="13.3397767"><ele>875.0</ele><time>2026-05-02T14:52:06.579Z</time></trkpt><trkpt lat="42.1213317" lon="13.339585"><ele>878.75</ele><time>2026-05-02T14:52:07.578Z</time></trkpt><trkpt lat="42.12126" lon="13.3394017"><ele>882.5</ele><time>2026-05-02T14:52:08.578Z</time></trkpt><trkpt lat="42.1211867" lon="13.3392183"><ele>886.25</ele><time>2026-05-02T14:52:09.578Z</time></trkpt><trkpt lat="42.1211167" lon="13.3390533"><ele>890.0</ele><time>2026-05-02T14:52:10.579Z</time></trkpt><trkpt lat="42.1210483" lon="13.3388983"><ele>892.8</ele><time>2026-05-02T14:52:11.578Z</time></trkpt><trkpt lat="42.120995" lon="13.338765"><ele>895.6</ele><time>2026-05-02T14:52:12.579Z</time></trkpt><trkpt lat="42.1209433" lon="13.33865"><ele>898.4000000000001</ele><time>2026-05-02T14:52:13.579Z</time></trkpt><trkpt lat="42.1208817" lon="13.3385717"><ele>901.2</ele><time>2026-05-02T14:52:14.578Z</time></trkpt><trkpt lat="42.1207617" lon="13.3385583"><ele>904.0</ele><time>2026-05-02T14:52:16.579Z</time></trkpt><trkpt lat="42.1206917" lon="13.3385983"><ele>902.75</ele><time>2026-05-02T14:52:17.579Z</time></trkpt><trkpt lat="42.12062" lon="13.33869"><ele>901.5</ele><time>2026-05-02T14:52:18.578Z</time></trkpt><trkpt lat="42.1205317" lon="13.3388267"><ele>900.25</ele><time>2026-05-02T14:52:19.579Z</time></trkpt><trkpt lat="42.1204433" lon="13.3389617"><ele>899.0</ele><time>2026-05-02T14:52:20.578Z</time></trkpt><trkpt lat="42.120365" lon="13.3390817"><ele>899.0</ele><time>2026-05-02T14:52:21.578Z</time></trkpt><trkpt lat="42.1202833" lon="13.3391817"><ele>899.0000000000001</ele><time>2026-05-02T14:52:22.578Z</time></trkpt><trkpt lat="42.1202" lon="13.3392467"><ele>899.0000000000001</ele><time>2026-05-02T14:52:23.578Z</time></trkpt><trkpt lat="42.120105" lon="13.3392883"><ele>899.0</ele><time>2026-05-02T14:52:24.579Z</time></trkpt><trkpt lat="42.119995" lon="13.3392917"><ele>899.0</ele><time>2026-05-02T14:52:25.578Z</time></trkpt><trkpt lat="42.119865" lon="13.33927"><ele>900.0</ele><time>2026-05-02T14:52:26.579Z</time></trkpt><trkpt lat="42.119735" lon="13.33925"><ele>901.0</ele><time>2026-05-02T14:52:27.578Z</time></trkpt><trkpt lat="42.1195983" lon="13.3392317"><ele>902.0</ele><time>2026-05-02T14:52:28.579Z</time></trkpt><trkpt lat="42.1194617" lon="13.339205"><ele>903.0</ele><time>2026-05-02T14:52:29.578Z</time></trkpt><trkpt lat="42.119325" lon="13.33918"><ele>903.0</ele><time>2026-05-02T14:52:30.579Z</time></trkpt><trkpt lat="42.11919" lon="13.3391533"><ele>903.0</ele><time>2026-05-02T14:52:31.579Z</time></trkpt><trkpt lat="42.1190633" lon="13.339145"><ele>903.0</ele><time>2026-05-02T14:52:32.578Z</time></trkpt><trkpt lat="42.118935" lon="13.3391367"><ele>903.0</ele><time>2026-05-02T14:52:33.579Z</time></trkpt><trkpt lat="42.118825" lon="13.3391433"><ele>903.5999999999999</ele><time>2026-05-02T14:52:34.579Z</time></trkpt><trkpt lat="42.1186467" lon="13.3391917"><ele>904.1999999999999</ele><time>2026-05-02T14:52:36.579Z</time></trkpt><trkpt lat="42.1185767" lon="13.3391917"><ele>904.8</ele><time>2026-05-02T14:52:37.578Z</time></trkpt><trkpt lat="42.1185117" lon="13.3391983"><ele>905.4</ele><time>2026-05-02T14:52:38.579Z</time></trkpt><trkpt lat="42.11844" lon="13.3392033"><ele>906.0</ele><time>2026-05-02T14:52:39.578Z</time></trkpt><trkpt lat="42.1183717" lon="13.3391983"><ele>906.0</ele><time>2026-05-02T14:52:40.579Z</time></trkpt><trkpt lat="42.1183067" lon="13.339185"><ele>906.0</ele><time>2026-05-02T14:52:41.579Z</time></trkpt><trkpt lat="42.1182383" lon="13.339175"><ele>906.0</ele><time>2026-05-02T14:52:42.578Z</time></trkpt><trkpt lat="42.1181717" lon="13.3391583"><ele>906.0</ele><time>2026-05-02T14:52:43.579Z</time></trkpt><trkpt lat="42.11808" lon="13.3391067"><ele>906.0</ele><time>2026-05-02T14:52:45.578Z</time></trkpt><trkpt lat="42.11806" lon="13.33899"><ele>906.0</ele><time>2026-05-02T14:52:47.579Z</time></trkpt><trkpt lat="42.11809" lon="13.338885"><ele>903.4</ele><time>2026-05-02T14:52:50.579Z</time></trkpt><trkpt lat="42.1181017" lon="13.3387683"><ele>900.8</ele><time>2026-05-02T14:52:52.579Z</time></trkpt><trkpt lat="42.11811" lon="13.3386267"><ele>898.1999999999999</ele><time>2026-05-02T14:52:54.578Z</time></trkpt><trkpt lat="42.11811" lon="13.3385017"><ele>895.5999999999999</ele><time>2026-05-02T14:52:56.578Z</time></trkpt><trkpt lat="42.11811" lon="13.33838"><ele>893.0</ele><time>2026-05-02T14:52:58.578Z</time></trkpt><trkpt lat="42.1181033" lon="13.33823"><ele>893.0</ele><time>2026-05-02T14:53:00.579Z</time></trkpt><trkpt lat="42.1181233" lon="13.3380933"><ele>893.0</ele><time>2026-05-02T14:53:02.578Z</time></trkpt><trkpt lat="42.1181933" lon="13.3379483"><ele>893.0</ele><time>2026-05-02T14:53:04.578Z</time></trkpt><trkpt lat="42.1182383" lon="13.33786"><ele>893.0</ele><time>2026-05-02T14:53:05.578Z</time></trkpt><trkpt lat="42.1182917" lon="13.337775"><ele>893.0</ele><time>2026-05-02T14:53:06.579Z</time></trkpt><trkpt lat="42.1183317" lon="13.3376967"><ele>896.5999999999999</ele><time>2026-05-02T14:53:07.579Z</time></trkpt><trkpt lat="42.11839" lon="13.33762"><ele>900.1999999999999</ele><time>2026-05-02T14:53:08.579Z</time></trkpt><trkpt lat="42.1184583" lon="13.3375383"><ele>903.8</ele><time>2026-05-02T14:53:09.578Z</time></trkpt><trkpt lat="42.1185217" lon="13.3374533"><ele>907.4</ele><time>2026-05-02T14:53:10.578Z</time></trkpt><trkpt lat="42.1186" lon="13.33735"><ele>911.0</ele><time>2026-05-02T14:53:11.578Z</time></trkpt><trkpt lat="42.1186933" lon="13.3372483"><ele>913.75</ele><time>2026-05-02T14:53:12.579Z</time></trkpt><trkpt lat="42.1187933" lon="13.3371367"><ele>916.5</ele><time>2026-05-02T14:53:13.579Z</time></trkpt><trkpt lat="42.1189" lon="13.3370333"><ele>919.25</ele><time>2026-05-02T14:53:14.579Z</time></trkpt><trkpt lat="42.1190033" lon="13.3369433"><ele>922.0</ele><time>2026-05-02T14:53:15.578Z</time></trkpt><trkpt lat="42.1191017" lon="13.3368417"><ele>922.0</ele><time>2026-05-02T14:53:16.578Z</time></trkpt><trkpt lat="42.1191933" lon="13.3367317"><ele>922.0</ele><time>2026-05-02T14:53:17.578Z</time></trkpt><trkpt lat="42.11928" lon="13.33661"><ele>922.0</ele><time>2026-05-02T14:53:18.578Z</time></trkpt><trkpt lat="42.11937" lon="13.3364983"><ele>922.0</ele><time>2026-05-02T14:53:19.578Z</time></trkpt><trkpt lat="42.1194567" lon="13.3363883"><ele>925.0</ele><time>2026-05-02T14:53:20.578Z</time></trkpt><trkpt lat="42.1195483" lon="13.3362967"><ele>928.0</ele><time>2026-05-02T14:53:21.578Z</time></trkpt><trkpt lat="42.119655" lon="13.3362117"><ele>931.0</ele><time>2026-05-02T14:53:22.579Z</time></trkpt><trkpt lat="42.1197883" lon="13.33614"><ele>934.0</ele><time>2026-05-02T14:53:23.578Z</time></trkpt><trkpt lat="42.11991" lon="13.3360467"><ele>934.0</ele><time>2026-05-02T14:53:24.578Z</time></trkpt><trkpt lat="42.1200233" lon="13.3359433"><ele>934.0000000000001</ele><time>2026-05-02T14:53:25.579Z</time></trkpt><trkpt lat="42.1201167" lon="13.3358517"><ele>934.0000000000001</ele><time>2026-05-02T14:53:26.579Z</time></trkpt><trkpt lat="42.1201833" lon="13.3357867"><ele>934.0</ele><time>2026-05-02T14:53:27.579Z</time></trkpt><trkpt lat="42.1202467" lon="13.3357083"><ele>934.0</ele><time>2026-05-02T14:53:29.578Z</time></trkpt><trkpt lat="42.12032" lon="13.3356283"><ele>933.9999999999999</ele><time>2026-05-02T14:53:31.579Z</time></trkpt><trkpt lat="42.1203817" lon="13.33557"><ele>934.0</ele><time>2026-05-02T14:53:32.579Z</time></trkpt><trkpt lat="42.120455" lon="13.335515"><ele>934.0</ele><time>2026-05-02T14:53:33.578Z</time></trkpt><trkpt lat="42.12053" lon="13.3354517"><ele>934.0</ele><time>2026-05-02T14:53:34.579Z</time></trkpt><trkpt lat="42.1206033" lon="13.3353783"><ele>933.9999999999999</ele><time>2026-05-02T14:53:35.578Z</time></trkpt><trkpt lat="42.1206683" lon="13.3352867"><ele>934.0</ele><time>2026-05-02T14:53:36.578Z</time></trkpt><trkpt lat="42.120725" lon="13.335185"><ele>937.2</ele><time>2026-05-02T14:53:37.579Z</time></trkpt><trkpt lat="42.1207733" lon="13.3350767"><ele>940.4000000000001</ele><time>2026-05-02T14:53:38.578Z</time></trkpt><trkpt lat="42.1208283" lon="13.33497"><ele>943.6</ele><time>2026-05-02T14:53:39.579Z</time></trkpt><trkpt lat="42.120875" lon="13.33486"><ele>946.8</ele><time>2026-05-02T14:53:40.578Z</time></trkpt><trkpt lat="42.1209267" lon="13.3347517"><ele>950.0</ele><time>2026-05-02T14:53:41.579Z</time></trkpt><trkpt lat="42.1209767" lon="13.3346467"><ele>950.0000000000001</ele><time>2026-05-02T14:53:42.579Z</time></trkpt><trkpt lat="42.1210217" lon="13.3345483"><ele>950.0</ele><time>2026-05-02T14:53:43.579Z</time></trkpt><trkpt lat="42.121065" lon="13.334455"><ele>950.0</ele><time>2026-05-02T14:53:44.579Z</time></trkpt><trkpt lat="42.121105" lon="13.3343683"><ele>950.0</ele><time>2026-05-02T14:53:45.578Z</time></trkpt><trkpt lat="42.1211417" lon="13.3342833"><ele>950.0000000000001</ele><time>2026-05-02T14:53:46.578Z</time></trkpt><trkpt lat="42.1211683" lon="13.3341883"><ele>950.0</ele><time>2026-05-02T14:53:47.578Z</time></trkpt><trkpt lat="42.12118" lon="13.334095"><ele>950.0000000000001</ele><time>2026-05-02T14:53:48.578Z</time></trkpt><trkpt lat="42.1211767" lon="13.334005"><ele>950.0</ele><time>2026-05-02T14:53:49.579Z</time></trkpt><trkpt lat="42.1211583" lon="13.333915"><ele>950.0</ele><time>2026-05-02T14:53:50.579Z</time></trkpt><trkpt lat="42.1211283" lon="13.3338267"><ele>950.0</ele><time>2026-05-02T14:53:51.579Z</time></trkpt><trkpt lat="42.121095" lon="13.3337433"><ele>950.0000000000001</ele><time>2026-05-02T14:53:52.579Z</time></trkpt><trkpt lat="42.12106" lon="13.3336667"><ele>950.0</ele><time>2026-05-02T14:53:53.578Z</time></trkpt><trkpt lat="42.1209617" lon="13.33357"><ele>949.8333333333334</ele><time>2026-05-02T14:53:55.578Z</time></trkpt><trkpt lat="42.1208967" lon="13.3335317"><ele>949.6666666666667</ele><time>2026-05-02T14:53:56.579Z</time></trkpt><trkpt lat="42.120825" lon="13.3335217"><ele>949.5</ele><time>2026-05-02T14:53:57.579Z</time></trkpt><trkpt lat="42.1207433" lon="13.333525"><ele>949.3333333333333</ele><time>2026-05-02T14:53:58.578Z</time></trkpt><trkpt lat="42.1206633" lon="13.3335433"><ele>949.1666666666666</ele><time>2026-05-02T14:53:59.578Z</time></trkpt><trkpt lat="42.1205817" lon="13.3335783"><ele>949.0</ele><time>2026-05-02T14:54:00.579Z</time></trkpt><trkpt lat="42.1205033" lon="13.3336117"><ele>948.9999999999999</ele><time>2026-05-02T14:54:01.578Z</time></trkpt><trkpt lat="42.1204283" lon="13.3336333"><ele>949.0</ele><time>2026-05-02T14:54:02.578Z</time></trkpt><trkpt lat="42.12036" lon="13.3336217"><ele>949.0</ele><time>2026-05-02T14:54:03.579Z</time></trkpt><trkpt lat="42.1202817" lon="13.3335033"><ele>949.0</ele><time>2026-05-02T14:54:05.578Z</time></trkpt><trkpt lat="42.12028" lon="13.333405"><ele>948.9999999999999</ele><time>2026-05-02T14:54:06.579Z</time></trkpt><trkpt lat="42.1202917" lon="13.333275"><ele>949.0</ele><time>2026-05-02T14:54:07.579Z</time></trkpt><trkpt lat="42.1203083" lon="13.33313"><ele>952.2</ele><time>2026-05-02T14:54:08.578Z</time></trkpt><trkpt lat="42.12032" lon="13.33298"><ele>955.4000000000001</ele><time>2026-05-02T14:54:09.579Z</time></trkpt><trkpt lat="42.1203283" lon="13.33283"><ele>958.6</ele><time>2026-05-02T14:54:10.579Z</time></trkpt><trkpt lat="42.1203283" lon="13.3326783"><ele>961.8</ele><time>2026-05-02T14:54:11.579Z</time></trkpt><trkpt lat="42.1203183" lon="13.33254"><ele>965.0</ele><time>2026-05-02T14:54:12.578Z</time></trkpt><trkpt lat="42.1203033" lon="13.3324033"><ele>965.0</ele><time>2026-05-02T14:54:13.579Z</time></trkpt><trkpt lat="42.1202833" lon="13.3322733"><ele>965.0</ele><time>2026-05-02T14:54:14.578Z</time></trkpt><trkpt lat="42.120255" lon="13.3321583"><ele>965.0</ele><time>2026-05-02T14:54:15.579Z</time></trkpt><trkpt lat="42.1202167" lon="13.33204"><ele>965.0</ele><time>2026-05-02T14:54:16.579Z</time></trkpt><trkpt lat="42.1201683" lon="13.331925"><ele>965.0</ele><time>2026-05-02T14:54:17.579Z</time></trkpt><trkpt lat="42.1201367" lon="13.3318167"><ele>966.5000000000001</ele><time>2026-05-02T14:54:18.578Z</time></trkpt><trkpt lat="42.1201267" lon="13.3317033"><ele>968.0</ele><time>2026-05-02T14:54:19.578Z</time></trkpt><trkpt lat="42.1201383" lon="13.3316"><ele>969.5</ele><time>2026-05-02T14:54:20.579Z</time></trkpt><trkpt lat="42.1201767" lon="13.3315167"><ele>971.0</ele><time>2026-05-02T14:54:21.579Z</time></trkpt><trkpt lat="42.1202283" lon="13.33145"><ele>972.5000000000001</ele><time>2026-05-02T14:54:22.578Z</time></trkpt><trkpt lat="42.1203" lon="13.3314"><ele>974.0</ele><time>2026-05-02T14:54:23.579Z</time></trkpt><trkpt lat="42.1203867" lon="13.3313717"><ele>974.4000000000001</ele><time>2026-05-02T14:54:24.578Z</time></trkpt><trkpt lat="42.1204783" lon="13.3313417"><ele>974.8000000000001</ele><time>2026-05-02T14:54:25.579Z</time></trkpt><trkpt lat="42.1205667" lon="13.3313033"><ele>975.1999999999999</ele><time>2026-05-02T14:54:26.578Z</time></trkpt><trkpt lat="42.1206533" lon="13.3312683"><ele>975.5999999999999</ele><time>2026-05-02T14:54:27.578Z</time></trkpt><trkpt lat="42.1207433" lon="13.3312317"><ele>976.0</ele><time>2026-05-02T14:54:28.578Z</time></trkpt><trkpt lat="42.12084" lon="13.3311883"><ele>977.1999999999999</ele><time>2026-05-02T14:54:29.578Z</time></trkpt><trkpt lat="42.12094" lon="13.33114"><ele>978.3999999999999</ele><time>2026-05-02T14:54:30.579Z</time></trkpt><trkpt lat="42.12104" lon="13.3310917"><ele>979.6</ele><time>2026-05-02T14:54:31.579Z</time></trkpt><trkpt lat="42.121135" lon="13.3310517"><ele>980.8</ele><time>2026-05-02T14:54:32.578Z</time></trkpt><trkpt lat="42.1212217" lon="13.3310133"><ele>982.0</ele><time>2026-05-02T14:54:33.579Z</time></trkpt><trkpt lat="42.1213083" lon="13.3309817"><ele>981.9999999999999</ele><time>2026-05-02T14:54:34.579Z</time></trkpt><trkpt lat="42.1213933" lon="13.3309517"><ele>982.0</ele><time>2026-05-02T14:54:35.579Z</time></trkpt><trkpt lat="42.1214717" lon="13.3309133"><ele>982.0</ele><time>2026-05-02T14:54:36.578Z</time></trkpt><trkpt lat="42.1215533" lon="13.3308767"><ele>982.0</ele><time>2026-05-02T14:54:37.579Z</time></trkpt><trkpt lat="42.1216267" lon="13.330845"><ele>981.9999999999999</ele><time>2026-05-02T14:54:38.579Z</time></trkpt><trkpt lat="42.1217067" lon="13.3308233"><ele>982.0</ele><time>2026-05-02T14:54:39.579Z</time></trkpt><trkpt lat="42.1217917" lon="13.3308083"><ele>983.3333333333333</ele><time>2026-05-02T14:54:40.578Z</time></trkpt><trkpt lat="42.12188" lon="13.330795"><ele>984.6666666666666</ele><time>2026-05-02T14:54:41.579Z</time></trkpt><trkpt lat="42.121975" lon="13.3307817"><ele>986.0</ele><time>2026-05-02T14:54:42.579Z</time></trkpt><trkpt lat="42.122065" lon="13.3307767"><ele>987.3333333333333</ele><time>2026-05-02T14:54:43.578Z</time></trkpt><trkpt lat="42.1221533" lon="13.3307717"><ele>988.6666666666666</ele><time>2026-05-02T14:54:44.578Z</time></trkpt><trkpt lat="42.1222383" lon="13.3307583"><ele>990.0</ele><time>2026-05-02T14:54:45.579Z</time></trkpt><trkpt lat="42.1223217" lon="13.3307317"><ele>991.6666666666666</ele><time>2026-05-02T14:54:46.578Z</time></trkpt><trkpt lat="42.1224017" lon="13.3306983"><ele>993.3333333333333</ele><time>2026-05-02T14:54:47.579Z</time></trkpt><trkpt lat="42.1224767" lon="13.3306517"><ele>995.0</ele><time>2026-05-02T14:54:48.578Z</time></trkpt><trkpt lat="42.1225517" lon="13.330595"><ele>996.6666666666666</ele><time>2026-05-02T14:54:49.579Z</time></trkpt><trkpt lat="42.1226283" lon="13.33052"><ele>998.3333333333333</ele><time>2026-05-02T14:54:50.579Z</time></trkpt><trkpt lat="42.1226967" lon="13.330445"><ele>1000.0</ele><time>2026-05-02T14:54:51.579Z</time></trkpt><trkpt lat="42.122765" lon="13.3303733"><ele>1000.0</ele><time>2026-05-02T14:54:52.579Z</time></trkpt><trkpt lat="42.12284" lon="13.330305"><ele>1000.0</ele><time>2026-05-02T14:54:53.578Z</time></trkpt><trkpt lat="42.1229133" lon="13.3302317"><ele>1000.0</ele><time>2026-05-02T14:54:54.579Z</time></trkpt><trkpt lat="42.1229917" lon="13.3301683"><ele>1000.0</ele><time>2026-05-02T14:54:55.578Z</time></trkpt><trkpt lat="42.12307" lon="13.3301083"><ele>1000.0</ele><time>2026-05-02T14:54:56.578Z</time></trkpt><trkpt lat="42.1231517" lon="13.3300567"><ele>1000.0</ele><time>2026-05-02T14:54:57.579Z</time></trkpt><trkpt lat="42.1232267" lon="13.3300167"><ele>1000.0</ele><time>2026-05-02T14:54:58.579Z</time></trkpt><trkpt lat="42.123295" lon="13.3299883"><ele>1000.0</ele><time>2026-05-02T14:54:59.578Z</time></trkpt><trkpt lat="42.1234017" lon="13.329945"><ele>1000.0</ele><time>2026-05-02T14:55:01.579Z</time></trkpt><trkpt lat="42.1235033" lon="13.3299117"><ele>1000.0</ele><time>2026-05-02T14:55:03.579Z</time></trkpt><trkpt lat="42.1235983" lon="13.3298833"><ele>1000.4999999999999</ele><time>2026-05-02T14:55:05.579Z</time></trkpt><trkpt lat="42.1237017" lon="13.3298383"><ele>1001.0</ele><time>2026-05-02T14:55:07.579Z</time></trkpt><trkpt lat="42.1237617" lon="13.3298067"><ele>1001.5</ele><time>2026-05-02T14:55:08.579Z</time></trkpt><trkpt lat="42.1238317" lon="13.3297667"><ele>1002.0</ele><time>2026-05-02T14:55:09.578Z</time></trkpt><trkpt lat="42.12391" lon="13.3297133"><ele>1002.4999999999999</ele><time>2026-05-02T14:55:10.579Z</time></trkpt><trkpt lat="42.12399" lon="13.3296633"><ele>1003.0</ele><time>2026-05-02T14:55:11.579Z</time></trkpt><trkpt lat="42.1240633" lon="13.3296183"><ele>1005.3333333333333</ele><time>2026-05-02T14:55:12.578Z</time></trkpt><trkpt lat="42.1241333" lon="13.3295717"><ele>1007.6666666666666</ele><time>2026-05-02T14:55:13.579Z</time></trkpt><trkpt lat="42.124195" lon="13.329505"><ele>1010.0</ele><time>2026-05-02T14:55:14.579Z</time></trkpt><trkpt lat="42.1242583" lon="13.3294317"><ele>1012.3333333333333</ele><time>2026-05-02T14:55:15.578Z</time></trkpt><trkpt lat="42.1243133" lon="13.329345"><ele>1014.6666666666666</ele><time>2026-05-02T14:55:16.579Z</time></trkpt><trkpt lat="42.1243617" lon="13.3292717"><ele>1017.0</ele><time>2026-05-02T14:55:17.579Z</time></trkpt><trkpt lat="42.1244083" lon="13.3292067"><ele>1017.0</ele><time>2026-05-02T14:55:18.578Z</time></trkpt><trkpt lat="42.1244567" lon="13.3291517"><ele>1017.0</ele><time>2026-05-02T14:55:19.578Z</time></trkpt><trkpt lat="42.1245083" lon="13.329095"><ele>1017.0</ele><time>2026-05-02T14:55:20.579Z</time></trkpt><trkpt lat="42.1246083" lon="13.329025"><ele>1017.0</ele><time>2026-05-02T14:55:22.578Z</time></trkpt><trkpt lat="42.1247" lon="13.3289983"><ele>1017.0</ele><time>2026-05-02T14:55:24.578Z</time></trkpt><trkpt lat="42.1247967" lon="13.3289967"><ele>1017.0</ele><time>2026-05-02T14:55:26.578Z</time></trkpt><trkpt lat="42.124905" lon="13.329045"><ele>1019.8</ele><time>2026-05-02T14:55:28.579Z</time></trkpt><trkpt lat="42.125" lon="13.32907"><ele>1022.6</ele><time>2026-05-02T14:55:30.579Z</time></trkpt><trkpt lat="42.1250933" lon="13.3290617"><ele>1025.3999999999999</ele><time>2026-05-02T14:55:42.579Z</time></trkpt><trkpt lat="42.1251717" lon="13.3290917"><ele>1028.2</ele><time>2026-05-02T14:55:45.579Z</time></trkpt><trkpt lat="42.1252667" lon="13.3291267"><ele>1031.0</ele><time>2026-05-02T14:55:48.579Z</time></trkpt><trkpt lat="42.1253467" lon="13.3291667"><ele>1031.0</ele><time>2026-05-02T14:55:50.578Z</time></trkpt><trkpt lat="42.1254467" lon="13.3292167"><ele>1031.0</ele><time>2026-05-02T14:55:52.578Z</time></trkpt><trkpt lat="42.1255467" lon="13.3292917"><ele>1031.0</ele><time>2026-05-02T14:55:54.578Z</time></trkpt><trkpt lat="42.125655" lon="13.3293767"><ele>1031.0</ele><time>2026-05-02T14:55:56.578Z</time></trkpt><trkpt lat="42.1257167" lon="13.3294333"><ele>1031.0</ele><time>2026-05-02T14:55:57.578Z</time></trkpt><trkpt lat="42.1257883" lon="13.3294767"><ele>1033.5</ele><time>2026-05-02T14:55:58.577Z</time></trkpt><trkpt lat="42.125855" lon="13.329525"><ele>1036.0</ele><time>2026-05-02T14:55:59.577Z</time></trkpt><trkpt lat="42.12597" lon="13.3296117"><ele>1038.5</ele><time>2026-05-02T14:56:01.578Z</time></trkpt><trkpt lat="42.12604" lon="13.3296617"><ele>1041.0</ele><time>2026-05-02T14:56:02.577Z</time></trkpt><trkpt lat="42.1261183" lon="13.3297033"><ele>1043.5</ele><time>2026-05-02T14:56:03.578Z</time></trkpt><trkpt lat="42.12619" lon="13.3297367"><ele>1046.0</ele><time>2026-05-02T14:56:04.578Z</time></trkpt><trkpt lat="42.1262567" lon="13.32975"><ele>1047.6</ele><time>2026-05-02T14:56:05.578Z</time></trkpt><trkpt lat="42.126335" lon="13.3297467"><ele>1049.1999999999998</ele><time>2026-05-02T14:56:06.578Z</time></trkpt><trkpt lat="42.1264367" lon="13.329745"><ele>1050.8000000000002</ele><time>2026-05-02T14:56:07.578Z</time></trkpt><trkpt lat="42.1265417" lon="13.3297383"><ele>1052.4</ele><time>2026-05-02T14:56:08.577Z</time></trkpt><trkpt lat="42.1266433" lon="13.32974"><ele>1054.0</ele><time>2026-05-02T14:56:09.577Z</time></trkpt><trkpt lat="42.1267567" lon="13.3297667"><ele>1056.0</ele><time>2026-05-02T14:56:10.577Z</time></trkpt><trkpt lat="42.1268683" lon="13.329785"><ele>1058.0</ele><time>2026-05-02T14:56:11.578Z</time></trkpt><trkpt lat="42.12698" lon="13.329815"><ele>1060.0</ele><time>2026-05-02T14:56:12.577Z</time></trkpt><trkpt lat="42.1270867" lon="13.3298533"><ele>1062.0</ele><time>2026-05-02T14:56:13.577Z</time></trkpt><trkpt lat="42.127175" lon="13.32989"><ele>1064.0</ele><time>2026-05-02T14:56:14.577Z</time></trkpt><trkpt lat="42.1272567" lon="13.3299267"><ele>1064.0</ele><time>2026-05-02T14:56:15.577Z</time></trkpt><trkpt lat="42.12733" lon="13.3299633"><ele>1064.0</ele><time>2026-05-02T14:56:16.578Z</time></trkpt><trkpt lat="42.1274" lon="13.33"><ele>1064.0</ele><time>2026-05-02T14:56:17.578Z</time></trkpt><trkpt lat="42.1274683" lon="13.330035"><ele>1064.0</ele><time>2026-05-02T14:56:18.577Z</time></trkpt><trkpt lat="42.1275317" lon="13.330075"><ele>1064.0</ele><time>2026-05-02T14:56:19.578Z</time></trkpt><trkpt lat="42.12759" lon="13.33012"><ele>1064.0</ele><time>2026-05-02T14:56:20.578Z</time></trkpt><trkpt lat="42.127645" lon="13.3301633"><ele>1064.0</ele><time>2026-05-02T14:56:21.577Z</time></trkpt><trkpt lat="42.1277217" lon="13.33023"><ele>1065.6000000000001</ele><time>2026-05-02T14:56:23.577Z</time></trkpt><trkpt lat="42.1277917" lon="13.3302"><ele>1067.2</ele><time>2026-05-02T15:17:37.572Z</time></trkpt><trkpt lat="42.12789" lon="13.3301967"><ele>1068.8000000000002</ele><time>2026-05-02T15:17:39.572Z</time></trkpt><trkpt lat="42.128005" lon="13.3301817"><ele>1070.4</ele><time>2026-05-02T15:17:41.571Z</time></trkpt><trkpt lat="42.1281133" lon="13.3301517"><ele>1072.0</ele><time>2026-05-02T15:17:43.572Z</time></trkpt><trkpt lat="42.1282117" lon="13.3301017"><ele>1071.2</ele><time>2026-05-02T15:17:45.571Z</time></trkpt><trkpt lat="42.1282983" lon="13.33005"><ele>1070.4</ele><time>2026-05-02T15:17:47.572Z</time></trkpt><trkpt lat="42.128415" lon="13.3299767"><ele>1069.6</ele><time>2026-05-02T15:17:49.571Z</time></trkpt><trkpt lat="42.1284983" lon="13.3299367"><ele>1068.8</ele><time>2026-05-02T15:17:50.572Z</time></trkpt><trkpt lat="42.128615" lon="13.329865"><ele>1068.0</ele><time>2026-05-02T15:17:51.571Z</time></trkpt><trkpt lat="42.128755" lon="13.329775"><ele>1069.0</ele><time>2026-05-02T15:17:52.572Z</time></trkpt><trkpt lat="42.128885" lon="13.3296733"><ele>1070.0</ele><time>2026-05-02T15:17:53.571Z</time></trkpt><trkpt lat="42.1290083" lon="13.3295867"><ele>1071.0</ele><time>2026-05-02T15:17:54.572Z</time></trkpt><trkpt lat="42.1291217" lon="13.3295167"><ele>1072.0</ele><time>2026-05-02T15:17:55.572Z</time></trkpt><trkpt lat="42.1292317" lon="13.32943"><ele>1070.0</ele><time>2026-05-02T15:17:56.572Z</time></trkpt><trkpt lat="42.1293417" lon="13.3293333"><ele>1068.0</ele><time>2026-05-02T15:17:57.572Z</time></trkpt><trkpt lat="42.12946" lon="13.32921"><ele>1066.0</ele><time>2026-05-02T15:17:58.572Z</time></trkpt><trkpt lat="42.1295867" lon="13.32906"><ele>1064.0</ele><time>2026-05-02T15:17:59.572Z</time></trkpt><trkpt lat="42.1297" lon="13.32892"><ele>1063.5</ele><time>2026-05-02T15:18:00.572Z</time></trkpt><trkpt lat="42.1297983" lon="13.3287783"><ele>1063.0</ele><time>2026-05-02T15:18:01.572Z</time></trkpt><trkpt lat="42.1298883" lon="13.328635"><ele>1062.5</ele><time>2026-05-02T15:18:02.571Z</time></trkpt><trkpt lat="42.12996" lon="13.3285067"><ele>1062.0</ele><time>2026-05-02T15:18:03.572Z</time></trkpt><trkpt lat="42.1300367" lon="13.3284067"><ele>1062.0</ele><time>2026-05-02T15:18:04.572Z</time></trkpt><trkpt lat="42.1301133" lon="13.3283183"><ele>1062.0</ele><time>2026-05-02T15:18:05.572Z</time></trkpt><trkpt lat="42.1301967" lon="13.3282667"><ele>1062.0</ele><time>2026-05-02T15:18:06.571Z</time></trkpt><trkpt lat="42.1302717" lon="13.3282217"><ele>1062.0</ele><time>2026-05-02T15:18:07.572Z</time></trkpt><trkpt lat="42.1303333" lon="13.3281867"><ele>1062.0</ele><time>2026-05-02T15:18:08.572Z</time></trkpt><trkpt lat="42.1303983" lon="13.3281433"><ele>1062.0</ele><time>2026-05-02T15:18:09.572Z</time></trkpt><trkpt lat="42.13047" lon="13.3280967"><ele>1062.0</ele><time>2026-05-02T15:18:10.572Z</time></trkpt><trkpt lat="42.1305467" lon="13.3280433"><ele>1062.0</ele><time>2026-05-02T15:18:11.57Z</time></trkpt><trkpt lat="42.13062" lon="13.3280133"><ele>1062.0</ele><time>2026-05-02T15:18:12.57Z</time></trkpt><trkpt lat="42.130725" lon="13.3279983"><ele>1062.0</ele><time>2026-05-02T15:18:14.571Z</time></trkpt><trkpt lat="42.1308017" lon="13.3279517"><ele>1062.0</ele><time>2026-05-02T15:18:16.571Z</time></trkpt><trkpt lat="42.1307717" lon="13.3278567"><ele>1062.0</ele><time>2026-05-02T15:18:19.57Z</time></trkpt><trkpt lat="42.1307017" lon="13.3278633"><ele>1062.0</ele><time>2026-05-02T15:18:21.571Z</time></trkpt><trkpt lat="42.1305917" lon="13.3279517"><ele>1062.0</ele><time>2026-05-02T15:18:23.571Z</time></trkpt><trkpt lat="42.13053" lon="13.3280117"><ele>1062.0</ele><time>2026-05-02T15:18:24.571Z</time></trkpt><trkpt lat="42.1304633" lon="13.32806"><ele>1062.0</ele><time>2026-05-02T15:18:25.571Z</time></trkpt><trkpt lat="42.130355" lon="13.3281517"><ele>1062.0</ele><time>2026-05-02T15:18:27.57Z</time></trkpt><trkpt lat="42.1302583" lon="13.328225"><ele>1062.0</ele><time>2026-05-02T15:18:29.571Z</time></trkpt><trkpt lat="42.1301617" lon="13.3282967"><ele>1062.0</ele><time>2026-05-02T15:18:31.571Z</time></trkpt><trkpt lat="42.1300967" lon="13.3283317"><ele>1062.0</ele><time>2026-05-02T15:18:33.571Z</time></trkpt><trkpt lat="42.1300617" lon="13.3282533"><ele>1062.0</ele><time>2026-05-02T15:18:36.57Z</time></trkpt><trkpt lat="42.13013" lon="13.328165"><ele>1062.0</ele><time>2026-05-02T15:18:39.571Z</time></trkpt><trkpt lat="42.1302017" lon="13.3281317"><ele>1062.0</ele><time>2026-05-02T15:18:41.57Z</time></trkpt><trkpt lat="42.1302667" lon="13.328035"><ele>1062.4</ele><time>2026-05-02T15:18:43.57Z</time></trkpt><trkpt lat="42.1303333" lon="13.32788"><ele>1062.8000000000002</ele><time>2026-05-02T15:18:45.57Z</time></trkpt><trkpt lat="42.1303717" lon="13.32777"><ele>1063.2</ele><time>2026-05-02T15:18:46.57Z</time></trkpt><trkpt lat="42.1304017" lon="13.327645"><ele>1063.6000000000001</ele><time>2026-05-02T15:18:47.57Z</time></trkpt><trkpt lat="42.1304167" lon="13.327505"><ele>1064.0</ele><time>2026-05-02T15:18:48.57Z</time></trkpt><trkpt lat="42.1304217" lon="13.3273417"><ele>1066.0</ele><time>2026-05-02T15:18:49.57Z</time></trkpt><trkpt lat="42.1304317" lon="13.32715"><ele>1068.0</ele><time>2026-05-02T15:18:50.57Z</time></trkpt><trkpt lat="42.1304517" lon="13.32695"><ele>1070.0</ele><time>2026-05-02T15:18:51.57Z</time></trkpt><trkpt lat="42.13049" lon="13.3267383"><ele>1070.0</ele><time>2026-05-02T15:18:52.57Z</time></trkpt><trkpt lat="42.1305183" lon="13.326535"><ele>1070.0</ele><time>2026-05-02T15:18:53.571Z</time></trkpt><trkpt lat="42.1305367" lon="13.326345"><ele>1070.0</ele><time>2026-05-02T15:18:54.57Z</time></trkpt><trkpt lat="42.1305483" lon="13.3261683"><ele>1070.0</ele><time>2026-05-02T15:18:55.57Z</time></trkpt><trkpt lat="42.1305567" lon="13.3259967"><ele>1072.25</ele><time>2026-05-02T15:18:56.57Z</time></trkpt><trkpt lat="42.1305567" lon="13.3258267"><ele>1074.5</ele><time>2026-05-02T15:18:57.571Z</time></trkpt><trkpt lat="42.1305567" lon="13.3256633"><ele>1076.75</ele><time>2026-05-02T15:18:58.57Z</time></trkpt><trkpt lat="42.130565" lon="13.3255067"><ele>1079.0</ele><time>2026-05-02T15:18:59.57Z</time></trkpt><trkpt lat="42.1305783" lon="13.3253783"><ele>1080.0</ele><time>2026-05-02T15:19:00.57Z</time></trkpt><trkpt lat="42.1305833" lon="13.3252633"><ele>1081.0</ele><time>2026-05-02T15:19:01.571Z</time></trkpt><trkpt lat="42.1305833" lon="13.32515"><ele>1082.0</ele><time>2026-05-02T15:19:02.57Z</time></trkpt><trkpt lat="42.13056" lon="13.3250133"><ele>1083.0</ele><time>2026-05-02T15:19:03.571Z</time></trkpt><trkpt lat="42.1305283" lon="13.3248817"><ele>1084.0</ele><time>2026-05-02T15:19:04.571Z</time></trkpt><trkpt lat="42.1305167" lon="13.32477"><ele>1084.0</ele><time>2026-05-02T15:19:05.571Z</time></trkpt><trkpt lat="42.130525" lon="13.3246417"><ele>1084.0</ele><time>2026-05-02T15:19:06.57Z</time></trkpt><trkpt lat="42.130555" lon="13.3245317"><ele>1084.0</ele><time>2026-05-02T15:19:07.57Z</time></trkpt><trkpt lat="42.130595" lon="13.3244517"><ele>1084.0</ele><time>2026-05-02T15:19:08.571Z</time></trkpt><trkpt lat="42.1306583" lon="13.3243917"><ele>1084.0</ele><time>2026-05-02T15:19:09.571Z</time></trkpt><trkpt lat="42.1307133" lon="13.3243367"><ele>1084.0</ele><time>2026-05-02T15:19:10.57Z</time></trkpt><trkpt lat="42.1307533" lon="13.324225"><ele>1084.0</ele><time>2026-05-02T15:19:12.571Z</time></trkpt><trkpt lat="42.1307433" lon="13.3240383"><ele>1084.0</ele><time>2026-05-02T15:19:14.571Z</time></trkpt><trkpt lat="42.13072" lon="13.32393"><ele>1084.0</ele><time>2026-05-02T15:19:15.57Z</time></trkpt><trkpt lat="42.13071" lon="13.323815"><ele>1084.0</ele><time>2026-05-02T15:19:16.571Z</time></trkpt><trkpt lat="42.1307083" lon="13.3236983"><ele>1084.0</ele><time>2026-05-02T15:19:17.57Z</time></trkpt><trkpt lat="42.1307217" lon="13.32358"><ele>1082.25</ele><time>2026-05-02T15:19:18.57Z</time></trkpt><trkpt lat="42.130745" lon="13.3234483"><ele>1080.5</ele><time>2026-05-02T15:19:19.571Z</time></trkpt><trkpt lat="42.13078" lon="13.323315"><ele>1078.75</ele><time>2026-05-02T15:19:20.571Z</time></trkpt><trkpt lat="42.130815" lon="13.3231567"><ele>1077.0</ele><time>2026-05-02T15:19:21.571Z</time></trkpt><trkpt lat="42.1308517" lon="13.3229783"><ele>1077.0</ele><time>2026-05-02T15:19:22.571Z</time></trkpt><trkpt lat="42.1308883" lon="13.32282"><ele>1077.0</ele><time>2026-05-02T15:19:23.57Z</time></trkpt><trkpt lat="42.130915" lon="13.32269"><ele>1077.0</ele><time>2026-05-02T15:19:24.571Z</time></trkpt><trkpt lat="42.1309433" lon="13.3225883"><ele>1077.0</ele><time>2026-05-02T15:19:25.57Z</time></trkpt><trkpt lat="42.1309717" lon="13.322485"><ele>1077.0</ele><time>2026-05-02T15:19:26.57Z</time></trkpt><trkpt lat="42.1309817" lon="13.322375"><ele>1077.0</ele><time>2026-05-02T15:19:27.571Z</time></trkpt><trkpt lat="42.13098" lon="13.322255"><ele>1077.0</ele><time>2026-05-02T15:19:28.57Z</time></trkpt><trkpt lat="42.1309633" lon="13.3220917"><ele>1077.0</ele><time>2026-05-02T15:19:29.57Z</time></trkpt><trkpt lat="42.1309417" lon="13.3219083"><ele>1077.0</ele><time>2026-05-02T15:19:30.571Z</time></trkpt><trkpt lat="42.1309233" lon="13.321735"><ele>1077.0</ele><time>2026-05-02T15:19:31.571Z</time></trkpt><trkpt lat="42.1309133" lon="13.32155"><ele>1077.0</ele><time>2026-05-02T15:19:32.571Z</time></trkpt><trkpt lat="42.1308983" lon="13.3213683"><ele>1077.0</ele><time>2026-05-02T15:19:33.571Z</time></trkpt><trkpt lat="42.1308883" lon="13.3212083"><ele>1077.0</ele><time>2026-05-02T15:19:34.57Z</time></trkpt><trkpt lat="42.1308817" lon="13.321075"><ele>1076.3333333333333</ele><time>2026-05-02T15:19:35.571Z</time></trkpt><trkpt lat="42.1308717" lon="13.3209717"><ele>1075.6666666666667</ele><time>2026-05-02T15:19:36.57Z</time></trkpt><trkpt lat="42.1308667" lon="13.3208867"><ele>1075.0</ele><time>2026-05-02T15:19:37.57Z</time></trkpt><trkpt lat="42.1308517" lon="13.320785"><ele>1074.3333333333335</ele><time>2026-05-02T15:19:39.57Z</time></trkpt><trkpt lat="42.130825" lon="13.3209083"><ele>1073.6666666666667</ele><time>2026-05-02T15:19:55.571Z</time></trkpt><trkpt lat="42.1308417" lon="13.321025"><ele>1073.0</ele><time>2026-05-02T15:19:57.571Z</time></trkpt><trkpt lat="42.1308683" lon="13.321175"><ele>1073.0</ele><time>2026-05-02T15:19:59.571Z</time></trkpt><trkpt lat="42.13088" lon="13.3212633"><ele>1073.0</ele><time>2026-05-02T15:20:00.57Z</time></trkpt><trkpt lat="42.130895" lon="13.321365"><ele>1073.0</ele><time>2026-05-02T15:20:01.57Z</time></trkpt><trkpt lat="42.1309067" lon="13.3214633"><ele>1073.0</ele><time>2026-05-02T15:20:02.57Z</time></trkpt><trkpt lat="42.130915" lon="13.321555"><ele>1073.0</ele><time>2026-05-02T15:20:03.571Z</time></trkpt><trkpt lat="42.1309183" lon="13.32165"><ele>1073.0</ele><time>2026-05-02T15:20:04.571Z</time></trkpt><trkpt lat="42.1309217" lon="13.3217483"><ele>1073.0</ele><time>2026-05-02T15:20:05.571Z</time></trkpt><trkpt lat="42.130925" lon="13.3218583"><ele>1073.6666666666667</ele><time>2026-05-02T15:20:06.571Z</time></trkpt><trkpt lat="42.1309367" lon="13.321975"><ele>1074.3333333333335</ele><time>2026-05-02T15:20:07.571Z</time></trkpt><trkpt lat="42.1309467" lon="13.3220933"><ele>1075.0</ele><time>2026-05-02T15:20:08.571Z</time></trkpt><trkpt lat="42.130955" lon="13.3222117"><ele>1075.6666666666667</ele><time>2026-05-02T15:20:09.571Z</time></trkpt><trkpt lat="42.130955" lon="13.322305"><ele>1076.3333333333333</ele><time>2026-05-02T15:20:10.571Z</time></trkpt><trkpt lat="42.1309517" lon="13.322395"><ele>1077.0</ele><time>2026-05-02T15:20:11.571Z</time></trkpt><trkpt lat="42.130945" lon="13.3224883"><ele>1077.0</ele><time>2026-05-02T15:20:12.571Z</time></trkpt><trkpt lat="42.1309317" lon="13.3225867"><ele>1077.0</ele><time>2026-05-02T15:20:13.571Z</time></trkpt><trkpt lat="42.130905" lon="13.3226883"><ele>1077.0</ele><time>2026-05-02T15:20:14.57Z</time></trkpt><trkpt lat="42.13087" lon="13.322795"><ele>1077.0</ele><time>2026-05-02T15:20:15.57Z</time></trkpt><trkpt lat="42.1308483" lon="13.3228967"><ele>1077.0</ele><time>2026-05-02T15:20:16.571Z</time></trkpt><trkpt lat="42.1308217" lon="13.3229817"><ele>1077.0</ele><time>2026-05-02T15:20:17.57Z</time></trkpt><trkpt lat="42.13078" lon="13.3230883"><ele>1077.0</ele><time>2026-05-02T15:20:19.57Z</time></trkpt><trkpt lat="42.1308333" lon="13.32315"><ele>1077.0</ele><time>2026-05-02T15:20:23.571Z</time></trkpt><trkpt lat="42.1308633" lon="13.3230183"><ele>1077.0</ele><time>2026-05-02T15:20:27.57Z</time></trkpt><trkpt lat="42.1308733" lon="13.3229283"><ele>1077.0</ele><time>2026-05-02T15:20:28.57Z</time></trkpt><trkpt lat="42.1308917" lon="13.322805"><ele>1077.0</ele><time>2026-05-02T15:20:29.57Z</time></trkpt><trkpt lat="42.1309233" lon="13.32266"><ele>1077.0</ele><time>2026-05-02T15:20:30.57Z</time></trkpt><trkpt lat="42.1309583" lon="13.3225183"><ele>1077.0</ele><time>2026-05-02T15:20:31.57Z</time></trkpt><trkpt lat="42.1309717" lon="13.3223633"><ele>1077.0</ele><time>2026-05-02T15:20:32.571Z</time></trkpt><trkpt lat="42.1309667" lon="13.3222"><ele>1077.0</ele><time>2026-05-02T15:20:33.571Z</time></trkpt><trkpt lat="42.13095" lon="13.3220017"><ele>1077.0</ele><time>2026-05-02T15:20:34.57Z</time></trkpt><trkpt lat="42.1309333" lon="13.321775"><ele>1077.0</ele><time>2026-05-02T15:20:35.57Z</time></trkpt><trkpt lat="42.13092" lon="13.32154"><ele>1077.0</ele><time>2026-05-02T15:20:36.57Z</time></trkpt><trkpt lat="42.130905" lon="13.321295"><ele>1077.0</ele><time>2026-05-02T15:20:37.571Z</time></trkpt><trkpt lat="42.1308917" lon="13.3210533"><ele>1076.5</ele><time>2026-05-02T15:20:38.57Z</time></trkpt><trkpt lat="42.13088" lon="13.32084"><ele>1076.0</ele><time>2026-05-02T15:20:39.57Z</time></trkpt><trkpt lat="42.1308683" lon="13.3206567"><ele>1075.5</ele><time>2026-05-02T15:20:40.571Z</time></trkpt><trkpt lat="42.13086" lon="13.3205067"><ele>1075.0</ele><time>2026-05-02T15:20:41.571Z</time></trkpt><trkpt lat="42.1308567" lon="13.3203817"><ele>1075.0</ele><time>2026-05-02T15:20:42.571Z</time></trkpt><trkpt lat="42.1308617" lon="13.320285"><ele>1075.0</ele><time>2026-05-02T15:20:43.57Z</time></trkpt><trkpt lat="42.1308933" lon="13.32017"><ele>1075.0</ele><time>2026-05-02T15:20:45.571Z</time></trkpt><trkpt lat="42.1309683" lon="13.3201"><ele>1075.0</ele><time>2026-05-02T15:20:48.571Z</time></trkpt><trkpt lat="42.1309683" lon="13.3199967"><ele>1075.0</ele><time>2026-05-02T15:20:52.57Z</time></trkpt><trkpt lat="42.1309533" lon="13.3199117"><ele>1075.0</ele><time>2026-05-02T15:20:54.571Z</time></trkpt><trkpt lat="42.1309683" lon="13.3198117"><ele>1075.3333333333333</ele><time>2026-05-02T15:20:56.571Z</time></trkpt><trkpt lat="42.13099" lon="13.3197133"><ele>1075.6666666666665</ele><time>2026-05-02T15:20:58.57Z</time></trkpt><trkpt lat="42.1310183" lon="13.3196217"><ele>1076.0</ele><time>2026-05-02T15:21:00.571Z</time></trkpt><trkpt lat="42.1310467" lon="13.31951"><ele>1076.3333333333333</ele><time>2026-05-02T15:21:02.57Z</time></trkpt><trkpt lat="42.13109" lon="13.3194033"><ele>1076.6666666666667</ele><time>2026-05-02T15:21:04.571Z</time></trkpt><trkpt lat="42.1311633" lon="13.3193033"><ele>1077.0</ele><time>2026-05-02T15:21:06.571Z</time></trkpt><trkpt lat="42.131245" lon="13.3191867"><ele>1077.0</ele><time>2026-05-02T15:21:08.57Z</time></trkpt><trkpt lat="42.13128" lon="13.3191033"><ele>1077.0</ele><time>2026-05-02T15:21:09.57Z</time></trkpt><trkpt lat="42.1313183" lon="13.3190117"><ele>1077.0</ele><time>2026-05-02T15:21:10.571Z</time></trkpt><trkpt lat="42.13135" lon="13.3189133"><ele>1077.0</ele><time>2026-05-02T15:21:11.57Z</time></trkpt><trkpt lat="42.1313867" lon="13.318815"><ele>1077.0</ele><time>2026-05-02T15:21:12.571Z</time></trkpt><trkpt lat="42.1314133" lon="13.3187217"><ele>1077.0</ele><time>2026-05-02T15:21:13.57Z</time></trkpt><trkpt lat="42.1314333" lon="13.31864"><ele>1077.0</ele><time>2026-05-02T15:21:14.571Z</time></trkpt><trkpt lat="42.13149" lon="13.318485"><ele>1074.0</ele><time>2026-05-02T15:21:16.57Z</time></trkpt><trkpt lat="42.13157" lon="13.3183583"><ele>1071.0</ele><time>2026-05-02T15:21:18.57Z</time></trkpt><trkpt lat="42.13163" lon="13.3182983"><ele>1068.0</ele><time>2026-05-02T15:21:19.569Z</time></trkpt><trkpt lat="42.1317" lon="13.3182333"><ele>1065.0</ele><time>2026-05-02T15:21:20.57Z</time></trkpt><trkpt lat="42.1317617" lon="13.3181533"><ele>1062.0</ele><time>2026-05-02T15:21:21.57Z</time></trkpt><trkpt lat="42.131825" lon="13.3180733"><ele>1061.0</ele><time>2026-05-02T15:21:22.569Z</time></trkpt><trkpt lat="42.1318817" lon="13.3179917"><ele>1060.0</ele><time>2026-05-02T15:21:23.57Z</time></trkpt><trkpt lat="42.1319233" lon="13.3179083"><ele>1059.0</ele><time>2026-05-02T15:21:24.569Z</time></trkpt><trkpt lat="42.1319367" lon="13.3178"><ele>1058.0</ele><time>2026-05-02T15:21:25.57Z</time></trkpt><trkpt lat="42.13194" lon="13.3177033"><ele>1057.0</ele><time>2026-05-02T15:21:26.57Z</time></trkpt><trkpt lat="42.1319483" lon="13.3176067"><ele>1056.0</ele><time>2026-05-02T15:21:27.569Z</time></trkpt><trkpt lat="42.1320067" lon="13.3174617"><ele>1056.0</ele><time>2026-05-02T15:21:29.569Z</time></trkpt><trkpt lat="42.1320483" lon="13.3173833"><ele>1056.0</ele><time>2026-05-02T15:21:30.569Z</time></trkpt><trkpt lat="42.1320967" lon="13.3172967"><ele>1056.0</ele><time>2026-05-02T15:21:31.57Z</time></trkpt><trkpt lat="42.1321583" lon="13.3172067"><ele>1056.0</ele><time>2026-05-02T15:21:32.569Z</time></trkpt><trkpt lat="42.132225" lon="13.3171117"><ele>1056.0</ele><time>2026-05-02T15:21:33.57Z</time></trkpt><trkpt lat="42.1322967" lon="13.3170133"><ele>1056.0</ele><time>2026-05-02T15:21:34.57Z</time></trkpt><trkpt lat="42.1323633" lon="13.316915"><ele>1055.6</ele><time>2026-05-02T15:21:35.569Z</time></trkpt><trkpt lat="42.13243" lon="13.3168383"><ele>1055.1999999999998</ele><time>2026-05-02T15:21:36.569Z</time></trkpt><trkpt lat="42.1325033" lon="13.3167567"><ele>1054.8000000000002</ele><time>2026-05-02T15:21:37.57Z</time></trkpt><trkpt lat="42.13258" lon="13.3166667"><ele>1054.4</ele><time>2026-05-02T15:21:38.569Z</time></trkpt><trkpt lat="42.1326583" lon="13.3165483"><ele>1054.0</ele><time>2026-05-02T15:21:39.57Z</time></trkpt><trkpt lat="42.132745" lon="13.3164267"><ele>1053.2</ele><time>2026-05-02T15:21:40.569Z</time></trkpt><trkpt lat="42.1328283" lon="13.31631"><ele>1052.4</ele><time>2026-05-02T15:21:41.569Z</time></trkpt><trkpt lat="42.1329083" lon="13.3161817"><ele>1051.6</ele><time>2026-05-02T15:21:42.569Z</time></trkpt><trkpt lat="42.1329767" lon="13.3160733"><ele>1050.8</ele><time>2026-05-02T15:21:43.57Z</time></trkpt><trkpt lat="42.13303" lon="13.315985"><ele>1050.0</ele><time>2026-05-02T15:21:44.569Z</time></trkpt><trkpt lat="42.133065" lon="13.3159117"><ele>1050.0</ele><time>2026-05-02T15:21:45.569Z</time></trkpt><trkpt lat="42.133085" lon="13.3157817"><ele>1050.0</ele><time>2026-05-02T15:21:47.57Z</time></trkpt><trkpt lat="42.1330833" lon="13.3156917"><ele>1050.0</ele><time>2026-05-02T15:21:48.57Z</time></trkpt><trkpt lat="42.1330967" lon="13.3155933"><ele>1050.0</ele><time>2026-05-02T15:21:49.57Z</time></trkpt><trkpt lat="42.1331283" lon="13.315505"><ele>1050.0</ele><time>2026-05-02T15:21:50.569Z</time></trkpt><trkpt lat="42.1331867" lon="13.3154317"><ele>1050.0</ele><time>2026-05-02T15:21:51.569Z</time></trkpt><trkpt lat="42.133245" lon="13.3153567"><ele>1049.3333333333333</ele><time>2026-05-02T15:21:52.57Z</time></trkpt><trkpt lat="42.1333083" lon="13.315285"><ele>1048.6666666666667</ele><time>2026-05-02T15:21:53.569Z</time></trkpt><trkpt lat="42.1333667" lon="13.3152183"><ele>1048.0</ele><time>2026-05-02T15:21:54.569Z</time></trkpt><trkpt lat="42.1334417" lon="13.3151617"><ele>1047.3333333333335</ele><time>2026-05-02T15:21:55.569Z</time></trkpt><trkpt lat="42.13351" lon="13.3151117"><ele>1046.6666666666667</ele><time>2026-05-02T15:21:56.569Z</time></trkpt><trkpt lat="42.13357" lon="13.3150533"><ele>1046.0</ele><time>2026-05-02T15:21:57.57Z</time></trkpt><trkpt lat="42.1336267" lon="13.3149867"><ele>1046.0</ele><time>2026-05-02T15:21:58.569Z</time></trkpt><trkpt lat="42.1336733" lon="13.3148933"><ele>1046.0</ele><time>2026-05-02T15:21:59.57Z</time></trkpt><trkpt lat="42.1336983" lon="13.3147833"><ele>1046.0</ele><time>2026-05-02T15:22:00.57Z</time></trkpt><trkpt lat="42.1337283" lon="13.3146733"><ele>1046.0</ele><time>2026-05-02T15:22:01.569Z</time></trkpt><trkpt lat="42.133765" lon="13.3145733"><ele>1046.0</ele><time>2026-05-02T15:22:02.57Z</time></trkpt><trkpt lat="42.13381" lon="13.3144733"><ele>1046.0</ele><time>2026-05-02T15:22:03.569Z</time></trkpt><trkpt lat="42.1338583" lon="13.3143883"><ele>1046.5</ele><time>2026-05-02T15:22:04.57Z</time></trkpt><trkpt lat="42.1339033" lon="13.31432"><ele>1047.0</ele><time>2026-05-02T15:22:05.57Z</time></trkpt><trkpt lat="42.13396" lon="13.3142167"><ele>1047.5</ele><time>2026-05-02T15:22:07.57Z</time></trkpt><trkpt lat="42.1339667" lon="13.3141117"><ele>1048.0</ele><time>2026-05-02T15:22:10.57Z</time></trkpt><trkpt lat="42.133895" lon="13.314135"><ele>1048.5</ele><time>2026-05-02T15:22:13.57Z</time></trkpt><trkpt lat="42.1338617" lon="13.3142633"><ele>1049.0</ele><time>2026-05-02T15:22:15.569Z</time></trkpt><trkpt lat="42.1338233" lon="13.3144"><ele>1049.0</ele><time>2026-05-02T15:22:17.569Z</time></trkpt><trkpt lat="42.1337633" lon="13.3145583"><ele>1049.0</ele><time>2026-05-02T15:22:19.57Z</time></trkpt><trkpt lat="42.1337283" lon="13.3146567"><ele>1049.0</ele><time>2026-05-02T15:22:20.57Z</time></trkpt><trkpt lat="42.1336933" lon="13.3147683"><ele>1049.0</ele><time>2026-05-02T15:22:21.569Z</time></trkpt><trkpt lat="42.1336633" lon="13.3148767"><ele>1049.0</ele><time>2026-05-02T15:22:22.57Z</time></trkpt><trkpt lat="42.1336317" lon="13.3149733"><ele>1048.5</ele><time>2026-05-02T15:22:23.57Z</time></trkpt><trkpt lat="42.1335867" lon="13.315055"><ele>1048.0</ele><time>2026-05-02T15:22:24.57Z</time></trkpt><trkpt lat="42.1335317" lon="13.3151133"><ele>1047.5</ele><time>2026-05-02T15:22:25.569Z</time></trkpt><trkpt lat="42.133465" lon="13.3151583"><ele>1047.0</ele><time>2026-05-02T15:22:26.569Z</time></trkpt><trkpt lat="42.1333933" lon="13.3151983"><ele>1046.5</ele><time>2026-05-02T15:22:27.569Z</time></trkpt><trkpt lat="42.1333233" lon="13.3152583"><ele>1046.0</ele><time>2026-05-02T15:22:28.57Z</time></trkpt><trkpt lat="42.1332633" lon="13.3153217"><ele>1046.3999999999999</ele><time>2026-05-02T15:22:29.569Z</time></trkpt><trkpt lat="42.1332133" lon="13.3153783"><ele>1046.8</ele><time>2026-05-02T15:22:30.57Z</time></trkpt><trkpt lat="42.1331433" lon="13.3154783"><ele>1047.1999999999998</ele><time>2026-05-02T15:22:32.57Z</time></trkpt><trkpt lat="42.133085" lon="13.3155683"><ele>1047.6</ele><time>2026-05-02T15:22:34.57Z</time></trkpt><trkpt lat="42.13302" lon="13.3156"><ele>1048.0</ele><time>2026-05-02T15:22:36.57Z</time></trkpt><trkpt lat="42.1329" lon="13.3155233"><ele>1048.0</ele><time>2026-05-02T15:22:38.569Z</time></trkpt><trkpt lat="42.1328283" lon="13.3154667"><ele>1048.0</ele><time>2026-05-02T15:22:39.569Z</time></trkpt><trkpt lat="42.1327583" lon="13.3154017"><ele>1048.0</ele><time>2026-05-02T15:22:40.569Z</time></trkpt><trkpt lat="42.1326917" lon="13.3153133"><ele>1048.0</ele><time>2026-05-02T15:22:41.57Z</time></trkpt><trkpt lat="42.1326283" lon="13.3152017"><ele>1048.0</ele><time>2026-05-02T15:22:42.57Z</time></trkpt><trkpt lat="42.1325783" lon="13.3150733"><ele>1048.0</ele><time>2026-05-02T15:22:43.57Z</time></trkpt><trkpt lat="42.1325233" lon="13.31492"><ele>1048.0</ele><time>2026-05-02T15:22:44.569Z</time></trkpt><trkpt lat="42.1324633" lon="13.314755"><ele>1048.0</ele><time>2026-05-02T15:22:45.57Z</time></trkpt><trkpt lat="42.1324117" lon="13.314615"><ele>1048.0</ele><time>2026-05-02T15:22:46.57Z</time></trkpt><trkpt lat="42.1323467" lon="13.3145083"><ele>1048.2</ele><time>2026-05-02T15:22:47.569Z</time></trkpt><trkpt lat="42.1322733" lon="13.31441"><ele>1048.4</ele><time>2026-05-02T15:22:48.569Z</time></trkpt><trkpt lat="42.132185" lon="13.31431"><ele>1048.6000000000001</ele><time>2026-05-02T15:22:49.57Z</time></trkpt><trkpt lat="42.1320983" lon="13.3142067"><ele>1048.8</ele><time>2026-05-02T15:22:50.57Z</time></trkpt><trkpt lat="42.1320183" lon="13.3141033"><ele>1049.0</ele><time>2026-05-02T15:22:51.57Z</time></trkpt><trkpt lat="42.13195" lon="13.3140167"><ele>1049.0</ele><time>2026-05-02T15:22:52.57Z</time></trkpt><trkpt lat="42.131895" lon="13.3139333"><ele>1049.0</ele><time>2026-05-02T15:22:53.57Z</time></trkpt><trkpt lat="42.131855" lon="13.3138533"><ele>1049.0</ele><time>2026-05-02T15:22:54.569Z</time></trkpt><trkpt lat="42.1318283" lon="13.3137667"><ele>1049.0</ele><time>2026-05-02T15:22:55.569Z</time></trkpt><trkpt lat="42.13181" lon="13.3136467"><ele>1049.0</ele><time>2026-05-02T15:22:56.57Z</time></trkpt><trkpt lat="42.131805" lon="13.3134917"><ele>1049.0</ele><time>2026-05-02T15:22:57.57Z</time></trkpt><trkpt lat="42.1318083" lon="13.3133367"><ele>1049.6000000000001</ele><time>2026-05-02T15:22:58.569Z</time></trkpt><trkpt lat="42.131815" lon="13.3131917"><ele>1050.2</ele><time>2026-05-02T15:22:59.57Z</time></trkpt><trkpt lat="42.1318217" lon="13.3130533"><ele>1050.8000000000002</ele><time>2026-05-02T15:23:00.569Z</time></trkpt><trkpt lat="42.13183" lon="13.3129217"><ele>1051.4</ele><time>2026-05-02T15:23:01.57Z</time></trkpt><trkpt lat="42.1318467" lon="13.3127933"><ele>1052.0</ele><time>2026-05-02T15:23:02.57Z</time></trkpt><trkpt lat="42.1318817" lon="13.3126733"><ele>1052.5</ele><time>2026-05-02T15:23:03.57Z</time></trkpt><trkpt lat="42.1319283" lon="13.31257"><ele>1053.0</ele><time>2026-05-02T15:23:04.57Z</time></trkpt><trkpt lat="42.13198" lon="13.3124767"><ele>1053.5</ele><time>2026-05-02T15:23:05.57Z</time></trkpt><trkpt lat="42.1320467" lon="13.31241"><ele>1054.0</ele><time>2026-05-02T15:23:06.569Z</time></trkpt><trkpt lat="42.1321117" lon="13.3123467"><ele>1054.5</ele><time>2026-05-02T15:23:07.57Z</time></trkpt><trkpt lat="42.13216" lon="13.3122867"><ele>1055.0</ele><time>2026-05-02T15:23:08.57Z</time></trkpt><trkpt lat="42.132205" lon="13.3121833"><ele>1057.0</ele><time>2026-05-02T15:23:10.569Z</time></trkpt><trkpt lat="42.1322317" lon="13.3120817"><ele>1059.0</ele><time>2026-05-02T15:23:12.57Z</time></trkpt><trkpt lat="42.1323217" lon="13.31201"><ele>1061.0</ele><time>2026-05-02T15:23:14.57Z</time></trkpt><trkpt lat="42.13238" lon="13.3119"><ele>1063.0</ele><time>2026-05-02T15:23:16.57Z</time></trkpt><trkpt lat="42.1324433" lon="13.3117717"><ele>1065.0</ele><time>2026-05-02T15:23:18.569Z</time></trkpt><trkpt lat="42.1325" lon="13.3117167"><ele>1062.3333333333333</ele><time>2026-05-02T15:23:19.57Z</time></trkpt><trkpt lat="42.1325633" lon="13.3116767"><ele>1059.6666666666667</ele><time>2026-05-02T15:23:20.57Z</time></trkpt><trkpt lat="42.13262" lon="13.3116317"><ele>1057.0</ele><time>2026-05-02T15:23:21.569Z</time></trkpt><trkpt lat="42.1326833" lon="13.3116017"><ele>1054.3333333333335</ele><time>2026-05-02T15:23:22.57Z</time></trkpt><trkpt lat="42.13277" lon="13.311485"><ele>1051.6666666666667</ele><time>2026-05-02T15:23:24.57Z</time></trkpt><trkpt lat="42.1328433" lon="13.3113683"><ele>1049.0</ele><time>2026-05-02T15:23:26.569Z</time></trkpt><trkpt lat="42.1329533" lon="13.311265"><ele>1049.0</ele><time>2026-05-02T15:23:28.57Z</time></trkpt><trkpt lat="42.13302" lon="13.3112167"><ele>1049.0</ele><time>2026-05-02T15:23:29.569Z</time></trkpt><trkpt lat="42.1330967" lon="13.31118"><ele>1049.0</ele><time>2026-05-02T15:23:30.57Z</time></trkpt><trkpt lat="42.13316" lon="13.31115"><ele>1049.0</ele><time>2026-05-02T15:23:31.569Z</time></trkpt><trkpt lat="42.13324" lon="13.3110817"><ele>1049.0</ele><time>2026-05-02T15:23:33.57Z</time></trkpt><trkpt lat="42.133245" lon="13.3109517"><ele>1049.0</ele><time>2026-05-02T15:23:35.569Z</time></trkpt><trkpt lat="42.1332983" lon="13.31082"><ele>1047.0</ele><time>2026-05-02T15:23:37.569Z</time></trkpt><trkpt lat="42.13337" lon="13.3106983"><ele>1045.0</ele><time>2026-05-02T15:23:39.57Z</time></trkpt><trkpt lat="42.1334633" lon="13.3105833"><ele>1043.0</ele><time>2026-05-02T15:23:41.569Z</time></trkpt><trkpt lat="42.1335117" lon="13.310525"><ele>1041.0</ele><time>2026-05-02T15:23:42.57Z</time></trkpt><trkpt lat="42.1335883" lon="13.310415"><ele>1039.0</ele><time>2026-05-02T15:23:44.57Z</time></trkpt><trkpt lat="42.1336283" lon="13.310335"><ele>1039.0</ele><time>2026-05-02T15:23:57.569Z</time></trkpt><trkpt lat="42.1336833" lon="13.310215"><ele>1039.0</ele><time>2026-05-02T15:23:59.57Z</time></trkpt><trkpt lat="42.1337517" lon="13.3100933"><ele>1039.0</ele><time>2026-05-02T15:24:01.57Z</time></trkpt><trkpt lat="42.1338217" lon="13.3100217"><ele>1039.0</ele><time>2026-05-02T15:24:03.57Z</time></trkpt><trkpt lat="42.13393" lon="13.3099783"><ele>1039.0</ele><time>2026-05-02T15:24:05.57Z</time></trkpt><trkpt lat="42.1340233" lon="13.3099483"><ele>1035.4</ele><time>2026-05-02T15:24:07.569Z</time></trkpt><trkpt lat="42.1340883" lon="13.3098683"><ele>1031.8000000000002</ele><time>2026-05-02T15:24:09.57Z</time></trkpt><trkpt lat="42.134155" lon="13.3097533"><ele>1028.1999999999998</ele><time>2026-05-02T15:24:11.57Z</time></trkpt><trkpt lat="42.1341633" lon="13.3096317"><ele>1024.6</ele><time>2026-05-02T15:24:13.569Z</time></trkpt><trkpt lat="42.1341717" lon="13.3095133"><ele>1021.0</ele><time>2026-05-02T15:24:15.57Z</time></trkpt><trkpt lat="42.1342217" lon="13.3093783"><ele>1020.3333333333333</ele><time>2026-05-02T15:24:17.569Z</time></trkpt><trkpt lat="42.1342583" lon="13.3092933"><ele>1019.6666666666666</ele><time>2026-05-02T15:24:18.569Z</time></trkpt><trkpt lat="42.134295" lon="13.3092117"><ele>1019.0</ele><time>2026-05-02T15:24:19.57Z</time></trkpt><trkpt lat="42.1343283" lon="13.3091283"><ele>1018.3333333333333</ele><time>2026-05-02T15:24:20.569Z</time></trkpt><trkpt lat="42.13437" lon="13.3090633"><ele>1017.6666666666666</ele><time>2026-05-02T15:24:21.57Z</time></trkpt><trkpt lat="42.1344683" lon="13.3089517"><ele>1017.0</ele><time>2026-05-02T15:24:23.569Z</time></trkpt><trkpt lat="42.1345233" lon="13.3088883"><ele>1017.0</ele><time>2026-05-02T15:24:24.569Z</time></trkpt><trkpt lat="42.1345817" lon="13.3088367"><ele>1017.0</ele><time>2026-05-02T15:24:25.569Z</time></trkpt><trkpt lat="42.13464" lon="13.30879"><ele>1017.0</ele><time>2026-05-02T15:24:26.569Z</time></trkpt><trkpt lat="42.13471" lon="13.3087217"><ele>1017.0</ele><time>2026-05-02T15:24:28.569Z</time></trkpt><trkpt lat="42.1347233" lon="13.308625"><ele>1017.0</ele><time>2026-05-02T15:24:30.568Z</time></trkpt><trkpt lat="42.1347167" lon="13.3084683"><ele>1017.0</ele><time>2026-05-02T15:24:32.568Z</time></trkpt><trkpt lat="42.13472" lon="13.3083683"><ele>1017.0</ele><time>2026-05-02T15:24:33.569Z</time></trkpt><trkpt lat="42.1347167" lon="13.3082583"><ele>1017.0</ele><time>2026-05-02T15:24:34.568Z</time></trkpt><trkpt lat="42.13471" lon="13.3081533"><ele>1017.0</ele><time>2026-05-02T15:24:35.569Z</time></trkpt><trkpt lat="42.1347167" lon="13.3080567"><ele>1017.0</ele><time>2026-05-02T15:24:36.569Z</time></trkpt><trkpt lat="42.1347283" lon="13.3079567"><ele>1017.0</ele><time>2026-05-02T15:24:37.568Z</time></trkpt><trkpt lat="42.1347533" lon="13.3078717"><ele>1017.0</ele><time>2026-05-02T15:24:38.569Z</time></trkpt><trkpt lat="42.1348217" lon="13.3077233"><ele>1015.0</ele><time>2026-05-02T15:24:40.568Z</time></trkpt><trkpt lat="42.1348733" lon="13.3075867"><ele>1013.0</ele><time>2026-05-02T15:24:42.568Z</time></trkpt><trkpt lat="42.1348633" lon="13.3074533"><ele>1011.0</ele><time>2026-05-02T15:24:44.568Z</time></trkpt><trkpt lat="42.134805" lon="13.3073517"><ele>1009.0</ele><time>2026-05-02T15:24:45.569Z</time></trkpt><trkpt lat="42.13475" lon="13.307245"><ele>1007.0</ele><time>2026-05-02T15:24:46.568Z</time></trkpt><trkpt lat="42.1346833" lon="13.307135"><ele>1004.0</ele><time>2026-05-02T15:24:47.568Z</time></trkpt><trkpt lat="42.1346333" lon="13.3070417"><ele>1001.0</ele><time>2026-05-02T15:24:48.568Z</time></trkpt><trkpt lat="42.13459" lon="13.3069517"><ele>998.0</ele><time>2026-05-02T15:24:49.568Z</time></trkpt><trkpt lat="42.1345667" lon="13.306865"><ele>995.0</ele><time>2026-05-02T15:24:50.569Z</time></trkpt><trkpt lat="42.134545" lon="13.3067083"><ele>992.0</ele><time>2026-05-02T15:24:52.568Z</time></trkpt><trkpt lat="42.1345333" lon="13.3065633"><ele>992.0</ele><time>2026-05-02T15:24:54.569Z</time></trkpt><trkpt lat="42.1345383" lon="13.3064167"><ele>992.0</ele><time>2026-05-02T15:24:56.569Z</time></trkpt><trkpt lat="42.1345483" lon="13.306265"><ele>992.0</ele><time>2026-05-02T15:24:58.568Z</time></trkpt><trkpt lat="42.1345217" lon="13.3061683"><ele>992.0</ele><time>2026-05-02T15:25:00.569Z</time></trkpt><trkpt lat="42.1344583" lon="13.3060883"><ele>992.0</ele><time>2026-05-02T15:25:02.569Z</time></trkpt><trkpt lat="42.1344183" lon="13.3059517"><ele>989.4000000000001</ele><time>2026-05-02T15:25:04.569Z</time></trkpt><trkpt lat="42.1344083" lon="13.3058467"><ele>986.8000000000001</ele><time>2026-05-02T15:25:05.568Z</time></trkpt><trkpt lat="42.1343917" lon="13.3057117"><ele>984.2</ele><time>2026-05-02T15:25:06.569Z</time></trkpt><trkpt lat="42.1343667" lon="13.3055683"><ele>981.6</ele><time>2026-05-02T15:25:07.568Z</time></trkpt><trkpt lat="42.13435" lon="13.305435"><ele>979.0</ele><time>2026-05-02T15:25:08.568Z</time></trkpt><trkpt lat="42.1343367" lon="13.305305"><ele>977.2</ele><time>2026-05-02T15:25:09.569Z</time></trkpt><trkpt lat="42.1343133" lon="13.3051717"><ele>975.4000000000001</ele><time>2026-05-02T15:25:10.569Z</time></trkpt><trkpt lat="42.1342983" lon="13.3050417"><ele>973.6</ele><time>2026-05-02T15:25:11.569Z</time></trkpt><trkpt lat="42.134275" lon="13.3049283"><ele>971.8</ele><time>2026-05-02T15:25:12.569Z</time></trkpt><trkpt lat="42.13425" lon="13.304825"><ele>970.0</ele><time>2026-05-02T15:25:13.568Z</time></trkpt><trkpt lat="42.1342333" lon="13.3046633"><ele>968.4</ele><time>2026-05-02T15:25:15.568Z</time></trkpt><trkpt lat="42.1342367" lon="13.304575"><ele>966.8</ele><time>2026-05-02T15:25:16.569Z</time></trkpt><trkpt lat="42.1342283" lon="13.3044467"><ele>965.2</ele><time>2026-05-02T15:25:17.568Z</time></trkpt><trkpt lat="42.1342167" lon="13.304305"><ele>963.6</ele><time>2026-05-02T15:25:18.569Z</time></trkpt><trkpt lat="42.1341967" lon="13.3041483"><ele>962.0</ele><time>2026-05-02T15:25:19.568Z</time></trkpt><trkpt lat="42.13417" lon="13.30398"><ele>961.6</ele><time>2026-05-02T15:25:20.568Z</time></trkpt><trkpt lat="42.1341417" lon="13.30382"><ele>961.2</ele><time>2026-05-02T15:25:21.569Z</time></trkpt><trkpt lat="42.1341233" lon="13.303685"><ele>960.8</ele><time>2026-05-02T15:25:22.568Z</time></trkpt><trkpt lat="42.1341167" lon="13.3035533"><ele>960.4</ele><time>2026-05-02T15:25:23.568Z</time></trkpt><trkpt lat="42.1341317" lon="13.3034383"><ele>960.0</ele><time>2026-05-02T15:25:24.569Z</time></trkpt><trkpt lat="42.1341683" lon="13.3033217"><ele>960.0</ele><time>2026-05-02T15:25:25.569Z</time></trkpt><trkpt lat="42.1342283" lon="13.30321"><ele>960.0</ele><time>2026-05-02T15:25:26.569Z</time></trkpt><trkpt lat="42.1342983" lon="13.3030633"><ele>960.0</ele><time>2026-05-02T15:25:27.569Z</time></trkpt><trkpt lat="42.1343767" lon="13.3029067"><ele>960.0</ele><time>2026-05-02T15:25:28.568Z</time></trkpt><trkpt lat="42.1344567" lon="13.3027533"><ele>961.0</ele><time>2026-05-02T15:25:29.568Z</time></trkpt><trkpt lat="42.134515" lon="13.3026083"><ele>962.0</ele><time>2026-05-02T15:25:30.569Z</time></trkpt><trkpt lat="42.1345483" lon="13.3024767"><ele>963.0</ele><time>2026-05-02T15:25:31.568Z</time></trkpt><trkpt lat="42.13457" lon="13.3023633"><ele>964.0</ele><time>2026-05-02T15:25:32.568Z</time></trkpt><trkpt lat="42.1345683" lon="13.30222"><ele>965.0</ele><time>2026-05-02T15:25:34.569Z</time></trkpt><trkpt lat="42.1345733" lon="13.3021283"><ele>966.0000000000001</ele><time>2026-05-02T15:25:37.568Z</time></trkpt><trkpt lat="42.134665" lon="13.3020233"><ele>967.0</ele><time>2026-05-02T15:25:39.569Z</time></trkpt><trkpt lat="42.1347117" lon="13.3019567"><ele>968.0</ele><time>2026-05-02T15:25:40.568Z</time></trkpt><trkpt lat="42.1347417" lon="13.3018683"><ele>969.0</ele><time>2026-05-02T15:25:41.569Z</time></trkpt><trkpt lat="42.1347733" lon="13.3017583"><ele>970.0000000000001</ele><time>2026-05-02T15:25:42.568Z</time></trkpt><trkpt lat="42.13481" lon="13.3016517"><ele>971.0</ele><time>2026-05-02T15:25:43.569Z</time></trkpt><trkpt lat="42.134865" lon="13.3015583"><ele>965.75</ele><time>2026-05-02T15:25:44.568Z</time></trkpt><trkpt lat="42.13495" lon="13.3014783"><ele>960.5</ele><time>2026-05-02T15:25:45.569Z</time></trkpt><trkpt lat="42.1350383" lon="13.3013917"><ele>955.25</ele><time>2026-05-02T15:25:46.569Z</time></trkpt><trkpt lat="42.1351333" lon="13.3012783"><ele>950.0</ele><time>2026-05-02T15:25:47.569Z</time></trkpt><trkpt lat="42.135215" lon="13.3011583"><ele>949.2857142857143</ele><time>2026-05-02T15:25:48.569Z</time></trkpt><trkpt lat="42.1352867" lon="13.3010683"><ele>948.5714285714287</ele><time>2026-05-02T15:25:49.569Z</time></trkpt><trkpt lat="42.13534" lon="13.3010017"><ele>947.8571428571429</ele><time>2026-05-02T15:25:50.568Z</time></trkpt><trkpt lat="42.1353933" lon="13.3009517"><ele>947.1428571428571</ele><time>2026-05-02T15:25:51.569Z</time></trkpt><trkpt lat="42.1354517" lon="13.3008983"><ele>946.4285714285714</ele><time>2026-05-02T15:25:52.568Z</time></trkpt><trkpt lat="42.1355217" lon="13.300865"><ele>945.7142857142858</ele><time>2026-05-02T15:25:53.569Z</time></trkpt><trkpt lat="42.1355817" lon="13.300835"><ele>945.0</ele><time>2026-05-02T15:25:54.568Z</time></trkpt><trkpt lat="42.1356333" lon="13.3007833"><ele>945.0</ele><time>2026-05-02T15:25:55.569Z</time></trkpt><trkpt lat="42.135675" lon="13.3007117"><ele>945.0</ele><time>2026-05-02T15:25:56.568Z</time></trkpt><trkpt lat="42.1357583" lon="13.3006367"><ele>945.0</ele><time>2026-05-02T15:25:58.568Z</time></trkpt><trkpt lat="42.135865" lon="13.3006467"><ele>945.0</ele><time>2026-05-02T15:26:00.569Z</time></trkpt><trkpt lat="42.13594" lon="13.3006583"><ele>945.0</ele><time>2026-05-02T15:26:01.568Z</time></trkpt><trkpt lat="42.13603" lon="13.300645"><ele>945.0</ele><time>2026-05-02T15:26:02.568Z</time></trkpt><trkpt lat="42.1361267" lon="13.3006083"><ele>942.8333333333334</ele><time>2026-05-02T15:26:03.568Z</time></trkpt><trkpt lat="42.1362067" lon="13.3005567"><ele>940.6666666666667</ele><time>2026-05-02T15:26:04.569Z</time></trkpt><trkpt lat="42.136265" lon="13.3005017"><ele>938.5</ele><time>2026-05-02T15:26:05.569Z</time></trkpt><trkpt lat="42.1363133" lon="13.300435"><ele>936.3333333333334</ele><time>2026-05-02T15:26:06.568Z</time></trkpt><trkpt lat="42.1363767" lon="13.3003017"><ele>934.1666666666667</ele><time>2026-05-02T15:26:08.569Z</time></trkpt><trkpt lat="42.1364217" lon="13.3002167"><ele>932.0</ele><time>2026-05-02T15:26:09.568Z</time></trkpt><trkpt lat="42.13648" lon="13.3001017"><ele>932.0</ele><time>2026-05-02T15:26:10.568Z</time></trkpt><trkpt lat="42.1365517" lon="13.299955"><ele>932.0</ele><time>2026-05-02T15:26:11.569Z</time></trkpt><trkpt lat="42.136615" lon="13.299795"><ele>932.0</ele><time>2026-05-02T15:26:12.569Z</time></trkpt><trkpt lat="42.136675" lon="13.29965"><ele>932.0</ele><time>2026-05-02T15:26:13.568Z</time></trkpt><trkpt lat="42.1367283" lon="13.2995083"><ele>932.0</ele><time>2026-05-02T15:26:14.568Z</time></trkpt><trkpt lat="42.13677" lon="13.2993517"><ele>932.0</ele><time>2026-05-02T15:26:15.568Z</time></trkpt><trkpt lat="42.1368083" lon="13.2991433"><ele>932.0</ele><time>2026-05-02T15:26:16.569Z</time></trkpt><trkpt lat="42.1368533" lon="13.2989233"><ele>931.0</ele><time>2026-05-02T15:26:17.568Z</time></trkpt><trkpt lat="42.136895" lon="13.29872"><ele>930.0</ele><time>2026-05-02T15:26:18.569Z</time></trkpt><trkpt lat="42.1369367" lon="13.29853"><ele>929.0</ele><time>2026-05-02T15:26:19.569Z</time></trkpt><trkpt lat="42.1369767" lon="13.2983633"><ele>928.0</ele><time>2026-05-02T15:26:20.568Z</time></trkpt><trkpt lat="42.1369983" lon="13.298225"><ele>927.9999999999999</ele><time>2026-05-02T15:26:21.569Z</time></trkpt><trkpt lat="42.1370117" lon="13.298105"><ele>928.0</ele><time>2026-05-02T15:26:22.568Z</time></trkpt><trkpt lat="42.1370167" lon="13.2980067"><ele>928.0</ele><time>2026-05-02T15:26:23.569Z</time></trkpt><trkpt lat="42.137025" lon="13.297875"><ele>928.0</ele><time>2026-05-02T15:26:25.569Z</time></trkpt><trkpt lat="42.136965" lon="13.29791"><ele>927.9999999999999</ele><time>2026-05-02T15:26:33.568Z</time></trkpt><trkpt lat="42.1370067" lon="13.297995"><ele>928.0</ele><time>2026-05-02T15:26:35.568Z</time></trkpt><trkpt lat="42.137115" lon="13.2980167"><ele>928.3333333333333</ele><time>2026-05-02T15:26:37.569Z</time></trkpt><trkpt lat="42.13719" lon="13.2980133"><ele>928.6666666666666</ele><time>2026-05-02T15:26:38.568Z</time></trkpt><trkpt lat="42.13726" lon="13.2980133"><ele>929.0</ele><time>2026-05-02T15:26:39.568Z</time></trkpt><trkpt lat="42.13735" lon="13.2980233"><ele>929.3333333333333</ele><time>2026-05-02T15:26:41.568Z</time></trkpt><trkpt lat="42.1374333" lon="13.2980883"><ele>929.6666666666666</ele><time>2026-05-02T15:28:18.568Z</time></trkpt><trkpt lat="42.1374483" lon="13.2981767"><ele>930.0</ele><time>2026-05-02T15:28:20.568Z</time></trkpt><trkpt lat="42.1374033" lon="13.29826"><ele>929.6</ele><time>2026-05-02T15:28:22.567Z</time></trkpt><trkpt lat="42.137325" lon="13.2982933"><ele>929.2</ele><time>2026-05-02T15:28:24.567Z</time></trkpt><trkpt lat="42.13722" lon="13.29824"><ele>928.8</ele><time>2026-05-02T15:28:26.568Z</time></trkpt><trkpt lat="42.13711" lon="13.2981817"><ele>928.4</ele><time>2026-05-02T15:28:28.567Z</time></trkpt><trkpt lat="42.1369967" lon="13.298125"><ele>928.0</ele><time>2026-05-02T15:28:30.567Z</time></trkpt><trkpt lat="42.1369333" lon="13.2981183"><ele>927.9999999999999</ele><time>2026-05-02T15:28:31.567Z</time></trkpt><trkpt lat="42.1368667" lon="13.2981267"><ele>928.0</ele><time>2026-05-02T15:28:32.567Z</time></trkpt><trkpt lat="42.1367933" lon="13.2981317"><ele>928.0</ele><time>2026-05-02T15:28:33.568Z</time></trkpt><trkpt lat="42.1367267" lon="13.2981233"><ele>928.0</ele><time>2026-05-02T15:28:34.568Z</time></trkpt><trkpt lat="42.1366267" lon="13.2980517"><ele>927.9999999999999</ele><time>2026-05-02T15:28:36.567Z</time></trkpt><trkpt lat="42.1365433" lon="13.2979483"><ele>928.0</ele><time>2026-05-02T15:28:38.567Z</time></trkpt><trkpt lat="42.1365267" lon="13.29782"><ele>927.9999999999999</ele><time>2026-05-02T15:28:40.567Z</time></trkpt><trkpt lat="42.1365517" lon="13.2977217"><ele>928.0</ele><time>2026-05-02T15:28:41.568Z</time></trkpt><trkpt lat="42.1366" lon="13.2976233"><ele>928.0</ele><time>2026-05-02T15:28:42.568Z</time></trkpt><trkpt lat="42.1366467" lon="13.297525"><ele>928.0</ele><time>2026-05-02T15:28:43.567Z</time></trkpt><trkpt lat="42.1366783" lon="13.2974183"><ele>927.9999999999999</ele><time>2026-05-02T15:28:44.568Z</time></trkpt><trkpt lat="42.13668" lon="13.2973217"><ele>928.0</ele><time>2026-05-02T15:28:45.568Z</time></trkpt><trkpt lat="42.1366767" lon="13.2972017"><ele>928.0</ele><time>2026-05-02T15:28:46.567Z</time></trkpt><trkpt lat="42.1366733" lon="13.2970833"><ele>928.0</ele><time>2026-05-02T15:28:47.567Z</time></trkpt><trkpt lat="42.1366767" lon="13.29696"><ele>928.0</ele><time>2026-05-02T15:28:48.568Z</time></trkpt><trkpt lat="42.1366933" lon="13.2968283"><ele>928.0</ele><time>2026-05-02T15:28:49.567Z</time></trkpt><trkpt lat="42.1367083" lon="13.2966967"><ele>928.0</ele><time>2026-05-02T15:28:50.567Z</time></trkpt><trkpt lat="42.136715" lon="13.2965717"><ele>928.0</ele><time>2026-05-02T15:28:51.567Z</time></trkpt><trkpt lat="42.136705" lon="13.29643"><ele>928.0</ele><time>2026-05-02T15:28:52.568Z</time></trkpt><trkpt lat="42.13669" lon="13.2962933"><ele>928.0</ele><time>2026-05-02T15:28:53.567Z</time></trkpt><trkpt lat="42.1366817" lon="13.2961583"><ele>928.0</ele><time>2026-05-02T15:28:54.567Z</time></trkpt><trkpt lat="42.1366683" lon="13.29603"><ele>928.0</ele><time>2026-05-02T15:28:55.567Z</time></trkpt><trkpt lat="42.1366517" lon="13.2959017"><ele>927.1666666666666</ele><time>2026-05-02T15:28:56.567Z</time></trkpt><trkpt lat="42.1366367" lon="13.2957917"><ele>926.3333333333333</ele><time>2026-05-02T15:28:57.568Z</time></trkpt><trkpt lat="42.1366383" lon="13.2956883"><ele>925.5</ele><time>2026-05-02T15:28:58.567Z</time></trkpt><trkpt lat="42.1366433" lon="13.29557"><ele>924.6666666666667</ele><time>2026-05-02T15:28:59.568Z</time></trkpt><trkpt lat="42.13665" lon="13.2954417"><ele>923.8333333333334</ele><time>2026-05-02T15:29:00.567Z</time></trkpt><trkpt lat="42.13665" lon="13.2953217"><ele>923.0</ele><time>2026-05-02T15:29:01.567Z</time></trkpt><trkpt lat="42.136635" lon="13.295185"><ele>922.0</ele><time>2026-05-02T15:29:02.567Z</time></trkpt><trkpt lat="42.1366133" lon="13.2950383"><ele>921.0</ele><time>2026-05-02T15:29:03.567Z</time></trkpt><trkpt lat="42.1365783" lon="13.294885"><ele>920.0</ele><time>2026-05-02T15:29:04.567Z</time></trkpt><trkpt lat="42.136555" lon="13.294745"><ele>919.0</ele><time>2026-05-02T15:29:05.567Z</time></trkpt><trkpt lat="42.1365317" lon="13.2946"><ele>918.0</ele><time>2026-05-02T15:29:06.568Z</time></trkpt><trkpt lat="42.1365033" lon="13.2944583"><ele>916.5</ele><time>2026-05-02T15:29:07.568Z</time></trkpt><trkpt lat="42.136485" lon="13.2943267"><ele>915.0</ele><time>2026-05-02T15:29:08.567Z</time></trkpt><trkpt lat="42.1364667" lon="13.2942033"><ele>913.5</ele><time>2026-05-02T15:29:09.567Z</time></trkpt><trkpt lat="42.13646" lon="13.294075"><ele>912.0</ele><time>2026-05-02T15:29:10.567Z</time></trkpt><trkpt lat="42.13648" lon="13.2939567"><ele>910.5</ele><time>2026-05-02T15:29:11.568Z</time></trkpt><trkpt lat="42.136495" lon="13.2938717"><ele>909.0</ele><time>2026-05-02T15:29:12.568Z</time></trkpt><trkpt lat="42.1364567" lon="13.29377"><ele>909.0</ele><time>2026-05-02T15:29:14.568Z</time></trkpt><trkpt lat="42.1363833" lon="13.2936717"><ele>909.0</ele><time>2026-05-02T15:29:16.567Z</time></trkpt><trkpt lat="42.1363433" lon="13.2935917"><ele>909.0</ele><time>2026-05-02T15:29:17.567Z</time></trkpt><trkpt lat="42.1363267" lon="13.2935033"><ele>909.0</ele><time>2026-05-02T15:29:18.568Z</time></trkpt><trkpt lat="42.136325" lon="13.2934017"><ele>909.0</ele><time>2026-05-02T15:29:19.567Z</time></trkpt><trkpt lat="42.136315" lon="13.2933017"><ele>909.0</ele><time>2026-05-02T15:29:20.567Z</time></trkpt><trkpt lat="42.1363033" lon="13.293195"><ele>908.6</ele><time>2026-05-02T15:29:21.567Z</time></trkpt><trkpt lat="42.1362683" lon="13.2930817"><ele>908.2</ele><time>2026-05-02T15:29:22.567Z</time></trkpt><trkpt lat="42.1362267" lon="13.2929633"><ele>907.8000000000001</ele><time>2026-05-02T15:29:23.567Z</time></trkpt><trkpt lat="42.1362" lon="13.29285"><ele>907.4000000000001</ele><time>2026-05-02T15:29:24.568Z</time></trkpt><trkpt lat="42.1361867" lon="13.2927317"><ele>907.0</ele><time>2026-05-02T15:29:25.567Z</time></trkpt><trkpt lat="42.1361967" lon="13.292605"><ele>907.0</ele><time>2026-05-02T15:29:26.567Z</time></trkpt><trkpt lat="42.1362083" lon="13.2924667"><ele>907.0</ele><time>2026-05-02T15:29:27.568Z</time></trkpt><trkpt lat="42.1362217" lon="13.29232"><ele>907.0</ele><time>2026-05-02T15:29:28.567Z</time></trkpt><trkpt lat="42.1362433" lon="13.2921683"><ele>907.0</ele><time>2026-05-02T15:29:29.567Z</time></trkpt><trkpt lat="42.1362583" lon="13.2920317"><ele>907.0</ele><time>2026-05-02T15:29:30.567Z</time></trkpt><trkpt lat="42.1362717" lon="13.2919133"><ele>905.4999999999999</ele><time>2026-05-02T15:29:31.568Z</time></trkpt><trkpt lat="42.1362783" lon="13.2917867"><ele>904.0</ele><time>2026-05-02T15:29:32.567Z</time></trkpt><trkpt lat="42.1362767" lon="13.2916683"><ele>902.5</ele><time>2026-05-02T15:29:33.568Z</time></trkpt><trkpt lat="42.1362717" lon="13.2915683"><ele>901.0</ele><time>2026-05-02T15:29:34.567Z</time></trkpt><trkpt lat="42.136295" lon="13.2914517"><ele>899.4999999999999</ele><time>2026-05-02T15:29:36.568Z</time></trkpt><trkpt lat="42.1363767" lon="13.2913767"><ele>898.0</ele><time>2026-05-02T15:29:38.567Z</time></trkpt><trkpt lat="42.1364333" lon="13.2913117"><ele>896.9999999999999</ele><time>2026-05-02T15:29:39.567Z</time></trkpt><trkpt lat="42.1364667" lon="13.2912317"><ele>896.0</ele><time>2026-05-02T15:29:40.568Z</time></trkpt><trkpt lat="42.1364783" lon="13.29114"><ele>895.0</ele><time>2026-05-02T15:29:41.567Z</time></trkpt><trkpt lat="42.1364883" lon="13.2910333"><ele>894.0</ele><time>2026-05-02T15:29:42.567Z</time></trkpt><trkpt lat="42.1365067" lon="13.29093"><ele>892.9999999999999</ele><time>2026-05-02T15:29:43.568Z</time></trkpt><trkpt lat="42.13654" lon="13.29084"><ele>892.0</ele><time>2026-05-02T15:29:44.567Z</time></trkpt><trkpt lat="42.1366233" lon="13.29075"><ele>891.9999999999999</ele><time>2026-05-02T15:29:46.568Z</time></trkpt><trkpt lat="42.136685" lon="13.2907317"><ele>892.0</ele><time>2026-05-02T15:29:47.567Z</time></trkpt><trkpt lat="42.13677" lon="13.2907183"><ele>892.0</ele><time>2026-05-02T15:29:48.567Z</time></trkpt><trkpt lat="42.136865" lon="13.2907083"><ele>892.0</ele><time>2026-05-02T15:29:49.568Z</time></trkpt><trkpt lat="42.1369617" lon="13.290705"><ele>891.9999999999999</ele><time>2026-05-02T15:29:50.567Z</time></trkpt><trkpt lat="42.13705" lon="13.2907"><ele>892.0</ele><time>2026-05-02T15:29:51.567Z</time></trkpt><trkpt lat="42.137125" lon="13.290695"><ele>892.0</ele><time>2026-05-02T15:29:52.568Z</time></trkpt><trkpt lat="42.1372083" lon="13.2906433"><ele>892.0</ele><time>2026-05-02T15:29:54.568Z</time></trkpt><trkpt lat="42.13719" lon="13.29056"><ele>892.0</ele><time>2026-05-02T15:29:56.567Z</time></trkpt><trkpt lat="42.1371217" lon="13.2904667"><ele>892.0</ele><time>2026-05-02T15:29:58.568Z</time></trkpt><trkpt lat="42.1370133" lon="13.29041"><ele>892.0</ele><time>2026-05-02T15:30:00.567Z</time></trkpt><trkpt lat="42.1368983" lon="13.290365"><ele>889.4999999999999</ele><time>2026-05-02T15:30:02.568Z</time></trkpt><trkpt lat="42.13683" lon="13.2902817"><ele>887.0</ele><time>2026-05-02T15:30:04.567Z</time></trkpt><trkpt lat="42.13688" lon="13.29017"><ele>884.5</ele><time>2026-05-02T15:30:06.568Z</time></trkpt><trkpt lat="42.1369383" lon="13.290105"><ele>882.0</ele><time>2026-05-02T15:30:07.567Z</time></trkpt><trkpt lat="42.137" lon="13.29003"><ele>879.4999999999999</ele><time>2026-05-02T15:30:08.567Z</time></trkpt><trkpt lat="42.1370617" lon="13.2899617"><ele>877.0</ele><time>2026-05-02T15:30:09.568Z</time></trkpt><trkpt lat="42.1371183" lon="13.2898783"><ele>877.0000000000001</ele><time>2026-05-02T15:30:10.567Z</time></trkpt><trkpt lat="42.1371517" lon="13.289795"><ele>877.0</ele><time>2026-05-02T15:30:11.568Z</time></trkpt><trkpt lat="42.1371733" lon="13.2897017"><ele>877.0</ele><time>2026-05-02T15:30:12.567Z</time></trkpt><trkpt lat="42.1371917" lon="13.2895983"><ele>877.0</ele><time>2026-05-02T15:30:13.567Z</time></trkpt><trkpt lat="42.1371917" lon="13.2895017"><ele>877.0</ele><time>2026-05-02T15:30:14.568Z</time></trkpt><trkpt lat="42.1371833" lon="13.2894167"><ele>877.0000000000001</ele><time>2026-05-02T15:30:15.567Z</time></trkpt><trkpt lat="42.1371383" lon="13.2893117"><ele>877.0</ele><time>2026-05-02T15:30:17.568Z</time></trkpt><trkpt lat="42.1370783" lon="13.2892083"><ele>874.6666666666666</ele><time>2026-05-02T15:30:19.567Z</time></trkpt><trkpt lat="42.1370817" lon="13.2890933"><ele>872.3333333333333</ele><time>2026-05-02T15:30:21.568Z</time></trkpt><trkpt lat="42.1371717" lon="13.2890067"><ele>870.0</ele><time>2026-05-02T15:30:23.568Z</time></trkpt><trkpt lat="42.1372183" lon="13.2889117"><ele>867.6666666666667</ele><time>2026-05-02T15:30:25.568Z</time></trkpt><trkpt lat="42.137195" lon="13.288785"><ele>865.3333333333334</ele><time>2026-05-02T15:30:27.568Z</time></trkpt><trkpt lat="42.13716" lon="13.2887033"><ele>863.0</ele><time>2026-05-02T15:30:28.567Z</time></trkpt><trkpt lat="42.1371183" lon="13.2886"><ele>861.4</ele><time>2026-05-02T15:30:29.568Z</time></trkpt><trkpt lat="42.13708" lon="13.288485"><ele>859.8</ele><time>2026-05-02T15:30:30.567Z</time></trkpt><trkpt lat="42.1370517" lon="13.28836"><ele>858.2</ele><time>2026-05-02T15:30:31.567Z</time></trkpt><trkpt lat="42.1370283" lon="13.2882517"><ele>856.6</ele><time>2026-05-02T15:30:32.568Z</time></trkpt><trkpt lat="42.1370333" lon="13.2881"><ele>855.0</ele><time>2026-05-02T15:30:34.567Z</time></trkpt><trkpt lat="42.1370767" lon="13.2880183"><ele>855.0</ele><time>2026-05-02T15:30:36.567Z</time></trkpt><trkpt lat="42.1371583" lon="13.2880467"><ele>855.0</ele><time>2026-05-02T15:30:39.567Z</time></trkpt><trkpt lat="42.1372" lon="13.288125"><ele>855.0</ele><time>2026-05-02T15:30:41.568Z</time></trkpt><trkpt lat="42.1372683" lon="13.2882183"><ele>855.0</ele><time>2026-05-02T15:30:43.568Z</time></trkpt><trkpt lat="42.137385" lon="13.2883133"><ele>855.0</ele><time>2026-05-02T15:30:45.567Z</time></trkpt><trkpt lat="42.1374567" lon="13.2883583"><ele>855.3333333333334</ele><time>2026-05-02T15:30:46.568Z</time></trkpt><trkpt lat="42.1375267" lon="13.288405"><ele>855.6666666666667</ele><time>2026-05-02T15:30:47.567Z</time></trkpt><trkpt lat="42.137595" lon="13.2884617"><ele>856.0</ele><time>2026-05-02T15:30:48.567Z</time></trkpt><trkpt lat="42.1376583" lon="13.28852"><ele>856.3333333333334</ele><time>2026-05-02T15:30:49.568Z</time></trkpt><trkpt lat="42.1377633" lon="13.2885567"><ele>856.6666666666667</ele><time>2026-05-02T15:30:51.567Z</time></trkpt><trkpt lat="42.137855" lon="13.2885067"><ele>857.0</ele><time>2026-05-02T15:30:53.568Z</time></trkpt><trkpt lat="42.1379067" lon="13.2883483"><ele>857.0</ele><time>2026-05-02T15:30:55.567Z</time></trkpt><trkpt lat="42.1379" lon="13.28823"><ele>857.0</ele><time>2026-05-02T15:30:56.568Z</time></trkpt><trkpt lat="42.1378783" lon="13.28806"><ele>857.0</ele><time>2026-05-02T15:30:57.568Z</time></trkpt><trkpt lat="42.1378383" lon="13.2878883"><ele>857.0</ele><time>2026-05-02T15:30:58.567Z</time></trkpt><trkpt lat="42.1377933" lon="13.28772"><ele>855.0</ele><time>2026-05-02T15:30:59.567Z</time></trkpt><trkpt lat="42.1377617" lon="13.287565"><ele>853.0</ele><time>2026-05-02T15:31:00.567Z</time></trkpt><trkpt lat="42.1377367" lon="13.2874117"><ele>851.0</ele><time>2026-05-02T15:31:01.567Z</time></trkpt><trkpt lat="42.1377167" lon="13.2872583"><ele>849.0</ele><time>2026-05-02T15:31:02.568Z</time></trkpt><trkpt lat="42.1377033" lon="13.28711"><ele>847.6666666666666</ele><time>2026-05-02T15:31:03.567Z</time></trkpt><trkpt lat="42.1376983" lon="13.2869883"><ele>846.3333333333333</ele><time>2026-05-02T15:31:04.567Z</time></trkpt><trkpt lat="42.1376917" lon="13.2868933"><ele>845.0</ele><time>2026-05-02T15:31:05.568Z</time></trkpt><trkpt lat="42.1376867" lon="13.2867883"><ele>843.6666666666666</ele><time>2026-05-02T15:31:06.568Z</time></trkpt><trkpt lat="42.13767" lon="13.2866567"><ele>842.3333333333333</ele><time>2026-05-02T15:31:07.568Z</time></trkpt><trkpt lat="42.1376567" lon="13.286515"><ele>841.0</ele><time>2026-05-02T15:31:08.567Z</time></trkpt><trkpt lat="42.1376483" lon="13.2863767"><ele>840.6666666666666</ele><time>2026-05-02T15:31:09.567Z</time></trkpt><trkpt lat="42.1376317" lon="13.2862483"><ele>840.3333333333333</ele><time>2026-05-02T15:31:10.567Z</time></trkpt><trkpt lat="42.1376117" lon="13.2861333"><ele>840.0</ele><time>2026-05-02T15:31:11.567Z</time></trkpt><trkpt lat="42.1375983" lon="13.2860417"><ele>839.6666666666667</ele><time>2026-05-02T15:31:12.567Z</time></trkpt><trkpt lat="42.1375733" lon="13.28596"><ele>839.3333333333334</ele><time>2026-05-02T15:31:13.566Z</time></trkpt><trkpt lat="42.1375733" lon="13.2858333"><ele>839.0</ele><time>2026-05-02T15:31:15.567Z</time></trkpt><trkpt lat="42.1376133" lon="13.285725"><ele>839.0</ele><time>2026-05-02T15:31:17.567Z</time></trkpt><trkpt lat="42.13771" lon="13.2856783"><ele>839.0</ele><time>2026-05-02T15:31:19.566Z</time></trkpt><trkpt lat="42.1378183" lon="13.2856967"><ele>839.0</ele><time>2026-05-02T15:31:20.567Z</time></trkpt><trkpt lat="42.1379333" lon="13.285725"><ele>839.0</ele><time>2026-05-02T15:31:21.567Z</time></trkpt><trkpt lat="42.1380333" lon="13.285765"><ele>839.0</ele><time>2026-05-02T15:31:22.566Z</time></trkpt><trkpt lat="42.1381233" lon="13.285795"><ele>839.0</ele><time>2026-05-02T15:31:23.566Z</time></trkpt><trkpt lat="42.138205" lon="13.2858283"><ele>839.0</ele><time>2026-05-02T15:31:24.566Z</time></trkpt><trkpt lat="42.138295" lon="13.2858933"><ele>839.0</ele><time>2026-05-02T15:31:26.567Z</time></trkpt><trkpt lat="42.1384033" lon="13.2858717"><ele>839.0</ele><time>2026-05-02T15:31:32.566Z</time></trkpt><trkpt lat="42.138505" lon="13.28584"><ele>839.0</ele><time>2026-05-02T15:31:34.566Z</time></trkpt><trkpt lat="42.13857" lon="13.2858367"><ele>839.1666666666667</ele><time>2026-05-02T15:31:35.567Z</time></trkpt><trkpt lat="42.13864" lon="13.2858333"><ele>839.3333333333334</ele><time>2026-05-02T15:31:36.567Z</time></trkpt><trkpt lat="42.1387117" lon="13.2858367"><ele>839.5</ele><time>2026-05-02T15:31:37.567Z</time></trkpt><trkpt lat="42.138785" lon="13.2858417"><ele>839.6666666666667</ele><time>2026-05-02T15:31:38.567Z</time></trkpt><trkpt lat="42.1388617" lon="13.28586"><ele>839.8333333333334</ele><time>2026-05-02T15:31:39.567Z</time></trkpt><trkpt lat="42.1389383" lon="13.2858783"><ele>840.0</ele><time>2026-05-02T15:31:40.567Z</time></trkpt><trkpt lat="42.1390267" lon="13.2858817"><ele>839.4</ele><time>2026-05-02T15:31:41.566Z</time></trkpt><trkpt lat="42.1391183" lon="13.28589"><ele>838.8</ele><time>2026-05-02T15:31:42.567Z</time></trkpt><trkpt lat="42.139215" lon="13.2858833"><ele>838.2</ele><time>2026-05-02T15:31:43.567Z</time></trkpt><trkpt lat="42.1393133" lon="13.2858833"><ele>837.6</ele><time>2026-05-02T15:31:44.566Z</time></trkpt><trkpt lat="42.1394117" lon="13.28589"><ele>837.0</ele><time>2026-05-02T15:31:45.567Z</time></trkpt><trkpt lat="42.1395083" lon="13.2859"><ele>837.0</ele><time>2026-05-02T15:31:46.566Z</time></trkpt><trkpt lat="42.1396117" lon="13.2858933"><ele>837.0</ele><time>2026-05-02T15:31:47.567Z</time></trkpt><trkpt lat="42.139715" lon="13.2858933"><ele>837.0</ele><time>2026-05-02T15:31:48.567Z</time></trkpt><trkpt lat="42.139815" lon="13.2858917"><ele>837.0</ele><time>2026-05-02T15:31:49.567Z</time></trkpt><trkpt lat="42.1399167" lon="13.2858867"><ele>837.0</ele><time>2026-05-02T15:31:50.566Z</time></trkpt><trkpt lat="42.1400117" lon="13.2858917"><ele>835.0</ele><time>2026-05-02T15:31:51.566Z</time></trkpt><trkpt lat="42.1401133" lon="13.285895"><ele>833.0</ele><time>2026-05-02T15:31:52.566Z</time></trkpt><trkpt lat="42.1402167" lon="13.2859117"><ele>831.0</ele><time>2026-05-02T15:31:53.566Z</time></trkpt><trkpt lat="42.1403167" lon="13.285925"><ele>829.0</ele><time>2026-05-02T15:31:54.566Z</time></trkpt><trkpt lat="42.1404117" lon="13.2859433"><ele>827.0</ele><time>2026-05-02T15:31:55.566Z</time></trkpt><trkpt lat="42.1405017" lon="13.2859583"><ele>827.0000000000001</ele><time>2026-05-02T15:31:56.566Z</time></trkpt><trkpt lat="42.1405833" lon="13.2859717"><ele>827.0</ele><time>2026-05-02T15:31:57.567Z</time></trkpt><trkpt lat="42.140665" lon="13.2859867"><ele>827.0</ele><time>2026-05-02T15:31:58.566Z</time></trkpt><trkpt lat="42.1407467" lon="13.2859883"><ele>827.0</ele><time>2026-05-02T15:31:59.567Z</time></trkpt><trkpt lat="42.1408233" lon="13.28597"><ele>827.0000000000001</ele><time>2026-05-02T15:32:00.567Z</time></trkpt><trkpt lat="42.1408883" lon="13.28596"><ele>827.0</ele><time>2026-05-02T15:32:01.566Z</time></trkpt><trkpt lat="42.1409767" lon="13.2859783"><ele>825.4000000000001</ele><time>2026-05-02T15:32:03.567Z</time></trkpt><trkpt lat="42.1410467" lon="13.28605"><ele>823.8000000000001</ele><time>2026-05-02T15:32:05.567Z</time></trkpt><trkpt lat="42.1411567" lon="13.2861017"><ele>822.2</ele><time>2026-05-02T15:32:07.566Z</time></trkpt><trkpt lat="42.1412217" lon="13.2861033"><ele>820.6</ele><time>2026-05-02T15:32:08.566Z</time></trkpt><trkpt lat="42.141355" lon="13.286055"><ele>819.0</ele><time>2026-05-02T15:32:10.567Z</time></trkpt><trkpt lat="42.14142" lon="13.2860267"><ele>819.0</ele><time>2026-05-02T15:32:11.566Z</time></trkpt><trkpt lat="42.141495" lon="13.2859933"><ele>819.0</ele><time>2026-05-02T15:32:12.566Z</time></trkpt><trkpt lat="42.1415733" lon="13.2859667"><ele>819.0</ele><time>2026-05-02T15:32:13.566Z</time></trkpt><trkpt lat="42.1416633" lon="13.2859533"><ele>819.0</ele><time>2026-05-02T15:32:14.567Z</time></trkpt><trkpt lat="42.141755" lon="13.285965"><ele>819.0</ele><time>2026-05-02T15:32:15.566Z</time></trkpt><trkpt lat="42.1418417" lon="13.2859783"><ele>819.0</ele><time>2026-05-02T15:32:16.567Z</time></trkpt><trkpt lat="42.1419283" lon="13.2859817"><ele>815.6666666666666</ele><time>2026-05-02T15:32:17.567Z</time></trkpt><trkpt lat="42.1420183" lon="13.2859883"><ele>812.3333333333333</ele><time>2026-05-02T15:32:18.566Z</time></trkpt><trkpt lat="42.142095" lon="13.28599"><ele>809.0</ele><time>2026-05-02T15:32:19.566Z</time></trkpt><trkpt lat="42.142165" lon="13.2859883"><ele>805.6666666666666</ele><time>2026-05-02T15:32:20.567Z</time></trkpt><trkpt lat="42.1422333" lon="13.2859817"><ele>802.3333333333333</ele><time>2026-05-02T15:32:21.567Z</time></trkpt><trkpt lat="42.1422967" lon="13.2859567"><ele>799.0</ele><time>2026-05-02T15:32:22.566Z</time></trkpt><trkpt lat="42.142395" lon="13.285905"><ele>795.0</ele><time>2026-05-02T15:32:24.567Z</time></trkpt><trkpt lat="42.142475" lon="13.2859517"><ele>791.0</ele><time>2026-05-02T15:32:26.567Z</time></trkpt><trkpt lat="42.1425317" lon="13.2860617"><ele>787.0</ele><time>2026-05-02T15:32:28.567Z</time></trkpt><trkpt lat="42.1426067" lon="13.2861867"><ele>783.0</ele><time>2026-05-02T15:32:30.567Z</time></trkpt><trkpt lat="42.142715" lon="13.2862867"><ele>779.0</ele><time>2026-05-02T15:32:32.566Z</time></trkpt><trkpt lat="42.142775" lon="13.2863217"><ele>779.0000000000001</ele><time>2026-05-02T15:32:33.566Z</time></trkpt><trkpt lat="42.1428383" lon="13.286355"><ele>779.0</ele><time>2026-05-02T15:32:34.566Z</time></trkpt><trkpt lat="42.1428967" lon="13.2863867"><ele>779.0</ele><time>2026-05-02T15:32:35.566Z</time></trkpt><trkpt lat="42.1429533" lon="13.2864433"><ele>779.0</ele><time>2026-05-02T15:32:36.567Z</time></trkpt><trkpt lat="42.143005" lon="13.2865117"><ele>779.0</ele><time>2026-05-02T15:32:37.566Z</time></trkpt><trkpt lat="42.1430483" lon="13.28659"><ele>779.0000000000001</ele><time>2026-05-02T15:32:38.566Z</time></trkpt><trkpt lat="42.1430967" lon="13.28668"><ele>779.0</ele><time>2026-05-02T15:32:39.566Z</time></trkpt><trkpt lat="42.14315" lon="13.2867867"><ele>779.5000000000001</ele><time>2026-05-02T15:32:40.566Z</time></trkpt><trkpt lat="42.1432017" lon="13.2868933"><ele>780.0</ele><time>2026-05-02T15:32:41.567Z</time></trkpt><trkpt lat="42.1432383" lon="13.2869967"><ele>780.5</ele><time>2026-05-02T15:32:42.567Z</time></trkpt><trkpt lat="42.1432617" lon="13.2870917"><ele>781.0</ele><time>2026-05-02T15:32:43.566Z</time></trkpt><trkpt lat="42.1432717" lon="13.2871917"><ele>781.5000000000001</ele><time>2026-05-02T15:32:44.566Z</time></trkpt><trkpt lat="42.14327" lon="13.28731"><ele>782.0</ele><time>2026-05-02T15:32:45.567Z</time></trkpt><trkpt lat="42.1432617" lon="13.2874317"><ele>782.0000000000001</ele><time>2026-05-02T15:32:46.566Z</time></trkpt><trkpt lat="42.1432633" lon="13.2875383"><ele>782.0</ele><time>2026-05-02T15:32:47.566Z</time></trkpt><trkpt lat="42.143275" lon="13.2876233"><ele>782.0</ele><time>2026-05-02T15:32:48.566Z</time></trkpt><trkpt lat="42.1433433" lon="13.2877333"><ele>782.0</ele><time>2026-05-02T15:32:50.566Z</time></trkpt><trkpt lat="42.1434483" lon="13.2877817"><ele>782.0000000000001</ele><time>2026-05-02T15:32:52.567Z</time></trkpt><trkpt lat="42.143515" lon="13.287805"><ele>782.0</ele><time>2026-05-02T15:32:53.567Z</time></trkpt><trkpt lat="42.1435767" lon="13.2878283"><ele>782.0000000000001</ele><time>2026-05-02T15:32:54.567Z</time></trkpt><trkpt lat="42.143705" lon="13.2878167"><ele>782.0</ele><time>2026-05-02T15:32:56.566Z</time></trkpt><trkpt lat="42.143765" lon="13.2877717"><ele>782.0</ele><time>2026-05-02T15:32:57.567Z</time></trkpt><trkpt lat="42.1438233" lon="13.287685"><ele>782.0</ele><time>2026-05-02T15:32:58.566Z</time></trkpt><trkpt lat="42.1438733" lon="13.2876"><ele>782.0000000000001</ele><time>2026-05-02T15:32:59.567Z</time></trkpt><trkpt lat="42.143925" lon="13.2875167"><ele>782.0</ele><time>2026-05-02T15:33:00.567Z</time></trkpt><trkpt lat="42.14399" lon="13.2874567"><ele>783.0000000000001</ele><time>2026-05-02T15:33:01.567Z</time></trkpt><trkpt lat="42.144055" lon="13.2874067"><ele>784.0</ele><time>2026-05-02T15:33:02.567Z</time></trkpt><trkpt lat="42.1441133" lon="13.2873733"><ele>785.0</ele><time>2026-05-02T15:33:03.567Z</time></trkpt><trkpt lat="42.1441817" lon="13.2873517"><ele>786.0</ele><time>2026-05-02T15:33:04.566Z</time></trkpt><trkpt lat="42.14427" lon="13.2873483"><ele>787.0000000000001</ele><time>2026-05-02T15:33:05.566Z</time></trkpt><trkpt lat="42.1443683" lon="13.2873483"><ele>788.0</ele><time>2026-05-02T15:33:06.567Z</time></trkpt><trkpt lat="42.1444683" lon="13.2873483"><ele>788.0</ele><time>2026-05-02T15:33:07.566Z</time></trkpt><trkpt lat="42.14458" lon="13.287345"><ele>788.0</ele><time>2026-05-02T15:33:08.567Z</time></trkpt><trkpt lat="42.1446783" lon="13.2873383"><ele>788.0</ele><time>2026-05-02T15:33:09.567Z</time></trkpt><trkpt lat="42.14477" lon="13.2873467"><ele>788.0</ele><time>2026-05-02T15:33:10.567Z</time></trkpt><trkpt lat="42.1448483" lon="13.2873683"><ele>788.0</ele><time>2026-05-02T15:33:11.566Z</time></trkpt><trkpt lat="42.1449167" lon="13.2874133"><ele>789.3333333333334</ele><time>2026-05-02T15:33:12.567Z</time></trkpt><trkpt lat="42.1449733" lon="13.2874783"><ele>790.6666666666667</ele><time>2026-05-02T15:33:13.567Z</time></trkpt><trkpt lat="42.1450267" lon="13.2875567"><ele>792.0</ele><time>2026-05-02T15:33:14.566Z</time></trkpt><trkpt lat="42.1450617" lon="13.287635"><ele>793.3333333333333</ele><time>2026-05-02T15:33:15.567Z</time></trkpt><trkpt lat="42.1450633" lon="13.2877917"><ele>794.6666666666666</ele><time>2026-05-02T15:33:17.567Z</time></trkpt><trkpt lat="42.1450533" lon="13.2879017"><ele>796.0</ele><time>2026-05-02T15:33:18.566Z</time></trkpt><trkpt lat="42.1450333" lon="13.2880433"><ele>796.1999999999999</ele><time>2026-05-02T15:33:19.566Z</time></trkpt><trkpt lat="42.1450117" lon="13.28819"><ele>796.4</ele><time>2026-05-02T15:33:20.567Z</time></trkpt><trkpt lat="42.1450017" lon="13.2883333"><ele>796.6</ele><time>2026-05-02T15:33:21.567Z</time></trkpt><trkpt lat="42.14499" lon="13.2884683"><ele>796.8</ele><time>2026-05-02T15:33:22.567Z</time></trkpt><trkpt lat="42.1449833" lon="13.2885883"><ele>797.0</ele><time>2026-05-02T15:33:23.566Z</time></trkpt><trkpt lat="42.1449783" lon="13.2887017"><ele>797.0000000000001</ele><time>2026-05-02T15:33:24.567Z</time></trkpt><trkpt lat="42.1449767" lon="13.288795"><ele>797.0</ele><time>2026-05-02T15:33:25.566Z</time></trkpt><trkpt lat="42.144975" lon="13.2889633"><ele>797.0</ele><time>2026-05-02T15:33:27.567Z</time></trkpt><trkpt lat="42.144985" lon="13.289125"><ele>797.0</ele><time>2026-05-02T15:33:29.566Z</time></trkpt><trkpt lat="42.14499" lon="13.289215"><ele>797.0000000000001</ele><time>2026-05-02T15:33:30.567Z</time></trkpt><trkpt lat="42.1449967" lon="13.289305"><ele>797.0</ele><time>2026-05-02T15:33:31.567Z</time></trkpt><trkpt lat="42.145" lon="13.2893917"><ele>797.2</ele><time>2026-05-02T15:33:32.566Z</time></trkpt><trkpt lat="42.145005" lon="13.28948"><ele>797.4000000000001</ele><time>2026-05-02T15:33:33.567Z</time></trkpt><trkpt lat="42.14501" lon="13.2895683"><ele>797.5999999999999</ele><time>2026-05-02T15:33:34.566Z</time></trkpt><trkpt lat="42.145045" lon="13.28972"><ele>797.8</ele><time>2026-05-02T15:33:36.567Z</time></trkpt><trkpt lat="42.1450933" lon="13.289865"><ele>798.0</ele><time>2026-05-02T15:33:38.567Z</time></trkpt><trkpt lat="42.145155" lon="13.29001"><ele>798.0</ele><time>2026-05-02T15:33:40.566Z</time></trkpt><trkpt lat="42.1451933" lon="13.290085"><ele>798.0</ele><time>2026-05-02T15:33:41.567Z</time></trkpt><trkpt lat="42.1452333" lon="13.29022"><ele>798.0</ele><time>2026-05-02T15:33:43.567Z</time></trkpt><trkpt lat="42.1453017" lon="13.2903533"><ele>798.0</ele><time>2026-05-02T15:34:04.566Z</time></trkpt><trkpt lat="42.1454083" lon="13.29048"><ele>798.0</ele><time>2026-05-02T15:34:06.567Z</time></trkpt><trkpt lat="42.1454817" lon="13.29056"><ele>799.0</ele><time>2026-05-02T15:34:07.567Z</time></trkpt><trkpt lat="42.145565" lon="13.290645"><ele>800.0</ele><time>2026-05-02T15:34:08.567Z</time></trkpt><trkpt lat="42.1456617" lon="13.2907317"><ele>801.0</ele><time>2026-05-02T15:34:09.567Z</time></trkpt><trkpt lat="42.145765" lon="13.29082"><ele>802.0</ele><time>2026-05-02T15:34:10.566Z</time></trkpt><trkpt lat="42.1458517" lon="13.2908983"><ele>803.0</ele><time>2026-05-02T15:34:11.566Z</time></trkpt><trkpt lat="42.1459333" lon="13.29097"><ele>800.0</ele><time>2026-05-02T15:34:12.566Z</time></trkpt><trkpt lat="42.146" lon="13.29104"><ele>797.0</ele><time>2026-05-02T15:34:13.566Z</time></trkpt><trkpt lat="42.1460567" lon="13.29111"><ele>794.0</ele><time>2026-05-02T15:34:14.566Z</time></trkpt><trkpt lat="42.14612" lon="13.291205"><ele>791.0</ele><time>2026-05-02T15:34:16.566Z</time></trkpt><trkpt lat="42.1462067" lon="13.291315"><ele>788.0</ele><time>2026-05-02T15:34:18.566Z</time></trkpt><trkpt lat="42.1462733" lon="13.291395"><ele>789.2</ele><time>2026-05-02T15:34:19.567Z</time></trkpt><trkpt lat="42.146355" lon="13.29149"><ele>790.4</ele><time>2026-05-02T15:34:20.567Z</time></trkpt><trkpt lat="42.146435" lon="13.2915967"><ele>791.6</ele><time>2026-05-02T15:34:21.566Z</time></trkpt><trkpt lat="42.1465133" lon="13.2917"><ele>792.8000000000001</ele><time>2026-05-02T15:34:22.567Z</time></trkpt><trkpt lat="42.14658" lon="13.2917833"><ele>794.0</ele><time>2026-05-02T15:34:23.566Z</time></trkpt><trkpt lat="42.14664" lon="13.2918467"><ele>791.2</ele><time>2026-05-02T15:34:24.566Z</time></trkpt><trkpt lat="42.146755" lon="13.2918783"><ele>788.4000000000001</ele><time>2026-05-02T15:34:26.567Z</time></trkpt><trkpt lat="42.1468633" lon="13.291785"><ele>785.6</ele><time>2026-05-02T15:34:28.566Z</time></trkpt><trkpt lat="42.1469283" lon="13.2916983"><ele>782.8</ele><time>2026-05-02T15:34:29.567Z</time></trkpt><trkpt lat="42.1469967" lon="13.2916217"><ele>780.0</ele><time>2026-05-02T15:34:30.567Z</time></trkpt><trkpt lat="42.1470633" lon="13.2915583"><ele>780.0</ele><time>2026-05-02T15:34:31.566Z</time></trkpt><trkpt lat="42.1471333" lon="13.29151"><ele>780.0</ele><time>2026-05-02T15:34:32.566Z</time></trkpt><trkpt lat="42.1472017" lon="13.2914867"><ele>780.0</ele><time>2026-05-02T15:34:33.565Z</time></trkpt><trkpt lat="42.1472667" lon="13.2914817"><ele>780.0</ele><time>2026-05-02T15:34:34.566Z</time></trkpt><trkpt lat="42.1473317" lon="13.2914983"><ele>780.0</ele><time>2026-05-02T15:34:35.566Z</time></trkpt><trkpt lat="42.1474367" lon="13.2915583"><ele>780.0</ele><time>2026-05-02T15:34:37.566Z</time></trkpt><trkpt lat="42.1475117" lon="13.2916083"><ele>776.6</ele><time>2026-05-02T15:34:39.565Z</time></trkpt><trkpt lat="42.14758" lon="13.2916217"><ele>773.2</ele><time>2026-05-02T15:34:42.566Z</time></trkpt><trkpt lat="42.1475683" lon="13.29153"><ele>769.8</ele><time>2026-05-02T15:34:44.566Z</time></trkpt><trkpt lat="42.147515" lon="13.2914"><ele>766.4</ele><time>2026-05-02T15:34:46.566Z</time></trkpt><trkpt lat="42.14745" lon="13.2912767"><ele>763.0</ele><time>2026-05-02T15:34:48.565Z</time></trkpt><trkpt lat="42.1474117" lon="13.2911567"><ele>761.3333333333334</ele><time>2026-05-02T15:34:50.566Z</time></trkpt><trkpt lat="42.1474117" lon="13.2910333"><ele>759.6666666666667</ele><time>2026-05-02T15:34:52.566Z</time></trkpt><trkpt lat="42.1474433" lon="13.2909583"><ele>758.0</ele><time>2026-05-02T15:34:53.566Z</time></trkpt><trkpt lat="42.147495" lon="13.2908767"><ele>756.3333333333334</ele><time>2026-05-02T15:34:54.566Z</time></trkpt><trkpt lat="42.14755" lon="13.2907867"><ele>754.6666666666666</ele><time>2026-05-02T15:34:55.565Z</time></trkpt><trkpt lat="42.147605" lon="13.2906817"><ele>753.0</ele><time>2026-05-02T15:34:56.566Z</time></trkpt><trkpt lat="42.147655" lon="13.2905883"><ele>753.0</ele><time>2026-05-02T15:34:57.566Z</time></trkpt><trkpt lat="42.1477067" lon="13.2905"><ele>753.0</ele><time>2026-05-02T15:34:58.566Z</time></trkpt><trkpt lat="42.1477667" lon="13.29042"><ele>753.0</ele><time>2026-05-02T15:34:59.566Z</time></trkpt><trkpt lat="42.1478333" lon="13.2903533"><ele>753.0</ele><time>2026-05-02T15:35:00.566Z</time></trkpt><trkpt lat="42.14792" lon="13.2902967"><ele>753.0</ele><time>2026-05-02T15:35:01.566Z</time></trkpt><trkpt lat="42.14803" lon="13.2902317"><ele>753.0</ele><time>2026-05-02T15:35:02.566Z</time></trkpt><trkpt lat="42.14815" lon="13.2901567"><ele>753.0</ele><time>2026-05-02T15:35:03.566Z</time></trkpt><trkpt lat="42.14828" lon="13.2900717"><ele>753.0</ele><time>2026-05-02T15:35:04.566Z</time></trkpt><trkpt lat="42.1483983" lon="13.2899867"><ele>753.0</ele><time>2026-05-02T15:35:05.566Z</time></trkpt><trkpt lat="42.1485233" lon="13.289895"><ele>749.5</ele><time>2026-05-02T15:35:06.565Z</time></trkpt><trkpt lat="42.1486317" lon="13.2898"><ele>746.0</ele><time>2026-05-02T15:35:07.566Z</time></trkpt><trkpt lat="42.14874" lon="13.2897183"><ele>742.5</ele><time>2026-05-02T15:35:08.565Z</time></trkpt><trkpt lat="42.1488533" lon="13.2896333"><ele>739.0</ele><time>2026-05-02T15:35:09.566Z</time></trkpt><trkpt lat="42.1489517" lon="13.28954"><ele>739.25</ele><time>2026-05-02T15:35:10.565Z</time></trkpt><trkpt lat="42.149045" lon="13.28944"><ele>739.5</ele><time>2026-05-02T15:35:11.566Z</time></trkpt><trkpt lat="42.1491317" lon="13.2893167"><ele>739.75</ele><time>2026-05-02T15:35:12.566Z</time></trkpt><trkpt lat="42.14921" lon="13.2891817"><ele>740.0</ele><time>2026-05-02T15:35:13.566Z</time></trkpt><trkpt lat="42.1492733" lon="13.2890467"><ele>740.0</ele><time>2026-05-02T15:35:14.566Z</time></trkpt><trkpt lat="42.1493483" lon="13.2889533"><ele>740.0</ele><time>2026-05-02T15:35:15.566Z</time></trkpt><trkpt lat="42.1494283" lon="13.288865"><ele>740.0</ele><time>2026-05-02T15:35:16.565Z</time></trkpt><trkpt lat="42.14951" lon="13.2887817"><ele>740.0</ele><time>2026-05-02T15:35:17.566Z</time></trkpt><trkpt lat="42.1496" lon="13.2887033"><ele>740.0</ele><time>2026-05-02T15:35:18.565Z</time></trkpt><trkpt lat="42.1496983" lon="13.2886033"><ele>740.75</ele><time>2026-05-02T15:35:19.566Z</time></trkpt><trkpt lat="42.149795" lon="13.2884883"><ele>741.5</ele><time>2026-05-02T15:35:20.566Z</time></trkpt><trkpt lat="42.149885" lon="13.2883617"><ele>742.25</ele><time>2026-05-02T15:35:21.566Z</time></trkpt><trkpt lat="42.1499733" lon="13.2882167"><ele>743.0</ele><time>2026-05-02T15:35:22.565Z</time></trkpt><trkpt lat="42.15006" lon="13.2880683"><ele>740.5</ele><time>2026-05-02T15:35:23.565Z</time></trkpt><trkpt lat="42.150135" lon="13.28792"><ele>738.0</ele><time>2026-05-02T15:35:24.566Z</time></trkpt><trkpt lat="42.150205" lon="13.28778"><ele>735.5</ele><time>2026-05-02T15:35:25.566Z</time></trkpt><trkpt lat="42.1502683" lon="13.287645"><ele>733.0</ele><time>2026-05-02T15:35:26.565Z</time></trkpt><trkpt lat="42.150335" lon="13.2875067"><ele>733.0</ele><time>2026-05-02T15:35:27.566Z</time></trkpt><trkpt lat="42.1503883" lon="13.2873783"><ele>733.0</ele><time>2026-05-02T15:35:28.565Z</time></trkpt><trkpt lat="42.150445" lon="13.2872567"><ele>733.0</ele><time>2026-05-02T15:35:29.566Z</time></trkpt><trkpt lat="42.1505067" lon="13.2871483"><ele>733.0</ele><time>2026-05-02T15:35:30.565Z</time></trkpt><trkpt lat="42.150565" lon="13.28706"><ele>733.0</ele><time>2026-05-02T15:35:31.565Z</time></trkpt><trkpt lat="42.150625" lon="13.2869933"><ele>732.8</ele><time>2026-05-02T15:35:32.566Z</time></trkpt><trkpt lat="42.1507067" lon="13.2869267"><ele>732.5999999999999</ele><time>2026-05-02T15:35:34.566Z</time></trkpt><trkpt lat="42.1507767" lon="13.28688"><ele>732.4000000000001</ele><time>2026-05-02T15:35:47.566Z</time></trkpt><trkpt lat="42.1508567" lon="13.2868383"><ele>732.2</ele><time>2026-05-02T15:35:49.565Z</time></trkpt><trkpt lat="42.1509633" lon="13.286725"><ele>732.0</ele><time>2026-05-02T15:35:51.566Z</time></trkpt><trkpt lat="42.1510133" lon="13.2866567"><ele>731.7142857142858</ele><time>2026-05-02T15:35:52.565Z</time></trkpt><trkpt lat="42.15106" lon="13.2865933"><ele>731.4285714285714</ele><time>2026-05-02T15:35:53.565Z</time></trkpt><trkpt lat="42.15111" lon="13.2865367"><ele>731.1428571428571</ele><time>2026-05-02T15:35:54.566Z</time></trkpt><trkpt lat="42.1511567" lon="13.2864733"><ele>730.8571428571429</ele><time>2026-05-02T15:35:55.566Z</time></trkpt><trkpt lat="42.1512033" lon="13.2864017"><ele>730.5714285714286</ele><time>2026-05-02T15:35:56.565Z</time></trkpt><trkpt lat="42.1512517" lon="13.2863233"><ele>730.2857142857143</ele><time>2026-05-02T15:35:57.565Z</time></trkpt><trkpt lat="42.1512967" lon="13.28624"><ele>730.0</ele><time>2026-05-02T15:35:58.566Z</time></trkpt><trkpt lat="42.1513433" lon="13.2861583"><ele>729.6</ele><time>2026-05-02T15:35:59.565Z</time></trkpt><trkpt lat="42.1513917" lon="13.2860783"><ele>729.2</ele><time>2026-05-02T15:36:00.565Z</time></trkpt><trkpt lat="42.151445" lon="13.2859983"><ele>728.8</ele><time>2026-05-02T15:36:01.565Z</time></trkpt><trkpt lat="42.15151" lon="13.28591"><ele>728.4</ele><time>2026-05-02T15:36:02.566Z</time></trkpt><trkpt lat="42.15158" lon="13.2858217"><ele>728.0</ele><time>2026-05-02T15:36:03.566Z</time></trkpt><trkpt lat="42.15167" lon="13.2857433"><ele>727.5</ele><time>2026-05-02T15:36:04.566Z</time></trkpt><trkpt lat="42.1517683" lon="13.285665"><ele>727.0</ele><time>2026-05-02T15:36:05.565Z</time></trkpt><trkpt lat="42.1518717" lon="13.2855633"><ele>726.5</ele><time>2026-05-02T15:36:06.565Z</time></trkpt><trkpt lat="42.1519817" lon="13.2854417"><ele>726.0</ele><time>2026-05-02T15:36:07.566Z</time></trkpt><trkpt lat="42.152095" lon="13.2853"><ele>726.0</ele><time>2026-05-02T15:36:08.565Z</time></trkpt><trkpt lat="42.152215" lon="13.2851583"><ele>726.0</ele><time>2026-05-02T15:36:09.566Z</time></trkpt><trkpt lat="42.1523355" lon="13.2850338"><ele>726.0</ele><time>2026-05-02T15:36:10.566Z</time></trkpt><trkpt lat="42.1524449" lon="13.2849218"><ele>726.0</ele><time>2026-05-02T15:36:11.565Z</time></trkpt><trkpt lat="42.1525422" lon="13.2848303"><ele>725.5</ele><time>2026-05-02T15:36:12.566Z</time></trkpt><trkpt lat="42.1526355" lon="13.2847312"><ele>725.0</ele><time>2026-05-02T15:36:13.565Z</time></trkpt><trkpt lat="42.152724" lon="13.2846217"><ele>724.5</ele><time>2026-05-02T15:36:14.566Z</time></trkpt><trkpt lat="42.1528212" lon="13.2845085"><ele>724.0</ele><time>2026-05-02T15:36:15.565Z</time></trkpt><trkpt lat="42.1529303" lon="13.2843781"><ele>724.0</ele><time>2026-05-02T15:36:16.566Z</time></trkpt><trkpt lat="42.1530372" lon="13.2842315"><ele>724.0</ele><time>2026-05-02T15:36:17.565Z</time></trkpt><trkpt lat="42.153145" lon="13.2840744"><ele>724.0</ele><time>2026-05-02T15:36:18.566Z</time></trkpt><trkpt lat="42.1532486" lon="13.2839046"><ele>725.0</ele><time>2026-05-02T15:36:19.565Z</time></trkpt><trkpt lat="42.153353" lon="13.2837292"><ele>726.0</ele><time>2026-05-02T15:36:20.565Z</time></trkpt><trkpt lat="42.1534527" lon="13.2835551"><ele>727.0</ele><time>2026-05-02T15:36:21.566Z</time></trkpt><trkpt lat="42.1535452" lon="13.2833839"><ele>727.0</ele><time>2026-05-02T15:36:22.565Z</time></trkpt><trkpt lat="42.1536369" lon="13.283216"><ele>727.0</ele><time>2026-05-02T15:36:23.565Z</time></trkpt><trkpt lat="42.1537386" lon="13.2830637"><ele>727.0</ele><time>2026-05-02T15:36:24.566Z</time></trkpt><trkpt lat="42.1538471" lon="13.2829132"><ele>727.0</ele><time>2026-05-02T15:36:25.566Z</time></trkpt><trkpt lat="42.1539618" lon="13.2827614"><ele>727.0</ele><time>2026-05-02T15:36:26.566Z</time></trkpt><trkpt lat="42.1540793" lon="13.2826047"><ele>727.0</ele><time>2026-05-02T15:36:27.565Z</time></trkpt><trkpt lat="42.1541942" lon="13.2824468"><ele>727.3333333333334</ele><time>2026-05-02T15:36:28.565Z</time></trkpt><trkpt lat="42.1543066" lon="13.282296"><ele>727.6666666666666</ele><time>2026-05-02T15:36:29.566Z</time></trkpt><trkpt lat="42.1544184" lon="13.2821547"><ele>728.0</ele><time>2026-05-02T15:36:30.566Z</time></trkpt><trkpt lat="42.1545348" lon="13.2820253"><ele>728.3333333333333</ele><time>2026-05-02T15:36:31.565Z</time></trkpt><trkpt lat="42.1546665" lon="13.281908"><ele>728.6666666666666</ele><time>2026-05-02T15:36:32.565Z</time></trkpt><trkpt lat="42.154811" lon="13.281807"><ele>729.0</ele><time>2026-05-02T15:36:33.565Z</time></trkpt><trkpt lat="42.1549598" lon="13.2817197"><ele>729.3333333333334</ele><time>2026-05-02T15:36:34.565Z</time></trkpt><trkpt lat="42.155104" lon="13.2816318"><ele>729.6666666666667</ele><time>2026-05-02T15:36:35.565Z</time></trkpt><trkpt lat="42.155243" lon="13.281534"><ele>730.0</ele><time>2026-05-02T15:36:36.566Z</time></trkpt><trkpt lat="42.1553783" lon="13.2814171"><ele>730.0</ele><time>2026-05-02T15:36:37.566Z</time></trkpt><trkpt lat="42.155515" lon="13.2812885"><ele>730.0</ele><time>2026-05-02T15:36:38.566Z</time></trkpt><trkpt lat="42.1556471" lon="13.2811655"><ele>730.0</ele><time>2026-05-02T15:36:39.566Z</time></trkpt><trkpt lat="42.1557785" lon="13.2810448"><ele>731.3333333333334</ele><time>2026-05-02T15:36:40.566Z</time></trkpt><trkpt lat="42.1559133" lon="13.280922"><ele>732.6666666666666</ele><time>2026-05-02T15:36:41.565Z</time></trkpt><trkpt lat="42.1560552" lon="13.2808139"><ele>734.0</ele><time>2026-05-02T15:36:42.565Z</time></trkpt><trkpt lat="42.1562001" lon="13.2806972"><ele>734.3333333333333</ele><time>2026-05-02T15:36:43.566Z</time></trkpt><trkpt lat="42.1563441" lon="13.2805745"><ele>734.6666666666666</ele><time>2026-05-02T15:36:44.566Z</time></trkpt><trkpt lat="42.1564799" lon="13.2804529"><ele>735.0</ele><time>2026-05-02T15:36:45.565Z</time></trkpt><trkpt lat="42.156606" lon="13.2803389"><ele>735.75</ele><time>2026-05-02T15:36:46.566Z</time></trkpt><trkpt lat="42.15672" lon="13.2802296"><ele>736.5</ele><time>2026-05-02T15:36:47.566Z</time></trkpt><trkpt lat="42.1568283" lon="13.2801297"><ele>737.25</ele><time>2026-05-02T15:36:48.566Z</time></trkpt><trkpt lat="42.1569399" lon="13.2800401"><ele>738.0</ele><time>2026-05-02T15:36:49.565Z</time></trkpt><trkpt lat="42.1570628" lon="13.2799574"><ele>738.0</ele><time>2026-05-02T15:36:50.566Z</time></trkpt><trkpt lat="42.1571971" lon="13.2798738"><ele>738.0</ele><time>2026-05-02T15:36:51.566Z</time></trkpt><trkpt lat="42.1573416" lon="13.2798059"><ele>738.0</ele><time>2026-05-02T15:36:52.566Z</time></trkpt><trkpt lat="42.1574943" lon="13.2797471"><ele>738.3333333333334</ele><time>2026-05-02T15:36:53.566Z</time></trkpt><trkpt lat="42.1576559" lon="13.2796911"><ele>738.6666666666667</ele><time>2026-05-02T15:36:54.566Z</time></trkpt><trkpt lat="42.1578192" lon="13.2796381"><ele>739.0</ele><time>2026-05-02T15:36:55.565Z</time></trkpt><trkpt lat="42.1579834" lon="13.2795836"><ele>739.0</ele><time>2026-05-02T15:36:56.566Z</time></trkpt><trkpt lat="42.1581471" lon="13.2795414"><ele>739.0</ele><time>2026-05-02T15:36:57.566Z</time></trkpt><trkpt lat="42.1583083" lon="13.2795117"><ele>739.0</ele><time>2026-05-02T15:36:58.565Z</time></trkpt><trkpt lat="42.15847" lon="13.2794833"><ele>740.3333333333334</ele><time>2026-05-02T15:36:59.565Z</time></trkpt><trkpt lat="42.1586333" lon="13.2794617"><ele>741.6666666666666</ele><time>2026-05-02T15:37:00.565Z</time></trkpt><trkpt lat="42.15879" lon="13.2794417"><ele>743.0</ele><time>2026-05-02T15:37:01.565Z</time></trkpt><trkpt lat="42.1589417" lon="13.2794083"><ele>744.6666666666666</ele><time>2026-05-02T15:37:02.566Z</time></trkpt><trkpt lat="42.1591" lon="13.2793717"><ele>746.3333333333334</ele><time>2026-05-02T15:37:03.565Z</time></trkpt><trkpt lat="42.1592617" lon="13.2793267"><ele>748.0</ele><time>2026-05-02T15:37:04.566Z</time></trkpt><trkpt lat="42.1594217" lon="13.279275"><ele>748.0</ele><time>2026-05-02T15:37:05.565Z</time></trkpt><trkpt lat="42.1595767" lon="13.2792283"><ele>748.0</ele><time>2026-05-02T15:37:06.566Z</time></trkpt><trkpt lat="42.1597417" lon="13.2791967"><ele>748.0</ele><time>2026-05-02T15:37:07.565Z</time></trkpt><trkpt lat="42.1599033" lon="13.2791567"><ele>749.0</ele><time>2026-05-02T15:37:08.565Z</time></trkpt><trkpt lat="42.1600683" lon="13.2791117"><ele>750.0</ele><time>2026-05-02T15:37:09.566Z</time></trkpt><trkpt lat="42.16022" lon="13.2790717"><ele>751.0</ele><time>2026-05-02T15:37:10.566Z</time></trkpt><trkpt lat="42.16038" lon="13.2790217"><ele>751.0</ele><time>2026-05-02T15:37:11.565Z</time></trkpt><trkpt lat="42.1605283" lon="13.2789767"><ele>751.0</ele><time>2026-05-02T15:37:12.566Z</time></trkpt><trkpt lat="42.1606833" lon="13.27892"><ele>751.0</ele><time>2026-05-02T15:37:13.566Z</time></trkpt><trkpt lat="42.1608317" lon="13.2788683"><ele>752.0</ele><time>2026-05-02T15:37:14.565Z</time></trkpt><trkpt lat="42.1609817" lon="13.2788167"><ele>753.0</ele><time>2026-05-02T15:37:15.566Z</time></trkpt><trkpt lat="42.16113" lon="13.2787717"><ele>754.0</ele><time>2026-05-02T15:37:16.566Z</time></trkpt><trkpt lat="42.1612817" lon="13.2787283"><ele>754.0</ele><time>2026-05-02T15:37:17.566Z</time></trkpt><trkpt lat="42.161435" lon="13.27868"><ele>754.0</ele><time>2026-05-02T15:37:18.565Z</time></trkpt><trkpt lat="42.1615817" lon="13.2786383"><ele>754.0</ele><time>2026-05-02T15:37:19.566Z</time></trkpt><trkpt lat="42.1617267" lon="13.2785983"><ele>754.75</ele><time>2026-05-02T15:37:20.566Z</time></trkpt><trkpt lat="42.161875" lon="13.2785433"><ele>755.5</ele><time>2026-05-02T15:37:21.566Z</time></trkpt><trkpt lat="42.1620167" lon="13.2784933"><ele>756.25</ele><time>2026-05-02T15:37:22.566Z</time></trkpt><trkpt lat="42.1621517" lon="13.278445"><ele>757.0</ele><time>2026-05-02T15:37:23.566Z</time></trkpt><trkpt lat="42.1622867" lon="13.2784"><ele>758.0</ele><time>2026-05-02T15:37:24.565Z</time></trkpt><trkpt lat="42.1624283" lon="13.2783567"><ele>759.0</ele><time>2026-05-02T15:37:25.565Z</time></trkpt><trkpt lat="42.1625683" lon="13.27831"><ele>760.0</ele><time>2026-05-02T15:37:26.566Z</time></trkpt><trkpt lat="42.1627033" lon="13.27826"><ele>761.0</ele><time>2026-05-02T15:37:27.566Z</time></trkpt><trkpt lat="42.1628467" lon="13.27822"><ele>761.0</ele><time>2026-05-02T15:37:28.566Z</time></trkpt><trkpt lat="42.1629917" lon="13.2781733"><ele>761.0</ele><time>2026-05-02T15:37:29.565Z</time></trkpt><trkpt lat="42.1631383" lon="13.27813"><ele>761.0</ele><time>2026-05-02T15:37:30.566Z</time></trkpt><trkpt lat="42.163275" lon="13.278085"><ele>761.0</ele><time>2026-05-02T15:37:31.565Z</time></trkpt><trkpt lat="42.16342" lon="13.27803"><ele>762.0</ele><time>2026-05-02T15:37:32.565Z</time></trkpt><trkpt lat="42.163565" lon="13.2779617"><ele>763.0</ele><time>2026-05-02T15:37:33.565Z</time></trkpt><trkpt lat="42.1637067" lon="13.2778817"><ele>764.0</ele><time>2026-05-02T15:37:34.565Z</time></trkpt><trkpt lat="42.16383" lon="13.277795"><ele>765.0</ele><time>2026-05-02T15:37:35.565Z</time></trkpt><trkpt lat="42.16394" lon="13.2776933"><ele>765.0</ele><time>2026-05-02T15:37:36.566Z</time></trkpt><trkpt lat="42.1640433" lon="13.2776017"><ele>765.0</ele><time>2026-05-02T15:37:37.566Z</time></trkpt><trkpt lat="42.16414" lon="13.2775417"><ele>765.0</ele><time>2026-05-02T15:37:38.566Z</time></trkpt><trkpt lat="42.1642383" lon="13.2774917"><ele>765.0</ele><time>2026-05-02T15:37:39.565Z</time></trkpt><trkpt lat="42.16435" lon="13.2774517"><ele>765.0</ele><time>2026-05-02T15:37:40.566Z</time></trkpt><trkpt lat="42.16448" lon="13.277435"><ele>765.0</ele><time>2026-05-02T15:37:41.565Z</time></trkpt><trkpt lat="42.1646133" lon="13.2774383"><ele>765.0</ele><time>2026-05-02T15:37:42.565Z</time></trkpt><trkpt lat="42.164735" lon="13.2774517"><ele>765.0</ele><time>2026-05-02T15:37:43.565Z</time></trkpt><trkpt lat="42.1648683" lon="13.2774567"><ele>764.5</ele><time>2026-05-02T15:37:44.565Z</time></trkpt><trkpt lat="42.164995" lon="13.2774483"><ele>764.0</ele><time>2026-05-02T15:37:45.566Z</time></trkpt><trkpt lat="42.1651217" lon="13.2774417"><ele>763.5</ele><time>2026-05-02T15:37:46.566Z</time></trkpt><trkpt lat="42.1652517" lon="13.2774367"><ele>763.0</ele><time>2026-05-02T15:37:47.566Z</time></trkpt><trkpt lat="42.165375" lon="13.27743"><ele>763.0</ele><time>2026-05-02T15:37:48.566Z</time></trkpt><trkpt lat="42.1654933" lon="13.277425"><ele>763.0</ele><time>2026-05-02T15:37:49.565Z</time></trkpt><trkpt lat="42.165605" lon="13.277445"><ele>763.0</ele><time>2026-05-02T15:37:50.566Z</time></trkpt><trkpt lat="42.1657217" lon="13.2774417"><ele>763.0</ele><time>2026-05-02T15:37:51.566Z</time></trkpt><trkpt lat="42.1658467" lon="13.2774233"><ele>762.5</ele><time>2026-05-02T15:37:52.566Z</time></trkpt><trkpt lat="42.1659783" lon="13.277385"><ele>762.0</ele><time>2026-05-02T15:37:53.565Z</time></trkpt><trkpt lat="42.16612" lon="13.2773367"><ele>761.5</ele><time>2026-05-02T15:37:54.565Z</time></trkpt><trkpt lat="42.1662717" lon="13.27728"><ele>761.0</ele><time>2026-05-02T15:37:55.566Z</time></trkpt><trkpt lat="42.166415" lon="13.2772117"><ele>762.25</ele><time>2026-05-02T15:37:56.565Z</time></trkpt><trkpt lat="42.1665533" lon="13.27715"><ele>763.5</ele><time>2026-05-02T15:37:57.565Z</time></trkpt><trkpt lat="42.16668" lon="13.2770767"><ele>764.75</ele><time>2026-05-02T15:37:58.564Z</time></trkpt><trkpt lat="42.1667883" lon="13.2770083"><ele>766.0</ele><time>2026-05-02T15:37:59.565Z</time></trkpt><trkpt lat="42.1668833" lon="13.2769567"><ele>766.0</ele><time>2026-05-02T15:38:00.565Z</time></trkpt><trkpt lat="42.1669733" lon="13.276925"><ele>766.0</ele><time>2026-05-02T15:38:01.565Z</time></trkpt><trkpt lat="42.1670667" lon="13.27691"><ele>766.0</ele><time>2026-05-02T15:38:02.565Z</time></trkpt><trkpt lat="42.1671633" lon="13.276915"><ele>766.0</ele><time>2026-05-02T15:38:03.564Z</time></trkpt><trkpt lat="42.1672517" lon="13.2769283"><ele>766.0</ele><time>2026-05-02T15:38:04.565Z</time></trkpt><trkpt lat="42.16733" lon="13.2769333"><ele>767.8333333333334</ele><time>2026-05-02T15:38:05.564Z</time></trkpt><trkpt lat="42.167395" lon="13.276925"><ele>769.6666666666667</ele><time>2026-05-02T15:38:06.564Z</time></trkpt><trkpt lat="42.167485" lon="13.2768783"><ele>771.5</ele><time>2026-05-02T15:38:08.565Z</time></trkpt><trkpt lat="42.16752" lon="13.2768067"><ele>773.3333333333334</ele><time>2026-05-02T15:38:10.564Z</time></trkpt><trkpt lat="42.1675583" lon="13.2767167"><ele>775.1666666666666</ele><time>2026-05-02T15:38:12.564Z</time></trkpt><trkpt lat="42.1676167" lon="13.2765517"><ele>777.0</ele><time>2026-05-02T15:38:14.564Z</time></trkpt><trkpt lat="42.1676533" lon="13.2764283"><ele>778.0</ele><time>2026-05-02T15:38:15.565Z</time></trkpt><trkpt lat="42.1676867" lon="13.27633"><ele>779.0</ele><time>2026-05-02T15:38:16.565Z</time></trkpt><trkpt lat="42.1677267" lon="13.2762183"><ele>780.0</ele><time>2026-05-02T15:38:17.565Z</time></trkpt><trkpt lat="42.1677767" lon="13.276165"><ele>781.0</ele><time>2026-05-02T15:38:18.564Z</time></trkpt><trkpt lat="42.16791" lon="13.2762233"><ele>782.0</ele><time>2026-05-02T15:38:20.564Z</time></trkpt><trkpt lat="42.1679917" lon="13.276265"><ele>782.0</ele><time>2026-05-02T15:38:21.564Z</time></trkpt><trkpt lat="42.1680783" lon="13.2762917"><ele>782.0</ele><time>2026-05-02T15:38:22.565Z</time></trkpt><trkpt lat="42.1681767" lon="13.2762983"><ele>782.0</ele><time>2026-05-02T15:38:23.564Z</time></trkpt><trkpt lat="42.1682833" lon="13.276285"><ele>782.0</ele><time>2026-05-02T15:38:24.564Z</time></trkpt><trkpt lat="42.168405" lon="13.27627"><ele>782.0</ele><time>2026-05-02T15:38:25.565Z</time></trkpt><trkpt lat="42.168535" lon="13.2762417"><ele>782.0</ele><time>2026-05-02T15:38:26.565Z</time></trkpt><trkpt lat="42.168675" lon="13.2762183"><ele>782.0</ele><time>2026-05-02T15:38:27.564Z</time></trkpt><trkpt lat="42.1688083" lon="13.2761833"><ele>782.0</ele><time>2026-05-02T15:38:28.565Z</time></trkpt><trkpt lat="42.16895" lon="13.2761317"><ele>782.0</ele><time>2026-05-02T15:38:29.565Z</time></trkpt><trkpt lat="42.169095" lon="13.2760817"><ele>784.3333333333334</ele><time>2026-05-02T15:38:30.564Z</time></trkpt><trkpt lat="42.169245" lon="13.2760383"><ele>786.6666666666667</ele><time>2026-05-02T15:38:31.565Z</time></trkpt><trkpt lat="42.1693833" lon="13.2759867"><ele>789.0</ele><time>2026-05-02T15:38:32.565Z</time></trkpt><trkpt lat="42.1695333" lon="13.275935"><ele>789.0</ele><time>2026-05-02T15:38:33.565Z</time></trkpt><trkpt lat="42.16968" lon="13.27588"><ele>789.0</ele><time>2026-05-02T15:38:34.564Z</time></trkpt><trkpt lat="42.169825" lon="13.2758383"><ele>789.0</ele><time>2026-05-02T15:38:35.565Z</time></trkpt><trkpt lat="42.1699717" lon="13.2757917"><ele>790.25</ele><time>2026-05-02T15:38:36.564Z</time></trkpt><trkpt lat="42.1701083" lon="13.2757517"><ele>791.5</ele><time>2026-05-02T15:38:37.564Z</time></trkpt><trkpt lat="42.1702433" lon="13.2757267"><ele>792.75</ele><time>2026-05-02T15:38:38.564Z</time></trkpt><trkpt lat="42.170365" lon="13.2757017"><ele>794.0</ele><time>2026-05-02T15:38:39.565Z</time></trkpt><trkpt lat="42.1704683" lon="13.2756917"><ele>794.0</ele><time>2026-05-02T15:38:40.565Z</time></trkpt><trkpt lat="42.1705583" lon="13.275685"><ele>794.0</ele><time>2026-05-02T15:38:41.564Z</time></trkpt><trkpt lat="42.170635" lon="13.2756733"><ele>794.0</ele><time>2026-05-02T15:38:42.565Z</time></trkpt><trkpt lat="42.1707383" lon="13.27566"><ele>794.0</ele><time>2026-05-02T15:38:44.564Z</time></trkpt><trkpt lat="42.170825" lon="13.275645"><ele>794.0</ele><time>2026-05-02T15:38:55.564Z</time></trkpt><trkpt lat="42.1709183" lon="13.275615"><ele>794.6</ele><time>2026-05-02T15:38:57.564Z</time></trkpt><trkpt lat="42.1709883" lon="13.275605"><ele>795.2</ele><time>2026-05-02T15:38:58.565Z</time></trkpt><trkpt lat="42.17108" lon="13.2756033"><ele>795.8000000000001</ele><time>2026-05-02T15:38:59.564Z</time></trkpt><trkpt lat="42.1711867" lon="13.2756167"><ele>796.4000000000001</ele><time>2026-05-02T15:39:00.564Z</time></trkpt><trkpt lat="42.1713133" lon="13.2756367"><ele>797.0</ele><time>2026-05-02T15:39:01.564Z</time></trkpt><trkpt lat="42.17145" lon="13.2756633"><ele>798.0</ele><time>2026-05-02T15:39:02.565Z</time></trkpt><trkpt lat="42.1715883" lon="13.2757217"><ele>799.0</ele><time>2026-05-02T15:39:03.564Z</time></trkpt><trkpt lat="42.171715" lon="13.2758033"><ele>800.0</ele><time>2026-05-02T15:39:04.564Z</time></trkpt><trkpt lat="42.1718467" lon="13.275885"><ele>801.0</ele><time>2026-05-02T15:39:05.565Z</time></trkpt><trkpt lat="42.1719883" lon="13.2759567"><ele>801.0</ele><time>2026-05-02T15:39:06.565Z</time></trkpt><trkpt lat="42.1721383" lon="13.27601"><ele>801.0</ele><time>2026-05-02T15:39:07.564Z</time></trkpt><trkpt lat="42.1722767" lon="13.2760617"><ele>801.0</ele><time>2026-05-02T15:39:08.564Z</time></trkpt><trkpt lat="42.172395" lon="13.2761167"><ele>801.0</ele><time>2026-05-02T15:39:09.564Z</time></trkpt><trkpt lat="42.1725033" lon="13.2761617"><ele>801.1999999999999</ele><time>2026-05-02T15:39:10.565Z</time></trkpt><trkpt lat="42.17261" lon="13.2762017"><ele>801.4</ele><time>2026-05-02T15:39:11.565Z</time></trkpt><trkpt lat="42.1727033" lon="13.2762533"><ele>801.6</ele><time>2026-05-02T15:39:12.565Z</time></trkpt><trkpt lat="42.1727967" lon="13.2762917"><ele>801.8</ele><time>2026-05-02T15:39:13.565Z</time></trkpt><trkpt lat="42.1729033" lon="13.2763233"><ele>802.0</ele><time>2026-05-02T15:39:14.564Z</time></trkpt><trkpt lat="42.1730167" lon="13.2763433"><ele>801.9999999999999</ele><time>2026-05-02T15:39:15.565Z</time></trkpt><trkpt lat="42.173105" lon="13.2763533"><ele>802.0</ele><time>2026-05-02T15:39:16.564Z</time></trkpt><trkpt lat="42.17318" lon="13.2763417"><ele>802.0</ele><time>2026-05-02T15:39:17.564Z</time></trkpt><trkpt lat="42.1732667" lon="13.2763267"><ele>802.0</ele><time>2026-05-02T15:39:18.565Z</time></trkpt><trkpt lat="42.173345" lon="13.2762883"><ele>801.9999999999999</ele><time>2026-05-02T15:39:19.564Z</time></trkpt><trkpt lat="42.1734333" lon="13.27624"><ele>802.0</ele><time>2026-05-02T15:39:20.564Z</time></trkpt><trkpt lat="42.17353" lon="13.2761917"><ele>804.0</ele><time>2026-05-02T15:39:21.565Z</time></trkpt><trkpt lat="42.1736433" lon="13.276155"><ele>806.0</ele><time>2026-05-02T15:39:22.564Z</time></trkpt><trkpt lat="42.1737633" lon="13.2761133"><ele>808.0</ele><time>2026-05-02T15:39:23.564Z</time></trkpt><trkpt lat="42.173875" lon="13.2760967"><ele>810.0</ele><time>2026-05-02T15:39:24.564Z</time></trkpt><trkpt lat="42.17396" lon="13.2760867"><ele>812.0</ele><time>2026-05-02T15:39:25.565Z</time></trkpt><trkpt lat="42.1740333" lon="13.2760833"><ele>814.75</ele><time>2026-05-02T15:39:26.565Z</time></trkpt><trkpt lat="42.17413" lon="13.2761067"><ele>817.5</ele><time>2026-05-02T15:39:28.564Z</time></trkpt><trkpt lat="42.1742517" lon="13.2762167"><ele>820.25</ele><time>2026-05-02T15:39:37.565Z</time></trkpt><trkpt lat="42.1743317" lon="13.27629"><ele>823.0</ele><time>2026-05-02T15:39:38.565Z</time></trkpt><trkpt lat="42.1744283" lon="13.27637"><ele>823.4</ele><time>2026-05-02T15:39:39.564Z</time></trkpt><trkpt lat="42.1745233" lon="13.2764533"><ele>823.8</ele><time>2026-05-02T15:39:40.564Z</time></trkpt><trkpt lat="42.174625" lon="13.2765267"><ele>824.2</ele><time>2026-05-02T15:39:41.564Z</time></trkpt><trkpt lat="42.174725" lon="13.2765683"><ele>824.6</ele><time>2026-05-02T15:39:42.565Z</time></trkpt><trkpt lat="42.17483" lon="13.276585"><ele>825.0</ele><time>2026-05-02T15:39:43.564Z</time></trkpt><trkpt lat="42.17495" lon="13.2765733"><ele>826.0</ele><time>2026-05-02T15:39:44.565Z</time></trkpt><trkpt lat="42.1750667" lon="13.2765217"><ele>827.0</ele><time>2026-05-02T15:39:45.564Z</time></trkpt><trkpt lat="42.175165" lon="13.2764383"><ele>828.0</ele><time>2026-05-02T15:39:46.565Z</time></trkpt><trkpt lat="42.1752383" lon="13.2763267"><ele>829.0</ele><time>2026-05-02T15:39:47.565Z</time></trkpt><trkpt lat="42.1753117" lon="13.2761917"><ele>829.25</ele><time>2026-05-02T15:39:48.565Z</time></trkpt><trkpt lat="42.1753767" lon="13.2760333"><ele>829.5</ele><time>2026-05-02T15:39:49.564Z</time></trkpt><trkpt lat="42.1754467" lon="13.2758783"><ele>829.75</ele><time>2026-05-02T15:39:50.565Z</time></trkpt><trkpt lat="42.1755" lon="13.275755"><ele>830.0</ele><time>2026-05-02T15:39:51.564Z</time></trkpt><trkpt lat="42.1755517" lon="13.2756533"><ele>830.0000000000001</ele><time>2026-05-02T15:39:52.565Z</time></trkpt><trkpt lat="42.1755933" lon="13.2755733"><ele>830.0</ele><time>2026-05-02T15:39:53.564Z</time></trkpt><trkpt lat="42.17564" lon="13.2755083"><ele>830.0</ele><time>2026-05-02T15:39:54.564Z</time></trkpt><trkpt lat="42.1757467" lon="13.2754233"><ele>830.0</ele><time>2026-05-02T15:39:56.564Z</time></trkpt><trkpt lat="42.1758167" lon="13.2753883"><ele>830.0000000000001</ele><time>2026-05-02T15:39:57.564Z</time></trkpt><trkpt lat="42.175895" lon="13.27536"><ele>830.0</ele><time>2026-05-02T15:39:58.564Z</time></trkpt><trkpt lat="42.1759817" lon="13.2753317"><ele>830.0</ele><time>2026-05-02T15:39:59.565Z</time></trkpt><trkpt lat="42.17608" lon="13.2753083"><ele>830.0</ele><time>2026-05-02T15:40:00.565Z</time></trkpt><trkpt lat="42.176195" lon="13.27528"><ele>830.0</ele><time>2026-05-02T15:40:01.564Z</time></trkpt><trkpt lat="42.1763133" lon="13.2752433"><ele>830.0</ele><time>2026-05-02T15:40:02.564Z</time></trkpt><trkpt lat="42.1764333" lon="13.2752067"><ele>828.0</ele><time>2026-05-02T15:40:03.565Z</time></trkpt><trkpt lat="42.1765517" lon="13.2751733"><ele>826.0</ele><time>2026-05-02T15:40:04.565Z</time></trkpt><trkpt lat="42.1766817" lon="13.2751367"><ele>824.0</ele><time>2026-05-02T15:40:05.565Z</time></trkpt><trkpt lat="42.1768133" lon="13.2750933"><ele>822.0</ele><time>2026-05-02T15:40:06.564Z</time></trkpt><trkpt lat="42.1769467" lon="13.2750467"><ele>822.0</ele><time>2026-05-02T15:40:07.564Z</time></trkpt><trkpt lat="42.1770617" lon="13.2750033"><ele>822.0</ele><time>2026-05-02T15:40:08.565Z</time></trkpt><trkpt lat="42.17715" lon="13.27498"><ele>822.0</ele><time>2026-05-02T15:40:09.564Z</time></trkpt><trkpt lat="42.177245" lon="13.2749833"><ele>822.0</ele><time>2026-05-02T15:40:11.565Z</time></trkpt><trkpt lat="42.177295" lon="13.2750483"><ele>822.0</ele><time>2026-05-02T15:40:13.565Z</time></trkpt><trkpt lat="42.1773283" lon="13.2751567"><ele>822.0</ele><time>2026-05-02T15:40:15.564Z</time></trkpt><trkpt lat="42.1773217" lon="13.2752533"><ele>822.0</ele><time>2026-05-02T15:40:17.565Z</time></trkpt><trkpt lat="42.1773267" lon="13.27534"><ele>822.0</ele><time>2026-05-02T15:40:19.565Z</time></trkpt><trkpt lat="42.1773283" lon="13.2754283"><ele>822.0</ele><time>2026-05-02T15:40:21.564Z</time></trkpt><trkpt lat="42.1773833" lon="13.2754967"><ele>822.0</ele><time>2026-05-02T15:40:42.565Z</time></trkpt><trkpt lat="42.1774183" lon="13.2753833"><ele>822.0</ele><time>2026-05-02T15:40:44.564Z</time></trkpt><trkpt lat="42.1774167" lon="13.2752883"><ele>822.0</ele><time>2026-05-02T15:40:45.564Z</time></trkpt><trkpt lat="42.1774183" lon="13.2751883"><ele>821.4000000000001</ele><time>2026-05-02T15:40:46.564Z</time></trkpt><trkpt lat="42.17746" lon="13.275065"><ele>820.8000000000001</ele><time>2026-05-02T15:40:48.565Z</time></trkpt><trkpt lat="42.177515" lon="13.2751233"><ele>820.2</ele><time>2026-05-02T15:40:51.564Z</time></trkpt><trkpt lat="42.1775283" lon="13.27532"><ele>819.6</ele><time>2026-05-02T15:41:40.564Z</time></trkpt><trkpt lat="42.1775267" lon="13.2754117"><ele>819.0</ele><time>2026-05-02T15:41:41.564Z</time></trkpt><trkpt lat="42.1775283" lon="13.2755317"><ele>819.1666666666666</ele><time>2026-05-02T15:41:42.564Z</time></trkpt><trkpt lat="42.1775333" lon="13.275655"><ele>819.3333333333333</ele><time>2026-05-02T15:41:43.563Z</time></trkpt><trkpt lat="42.1775633" lon="13.2757717"><ele>819.5</ele><time>2026-05-02T15:41:44.564Z</time></trkpt><trkpt lat="42.1776" lon="13.2758667"><ele>819.6666666666666</ele><time>2026-05-02T15:41:45.563Z</time></trkpt><trkpt lat="42.1776317" lon="13.27595"><ele>819.8333333333333</ele><time>2026-05-02T15:41:46.563Z</time></trkpt><trkpt lat="42.1776667" lon="13.276095"><ele>820.0</ele><time>2026-05-02T15:41:48.563Z</time></trkpt><trkpt lat="42.1776767" lon="13.27618"><ele>820.0</ele><time>2026-05-02T15:41:49.563Z</time></trkpt><trkpt lat="42.1776783" lon="13.276285"><ele>820.0</ele><time>2026-05-02T15:41:50.563Z</time></trkpt><trkpt lat="42.1776717" lon="13.2764017"><ele>820.0</ele><time>2026-05-02T15:41:51.564Z</time></trkpt><trkpt lat="42.1776583" lon="13.2765367"><ele>820.0</ele><time>2026-05-02T15:41:52.563Z</time></trkpt><trkpt lat="42.177635" lon="13.27667"><ele>820.0</ele><time>2026-05-02T15:41:53.564Z</time></trkpt><trkpt lat="42.177605" lon="13.276815"><ele>820.4</ele><time>2026-05-02T15:41:54.563Z</time></trkpt><trkpt lat="42.17759" lon="13.2769683"><ele>820.8</ele><time>2026-05-02T15:41:55.563Z</time></trkpt><trkpt lat="42.1775767" lon="13.2771133"><ele>821.2</ele><time>2026-05-02T15:41:56.564Z</time></trkpt><trkpt lat="42.17757" lon="13.27724"><ele>821.6</ele><time>2026-05-02T15:41:57.563Z</time></trkpt><trkpt lat="42.1775633" lon="13.2773717"><ele>822.0</ele><time>2026-05-02T15:41:58.563Z</time></trkpt><trkpt lat="42.1775567" lon="13.277515"><ele>822.4000000000001</ele><time>2026-05-02T15:41:59.563Z</time></trkpt><trkpt lat="42.1775517" lon="13.277655"><ele>822.8000000000001</ele><time>2026-05-02T15:42:00.563Z</time></trkpt><trkpt lat="42.17755" lon="13.2777917"><ele>823.2</ele><time>2026-05-02T15:42:01.563Z</time></trkpt><trkpt lat="42.1775317" lon="13.27792"><ele>823.6</ele><time>2026-05-02T15:42:02.564Z</time></trkpt><trkpt lat="42.177505" lon="13.27805"><ele>824.0</ele><time>2026-05-02T15:42:03.563Z</time></trkpt><trkpt lat="42.1774767" lon="13.2781567"><ele>824.3333333333334</ele><time>2026-05-02T15:42:04.564Z</time></trkpt><trkpt lat="42.177435" lon="13.27824"><ele>824.6666666666667</ele><time>2026-05-02T15:42:05.563Z</time></trkpt><trkpt lat="42.1773717" lon="13.2783183"><ele>825.0</ele><time>2026-05-02T15:42:06.564Z</time></trkpt><trkpt lat="42.1773033" lon="13.2783967"><ele>825.3333333333333</ele><time>2026-05-02T15:42:07.564Z</time></trkpt><trkpt lat="42.1772383" lon="13.2784783"><ele>825.6666666666666</ele><time>2026-05-02T15:42:08.563Z</time></trkpt><trkpt lat="42.1771917" lon="13.27858"><ele>826.0</ele><time>2026-05-02T15:42:09.563Z</time></trkpt><trkpt lat="42.1771417" lon="13.2786983"><ele>827.1666666666666</ele><time>2026-05-02T15:42:10.563Z</time></trkpt><trkpt lat="42.17709" lon="13.2787917"><ele>828.3333333333333</ele><time>2026-05-02T15:42:11.563Z</time></trkpt><trkpt lat="42.1770383" lon="13.2788617"><ele>829.5</ele><time>2026-05-02T15:42:12.563Z</time></trkpt><trkpt lat="42.1769917" lon="13.27892"><ele>830.6666666666667</ele><time>2026-05-02T15:42:13.563Z</time></trkpt><trkpt lat="42.1769433" lon="13.27902"><ele>831.8333333333334</ele><time>2026-05-02T15:42:15.564Z</time></trkpt><trkpt lat="42.1769633" lon="13.279125"><ele>833.0</ele><time>2026-05-02T15:42:17.563Z</time></trkpt><trkpt lat="42.1770267" lon="13.279275"><ele>833.4</ele><time>2026-05-02T15:42:19.563Z</time></trkpt><trkpt lat="42.17706" lon="13.2793733"><ele>833.8</ele><time>2026-05-02T15:42:20.564Z</time></trkpt><trkpt lat="42.1770983" lon="13.2794867"><ele>834.2</ele><time>2026-05-02T15:42:21.564Z</time></trkpt><trkpt lat="42.177155" lon="13.2796217"><ele>834.6</ele><time>2026-05-02T15:42:22.563Z</time></trkpt><trkpt lat="42.1772183" lon="13.27974"><ele>835.0</ele><time>2026-05-02T15:42:23.563Z</time></trkpt><trkpt lat="42.1772983" lon="13.2798767"><ele>835.25</ele><time>2026-05-02T15:42:24.563Z</time></trkpt><trkpt lat="42.17738" lon="13.2800267"><ele>835.5</ele><time>2026-05-02T15:42:25.563Z</time></trkpt><trkpt lat="42.1774633" lon="13.2801833"><ele>835.75</ele><time>2026-05-02T15:42:26.563Z</time></trkpt><trkpt lat="42.1775383" lon="13.2803283"><ele>836.0</ele><time>2026-05-02T15:42:27.564Z</time></trkpt><trkpt lat="42.17761" lon="13.2804617"><ele>836.0</ele><time>2026-05-02T15:42:28.564Z</time></trkpt><trkpt lat="42.1776833" lon="13.2805917"><ele>836.0</ele><time>2026-05-02T15:42:29.564Z</time></trkpt><trkpt lat="42.17776" lon="13.280725"><ele>836.0</ele><time>2026-05-02T15:42:30.564Z</time></trkpt><trkpt lat="42.1778267" lon="13.2808667"><ele>836.0</ele><time>2026-05-02T15:42:31.564Z</time></trkpt><trkpt lat="42.17789" lon="13.2809967"><ele>836.5999999999999</ele><time>2026-05-02T15:42:32.563Z</time></trkpt><trkpt lat="42.177955" lon="13.2811217"><ele>837.2</ele><time>2026-05-02T15:42:33.564Z</time></trkpt><trkpt lat="42.17801" lon="13.2812533"><ele>837.8</ele><time>2026-05-02T15:42:34.563Z</time></trkpt><trkpt lat="42.1780617" lon="13.2813617"><ele>838.4000000000001</ele><time>2026-05-02T15:42:35.563Z</time></trkpt><trkpt lat="42.1781167" lon="13.2814583"><ele>839.0</ele><time>2026-05-02T15:42:36.564Z</time></trkpt><trkpt lat="42.1781933" lon="13.2815483"><ele>839.4000000000001</ele><time>2026-05-02T15:42:37.563Z</time></trkpt><trkpt lat="42.178285" lon="13.2816333"><ele>839.8</ele><time>2026-05-02T15:42:38.564Z</time></trkpt><trkpt lat="42.178375" lon="13.2817083"><ele>840.2</ele><time>2026-05-02T15:42:39.564Z</time></trkpt><trkpt lat="42.1784567" lon="13.2817633"><ele>840.5999999999999</ele><time>2026-05-02T15:42:40.563Z</time></trkpt><trkpt lat="42.1785317" lon="13.2817917"><ele>841.0</ele><time>2026-05-02T15:42:41.564Z</time></trkpt><trkpt lat="42.1786083" lon="13.281795"><ele>840.9999999999999</ele><time>2026-05-02T15:42:42.564Z</time></trkpt><trkpt lat="42.178685" lon="13.2817783"><ele>841.0</ele><time>2026-05-02T15:42:43.563Z</time></trkpt><trkpt lat="42.17876" lon="13.281755"><ele>841.0</ele><time>2026-05-02T15:42:44.564Z</time></trkpt><trkpt lat="42.1788417" lon="13.2817033"><ele>841.0</ele><time>2026-05-02T15:42:45.563Z</time></trkpt><trkpt lat="42.1789217" lon="13.2816433"><ele>840.9999999999999</ele><time>2026-05-02T15:42:46.564Z</time></trkpt><trkpt lat="42.1789967" lon="13.28159"><ele>841.0</ele><time>2026-05-02T15:42:47.564Z</time></trkpt><trkpt lat="42.1790567" lon="13.281555"><ele>839.5999999999999</ele><time>2026-05-02T15:42:48.564Z</time></trkpt><trkpt lat="42.17915" lon="13.2815333"><ele>838.2</ele><time>2026-05-02T15:42:50.564Z</time></trkpt><trkpt lat="42.1792" lon="13.2816217"><ele>836.8</ele><time>2026-05-02T15:42:56.563Z</time></trkpt><trkpt lat="42.1792617" lon="13.281755"><ele>835.4000000000001</ele><time>2026-05-02T15:42:58.563Z</time></trkpt><trkpt lat="42.17933" lon="13.28181"><ele>834.0</ele><time>2026-05-02T15:43:00.564Z</time></trkpt><trkpt lat="42.1793967" lon="13.281735"><ele>834.0</ele><time>2026-05-02T15:43:02.563Z</time></trkpt><trkpt lat="42.1794317" lon="13.2816483"><ele>834.0</ele><time>2026-05-02T15:43:03.564Z</time></trkpt><trkpt lat="42.17947" lon="13.281555"><ele>834.0</ele><time>2026-05-02T15:43:04.563Z</time></trkpt><trkpt lat="42.17952" lon="13.2814583"><ele>834.0</ele><time>2026-05-02T15:43:05.564Z</time></trkpt><trkpt lat="42.1795867" lon="13.2813433"><ele>834.0</ele><time>2026-05-02T15:43:06.564Z</time></trkpt><trkpt lat="42.17966" lon="13.281205"><ele>832.6666666666667</ele><time>2026-05-02T15:43:07.564Z</time></trkpt><trkpt lat="42.1797467" lon="13.28101"><ele>831.3333333333334</ele><time>2026-05-02T15:43:08.563Z</time></trkpt><trkpt lat="42.17984" lon="13.280795"><ele>830.0</ele><time>2026-05-02T15:43:09.564Z</time></trkpt><trkpt lat="42.1799417" lon="13.2805733"><ele>828.3333333333334</ele><time>2026-05-02T15:43:10.563Z</time></trkpt><trkpt lat="42.1800517" lon="13.2803717"><ele>826.6666666666667</ele><time>2026-05-02T15:43:11.563Z</time></trkpt><trkpt lat="42.1801717" lon="13.28018"><ele>825.0</ele><time>2026-05-02T15:43:12.563Z</time></trkpt><trkpt lat="42.1803033" lon="13.2800217"><ele>825.0</ele><time>2026-05-02T15:43:13.563Z</time></trkpt><trkpt lat="42.180445" lon="13.2798817"><ele>825.0</ele><time>2026-05-02T15:43:14.564Z</time></trkpt><trkpt lat="42.1805717" lon="13.279745"><ele>825.0</ele><time>2026-05-02T15:43:15.564Z</time></trkpt><trkpt lat="42.1806683" lon="13.27961"><ele>824.2</ele><time>2026-05-02T15:43:16.563Z</time></trkpt><trkpt lat="42.1807233" lon="13.2794967"><ele>823.4</ele><time>2026-05-02T15:43:17.564Z</time></trkpt><trkpt lat="42.1807383" lon="13.279395"><ele>822.5999999999999</ele><time>2026-05-02T15:43:19.563Z</time></trkpt><trkpt lat="42.180685" lon="13.2792817"><ele>821.8</ele><time>2026-05-02T15:43:22.564Z</time></trkpt><trkpt lat="42.18062" lon="13.2791283"><ele>821.0</ele><time>2026-05-02T15:43:24.564Z</time></trkpt><trkpt lat="42.1805867" lon="13.2790017"><ele>820.5</ele><time>2026-05-02T15:43:25.563Z</time></trkpt><trkpt lat="42.1805667" lon="13.2788517"><ele>820.0</ele><time>2026-05-02T15:43:26.563Z</time></trkpt><trkpt lat="42.18057" lon="13.27868"><ele>819.5</ele><time>2026-05-02T15:43:27.563Z</time></trkpt><trkpt lat="42.1805883" lon="13.2785017"><ele>819.0</ele><time>2026-05-02T15:43:28.563Z</time></trkpt><trkpt lat="42.1806183" lon="13.2782967"><ele>818.6666666666667</ele><time>2026-05-02T15:43:29.564Z</time></trkpt><trkpt lat="42.1806483" lon="13.2780783"><ele>818.3333333333334</ele><time>2026-05-02T15:43:30.564Z</time></trkpt><trkpt lat="42.1806867" lon="13.2778617"><ele>818.0</ele><time>2026-05-02T15:43:31.563Z</time></trkpt><trkpt lat="42.1807183" lon="13.277635"><ele>817.0</ele><time>2026-05-02T15:43:32.564Z</time></trkpt><trkpt lat="42.1807483" lon="13.2774"><ele>816.0</ele><time>2026-05-02T15:43:33.563Z</time></trkpt><trkpt lat="42.18078" lon="13.27716"><ele>815.0</ele><time>2026-05-02T15:43:34.564Z</time></trkpt><trkpt lat="42.1808133" lon="13.2769283"><ele>814.3333333333334</ele><time>2026-05-02T15:43:35.564Z</time></trkpt><trkpt lat="42.1808517" lon="13.276705"><ele>813.6666666666667</ele><time>2026-05-02T15:43:36.564Z</time></trkpt><trkpt lat="42.180885" lon="13.276485"><ele>813.0</ele><time>2026-05-02T15:43:37.564Z</time></trkpt><trkpt lat="42.1809183" lon="13.276265"><ele>812.3333333333333</ele><time>2026-05-02T15:43:38.564Z</time></trkpt><trkpt lat="42.180955" lon="13.2760467"><ele>811.6666666666666</ele><time>2026-05-02T15:43:39.564Z</time></trkpt><trkpt lat="42.1809967" lon="13.2758267"><ele>811.0</ele><time>2026-05-02T15:43:40.563Z</time></trkpt><trkpt lat="42.1810417" lon="13.2756033"><ele>810.3333333333333</ele><time>2026-05-02T15:43:41.564Z</time></trkpt><trkpt lat="42.181085" lon="13.2753817"><ele>809.6666666666667</ele><time>2026-05-02T15:43:42.563Z</time></trkpt><trkpt lat="42.1811267" lon="13.2751683"><ele>809.0</ele><time>2026-05-02T15:43:43.564Z</time></trkpt><trkpt lat="42.1811717" lon="13.274965"><ele>808.0</ele><time>2026-05-02T15:43:44.564Z</time></trkpt><trkpt lat="42.1812167" lon="13.2747633"><ele>807.0</ele><time>2026-05-02T15:43:45.563Z</time></trkpt><trkpt lat="42.18126" lon="13.2745733"><ele>806.0</ele><time>2026-05-02T15:43:46.564Z</time></trkpt><trkpt lat="42.1813" lon="13.2744033"><ele>805.0</ele><time>2026-05-02T15:43:47.564Z</time></trkpt><trkpt lat="42.181335" lon="13.27425"><ele>805.0</ele><time>2026-05-02T15:43:48.563Z</time></trkpt><trkpt lat="42.18137" lon="13.2741233"><ele>805.0</ele><time>2026-05-02T15:43:49.564Z</time></trkpt><trkpt lat="42.1814033" lon="13.27402"><ele>805.0</ele><time>2026-05-02T15:43:50.563Z</time></trkpt><trkpt lat="42.18144" lon="13.273925"><ele>805.0</ele><time>2026-05-02T15:43:52.563Z</time></trkpt><trkpt lat="42.18145" lon="13.2738083"><ele>805.0</ele><time>2026-05-02T15:43:59.564Z</time></trkpt><trkpt lat="42.181505" lon="13.273675"><ele>804.6</ele><time>2026-05-02T15:44:01.563Z</time></trkpt><trkpt lat="42.1815733" lon="13.273625"><ele>804.2</ele><time>2026-05-02T15:44:02.564Z</time></trkpt><trkpt lat="42.1816533" lon="13.2735667"><ele>803.8</ele><time>2026-05-02T15:44:03.563Z</time></trkpt><trkpt lat="42.18174" lon="13.2734883"><ele>803.4</ele><time>2026-05-02T15:44:04.563Z</time></trkpt><trkpt lat="42.18182" lon="13.2733817"><ele>803.0</ele><time>2026-05-02T15:44:05.564Z</time></trkpt><trkpt lat="42.18189" lon="13.2732717"><ele>803.0</ele><time>2026-05-02T15:44:06.564Z</time></trkpt><trkpt lat="42.181955" lon="13.273165"><ele>803.0</ele><time>2026-05-02T15:44:07.564Z</time></trkpt><trkpt lat="42.1820183" lon="13.2730683"><ele>803.0</ele><time>2026-05-02T15:44:08.564Z</time></trkpt><trkpt lat="42.182075" lon="13.27298"><ele>803.0</ele><time>2026-05-02T15:44:09.564Z</time></trkpt><trkpt lat="42.18213" lon="13.2728917"><ele>803.0</ele><time>2026-05-02T15:44:10.564Z</time></trkpt><trkpt lat="42.1821833" lon="13.2728067"><ele>802.8333333333334</ele><time>2026-05-02T15:44:11.564Z</time></trkpt><trkpt lat="42.1822433" lon="13.2727367"><ele>802.6666666666667</ele><time>2026-05-02T15:44:12.563Z</time></trkpt><trkpt lat="42.18231" lon="13.272675"><ele>802.5</ele><time>2026-05-02T15:44:13.563Z</time></trkpt><trkpt lat="42.1823833" lon="13.2726183"><ele>802.3333333333333</ele><time>2026-05-02T15:44:14.564Z</time></trkpt><trkpt lat="42.1824633" lon="13.2725617"><ele>802.1666666666666</ele><time>2026-05-02T15:44:15.563Z</time></trkpt><trkpt lat="42.1825417" lon="13.2724767"><ele>802.0</ele><time>2026-05-02T15:44:16.564Z</time></trkpt><trkpt lat="42.182615" lon="13.2723633"><ele>802.0</ele><time>2026-05-02T15:44:17.563Z</time></trkpt><trkpt lat="42.182685" lon="13.272245"><ele>802.0</ele><time>2026-05-02T15:44:18.563Z</time></trkpt><trkpt lat="42.1827667" lon="13.2721283"><ele>802.0</ele><time>2026-05-02T15:44:19.564Z</time></trkpt><trkpt lat="42.18285" lon="13.2720183"><ele>802.0</ele><time>2026-05-02T15:44:20.564Z</time></trkpt><trkpt lat="42.182925" lon="13.2718967"><ele>802.0</ele><time>2026-05-02T15:44:21.563Z</time></trkpt><trkpt lat="42.1829883" lon="13.27178"><ele>802.0</ele><time>2026-05-02T15:44:22.564Z</time></trkpt><trkpt lat="42.183045" lon="13.2716517"><ele>802.0</ele><time>2026-05-02T15:44:23.564Z</time></trkpt><trkpt lat="42.1830983" lon="13.2715117"><ele>802.0</ele><time>2026-05-02T15:44:24.564Z</time></trkpt><trkpt lat="42.1831467" lon="13.27137"><ele>801.6</ele><time>2026-05-02T15:44:25.563Z</time></trkpt><trkpt lat="42.183205" lon="13.271235"><ele>801.2</ele><time>2026-05-02T15:44:26.564Z</time></trkpt><trkpt lat="42.1832617" lon="13.2711267"><ele>800.8</ele><time>2026-05-02T15:44:27.563Z</time></trkpt><trkpt lat="42.1833217" lon="13.271045"><ele>800.4</ele><time>2026-05-02T15:44:28.564Z</time></trkpt><trkpt lat="42.1833817" lon="13.270985"><ele>800.0</ele><time>2026-05-02T15:44:29.564Z</time></trkpt><trkpt lat="42.18345" lon="13.27094"><ele>800.0</ele><time>2026-05-02T15:44:30.563Z</time></trkpt><trkpt lat="42.18353" lon="13.27092"><ele>800.0</ele><time>2026-05-02T15:44:31.564Z</time></trkpt><trkpt lat="42.18362" lon="13.27091"><ele>800.0</ele><time>2026-05-02T15:44:32.564Z</time></trkpt><trkpt lat="42.1837333" lon="13.2709067"><ele>800.0</ele><time>2026-05-02T15:44:33.564Z</time></trkpt><trkpt lat="42.1838583" lon="13.2709117"><ele>800.0</ele><time>2026-05-02T15:44:34.563Z</time></trkpt><trkpt lat="42.183985" lon="13.2709"><ele>800.0</ele><time>2026-05-02T15:44:35.564Z</time></trkpt><trkpt lat="42.1841133" lon="13.2708817"><ele>800.0</ele><time>2026-05-02T15:44:36.563Z</time></trkpt><trkpt lat="42.18424" lon="13.2708583"><ele>800.0</ele><time>2026-05-02T15:44:37.564Z</time></trkpt><trkpt lat="42.1843617" lon="13.27082"><ele>800.0</ele><time>2026-05-02T15:44:38.563Z</time></trkpt><trkpt lat="42.1844817" lon="13.27076"><ele>800.0</ele><time>2026-05-02T15:44:39.564Z</time></trkpt><trkpt lat="42.184615" lon="13.2706617"><ele>800.0</ele><time>2026-05-02T15:44:40.563Z</time></trkpt><trkpt lat="42.18475" lon="13.2705367"><ele>800.0</ele><time>2026-05-02T15:44:41.564Z</time></trkpt><trkpt lat="42.184895" lon="13.2703983"><ele>800.6666666666667</ele><time>2026-05-02T15:44:42.563Z</time></trkpt><trkpt lat="42.1850233" lon="13.2702633"><ele>801.3333333333333</ele><time>2026-05-02T15:44:43.563Z</time></trkpt><trkpt lat="42.1851467" lon="13.2701467"><ele>802.0</ele><time>2026-05-02T15:44:44.563Z</time></trkpt><trkpt lat="42.1852733" lon="13.2700467"><ele>802.0</ele><time>2026-05-02T15:44:45.564Z</time></trkpt><trkpt lat="42.1854117" lon="13.2699483"><ele>802.0</ele><time>2026-05-02T15:44:46.563Z</time></trkpt><trkpt lat="42.1855467" lon="13.2698483"><ele>802.0</ele><time>2026-05-02T15:44:47.563Z</time></trkpt><trkpt lat="42.1856683" lon="13.2697583"><ele>802.0</ele><time>2026-05-02T15:44:48.564Z</time></trkpt><trkpt lat="42.18578" lon="13.2696883"><ele>802.2</ele><time>2026-05-02T15:44:49.563Z</time></trkpt><trkpt lat="42.1858833" lon="13.2696233"><ele>802.4000000000001</ele><time>2026-05-02T15:44:50.563Z</time></trkpt><trkpt lat="42.1859867" lon="13.2695533"><ele>802.5999999999999</ele><time>2026-05-02T15:44:51.562Z</time></trkpt><trkpt lat="42.186085" lon="13.2694917"><ele>802.8</ele><time>2026-05-02T15:44:52.563Z</time></trkpt><trkpt lat="42.18618" lon="13.2694317"><ele>803.0</ele><time>2026-05-02T15:44:53.563Z</time></trkpt><trkpt lat="42.1862683" lon="13.2693717"><ele>803.0</ele><time>2026-05-02T15:44:54.563Z</time></trkpt><trkpt lat="42.186355" lon="13.269315"><ele>803.0</ele><time>2026-05-02T15:44:55.563Z</time></trkpt><trkpt lat="42.186445" lon="13.2692633"><ele>803.0</ele><time>2026-05-02T15:44:56.563Z</time></trkpt><trkpt lat="42.1865333" lon="13.26921"><ele>803.0</ele><time>2026-05-02T15:44:57.562Z</time></trkpt><trkpt lat="42.1866233" lon="13.269155"><ele>803.0</ele><time>2026-05-02T15:44:58.562Z</time></trkpt><trkpt lat="42.18672" lon="13.2691"><ele>803.0</ele><time>2026-05-02T15:44:59.563Z</time></trkpt><trkpt lat="42.1868233" lon="13.2690283"><ele>803.0</ele><time>2026-05-02T15:45:00.562Z</time></trkpt><trkpt lat="42.1869233" lon="13.2689433"><ele>803.0</ele><time>2026-05-02T15:45:01.562Z</time></trkpt><trkpt lat="42.1870183" lon="13.2688567"><ele>803.0</ele><time>2026-05-02T15:45:02.563Z</time></trkpt><trkpt lat="42.18712" lon="13.2687617"><ele>802.75</ele><time>2026-05-02T15:45:03.563Z</time></trkpt><trkpt lat="42.187225" lon="13.26866"><ele>802.5</ele><time>2026-05-02T15:45:04.563Z</time></trkpt><trkpt lat="42.1873317" lon="13.2685617"><ele>802.25</ele><time>2026-05-02T15:45:05.562Z</time></trkpt><trkpt lat="42.18746" lon="13.26846"><ele>802.0</ele><time>2026-05-02T15:45:06.563Z</time></trkpt><trkpt lat="42.1875867" lon="13.2683633"><ele>802.0</ele><time>2026-05-02T15:45:07.563Z</time></trkpt><trkpt lat="42.1877033" lon="13.26827"><ele>802.0</ele><time>2026-05-02T15:45:08.562Z</time></trkpt><trkpt lat="42.1878117" lon="13.2681917"><ele>802.0</ele><time>2026-05-02T15:45:09.563Z</time></trkpt><trkpt lat="42.187905" lon="13.2681133"><ele>802.0</ele><time>2026-05-02T15:45:10.563Z</time></trkpt><trkpt lat="42.1879883" lon="13.268045"><ele>801.9999999999999</ele><time>2026-05-02T15:45:11.563Z</time></trkpt><trkpt lat="42.1880617" lon="13.267985"><ele>802.0</ele><time>2026-05-02T15:45:12.563Z</time></trkpt><trkpt lat="42.1881233" lon="13.267935"><ele>802.0</ele><time>2026-05-02T15:45:13.563Z</time></trkpt><trkpt lat="42.1881883" lon="13.2678983"><ele>802.0</ele><time>2026-05-02T15:45:14.562Z</time></trkpt><trkpt lat="42.1882783" lon="13.2678567"><ele>801.9999999999999</ele><time>2026-05-02T15:45:15.562Z</time></trkpt><trkpt lat="42.1883883" lon="13.267825"><ele>802.0</ele><time>2026-05-02T15:45:16.563Z</time></trkpt><trkpt lat="42.1884967" lon="13.267785"><ele>802.4999999999999</ele><time>2026-05-02T15:45:17.562Z</time></trkpt><trkpt lat="42.1885883" lon="13.2677483"><ele>803.0</ele><time>2026-05-02T15:45:18.562Z</time></trkpt><trkpt lat="42.188665" lon="13.267715"><ele>803.5</ele><time>2026-05-02T15:45:19.562Z</time></trkpt><trkpt lat="42.1887333" lon="13.2676817"><ele>804.0</ele><time>2026-05-02T15:45:20.563Z</time></trkpt><trkpt lat="42.1888017" lon="13.2676483"><ele>804.4999999999999</ele><time>2026-05-02T15:45:21.562Z</time></trkpt><trkpt lat="42.1888717" lon="13.2676133"><ele>805.0</ele><time>2026-05-02T15:45:22.563Z</time></trkpt><trkpt lat="42.1889417" lon="13.26756"><ele>805.2</ele><time>2026-05-02T15:45:23.562Z</time></trkpt><trkpt lat="42.189015" lon="13.2674983"><ele>805.4</ele><time>2026-05-02T15:45:24.562Z</time></trkpt><trkpt lat="42.189095" lon="13.2674333"><ele>805.5999999999999</ele><time>2026-05-02T15:45:25.563Z</time></trkpt><trkpt lat="42.1891917" lon="13.2673733"><ele>805.8</ele><time>2026-05-02T15:45:26.562Z</time></trkpt><trkpt lat="42.1892883" lon="13.2672867"><ele>806.0</ele><time>2026-05-02T15:45:27.563Z</time></trkpt><trkpt lat="42.1894" lon="13.267205"><ele>805.5</ele><time>2026-05-02T15:45:28.562Z</time></trkpt><trkpt lat="42.1895183" lon="13.2670967"><ele>805.0</ele><time>2026-05-02T15:45:29.563Z</time></trkpt><trkpt lat="42.1896317" lon="13.2669933"><ele>804.5</ele><time>2026-05-02T15:45:30.563Z</time></trkpt><trkpt lat="42.1897383" lon="13.266885"><ele>804.0</ele><time>2026-05-02T15:45:31.562Z</time></trkpt><trkpt lat="42.18984" lon="13.2667833"><ele>805.0</ele><time>2026-05-02T15:45:32.562Z</time></trkpt><trkpt lat="42.18995" lon="13.2666883"><ele>806.0</ele><time>2026-05-02T15:45:33.563Z</time></trkpt><trkpt lat="42.1900583" lon="13.2666067"><ele>807.0</ele><time>2026-05-02T15:45:34.562Z</time></trkpt><trkpt lat="42.1901683" lon="13.2665433"><ele>808.0</ele><time>2026-05-02T15:45:35.562Z</time></trkpt><trkpt lat="42.1902683" lon="13.2664967"><ele>807.5999999999999</ele><time>2026-05-02T15:45:36.563Z</time></trkpt><trkpt lat="42.19035" lon="13.2664383"><ele>807.1999999999999</ele><time>2026-05-02T15:45:37.563Z</time></trkpt><trkpt lat="42.1904217" lon="13.26635"><ele>806.8</ele><time>2026-05-02T15:45:38.562Z</time></trkpt><trkpt lat="42.1905" lon="13.2662633"><ele>806.4</ele><time>2026-05-02T15:45:39.562Z</time></trkpt><trkpt lat="42.1905967" lon="13.2661683"><ele>806.0</ele><time>2026-05-02T15:45:40.562Z</time></trkpt><trkpt lat="42.1907117" lon="13.2660683"><ele>806.25</ele><time>2026-05-02T15:45:41.563Z</time></trkpt><trkpt lat="42.190825" lon="13.26594"><ele>806.5</ele><time>2026-05-02T15:45:42.562Z</time></trkpt><trkpt lat="42.190935" lon="13.265795"><ele>806.75</ele><time>2026-05-02T15:45:43.563Z</time></trkpt><trkpt lat="42.19103" lon="13.2656517"><ele>807.0</ele><time>2026-05-02T15:45:44.562Z</time></trkpt><trkpt lat="42.1911267" lon="13.2655267"><ele>807.0</ele><time>2026-05-02T15:45:45.562Z</time></trkpt><trkpt lat="42.19123" lon="13.2654133"><ele>807.0</ele><time>2026-05-02T15:45:46.563Z</time></trkpt><trkpt lat="42.1913317" lon="13.2652917"><ele>807.0</ele><time>2026-05-02T15:45:47.563Z</time></trkpt><trkpt lat="42.191425" lon="13.2651617"><ele>807.0</ele><time>2026-05-02T15:45:48.562Z</time></trkpt><trkpt lat="42.191505" lon="13.2650183"><ele>807.5</ele><time>2026-05-02T15:45:49.563Z</time></trkpt><trkpt lat="42.19158" lon="13.2648817"><ele>808.0</ele><time>2026-05-02T15:45:50.562Z</time></trkpt><trkpt lat="42.191655" lon="13.2647633"><ele>808.5</ele><time>2026-05-02T15:45:51.563Z</time></trkpt><trkpt lat="42.1917467" lon="13.2646783"><ele>809.0</ele><time>2026-05-02T15:45:52.563Z</time></trkpt><trkpt lat="42.19186" lon="13.2645983"><ele>809.0</ele><time>2026-05-02T15:45:53.563Z</time></trkpt><trkpt lat="42.191975" lon="13.26452"><ele>809.0</ele><time>2026-05-02T15:45:54.563Z</time></trkpt><trkpt lat="42.1920733" lon="13.2644433"><ele>809.0</ele><time>2026-05-02T15:45:55.562Z</time></trkpt><trkpt lat="42.192175" lon="13.2643683"><ele>809.0</ele><time>2026-05-02T15:45:56.563Z</time></trkpt><trkpt lat="42.1923017" lon="13.264315"><ele>810.0</ele><time>2026-05-02T15:45:57.563Z</time></trkpt><trkpt lat="42.1924233" lon="13.2642517"><ele>811.0</ele><time>2026-05-02T15:45:58.563Z</time></trkpt><trkpt lat="42.1925583" lon="13.2641867"><ele>812.0</ele><time>2026-05-02T15:45:59.563Z</time></trkpt><trkpt lat="42.1927" lon="13.264105"><ele>813.0</ele><time>2026-05-02T15:46:00.562Z</time></trkpt><trkpt lat="42.19283" lon="13.2640317"><ele>813.0</ele><time>2026-05-02T15:46:01.562Z</time></trkpt><trkpt lat="42.1929567" lon="13.2639567"><ele>813.0</ele><time>2026-05-02T15:46:02.562Z</time></trkpt><trkpt lat="42.1930933" lon="13.2638767"><ele>813.0</ele><time>2026-05-02T15:46:03.563Z</time></trkpt><trkpt lat="42.19322" lon="13.263805"><ele>813.0</ele><time>2026-05-02T15:46:04.563Z</time></trkpt><trkpt lat="42.19335" lon="13.2637083"><ele>813.3333333333333</ele><time>2026-05-02T15:46:05.563Z</time></trkpt><trkpt lat="42.193485" lon="13.2636017"><ele>813.6666666666666</ele><time>2026-05-02T15:46:06.563Z</time></trkpt><trkpt lat="42.1936167" lon="13.2634883"><ele>814.0</ele><time>2026-05-02T15:46:07.562Z</time></trkpt><trkpt lat="42.193735" lon="13.263375"><ele>814.0</ele><time>2026-05-02T15:46:08.563Z</time></trkpt><trkpt lat="42.1938483" lon="13.26328"><ele>814.0</ele><time>2026-05-02T15:46:09.563Z</time></trkpt><trkpt lat="42.1939533" lon="13.2631983"><ele>814.0</ele><time>2026-05-02T15:46:10.562Z</time></trkpt><trkpt lat="42.1940567" lon="13.2631383"><ele>814.0</ele><time>2026-05-02T15:46:11.563Z</time></trkpt><trkpt lat="42.1941417" lon="13.26308"><ele>814.2</ele><time>2026-05-02T15:46:12.562Z</time></trkpt><trkpt lat="42.194215" lon="13.2630233"><ele>814.4000000000001</ele><time>2026-05-02T15:46:13.562Z</time></trkpt><trkpt lat="42.19429" lon="13.2629833"><ele>814.6</ele><time>2026-05-02T15:46:14.562Z</time></trkpt><trkpt lat="42.194395" lon="13.2629567"><ele>814.8</ele><time>2026-05-02T15:46:15.562Z</time></trkpt><trkpt lat="42.1945183" lon="13.2629267"><ele>815.0</ele><time>2026-05-02T15:46:16.563Z</time></trkpt><trkpt lat="42.1946383" lon="13.26289"><ele>815.0</ele><time>2026-05-02T15:46:17.563Z</time></trkpt><trkpt lat="42.1947533" lon="13.2628517"><ele>815.0</ele><time>2026-05-02T15:46:18.562Z</time></trkpt><trkpt lat="42.1948617" lon="13.2628183"><ele>815.0</ele><time>2026-05-02T15:46:19.562Z</time></trkpt><trkpt lat="42.1949667" lon="13.2628133"><ele>815.0</ele><time>2026-05-02T15:46:20.562Z</time></trkpt><trkpt lat="42.1950617" lon="13.26283"><ele>815.0</ele><time>2026-05-02T15:46:21.563Z</time></trkpt><trkpt lat="42.1951617" lon="13.2628667"><ele>815.0</ele><time>2026-05-02T15:46:22.563Z</time></trkpt><trkpt lat="42.1952633" lon="13.26291"><ele>815.0</ele><time>2026-05-02T15:46:23.563Z</time></trkpt><trkpt lat="42.19534" lon="13.2629517"><ele>815.0</ele><time>2026-05-02T15:46:24.563Z</time></trkpt><trkpt lat="42.1954367" lon="13.2629783"><ele>815.0</ele><time>2026-05-02T15:46:26.563Z</time></trkpt><trkpt lat="42.1954983" lon="13.2628933"><ele>815.0</ele><time>2026-05-02T15:46:29.563Z</time></trkpt><trkpt lat="42.19556" lon="13.26277"><ele>815.0</ele><time>2026-05-02T15:46:31.563Z</time></trkpt><trkpt lat="42.195605" lon="13.2626767"><ele>815.0</ele><time>2026-05-02T15:46:32.562Z</time></trkpt><trkpt lat="42.19565" lon="13.2625617"><ele>815.0</ele><time>2026-05-02T15:46:33.562Z</time></trkpt><trkpt lat="42.1957017" lon="13.2624267"><ele>815.0</ele><time>2026-05-02T15:46:34.562Z</time></trkpt><trkpt lat="42.1957467" lon="13.2622833"><ele>815.0</ele><time>2026-05-02T15:46:35.562Z</time></trkpt><trkpt lat="42.1958" lon="13.262145"><ele>815.0</ele><time>2026-05-02T15:46:36.562Z</time></trkpt><trkpt lat="42.19587" lon="13.2619967"><ele>815.0</ele><time>2026-05-02T15:46:37.563Z</time></trkpt><trkpt lat="42.1959283" lon="13.2618367"><ele>815.0</ele><time>2026-05-02T15:46:38.563Z</time></trkpt><trkpt lat="42.19598" lon="13.2616717"><ele>815.0</ele><time>2026-05-02T15:46:39.563Z</time></trkpt><trkpt lat="42.196025" lon="13.26152"><ele>814.75</ele><time>2026-05-02T15:46:40.563Z</time></trkpt><trkpt lat="42.1960783" lon="13.2613667"><ele>814.5</ele><time>2026-05-02T15:46:41.563Z</time></trkpt><trkpt lat="42.1961233" lon="13.2612167"><ele>814.25</ele><time>2026-05-02T15:46:42.562Z</time></trkpt><trkpt lat="42.1961567" lon="13.2610617"><ele>814.0</ele><time>2026-05-02T15:46:43.562Z</time></trkpt><trkpt lat="42.1961833" lon="13.2609183"><ele>814.0</ele><time>2026-05-02T15:46:44.563Z</time></trkpt><trkpt lat="42.196215" lon="13.2607717"><ele>814.0</ele><time>2026-05-02T15:46:45.562Z</time></trkpt><trkpt lat="42.196245" lon="13.2606433"><ele>814.0</ele><time>2026-05-02T15:46:46.563Z</time></trkpt><trkpt lat="42.1962783" lon="13.2605367"><ele>814.0</ele><time>2026-05-02T15:46:47.562Z</time></trkpt><trkpt lat="42.1963467" lon="13.2604183"><ele>814.0</ele><time>2026-05-02T15:46:49.563Z</time></trkpt><trkpt lat="42.1964417" lon="13.2603717"><ele>813.0</ele><time>2026-05-02T15:46:51.563Z</time></trkpt><trkpt lat="42.1965517" lon="13.2603433"><ele>812.0</ele><time>2026-05-02T15:46:53.563Z</time></trkpt><trkpt lat="42.1966733" lon="13.260335"><ele>811.0</ele><time>2026-05-02T15:46:55.562Z</time></trkpt><trkpt lat="42.1967483" lon="13.2603333"><ele>810.0</ele><time>2026-05-02T15:46:56.563Z</time></trkpt><trkpt lat="42.196835" lon="13.2603233"><ele>809.0</ele><time>2026-05-02T15:46:57.563Z</time></trkpt><trkpt lat="42.1969283" lon="13.260295"><ele>809.0</ele><time>2026-05-02T15:46:58.563Z</time></trkpt><trkpt lat="42.197025" lon="13.2602617"><ele>809.0</ele><time>2026-05-02T15:46:59.562Z</time></trkpt><trkpt lat="42.1971233" lon="13.2602267"><ele>809.0</ele><time>2026-05-02T15:47:00.562Z</time></trkpt><trkpt lat="42.1972233" lon="13.2601833"><ele>809.0</ele><time>2026-05-02T15:47:01.562Z</time></trkpt><trkpt lat="42.1973283" lon="13.2601367"><ele>809.0</ele><time>2026-05-02T15:47:02.563Z</time></trkpt><trkpt lat="42.1974367" lon="13.260085"><ele>808.75</ele><time>2026-05-02T15:47:03.562Z</time></trkpt><trkpt lat="42.19755" lon="13.2600217"><ele>808.5</ele><time>2026-05-02T15:47:04.563Z</time></trkpt><trkpt lat="42.1976633" lon="13.25994"><ele>808.25</ele><time>2026-05-02T15:47:05.563Z</time></trkpt><trkpt lat="42.1977767" lon="13.2598367"><ele>808.0</ele><time>2026-05-02T15:47:06.562Z</time></trkpt><trkpt lat="42.1978833" lon="13.25973"><ele>808.0</ele><time>2026-05-02T15:47:07.562Z</time></trkpt><trkpt lat="42.1979867" lon="13.2596333"><ele>808.0</ele><time>2026-05-02T15:47:08.562Z</time></trkpt><trkpt lat="42.19808" lon="13.259535"><ele>808.0</ele><time>2026-05-02T15:47:09.562Z</time></trkpt><trkpt lat="42.1981617" lon="13.2594617"><ele>808.0</ele><time>2026-05-02T15:47:10.563Z</time></trkpt><trkpt lat="42.1982283" lon="13.2594133"><ele>808.0</ele><time>2026-05-02T15:47:11.563Z</time></trkpt><trkpt lat="42.1983017" lon="13.2593933"><ele>809.25</ele><time>2026-05-02T15:47:12.562Z</time></trkpt><trkpt lat="42.1983933" lon="13.2594017"><ele>810.5</ele><time>2026-05-02T15:47:13.562Z</time></trkpt><trkpt lat="42.1985017" lon="13.2594017"><ele>811.75</ele><time>2026-05-02T15:47:14.562Z</time></trkpt><trkpt lat="42.19863" lon="13.25938"><ele>813.0</ele><time>2026-05-02T15:47:15.563Z</time></trkpt><trkpt lat="42.1987517" lon="13.259335"><ele>813.0</ele><time>2026-05-02T15:47:16.562Z</time></trkpt><trkpt lat="42.1988633" lon="13.259275"><ele>813.0</ele><time>2026-05-02T15:47:17.562Z</time></trkpt><trkpt lat="42.1989767" lon="13.2592083"><ele>813.0</ele><time>2026-05-02T15:47:18.563Z</time></trkpt><trkpt lat="42.1990867" lon="13.2591383"><ele>813.0</ele><time>2026-05-02T15:47:19.562Z</time></trkpt><trkpt lat="42.1991883" lon="13.2590667"><ele>813.5999999999999</ele><time>2026-05-02T15:47:20.563Z</time></trkpt><trkpt lat="42.1992767" lon="13.2590083"><ele>814.1999999999999</ele><time>2026-05-02T15:47:21.562Z</time></trkpt><trkpt lat="42.1993683" lon="13.25897"><ele>814.8</ele><time>2026-05-02T15:47:22.563Z</time></trkpt><trkpt lat="42.1994583" lon="13.2589733"><ele>815.4</ele><time>2026-05-02T15:47:23.563Z</time></trkpt><trkpt lat="42.1995533" lon="13.2590067"><ele>816.0</ele><time>2026-05-02T15:47:24.563Z</time></trkpt><trkpt lat="42.1996383" lon="13.25905"><ele>816.0</ele><time>2026-05-02T15:47:25.563Z</time></trkpt><trkpt lat="42.19972" lon="13.2591017"><ele>816.0</ele><time>2026-05-02T15:47:26.563Z</time></trkpt><trkpt lat="42.1997933" lon="13.2591617"><ele>816.0</ele><time>2026-05-02T15:47:27.562Z</time></trkpt><trkpt lat="42.1998817" lon="13.2592317"><ele>816.0</ele><time>2026-05-02T15:47:29.563Z</time></trkpt><trkpt lat="42.1999217" lon="13.2590917"><ele>816.0</ele><time>2026-05-02T15:49:34.562Z</time></trkpt><trkpt lat="42.199875" lon="13.2589533"><ele>815.6666666666667</ele><time>2026-05-02T15:49:35.561Z</time></trkpt><trkpt lat="42.1998183" lon="13.25877"><ele>815.3333333333334</ele><time>2026-05-02T15:49:36.561Z</time></trkpt><trkpt lat="42.1997533" lon="13.2585617"><ele>815.0</ele><time>2026-05-02T15:49:37.562Z</time></trkpt><trkpt lat="42.1996933" lon="13.2583767"><ele>815.0</ele><time>2026-05-02T15:49:38.561Z</time></trkpt><trkpt lat="42.1996433" lon="13.2582183"><ele>815.0</ele><time>2026-05-02T15:49:39.561Z</time></trkpt><trkpt lat="42.199605" lon="13.258085"><ele>815.0</ele><time>2026-05-02T15:49:40.562Z</time></trkpt><trkpt lat="42.1995767" lon="13.2579867"><ele>815.0</ele><time>2026-05-02T15:49:41.561Z</time></trkpt><trkpt lat="42.1995733" lon="13.2577983"><ele>815.4</ele><time>2026-05-02T15:49:43.561Z</time></trkpt><trkpt lat="42.1995967" lon="13.2576767"><ele>815.8</ele><time>2026-05-02T15:49:44.561Z</time></trkpt><trkpt lat="42.1996383" lon="13.25755"><ele>816.2</ele><time>2026-05-02T15:49:45.561Z</time></trkpt><trkpt lat="42.1996733" lon="13.2574267"><ele>816.6</ele><time>2026-05-02T15:49:46.561Z</time></trkpt><trkpt lat="42.1997167" lon="13.257325"><ele>817.0</ele><time>2026-05-02T15:49:47.561Z</time></trkpt><trkpt lat="42.1997667" lon="13.257255"><ele>818.0</ele><time>2026-05-02T15:49:48.561Z</time></trkpt><trkpt lat="42.1998567" lon="13.2572067"><ele>819.0</ele><time>2026-05-02T15:49:50.562Z</time></trkpt><trkpt lat="42.19984" lon="13.2570733"><ele>820.0</ele><time>2026-05-02T15:49:54.561Z</time></trkpt><trkpt lat="42.1997683" lon="13.2569567"><ele>821.0</ele><time>2026-05-02T15:49:56.561Z</time></trkpt><trkpt lat="42.1996883" lon="13.2568233"><ele>822.0</ele><time>2026-05-02T15:49:58.561Z</time></trkpt><trkpt lat="42.1996467" lon="13.2567083"><ele>822.0</ele><time>2026-05-02T15:50:00.562Z</time></trkpt><trkpt lat="42.1996933" lon="13.25664"><ele>822.0</ele><time>2026-05-02T15:50:02.561Z</time></trkpt><trkpt lat="42.1997917" lon="13.2566967"><ele>822.0</ele><time>2026-05-02T15:50:04.562Z</time></trkpt><trkpt lat="42.1998483" lon="13.25675"><ele>822.0</ele><time>2026-05-02T15:50:05.562Z</time></trkpt><trkpt lat="42.19991" lon="13.2568167"><ele>822.0</ele><time>2026-05-02T15:50:06.561Z</time></trkpt><trkpt lat="42.1999733" lon="13.256865"><ele>822.0</ele><time>2026-05-02T15:50:07.562Z</time></trkpt><trkpt lat="42.2000533" lon="13.2568833"><ele>825.0</ele><time>2026-05-02T15:50:08.562Z</time></trkpt><trkpt lat="42.2001417" lon="13.2569"><ele>828.0</ele><time>2026-05-02T15:50:09.561Z</time></trkpt><trkpt lat="42.2002283" lon="13.2569183"><ele>831.0</ele><time>2026-05-02T15:50:10.562Z</time></trkpt><trkpt lat="42.2003167" lon="13.2569333"><ele>834.0</ele><time>2026-05-02T15:50:11.562Z</time></trkpt><trkpt lat="42.2004033" lon="13.256955"><ele>837.0</ele><time>2026-05-02T15:50:12.562Z</time></trkpt><trkpt lat="42.2004983" lon="13.25697"><ele>837.0</ele><time>2026-05-02T15:50:13.561Z</time></trkpt><trkpt lat="42.2005967" lon="13.2569867"><ele>837.0</ele><time>2026-05-02T15:50:14.562Z</time></trkpt><trkpt lat="42.2007033" lon="13.2570067"><ele>837.0</ele><time>2026-05-02T15:50:15.562Z</time></trkpt><trkpt lat="42.2008117" lon="13.2570183"><ele>837.0</ele><time>2026-05-02T15:50:16.562Z</time></trkpt><trkpt lat="42.2008933" lon="13.25703"><ele>837.0</ele><time>2026-05-02T15:50:17.561Z</time></trkpt><trkpt lat="42.200965" lon="13.25702"><ele>840.2</ele><time>2026-05-02T15:50:19.562Z</time></trkpt><trkpt lat="42.200905" lon="13.2569117"><ele>843.4000000000001</ele><time>2026-05-02T15:50:22.562Z</time></trkpt><trkpt lat="42.20097" lon="13.2568383"><ele>846.5999999999999</ele><time>2026-05-02T15:50:26.561Z</time></trkpt><trkpt lat="42.2010833" lon="13.25683"><ele>849.8</ele><time>2026-05-02T15:50:28.562Z</time></trkpt><trkpt lat="42.2012083" lon="13.2568433"><ele>853.0</ele><time>2026-05-02T15:50:30.562Z</time></trkpt><trkpt lat="42.20129" lon="13.2568517"><ele>852.9999999999999</ele><time>2026-05-02T15:50:31.562Z</time></trkpt><trkpt lat="42.20137" lon="13.2568367"><ele>853.0</ele><time>2026-05-02T15:50:32.562Z</time></trkpt><trkpt lat="42.2014533" lon="13.2568217"><ele>853.0</ele><time>2026-05-02T15:50:33.561Z</time></trkpt><trkpt lat="42.2015367" lon="13.2568083"><ele>853.0</ele><time>2026-05-02T15:50:34.561Z</time></trkpt><trkpt lat="42.2016217" lon="13.2568067"><ele>852.9999999999999</ele><time>2026-05-02T15:50:35.562Z</time></trkpt><trkpt lat="42.201705" lon="13.25681"><ele>853.0</ele><time>2026-05-02T15:50:36.561Z</time></trkpt><trkpt lat="42.2017967" lon="13.25682"><ele>856.4</ele><time>2026-05-02T15:50:37.562Z</time></trkpt><trkpt lat="42.201895" lon="13.2568283"><ele>859.8</ele><time>2026-05-02T15:50:38.562Z</time></trkpt><trkpt lat="42.2019933" lon="13.2568267"><ele>863.2</ele><time>2026-05-02T15:50:39.561Z</time></trkpt><trkpt lat="42.2020867" lon="13.2568233"><ele>866.6</ele><time>2026-05-02T15:50:40.561Z</time></trkpt><trkpt lat="42.2021733" lon="13.25682"><ele>870.0</ele><time>2026-05-02T15:50:41.561Z</time></trkpt><trkpt lat="42.2022617" lon="13.25681"><ele>871.1666666666666</ele><time>2026-05-02T15:50:42.562Z</time></trkpt><trkpt lat="42.20234" lon="13.256795"><ele>872.3333333333333</ele><time>2026-05-02T15:50:43.561Z</time></trkpt><trkpt lat="42.2024133" lon="13.256775"><ele>873.5</ele><time>2026-05-02T15:50:44.562Z</time></trkpt><trkpt lat="42.2024783" lon="13.2567433"><ele>874.6666666666666</ele><time>2026-05-02T15:50:45.561Z</time></trkpt><trkpt lat="42.202545" lon="13.2567183"><ele>875.8333333333333</ele><time>2026-05-02T15:50:46.562Z</time></trkpt><trkpt lat="42.2026217" lon="13.2566933"><ele>877.0</ele><time>2026-05-02T15:50:47.561Z</time></trkpt><trkpt lat="42.202705" lon="13.2566667"><ele>877.0</ele><time>2026-05-02T15:50:48.561Z</time></trkpt><trkpt lat="42.2027767" lon="13.2566333"><ele>877.0</ele><time>2026-05-02T15:50:49.561Z</time></trkpt><trkpt lat="42.2028567" lon="13.2565717"><ele>877.0</ele><time>2026-05-02T15:50:51.562Z</time></trkpt><trkpt lat="42.2029233" lon="13.2564533"><ele>877.0</ele><time>2026-05-02T15:50:53.562Z</time></trkpt><trkpt lat="42.202995" lon="13.2563167"><ele>877.0</ele><time>2026-05-02T15:50:55.561Z</time></trkpt><trkpt lat="42.20305" lon="13.256165"><ele>877.9999999999999</ele><time>2026-05-02T15:50:57.562Z</time></trkpt><trkpt lat="42.2030867" lon="13.2560767"><ele>879.0</ele><time>2026-05-02T15:50:58.561Z</time></trkpt><trkpt lat="42.2031383" lon="13.25599"><ele>880.0</ele><time>2026-05-02T15:50:59.562Z</time></trkpt><trkpt lat="42.203195" lon="13.2559"><ele>881.0</ele><time>2026-05-02T15:51:00.562Z</time></trkpt><trkpt lat="42.20325" lon="13.2558133"><ele>881.9999999999999</ele><time>2026-05-02T15:51:01.562Z</time></trkpt><trkpt lat="42.2033033" lon="13.2557283"><ele>883.0</ele><time>2026-05-02T15:51:02.561Z</time></trkpt><trkpt lat="42.2033383" lon="13.2556383"><ele>884.8333333333333</ele><time>2026-05-02T15:51:03.562Z</time></trkpt><trkpt lat="42.2033417" lon="13.2555467"><ele>886.6666666666666</ele><time>2026-05-02T15:51:04.561Z</time></trkpt><trkpt lat="42.20332" lon="13.25545"><ele>888.5</ele><time>2026-05-02T15:51:05.562Z</time></trkpt><trkpt lat="42.2032933" lon="13.25535"><ele>890.3333333333333</ele><time>2026-05-02T15:51:06.561Z</time></trkpt><trkpt lat="42.2032733" lon="13.2552367"><ele>892.1666666666666</ele><time>2026-05-02T15:51:07.562Z</time></trkpt><trkpt lat="42.2032633" lon="13.25513"><ele>894.0</ele><time>2026-05-02T15:51:08.561Z</time></trkpt><trkpt lat="42.2032583" lon="13.25504"><ele>894.0</ele><time>2026-05-02T15:51:09.562Z</time></trkpt><trkpt lat="42.2032817" lon="13.2549283"><ele>894.0</ele><time>2026-05-02T15:51:11.562Z</time></trkpt><trkpt lat="42.2033417" lon="13.2549"><ele>894.0</ele><time>2026-05-02T15:51:13.561Z</time></trkpt><trkpt lat="42.2034117" lon="13.2549683"><ele>894.0</ele><time>2026-05-02T15:51:15.562Z</time></trkpt><trkpt lat="42.203495" lon="13.25506"><ele>894.0</ele><time>2026-05-02T15:51:17.561Z</time></trkpt><trkpt lat="42.2035667" lon="13.255105"><ele>894.0</ele><time>2026-05-02T15:51:18.562Z</time></trkpt><trkpt lat="42.2036533" lon="13.2551717"><ele>894.0</ele><time>2026-05-02T15:51:19.562Z</time></trkpt><trkpt lat="42.203755" lon="13.2552617"><ele>894.0</ele><time>2026-05-02T15:51:20.561Z</time></trkpt><trkpt lat="42.20386" lon="13.2553667"><ele>894.0</ele><time>2026-05-02T15:51:21.561Z</time></trkpt><trkpt lat="42.2039667" lon="13.2554733"><ele>894.0</ele><time>2026-05-02T15:51:22.56Z</time></trkpt><trkpt lat="42.20407" lon="13.2556033"><ele>895.5</ele><time>2026-05-02T15:51:23.561Z</time></trkpt><trkpt lat="42.2041667" lon="13.25574"><ele>897.0</ele><time>2026-05-02T15:51:24.561Z</time></trkpt><trkpt lat="42.204275" lon="13.25586"><ele>898.5</ele><time>2026-05-02T15:51:25.56Z</time></trkpt><trkpt lat="42.2044017" lon="13.25597"><ele>900.0</ele><time>2026-05-02T15:51:26.561Z</time></trkpt><trkpt lat="42.2045517" lon="13.2560633"><ele>900.0</ele><time>2026-05-02T15:51:27.561Z</time></trkpt><trkpt lat="42.2047017" lon="13.2561567"><ele>900.0</ele><time>2026-05-02T15:51:28.56Z</time></trkpt><trkpt lat="42.2048267" lon="13.2562667"><ele>900.0</ele><time>2026-05-02T15:51:29.56Z</time></trkpt><trkpt lat="42.2049433" lon="13.2564017"><ele>903.3333333333333</ele><time>2026-05-02T15:51:30.561Z</time></trkpt><trkpt lat="42.2050533" lon="13.25655"><ele>906.6666666666666</ele><time>2026-05-02T15:51:31.561Z</time></trkpt><trkpt lat="42.2051567" lon="13.256735"><ele>910.0</ele><time>2026-05-02T15:51:32.561Z</time></trkpt><trkpt lat="42.2052567" lon="13.2569367"><ele>910.0</ele><time>2026-05-02T15:51:33.561Z</time></trkpt><trkpt lat="42.20535" lon="13.2571367"><ele>910.0</ele><time>2026-05-02T15:51:34.561Z</time></trkpt><trkpt lat="42.2054167" lon="13.2573283"><ele>910.0</ele><time>2026-05-02T15:51:35.561Z</time></trkpt><trkpt lat="42.2054783" lon="13.2575017"><ele>907.6</ele><time>2026-05-02T15:51:36.561Z</time></trkpt><trkpt lat="42.205545" lon="13.2576433"><ele>905.2</ele><time>2026-05-02T15:51:37.56Z</time></trkpt><trkpt lat="42.2056083" lon="13.25774"><ele>902.8</ele><time>2026-05-02T15:51:38.561Z</time></trkpt><trkpt lat="42.20568" lon="13.25781"><ele>900.4</ele><time>2026-05-02T15:51:39.561Z</time></trkpt><trkpt lat="42.2057767" lon="13.25787"><ele>898.0</ele><time>2026-05-02T15:51:40.561Z</time></trkpt><trkpt lat="42.2058917" lon="13.25794"><ele>901.8</ele><time>2026-05-02T15:51:41.56Z</time></trkpt><trkpt lat="42.2060033" lon="13.25801"><ele>905.5999999999999</ele><time>2026-05-02T15:51:42.56Z</time></trkpt><trkpt lat="42.2061" lon="13.25809"><ele>909.4000000000001</ele><time>2026-05-02T15:51:43.56Z</time></trkpt><trkpt lat="42.2061683" lon="13.2581783"><ele>913.2</ele><time>2026-05-02T15:51:44.561Z</time></trkpt><trkpt lat="42.206205" lon="13.2582917"><ele>917.0</ele><time>2026-05-02T15:51:45.56Z</time></trkpt><trkpt lat="42.2062133" lon="13.2584383"><ele>917.0</ele><time>2026-05-02T15:51:46.56Z</time></trkpt><trkpt lat="42.20621" lon="13.2586283"><ele>917.0</ele><time>2026-05-02T15:51:47.56Z</time></trkpt><trkpt lat="42.2061883" lon="13.2588467"><ele>917.0</ele><time>2026-05-02T15:51:48.561Z</time></trkpt><trkpt lat="42.206175" lon="13.2590817"><ele>915.5</ele><time>2026-05-02T15:51:49.561Z</time></trkpt><trkpt lat="42.2061717" lon="13.2593"><ele>914.0</ele><time>2026-05-02T15:51:50.56Z</time></trkpt><trkpt lat="42.2061733" lon="13.2594917"><ele>912.5</ele><time>2026-05-02T15:51:51.56Z</time></trkpt><trkpt lat="42.20619" lon="13.2596517"><ele>911.0</ele><time>2026-05-02T15:51:52.56Z</time></trkpt><trkpt lat="42.20625" lon="13.2597933"><ele>909.5</ele><time>2026-05-02T15:51:53.561Z</time></trkpt><trkpt lat="42.2063367" lon="13.2599317"><ele>908.0</ele><time>2026-05-02T15:51:54.561Z</time></trkpt><trkpt lat="42.2064433" lon="13.260075"><ele>906.5</ele><time>2026-05-02T15:51:55.561Z</time></trkpt><trkpt lat="42.2065617" lon="13.2602267"><ele>905.0</ele><time>2026-05-02T15:51:56.56Z</time></trkpt><trkpt lat="42.2066817" lon="13.2604"><ele>912.0</ele><time>2026-05-02T15:51:57.56Z</time></trkpt><trkpt lat="42.206805" lon="13.2606"><ele>919.0</ele><time>2026-05-02T15:51:58.561Z</time></trkpt><trkpt lat="42.2069317" lon="13.26081"><ele>926.0</ele><time>2026-05-02T15:51:59.561Z</time></trkpt><trkpt lat="42.207055" lon="13.261005"><ele>926.0</ele><time>2026-05-02T15:52:00.561Z</time></trkpt><trkpt lat="42.2071583" lon="13.2612017"><ele>926.0</ele><time>2026-05-02T15:52:01.56Z</time></trkpt><trkpt lat="42.20725" lon="13.2613767"><ele>926.0</ele><time>2026-05-02T15:52:02.561Z</time></trkpt><trkpt lat="42.2073383" lon="13.261525"><ele>929.4</ele><time>2026-05-02T15:52:03.561Z</time></trkpt><trkpt lat="42.2074267" lon="13.2616617"><ele>932.8</ele><time>2026-05-02T15:52:04.56Z</time></trkpt><trkpt lat="42.207505" lon="13.26177"><ele>936.1999999999999</ele><time>2026-05-02T15:52:05.561Z</time></trkpt><trkpt lat="42.2075833" lon="13.2618417"><ele>939.5999999999999</ele><time>2026-05-02T15:52:06.561Z</time></trkpt><trkpt lat="42.2076583" lon="13.26188"><ele>943.0</ele><time>2026-05-02T15:52:07.56Z</time></trkpt><trkpt lat="42.2077333" lon="13.2618817"><ele>943.0</ele><time>2026-05-02T15:52:08.56Z</time></trkpt><trkpt lat="42.20781" lon="13.261815"><ele>943.0</ele><time>2026-05-02T15:52:09.56Z</time></trkpt><trkpt lat="42.2078717" lon="13.2617233"><ele>943.0</ele><time>2026-05-02T15:52:10.56Z</time></trkpt><trkpt lat="42.2079133" lon="13.2616317"><ele>943.0</ele><time>2026-05-02T15:52:11.561Z</time></trkpt><trkpt lat="42.2078767" lon="13.2615067"><ele>943.0</ele><time>2026-05-02T15:52:13.56Z</time></trkpt><trkpt lat="42.2077667" lon="13.26152"><ele>943.0</ele><time>2026-05-02T15:52:15.561Z</time></trkpt><trkpt lat="42.2076583" lon="13.261535"><ele>943.0</ele><time>2026-05-02T15:52:17.56Z</time></trkpt><trkpt lat="42.2076167" lon="13.2614633"><ele>943.0</ele><time>2026-05-02T15:52:18.56Z</time></trkpt><trkpt lat="42.207585" lon="13.2613283"><ele>943.0</ele><time>2026-05-02T15:52:19.561Z</time></trkpt><trkpt lat="42.2075417" lon="13.261165"><ele>943.0</ele><time>2026-05-02T15:52:20.561Z</time></trkpt><trkpt lat="42.2074617" lon="13.2610017"><ele>943.0</ele><time>2026-05-02T15:52:21.56Z</time></trkpt><trkpt lat="42.2073667" lon="13.260815"><ele>943.0</ele><time>2026-05-02T15:52:22.56Z</time></trkpt><trkpt lat="42.2072733" lon="13.2606133"><ele>943.0</ele><time>2026-05-02T15:52:23.56Z</time></trkpt><trkpt lat="42.2071867" lon="13.2604"><ele>943.0</ele><time>2026-05-02T15:52:24.56Z</time></trkpt><trkpt lat="42.2071133" lon="13.2601917"><ele>943.0</ele><time>2026-05-02T15:52:25.561Z</time></trkpt><trkpt lat="42.2070483" lon="13.2599917"><ele>943.0</ele><time>2026-05-02T15:52:26.561Z</time></trkpt><trkpt lat="42.2069917" lon="13.2598067"><ele>944.5999999999999</ele><time>2026-05-02T15:52:27.56Z</time></trkpt><trkpt lat="42.2069417" lon="13.25966"><ele>946.1999999999999</ele><time>2026-05-02T15:52:28.561Z</time></trkpt><trkpt lat="42.2069117" lon="13.2595417"><ele>947.8</ele><time>2026-05-02T15:52:29.561Z</time></trkpt><trkpt lat="42.2069083" lon="13.2594267"><ele>949.4</ele><time>2026-05-02T15:52:30.561Z</time></trkpt><trkpt lat="42.2069267" lon="13.2592983"><ele>951.0</ele><time>2026-05-02T15:52:31.56Z</time></trkpt><trkpt lat="42.2069867" lon="13.259145"><ele>951.0</ele><time>2026-05-02T15:52:32.56Z</time></trkpt><trkpt lat="42.2070617" lon="13.25898"><ele>951.0</ele><time>2026-05-02T15:52:33.56Z</time></trkpt><trkpt lat="42.2071383" lon="13.2588033"><ele>951.0</ele><time>2026-05-02T15:52:34.561Z</time></trkpt><trkpt lat="42.2072083" lon="13.2586133"><ele>951.0</ele><time>2026-05-02T15:52:35.561Z</time></trkpt><trkpt lat="42.2072583" lon="13.2584"><ele>951.0</ele><time>2026-05-02T15:52:36.56Z</time></trkpt><trkpt lat="42.2072917" lon="13.2581867"><ele>951.0</ele><time>2026-05-02T15:52:37.561Z</time></trkpt><trkpt lat="42.2073067" lon="13.257995"><ele>954.0</ele><time>2026-05-02T15:52:38.561Z</time></trkpt><trkpt lat="42.207305" lon="13.2578333"><ele>956.9999999999999</ele><time>2026-05-02T15:52:39.561Z</time></trkpt><trkpt lat="42.20728" lon="13.2577067"><ele>959.9999999999999</ele><time>2026-05-02T15:52:40.561Z</time></trkpt><trkpt lat="42.207225" lon="13.25759"><ele>963.0</ele><time>2026-05-02T15:52:41.56Z</time></trkpt><trkpt lat="42.2071417" lon="13.2574583"><ele>966.0</ele><time>2026-05-02T15:52:42.561Z</time></trkpt><trkpt lat="42.2070317" lon="13.2573217"><ele>973.0</ele><time>2026-05-02T15:52:43.56Z</time></trkpt><trkpt lat="42.2069233" lon="13.257165"><ele>980.0</ele><time>2026-05-02T15:52:44.56Z</time></trkpt><trkpt lat="42.2068167" lon="13.257015"><ele>987.0</ele><time>2026-05-02T15:52:45.56Z</time></trkpt><trkpt lat="42.206725" lon="13.256865"><ele>987.0</ele><time>2026-05-02T15:52:46.561Z</time></trkpt><trkpt lat="42.2066567" lon="13.256715"><ele>987.0</ele><time>2026-05-02T15:52:47.56Z</time></trkpt><trkpt lat="42.2065933" lon="13.2565517"><ele>987.0</ele><time>2026-05-02T15:52:48.561Z</time></trkpt><trkpt lat="42.2065383" lon="13.2563717"><ele>987.0</ele><time>2026-05-02T15:52:49.561Z</time></trkpt><trkpt lat="42.2064983" lon="13.25619"><ele>984.0</ele><time>2026-05-02T15:52:50.56Z</time></trkpt><trkpt lat="42.2064717" lon="13.25602"><ele>981.0</ele><time>2026-05-02T15:52:51.561Z</time></trkpt><trkpt lat="42.20645" lon="13.2558533"><ele>978.0</ele><time>2026-05-02T15:52:52.561Z</time></trkpt><trkpt lat="42.206455" lon="13.2556633"><ele>975.0</ele><time>2026-05-02T15:52:53.561Z</time></trkpt><trkpt lat="42.2064683" lon="13.2554733"><ele>975.0</ele><time>2026-05-02T15:52:54.561Z</time></trkpt><trkpt lat="42.2064767" lon="13.255285"><ele>975.0</ele><time>2026-05-02T15:52:55.561Z</time></trkpt><trkpt lat="42.2064767" lon="13.2550683"><ele>975.0</ele><time>2026-05-02T15:52:56.56Z</time></trkpt><trkpt lat="42.2064533" lon="13.2548283"><ele>976.3333333333333</ele><time>2026-05-02T15:52:57.561Z</time></trkpt><trkpt lat="42.2064167" lon="13.254595"><ele>977.6666666666666</ele><time>2026-05-02T15:52:58.56Z</time></trkpt><trkpt lat="42.2064" lon="13.254375"><ele>979.0</ele><time>2026-05-02T15:52:59.56Z</time></trkpt><trkpt lat="42.2064" lon="13.2541933"><ele>979.0</ele><time>2026-05-02T15:53:00.56Z</time></trkpt><trkpt lat="42.2064167" lon="13.253995"><ele>979.0</ele><time>2026-05-02T15:53:01.56Z</time></trkpt><trkpt lat="42.2064567" lon="13.2537817"><ele>979.0</ele><time>2026-05-02T15:53:02.561Z</time></trkpt><trkpt lat="42.2065067" lon="13.25356"><ele>987.0</ele><time>2026-05-02T15:53:03.56Z</time></trkpt><trkpt lat="42.2065767" lon="13.25334"><ele>995.0</ele><time>2026-05-02T15:53:04.56Z</time></trkpt><trkpt lat="42.2066533" lon="13.253125"><ele>1003.0</ele><time>2026-05-02T15:53:05.561Z</time></trkpt><trkpt lat="42.20672" lon="13.2529283"><ele>1002.9999999999999</ele><time>2026-05-02T15:53:06.561Z</time></trkpt><trkpt lat="42.2067683" lon="13.25278"><ele>1003.0</ele><time>2026-05-02T15:53:07.561Z</time></trkpt><trkpt lat="42.2068" lon="13.252675"><ele>1003.0</ele><time>2026-05-02T15:53:08.561Z</time></trkpt><trkpt lat="42.2068467" lon="13.2525917"><ele>1003.0</ele><time>2026-05-02T15:53:10.561Z</time></trkpt><trkpt lat="42.206875" lon="13.252705"><ele>1002.9999999999999</ele><time>2026-05-02T15:53:12.561Z</time></trkpt><trkpt lat="42.2068733" lon="13.2527933"><ele>1003.0</ele><time>2026-05-02T15:53:13.561Z</time></trkpt><trkpt lat="42.20686" lon="13.252885"><ele>1002.9999999999999</ele><time>2026-05-02T15:53:14.561Z</time></trkpt><trkpt lat="42.206845" lon="13.2529833"><ele>1003.0</ele><time>2026-05-02T15:53:15.561Z</time></trkpt><trkpt lat="42.206835" lon="13.2530867"><ele>1003.0</ele><time>2026-05-02T15:53:16.561Z</time></trkpt><trkpt lat="42.206825" lon="13.2531967"><ele>1003.0</ele><time>2026-05-02T15:53:17.56Z</time></trkpt><trkpt lat="42.2068233" lon="13.25332"><ele>1002.9999999999999</ele><time>2026-05-02T15:53:18.561Z</time></trkpt><trkpt lat="42.20683" lon="13.2534467"><ele>1003.0</ele><time>2026-05-02T15:53:19.56Z</time></trkpt><trkpt lat="42.2068433" lon="13.25357"><ele>1003.8333333333333</ele><time>2026-05-02T15:53:20.561Z</time></trkpt><trkpt lat="42.206855" lon="13.2536917"><ele>1004.6666666666666</ele><time>2026-05-02T15:53:21.56Z</time></trkpt><trkpt lat="42.206865" lon="13.253795"><ele>1005.5</ele><time>2026-05-02T15:53:22.56Z</time></trkpt><trkpt lat="42.206895" lon="13.253895"><ele>1006.3333333333333</ele><time>2026-05-02T15:53:23.561Z</time></trkpt><trkpt lat="42.20693" lon="13.2539917"><ele>1007.1666666666666</ele><time>2026-05-02T15:53:24.56Z</time></trkpt><trkpt lat="42.2069767" lon="13.2540983"><ele>1008.0</ele><time>2026-05-02T15:53:25.561Z</time></trkpt><trkpt lat="42.2070217" lon="13.2542017"><ele>1007.5999999999999</ele><time>2026-05-02T15:53:26.561Z</time></trkpt><trkpt lat="42.2070583" lon="13.2543233"><ele>1007.1999999999999</ele><time>2026-05-02T15:53:27.56Z</time></trkpt><trkpt lat="42.207085" lon="13.2544583"><ele>1006.8</ele><time>2026-05-02T15:53:28.56Z</time></trkpt><trkpt lat="42.2071183" lon="13.2546"><ele>1006.4</ele><time>2026-05-02T15:53:29.561Z</time></trkpt><trkpt lat="42.2071483" lon="13.25474"><ele>1006.0</ele><time>2026-05-02T15:53:30.561Z</time></trkpt><trkpt lat="42.2071833" lon="13.2548867"><ele>1006.0</ele><time>2026-05-02T15:53:31.561Z</time></trkpt><trkpt lat="42.2072217" lon="13.2550383"><ele>1006.0</ele><time>2026-05-02T15:53:32.56Z</time></trkpt><trkpt lat="42.2072533" lon="13.2551833"><ele>1006.0</ele><time>2026-05-02T15:53:33.561Z</time></trkpt><trkpt lat="42.20728" lon="13.2553433"><ele>1006.0</ele><time>2026-05-02T15:53:34.56Z</time></trkpt><trkpt lat="42.20731" lon="13.25552"><ele>1013.75</ele><time>2026-05-02T15:53:35.561Z</time></trkpt><trkpt lat="42.2073483" lon="13.255695"><ele>1021.5</ele><time>2026-05-02T15:53:36.561Z</time></trkpt><trkpt lat="42.2073917" lon="13.2558567"><ele>1029.25</ele><time>2026-05-02T15:53:37.56Z</time></trkpt><trkpt lat="42.207425" lon="13.2560033"><ele>1037.0</ele><time>2026-05-02T15:53:38.56Z</time></trkpt><trkpt lat="42.2074667" lon="13.25614"><ele>1037.0</ele><time>2026-05-02T15:53:39.561Z</time></trkpt><trkpt lat="42.20752" lon="13.25625"><ele>1037.0</ele><time>2026-05-02T15:53:40.56Z</time></trkpt><trkpt lat="42.2075767" lon="13.256345"><ele>1037.0</ele><time>2026-05-02T15:53:41.561Z</time></trkpt><trkpt lat="42.20765" lon="13.2564333"><ele>1037.0</ele><time>2026-05-02T15:53:42.56Z</time></trkpt><trkpt lat="42.2077367" lon="13.256525"><ele>1037.0</ele><time>2026-05-02T15:53:43.56Z</time></trkpt><trkpt lat="42.2078317" lon="13.256635"><ele>1033.25</ele><time>2026-05-02T15:53:44.56Z</time></trkpt><trkpt lat="42.207925" lon="13.25675"><ele>1029.5</ele><time>2026-05-02T15:53:45.561Z</time></trkpt><trkpt lat="42.20801" lon="13.25686"><ele>1025.75</ele><time>2026-05-02T15:53:46.561Z</time></trkpt><trkpt lat="42.20809" lon="13.2569833"><ele>1022.0</ele><time>2026-05-02T15:53:47.561Z</time></trkpt><trkpt lat="42.2081733" lon="13.2571167"><ele>1028.0</ele><time>2026-05-02T15:53:48.56Z</time></trkpt><trkpt lat="42.2082367" lon="13.257255"><ele>1034.0</ele><time>2026-05-02T15:53:49.561Z</time></trkpt><trkpt lat="42.2082967" lon="13.2573883"><ele>1040.0</ele><time>2026-05-02T15:53:50.56Z</time></trkpt><trkpt lat="42.208345" lon="13.2575183"><ele>1046.0</ele><time>2026-05-02T15:53:51.561Z</time></trkpt><trkpt lat="42.2083717" lon="13.2576567"><ele>1046.0</ele><time>2026-05-02T15:53:52.561Z</time></trkpt><trkpt lat="42.2083933" lon="13.2578217"><ele>1046.0</ele><time>2026-05-02T15:53:53.561Z</time></trkpt><trkpt lat="42.2084067" lon="13.25801"><ele>1046.0</ele><time>2026-05-02T15:53:54.56Z</time></trkpt><trkpt lat="42.2084183" lon="13.258195"><ele>1046.0</ele><time>2026-05-02T15:53:55.561Z</time></trkpt><trkpt lat="42.208435" lon="13.2583717"><ele>1044.6</ele><time>2026-05-02T15:53:56.561Z</time></trkpt><trkpt lat="42.208465" lon="13.2585333"><ele>1043.1999999999998</ele><time>2026-05-02T15:53:57.56Z</time></trkpt><trkpt lat="42.2085" lon="13.2586833"><ele>1041.8000000000002</ele><time>2026-05-02T15:53:58.561Z</time></trkpt><trkpt lat="42.2085333" lon="13.2588117"><ele>1040.4</ele><time>2026-05-02T15:53:59.561Z</time></trkpt><trkpt lat="42.2085717" lon="13.2589017"><ele>1039.0</ele><time>2026-05-02T15:54:00.56Z</time></trkpt><trkpt lat="42.208625" lon="13.258975"><ele>1037.8333333333333</ele><time>2026-05-02T15:54:01.561Z</time></trkpt><trkpt lat="42.20869" lon="13.25902"><ele>1036.6666666666665</ele><time>2026-05-02T15:54:02.561Z</time></trkpt><trkpt lat="42.2087683" lon="13.2590567"><ele>1035.5</ele><time>2026-05-02T15:54:03.561Z</time></trkpt><trkpt lat="42.2088467" lon="13.2590833"><ele>1034.3333333333333</ele><time>2026-05-02T15:54:04.561Z</time></trkpt><trkpt lat="42.2089367" lon="13.259105"><ele>1033.1666666666667</ele><time>2026-05-02T15:54:05.561Z</time></trkpt><trkpt lat="42.2090383" lon="13.25912"><ele>1032.0</ele><time>2026-05-02T15:54:06.56Z</time></trkpt><trkpt lat="42.209155" lon="13.2591483"><ele>1039.0</ele><time>2026-05-02T15:54:07.561Z</time></trkpt><trkpt lat="42.209275" lon="13.2591817"><ele>1046.0</ele><time>2026-05-02T15:54:08.56Z</time></trkpt><trkpt lat="42.209405" lon="13.25921"><ele>1053.0</ele><time>2026-05-02T15:54:09.561Z</time></trkpt><trkpt lat="42.209535" lon="13.2592383"><ele>1060.0</ele><time>2026-05-02T15:54:10.56Z</time></trkpt><trkpt lat="42.2096617" lon="13.2592817"><ele>1060.0</ele><time>2026-05-02T15:54:11.561Z</time></trkpt><trkpt lat="42.2097867" lon="13.2593217"><ele>1060.0</ele><time>2026-05-02T15:54:12.56Z</time></trkpt><trkpt lat="42.209915" lon="13.2593717"><ele>1060.0</ele><time>2026-05-02T15:54:13.56Z</time></trkpt><trkpt lat="42.2100333" lon="13.259445"><ele>1060.0</ele><time>2026-05-02T15:54:14.56Z</time></trkpt><trkpt lat="42.2101483" lon="13.2595317"><ele>1058.75</ele><time>2026-05-02T15:54:15.56Z</time></trkpt><trkpt lat="42.2102567" lon="13.25962"><ele>1057.5</ele><time>2026-05-02T15:54:16.561Z</time></trkpt><trkpt lat="42.210365" lon="13.2597183"><ele>1056.25</ele><time>2026-05-02T15:54:17.56Z</time></trkpt><trkpt lat="42.2104633" lon="13.2598317"><ele>1055.0</ele><time>2026-05-02T15:54:18.561Z</time></trkpt><trkpt lat="42.2105567" lon="13.2599467"><ele>1055.0</ele><time>2026-05-02T15:54:19.56Z</time></trkpt><trkpt lat="42.2106333" lon="13.26007"><ele>1055.0</ele><time>2026-05-02T15:54:20.561Z</time></trkpt><trkpt lat="42.210705" lon="13.2602183"><ele>1055.0</ele><time>2026-05-02T15:54:21.561Z</time></trkpt><trkpt lat="42.21078" lon="13.26036"><ele>1055.0</ele><time>2026-05-02T15:54:22.561Z</time></trkpt><trkpt lat="42.21086" lon="13.2604767"><ele>1057.4</ele><time>2026-05-02T15:54:23.561Z</time></trkpt><trkpt lat="42.21094" lon="13.26058"><ele>1059.8</ele><time>2026-05-02T15:54:24.561Z</time></trkpt><trkpt lat="42.2110183" lon="13.26067"><ele>1062.2</ele><time>2026-05-02T15:54:25.561Z</time></trkpt><trkpt lat="42.211105" lon="13.26075"><ele>1064.6</ele><time>2026-05-02T15:54:26.561Z</time></trkpt><trkpt lat="42.2112" lon="13.260815"><ele>1067.0</ele><time>2026-05-02T15:54:27.559Z</time></trkpt><trkpt lat="42.2113033" lon="13.2608783"><ele>1067.0</ele><time>2026-05-02T15:54:28.56Z</time></trkpt><trkpt lat="42.211405" lon="13.2609317"><ele>1067.0</ele><time>2026-05-02T15:54:29.559Z</time></trkpt><trkpt lat="42.2115117" lon="13.260955"><ele>1067.0</ele><time>2026-05-02T15:54:30.56Z</time></trkpt><trkpt lat="42.2116167" lon="13.2609683"><ele>1067.0</ele><time>2026-05-02T15:54:31.559Z</time></trkpt><trkpt lat="42.2117183" lon="13.2610033"><ele>1067.0</ele><time>2026-05-02T15:54:32.56Z</time></trkpt><trkpt lat="42.21181" lon="13.261065"><ele>1073.8</ele><time>2026-05-02T15:54:33.559Z</time></trkpt><trkpt lat="42.2118883" lon="13.2611333"><ele>1080.6</ele><time>2026-05-02T15:54:34.559Z</time></trkpt><trkpt lat="42.21195" lon="13.2611917"><ele>1087.3999999999999</ele><time>2026-05-02T15:54:35.559Z</time></trkpt><trkpt lat="42.212065" lon="13.261255"><ele>1094.2</ele><time>2026-05-02T15:54:37.559Z</time></trkpt><trkpt lat="42.2121417" lon="13.2612683"><ele>1101.0</ele><time>2026-05-02T15:54:38.56Z</time></trkpt><trkpt lat="42.212235" lon="13.2612533"><ele>1104.8</ele><time>2026-05-02T15:54:39.56Z</time></trkpt><trkpt lat="42.21234" lon="13.2612317"><ele>1108.6</ele><time>2026-05-02T15:54:40.559Z</time></trkpt><trkpt lat="42.2124283" lon="13.261205"><ele>1112.4</ele><time>2026-05-02T15:54:41.56Z</time></trkpt><trkpt lat="42.212505" lon="13.2611983"><ele>1116.2</ele><time>2026-05-02T15:54:42.56Z</time></trkpt><trkpt lat="42.21257" lon="13.2612133"><ele>1120.0</ele><time>2026-05-02T15:54:43.56Z</time></trkpt><trkpt lat="42.2126533" lon="13.2613333"><ele>1120.0</ele><time>2026-05-02T15:54:45.56Z</time></trkpt><trkpt lat="42.2127017" lon="13.26144"><ele>1120.0</ele><time>2026-05-02T15:54:46.559Z</time></trkpt><trkpt lat="42.21275" lon="13.2615583"><ele>1120.0</ele><time>2026-05-02T15:54:47.56Z</time></trkpt><trkpt lat="42.2128" lon="13.2616683"><ele>1120.0</ele><time>2026-05-02T15:54:48.56Z</time></trkpt><trkpt lat="42.2128583" lon="13.2617617"><ele>1120.0</ele><time>2026-05-02T15:54:49.559Z</time></trkpt><trkpt lat="42.2129317" lon="13.2618783"><ele>1120.8</ele><time>2026-05-02T15:54:50.56Z</time></trkpt><trkpt lat="42.2130183" lon="13.2619783"><ele>1121.6</ele><time>2026-05-02T15:54:51.559Z</time></trkpt><trkpt lat="42.2130967" lon="13.262085"><ele>1122.4</ele><time>2026-05-02T15:54:52.56Z</time></trkpt><trkpt lat="42.2131717" lon="13.262185"><ele>1123.2</ele><time>2026-05-02T15:54:53.559Z</time></trkpt><trkpt lat="42.213255" lon="13.2622933"><ele>1124.0</ele><time>2026-05-02T15:54:54.559Z</time></trkpt><trkpt lat="42.21334" lon="13.2624067"><ele>1119.75</ele><time>2026-05-02T15:54:55.559Z</time></trkpt><trkpt lat="42.2134317" lon="13.2625217"><ele>1115.5</ele><time>2026-05-02T15:54:56.56Z</time></trkpt><trkpt lat="42.2135267" lon="13.2626283"><ele>1111.25</ele><time>2026-05-02T15:54:57.56Z</time></trkpt><trkpt lat="42.213625" lon="13.26273"><ele>1107.0</ele><time>2026-05-02T15:54:58.56Z</time></trkpt><trkpt lat="42.2137167" lon="13.262825"><ele>1107.0</ele><time>2026-05-02T15:54:59.559Z</time></trkpt><trkpt lat="42.2138067" lon="13.2628933"><ele>1107.0</ele><time>2026-05-02T15:55:00.56Z</time></trkpt><trkpt lat="42.21389" lon="13.2629583"><ele>1107.0</ele><time>2026-05-02T15:55:01.56Z</time></trkpt><trkpt lat="42.2139767" lon="13.2630133"><ele>1107.0</ele><time>2026-05-02T15:55:02.559Z</time></trkpt><trkpt lat="42.2140733" lon="13.2630583"><ele>1107.0</ele><time>2026-05-02T15:55:03.56Z</time></trkpt><trkpt lat="42.21417" lon="13.26309"><ele>1108.0</ele><time>2026-05-02T15:55:04.559Z</time></trkpt><trkpt lat="42.2142733" lon="13.2631217"><ele>1109.0</ele><time>2026-05-02T15:55:05.559Z</time></trkpt><trkpt lat="42.2143767" lon="13.2631467"><ele>1110.0</ele><time>2026-05-02T15:55:06.56Z</time></trkpt><trkpt lat="42.2144917" lon="13.2631533"><ele>1111.0</ele><time>2026-05-02T15:55:07.559Z</time></trkpt><trkpt lat="42.2146067" lon="13.263135"><ele>1112.0</ele><time>2026-05-02T15:55:08.559Z</time></trkpt><trkpt lat="42.214715" lon="13.2631067"><ele>1110.0</ele><time>2026-05-02T15:55:09.56Z</time></trkpt><trkpt lat="42.2148233" lon="13.2630967"><ele>1108.0</ele><time>2026-05-02T15:55:10.56Z</time></trkpt><trkpt lat="42.2149333" lon="13.2631033"><ele>1106.0</ele><time>2026-05-02T15:55:11.56Z</time></trkpt><trkpt lat="42.2150317" lon="13.26312"><ele>1104.0</ele><time>2026-05-02T15:55:12.559Z</time></trkpt><trkpt lat="42.21513" lon="13.2631433"><ele>1102.0</ele><time>2026-05-02T15:55:13.56Z</time></trkpt><trkpt lat="42.2152167" lon="13.26318"><ele>1101.2</ele><time>2026-05-02T15:55:14.56Z</time></trkpt><trkpt lat="42.215305" lon="13.2632417"><ele>1100.4</ele><time>2026-05-02T15:55:15.56Z</time></trkpt><trkpt lat="42.21539" lon="13.2633317"><ele>1099.6</ele><time>2026-05-02T15:55:16.559Z</time></trkpt><trkpt lat="42.21546" lon="13.26342"><ele>1098.8</ele><time>2026-05-02T15:55:17.559Z</time></trkpt><trkpt lat="42.2155183" lon="13.2634983"><ele>1098.0</ele><time>2026-05-02T15:55:18.56Z</time></trkpt><trkpt lat="42.215565" lon="13.2635717"><ele>1098.0</ele><time>2026-05-02T15:55:19.56Z</time></trkpt><trkpt lat="42.2155867" lon="13.2637083"><ele>1098.0</ele><time>2026-05-02T15:55:21.559Z</time></trkpt><trkpt lat="42.215475" lon="13.2638083"><ele>1098.0</ele><time>2026-05-02T15:55:23.559Z</time></trkpt><trkpt lat="42.2153983" lon="13.2639033"><ele>1098.0</ele><time>2026-05-02T15:55:25.559Z</time></trkpt><trkpt lat="42.2153917" lon="13.26402"><ele>1098.0</ele><time>2026-05-02T15:55:27.56Z</time></trkpt><trkpt lat="42.21548" lon="13.2641367"><ele>1098.0</ele><time>2026-05-02T15:55:29.56Z</time></trkpt><trkpt lat="42.2155767" lon="13.2642017"><ele>1098.0</ele><time>2026-05-02T15:55:30.56Z</time></trkpt><trkpt lat="42.2156817" lon="13.2642483"><ele>1098.0</ele><time>2026-05-02T15:55:31.56Z</time></trkpt><trkpt lat="42.2157817" lon="13.2642683"><ele>1098.0</ele><time>2026-05-02T15:55:32.559Z</time></trkpt><trkpt lat="42.2158733" lon="13.264265"><ele>1098.0</ele><time>2026-05-02T15:55:33.56Z</time></trkpt><trkpt lat="42.21596" lon="13.2642683"><ele>1100.142857142857</ele><time>2026-05-02T15:55:34.56Z</time></trkpt><trkpt lat="42.216035" lon="13.2642817"><ele>1102.2857142857142</ele><time>2026-05-02T15:55:35.56Z</time></trkpt><trkpt lat="42.2160867" lon="13.2643333"><ele>1104.4285714285716</ele><time>2026-05-02T15:55:36.56Z</time></trkpt><trkpt lat="42.216135" lon="13.2644033"><ele>1106.5714285714284</ele><time>2026-05-02T15:55:37.56Z</time></trkpt><trkpt lat="42.21617" lon="13.2644883"><ele>1108.7142857142858</ele><time>2026-05-02T15:55:38.56Z</time></trkpt><trkpt lat="42.21619" lon="13.264585"><ele>1110.857142857143</ele><time>2026-05-02T15:55:39.559Z</time></trkpt><trkpt lat="42.2162" lon="13.2646933"><ele>1113.0</ele><time>2026-05-02T15:55:40.56Z</time></trkpt><trkpt lat="42.2161983" lon="13.2647917"><ele>1114.2857142857142</ele><time>2026-05-02T15:55:41.56Z</time></trkpt><trkpt lat="42.2161767" lon="13.264885"><ele>1115.5714285714284</ele><time>2026-05-02T15:55:42.559Z</time></trkpt><trkpt lat="42.2161617" lon="13.2649683"><ele>1116.857142857143</ele><time>2026-05-02T15:55:43.56Z</time></trkpt><trkpt lat="42.21616" lon="13.2650533"><ele>1118.142857142857</ele><time>2026-05-02T15:55:44.56Z</time></trkpt><trkpt lat="42.21617" lon="13.2651933"><ele>1119.4285714285713</ele><time>2026-05-02T15:55:46.56Z</time></trkpt><trkpt lat="42.2162083" lon="13.2652683"><ele>1120.7142857142858</ele><time>2026-05-02T15:55:47.559Z</time></trkpt><trkpt lat="42.216265" lon="13.26533"><ele>1122.0</ele><time>2026-05-02T15:55:48.56Z</time></trkpt><trkpt lat="42.21633" lon="13.2654167"><ele>1122.0</ele><time>2026-05-02T15:55:49.559Z</time></trkpt><trkpt lat="42.2164" lon="13.2655167"><ele>1122.0</ele><time>2026-05-02T15:55:50.559Z</time></trkpt><trkpt lat="42.216475" lon="13.2656217"><ele>1122.0</ele><time>2026-05-02T15:55:51.559Z</time></trkpt><trkpt lat="42.2165483" lon="13.2657083"><ele>1122.0</ele><time>2026-05-02T15:55:52.56Z</time></trkpt><trkpt lat="42.2166183" lon="13.26577"><ele>1122.0</ele><time>2026-05-02T15:55:53.559Z</time></trkpt><trkpt lat="42.2167017" lon="13.26582"><ele>1121.6</ele><time>2026-05-02T15:55:54.56Z</time></trkpt><trkpt lat="42.2167867" lon="13.2658683"><ele>1121.2</ele><time>2026-05-02T15:55:55.559Z</time></trkpt><trkpt lat="42.2168633" lon="13.26592"><ele>1120.8</ele><time>2026-05-02T15:55:56.559Z</time></trkpt><trkpt lat="42.2169483" lon="13.2659567"><ele>1120.4</ele><time>2026-05-02T15:55:57.56Z</time></trkpt><trkpt lat="42.2170483" lon="13.2659867"><ele>1120.0</ele><time>2026-05-02T15:55:58.56Z</time></trkpt><trkpt lat="42.2171433" lon="13.266005"><ele>1120.0</ele><time>2026-05-02T15:55:59.559Z</time></trkpt><trkpt lat="42.2172433" lon="13.2660167"><ele>1120.0</ele><time>2026-05-02T15:56:00.559Z</time></trkpt><trkpt lat="42.217345" lon="13.266025"><ele>1120.0</ele><time>2026-05-02T15:56:01.559Z</time></trkpt><trkpt lat="42.2174367" lon="13.26601"><ele>1120.0</ele><time>2026-05-02T15:56:02.56Z</time></trkpt><trkpt lat="42.217515" lon="13.2659917"><ele>1120.0</ele><time>2026-05-02T15:56:03.559Z</time></trkpt><trkpt lat="42.21759" lon="13.265995"><ele>1120.0</ele><time>2026-05-02T15:56:04.559Z</time></trkpt><trkpt lat="42.21766" lon="13.2660117"><ele>1118.3333333333333</ele><time>2026-05-02T15:56:05.559Z</time></trkpt><trkpt lat="42.2177183" lon="13.2660633"><ele>1116.6666666666665</ele><time>2026-05-02T15:56:06.559Z</time></trkpt><trkpt lat="42.21778" lon="13.2661267"><ele>1115.0</ele><time>2026-05-02T15:56:07.559Z</time></trkpt><trkpt lat="42.2178533" lon="13.26618"><ele>1113.3333333333333</ele><time>2026-05-02T15:56:08.56Z</time></trkpt><trkpt lat="42.21793" lon="13.2662133"><ele>1111.6666666666667</ele><time>2026-05-02T15:56:09.559Z</time></trkpt><trkpt lat="42.218" lon="13.2662117"><ele>1110.0</ele><time>2026-05-02T15:56:10.559Z</time></trkpt><trkpt lat="42.218075" lon="13.2661433"><ele>1110.0</ele><time>2026-05-02T15:56:12.56Z</time></trkpt><trkpt lat="42.2181367" lon="13.2660067"><ele>1110.0</ele><time>2026-05-02T15:56:14.56Z</time></trkpt><trkpt lat="42.2181817" lon="13.265945"><ele>1110.0</ele><time>2026-05-02T15:56:15.56Z</time></trkpt><trkpt lat="42.2182417" lon="13.2658933"><ele>1110.0</ele><time>2026-05-02T15:56:16.56Z</time></trkpt><trkpt lat="42.2183183" lon="13.2658617"><ele>1110.0</ele><time>2026-05-02T15:56:17.559Z</time></trkpt><trkpt lat="42.2184183" lon="13.2658433"><ele>1110.0</ele><time>2026-05-02T15:56:18.56Z</time></trkpt><trkpt lat="42.21851" lon="13.2658283"><ele>1110.6</ele><time>2026-05-02T15:56:19.56Z</time></trkpt><trkpt lat="42.2185917" lon="13.265795"><ele>1111.2</ele><time>2026-05-02T15:56:20.559Z</time></trkpt><trkpt lat="42.2186833" lon="13.2657433"><ele>1111.8</ele><time>2026-05-02T15:56:21.559Z</time></trkpt><trkpt lat="42.2187833" lon="13.2656917"><ele>1112.4</ele><time>2026-05-02T15:56:22.56Z</time></trkpt><trkpt lat="42.218875" lon="13.2656517"><ele>1113.0</ele><time>2026-05-02T15:56:23.56Z</time></trkpt><trkpt lat="42.2189783" lon="13.2656117"><ele>1113.6</ele><time>2026-05-02T15:56:24.56Z</time></trkpt><trkpt lat="42.2190817" lon="13.265575"><ele>1114.1999999999998</ele><time>2026-05-02T15:56:25.56Z</time></trkpt><trkpt lat="42.219165" lon="13.2655233"><ele>1114.8</ele><time>2026-05-02T15:56:26.56Z</time></trkpt><trkpt lat="42.2192417" lon="13.2654517"><ele>1115.3999999999999</ele><time>2026-05-02T15:56:27.559Z</time></trkpt><trkpt lat="42.2193167" lon="13.26538"><ele>1116.0</ele><time>2026-05-02T15:56:28.559Z</time></trkpt><trkpt lat="42.21939" lon="13.2653083"><ele>1116.0</ele><time>2026-05-02T15:56:29.559Z</time></trkpt><trkpt lat="42.2194717" lon="13.2652433"><ele>1116.0</ele><time>2026-05-02T15:56:30.559Z</time></trkpt><trkpt lat="42.2195667" lon="13.265165"><ele>1116.0</ele><time>2026-05-02T15:56:31.56Z</time></trkpt><trkpt lat="42.2196567" lon="13.2650733"><ele>1116.0</ele><time>2026-05-02T15:56:32.56Z</time></trkpt><trkpt lat="42.2197283" lon="13.26498"><ele>1116.0</ele><time>2026-05-02T15:56:33.559Z</time></trkpt><trkpt lat="42.219785" lon="13.264885"><ele>1117.1666666666667</ele><time>2026-05-02T15:56:34.559Z</time></trkpt><trkpt lat="42.2198333" lon="13.2647767"><ele>1118.3333333333333</ele><time>2026-05-02T15:56:35.559Z</time></trkpt><trkpt lat="42.2198917" lon="13.2646833"><ele>1119.5</ele><time>2026-05-02T15:56:36.559Z</time></trkpt><trkpt lat="42.219955" lon="13.2646033"><ele>1120.6666666666665</ele><time>2026-05-02T15:56:37.559Z</time></trkpt><trkpt lat="42.2200233" lon="13.2645417"><ele>1121.8333333333333</ele><time>2026-05-02T15:56:38.56Z</time></trkpt><trkpt lat="42.2201" lon="13.26451"><ele>1123.0</ele><time>2026-05-02T15:56:39.56Z</time></trkpt><trkpt lat="42.22021" lon="13.2645083"><ele>1123.0</ele><time>2026-05-02T15:56:41.559Z</time></trkpt><trkpt lat="42.2202733" lon="13.2645783"><ele>1123.0</ele><time>2026-05-02T15:56:43.56Z</time></trkpt><trkpt lat="42.2203533" lon="13.2646717"><ele>1123.0</ele><time>2026-05-02T15:56:45.56Z</time></trkpt><trkpt lat="42.2204167" lon="13.2647033"><ele>1123.0</ele><time>2026-05-02T15:56:46.559Z</time></trkpt><trkpt lat="42.2204933" lon="13.2647067"><ele>1123.0</ele><time>2026-05-02T15:56:47.56Z</time></trkpt><trkpt lat="42.220575" lon="13.2647167"><ele>1123.0</ele><time>2026-05-02T15:56:48.559Z</time></trkpt><trkpt lat="42.2206717" lon="13.2647233"><ele>1124.2</ele><time>2026-05-02T15:56:49.56Z</time></trkpt><trkpt lat="42.2207583" lon="13.264745"><ele>1125.4</ele><time>2026-05-02T15:56:50.559Z</time></trkpt><trkpt lat="42.2208483" lon="13.2647533"><ele>1126.6000000000001</ele><time>2026-05-02T15:56:51.56Z</time></trkpt><trkpt lat="42.2209417" lon="13.2647717"><ele>1127.8</ele><time>2026-05-02T15:56:52.56Z</time></trkpt><trkpt lat="42.2210317" lon="13.2648117"><ele>1129.0</ele><time>2026-05-02T15:56:53.56Z</time></trkpt><trkpt lat="42.2211167" lon="13.2648767"><ele>1129.0</ele><time>2026-05-02T15:56:54.559Z</time></trkpt><trkpt lat="42.2211967" lon="13.2649583"><ele>1129.0</ele><time>2026-05-02T15:56:55.56Z</time></trkpt><trkpt lat="42.2212617" lon="13.265045"><ele>1129.0</ele><time>2026-05-02T15:56:56.56Z</time></trkpt><trkpt lat="42.2213167" lon="13.2651167"><ele>1129.0</ele><time>2026-05-02T15:56:57.56Z</time></trkpt><trkpt lat="42.2213683" lon="13.2651817"><ele>1129.0</ele><time>2026-05-02T15:56:58.56Z</time></trkpt><trkpt lat="42.2214733" lon="13.2651967"><ele>1129.0</ele><time>2026-05-02T15:57:00.56Z</time></trkpt><trkpt lat="42.221575" lon="13.2651"><ele>1128.0</ele><time>2026-05-02T15:57:02.559Z</time></trkpt><trkpt lat="42.2216433" lon="13.265025"><ele>1127.0</ele><time>2026-05-02T15:57:03.559Z</time></trkpt><trkpt lat="42.22172" lon="13.264945"><ele>1126.0</ele><time>2026-05-02T15:57:04.56Z</time></trkpt><trkpt lat="42.2218033" lon="13.2648517"><ele>1125.0</ele><time>2026-05-02T15:57:05.56Z</time></trkpt><trkpt lat="42.22188" lon="13.264745"><ele>1124.0</ele><time>2026-05-02T15:57:06.559Z</time></trkpt><trkpt lat="42.22195" lon="13.2646517"><ele>1124.5</ele><time>2026-05-02T15:57:07.56Z</time></trkpt><trkpt lat="42.222025" lon="13.2645817"><ele>1125.0</ele><time>2026-05-02T15:57:08.56Z</time></trkpt><trkpt lat="42.2220917" lon="13.26454"><ele>1125.5</ele><time>2026-05-02T15:57:09.559Z</time></trkpt><trkpt lat="42.2222067" lon="13.264475"><ele>1126.0</ele><time>2026-05-02T15:57:11.56Z</time></trkpt><trkpt lat="42.22228" lon="13.2644367"><ele>1126.5</ele><time>2026-05-02T15:57:12.56Z</time></trkpt><trkpt lat="42.22235" lon="13.2643883"><ele>1127.0</ele><time>2026-05-02T15:57:13.559Z</time></trkpt><trkpt lat="42.2224133" lon="13.2643167"><ele>1127.0</ele><time>2026-05-02T15:57:14.56Z</time></trkpt><trkpt lat="42.2224733" lon="13.2642383"><ele>1127.0</ele><time>2026-05-02T15:57:15.559Z</time></trkpt><trkpt lat="42.2225383" lon="13.26417"><ele>1127.0</ele><time>2026-05-02T15:57:16.559Z</time></trkpt><trkpt lat="42.2226067" lon="13.2641267"><ele>1127.0</ele><time>2026-05-02T15:57:17.559Z</time></trkpt><trkpt lat="42.2226783" lon="13.2640967"><ele>1127.0</ele><time>2026-05-02T15:57:18.56Z</time></trkpt><trkpt lat="42.22276" lon="13.2640633"><ele>1127.0</ele><time>2026-05-02T15:57:19.559Z</time></trkpt><trkpt lat="42.2228467" lon="13.2640067"><ele>1127.0</ele><time>2026-05-02T15:57:20.559Z</time></trkpt><trkpt lat="42.2229333" lon="13.2639383"><ele>1127.0</ele><time>2026-05-02T15:57:21.56Z</time></trkpt><trkpt lat="42.2230233" lon="13.26389"><ele>1127.0</ele><time>2026-05-02T15:57:22.559Z</time></trkpt><trkpt lat="42.2231233" lon="13.2638283"><ele>1127.0</ele><time>2026-05-02T15:57:23.559Z</time></trkpt><trkpt lat="42.2232283" lon="13.2637567"><ele>1127.0</ele><time>2026-05-02T15:57:24.56Z</time></trkpt><trkpt lat="42.2233183" lon="13.2636867"><ele>1127.0</ele><time>2026-05-02T15:57:25.56Z</time></trkpt><trkpt lat="42.22339" lon="13.2636117"><ele>1127.0</ele><time>2026-05-02T15:57:26.56Z</time></trkpt><trkpt lat="42.22344" lon="13.2635333"><ele>1127.0</ele><time>2026-05-02T15:57:27.559Z</time></trkpt><trkpt lat="42.2234933" lon="13.263475"><ele>1127.0</ele><time>2026-05-02T15:57:28.559Z</time></trkpt><trkpt lat="42.2235567" lon="13.26344"><ele>1127.0</ele><time>2026-05-02T15:57:29.559Z</time></trkpt><trkpt lat="42.223655" lon="13.26342"><ele>1127.0</ele><time>2026-05-02T15:57:31.56Z</time></trkpt><trkpt lat="42.2237633" lon="13.2634233"><ele>1127.0</ele><time>2026-05-02T15:57:33.56Z</time></trkpt><trkpt lat="42.22384" lon="13.26343"><ele>1127.0</ele><time>2026-05-02T15:57:34.56Z</time></trkpt><trkpt lat="42.223935" lon="13.2634433"><ele>1127.0</ele><time>2026-05-02T15:57:35.559Z</time></trkpt><trkpt lat="42.2240317" lon="13.2634517"><ele>1127.0</ele><time>2026-05-02T15:57:36.559Z</time></trkpt><trkpt lat="42.2241333" lon="13.2634517"><ele>1127.0</ele><time>2026-05-02T15:57:37.56Z</time></trkpt><trkpt lat="42.2242367" lon="13.2634583"><ele>1129.0</ele><time>2026-05-02T15:57:38.56Z</time></trkpt><trkpt lat="42.2243367" lon="13.26346"><ele>1131.0</ele><time>2026-05-02T15:57:39.56Z</time></trkpt><trkpt lat="42.22444" lon="13.2634633"><ele>1133.0</ele><time>2026-05-02T15:57:40.56Z</time></trkpt><trkpt lat="42.2245483" lon="13.2634817"><ele>1135.0</ele><time>2026-05-02T15:57:41.56Z</time></trkpt><trkpt lat="42.2246433" lon="13.2634967"><ele>1137.0</ele><time>2026-05-02T15:57:42.559Z</time></trkpt><trkpt lat="42.2247333" lon="13.2634967"><ele>1138.6</ele><time>2026-05-02T15:57:43.559Z</time></trkpt><trkpt lat="42.2248317" lon="13.263465"><ele>1140.2</ele><time>2026-05-02T15:57:44.559Z</time></trkpt><trkpt lat="42.2249317" lon="13.263435"><ele>1141.8</ele><time>2026-05-02T15:57:45.559Z</time></trkpt><trkpt lat="42.2250283" lon="13.26341"><ele>1143.4</ele><time>2026-05-02T15:57:46.56Z</time></trkpt><trkpt lat="42.2251183" lon="13.263385"><ele>1145.0</ele><time>2026-05-02T15:57:47.56Z</time></trkpt><trkpt lat="42.2252033" lon="13.26337"><ele>1145.0</ele><time>2026-05-02T15:57:48.559Z</time></trkpt><trkpt lat="42.2252917" lon="13.2633667"><ele>1145.0</ele><time>2026-05-02T15:57:49.559Z</time></trkpt><trkpt lat="42.2253817" lon="13.2633633"><ele>1145.0</ele><time>2026-05-02T15:57:50.559Z</time></trkpt><trkpt lat="42.2254633" lon="13.2633467"><ele>1145.0</ele><time>2026-05-02T15:57:51.559Z</time></trkpt><trkpt lat="42.2255417" lon="13.26332"><ele>1145.0</ele><time>2026-05-02T15:57:52.559Z</time></trkpt><trkpt lat="42.225625" lon="13.26328"><ele>1145.0</ele><time>2026-05-02T15:57:53.558Z</time></trkpt><trkpt lat="42.22571" lon="13.2632383"><ele>1146.4</ele><time>2026-05-02T15:57:54.559Z</time></trkpt><trkpt lat="42.2258033" lon="13.2632017"><ele>1147.8</ele><time>2026-05-02T15:57:55.558Z</time></trkpt><trkpt lat="42.2258983" lon="13.2631767"><ele>1149.2</ele><time>2026-05-02T15:57:56.558Z</time></trkpt><trkpt lat="42.2259983" lon="13.2631717"><ele>1150.6</ele><time>2026-05-02T15:57:57.558Z</time></trkpt><trkpt lat="42.2261067" lon="13.26317"><ele>1152.0</ele><time>2026-05-02T15:57:58.558Z</time></trkpt><trkpt lat="42.2262117" lon="13.2631733"><ele>1152.0</ele><time>2026-05-02T15:57:59.558Z</time></trkpt><trkpt lat="42.2262983" lon="13.26318"><ele>1152.0</ele><time>2026-05-02T15:58:00.559Z</time></trkpt><trkpt lat="42.2263767" lon="13.2632033"><ele>1152.0</ele><time>2026-05-02T15:58:01.559Z</time></trkpt><trkpt lat="42.2264467" lon="13.26323"><ele>1152.0</ele><time>2026-05-02T15:58:02.558Z</time></trkpt><trkpt lat="42.2265167" lon="13.2632767"><ele>1152.0</ele><time>2026-05-02T15:58:03.559Z</time></trkpt><trkpt lat="42.2265783" lon="13.2633367"><ele>1152.0</ele><time>2026-05-02T15:58:04.559Z</time></trkpt><trkpt lat="42.22663" lon="13.2634283"><ele>1152.0</ele><time>2026-05-02T15:58:05.559Z</time></trkpt><trkpt lat="42.22668" lon="13.263545"><ele>1152.0</ele><time>2026-05-02T15:58:06.559Z</time></trkpt><trkpt lat="42.2267333" lon="13.26367"><ele>1152.0</ele><time>2026-05-02T15:58:07.559Z</time></trkpt><trkpt lat="42.22677" lon="13.26379"><ele>1152.0</ele><time>2026-05-02T15:58:08.559Z</time></trkpt><trkpt lat="42.2268033" lon="13.2639"><ele>1152.0</ele><time>2026-05-02T15:58:09.558Z</time></trkpt><trkpt lat="42.2268267" lon="13.2639967"><ele>1154.6</ele><time>2026-05-02T15:58:10.559Z</time></trkpt><trkpt lat="42.2268567" lon="13.264075"><ele>1157.2</ele><time>2026-05-02T15:58:11.559Z</time></trkpt><trkpt lat="42.226925" lon="13.2642033"><ele>1159.8</ele><time>2026-05-02T15:58:13.558Z</time></trkpt><trkpt lat="42.2270017" lon="13.26434"><ele>1162.4</ele><time>2026-05-02T15:58:15.558Z</time></trkpt><trkpt lat="42.227045" lon="13.2644233"><ele>1165.0</ele><time>2026-05-02T15:58:16.558Z</time></trkpt><trkpt lat="42.227095" lon="13.2645"><ele>1165.0</ele><time>2026-05-02T15:58:17.559Z</time></trkpt><trkpt lat="42.2271533" lon="13.2645567"><ele>1165.0</ele><time>2026-05-02T15:58:18.558Z</time></trkpt><trkpt lat="42.2272167" lon="13.2645967"><ele>1165.0</ele><time>2026-05-02T15:58:19.559Z</time></trkpt><trkpt lat="42.227285" lon="13.2646133"><ele>1165.0</ele><time>2026-05-02T15:58:20.559Z</time></trkpt><trkpt lat="42.2273633" lon="13.26462"><ele>1165.0</ele><time>2026-05-02T15:58:21.559Z</time></trkpt><trkpt lat="42.2274567" lon="13.264595"><ele>1165.0</ele><time>2026-05-02T15:58:22.558Z</time></trkpt><trkpt lat="42.2275667" lon="13.264545"><ele>1164.4</ele><time>2026-05-02T15:58:23.559Z</time></trkpt><trkpt lat="42.2276833" lon="13.264505"><ele>1163.8</ele><time>2026-05-02T15:58:24.559Z</time></trkpt><trkpt lat="42.2277917" lon="13.2644767"><ele>1163.2</ele><time>2026-05-02T15:58:25.559Z</time></trkpt><trkpt lat="42.2278817" lon="13.2644617"><ele>1162.6</ele><time>2026-05-02T15:58:26.558Z</time></trkpt><trkpt lat="42.22796" lon="13.2644383"><ele>1162.0</ele><time>2026-05-02T15:58:27.558Z</time></trkpt><trkpt lat="42.2280383" lon="13.2643983"><ele>1162.0</ele><time>2026-05-02T15:58:28.558Z</time></trkpt><trkpt lat="42.2281233" lon="13.2643567"><ele>1162.0</ele><time>2026-05-02T15:58:29.559Z</time></trkpt><trkpt lat="42.22821" lon="13.264315"><ele>1162.0</ele><time>2026-05-02T15:58:30.559Z</time></trkpt><trkpt lat="42.22829" lon="13.2642783"><ele>1162.0</ele><time>2026-05-02T15:58:31.559Z</time></trkpt><trkpt lat="42.2283533" lon="13.264215"><ele>1162.0</ele><time>2026-05-02T15:58:32.558Z</time></trkpt><trkpt lat="42.2284067" lon="13.2641383"><ele>1162.0</ele><time>2026-05-02T15:58:33.558Z</time></trkpt><trkpt lat="42.228465" lon="13.2640433"><ele>1162.2</ele><time>2026-05-02T15:58:34.559Z</time></trkpt><trkpt lat="42.2285317" lon="13.263945"><ele>1162.4</ele><time>2026-05-02T15:58:35.559Z</time></trkpt><trkpt lat="42.2286083" lon="13.26386"><ele>1162.6</ele><time>2026-05-02T15:58:36.559Z</time></trkpt><trkpt lat="42.2286917" lon="13.2637733"><ele>1162.8</ele><time>2026-05-02T15:58:37.558Z</time></trkpt><trkpt lat="42.2287733" lon="13.26369"><ele>1163.0</ele><time>2026-05-02T15:58:38.558Z</time></trkpt><trkpt lat="42.2288483" lon="13.2636"><ele>1163.0</ele><time>2026-05-02T15:58:39.558Z</time></trkpt><trkpt lat="42.2289317" lon="13.2635083"><ele>1163.0</ele><time>2026-05-02T15:58:40.558Z</time></trkpt><trkpt lat="42.2290167" lon="13.26342"><ele>1163.0</ele><time>2026-05-02T15:58:41.559Z</time></trkpt><trkpt lat="42.2291017" lon="13.263335"><ele>1163.0</ele><time>2026-05-02T15:58:42.559Z</time></trkpt><trkpt lat="42.2291783" lon="13.2632717"><ele>1163.0</ele><time>2026-05-02T15:58:43.558Z</time></trkpt><trkpt lat="42.2292467" lon="13.2631967"><ele>1165.8333333333335</ele><time>2026-05-02T15:58:44.559Z</time></trkpt><trkpt lat="42.2293117" lon="13.263125"><ele>1168.6666666666667</ele><time>2026-05-02T15:58:45.559Z</time></trkpt><trkpt lat="42.2293683" lon="13.2630417"><ele>1171.5</ele><time>2026-05-02T15:58:46.558Z</time></trkpt><trkpt lat="42.2294233" lon="13.262895"><ele>1174.3333333333333</ele><time>2026-05-02T15:58:48.558Z</time></trkpt><trkpt lat="42.2294267" lon="13.2628017"><ele>1177.1666666666665</ele><time>2026-05-02T15:58:49.559Z</time></trkpt><trkpt lat="42.229415" lon="13.2626883"><ele>1180.0</ele><time>2026-05-02T15:58:50.558Z</time></trkpt><trkpt lat="42.229385" lon="13.262575"><ele>1180.0</ele><time>2026-05-02T15:58:51.558Z</time></trkpt><trkpt lat="42.22935" lon="13.2624783"><ele>1180.0</ele><time>2026-05-02T15:58:52.559Z</time></trkpt><trkpt lat="42.2293233" lon="13.26238"><ele>1180.0</ele><time>2026-05-02T15:58:53.558Z</time></trkpt><trkpt lat="42.22933" lon="13.2622533"><ele>1180.0</ele><time>2026-05-02T15:58:55.558Z</time></trkpt><trkpt lat="42.229405" lon="13.2621333"><ele>1180.0</ele><time>2026-05-02T15:58:57.559Z</time></trkpt><trkpt lat="42.2294583" lon="13.2620733"><ele>1180.0</ele><time>2026-05-02T15:58:58.559Z</time></trkpt><trkpt lat="42.22951" lon="13.2620083"><ele>1179.6</ele><time>2026-05-02T15:58:59.558Z</time></trkpt><trkpt lat="42.22956" lon="13.26192"><ele>1179.2</ele><time>2026-05-02T15:59:00.558Z</time></trkpt><trkpt lat="42.2296117" lon="13.2618267"><ele>1178.8</ele><time>2026-05-02T15:59:01.559Z</time></trkpt><trkpt lat="42.2296533" lon="13.2617317"><ele>1178.4</ele><time>2026-05-02T15:59:02.559Z</time></trkpt><trkpt lat="42.2296867" lon="13.2616267"><ele>1178.0</ele><time>2026-05-02T15:59:03.559Z</time></trkpt><trkpt lat="42.229695" lon="13.2614667"><ele>1177.4285714285713</ele><time>2026-05-02T15:59:05.559Z</time></trkpt><trkpt lat="42.229675" lon="13.261385"><ele>1176.8571428571427</ele><time>2026-05-02T15:59:06.558Z</time></trkpt><trkpt lat="42.229645" lon="13.2613067"><ele>1176.2857142857142</ele><time>2026-05-02T15:59:07.559Z</time></trkpt><trkpt lat="42.22963" lon="13.26121"><ele>1175.7142857142858</ele><time>2026-05-02T15:59:08.559Z</time></trkpt><trkpt lat="42.2296367" lon="13.26111"><ele>1175.1428571428573</ele><time>2026-05-02T15:59:09.558Z</time></trkpt><trkpt lat="42.229655" lon="13.2610067"><ele>1174.5714285714287</ele><time>2026-05-02T15:59:10.559Z</time></trkpt><trkpt lat="42.2297017" lon="13.2609183"><ele>1174.0</ele><time>2026-05-02T15:59:11.559Z</time></trkpt><trkpt lat="42.229765" lon="13.2608533"><ele>1177.8333333333333</ele><time>2026-05-02T15:59:12.558Z</time></trkpt><trkpt lat="42.2298383" lon="13.2608117"><ele>1181.6666666666665</ele><time>2026-05-02T15:59:13.559Z</time></trkpt><trkpt lat="42.2299217" lon="13.260785"><ele>1185.5</ele><time>2026-05-02T15:59:14.558Z</time></trkpt><trkpt lat="42.2300167" lon="13.260785"><ele>1189.3333333333333</ele><time>2026-05-02T15:59:15.558Z</time></trkpt><trkpt lat="42.2301033" lon="13.2608133"><ele>1193.1666666666667</ele><time>2026-05-02T15:59:16.558Z</time></trkpt><trkpt lat="42.23019" lon="13.2608567"><ele>1197.0</ele><time>2026-05-02T15:59:17.559Z</time></trkpt><trkpt lat="42.23026" lon="13.2609033"><ele>1197.0</ele><time>2026-05-02T15:59:18.559Z</time></trkpt><trkpt lat="42.2303217" lon="13.2609483"><ele>1197.0</ele><time>2026-05-02T15:59:19.559Z</time></trkpt><trkpt lat="42.2304433" lon="13.260985"><ele>1197.0</ele><time>2026-05-02T15:59:21.559Z</time></trkpt><trkpt lat="42.230505" lon="13.260965"><ele>1197.0</ele><time>2026-05-02T15:59:22.558Z</time></trkpt><trkpt lat="42.2305717" lon="13.2608883"><ele>1197.0</ele><time>2026-05-02T15:59:23.558Z</time></trkpt><trkpt lat="42.2306383" lon="13.260795"><ele>1197.0</ele><time>2026-05-02T15:59:24.559Z</time></trkpt><trkpt lat="42.2307033" lon="13.260695"><ele>1195.6</ele><time>2026-05-02T15:59:25.559Z</time></trkpt><trkpt lat="42.23078" lon="13.2605983"><ele>1194.2</ele><time>2026-05-02T15:59:26.559Z</time></trkpt><trkpt lat="42.23086" lon="13.260525"><ele>1192.8</ele><time>2026-05-02T15:59:27.558Z</time></trkpt><trkpt lat="42.2309467" lon="13.26049"><ele>1191.4</ele><time>2026-05-02T15:59:28.559Z</time></trkpt><trkpt lat="42.23104" lon="13.2604783"><ele>1190.0</ele><time>2026-05-02T15:59:29.558Z</time></trkpt><trkpt lat="42.2311533" lon="13.2604583"><ele>1190.0</ele><time>2026-05-02T15:59:30.558Z</time></trkpt><trkpt lat="42.2312667" lon="13.2604517"><ele>1190.0</ele><time>2026-05-02T15:59:31.559Z</time></trkpt><trkpt lat="42.2313617" lon="13.260465"><ele>1190.0</ele><time>2026-05-02T15:59:32.559Z</time></trkpt><trkpt lat="42.23145" lon="13.2604683"><ele>1190.0</ele><time>2026-05-02T15:59:33.559Z</time></trkpt><trkpt lat="42.2315367" lon="13.26047"><ele>1190.0</ele><time>2026-05-02T15:59:34.559Z</time></trkpt><trkpt lat="42.231615" lon="13.2605"><ele>1191.6</ele><time>2026-05-02T15:59:35.559Z</time></trkpt><trkpt lat="42.2316983" lon="13.26055"><ele>1193.2</ele><time>2026-05-02T15:59:36.559Z</time></trkpt><trkpt lat="42.2317917" lon="13.2606067"><ele>1194.8</ele><time>2026-05-02T15:59:37.559Z</time></trkpt><trkpt lat="42.23188" lon="13.2606683"><ele>1196.4</ele><time>2026-05-02T15:59:38.558Z</time></trkpt><trkpt lat="42.231965" lon="13.2607117"><ele>1198.0</ele><time>2026-05-02T15:59:39.559Z</time></trkpt><trkpt lat="42.2320583" lon="13.26076"><ele>1199.0</ele><time>2026-05-02T15:59:40.558Z</time></trkpt><trkpt lat="42.23215" lon="13.2608233"><ele>1200.0</ele><time>2026-05-02T15:59:41.558Z</time></trkpt><trkpt lat="42.2322467" lon="13.2609"><ele>1201.0</ele><time>2026-05-02T15:59:42.558Z</time></trkpt><trkpt lat="42.23234" lon="13.2609883"><ele>1202.0</ele><time>2026-05-02T15:59:43.558Z</time></trkpt><trkpt lat="42.232445" lon="13.2610533"><ele>1203.0</ele><time>2026-05-02T15:59:44.559Z</time></trkpt><trkpt lat="42.2325483" lon="13.2611167"><ele>1203.0</ele><time>2026-05-02T15:59:45.559Z</time></trkpt><trkpt lat="42.2326433" lon="13.26118"><ele>1203.0</ele><time>2026-05-02T15:59:46.558Z</time></trkpt><trkpt lat="42.232735" lon="13.2612383"><ele>1203.0</ele><time>2026-05-02T15:59:47.559Z</time></trkpt><trkpt lat="42.23282" lon="13.2612983"><ele>1203.0</ele><time>2026-05-02T15:59:48.559Z</time></trkpt><trkpt lat="42.232895" lon="13.2613633"><ele>1203.0</ele><time>2026-05-02T15:59:49.559Z</time></trkpt><trkpt lat="42.232965" lon="13.2614267"><ele>1203.6</ele><time>2026-05-02T15:59:50.558Z</time></trkpt><trkpt lat="42.2330367" lon="13.261485"><ele>1204.1999999999998</ele><time>2026-05-02T15:59:51.558Z</time></trkpt><trkpt lat="42.2331" lon="13.261545"><ele>1204.8</ele><time>2026-05-02T15:59:52.558Z</time></trkpt><trkpt lat="42.2331533" lon="13.2616217"><ele>1205.3999999999999</ele><time>2026-05-02T15:59:53.558Z</time></trkpt><trkpt lat="42.2332033" lon="13.2616983"><ele>1206.0</ele><time>2026-05-02T15:59:54.558Z</time></trkpt><trkpt lat="42.2333283" lon="13.2618"><ele>1206.0</ele><time>2026-05-02T15:59:56.558Z</time></trkpt><trkpt lat="42.233405" lon="13.2618367"><ele>1206.0</ele><time>2026-05-02T15:59:57.559Z</time></trkpt><trkpt lat="42.2334933" lon="13.2618767"><ele>1206.0</ele><time>2026-05-02T15:59:58.558Z</time></trkpt><trkpt lat="42.2335883" lon="13.2618967"><ele>1206.0</ele><time>2026-05-02T15:59:59.559Z</time></trkpt><trkpt lat="42.2336833" lon="13.2619367"><ele>1206.0</ele><time>2026-05-02T16:00:00.558Z</time></trkpt><trkpt lat="42.2337617" lon="13.2619867"><ele>1206.0</ele><time>2026-05-02T16:00:01.558Z</time></trkpt><trkpt lat="42.2338233" lon="13.2620433"><ele>1206.0</ele><time>2026-05-02T16:00:02.558Z</time></trkpt><trkpt lat="42.2339467" lon="13.262075"><ele>1206.0</ele><time>2026-05-02T16:00:04.558Z</time></trkpt><trkpt lat="42.2340183" lon="13.262065"><ele>1206.0</ele><time>2026-05-02T16:00:05.559Z</time></trkpt><trkpt lat="42.2341" lon="13.2620367"><ele>1206.0</ele><time>2026-05-02T16:00:06.558Z</time></trkpt><trkpt lat="42.234185" lon="13.2619833"><ele>1204.75</ele><time>2026-05-02T16:00:07.559Z</time></trkpt><trkpt lat="42.2342867" lon="13.2619367"><ele>1203.5</ele><time>2026-05-02T16:00:08.559Z</time></trkpt><trkpt lat="42.234395" lon="13.2618983"><ele>1202.25</ele><time>2026-05-02T16:00:09.559Z</time></trkpt><trkpt lat="42.2345017" lon="13.2618517"><ele>1201.0</ele><time>2026-05-02T16:00:10.559Z</time></trkpt><trkpt lat="42.234615" lon="13.2618"><ele>1201.0</ele><time>2026-05-02T16:00:11.558Z</time></trkpt><trkpt lat="42.234725" lon="13.261735"><ele>1201.0</ele><time>2026-05-02T16:00:12.559Z</time></trkpt><trkpt lat="42.2348333" lon="13.26169"><ele>1201.0</ele><time>2026-05-02T16:00:13.559Z</time></trkpt><trkpt lat="42.2349367" lon="13.26164"><ele>1201.0</ele><time>2026-05-02T16:00:14.558Z</time></trkpt><trkpt lat="42.2350533" lon="13.2616"><ele>1201.8</ele><time>2026-05-02T16:00:15.559Z</time></trkpt><trkpt lat="42.235155" lon="13.2615633"><ele>1202.6</ele><time>2026-05-02T16:00:16.559Z</time></trkpt><trkpt lat="42.2352483" lon="13.2615383"><ele>1203.4</ele><time>2026-05-02T16:00:17.558Z</time></trkpt><trkpt lat="42.2353333" lon="13.2615117"><ele>1204.2</ele><time>2026-05-02T16:00:18.558Z</time></trkpt><trkpt lat="42.235405" lon="13.26146"><ele>1205.0</ele><time>2026-05-02T16:00:19.558Z</time></trkpt><trkpt lat="42.23548" lon="13.2613783"><ele>1205.0</ele><time>2026-05-02T16:00:20.558Z</time></trkpt><trkpt lat="42.2355517" lon="13.261295"><ele>1205.0</ele><time>2026-05-02T16:00:21.559Z</time></trkpt><trkpt lat="42.2356433" lon="13.2612217"><ele>1205.0</ele><time>2026-05-02T16:00:22.559Z</time></trkpt><trkpt lat="42.2357367" lon="13.2611317"><ele>1205.0</ele><time>2026-05-02T16:00:23.559Z</time></trkpt><trkpt lat="42.2358283" lon="13.2610633"><ele>1205.0</ele><time>2026-05-02T16:00:24.558Z</time></trkpt><trkpt lat="42.2359217" lon="13.261015"><ele>1208.6</ele><time>2026-05-02T16:00:25.558Z</time></trkpt><trkpt lat="42.2360317" lon="13.26097"><ele>1212.2</ele><time>2026-05-02T16:00:26.559Z</time></trkpt><trkpt lat="42.2361417" lon="13.26094"><ele>1215.8</ele><time>2026-05-02T16:00:27.559Z</time></trkpt><trkpt lat="42.2362533" lon="13.260905"><ele>1219.4</ele><time>2026-05-02T16:00:28.559Z</time></trkpt><trkpt lat="42.2363483" lon="13.260875"><ele>1223.0</ele><time>2026-05-02T16:00:29.558Z</time></trkpt><trkpt lat="42.2364367" lon="13.2608517"><ele>1223.8</ele><time>2026-05-02T16:00:30.558Z</time></trkpt><trkpt lat="42.2365183" lon="13.260825"><ele>1224.6</ele><time>2026-05-02T16:00:31.558Z</time></trkpt><trkpt lat="42.2366067" lon="13.26078"><ele>1225.4</ele><time>2026-05-02T16:00:32.559Z</time></trkpt><trkpt lat="42.2366883" lon="13.2607267"><ele>1226.2</ele><time>2026-05-02T16:00:33.558Z</time></trkpt><trkpt lat="42.23677" lon="13.2606583"><ele>1227.0</ele><time>2026-05-02T16:00:34.559Z</time></trkpt><trkpt lat="42.23685" lon="13.26061"><ele>1227.0</ele><time>2026-05-02T16:00:35.559Z</time></trkpt><trkpt lat="42.23692" lon="13.26057"><ele>1227.0</ele><time>2026-05-02T16:00:36.559Z</time></trkpt><trkpt lat="42.2369983" lon="13.26056"><ele>1227.0</ele><time>2026-05-02T16:00:37.558Z</time></trkpt><trkpt lat="42.2370767" lon="13.260575"><ele>1227.0</ele><time>2026-05-02T16:00:38.558Z</time></trkpt><trkpt lat="42.2371567" lon="13.2606017"><ele>1227.0</ele><time>2026-05-02T16:00:39.558Z</time></trkpt><trkpt lat="42.2372367" lon="13.2606233"><ele>1227.0</ele><time>2026-05-02T16:00:40.559Z</time></trkpt><trkpt lat="42.2373117" lon="13.2606617"><ele>1226.8</ele><time>2026-05-02T16:00:41.558Z</time></trkpt><trkpt lat="42.237395" lon="13.2606717"><ele>1226.6</ele><time>2026-05-02T16:00:42.558Z</time></trkpt><trkpt lat="42.23749" lon="13.2606617"><ele>1226.3999999999999</ele><time>2026-05-02T16:00:43.559Z</time></trkpt><trkpt lat="42.2375917" lon="13.2606433"><ele>1226.2</ele><time>2026-05-02T16:00:44.558Z</time></trkpt><trkpt lat="42.237705" lon="13.26063"><ele>1226.0</ele><time>2026-05-02T16:00:45.558Z</time></trkpt><trkpt lat="42.2378083" lon="13.2606133"><ele>1225.0</ele><time>2026-05-02T16:00:46.559Z</time></trkpt><trkpt lat="42.2379133" lon="13.2605783"><ele>1224.0</ele><time>2026-05-02T16:00:47.559Z</time></trkpt><trkpt lat="42.2379983" lon="13.260535"><ele>1223.0</ele><time>2026-05-02T16:00:48.558Z</time></trkpt><trkpt lat="42.23809" lon="13.2604917"><ele>1222.0</ele><time>2026-05-02T16:00:49.558Z</time></trkpt><trkpt lat="42.2381917" lon="13.2604633"><ele>1221.0</ele><time>2026-05-02T16:00:50.558Z</time></trkpt><trkpt lat="42.2383" lon="13.2604517"><ele>1221.0</ele><time>2026-05-02T16:00:51.559Z</time></trkpt><trkpt lat="42.2384017" lon="13.2604233"><ele>1221.0</ele><time>2026-05-02T16:00:52.558Z</time></trkpt><trkpt lat="42.238495" lon="13.2603817"><ele>1221.0</ele><time>2026-05-02T16:00:53.559Z</time></trkpt><trkpt lat="42.2385733" lon="13.260325"><ele>1221.0</ele><time>2026-05-02T16:00:54.559Z</time></trkpt><trkpt lat="42.2386433" lon="13.2602517"><ele>1221.0</ele><time>2026-05-02T16:00:55.559Z</time></trkpt><trkpt lat="42.2387167" lon="13.2602"><ele>1221.0</ele><time>2026-05-02T16:00:56.559Z</time></trkpt><trkpt lat="42.2387983" lon="13.2601767"><ele>1221.0</ele><time>2026-05-02T16:00:57.558Z</time></trkpt><trkpt lat="42.2388733" lon="13.2601733"><ele>1221.0</ele><time>2026-05-02T16:00:58.559Z</time></trkpt><trkpt lat="42.2389533" lon="13.2601933"><ele>1221.0</ele><time>2026-05-02T16:00:59.558Z</time></trkpt><trkpt lat="42.23902" lon="13.2602283"><ele>1221.0</ele><time>2026-05-02T16:01:00.558Z</time></trkpt><trkpt lat="42.2390867" lon="13.2602917"><ele>1221.0</ele><time>2026-05-02T16:01:01.559Z</time></trkpt><trkpt lat="42.2391583" lon="13.2603883"><ele>1220.0</ele><time>2026-05-02T16:01:02.559Z</time></trkpt><trkpt lat="42.2392333" lon="13.2604683"><ele>1219.0</ele><time>2026-05-02T16:01:03.559Z</time></trkpt><trkpt lat="42.2393017" lon="13.2605517"><ele>1218.0</ele><time>2026-05-02T16:01:04.558Z</time></trkpt><trkpt lat="42.2393783" lon="13.260635"><ele>1217.0</ele><time>2026-05-02T16:01:05.559Z</time></trkpt><trkpt lat="42.2394617" lon="13.26071"><ele>1216.0</ele><time>2026-05-02T16:01:06.559Z</time></trkpt><trkpt lat="42.239555" lon="13.2607633"><ele>1218.6</ele><time>2026-05-02T16:01:07.559Z</time></trkpt><trkpt lat="42.239655" lon="13.260795"><ele>1221.1999999999998</ele><time>2026-05-02T16:01:08.558Z</time></trkpt><trkpt lat="42.2397633" lon="13.2608083"><ele>1223.8000000000002</ele><time>2026-05-02T16:01:09.558Z</time></trkpt><trkpt lat="42.2398617" lon="13.2608167"><ele>1226.4</ele><time>2026-05-02T16:01:10.559Z</time></trkpt><trkpt lat="42.239965" lon="13.2607967"><ele>1229.0</ele><time>2026-05-02T16:01:11.558Z</time></trkpt><trkpt lat="42.24007" lon="13.2607683"><ele>1229.0</ele><time>2026-05-02T16:01:12.559Z</time></trkpt><trkpt lat="42.2401833" lon="13.260725"><ele>1229.0</ele><time>2026-05-02T16:01:13.559Z</time></trkpt><trkpt lat="42.2403067" lon="13.2606717"><ele>1229.0</ele><time>2026-05-02T16:01:14.559Z</time></trkpt><trkpt lat="42.2404267" lon="13.2606283"><ele>1229.0</ele><time>2026-05-02T16:01:15.559Z</time></trkpt><trkpt lat="42.240545" lon="13.2605767"><ele>1227.3333333333335</ele><time>2026-05-02T16:01:16.559Z</time></trkpt><trkpt lat="42.240645" lon="13.2605483"><ele>1225.6666666666667</ele><time>2026-05-02T16:01:17.559Z</time></trkpt><trkpt lat="42.240735" lon="13.26053"><ele>1224.0</ele><time>2026-05-02T16:01:18.558Z</time></trkpt><trkpt lat="42.2408083" lon="13.26052"><ele>1222.3333333333333</ele><time>2026-05-02T16:01:19.559Z</time></trkpt><trkpt lat="42.2408733" lon="13.260495"><ele>1220.6666666666665</ele><time>2026-05-02T16:01:20.558Z</time></trkpt><trkpt lat="42.240945" lon="13.26046"><ele>1219.0</ele><time>2026-05-02T16:01:21.558Z</time></trkpt><trkpt lat="42.2410267" lon="13.2604383"><ele>1219.0</ele><time>2026-05-02T16:01:22.558Z</time></trkpt><trkpt lat="42.2411117" lon="13.26039"><ele>1219.0</ele><time>2026-05-02T16:01:23.558Z</time></trkpt><trkpt lat="42.2411817" lon="13.2603417"><ele>1219.0</ele><time>2026-05-02T16:01:24.558Z</time></trkpt><trkpt lat="42.2412467" lon="13.26028"><ele>1219.0</ele><time>2026-05-02T16:01:25.559Z</time></trkpt><trkpt lat="42.2412983" lon="13.2602117"><ele>1219.0</ele><time>2026-05-02T16:01:26.557Z</time></trkpt><trkpt lat="42.2413417" lon="13.2601367"><ele>1219.0</ele><time>2026-05-02T16:01:27.558Z</time></trkpt><trkpt lat="42.2413867" lon="13.26007"><ele>1221.8</ele><time>2026-05-02T16:01:28.558Z</time></trkpt><trkpt lat="42.2414917" lon="13.26003"><ele>1224.6000000000001</ele><time>2026-05-02T16:01:30.557Z</time></trkpt><trkpt lat="42.241555" lon="13.2600283"><ele>1227.4</ele><time>2026-05-02T16:01:31.557Z</time></trkpt><trkpt lat="42.2416717" lon="13.2600467"><ele>1230.2</ele><time>2026-05-02T16:01:33.558Z</time></trkpt><trkpt lat="42.2417783" lon="13.260065"><ele>1233.0</ele><time>2026-05-02T16:01:35.557Z</time></trkpt><trkpt lat="42.241895" lon="13.260055"><ele>1233.0</ele><time>2026-05-02T16:01:37.558Z</time></trkpt><trkpt lat="42.241995" lon="13.2599883"><ele>1233.0</ele><time>2026-05-02T16:01:39.558Z</time></trkpt><trkpt lat="42.2420583" lon="13.2599483"><ele>1233.0</ele><time>2026-05-02T16:01:40.558Z</time></trkpt><trkpt lat="42.242145" lon="13.259915"><ele>1233.0</ele><time>2026-05-02T16:01:41.557Z</time></trkpt><trkpt lat="42.24226" lon="13.25989"><ele>1233.0</ele><time>2026-05-02T16:01:42.557Z</time></trkpt><trkpt lat="42.2423717" lon="13.2598567"><ele>1231.8</ele><time>2026-05-02T16:01:43.558Z</time></trkpt><trkpt lat="42.2424767" lon="13.2598217"><ele>1230.6</ele><time>2026-05-02T16:01:44.558Z</time></trkpt><trkpt lat="42.2425717" lon="13.2597833"><ele>1229.4</ele><time>2026-05-02T16:01:45.557Z</time></trkpt><trkpt lat="42.2426733" lon="13.2597617"><ele>1228.2</ele><time>2026-05-02T16:01:46.557Z</time></trkpt><trkpt lat="42.2427867" lon="13.2597517"><ele>1227.0</ele><time>2026-05-02T16:01:47.557Z</time></trkpt><trkpt lat="42.2429" lon="13.2597333"><ele>1227.0</ele><time>2026-05-02T16:01:48.557Z</time></trkpt><trkpt lat="42.242995" lon="13.2596933"><ele>1227.0</ele><time>2026-05-02T16:01:49.558Z</time></trkpt><trkpt lat="42.2430817" lon="13.2596533"><ele>1227.0</ele><time>2026-05-02T16:01:50.558Z</time></trkpt><trkpt lat="42.2431567" lon="13.259595"><ele>1227.0</ele><time>2026-05-02T16:01:51.558Z</time></trkpt><trkpt lat="42.2432183" lon="13.2595317"><ele>1227.0</ele><time>2026-05-02T16:01:52.558Z</time></trkpt><trkpt lat="42.2432767" lon="13.259455"><ele>1227.0</ele><time>2026-05-02T16:01:53.558Z</time></trkpt><trkpt lat="42.2433417" lon="13.2593917"><ele>1229.8333333333333</ele><time>2026-05-02T16:01:54.557Z</time></trkpt><trkpt lat="42.243395" lon="13.259335"><ele>1232.6666666666667</ele><time>2026-05-02T16:01:55.558Z</time></trkpt><trkpt lat="42.2434533" lon="13.2592717"><ele>1235.5</ele><time>2026-05-02T16:01:56.557Z</time></trkpt><trkpt lat="42.2435233" lon="13.2592"><ele>1238.3333333333335</ele><time>2026-05-02T16:01:57.558Z</time></trkpt><trkpt lat="42.2436083" lon="13.2591383"><ele>1241.1666666666667</ele><time>2026-05-02T16:01:58.557Z</time></trkpt><trkpt lat="42.2437017" lon="13.2591033"><ele>1244.0</ele><time>2026-05-02T16:01:59.557Z</time></trkpt><trkpt lat="42.243795" lon="13.2590667"><ele>1244.0</ele><time>2026-05-02T16:02:00.557Z</time></trkpt><trkpt lat="42.2438683" lon="13.2590133"><ele>1244.0</ele><time>2026-05-02T16:02:01.557Z</time></trkpt><trkpt lat="42.2439267" lon="13.2589383"><ele>1244.0</ele><time>2026-05-02T16:02:02.557Z</time></trkpt><trkpt lat="42.243985" lon="13.2588483"><ele>1244.0</ele><time>2026-05-02T16:02:03.558Z</time></trkpt><trkpt lat="42.24405" lon="13.2587683"><ele>1244.0</ele><time>2026-05-02T16:02:04.557Z</time></trkpt><trkpt lat="42.2441133" lon="13.258695"><ele>1244.0</ele><time>2026-05-02T16:02:05.558Z</time></trkpt><trkpt lat="42.2441833" lon="13.2586367"><ele>1245.1666666666667</ele><time>2026-05-02T16:02:06.557Z</time></trkpt><trkpt lat="42.2442583" lon="13.2585933"><ele>1246.3333333333335</ele><time>2026-05-02T16:02:07.557Z</time></trkpt><trkpt lat="42.2443333" lon="13.25856"><ele>1247.5</ele><time>2026-05-02T16:02:08.558Z</time></trkpt><trkpt lat="42.2444183" lon="13.2585367"><ele>1248.6666666666667</ele><time>2026-05-02T16:02:09.558Z</time></trkpt><trkpt lat="42.2445" lon="13.258545"><ele>1249.8333333333333</ele><time>2026-05-02T16:02:10.557Z</time></trkpt><trkpt lat="42.24458" lon="13.2585733"><ele>1251.0</ele><time>2026-05-02T16:02:11.558Z</time></trkpt><trkpt lat="42.2446533" lon="13.258625"><ele>1251.0</ele><time>2026-05-02T16:02:12.558Z</time></trkpt><trkpt lat="42.24473" lon="13.258685"><ele>1251.0</ele><time>2026-05-02T16:02:13.558Z</time></trkpt><trkpt lat="42.2448" lon="13.2587367"><ele>1251.0</ele><time>2026-05-02T16:02:14.557Z</time></trkpt><trkpt lat="42.2448667" lon="13.25879"><ele>1251.0</ele><time>2026-05-02T16:02:15.557Z</time></trkpt><trkpt lat="42.2449483" lon="13.2588617"><ele>1251.0</ele><time>2026-05-02T16:02:16.557Z</time></trkpt><trkpt lat="42.245035" lon="13.2589417"><ele>1251.0</ele><time>2026-05-02T16:02:17.557Z</time></trkpt><trkpt lat="42.2451167" lon="13.2590283"><ele>1252.0</ele><time>2026-05-02T16:02:18.558Z</time></trkpt><trkpt lat="42.245205" lon="13.2591017"><ele>1253.0</ele><time>2026-05-02T16:02:19.557Z</time></trkpt><trkpt lat="42.2453033" lon="13.2591583"><ele>1254.0</ele><time>2026-05-02T16:02:20.558Z</time></trkpt><trkpt lat="42.2454233" lon="13.2592117"><ele>1255.0</ele><time>2026-05-02T16:02:21.558Z</time></trkpt><trkpt lat="42.24555" lon="13.2592683"><ele>1254.8</ele><time>2026-05-02T16:02:22.558Z</time></trkpt><trkpt lat="42.2456733" lon="13.2593067"><ele>1254.6</ele><time>2026-05-02T16:02:23.558Z</time></trkpt><trkpt lat="42.2457833" lon="13.2593417"><ele>1254.4</ele><time>2026-05-02T16:02:24.558Z</time></trkpt><trkpt lat="42.2458817" lon="13.259375"><ele>1254.2</ele><time>2026-05-02T16:02:25.557Z</time></trkpt><trkpt lat="42.2459817" lon="13.2594167"><ele>1254.0</ele><time>2026-05-02T16:02:26.557Z</time></trkpt><trkpt lat="42.2460667" lon="13.2594517"><ele>1254.0</ele><time>2026-05-02T16:02:27.557Z</time></trkpt><trkpt lat="42.2461383" lon="13.259495"><ele>1254.0</ele><time>2026-05-02T16:02:28.558Z</time></trkpt><trkpt lat="42.2461967" lon="13.2595383"><ele>1254.0</ele><time>2026-05-02T16:02:29.558Z</time></trkpt><trkpt lat="42.24625" lon="13.2596733"><ele>1254.0</ele><time>2026-05-02T16:02:31.557Z</time></trkpt><trkpt lat="42.2462533" lon="13.259775"><ele>1254.0</ele><time>2026-05-02T16:02:32.557Z</time></trkpt><trkpt lat="42.246255" lon="13.2598733"><ele>1254.0</ele><time>2026-05-02T16:02:33.557Z</time></trkpt><trkpt lat="42.246265" lon="13.2600117"><ele>1257.0</ele><time>2026-05-02T16:02:35.558Z</time></trkpt><trkpt lat="42.2463083" lon="13.260075"><ele>1260.0</ele><time>2026-05-02T16:02:37.558Z</time></trkpt><trkpt lat="42.24641" lon="13.26011"><ele>1263.0</ele><time>2026-05-02T16:02:39.558Z</time></trkpt><trkpt lat="42.2464833" lon="13.2601117"><ele>1266.0</ele><time>2026-05-02T16:02:40.558Z</time></trkpt><trkpt lat="42.2465633" lon="13.2601067"><ele>1269.0</ele><time>2026-05-02T16:02:41.558Z</time></trkpt><trkpt lat="42.2466417" lon="13.2600783"><ele>1272.0</ele><time>2026-05-02T16:02:42.558Z</time></trkpt><trkpt lat="42.2467233" lon="13.26003"><ele>1271.1666666666667</ele><time>2026-05-02T16:02:43.558Z</time></trkpt><trkpt lat="42.24679" lon="13.25997"><ele>1270.3333333333333</ele><time>2026-05-02T16:02:44.557Z</time></trkpt><trkpt lat="42.2468517" lon="13.2598833"><ele>1269.5</ele><time>2026-05-02T16:02:45.557Z</time></trkpt><trkpt lat="42.2469067" lon="13.2597967"><ele>1268.6666666666665</ele><time>2026-05-02T16:02:46.558Z</time></trkpt><trkpt lat="42.2469533" lon="13.2597233"><ele>1267.8333333333333</ele><time>2026-05-02T16:02:47.557Z</time></trkpt><trkpt lat="42.2470317" lon="13.25968"><ele>1267.0</ele><time>2026-05-02T16:02:49.557Z</time></trkpt><trkpt lat="42.247095" lon="13.25976"><ele>1268.8333333333333</ele><time>2026-05-02T16:02:51.557Z</time></trkpt><trkpt lat="42.2471167" lon="13.2599033"><ele>1270.6666666666665</ele><time>2026-05-02T16:02:53.558Z</time></trkpt><trkpt lat="42.24711" lon="13.2599933"><ele>1272.5</ele><time>2026-05-02T16:02:54.558Z</time></trkpt><trkpt lat="42.247095" lon="13.2600917"><ele>1274.3333333333333</ele><time>2026-05-02T16:02:55.557Z</time></trkpt><trkpt lat="42.2470733" lon="13.2601733"><ele>1276.1666666666667</ele><time>2026-05-02T16:02:56.558Z</time></trkpt><trkpt lat="42.2470733" lon="13.2602967"><ele>1278.0</ele><time>2026-05-02T16:02:58.557Z</time></trkpt><trkpt lat="42.2471467" lon="13.2603467"><ele>1278.0</ele><time>2026-05-02T16:03:00.558Z</time></trkpt><trkpt lat="42.2472233" lon="13.2603567"><ele>1278.0</ele><time>2026-05-02T16:03:02.557Z</time></trkpt><trkpt lat="42.2473033" lon="13.2601967"><ele>1278.0</ele><time>2026-05-02T16:03:04.557Z</time></trkpt><trkpt lat="42.247335" lon="13.2600583"><ele>1278.0</ele><time>2026-05-02T16:03:05.558Z</time></trkpt><trkpt lat="42.2473583" lon="13.2599217"><ele>1278.0</ele><time>2026-05-02T16:03:06.558Z</time></trkpt><trkpt lat="42.2473817" lon="13.2597867"><ele>1279.6</ele><time>2026-05-02T16:03:07.558Z</time></trkpt><trkpt lat="42.24741" lon="13.2596667"><ele>1281.1999999999998</ele><time>2026-05-02T16:03:08.557Z</time></trkpt><trkpt lat="42.2474583" lon="13.259555"><ele>1282.8</ele><time>2026-05-02T16:03:09.558Z</time></trkpt><trkpt lat="42.247535" lon="13.2594583"><ele>1284.3999999999999</ele><time>2026-05-02T16:03:10.558Z</time></trkpt><trkpt lat="42.2476167" lon="13.2593983"><ele>1286.0</ele><time>2026-05-02T16:03:11.557Z</time></trkpt><trkpt lat="42.2476817" lon="13.2593333"><ele>1286.0</ele><time>2026-05-02T16:03:12.557Z</time></trkpt><trkpt lat="42.247725" lon="13.2592467"><ele>1286.0</ele><time>2026-05-02T16:03:13.558Z</time></trkpt><trkpt lat="42.2477567" lon="13.259155"><ele>1286.0</ele><time>2026-05-02T16:03:14.557Z</time></trkpt><trkpt lat="42.2477983" lon="13.259075"><ele>1286.0</ele><time>2026-05-02T16:03:15.557Z</time></trkpt><trkpt lat="42.2478617" lon="13.2590067"><ele>1286.0</ele><time>2026-05-02T16:03:16.557Z</time></trkpt><trkpt lat="42.2479433" lon="13.2589567"><ele>1286.0</ele><time>2026-05-02T16:03:17.558Z</time></trkpt><trkpt lat="42.2480117" lon="13.258895"><ele>1283.6</ele><time>2026-05-02T16:03:18.558Z</time></trkpt><trkpt lat="42.2480617" lon="13.258795"><ele>1281.1999999999998</ele><time>2026-05-02T16:03:19.557Z</time></trkpt><trkpt lat="42.2481067" lon="13.2586683"><ele>1278.8000000000002</ele><time>2026-05-02T16:03:20.558Z</time></trkpt><trkpt lat="42.24815" lon="13.2585367"><ele>1276.4</ele><time>2026-05-02T16:03:21.558Z</time></trkpt><trkpt lat="42.24819" lon="13.2584167"><ele>1274.0</ele><time>2026-05-02T16:03:22.558Z</time></trkpt><trkpt lat="42.2482317" lon="13.2582983"><ele>1276.0</ele><time>2026-05-02T16:03:23.557Z</time></trkpt><trkpt lat="42.2482783" lon="13.2581833"><ele>1278.0</ele><time>2026-05-02T16:03:24.557Z</time></trkpt><trkpt lat="42.248345" lon="13.2580783"><ele>1280.0</ele><time>2026-05-02T16:03:25.557Z</time></trkpt><trkpt lat="42.248405" lon="13.2579867"><ele>1282.0</ele><time>2026-05-02T16:03:26.558Z</time></trkpt><trkpt lat="42.2484583" lon="13.257865"><ele>1284.0</ele><time>2026-05-02T16:03:27.557Z</time></trkpt><trkpt lat="42.2484983" lon="13.2577367"><ele>1284.0</ele><time>2026-05-02T16:03:28.558Z</time></trkpt><trkpt lat="42.2485383" lon="13.2576033"><ele>1284.0</ele><time>2026-05-02T16:03:29.557Z</time></trkpt><trkpt lat="42.2485883" lon="13.2574917"><ele>1284.0</ele><time>2026-05-02T16:03:30.558Z</time></trkpt><trkpt lat="42.24865" lon="13.2573817"><ele>1284.0</ele><time>2026-05-02T16:03:31.557Z</time></trkpt><trkpt lat="42.2487167" lon="13.2572817"><ele>1284.0</ele><time>2026-05-02T16:03:32.558Z</time></trkpt><trkpt lat="42.2487917" lon="13.2571867"><ele>1285.4</ele><time>2026-05-02T16:03:33.558Z</time></trkpt><trkpt lat="42.2488717" lon="13.2571133"><ele>1286.8000000000002</ele><time>2026-05-02T16:03:34.558Z</time></trkpt><trkpt lat="42.248965" lon="13.2570533"><ele>1288.1999999999998</ele><time>2026-05-02T16:03:35.558Z</time></trkpt><trkpt lat="42.2490733" lon="13.2569867"><ele>1289.6</ele><time>2026-05-02T16:03:36.557Z</time></trkpt><trkpt lat="42.2491817" lon="13.2569333"><ele>1291.0</ele><time>2026-05-02T16:03:37.558Z</time></trkpt><trkpt lat="42.2492967" lon="13.2568867"><ele>1291.0</ele><time>2026-05-02T16:03:38.558Z</time></trkpt><trkpt lat="42.24941" lon="13.2568567"><ele>1291.0</ele><time>2026-05-02T16:03:39.557Z</time></trkpt><trkpt lat="42.2495217" lon="13.2568567"><ele>1291.0</ele><time>2026-05-02T16:03:40.557Z</time></trkpt><trkpt lat="42.2496183" lon="13.256855"><ele>1291.0</ele><time>2026-05-02T16:03:41.557Z</time></trkpt><trkpt lat="42.249705" lon="13.256855"><ele>1291.0</ele><time>2026-05-02T16:03:42.558Z</time></trkpt><trkpt lat="42.24977" lon="13.2568533"><ele>1291.6</ele><time>2026-05-02T16:03:43.557Z</time></trkpt><trkpt lat="42.2498333" lon="13.2568533"><ele>1292.1999999999998</ele><time>2026-05-02T16:03:44.558Z</time></trkpt><trkpt lat="42.24991" lon="13.2568283"><ele>1292.8000000000002</ele><time>2026-05-02T16:03:45.558Z</time></trkpt><trkpt lat="42.2499983" lon="13.25677"><ele>1293.4</ele><time>2026-05-02T16:03:46.558Z</time></trkpt><trkpt lat="42.250095" lon="13.2567083"><ele>1294.0</ele><time>2026-05-02T16:03:47.557Z</time></trkpt><trkpt lat="42.2501933" lon="13.2566483"><ele>1294.0</ele><time>2026-05-02T16:03:48.557Z</time></trkpt><trkpt lat="42.2502833" lon="13.2565733"><ele>1294.0</ele><time>2026-05-02T16:03:49.557Z</time></trkpt><trkpt lat="42.2503667" lon="13.2565067"><ele>1294.0</ele><time>2026-05-02T16:03:50.557Z</time></trkpt><trkpt lat="42.2504467" lon="13.2564483"><ele>1294.0</ele><time>2026-05-02T16:03:51.558Z</time></trkpt><trkpt lat="42.2505233" lon="13.2564083"><ele>1294.0</ele><time>2026-05-02T16:03:52.557Z</time></trkpt><trkpt lat="42.2506067" lon="13.256385"><ele>1289.75</ele><time>2026-05-02T16:03:53.557Z</time></trkpt><trkpt lat="42.2507133" lon="13.2563783"><ele>1285.5</ele><time>2026-05-02T16:03:54.558Z</time></trkpt><trkpt lat="42.2508383" lon="13.2563733"><ele>1281.25</ele><time>2026-05-02T16:03:55.557Z</time></trkpt><trkpt lat="42.2509567" lon="13.2563683"><ele>1277.0</ele><time>2026-05-02T16:03:56.558Z</time></trkpt><trkpt lat="42.2510783" lon="13.2563767"><ele>1277.0</ele><time>2026-05-02T16:03:57.557Z</time></trkpt><trkpt lat="42.251185" lon="13.2563983"><ele>1277.0</ele><time>2026-05-02T16:03:58.557Z</time></trkpt><trkpt lat="42.2512917" lon="13.2564467"><ele>1277.0</ele><time>2026-05-02T16:03:59.558Z</time></trkpt><trkpt lat="42.2514083" lon="13.256505"><ele>1277.0</ele><time>2026-05-02T16:04:00.557Z</time></trkpt><trkpt lat="42.2515183" lon="13.2565633"><ele>1280.5</ele><time>2026-05-02T16:04:01.558Z</time></trkpt><trkpt lat="42.2516117" lon="13.2566117"><ele>1284.0</ele><time>2026-05-02T16:04:02.558Z</time></trkpt><trkpt lat="42.2516867" lon="13.2566517"><ele>1287.5</ele><time>2026-05-02T16:04:03.557Z</time></trkpt><trkpt lat="42.2517517" lon="13.2566733"><ele>1291.0</ele><time>2026-05-02T16:04:04.558Z</time></trkpt><trkpt lat="42.25184" lon="13.25666"><ele>1294.5</ele><time>2026-05-02T16:04:06.557Z</time></trkpt><trkpt lat="42.2519167" lon="13.256565"><ele>1298.0</ele><time>2026-05-02T16:04:08.558Z</time></trkpt><trkpt lat="42.2519617" lon="13.2564717"><ele>1294.25</ele><time>2026-05-02T16:04:09.557Z</time></trkpt><trkpt lat="42.2520167" lon="13.2563633"><ele>1290.5</ele><time>2026-05-02T16:04:10.557Z</time></trkpt><trkpt lat="42.2520933" lon="13.2562333"><ele>1286.75</ele><time>2026-05-02T16:04:11.557Z</time></trkpt><trkpt lat="42.252175" lon="13.25609"><ele>1283.0</ele><time>2026-05-02T16:04:12.557Z</time></trkpt><trkpt lat="42.252265" lon="13.2559267"><ele>1284.25</ele><time>2026-05-02T16:04:13.558Z</time></trkpt><trkpt lat="42.2523583" lon="13.2557633"><ele>1285.5</ele><time>2026-05-02T16:04:14.558Z</time></trkpt><trkpt lat="42.2524417" lon="13.2556317"><ele>1286.75</ele><time>2026-05-02T16:04:15.557Z</time></trkpt><trkpt lat="42.25252" lon="13.2555083"><ele>1288.0</ele><time>2026-05-02T16:04:16.557Z</time></trkpt><trkpt lat="42.2526183" lon="13.2554183"><ele>1288.0</ele><time>2026-05-02T16:04:17.557Z</time></trkpt><trkpt lat="42.252725" lon="13.2553117"><ele>1288.0</ele><time>2026-05-02T16:04:18.557Z</time></trkpt><trkpt lat="42.2528317" lon="13.2552267"><ele>1288.0</ele><time>2026-05-02T16:04:19.557Z</time></trkpt><trkpt lat="42.2529317" lon="13.2551517"><ele>1288.0</ele><time>2026-05-02T16:04:20.558Z</time></trkpt><trkpt lat="42.2530367" lon="13.2551067"><ele>1289.5</ele><time>2026-05-02T16:04:21.558Z</time></trkpt><trkpt lat="42.2531583" lon="13.2550667"><ele>1291.0</ele><time>2026-05-02T16:04:22.558Z</time></trkpt><trkpt lat="42.25327" lon="13.2550267"><ele>1292.5</ele><time>2026-05-02T16:04:23.557Z</time></trkpt><trkpt lat="42.2533767" lon="13.25499"><ele>1294.0</ele><time>2026-05-02T16:04:24.558Z</time></trkpt><trkpt lat="42.253485" lon="13.2549483"><ele>1294.0</ele><time>2026-05-02T16:04:25.558Z</time></trkpt><trkpt lat="42.253595" lon="13.2548817"><ele>1294.0</ele><time>2026-05-02T16:04:26.558Z</time></trkpt><trkpt lat="42.2536967" lon="13.2548017"><ele>1294.0</ele><time>2026-05-02T16:04:27.557Z</time></trkpt><trkpt lat="42.2537917" lon="13.2547317"><ele>1294.0</ele><time>2026-05-02T16:04:28.557Z</time></trkpt><trkpt lat="42.2538983" lon="13.254665"><ele>1291.5</ele><time>2026-05-02T16:04:29.557Z</time></trkpt><trkpt lat="42.2540167" lon="13.2546083"><ele>1289.0</ele><time>2026-05-02T16:04:30.557Z</time></trkpt><trkpt lat="42.25414" lon="13.2545267"><ele>1286.5</ele><time>2026-05-02T16:04:31.557Z</time></trkpt><trkpt lat="42.2542767" lon="13.2544583"><ele>1284.0</ele><time>2026-05-02T16:04:32.557Z</time></trkpt><trkpt lat="42.2544083" lon="13.2543917"><ele>1284.0</ele><time>2026-05-02T16:04:33.558Z</time></trkpt><trkpt lat="42.254525" lon="13.25432"><ele>1284.0</ele><time>2026-05-02T16:04:34.557Z</time></trkpt><trkpt lat="42.2546283" lon="13.2542483"><ele>1284.0</ele><time>2026-05-02T16:04:35.557Z</time></trkpt><trkpt lat="42.25472" lon="13.2541783"><ele>1284.0</ele><time>2026-05-02T16:04:36.557Z</time></trkpt><trkpt lat="42.254815" lon="13.2541067"><ele>1281.75</ele><time>2026-05-02T16:04:37.558Z</time></trkpt><trkpt lat="42.254915" lon="13.2540567"><ele>1279.5</ele><time>2026-05-02T16:04:38.557Z</time></trkpt><trkpt lat="42.2550267" lon="13.2540133"><ele>1277.25</ele><time>2026-05-02T16:04:39.558Z</time></trkpt><trkpt lat="42.2551467" lon="13.2539633"><ele>1275.0</ele><time>2026-05-02T16:04:40.557Z</time></trkpt><trkpt lat="42.255265" lon="13.2539033"><ele>1275.0</ele><time>2026-05-02T16:04:41.558Z</time></trkpt><trkpt lat="42.2553867" lon="13.253835"><ele>1275.0</ele><time>2026-05-02T16:04:42.557Z</time></trkpt><trkpt lat="42.2554933" lon="13.2537617"><ele>1275.0</ele><time>2026-05-02T16:04:43.558Z</time></trkpt><trkpt lat="42.2555917" lon="13.2536833"><ele>1275.0</ele><time>2026-05-02T16:04:44.557Z</time></trkpt><trkpt lat="42.2556783" lon="13.25361"><ele>1277.0</ele><time>2026-05-02T16:04:45.558Z</time></trkpt><trkpt lat="42.2557333" lon="13.253545"><ele>1279.0</ele><time>2026-05-02T16:04:46.557Z</time></trkpt><trkpt lat="42.2557717" lon="13.25346"><ele>1281.0</ele><time>2026-05-02T16:04:47.558Z</time></trkpt><trkpt lat="42.2558017" lon="13.2533617"><ele>1283.0</ele><time>2026-05-02T16:04:48.558Z</time></trkpt><trkpt lat="42.255825" lon="13.2532433"><ele>1285.0</ele><time>2026-05-02T16:04:49.557Z</time></trkpt><trkpt lat="42.2558417" lon="13.253075"><ele>1287.0</ele><time>2026-05-02T16:04:50.558Z</time></trkpt><trkpt lat="42.2558517" lon="13.2529083"><ele>1287.0</ele><time>2026-05-02T16:04:51.558Z</time></trkpt><trkpt lat="42.2558567" lon="13.25278"><ele>1287.0</ele><time>2026-05-02T16:04:52.558Z</time></trkpt><trkpt lat="42.255875" lon="13.2526517"><ele>1287.0</ele><time>2026-05-02T16:04:53.557Z</time></trkpt><trkpt lat="42.25591" lon="13.2525133"><ele>1287.0</ele><time>2026-05-02T16:04:54.557Z</time></trkpt><trkpt lat="42.2559467" lon="13.252375"><ele>1287.0</ele><time>2026-05-02T16:04:55.558Z</time></trkpt><trkpt lat="42.2559883" lon="13.2522717"><ele>1286.1999999999998</ele><time>2026-05-02T16:04:56.558Z</time></trkpt><trkpt lat="42.256045" lon="13.2521817"><ele>1285.4</ele><time>2026-05-02T16:04:57.558Z</time></trkpt><trkpt lat="42.25612" lon="13.25212"><ele>1284.6</ele><time>2026-05-02T16:04:58.558Z</time></trkpt><trkpt lat="42.2561983" lon="13.252055"><ele>1283.8000000000002</ele><time>2026-05-02T16:04:59.558Z</time></trkpt><trkpt lat="42.2562733" lon="13.25198"><ele>1283.0</ele><time>2026-05-02T16:05:00.558Z</time></trkpt><trkpt lat="42.2563533" lon="13.2518867"><ele>1283.0</ele><time>2026-05-02T16:05:01.557Z</time></trkpt><trkpt lat="42.2564283" lon="13.2517883"><ele>1283.0</ele><time>2026-05-02T16:05:02.557Z</time></trkpt><trkpt lat="42.2565017" lon="13.25171"><ele>1283.0</ele><time>2026-05-02T16:05:03.557Z</time></trkpt><trkpt lat="42.25659" lon="13.2516583"><ele>1283.0</ele><time>2026-05-02T16:05:04.558Z</time></trkpt><trkpt lat="42.2567" lon="13.2516033"><ele>1283.0</ele><time>2026-05-02T16:05:05.558Z</time></trkpt><trkpt lat="42.2568117" lon="13.2515483"><ele>1285.3333333333335</ele><time>2026-05-02T16:05:06.558Z</time></trkpt><trkpt lat="42.2569133" lon="13.2515133"><ele>1287.6666666666667</ele><time>2026-05-02T16:05:07.557Z</time></trkpt><trkpt lat="42.256985" lon="13.2514983"><ele>1290.0</ele><time>2026-05-02T16:05:08.557Z</time></trkpt><trkpt lat="42.2570583" lon="13.2515067"><ele>1292.3333333333333</ele><time>2026-05-02T16:05:10.558Z</time></trkpt><trkpt lat="42.2570967" lon="13.2515833"><ele>1294.6666666666665</ele><time>2026-05-02T16:05:12.558Z</time></trkpt><trkpt lat="42.257125" lon="13.2517417"><ele>1297.0</ele><time>2026-05-02T16:05:14.557Z</time></trkpt><trkpt lat="42.257145" lon="13.2518483"><ele>1297.0</ele><time>2026-05-02T16:05:15.558Z</time></trkpt><trkpt lat="42.2571617" lon="13.2519533"><ele>1297.0</ele><time>2026-05-02T16:05:16.557Z</time></trkpt><trkpt lat="42.25718" lon="13.2520633"><ele>1297.0</ele><time>2026-05-02T16:05:17.557Z</time></trkpt><trkpt lat="42.257195" lon="13.2521767"><ele>1297.0</ele><time>2026-05-02T16:05:18.557Z</time></trkpt><trkpt lat="42.25719" lon="13.2522667"><ele>1297.0</ele><time>2026-05-02T16:05:19.557Z</time></trkpt><trkpt lat="42.2571917" lon="13.252365"><ele>1297.0</ele><time>2026-05-02T16:05:20.558Z</time></trkpt><trkpt lat="42.2571917" lon="13.2524567"><ele>1298.0</ele><time>2026-05-02T16:05:21.557Z</time></trkpt><trkpt lat="42.2572217" lon="13.2526"><ele>1299.0</ele><time>2026-05-02T16:05:23.557Z</time></trkpt><trkpt lat="42.2573017" lon="13.25267"><ele>1300.0</ele><time>2026-05-02T16:05:25.557Z</time></trkpt><trkpt lat="42.25742" lon="13.2526383"><ele>1301.0</ele><time>2026-05-02T16:05:27.558Z</time></trkpt><trkpt lat="42.25749" lon="13.2525933"><ele>1302.0</ele><time>2026-05-02T16:05:28.558Z</time></trkpt><trkpt lat="42.257555" lon="13.2525633"><ele>1299.6</ele><time>2026-05-02T16:05:29.557Z</time></trkpt><trkpt lat="42.2576333" lon="13.252555"><ele>1297.1999999999998</ele><time>2026-05-02T16:05:30.557Z</time></trkpt><trkpt lat="42.2577183" lon="13.2525567"><ele>1294.8</ele><time>2026-05-02T16:05:31.558Z</time></trkpt><trkpt lat="42.25781" lon="13.25256"><ele>1292.4</ele><time>2026-05-02T16:05:32.558Z</time></trkpt><trkpt lat="42.25792" lon="13.25256"><ele>1290.0</ele><time>2026-05-02T16:05:33.558Z</time></trkpt><trkpt lat="42.2580217" lon="13.2525517"><ele>1290.0</ele><time>2026-05-02T16:05:34.557Z</time></trkpt><trkpt lat="42.258125" lon="13.2525333"><ele>1290.0</ele><time>2026-05-02T16:05:35.558Z</time></trkpt><trkpt lat="42.25822" lon="13.2524933"><ele>1290.0</ele><time>2026-05-02T16:05:36.557Z</time></trkpt><trkpt lat="42.2583267" lon="13.2524383"><ele>1290.0</ele><time>2026-05-02T16:05:37.558Z</time></trkpt><trkpt lat="42.2584167" lon="13.2523733"><ele>1290.0</ele><time>2026-05-02T16:05:38.557Z</time></trkpt><trkpt lat="42.25849" lon="13.252305"><ele>1287.8333333333333</ele><time>2026-05-02T16:05:39.557Z</time></trkpt><trkpt lat="42.25855" lon="13.2522317"><ele>1285.6666666666667</ele><time>2026-05-02T16:05:40.557Z</time></trkpt><trkpt lat="42.258585" lon="13.252145"><ele>1283.5</ele><time>2026-05-02T16:05:41.557Z</time></trkpt><trkpt lat="42.258615" lon="13.252065"><ele>1281.3333333333335</ele><time>2026-05-02T16:05:42.556Z</time></trkpt><trkpt lat="42.2586633" lon="13.2519683"><ele>1279.1666666666667</ele><time>2026-05-02T16:05:43.557Z</time></trkpt><trkpt lat="42.258715" lon="13.2518633"><ele>1277.0</ele><time>2026-05-02T16:05:44.556Z</time></trkpt><trkpt lat="42.2587833" lon="13.251755"><ele>1277.0</ele><time>2026-05-02T16:05:45.556Z</time></trkpt><trkpt lat="42.258855" lon="13.2516567"><ele>1277.0</ele><time>2026-05-02T16:05:46.557Z</time></trkpt><trkpt lat="42.2589367" lon="13.25156"><ele>1277.0</ele><time>2026-05-02T16:05:47.556Z</time></trkpt><trkpt lat="42.259025" lon="13.25148"><ele>1277.0</ele><time>2026-05-02T16:05:48.557Z</time></trkpt><trkpt lat="42.2591167" lon="13.2514217"><ele>1277.0</ele><time>2026-05-02T16:05:49.556Z</time></trkpt><trkpt lat="42.2592083" lon="13.25138"><ele>1275.5</ele><time>2026-05-02T16:05:50.556Z</time></trkpt><trkpt lat="42.259295" lon="13.2513467"><ele>1274.0</ele><time>2026-05-02T16:05:51.557Z</time></trkpt><trkpt lat="42.2593783" lon="13.2513067"><ele>1272.5</ele><time>2026-05-02T16:05:52.556Z</time></trkpt><trkpt lat="42.259455" lon="13.2512683"><ele>1271.0</ele><time>2026-05-02T16:05:53.557Z</time></trkpt><trkpt lat="42.25953" lon="13.251215"><ele>1269.5</ele><time>2026-05-02T16:05:54.556Z</time></trkpt><trkpt lat="42.2595983" lon="13.2511517"><ele>1268.0</ele><time>2026-05-02T16:05:55.556Z</time></trkpt><trkpt lat="42.25965" lon="13.2510633"><ele>1268.0</ele><time>2026-05-02T16:05:56.557Z</time></trkpt><trkpt lat="42.2597067" lon="13.2509617"><ele>1268.0</ele><time>2026-05-02T16:05:57.556Z</time></trkpt><trkpt lat="42.2597633" lon="13.25083"><ele>1268.0</ele><time>2026-05-02T16:05:58.557Z</time></trkpt><trkpt lat="42.2598133" lon="13.2506817"><ele>1268.0</ele><time>2026-05-02T16:05:59.556Z</time></trkpt><trkpt lat="42.2598517" lon="13.2505483"><ele>1268.0</ele><time>2026-05-02T16:06:00.557Z</time></trkpt><trkpt lat="42.2598783" lon="13.250385"><ele>1268.8</ele><time>2026-05-02T16:06:01.557Z</time></trkpt><trkpt lat="42.2599017" lon="13.25023"><ele>1269.6</ele><time>2026-05-02T16:06:02.557Z</time></trkpt><trkpt lat="42.2599183" lon="13.2500817"><ele>1270.4</ele><time>2026-05-02T16:06:03.556Z</time></trkpt><trkpt lat="42.2599233" lon="13.2499417"><ele>1271.2</ele><time>2026-05-02T16:06:04.557Z</time></trkpt><trkpt lat="42.2599367" lon="13.24981"><ele>1272.0</ele><time>2026-05-02T16:06:05.557Z</time></trkpt><trkpt lat="42.2599667" lon="13.24967"><ele>1270.0</ele><time>2026-05-02T16:06:06.556Z</time></trkpt><trkpt lat="42.2600067" lon="13.24953"><ele>1268.0</ele><time>2026-05-02T16:06:07.556Z</time></trkpt><trkpt lat="42.2600467" lon="13.2493783"><ele>1266.0</ele><time>2026-05-02T16:06:08.556Z</time></trkpt><trkpt lat="42.2600867" lon="13.2492167"><ele>1264.0</ele><time>2026-05-02T16:06:09.557Z</time></trkpt><trkpt lat="42.2601117" lon="13.2490583"><ele>1262.75</ele><time>2026-05-02T16:06:10.557Z</time></trkpt><trkpt lat="42.2601417" lon="13.2488967"><ele>1261.5</ele><time>2026-05-02T16:06:11.557Z</time></trkpt><trkpt lat="42.2601833" lon="13.24872"><ele>1260.25</ele><time>2026-05-02T16:06:12.557Z</time></trkpt><trkpt lat="42.2602217" lon="13.2485433"><ele>1259.0</ele><time>2026-05-02T16:06:13.557Z</time></trkpt><trkpt lat="42.2602483" lon="13.2483633"><ele>1259.0</ele><time>2026-05-02T16:06:14.556Z</time></trkpt><trkpt lat="42.2602683" lon="13.2481917"><ele>1259.0</ele><time>2026-05-02T16:06:15.557Z</time></trkpt><trkpt lat="42.260285" lon="13.2480433"><ele>1259.0</ele><time>2026-05-02T16:06:16.556Z</time></trkpt><trkpt lat="42.2603017" lon="13.247905"><ele>1259.0</ele><time>2026-05-02T16:06:17.557Z</time></trkpt><trkpt lat="42.260315" lon="13.247765"><ele>1259.0</ele><time>2026-05-02T16:06:18.557Z</time></trkpt><trkpt lat="42.2603367" lon="13.24764"><ele>1258.0</ele><time>2026-05-02T16:06:19.557Z</time></trkpt><trkpt lat="42.2603633" lon="13.2475283"><ele>1257.0</ele><time>2026-05-02T16:06:20.556Z</time></trkpt><trkpt lat="42.26038" lon="13.24743"><ele>1256.0</ele><time>2026-05-02T16:06:21.557Z</time></trkpt><trkpt lat="42.2604067" lon="13.247345"><ele>1255.0</ele><time>2026-05-02T16:06:22.557Z</time></trkpt><trkpt lat="42.2604467" lon="13.2472683"><ele>1254.0</ele><time>2026-05-02T16:06:23.557Z</time></trkpt><trkpt lat="42.2605" lon="13.247175"><ele>1253.0</ele><time>2026-05-02T16:06:24.557Z</time></trkpt><trkpt lat="42.2605617" lon="13.2470817"><ele>1253.6</ele><time>2026-05-02T16:06:25.557Z</time></trkpt><trkpt lat="42.2606183" lon="13.24698"><ele>1254.1999999999998</ele><time>2026-05-02T16:06:26.557Z</time></trkpt><trkpt lat="42.2606817" lon="13.2468717"><ele>1254.8</ele><time>2026-05-02T16:06:27.556Z</time></trkpt><trkpt lat="42.26074" lon="13.2467633"><ele>1255.3999999999999</ele><time>2026-05-02T16:06:28.557Z</time></trkpt><trkpt lat="42.2608067" lon="13.2466517"><ele>1256.0</ele><time>2026-05-02T16:06:29.556Z</time></trkpt><trkpt lat="42.2608733" lon="13.2465283"><ele>1255.0</ele><time>2026-05-02T16:06:30.557Z</time></trkpt><trkpt lat="42.2609367" lon="13.2464117"><ele>1254.0</ele><time>2026-05-02T16:06:31.557Z</time></trkpt><trkpt lat="42.2610033" lon="13.24629"><ele>1253.0</ele><time>2026-05-02T16:06:32.557Z</time></trkpt><trkpt lat="42.26107" lon="13.2461733"><ele>1252.0</ele><time>2026-05-02T16:06:33.556Z</time></trkpt><trkpt lat="42.2611317" lon="13.2460583"><ele>1251.0</ele><time>2026-05-02T16:06:34.556Z</time></trkpt><trkpt lat="42.2611967" lon="13.2459417"><ele>1251.0</ele><time>2026-05-02T16:06:35.556Z</time></trkpt><trkpt lat="42.26127" lon="13.2458"><ele>1251.0</ele><time>2026-05-02T16:06:36.556Z</time></trkpt><trkpt lat="42.2613483" lon="13.2456633"><ele>1251.0</ele><time>2026-05-02T16:06:37.557Z</time></trkpt><trkpt lat="42.2614167" lon="13.245535"><ele>1251.0</ele><time>2026-05-02T16:06:38.557Z</time></trkpt><trkpt lat="42.26148" lon="13.24541"><ele>1252.0</ele><time>2026-05-02T16:06:39.557Z</time></trkpt><trkpt lat="42.261545" lon="13.2452733"><ele>1253.0</ele><time>2026-05-02T16:06:40.557Z</time></trkpt><trkpt lat="42.2616033" lon="13.245125"><ele>1254.0</ele><time>2026-05-02T16:06:41.556Z</time></trkpt><trkpt lat="42.2616517" lon="13.24498"><ele>1255.0</ele><time>2026-05-02T16:06:42.556Z</time></trkpt><trkpt lat="42.26169" lon="13.24483"><ele>1254.5</ele><time>2026-05-02T16:06:43.557Z</time></trkpt><trkpt lat="42.2617233" lon="13.2446817"><ele>1254.0</ele><time>2026-05-02T16:06:44.557Z</time></trkpt><trkpt lat="42.2617467" lon="13.2445217"><ele>1253.5</ele><time>2026-05-02T16:06:45.556Z</time></trkpt><trkpt lat="42.261745" lon="13.24435"><ele>1253.0</ele><time>2026-05-02T16:06:46.556Z</time></trkpt><trkpt lat="42.261725" lon="13.2441933"><ele>1253.0</ele><time>2026-05-02T16:06:47.557Z</time></trkpt><trkpt lat="42.2616983" lon="13.2440633"><ele>1253.0</ele><time>2026-05-02T16:06:48.556Z</time></trkpt><trkpt lat="42.2616417" lon="13.2439417"><ele>1253.0</ele><time>2026-05-02T16:06:49.556Z</time></trkpt><trkpt lat="42.2615683" lon="13.2438233"><ele>1253.0</ele><time>2026-05-02T16:06:50.557Z</time></trkpt><trkpt lat="42.2614733" lon="13.243715"><ele>1253.0</ele><time>2026-05-02T16:06:51.557Z</time></trkpt><trkpt lat="42.26138" lon="13.2436183"><ele>1253.0</ele><time>2026-05-02T16:06:52.556Z</time></trkpt><trkpt lat="42.261295" lon="13.24354"><ele>1253.0</ele><time>2026-05-02T16:06:53.556Z</time></trkpt><trkpt lat="42.2612" lon="13.243455"><ele>1253.0</ele><time>2026-05-02T16:06:54.557Z</time></trkpt><trkpt lat="42.261095" lon="13.2433617"><ele>1253.0</ele><time>2026-05-02T16:06:55.556Z</time></trkpt><trkpt lat="42.260995" lon="13.2432733"><ele>1253.0</ele><time>2026-05-02T16:06:56.557Z</time></trkpt><trkpt lat="42.260915" lon="13.2431933"><ele>1253.0</ele><time>2026-05-02T16:06:57.556Z</time></trkpt><trkpt lat="42.2608567" lon="13.2431083"><ele>1253.0</ele><time>2026-05-02T16:06:58.557Z</time></trkpt><trkpt lat="42.2608233" lon="13.2429933"><ele>1253.0</ele><time>2026-05-02T16:06:59.556Z</time></trkpt><trkpt lat="42.2608067" lon="13.2428567"><ele>1253.0</ele><time>2026-05-02T16:07:00.557Z</time></trkpt><trkpt lat="42.2608" lon="13.2426867"><ele>1253.0</ele><time>2026-05-02T16:07:01.557Z</time></trkpt><trkpt lat="42.2607967" lon="13.2425167"><ele>1253.0</ele><time>2026-05-02T16:07:02.556Z</time></trkpt><trkpt lat="42.2607733" lon="13.2423717"><ele>1253.0</ele><time>2026-05-02T16:07:03.557Z</time></trkpt><trkpt lat="42.2607383" lon="13.2422417"><ele>1253.0</ele><time>2026-05-02T16:07:04.556Z</time></trkpt><trkpt lat="42.2607017" lon="13.2421317"><ele>1253.0</ele><time>2026-05-02T16:07:05.557Z</time></trkpt><trkpt lat="42.2606483" lon="13.242025"><ele>1249.8</ele><time>2026-05-02T16:07:06.556Z</time></trkpt><trkpt lat="42.2606083" lon="13.2418967"><ele>1246.6</ele><time>2026-05-02T16:07:07.557Z</time></trkpt><trkpt lat="42.2605917" lon="13.2417533"><ele>1243.4</ele><time>2026-05-02T16:07:08.557Z</time></trkpt><trkpt lat="42.26059" lon="13.2415983"><ele>1240.2</ele><time>2026-05-02T16:07:09.556Z</time></trkpt><trkpt lat="42.2605883" lon="13.2414483"><ele>1237.0</ele><time>2026-05-02T16:07:10.557Z</time></trkpt><trkpt lat="42.2606033" lon="13.2413133"><ele>1238.0</ele><time>2026-05-02T16:07:11.556Z</time></trkpt><trkpt lat="42.2606283" lon="13.2411867"><ele>1239.0</ele><time>2026-05-02T16:07:12.556Z</time></trkpt><trkpt lat="42.2606617" lon="13.2410667"><ele>1240.0</ele><time>2026-05-02T16:07:13.556Z</time></trkpt><trkpt lat="42.2606933" lon="13.2409783"><ele>1241.0</ele><time>2026-05-02T16:07:14.556Z</time></trkpt><trkpt lat="42.2607433" lon="13.240915"><ele>1242.0</ele><time>2026-05-02T16:07:15.557Z</time></trkpt><trkpt lat="42.2608083" lon="13.2408617"><ele>1243.0</ele><time>2026-05-02T16:07:16.557Z</time></trkpt><trkpt lat="42.2609017" lon="13.2407933"><ele>1243.0</ele><time>2026-05-02T16:07:17.557Z</time></trkpt><trkpt lat="42.261015" lon="13.24072"><ele>1243.0</ele><time>2026-05-02T16:07:18.557Z</time></trkpt><trkpt lat="42.2611233" lon="13.2406467"><ele>1243.0</ele><time>2026-05-02T16:07:19.556Z</time></trkpt><trkpt lat="42.2612333" lon="13.2405767"><ele>1243.0</ele><time>2026-05-02T16:07:20.557Z</time></trkpt><trkpt lat="42.2613283" lon="13.2405167"><ele>1241.6</ele><time>2026-05-02T16:07:21.556Z</time></trkpt><trkpt lat="42.26142" lon="13.2404583"><ele>1240.1999999999998</ele><time>2026-05-02T16:07:22.556Z</time></trkpt><trkpt lat="42.261505" lon="13.2403883"><ele>1238.8</ele><time>2026-05-02T16:07:23.557Z</time></trkpt><trkpt lat="42.2615933" lon="13.2403067"><ele>1237.3999999999999</ele><time>2026-05-02T16:07:24.556Z</time></trkpt><trkpt lat="42.26168" lon="13.2402233"><ele>1236.0</ele><time>2026-05-02T16:07:25.556Z</time></trkpt><trkpt lat="42.2617633" lon="13.2401383"><ele>1236.0</ele><time>2026-05-02T16:07:26.556Z</time></trkpt><trkpt lat="42.2618483" lon="13.240055"><ele>1236.0</ele><time>2026-05-02T16:07:27.556Z</time></trkpt><trkpt lat="42.2619333" lon="13.2399917"><ele>1236.0</ele><time>2026-05-02T16:07:28.557Z</time></trkpt><trkpt lat="42.262025" lon="13.2399417"><ele>1236.0</ele><time>2026-05-02T16:07:29.556Z</time></trkpt><trkpt lat="42.2621217" lon="13.2398917"><ele>1236.0</ele><time>2026-05-02T16:07:30.556Z</time></trkpt><trkpt lat="42.262215" lon="13.2398533"><ele>1237.2</ele><time>2026-05-02T16:07:31.557Z</time></trkpt><trkpt lat="42.2623117" lon="13.2398167"><ele>1238.3999999999999</ele><time>2026-05-02T16:07:32.557Z</time></trkpt><trkpt lat="42.262425" lon="13.239785"><ele>1239.6</ele><time>2026-05-02T16:07:33.557Z</time></trkpt><trkpt lat="42.2625317" lon="13.23977"><ele>1240.8</ele><time>2026-05-02T16:07:34.556Z</time></trkpt><trkpt lat="42.26264" lon="13.2397533"><ele>1242.0</ele><time>2026-05-02T16:07:35.557Z</time></trkpt><trkpt lat="42.2627483" lon="13.23974"><ele>1238.8</ele><time>2026-05-02T16:07:36.557Z</time></trkpt><trkpt lat="42.262865" lon="13.2397283"><ele>1235.6</ele><time>2026-05-02T16:07:37.556Z</time></trkpt><trkpt lat="42.2629733" lon="13.2397167"><ele>1232.3999999999999</ele><time>2026-05-02T16:07:38.557Z</time></trkpt><trkpt lat="42.2630667" lon="13.2396933"><ele>1229.2</ele><time>2026-05-02T16:07:39.556Z</time></trkpt><trkpt lat="42.2631367" lon="13.239655"><ele>1226.0</ele><time>2026-05-02T16:07:40.557Z</time></trkpt><trkpt lat="42.2631867" lon="13.2395883"><ele>1226.0</ele><time>2026-05-02T16:07:41.557Z</time></trkpt><trkpt lat="42.2632533" lon="13.2394333"><ele>1226.0</ele><time>2026-05-02T16:07:43.557Z</time></trkpt><trkpt lat="42.26327" lon="13.23932"><ele>1226.0</ele><time>2026-05-02T16:07:44.556Z</time></trkpt><trkpt lat="42.2632867" lon="13.2391767"><ele>1226.0</ele><time>2026-05-02T16:07:45.557Z</time></trkpt><trkpt lat="42.2632967" lon="13.2390067"><ele>1223.8</ele><time>2026-05-02T16:07:46.557Z</time></trkpt><trkpt lat="42.2632967" lon="13.2388383"><ele>1221.6</ele><time>2026-05-02T16:07:47.556Z</time></trkpt><trkpt lat="42.2633033" lon="13.2386933"><ele>1219.4</ele><time>2026-05-02T16:07:48.557Z</time></trkpt><trkpt lat="42.2633133" lon="13.2385817"><ele>1217.2</ele><time>2026-05-02T16:07:49.556Z</time></trkpt><trkpt lat="42.263325" lon="13.23848"><ele>1215.0</ele><time>2026-05-02T16:07:50.557Z</time></trkpt><trkpt lat="42.2633633" lon="13.238385"><ele>1215.0</ele><time>2026-05-02T16:07:51.556Z</time></trkpt><trkpt lat="42.263425" lon="13.2382717"><ele>1215.0</ele><time>2026-05-02T16:07:52.557Z</time></trkpt><trkpt lat="42.263495" lon="13.2381533"><ele>1215.0</ele><time>2026-05-02T16:07:53.556Z</time></trkpt><trkpt lat="42.263565" lon="13.23804"><ele>1215.0</ele><time>2026-05-02T16:07:54.556Z</time></trkpt><trkpt lat="42.2636233" lon="13.2379383"><ele>1215.0</ele><time>2026-05-02T16:07:55.556Z</time></trkpt><trkpt lat="42.2636833" lon="13.237855"><ele>1214.4</ele><time>2026-05-02T16:07:56.557Z</time></trkpt><trkpt lat="42.26374" lon="13.2377617"><ele>1213.8</ele><time>2026-05-02T16:07:57.557Z</time></trkpt><trkpt lat="42.26379" lon="13.237695"><ele>1213.2</ele><time>2026-05-02T16:07:58.557Z</time></trkpt><trkpt lat="42.2638833" lon="13.237635"><ele>1212.6</ele><time>2026-05-02T16:08:00.557Z</time></trkpt><trkpt lat="42.264005" lon="13.2375883"><ele>1212.0</ele><time>2026-05-02T16:08:02.557Z</time></trkpt><trkpt lat="42.2640867" lon="13.2375383"><ele>1212.0</ele><time>2026-05-02T16:08:03.556Z</time></trkpt><trkpt lat="42.2641917" lon="13.2374667"><ele>1212.0</ele><time>2026-05-02T16:08:04.556Z</time></trkpt><trkpt lat="42.2643067" lon="13.2374033"><ele>1212.0</ele><time>2026-05-02T16:08:05.556Z</time></trkpt><trkpt lat="42.26442" lon="13.2373717"><ele>1212.0</ele><time>2026-05-02T16:08:06.557Z</time></trkpt><trkpt lat="42.2645133" lon="13.2373583"><ele>1212.0</ele><time>2026-05-02T16:08:07.556Z</time></trkpt><trkpt lat="42.264595" lon="13.2373633"><ele>1212.0</ele><time>2026-05-02T16:08:08.557Z</time></trkpt><trkpt lat="42.2647267" lon="13.23746"><ele>1212.0</ele><time>2026-05-02T16:08:10.556Z</time></trkpt><trkpt lat="42.2647983" lon="13.23757"><ele>1212.0</ele><time>2026-05-02T16:08:11.556Z</time></trkpt><trkpt lat="42.264885" lon="13.237685"><ele>1212.6</ele><time>2026-05-02T16:08:12.557Z</time></trkpt><trkpt lat="42.2649733" lon="13.23778"><ele>1213.2</ele><time>2026-05-02T16:08:13.557Z</time></trkpt><trkpt lat="42.2650567" lon="13.2378633"><ele>1213.8</ele><time>2026-05-02T16:08:14.556Z</time></trkpt><trkpt lat="42.2651383" lon="13.2379383"><ele>1214.4</ele><time>2026-05-02T16:08:15.556Z</time></trkpt><trkpt lat="42.2652067" lon="13.2380233"><ele>1215.0</ele><time>2026-05-02T16:08:16.557Z</time></trkpt><trkpt lat="42.2652683" lon="13.2381233"><ele>1213.4</ele><time>2026-05-02T16:08:17.557Z</time></trkpt><trkpt lat="42.2653267" lon="13.2382467"><ele>1211.8</ele><time>2026-05-02T16:08:18.556Z</time></trkpt><trkpt lat="42.2653817" lon="13.23838"><ele>1210.2</ele><time>2026-05-02T16:08:19.557Z</time></trkpt><trkpt lat="42.265435" lon="13.2385117"><ele>1208.6</ele><time>2026-05-02T16:08:20.557Z</time></trkpt><trkpt lat="42.2654967" lon="13.2386317"><ele>1207.0</ele><time>2026-05-02T16:08:21.557Z</time></trkpt><trkpt lat="42.26556" lon="13.23875"><ele>1206.2</ele><time>2026-05-02T16:08:22.557Z</time></trkpt><trkpt lat="42.26562" lon="13.23886"><ele>1205.4</ele><time>2026-05-02T16:08:23.557Z</time></trkpt><trkpt lat="42.2656717" lon="13.238965"><ele>1204.6</ele><time>2026-05-02T16:08:24.557Z</time></trkpt><trkpt lat="42.2657183" lon="13.2390683"><ele>1203.8</ele><time>2026-05-02T16:08:25.556Z</time></trkpt><trkpt lat="42.2657517" lon="13.2391733"><ele>1203.0</ele><time>2026-05-02T16:08:26.556Z</time></trkpt><trkpt lat="42.2657783" lon="13.2392967"><ele>1203.0</ele><time>2026-05-02T16:08:27.557Z</time></trkpt><trkpt lat="42.2658117" lon="13.239435"><ele>1203.0</ele><time>2026-05-02T16:08:28.557Z</time></trkpt><trkpt lat="42.26586" lon="13.2395817"><ele>1203.0</ele><time>2026-05-02T16:08:29.557Z</time></trkpt><trkpt lat="42.2659317" lon="13.23971"><ele>1203.0</ele><time>2026-05-02T16:08:30.556Z</time></trkpt><trkpt lat="42.266015" lon="13.2398433"><ele>1201.0</ele><time>2026-05-02T16:08:31.557Z</time></trkpt><trkpt lat="42.2661" lon="13.239975"><ele>1199.0</ele><time>2026-05-02T16:08:32.557Z</time></trkpt><trkpt lat="42.26619" lon="13.2400983"><ele>1197.0</ele><time>2026-05-02T16:08:33.556Z</time></trkpt><trkpt lat="42.2662833" lon="13.2402167"><ele>1195.0</ele><time>2026-05-02T16:08:34.556Z</time></trkpt><trkpt lat="42.2663783" lon="13.2403267"><ele>1195.5</ele><time>2026-05-02T16:08:35.556Z</time></trkpt><trkpt lat="42.2664817" lon="13.2404233"><ele>1196.0</ele><time>2026-05-02T16:08:36.557Z</time></trkpt><trkpt lat="42.2665917" lon="13.24051"><ele>1196.5</ele><time>2026-05-02T16:08:37.557Z</time></trkpt><trkpt lat="42.266715" lon="13.2405817"><ele>1197.0</ele><time>2026-05-02T16:08:38.556Z</time></trkpt><trkpt lat="42.2668517" lon="13.2406517"><ele>1194.0</ele><time>2026-05-02T16:08:39.557Z</time></trkpt><trkpt lat="42.266985" lon="13.240715"><ele>1191.0</ele><time>2026-05-02T16:08:40.557Z</time></trkpt><trkpt lat="42.267115" lon="13.24076"><ele>1188.0</ele><time>2026-05-02T16:08:41.557Z</time></trkpt><trkpt lat="42.26725" lon="13.2408067"><ele>1185.0</ele><time>2026-05-02T16:08:42.557Z</time></trkpt><trkpt lat="42.2673867" lon="13.240855"><ele>1184.75</ele><time>2026-05-02T16:08:43.557Z</time></trkpt><trkpt lat="42.2675133" lon="13.2408983"><ele>1184.5</ele><time>2026-05-02T16:08:44.556Z</time></trkpt><trkpt lat="42.2676283" lon="13.2409567"><ele>1184.25</ele><time>2026-05-02T16:08:45.557Z</time></trkpt><trkpt lat="42.2677317" lon="13.2410217"><ele>1184.0</ele><time>2026-05-02T16:08:46.557Z</time></trkpt><trkpt lat="42.26782" lon="13.2410967"><ele>1184.0</ele><time>2026-05-02T16:08:47.557Z</time></trkpt><trkpt lat="42.2678867" lon="13.24118"><ele>1184.0</ele><time>2026-05-02T16:08:48.556Z</time></trkpt><trkpt lat="42.267935" lon="13.2412633"><ele>1184.0</ele><time>2026-05-02T16:08:49.556Z</time></trkpt><trkpt lat="42.2679567" lon="13.241375"><ele>1184.0</ele><time>2026-05-02T16:08:50.556Z</time></trkpt><trkpt lat="42.2679667" lon="13.2415183"><ele>1184.0</ele><time>2026-05-02T16:08:51.557Z</time></trkpt><trkpt lat="42.267965" lon="13.2416717"><ele>1184.25</ele><time>2026-05-02T16:08:52.556Z</time></trkpt><trkpt lat="42.267965" lon="13.24183"><ele>1184.5</ele><time>2026-05-02T16:08:53.557Z</time></trkpt><trkpt lat="42.2679683" lon="13.2419883"><ele>1184.75</ele><time>2026-05-02T16:08:54.557Z</time></trkpt><trkpt lat="42.2679983" lon="13.2421567"><ele>1185.0</ele><time>2026-05-02T16:08:55.557Z</time></trkpt><trkpt lat="42.2680267" lon="13.2423233"><ele>1185.0</ele><time>2026-05-02T16:08:56.556Z</time></trkpt><trkpt lat="42.2680633" lon="13.2424767"><ele>1185.0</ele><time>2026-05-02T16:08:57.556Z</time></trkpt><trkpt lat="42.2680983" lon="13.2426133"><ele>1185.0</ele><time>2026-05-02T16:08:58.557Z</time></trkpt><trkpt lat="42.2681367" lon="13.2427367"><ele>1185.0</ele><time>2026-05-02T16:08:59.556Z</time></trkpt><trkpt lat="42.26818" lon="13.24284"><ele>1185.0</ele><time>2026-05-02T16:09:00.556Z</time></trkpt><trkpt lat="42.268235" lon="13.242925"><ele>1183.8</ele><time>2026-05-02T16:09:01.556Z</time></trkpt><trkpt lat="42.2683" lon="13.24298"><ele>1182.6</ele><time>2026-05-02T16:09:02.556Z</time></trkpt><trkpt lat="42.2683833" lon="13.2430033"><ele>1181.4</ele><time>2026-05-02T16:09:03.556Z</time></trkpt><trkpt lat="42.2684883" lon="13.24301"><ele>1180.2</ele><time>2026-05-02T16:09:04.556Z</time></trkpt><trkpt lat="42.2686117" lon="13.243005"><ele>1179.0</ele><time>2026-05-02T16:09:05.556Z</time></trkpt><trkpt lat="42.2687417" lon="13.2429967"><ele>1179.0</ele><time>2026-05-02T16:09:06.556Z</time></trkpt><trkpt lat="42.2688783" lon="13.243015"><ele>1179.0</ele><time>2026-05-02T16:09:07.556Z</time></trkpt><trkpt lat="42.2690117" lon="13.2430583"><ele>1179.0</ele><time>2026-05-02T16:09:08.556Z</time></trkpt><trkpt lat="42.2691317" lon="13.24312"><ele>1179.0</ele><time>2026-05-02T16:09:09.556Z</time></trkpt><trkpt lat="42.269235" lon="13.243185"><ele>1180.6000000000001</ele><time>2026-05-02T16:09:10.557Z</time></trkpt><trkpt lat="42.2693417" lon="13.243235"><ele>1182.2</ele><time>2026-05-02T16:09:11.556Z</time></trkpt><trkpt lat="42.2694383" lon="13.24328"><ele>1183.8000000000002</ele><time>2026-05-02T16:09:12.557Z</time></trkpt><trkpt lat="42.2695283" lon="13.2433133"><ele>1185.4</ele><time>2026-05-02T16:09:13.556Z</time></trkpt><trkpt lat="42.2696033" lon="13.24334"><ele>1187.0</ele><time>2026-05-02T16:09:14.557Z</time></trkpt><trkpt lat="42.2696733" lon="13.2433567"><ele>1187.0</ele><time>2026-05-02T16:09:15.556Z</time></trkpt><trkpt lat="42.2697517" lon="13.24336"><ele>1187.0</ele><time>2026-05-02T16:09:16.557Z</time></trkpt><trkpt lat="42.2698367" lon="13.243355"><ele>1187.0</ele><time>2026-05-02T16:09:17.556Z</time></trkpt><trkpt lat="42.2699317" lon="13.2433333"><ele>1187.0</ele><time>2026-05-02T16:09:18.556Z</time></trkpt><trkpt lat="42.2700217" lon="13.2433"><ele>1187.0</ele><time>2026-05-02T16:09:19.556Z</time></trkpt><trkpt lat="42.270105" lon="13.2432467"><ele>1187.0</ele><time>2026-05-02T16:09:20.557Z</time></trkpt><trkpt lat="42.27019" lon="13.2431567"><ele>1189.0</ele><time>2026-05-02T16:09:21.556Z</time></trkpt><trkpt lat="42.2702667" lon="13.2430517"><ele>1191.0</ele><time>2026-05-02T16:09:22.556Z</time></trkpt><trkpt lat="42.2703567" lon="13.2429383"><ele>1193.0</ele><time>2026-05-02T16:09:23.557Z</time></trkpt><trkpt lat="42.2704667" lon="13.2428467"><ele>1195.0</ele><time>2026-05-02T16:09:24.556Z</time></trkpt><trkpt lat="42.27059" lon="13.2427617"><ele>1193.3333333333333</ele><time>2026-05-02T16:09:25.556Z</time></trkpt><trkpt lat="42.27073" lon="13.2426783"><ele>1191.6666666666667</ele><time>2026-05-02T16:09:26.557Z</time></trkpt><trkpt lat="42.27088" lon="13.2425817"><ele>1190.0</ele><time>2026-05-02T16:09:27.556Z</time></trkpt><trkpt lat="42.2710183" lon="13.24248"><ele>1190.0</ele><time>2026-05-02T16:09:28.557Z</time></trkpt><trkpt lat="42.2711517" lon="13.2423917"><ele>1190.0</ele><time>2026-05-02T16:09:29.556Z</time></trkpt><trkpt lat="42.27127" lon="13.2423033"><ele>1190.0</ele><time>2026-05-02T16:09:30.557Z</time></trkpt><trkpt lat="42.271385" lon="13.242225"><ele>1190.0</ele><time>2026-05-02T16:09:31.556Z</time></trkpt><trkpt lat="42.2714917" lon="13.24215"><ele>1189.25</ele><time>2026-05-02T16:09:32.557Z</time></trkpt><trkpt lat="42.2715933" lon="13.2420733"><ele>1188.5</ele><time>2026-05-02T16:09:33.557Z</time></trkpt><trkpt lat="42.2716933" lon="13.2419783"><ele>1187.75</ele><time>2026-05-02T16:09:34.556Z</time></trkpt><trkpt lat="42.27179" lon="13.2418767"><ele>1187.0</ele><time>2026-05-02T16:09:35.557Z</time></trkpt><trkpt lat="42.2718767" lon="13.241765"><ele>1187.0</ele><time>2026-05-02T16:09:36.557Z</time></trkpt><trkpt lat="42.2719583" lon="13.2416767"><ele>1187.0</ele><time>2026-05-02T16:09:37.557Z</time></trkpt><trkpt lat="42.2720367" lon="13.2416"><ele>1187.0</ele><time>2026-05-02T16:09:38.557Z</time></trkpt><trkpt lat="42.27212" lon="13.241545"><ele>1187.0</ele><time>2026-05-02T16:09:39.557Z</time></trkpt><trkpt lat="42.2722033" lon="13.24152"><ele>1187.0</ele><time>2026-05-02T16:09:40.557Z</time></trkpt><trkpt lat="42.2722917" lon="13.2415083"><ele>1185.75</ele><time>2026-05-02T16:09:41.557Z</time></trkpt><trkpt lat="42.2723933" lon="13.2415083"><ele>1184.5</ele><time>2026-05-02T16:09:42.556Z</time></trkpt><trkpt lat="42.2725083" lon="13.2415283"><ele>1183.25</ele><time>2026-05-02T16:09:43.557Z</time></trkpt><trkpt lat="42.27264" lon="13.2415617"><ele>1182.0</ele><time>2026-05-02T16:09:44.557Z</time></trkpt><trkpt lat="42.272785" lon="13.2416017"><ele>1182.0</ele><time>2026-05-02T16:09:45.557Z</time></trkpt><trkpt lat="42.2729267" lon="13.2416333"><ele>1182.0</ele><time>2026-05-02T16:09:46.557Z</time></trkpt><trkpt lat="42.2730583" lon="13.24166"><ele>1182.0</ele><time>2026-05-02T16:09:47.557Z</time></trkpt><trkpt lat="42.2731833" lon="13.241675"><ele>1182.0</ele><time>2026-05-02T16:09:48.557Z</time></trkpt><trkpt lat="42.273295" lon="13.241675"><ele>1181.5</ele><time>2026-05-02T16:09:49.557Z</time></trkpt><trkpt lat="42.27339" lon="13.2416817"><ele>1181.0</ele><time>2026-05-02T16:09:50.556Z</time></trkpt><trkpt lat="42.27347" lon="13.2417017"><ele>1180.5</ele><time>2026-05-02T16:09:51.557Z</time></trkpt><trkpt lat="42.2735333" lon="13.2417083"><ele>1180.0</ele><time>2026-05-02T16:09:52.557Z</time></trkpt><trkpt lat="42.2735983" lon="13.2417617"><ele>1179.5</ele><time>2026-05-02T16:09:53.556Z</time></trkpt><trkpt lat="42.2736733" lon="13.24185"><ele>1179.0</ele><time>2026-05-02T16:09:54.556Z</time></trkpt><trkpt lat="42.2737567" lon="13.2419533"><ele>1179.0</ele><time>2026-05-02T16:09:55.556Z</time></trkpt><trkpt lat="42.27384" lon="13.24206"><ele>1179.0</ele><time>2026-05-02T16:09:56.556Z</time></trkpt><trkpt lat="42.273925" lon="13.24214"><ele>1179.0</ele><time>2026-05-02T16:09:57.557Z</time></trkpt><trkpt lat="42.274" lon="13.2422033"><ele>1179.0</ele><time>2026-05-02T16:09:58.557Z</time></trkpt><trkpt lat="42.2740717" lon="13.2422533"><ele>1179.0</ele><time>2026-05-02T16:09:59.556Z</time></trkpt><trkpt lat="42.274135" lon="13.2423217"><ele>1180.5714285714284</ele><time>2026-05-02T16:10:00.557Z</time></trkpt><trkpt lat="42.2741817" lon="13.242405"><ele>1182.142857142857</ele><time>2026-05-02T16:10:01.556Z</time></trkpt><trkpt lat="42.274215" lon="13.24249"><ele>1183.7142857142858</ele><time>2026-05-02T16:10:02.556Z</time></trkpt><trkpt lat="42.2742367" lon="13.242575"><ele>1185.2857142857142</ele><time>2026-05-02T16:10:03.557Z</time></trkpt><trkpt lat="42.2742517" lon="13.2426667"><ele>1186.857142857143</ele><time>2026-05-02T16:10:04.556Z</time></trkpt><trkpt lat="42.2742567" lon="13.2427717"><ele>1188.4285714285713</ele><time>2026-05-02T16:10:05.556Z</time></trkpt><trkpt lat="42.274265" lon="13.2428733"><ele>1190.0</ele><time>2026-05-02T16:10:06.557Z</time></trkpt><trkpt lat="42.2742733" lon="13.2429833"><ele>1190.0</ele><time>2026-05-02T16:10:07.556Z</time></trkpt><trkpt lat="42.2742933" lon="13.2430983"><ele>1190.0</ele><time>2026-05-02T16:10:08.556Z</time></trkpt><trkpt lat="42.274335" lon="13.2431883"><ele>1190.0</ele><time>2026-05-02T16:10:09.557Z</time></trkpt><trkpt lat="42.2743817" lon="13.24326"><ele>1190.0</ele><time>2026-05-02T16:10:10.556Z</time></trkpt><trkpt lat="42.27444" lon="13.2433267"><ele>1190.0</ele><time>2026-05-02T16:10:11.557Z</time></trkpt><trkpt lat="42.2745283" lon="13.2433917"><ele>1190.0</ele><time>2026-05-02T16:10:12.557Z</time></trkpt><trkpt lat="42.27464" lon="13.243475"><ele>1189.5</ele><time>2026-05-02T16:10:13.555Z</time></trkpt><trkpt lat="42.2747683" lon="13.2435683"><ele>1189.0</ele><time>2026-05-02T16:10:14.555Z</time></trkpt><trkpt lat="42.2749067" lon="13.2436683"><ele>1188.5</ele><time>2026-05-02T16:10:15.555Z</time></trkpt><trkpt lat="42.27503" lon="13.243765"><ele>1188.0</ele><time>2026-05-02T16:10:16.556Z</time></trkpt><trkpt lat="42.275145" lon="13.2438633"><ele>1191.0</ele><time>2026-05-02T16:10:17.556Z</time></trkpt><trkpt lat="42.275265" lon="13.243945"><ele>1194.0</ele><time>2026-05-02T16:10:18.556Z</time></trkpt><trkpt lat="42.2753783" lon="13.244035"><ele>1197.0</ele><time>2026-05-02T16:10:19.556Z</time></trkpt><trkpt lat="42.27549" lon="13.244115"><ele>1200.0</ele><time>2026-05-02T16:10:20.556Z</time></trkpt><trkpt lat="42.2755967" lon="13.244195"><ele>1201.8</ele><time>2026-05-02T16:10:21.555Z</time></trkpt><trkpt lat="42.2756933" lon="13.2442883"><ele>1203.6</ele><time>2026-05-02T16:10:22.555Z</time></trkpt><trkpt lat="42.275785" lon="13.2443617"><ele>1205.4</ele><time>2026-05-02T16:10:23.556Z</time></trkpt><trkpt lat="42.2758833" lon="13.244415"><ele>1207.2</ele><time>2026-05-02T16:10:24.555Z</time></trkpt><trkpt lat="42.27599" lon="13.2444517"><ele>1209.0</ele><time>2026-05-02T16:10:25.556Z</time></trkpt><trkpt lat="42.2761067" lon="13.244475"><ele>1209.0</ele><time>2026-05-02T16:10:26.556Z</time></trkpt><trkpt lat="42.2762067" lon="13.2445083"><ele>1209.0</ele><time>2026-05-02T16:10:27.556Z</time></trkpt><trkpt lat="42.2763033" lon="13.2445633"><ele>1209.0</ele><time>2026-05-02T16:10:28.556Z</time></trkpt><trkpt lat="42.27638" lon="13.2446383"><ele>1209.0</ele><time>2026-05-02T16:10:29.556Z</time></trkpt><trkpt lat="42.276465" lon="13.24474"><ele>1209.0</ele><time>2026-05-02T16:10:30.556Z</time></trkpt><trkpt lat="42.276555" lon="13.2448383"><ele>1209.8</ele><time>2026-05-02T16:10:31.555Z</time></trkpt><trkpt lat="42.27664" lon="13.244915"><ele>1210.6000000000001</ele><time>2026-05-02T16:10:32.555Z</time></trkpt><trkpt lat="42.276715" lon="13.2449733"><ele>1211.4</ele><time>2026-05-02T16:10:33.556Z</time></trkpt><trkpt lat="42.2767733" lon="13.2450417"><ele>1212.2</ele><time>2026-05-02T16:10:34.555Z</time></trkpt><trkpt lat="42.27685" lon="13.2451017"><ele>1213.0</ele><time>2026-05-02T16:10:35.556Z</time></trkpt><trkpt lat="42.2769483" lon="13.24517"><ele>1213.0</ele><time>2026-05-02T16:10:36.556Z</time></trkpt><trkpt lat="42.2770483" lon="13.245225"><ele>1213.0</ele><time>2026-05-02T16:10:37.555Z</time></trkpt><trkpt lat="42.2771433" lon="13.245275"><ele>1213.0</ele><time>2026-05-02T16:10:38.555Z</time></trkpt><trkpt lat="42.277225" lon="13.24533"><ele>1213.0</ele><time>2026-05-02T16:10:39.556Z</time></trkpt><trkpt lat="42.27728" lon="13.245385"><ele>1213.0</ele><time>2026-05-02T16:10:40.556Z</time></trkpt><trkpt lat="42.27733" lon="13.24546"><ele>1213.0</ele><time>2026-05-02T16:10:41.556Z</time></trkpt><trkpt lat="42.27738" lon="13.2455433"><ele>1211.6666666666665</ele><time>2026-05-02T16:10:42.555Z</time></trkpt><trkpt lat="42.2774267" lon="13.245625"><ele>1210.3333333333333</ele><time>2026-05-02T16:10:43.556Z</time></trkpt><trkpt lat="42.2774783" lon="13.2457117"><ele>1209.0</ele><time>2026-05-02T16:10:44.556Z</time></trkpt><trkpt lat="42.27754" lon="13.24578"><ele>1207.6666666666667</ele><time>2026-05-02T16:10:45.556Z</time></trkpt><trkpt lat="42.2776033" lon="13.24583"><ele>1206.3333333333335</ele><time>2026-05-02T16:10:46.556Z</time></trkpt><trkpt lat="42.2776733" lon="13.24586"><ele>1205.0</ele><time>2026-05-02T16:10:47.556Z</time></trkpt><trkpt lat="42.2777717" lon="13.2458767"><ele>1205.0</ele><time>2026-05-02T16:10:48.555Z</time></trkpt><trkpt lat="42.2778883" lon="13.2458833"><ele>1205.0</ele><time>2026-05-02T16:10:49.555Z</time></trkpt><trkpt lat="42.2780117" lon="13.245895"><ele>1205.0</ele><time>2026-05-02T16:10:50.556Z</time></trkpt><trkpt lat="42.27813" lon="13.2459033"><ele>1205.0</ele><time>2026-05-02T16:10:51.556Z</time></trkpt><trkpt lat="42.2782517" lon="13.245915"><ele>1202.0</ele><time>2026-05-02T16:10:52.556Z</time></trkpt><trkpt lat="42.2783667" lon="13.2459167"><ele>1199.0</ele><time>2026-05-02T16:10:53.556Z</time></trkpt><trkpt lat="42.2784783" lon="13.2459067"><ele>1196.0</ele><time>2026-05-02T16:10:54.555Z</time></trkpt><trkpt lat="42.2786" lon="13.2458667"><ele>1193.0</ele><time>2026-05-02T16:10:55.555Z</time></trkpt><trkpt lat="42.2787267" lon="13.2458067"><ele>1193.0</ele><time>2026-05-02T16:10:56.556Z</time></trkpt><trkpt lat="42.2788633" lon="13.2457233"><ele>1193.0</ele><time>2026-05-02T16:10:57.555Z</time></trkpt><trkpt lat="42.2790083" lon="13.245665"><ele>1193.0</ele><time>2026-05-02T16:10:58.555Z</time></trkpt><trkpt lat="42.2791417" lon="13.2456133"><ele>1193.0</ele><time>2026-05-02T16:10:59.555Z</time></trkpt><trkpt lat="42.2792733" lon="13.24558"><ele>1194.25</ele><time>2026-05-02T16:11:00.556Z</time></trkpt><trkpt lat="42.279395" lon="13.24554"><ele>1195.5</ele><time>2026-05-02T16:11:01.555Z</time></trkpt><trkpt lat="42.2795217" lon="13.2454917"><ele>1196.75</ele><time>2026-05-02T16:11:02.556Z</time></trkpt><trkpt lat="42.2796433" lon="13.2454467"><ele>1198.0</ele><time>2026-05-02T16:11:03.555Z</time></trkpt><trkpt lat="42.2797617" lon="13.2453967"><ele>1196.5</ele><time>2026-05-02T16:11:04.556Z</time></trkpt><trkpt lat="42.2798783" lon="13.2453417"><ele>1195.0</ele><time>2026-05-02T16:11:05.555Z</time></trkpt><trkpt lat="42.28" lon="13.2452733"><ele>1193.5</ele><time>2026-05-02T16:11:06.555Z</time></trkpt><trkpt lat="42.2801267" lon="13.24518"><ele>1192.0</ele><time>2026-05-02T16:11:07.556Z</time></trkpt><trkpt lat="42.2802433" lon="13.24507"><ele>1192.0</ele><time>2026-05-02T16:11:08.556Z</time></trkpt><trkpt lat="42.280355" lon="13.24496"><ele>1192.0</ele><time>2026-05-02T16:11:09.556Z</time></trkpt><trkpt lat="42.2804717" lon="13.24487"><ele>1192.0</ele><time>2026-05-02T16:11:10.556Z</time></trkpt><trkpt lat="42.280595" lon="13.2447817"><ele>1192.0</ele><time>2026-05-02T16:11:11.556Z</time></trkpt><trkpt lat="42.2807217" lon="13.244715"><ele>1192.75</ele><time>2026-05-02T16:11:12.555Z</time></trkpt><trkpt lat="42.280845" lon="13.2446567"><ele>1193.5</ele><time>2026-05-02T16:11:13.556Z</time></trkpt><trkpt lat="42.2809567" lon="13.2446117"><ele>1194.25</ele><time>2026-05-02T16:11:14.555Z</time></trkpt><trkpt lat="42.281065" lon="13.2445683"><ele>1195.0</ele><time>2026-05-02T16:11:15.555Z</time></trkpt><trkpt lat="42.2811633" lon="13.2445167"><ele>1195.0</ele><time>2026-05-02T16:11:16.555Z</time></trkpt><trkpt lat="42.2812517" lon="13.24448"><ele>1195.0</ele><time>2026-05-02T16:11:17.556Z</time></trkpt><trkpt lat="42.2813433" lon="13.2444683"><ele>1195.0</ele><time>2026-05-02T16:11:18.556Z</time></trkpt><trkpt lat="42.2814467" lon="13.2444833"><ele>1195.0</ele><time>2026-05-02T16:11:19.555Z</time></trkpt><trkpt lat="42.281575" lon="13.2445167"><ele>1195.0</ele><time>2026-05-02T16:11:20.556Z</time></trkpt><trkpt lat="42.2817083" lon="13.24456"><ele>1193.4</ele><time>2026-05-02T16:11:21.555Z</time></trkpt><trkpt lat="42.2818267" lon="13.2446117"><ele>1191.8</ele><time>2026-05-02T16:11:22.556Z</time></trkpt><trkpt lat="42.2819283" lon="13.24465"><ele>1190.2</ele><time>2026-05-02T16:11:23.555Z</time></trkpt><trkpt lat="42.282015" lon="13.2446767"><ele>1188.6</ele><time>2026-05-02T16:11:24.556Z</time></trkpt><trkpt lat="42.2820883" lon="13.2446883"><ele>1187.0</ele><time>2026-05-02T16:11:25.555Z</time></trkpt><trkpt lat="42.28216" lon="13.2446833"><ele>1187.0</ele><time>2026-05-02T16:11:26.556Z</time></trkpt><trkpt lat="42.2822217" lon="13.2446583"><ele>1187.0</ele><time>2026-05-02T16:11:27.556Z</time></trkpt><trkpt lat="42.2822967" lon="13.2445483"><ele>1187.0</ele><time>2026-05-02T16:11:29.555Z</time></trkpt><trkpt lat="42.2823117" lon="13.2444467"><ele>1187.0</ele><time>2026-05-02T16:11:30.556Z</time></trkpt><trkpt lat="42.2823383" lon="13.2443167"><ele>1187.0</ele><time>2026-05-02T16:11:31.555Z</time></trkpt><trkpt lat="42.2823733" lon="13.2441967"><ele>1187.0</ele><time>2026-05-02T16:11:32.555Z</time></trkpt><trkpt lat="42.2824367" lon="13.2440833"><ele>1187.0</ele><time>2026-05-02T16:11:33.555Z</time></trkpt><trkpt lat="42.2825233" lon="13.24396"><ele>1187.0</ele><time>2026-05-02T16:11:34.556Z</time></trkpt><trkpt lat="42.2826233" lon="13.243835"><ele>1187.0</ele><time>2026-05-02T16:11:35.556Z</time></trkpt><trkpt lat="42.282725" lon="13.2437183"><ele>1187.0</ele><time>2026-05-02T16:11:36.556Z</time></trkpt><trkpt lat="42.2828117" lon="13.2436283"><ele>1187.0</ele><time>2026-05-02T16:11:37.555Z</time></trkpt><trkpt lat="42.2828783" lon="13.2435367"><ele>1187.0</ele><time>2026-05-02T16:11:38.556Z</time></trkpt><trkpt lat="42.2829283" lon="13.243435"><ele>1187.0</ele><time>2026-05-02T16:11:39.555Z</time></trkpt><trkpt lat="42.2829633" lon="13.2433283"><ele>1187.0</ele><time>2026-05-02T16:11:40.556Z</time></trkpt><trkpt lat="42.2829983" lon="13.2432033"><ele>1187.0</ele><time>2026-05-02T16:11:41.556Z</time></trkpt><trkpt lat="42.283015" lon="13.2430667"><ele>1185.75</ele><time>2026-05-02T16:11:42.556Z</time></trkpt><trkpt lat="42.2830033" lon="13.2429317"><ele>1184.5</ele><time>2026-05-02T16:11:43.555Z</time></trkpt><trkpt lat="42.282975" lon="13.2428"><ele>1183.25</ele><time>2026-05-02T16:11:44.556Z</time></trkpt><trkpt lat="42.282935" lon="13.242645"><ele>1182.0</ele><time>2026-05-02T16:11:45.556Z</time></trkpt><trkpt lat="42.2828867" lon="13.242485"><ele>1182.0</ele><time>2026-05-02T16:11:46.556Z</time></trkpt><trkpt lat="42.28285" lon="13.24232"><ele>1182.0</ele><time>2026-05-02T16:11:47.556Z</time></trkpt><trkpt lat="42.28283" lon="13.2421733"><ele>1182.0</ele><time>2026-05-02T16:11:48.555Z</time></trkpt><trkpt lat="42.282825" lon="13.242045"><ele>1182.0</ele><time>2026-05-02T16:11:49.555Z</time></trkpt><trkpt lat="42.28283" lon="13.2419433"><ele>1182.0</ele><time>2026-05-02T16:11:50.556Z</time></trkpt><trkpt lat="42.2828467" lon="13.24186"><ele>1182.6</ele><time>2026-05-02T16:11:51.555Z</time></trkpt><trkpt lat="42.2829283" lon="13.2417867"><ele>1183.2</ele><time>2026-05-02T16:11:53.556Z</time></trkpt><trkpt lat="42.2829983" lon="13.2417783"><ele>1183.8</ele><time>2026-05-02T16:11:54.555Z</time></trkpt><trkpt lat="42.2830767" lon="13.2417883"><ele>1184.4</ele><time>2026-05-02T16:11:55.555Z</time></trkpt><trkpt lat="42.2831783" lon="13.241805"><ele>1185.0</ele><time>2026-05-02T16:11:56.556Z</time></trkpt><trkpt lat="42.2832933" lon="13.2418317"><ele>1185.0</ele><time>2026-05-02T16:11:57.556Z</time></trkpt><trkpt lat="42.2834167" lon="13.2418483"><ele>1185.0</ele><time>2026-05-02T16:11:58.555Z</time></trkpt><trkpt lat="42.2835283" lon="13.2418667"><ele>1185.0</ele><time>2026-05-02T16:11:59.556Z</time></trkpt><trkpt lat="42.283635" lon="13.2418767"><ele>1185.0</ele><time>2026-05-02T16:12:00.556Z</time></trkpt><trkpt lat="42.2837367" lon="13.2418733"><ele>1185.0</ele><time>2026-05-02T16:12:01.555Z</time></trkpt><trkpt lat="42.2838333" lon="13.2418417"><ele>1185.0</ele><time>2026-05-02T16:12:02.555Z</time></trkpt><trkpt lat="42.2839217" lon="13.2417933"><ele>1185.0</ele><time>2026-05-02T16:12:03.555Z</time></trkpt><trkpt lat="42.2840083" lon="13.2417217"><ele>1185.0</ele><time>2026-05-02T16:12:04.555Z</time></trkpt><trkpt lat="42.28411" lon="13.2416333"><ele>1185.0</ele><time>2026-05-02T16:12:05.555Z</time></trkpt><trkpt lat="42.2842267" lon="13.2415333"><ele>1190.6666666666667</ele><time>2026-05-02T16:12:06.556Z</time></trkpt><trkpt lat="42.2843617" lon="13.2414233"><ele>1196.3333333333335</ele><time>2026-05-02T16:12:07.555Z</time></trkpt><trkpt lat="42.2845017" lon="13.2413167"><ele>1202.0</ele><time>2026-05-02T16:12:08.556Z</time></trkpt><trkpt lat="42.2846483" lon="13.2412"><ele>1198.3333333333335</ele><time>2026-05-02T16:12:09.555Z</time></trkpt><trkpt lat="42.2847717" lon="13.241045"><ele>1194.6666666666667</ele><time>2026-05-02T16:12:10.556Z</time></trkpt><trkpt lat="42.2848917" lon="13.2408617"><ele>1191.0</ele><time>2026-05-02T16:12:11.556Z</time></trkpt><trkpt lat="42.2850133" lon="13.2406983"><ele>1199.3333333333333</ele><time>2026-05-02T16:12:12.555Z</time></trkpt><trkpt lat="42.2851483" lon="13.24055"><ele>1207.6666666666665</ele><time>2026-05-02T16:12:13.555Z</time></trkpt><trkpt lat="42.2853033" lon="13.2404167"><ele>1216.0</ele><time>2026-05-02T16:12:14.555Z</time></trkpt><trkpt lat="42.28547" lon="13.2403033"><ele>1213.3333333333333</ele><time>2026-05-02T16:12:15.556Z</time></trkpt><trkpt lat="42.285655" lon="13.2402183"><ele>1210.6666666666667</ele><time>2026-05-02T16:12:16.555Z</time></trkpt><trkpt lat="42.2858367" lon="13.240105"><ele>1208.0</ele><time>2026-05-02T16:12:17.556Z</time></trkpt><trkpt lat="42.286015" lon="13.2399817"><ele>1208.0</ele><time>2026-05-02T16:12:18.555Z</time></trkpt><trkpt lat="42.286195" lon="13.2398817"><ele>1208.0</ele><time>2026-05-02T16:12:19.555Z</time></trkpt><trkpt lat="42.2863667" lon="13.2397883"><ele>1208.0</ele><time>2026-05-02T16:12:20.556Z</time></trkpt><trkpt lat="42.2865233" lon="13.2396983"><ele>1213.25</ele><time>2026-05-02T16:12:21.555Z</time></trkpt><trkpt lat="42.2866617" lon="13.23964"><ele>1218.5</ele><time>2026-05-02T16:12:22.556Z</time></trkpt><trkpt lat="42.2867983" lon="13.23961"><ele>1223.75</ele><time>2026-05-02T16:12:23.555Z</time></trkpt><trkpt lat="42.2869367" lon="13.239605"><ele>1229.0</ele><time>2026-05-02T16:12:24.556Z</time></trkpt><trkpt lat="42.287085" lon="13.23962"><ele>1229.0</ele><time>2026-05-02T16:12:25.556Z</time></trkpt><trkpt lat="42.2872417" lon="13.2396167"><ele>1229.0</ele><time>2026-05-02T16:12:26.555Z</time></trkpt><trkpt lat="42.2873817" lon="13.2396017"><ele>1229.0</ele><time>2026-05-02T16:12:27.556Z</time></trkpt><trkpt lat="42.2875083" lon="13.2396167"><ele>1229.0</ele><time>2026-05-02T16:12:28.556Z</time></trkpt><trkpt lat="42.2876183" lon="13.2396817"><ele>1227.75</ele><time>2026-05-02T16:12:29.556Z</time></trkpt><trkpt lat="42.2877117" lon="13.23978"><ele>1226.5</ele><time>2026-05-02T16:12:30.556Z</time></trkpt><trkpt lat="42.2878" lon="13.239855"><ele>1225.25</ele><time>2026-05-02T16:12:31.555Z</time></trkpt><trkpt lat="42.287905" lon="13.2398783"><ele>1224.0</ele><time>2026-05-02T16:12:32.556Z</time></trkpt><trkpt lat="42.2880233" lon="13.239845"><ele>1226.0</ele><time>2026-05-02T16:12:33.556Z</time></trkpt><trkpt lat="42.28815" lon="13.2397733"><ele>1228.0</ele><time>2026-05-02T16:12:34.556Z</time></trkpt><trkpt lat="42.2883067" lon="13.2396683"><ele>1230.0</ele><time>2026-05-02T16:12:35.556Z</time></trkpt><trkpt lat="42.288485" lon="13.2395767"><ele>1230.0</ele><time>2026-05-02T16:12:36.555Z</time></trkpt><trkpt lat="42.2886717" lon="13.2394967"><ele>1230.0</ele><time>2026-05-02T16:12:37.555Z</time></trkpt><trkpt lat="42.28886" lon="13.2394133"><ele>1230.0</ele><time>2026-05-02T16:12:38.556Z</time></trkpt><trkpt lat="42.2890367" lon="13.2393383"><ele>1229.3333333333333</ele><time>2026-05-02T16:12:39.556Z</time></trkpt><trkpt lat="42.2892" lon="13.2392867"><ele>1228.6666666666665</ele><time>2026-05-02T16:12:40.556Z</time></trkpt><trkpt lat="42.2893483" lon="13.239275"><ele>1228.0</ele><time>2026-05-02T16:12:41.555Z</time></trkpt><trkpt lat="42.2894867" lon="13.2392933"><ele>1228.0</ele><time>2026-05-02T16:12:42.555Z</time></trkpt><trkpt lat="42.289625" lon="13.2393083"><ele>1228.0</ele><time>2026-05-02T16:12:43.556Z</time></trkpt><trkpt lat="42.2897717" lon="13.2392933"><ele>1228.0</ele><time>2026-05-02T16:12:44.555Z</time></trkpt><trkpt lat="42.28992" lon="13.2392267"><ele>1228.0</ele><time>2026-05-02T16:12:45.556Z</time></trkpt><trkpt lat="42.290055" lon="13.2391567"><ele>1229.0</ele><time>2026-05-02T16:12:46.556Z</time></trkpt><trkpt lat="42.2901917" lon="13.23914"><ele>1230.0</ele><time>2026-05-02T16:12:47.556Z</time></trkpt><trkpt lat="42.2903267" lon="13.2391683"><ele>1231.0</ele><time>2026-05-02T16:12:48.555Z</time></trkpt><trkpt lat="42.29047" lon="13.2392217"><ele>1232.0</ele><time>2026-05-02T16:12:49.555Z</time></trkpt><trkpt lat="42.2906017" lon="13.239265"><ele>1232.3333333333335</ele><time>2026-05-02T16:12:50.555Z</time></trkpt><trkpt lat="42.2907383" lon="13.2392583"><ele>1232.6666666666667</ele><time>2026-05-02T16:12:51.556Z</time></trkpt><trkpt lat="42.290885" lon="13.2392067"><ele>1233.0</ele><time>2026-05-02T16:12:52.555Z</time></trkpt><trkpt lat="42.2910383" lon="13.2391083"><ele>1233.0</ele><time>2026-05-02T16:12:53.556Z</time></trkpt><trkpt lat="42.2912" lon="13.2390167"><ele>1233.0</ele><time>2026-05-02T16:12:54.555Z</time></trkpt><trkpt lat="42.2913833" lon="13.2389433"><ele>1233.0</ele><time>2026-05-02T16:12:55.555Z</time></trkpt><trkpt lat="42.2915733" lon="13.2389"><ele>1243.3333333333333</ele><time>2026-05-02T16:12:56.556Z</time></trkpt><trkpt lat="42.2917667" lon="13.238845"><ele>1253.6666666666665</ele><time>2026-05-02T16:12:57.555Z</time></trkpt><trkpt lat="42.291945" lon="13.2387817"><ele>1264.0</ele><time>2026-05-02T16:12:58.555Z</time></trkpt><trkpt lat="42.29212" lon="13.238725"><ele>1262.3333333333333</ele><time>2026-05-02T16:12:59.556Z</time></trkpt><trkpt lat="42.292305" lon="13.23868"><ele>1260.6666666666667</ele><time>2026-05-02T16:13:00.556Z</time></trkpt><trkpt lat="42.2924917" lon="13.23866"><ele>1259.0</ele><time>2026-05-02T16:13:01.556Z</time></trkpt><trkpt lat="42.2926783" lon="13.2386417"><ele>1259.0</ele><time>2026-05-02T16:13:02.555Z</time></trkpt><trkpt lat="42.2928567" lon="13.23859"><ele>1259.0</ele><time>2026-05-02T16:13:03.555Z</time></trkpt><trkpt lat="42.2930317" lon="13.238495"><ele>1259.0</ele><time>2026-05-02T16:13:04.555Z</time></trkpt><trkpt lat="42.293215" lon="13.2383683"><ele>1255.3333333333335</ele><time>2026-05-02T16:13:05.555Z</time></trkpt><trkpt lat="42.293405" lon="13.238235"><ele>1251.6666666666667</ele><time>2026-05-02T16:13:06.555Z</time></trkpt><trkpt lat="42.2936067" lon="13.23812"><ele>1248.0</ele><time>2026-05-02T16:13:07.556Z</time></trkpt><trkpt lat="42.2938117" lon="13.2379983"><ele>1254.6666666666667</ele><time>2026-05-02T16:13:08.555Z</time></trkpt><trkpt lat="42.2940133" lon="13.2378833"><ele>1261.3333333333335</ele><time>2026-05-02T16:13:09.555Z</time></trkpt><trkpt lat="42.2942117" lon="13.2377633"><ele>1268.0</ele><time>2026-05-02T16:13:10.556Z</time></trkpt><trkpt lat="42.2943833" lon="13.2376517"><ele>1268.0</ele><time>2026-05-02T16:13:11.556Z</time></trkpt><trkpt lat="42.2945383" lon="13.23755"><ele>1268.0</ele><time>2026-05-02T16:13:12.555Z</time></trkpt><trkpt lat="42.2946883" lon="13.2374617"><ele>1268.0</ele><time>2026-05-02T16:13:13.556Z</time></trkpt><trkpt lat="42.2948567" lon="13.2374067"><ele>1265.0</ele><time>2026-05-02T16:13:14.556Z</time></trkpt><trkpt lat="42.2950417" lon="13.2373667"><ele>1262.0</ele><time>2026-05-02T16:13:15.556Z</time></trkpt><trkpt lat="42.295235" lon="13.2373167"><ele>1259.0</ele><time>2026-05-02T16:13:16.556Z</time></trkpt><trkpt lat="42.295425" lon="13.23728"><ele>1271.0</ele><time>2026-05-02T16:13:17.556Z</time></trkpt><trkpt lat="42.29562" lon="13.2372417"><ele>1283.0</ele><time>2026-05-02T16:13:18.556Z</time></trkpt><trkpt lat="42.2958117" lon="13.2372083"><ele>1295.0</ele><time>2026-05-02T16:13:19.555Z</time></trkpt><trkpt lat="42.2959983" lon="13.2371783"><ele>1295.0</ele><time>2026-05-02T16:13:20.555Z</time></trkpt><trkpt lat="42.2961883" lon="13.2371367"><ele>1295.0</ele><time>2026-05-02T16:13:21.555Z</time></trkpt><trkpt lat="42.2963733" lon="13.237105"><ele>1295.0</ele><time>2026-05-02T16:13:22.555Z</time></trkpt><trkpt lat="42.2965533" lon="13.237075"><ele>1292.3333333333335</ele><time>2026-05-02T16:13:23.556Z</time></trkpt><trkpt lat="42.296735" lon="13.23709"><ele>1289.6666666666667</ele><time>2026-05-02T16:13:24.555Z</time></trkpt><trkpt lat="42.29692" lon="13.2371317"><ele>1287.0</ele><time>2026-05-02T16:13:25.556Z</time></trkpt><trkpt lat="42.2971267" lon="13.2371867"><ele>1289.3333333333333</ele><time>2026-05-02T16:13:26.555Z</time></trkpt><trkpt lat="42.2973317" lon="13.2372267"><ele>1291.6666666666665</ele><time>2026-05-02T16:13:27.556Z</time></trkpt><trkpt lat="42.2975333" lon="13.237255"><ele>1294.0</ele><time>2026-05-02T16:13:28.555Z</time></trkpt><trkpt lat="42.2977283" lon="13.2373083"><ele>1288.3333333333333</ele><time>2026-05-02T16:13:29.555Z</time></trkpt><trkpt lat="42.29791" lon="13.237375"><ele>1282.6666666666667</ele><time>2026-05-02T16:13:30.556Z</time></trkpt><trkpt lat="42.2980617" lon="13.237455"><ele>1277.0</ele><time>2026-05-02T16:13:31.555Z</time></trkpt><trkpt lat="42.298205" lon="13.237555"><ele>1277.0</ele><time>2026-05-02T16:13:32.555Z</time></trkpt><trkpt lat="42.2983367" lon="13.2376683"><ele>1277.0</ele><time>2026-05-02T16:13:33.556Z</time></trkpt><trkpt lat="42.2984617" lon="13.2377917"><ele>1277.0</ele><time>2026-05-02T16:13:34.556Z</time></trkpt><trkpt lat="42.2985783" lon="13.2378967"><ele>1277.0</ele><time>2026-05-02T16:13:35.556Z</time></trkpt><trkpt lat="42.2986933" lon="13.237975"><ele>1277.0</ele><time>2026-05-02T16:13:36.555Z</time></trkpt><trkpt lat="42.29881" lon="13.238005"><ele>1277.0</ele><time>2026-05-02T16:13:37.556Z</time></trkpt><trkpt lat="42.298925" lon="13.2379933"><ele>1277.0</ele><time>2026-05-02T16:13:38.555Z</time></trkpt><trkpt lat="42.2990483" lon="13.2379383"><ele>1277.75</ele><time>2026-05-02T16:13:39.556Z</time></trkpt><trkpt lat="42.29918" lon="13.2378667"><ele>1278.5</ele><time>2026-05-02T16:13:40.556Z</time></trkpt><trkpt lat="42.2993233" lon="13.2378217"><ele>1279.25</ele><time>2026-05-02T16:13:41.556Z</time></trkpt><trkpt lat="42.299465" lon="13.2377933"><ele>1280.0</ele><time>2026-05-02T16:13:42.556Z</time></trkpt><trkpt lat="42.2996033" lon="13.2377967"><ele>1280.0</ele><time>2026-05-02T16:13:43.555Z</time></trkpt><trkpt lat="42.2997317" lon="13.2378283"><ele>1280.0</ele><time>2026-05-02T16:13:44.556Z</time></trkpt><trkpt lat="42.29986" lon="13.237895"><ele>1280.0</ele><time>2026-05-02T16:13:45.556Z</time></trkpt><trkpt lat="42.2999983" lon="13.2379383"><ele>1280.0</ele><time>2026-05-02T16:13:46.555Z</time></trkpt><trkpt lat="42.300155" lon="13.23796"><ele>1279.0</ele><time>2026-05-02T16:13:47.556Z</time></trkpt><trkpt lat="42.30032" lon="13.237945"><ele>1278.0</ele><time>2026-05-02T16:13:48.556Z</time></trkpt><trkpt lat="42.300475" lon="13.2379067"><ele>1277.0</ele><time>2026-05-02T16:13:49.556Z</time></trkpt><trkpt lat="42.3006217" lon="13.23783"><ele>1277.0</ele><time>2026-05-02T16:13:50.555Z</time></trkpt><trkpt lat="42.3007633" lon="13.2377517"><ele>1277.0</ele><time>2026-05-02T16:13:51.556Z</time></trkpt><trkpt lat="42.3009083" lon="13.23771"><ele>1277.0</ele><time>2026-05-02T16:13:52.556Z</time></trkpt><trkpt lat="42.3010633" lon="13.2376817"><ele>1277.0</ele><time>2026-05-02T16:13:53.556Z</time></trkpt><trkpt lat="42.3012283" lon="13.2376867"><ele>1277.0</ele><time>2026-05-02T16:13:54.555Z</time></trkpt><trkpt lat="42.3014" lon="13.237715"><ele>1277.0</ele><time>2026-05-02T16:13:55.555Z</time></trkpt><trkpt lat="42.3015767" lon="13.2377367"><ele>1275.3333333333335</ele><time>2026-05-02T16:13:56.556Z</time></trkpt><trkpt lat="42.3017533" lon="13.2377483"><ele>1273.6666666666667</ele><time>2026-05-02T16:13:57.555Z</time></trkpt><trkpt lat="42.30193" lon="13.237745"><ele>1272.0</ele><time>2026-05-02T16:13:58.556Z</time></trkpt><trkpt lat="42.3021067" lon="13.2377283"><ele>1272.3333333333333</ele><time>2026-05-02T16:13:59.555Z</time></trkpt><trkpt lat="42.302275" lon="13.2377017"><ele>1272.6666666666665</ele><time>2026-05-02T16:14:00.556Z</time></trkpt><trkpt lat="42.3024267" lon="13.2376667"><ele>1273.0</ele><time>2026-05-02T16:14:01.556Z</time></trkpt><trkpt lat="42.3025733" lon="13.2376617"><ele>1273.0</ele><time>2026-05-02T16:14:02.556Z</time></trkpt><trkpt lat="42.3027217" lon="13.2377"><ele>1273.0</ele><time>2026-05-02T16:14:03.556Z</time></trkpt><trkpt lat="42.3028833" lon="13.2377633"><ele>1273.0</ele><time>2026-05-02T16:14:04.555Z</time></trkpt><trkpt lat="42.3030417" lon="13.2378267"><ele>1273.2</ele><time>2026-05-02T16:14:05.556Z</time></trkpt><trkpt lat="42.3031717" lon="13.2378817"><ele>1273.4</ele><time>2026-05-02T16:14:06.556Z</time></trkpt><trkpt lat="42.303275" lon="13.237925"><ele>1273.6000000000001</ele><time>2026-05-02T16:14:07.556Z</time></trkpt><trkpt lat="42.3033567" lon="13.23796"><ele>1273.8</ele><time>2026-05-02T16:14:08.555Z</time></trkpt><trkpt lat="42.30342" lon="13.2379967"><ele>1274.0</ele><time>2026-05-02T16:14:09.555Z</time></trkpt><trkpt lat="42.3034883" lon="13.238065"><ele>1274.0</ele><time>2026-05-02T16:14:11.555Z</time></trkpt><trkpt lat="42.3034367" lon="13.23796"><ele>1274.0</ele><time>2026-05-02T16:14:18.555Z</time></trkpt><trkpt lat="42.3033483" lon="13.2379233"><ele>1274.0</ele><time>2026-05-02T16:14:19.556Z</time></trkpt><trkpt lat="42.3032367" lon="13.2378833"><ele>1274.0</ele><time>2026-05-02T16:14:20.556Z</time></trkpt><trkpt lat="42.3031133" lon="13.2378367"><ele>1274.0</ele><time>2026-05-02T16:14:21.556Z</time></trkpt><trkpt lat="42.3029883" lon="13.23779"><ele>1273.8</ele><time>2026-05-02T16:14:22.556Z</time></trkpt><trkpt lat="42.3028733" lon="13.2377467"><ele>1273.6000000000001</ele><time>2026-05-02T16:14:23.556Z</time></trkpt><trkpt lat="42.3027767" lon="13.2377217"><ele>1273.4</ele><time>2026-05-02T16:14:24.556Z</time></trkpt><trkpt lat="42.3027017" lon="13.2377083"><ele>1273.2</ele><time>2026-05-02T16:14:25.556Z</time></trkpt><trkpt lat="42.3025983" lon="13.2377317"><ele>1273.0</ele><time>2026-05-02T16:14:27.556Z</time></trkpt><trkpt lat="42.3024867" lon="13.2377967"><ele>1273.0</ele><time>2026-05-02T16:14:29.555Z</time></trkpt><trkpt lat="42.3024317" lon="13.2378833"><ele>1273.0</ele><time>2026-05-02T16:14:31.555Z</time></trkpt><trkpt lat="42.302425" lon="13.2380083"><ele>1273.0</ele><time>2026-05-02T16:14:34.556Z</time></trkpt><trkpt lat="42.3024683" lon="13.2381417"><ele>1273.0</ele><time>2026-05-02T16:14:36.556Z</time></trkpt><trkpt lat="42.3025083" lon="13.238275"><ele>1273.0</ele><time>2026-05-02T16:14:38.556Z</time></trkpt><trkpt lat="42.30258" lon="13.2383983"><ele>1272.0</ele><time>2026-05-02T16:14:40.555Z</time></trkpt><trkpt lat="42.3026333" lon="13.2384567"><ele>1271.0</ele><time>2026-05-02T16:14:41.555Z</time></trkpt><trkpt lat="42.3026917" lon="13.2385167"><ele>1270.0</ele><time>2026-05-02T16:14:42.555Z</time></trkpt><trkpt lat="42.30276" lon="13.238575"><ele>1269.0</ele><time>2026-05-02T16:14:43.556Z</time></trkpt><trkpt lat="42.302835" lon="13.2386367"><ele>1268.0</ele><time>2026-05-02T16:14:44.556Z</time></trkpt><trkpt lat="42.3029167" lon="13.2386883"><ele>1267.0</ele><time>2026-05-02T16:14:45.555Z</time></trkpt><trkpt lat="42.3030067" lon="13.2387267"><ele>1267.2</ele><time>2026-05-02T16:14:46.555Z</time></trkpt><trkpt lat="42.3030917" lon="13.2387733"><ele>1267.4</ele><time>2026-05-02T16:14:47.556Z</time></trkpt><trkpt lat="42.30317" lon="13.2388283"><ele>1267.6</ele><time>2026-05-02T16:14:48.555Z</time></trkpt><trkpt lat="42.3032433" lon="13.2389"><ele>1267.8</ele><time>2026-05-02T16:14:49.555Z</time></trkpt><trkpt lat="42.303325" lon="13.2389883"><ele>1268.0</ele><time>2026-05-02T16:14:50.556Z</time></trkpt><trkpt lat="42.30341" lon="13.2390867"><ele>1269.8</ele><time>2026-05-02T16:14:51.555Z</time></trkpt><trkpt lat="42.303495" lon="13.2391783"><ele>1271.6</ele><time>2026-05-02T16:14:52.556Z</time></trkpt><trkpt lat="42.3035833" lon="13.2392717"><ele>1273.4</ele><time>2026-05-02T16:14:53.556Z</time></trkpt><trkpt lat="42.3036633" lon="13.2393483"><ele>1275.2</ele><time>2026-05-02T16:14:54.555Z</time></trkpt><trkpt lat="42.3037467" lon="13.239415"><ele>1277.0</ele><time>2026-05-02T16:14:55.555Z</time></trkpt><trkpt lat="42.3038133" lon="13.2394917"><ele>1277.0</ele><time>2026-05-02T16:14:56.556Z</time></trkpt><trkpt lat="42.3038633" lon="13.23957"><ele>1277.0</ele><time>2026-05-02T16:14:57.556Z</time></trkpt><trkpt lat="42.3039017" lon="13.23965"><ele>1277.0</ele><time>2026-05-02T16:14:58.555Z</time></trkpt><trkpt lat="42.30393" lon="13.2397433"><ele>1277.0</ele><time>2026-05-02T16:14:59.555Z</time></trkpt><trkpt lat="42.3039533" lon="13.239855"><ele>1277.0</ele><time>2026-05-02T16:15:00.555Z</time></trkpt><trkpt lat="42.3039667" lon="13.2399883"><ele>1277.0</ele><time>2026-05-02T16:15:01.555Z</time></trkpt><trkpt lat="42.3039783" lon="13.2401183"><ele>1277.2</ele><time>2026-05-02T16:15:02.556Z</time></trkpt><trkpt lat="42.304" lon="13.2402517"><ele>1277.4</ele><time>2026-05-02T16:15:03.556Z</time></trkpt><trkpt lat="42.304025" lon="13.2403783"><ele>1277.6</ele><time>2026-05-02T16:15:04.556Z</time></trkpt><trkpt lat="42.3040517" lon="13.2405033"><ele>1277.8</ele><time>2026-05-02T16:15:05.556Z</time></trkpt><trkpt lat="42.304075" lon="13.240635"><ele>1278.0</ele><time>2026-05-02T16:15:06.556Z</time></trkpt><trkpt lat="42.3040967" lon="13.2407567"><ele>1278.0</ele><time>2026-05-02T16:15:07.556Z</time></trkpt><trkpt lat="42.30411" lon="13.2408917"><ele>1278.0</ele><time>2026-05-02T16:15:08.555Z</time></trkpt><trkpt lat="42.3041217" lon="13.2410233"><ele>1278.0</ele><time>2026-05-02T16:15:09.555Z</time></trkpt><trkpt lat="42.3041217" lon="13.241145"><ele>1278.0</ele><time>2026-05-02T16:15:10.556Z</time></trkpt><trkpt lat="42.3041133" lon="13.2412517"><ele>1278.0</ele><time>2026-05-02T16:15:11.555Z</time></trkpt><trkpt lat="42.3040917" lon="13.2413567"><ele>1278.0</ele><time>2026-05-02T16:15:12.556Z</time></trkpt><trkpt lat="42.3040533" lon="13.2414617"><ele>1278.3333333333333</ele><time>2026-05-02T16:15:13.556Z</time></trkpt><trkpt lat="42.3040233" lon="13.241555"><ele>1278.6666666666667</ele><time>2026-05-02T16:15:14.555Z</time></trkpt><trkpt lat="42.3040033" lon="13.241655"><ele>1279.0</ele><time>2026-05-02T16:15:15.555Z</time></trkpt><trkpt lat="42.30398" lon="13.2417567"><ele>1279.3333333333335</ele><time>2026-05-02T16:15:16.554Z</time></trkpt><trkpt lat="42.3039467" lon="13.24185"><ele>1279.6666666666667</ele><time>2026-05-02T16:15:17.555Z</time></trkpt><trkpt lat="42.3039067" lon="13.24194"><ele>1280.0</ele><time>2026-05-02T16:15:18.554Z</time></trkpt><trkpt lat="42.3038617" lon="13.242045"><ele>1283.6</ele><time>2026-05-02T16:15:19.554Z</time></trkpt><trkpt lat="42.3038117" lon="13.2421533"><ele>1287.2</ele><time>2026-05-02T16:15:20.555Z</time></trkpt><trkpt lat="42.3037667" lon="13.2422633"><ele>1290.8000000000002</ele><time>2026-05-02T16:15:21.554Z</time></trkpt><trkpt lat="42.3037283" lon="13.2423733"><ele>1294.4</ele><time>2026-05-02T16:15:22.554Z</time></trkpt><trkpt lat="42.3036967" lon="13.2424917"><ele>1298.0</ele><time>2026-05-02T16:15:23.554Z</time></trkpt><trkpt lat="42.30367" lon="13.2426183"><ele>1298.0</ele><time>2026-05-02T16:15:24.554Z</time></trkpt><trkpt lat="42.303645" lon="13.24275"><ele>1298.0</ele><time>2026-05-02T16:15:25.555Z</time></trkpt><trkpt lat="42.303625" lon="13.24288"><ele>1298.0</ele><time>2026-05-02T16:15:26.555Z</time></trkpt><trkpt lat="42.303615" lon="13.24302"><ele>1298.0</ele><time>2026-05-02T16:15:27.554Z</time></trkpt><trkpt lat="42.3036117" lon="13.24316"><ele>1298.0</ele><time>2026-05-02T16:15:28.555Z</time></trkpt><trkpt lat="42.3036083" lon="13.24331"><ele>1298.0</ele><time>2026-05-02T16:15:29.555Z</time></trkpt><trkpt lat="42.3036033" lon="13.243445"><ele>1298.0</ele><time>2026-05-02T16:15:30.555Z</time></trkpt><trkpt lat="42.303605" lon="13.243575"><ele>1298.0</ele><time>2026-05-02T16:15:31.555Z</time></trkpt><trkpt lat="42.30362" lon="13.2437033"><ele>1298.0</ele><time>2026-05-02T16:15:32.555Z</time></trkpt><trkpt lat="42.3036317" lon="13.2438267"><ele>1298.0</ele><time>2026-05-02T16:15:33.555Z</time></trkpt><trkpt lat="42.3036383" lon="13.24394"><ele>1299.0</ele><time>2026-05-02T16:15:34.555Z</time></trkpt><trkpt lat="42.3036417" lon="13.244055"><ele>1300.0</ele><time>2026-05-02T16:15:35.554Z</time></trkpt><trkpt lat="42.3036383" lon="13.2441617"><ele>1301.0</ele><time>2026-05-02T16:15:36.555Z</time></trkpt><trkpt lat="42.3036167" lon="13.244245"><ele>1302.0</ele><time>2026-05-02T16:15:37.554Z</time></trkpt><trkpt lat="42.3035683" lon="13.2443417"><ele>1303.0</ele><time>2026-05-02T16:15:39.554Z</time></trkpt><trkpt lat="42.3035367" lon="13.24444"><ele>1304.0</ele><time>2026-05-02T16:18:02.554Z</time></trkpt><trkpt lat="42.303515" lon="13.2445283"><ele>1304.0</ele><time>2026-05-02T16:18:03.554Z</time></trkpt><trkpt lat="42.303485" lon="13.2446233"><ele>1304.0</ele><time>2026-05-02T16:18:04.554Z</time></trkpt><trkpt lat="42.3034617" lon="13.2447083"><ele>1304.0</ele><time>2026-05-02T16:18:05.554Z</time></trkpt><trkpt lat="42.3034167" lon="13.2448433"><ele>1304.0</ele><time>2026-05-02T16:18:07.554Z</time></trkpt><trkpt lat="42.3033767" lon="13.2449383"><ele>1304.0</ele><time>2026-05-02T16:18:09.555Z</time></trkpt><trkpt lat="42.3033267" lon="13.245025"><ele>1304.0</ele><time>2026-05-02T16:18:11.555Z</time></trkpt><trkpt lat="42.303255" lon="13.2451783"><ele>1304.8333333333335</ele><time>2026-05-02T16:18:13.555Z</time></trkpt><trkpt lat="42.303225" lon="13.24527"><ele>1305.6666666666667</ele><time>2026-05-02T16:18:14.554Z</time></trkpt><trkpt lat="42.3031983" lon="13.24538"><ele>1306.5</ele><time>2026-05-02T16:18:15.554Z</time></trkpt><trkpt lat="42.3031917" lon="13.2454983"><ele>1307.3333333333333</ele><time>2026-05-02T16:18:16.555Z</time></trkpt><trkpt lat="42.30318" lon="13.245615"><ele>1308.1666666666665</ele><time>2026-05-02T16:18:17.554Z</time></trkpt><trkpt lat="42.3031617" lon="13.2457317"><ele>1309.0</ele><time>2026-05-02T16:18:18.554Z</time></trkpt><trkpt lat="42.3031167" lon="13.245825"><ele>1310.1666666666665</ele><time>2026-05-02T16:18:19.555Z</time></trkpt><trkpt lat="42.303075" lon="13.245915"><ele>1311.3333333333333</ele><time>2026-05-02T16:18:20.555Z</time></trkpt><trkpt lat="42.3030367" lon="13.245995"><ele>1312.5</ele><time>2026-05-02T16:18:21.554Z</time></trkpt><trkpt lat="42.30301" lon="13.246095"><ele>1313.6666666666667</ele><time>2026-05-02T16:18:22.555Z</time></trkpt><trkpt lat="42.302985" lon="13.246175"><ele>1314.8333333333335</ele><time>2026-05-02T16:18:23.555Z</time></trkpt><trkpt lat="42.30292" lon="13.246315"><ele>1316.0</ele><time>2026-05-02T16:18:25.555Z</time></trkpt><trkpt lat="42.3028767" lon="13.2463983"><ele>1317.8</ele><time>2026-05-02T16:18:26.555Z</time></trkpt><trkpt lat="42.30283" lon="13.246505"><ele>1319.6</ele><time>2026-05-02T16:18:27.554Z</time></trkpt><trkpt lat="42.302775" lon="13.2466217"><ele>1321.4</ele><time>2026-05-02T16:18:28.555Z</time></trkpt><trkpt lat="42.3027267" lon="13.2467483"><ele>1323.2</ele><time>2026-05-02T16:18:29.554Z</time></trkpt><trkpt lat="42.302675" lon="13.2468683"><ele>1325.0</ele><time>2026-05-02T16:18:30.554Z</time></trkpt><trkpt lat="42.302615" lon="13.2469817"><ele>1325.0</ele><time>2026-05-02T16:18:31.554Z</time></trkpt><trkpt lat="42.3025617" lon="13.2470783"><ele>1325.0</ele><time>2026-05-02T16:18:32.555Z</time></trkpt><trkpt lat="42.3025117" lon="13.2471717"><ele>1325.0</ele><time>2026-05-02T16:18:33.555Z</time></trkpt><trkpt lat="42.3024583" lon="13.2472617"><ele>1325.0</ele><time>2026-05-02T16:18:34.554Z</time></trkpt><trkpt lat="42.3024167" lon="13.2473417"><ele>1325.0</ele><time>2026-05-02T16:18:35.555Z</time></trkpt><trkpt lat="42.3023683" lon="13.2474367"><ele>1325.0</ele><time>2026-05-02T16:18:36.555Z</time></trkpt><trkpt lat="42.3023167" lon="13.2475383"><ele>1328.2</ele><time>2026-05-02T16:18:37.555Z</time></trkpt><trkpt lat="42.3022533" lon="13.2476317"><ele>1331.4</ele><time>2026-05-02T16:18:38.555Z</time></trkpt><trkpt lat="42.3021717" lon="13.2477317"><ele>1334.6</ele><time>2026-05-02T16:18:39.555Z</time></trkpt><trkpt lat="42.3020933" lon="13.2478433"><ele>1337.8</ele><time>2026-05-02T16:18:40.555Z</time></trkpt><trkpt lat="42.3020233" lon="13.2479717"><ele>1341.0</ele><time>2026-05-02T16:18:41.554Z</time></trkpt><trkpt lat="42.3019633" lon="13.2480967"><ele>1343.0</ele><time>2026-05-02T16:18:42.555Z</time></trkpt><trkpt lat="42.3018983" lon="13.2482083"><ele>1345.0</ele><time>2026-05-02T16:18:43.555Z</time></trkpt><trkpt lat="42.3018367" lon="13.2483183"><ele>1347.0</ele><time>2026-05-02T16:18:44.555Z</time></trkpt><trkpt lat="42.3017767" lon="13.2484183"><ele>1349.0</ele><time>2026-05-02T16:18:45.554Z</time></trkpt><trkpt lat="42.3017267" lon="13.2484967"><ele>1351.0</ele><time>2026-05-02T16:18:46.555Z</time></trkpt><trkpt lat="42.3016667" lon="13.2486083"><ele>1351.0</ele><time>2026-05-02T16:18:48.554Z</time></trkpt><trkpt lat="42.3016367" lon="13.2486867"><ele>1351.0</ele><time>2026-05-02T16:18:49.555Z</time></trkpt><trkpt lat="42.3016033" lon="13.248785"><ele>1351.0</ele><time>2026-05-02T16:18:50.554Z</time></trkpt><trkpt lat="42.301565" lon="13.2488967"><ele>1351.0</ele><time>2026-05-02T16:18:51.554Z</time></trkpt><trkpt lat="42.3015367" lon="13.24903"><ele>1351.0</ele><time>2026-05-02T16:18:52.555Z</time></trkpt><trkpt lat="42.3015167" lon="13.2491733"><ele>1351.0</ele><time>2026-05-02T16:18:53.555Z</time></trkpt><trkpt lat="42.3014933" lon="13.24932"><ele>1352.4</ele><time>2026-05-02T16:18:54.554Z</time></trkpt><trkpt lat="42.30147" lon="13.2494683"><ele>1353.8</ele><time>2026-05-02T16:18:55.555Z</time></trkpt><trkpt lat="42.30146" lon="13.249615"><ele>1355.2</ele><time>2026-05-02T16:18:56.555Z</time></trkpt><trkpt lat="42.3014567" lon="13.2497583"><ele>1356.6000000000001</ele><time>2026-05-02T16:18:57.555Z</time></trkpt><trkpt lat="42.3014517" lon="13.2499067"><ele>1358.0</ele><time>2026-05-02T16:18:58.555Z</time></trkpt><trkpt lat="42.301455" lon="13.2500567"><ele>1358.0</ele><time>2026-05-02T16:18:59.555Z</time></trkpt><trkpt lat="42.3014717" lon="13.25021"><ele>1358.0</ele><time>2026-05-02T16:19:00.554Z</time></trkpt><trkpt lat="42.3015083" lon="13.2503767"><ele>1358.0</ele><time>2026-05-02T16:19:01.555Z</time></trkpt><trkpt lat="42.30157" lon="13.250555"><ele>1358.0</ele><time>2026-05-02T16:19:02.555Z</time></trkpt><trkpt lat="42.30166" lon="13.2507567"><ele>1353.0</ele><time>2026-05-02T16:19:03.555Z</time></trkpt><trkpt lat="42.301745" lon="13.250975"><ele>1348.0</ele><time>2026-05-02T16:19:04.554Z</time></trkpt><trkpt lat="42.3018317" lon="13.2511767"><ele>1343.0</ele><time>2026-05-02T16:19:05.555Z</time></trkpt><trkpt lat="42.3019183" lon="13.2513583"><ele>1343.3333333333335</ele><time>2026-05-02T16:19:06.554Z</time></trkpt><trkpt lat="42.302025" lon="13.2515167"><ele>1343.6666666666667</ele><time>2026-05-02T16:19:07.554Z</time></trkpt><trkpt lat="42.3021483" lon="13.2516483"><ele>1344.0</ele><time>2026-05-02T16:19:08.555Z</time></trkpt><trkpt lat="42.3022733" lon="13.2517617"><ele>1344.0</ele><time>2026-05-02T16:19:09.554Z</time></trkpt><trkpt lat="42.302405" lon="13.25184"><ele>1344.0</ele><time>2026-05-02T16:19:10.554Z</time></trkpt><trkpt lat="42.3025483" lon="13.2518767"><ele>1344.0</ele><time>2026-05-02T16:19:11.555Z</time></trkpt><trkpt lat="42.302695" lon="13.2518783"><ele>1344.0</ele><time>2026-05-02T16:19:12.554Z</time></trkpt><trkpt lat="42.3028367" lon="13.2518533"><ele>1344.0</ele><time>2026-05-02T16:19:13.554Z</time></trkpt><trkpt lat="42.30297" lon="13.2518267"><ele>1344.0</ele><time>2026-05-02T16:19:14.554Z</time></trkpt><trkpt lat="42.3031017" lon="13.2518183"><ele>1344.0</ele><time>2026-05-02T16:19:15.554Z</time></trkpt><trkpt lat="42.3032333" lon="13.251825"><ele>1344.0</ele><time>2026-05-02T16:19:16.555Z</time></trkpt><trkpt lat="42.30336" lon="13.25183"><ele>1345.5</ele><time>2026-05-02T16:19:17.554Z</time></trkpt><trkpt lat="42.3034783" lon="13.2518383"><ele>1347.0</ele><time>2026-05-02T16:19:18.554Z</time></trkpt><trkpt lat="42.30359" lon="13.251865"><ele>1348.5</ele><time>2026-05-02T16:19:19.555Z</time></trkpt><trkpt lat="42.3037033" lon="13.2519133"><ele>1350.0</ele><time>2026-05-02T16:19:20.555Z</time></trkpt><trkpt lat="42.3038133" lon="13.2519817"><ele>1347.25</ele><time>2026-05-02T16:19:21.555Z</time></trkpt><trkpt lat="42.30392" lon="13.25207"><ele>1344.5</ele><time>2026-05-02T16:19:22.555Z</time></trkpt><trkpt lat="42.3040083" lon="13.252185"><ele>1341.75</ele><time>2026-05-02T16:19:23.554Z</time></trkpt><trkpt lat="42.3040833" lon="13.2523283"><ele>1339.0</ele><time>2026-05-02T16:19:24.554Z</time></trkpt><trkpt lat="42.3041467" lon="13.2525"><ele>1339.0</ele><time>2026-05-02T16:19:25.554Z</time></trkpt><trkpt lat="42.3042033" lon="13.2526833"><ele>1339.0</ele><time>2026-05-02T16:19:26.554Z</time></trkpt><trkpt lat="42.304255" lon="13.25288"><ele>1339.0</ele><time>2026-05-02T16:19:27.554Z</time></trkpt><trkpt lat="42.3043183" lon="13.2530933"><ele>1331.0</ele><time>2026-05-02T16:19:28.555Z</time></trkpt><trkpt lat="42.3043833" lon="13.253315"><ele>1323.0</ele><time>2026-05-02T16:19:29.555Z</time></trkpt><trkpt lat="42.30445" lon="13.2535417"><ele>1315.0</ele><time>2026-05-02T16:19:30.555Z</time></trkpt><trkpt lat="42.30453" lon="13.2537683"><ele>1319.0</ele><time>2026-05-02T16:19:31.554Z</time></trkpt><trkpt lat="42.3046067" lon="13.2539767"><ele>1323.0</ele><time>2026-05-02T16:19:32.555Z</time></trkpt><trkpt lat="42.3046767" lon="13.2541533"><ele>1327.0</ele><time>2026-05-02T16:19:33.555Z</time></trkpt><trkpt lat="42.30474" lon="13.2543033"><ele>1331.0</ele><time>2026-05-02T16:19:34.554Z</time></trkpt><trkpt lat="42.3047917" lon="13.2544267"><ele>1331.0</ele><time>2026-05-02T16:19:35.555Z</time></trkpt><trkpt lat="42.30484" lon="13.2545217"><ele>1331.0</ele><time>2026-05-02T16:19:36.554Z</time></trkpt><trkpt lat="42.30491" lon="13.25458"><ele>1331.0</ele><time>2026-05-02T16:19:37.554Z</time></trkpt><trkpt lat="42.3050067" lon="13.2546083"><ele>1331.0</ele><time>2026-05-02T16:19:38.555Z</time></trkpt><trkpt lat="42.3051317" lon="13.2545783"><ele>1331.0</ele><time>2026-05-02T16:19:39.555Z</time></trkpt><trkpt lat="42.3052783" lon="13.2545117"><ele>1331.0</ele><time>2026-05-02T16:19:40.554Z</time></trkpt><trkpt lat="42.3054367" lon="13.2544267"><ele>1331.0</ele><time>2026-05-02T16:19:41.555Z</time></trkpt><trkpt lat="42.3055967" lon="13.2543383"><ele>1331.0</ele><time>2026-05-02T16:19:42.555Z</time></trkpt><trkpt lat="42.3057417" lon="13.254235"><ele>1328.3333333333335</ele><time>2026-05-02T16:19:43.555Z</time></trkpt><trkpt lat="42.3058733" lon="13.2541483"><ele>1325.6666666666667</ele><time>2026-05-02T16:19:44.554Z</time></trkpt><trkpt lat="42.3060083" lon="13.2540867"><ele>1323.0</ele><time>2026-05-02T16:19:45.554Z</time></trkpt><trkpt lat="42.3061817" lon="13.2540483"><ele>1323.0</ele><time>2026-05-02T16:19:46.555Z</time></trkpt><trkpt lat="42.3063717" lon="13.254"><ele>1323.0</ele><time>2026-05-02T16:19:47.555Z</time></trkpt><trkpt lat="42.3065767" lon="13.2539517"><ele>1323.0</ele><time>2026-05-02T16:19:48.555Z</time></trkpt><trkpt lat="42.3067783" lon="13.2539083"><ele>1327.3333333333333</ele><time>2026-05-02T16:19:49.555Z</time></trkpt><trkpt lat="42.30698" lon="13.2538633"><ele>1331.6666666666665</ele><time>2026-05-02T16:19:50.555Z</time></trkpt><trkpt lat="42.30718" lon="13.253805"><ele>1336.0</ele><time>2026-05-02T16:19:51.555Z</time></trkpt><trkpt lat="42.3073617" lon="13.25375"><ele>1336.0</ele><time>2026-05-02T16:19:52.554Z</time></trkpt><trkpt lat="42.3075317" lon="13.2537033"><ele>1336.0</ele><time>2026-05-02T16:19:53.554Z</time></trkpt><trkpt lat="42.30771" lon="13.2537033"><ele>1336.0</ele><time>2026-05-02T16:19:54.554Z</time></trkpt><trkpt lat="42.307895" lon="13.2537167"><ele>1332.6666666666665</ele><time>2026-05-02T16:19:55.555Z</time></trkpt><trkpt lat="42.3080817" lon="13.2537367"><ele>1329.3333333333333</ele><time>2026-05-02T16:19:56.554Z</time></trkpt><trkpt lat="42.3082667" lon="13.2537583"><ele>1326.0</ele><time>2026-05-02T16:19:57.554Z</time></trkpt><trkpt lat="42.30844" lon="13.2537933"><ele>1326.0</ele><time>2026-05-02T16:19:58.554Z</time></trkpt><trkpt lat="42.3086117" lon="13.253845"><ele>1326.0</ele><time>2026-05-02T16:19:59.554Z</time></trkpt><trkpt lat="42.308785" lon="13.2539183"><ele>1326.0</ele><time>2026-05-02T16:20:00.554Z</time></trkpt><trkpt lat="42.3089467" lon="13.2539883"><ele>1325.25</ele><time>2026-05-02T16:20:01.554Z</time></trkpt><trkpt lat="42.3090883" lon="13.2540433"><ele>1324.5</ele><time>2026-05-02T16:20:02.554Z</time></trkpt><trkpt lat="42.30921" lon="13.2540583"><ele>1323.75</ele><time>2026-05-02T16:20:03.554Z</time></trkpt><trkpt lat="42.3093317" lon="13.25402"><ele>1323.0</ele><time>2026-05-02T16:20:04.554Z</time></trkpt><trkpt lat="42.3094533" lon="13.2539467"><ele>1323.0</ele><time>2026-05-02T16:20:05.555Z</time></trkpt><trkpt lat="42.3095883" lon="13.2538383"><ele>1323.0</ele><time>2026-05-02T16:20:06.554Z</time></trkpt><trkpt lat="42.3097433" lon="13.2537083"><ele>1323.0</ele><time>2026-05-02T16:20:07.555Z</time></trkpt><trkpt lat="42.3099033" lon="13.25359"><ele>1317.6666666666667</ele><time>2026-05-02T16:20:08.555Z</time></trkpt><trkpt lat="42.3100617" lon="13.2534733"><ele>1312.3333333333335</ele><time>2026-05-02T16:20:09.555Z</time></trkpt><trkpt lat="42.31021" lon="13.253355"><ele>1307.0</ele><time>2026-05-02T16:20:10.555Z</time></trkpt><trkpt lat="42.3103567" lon="13.253235"><ele>1307.0</ele><time>2026-05-02T16:20:11.554Z</time></trkpt><trkpt lat="42.3105033" lon="13.253125"><ele>1307.0</ele><time>2026-05-02T16:20:12.554Z</time></trkpt><trkpt lat="42.3106433" lon="13.2530417"><ele>1307.0</ele><time>2026-05-02T16:20:13.554Z</time></trkpt><trkpt lat="42.31078" lon="13.2529667"><ele>1309.6666666666667</ele><time>2026-05-02T16:20:14.554Z</time></trkpt><trkpt lat="42.3109267" lon="13.2529233"><ele>1312.3333333333333</ele><time>2026-05-02T16:20:15.553Z</time></trkpt><trkpt lat="42.311095" lon="13.2528983"><ele>1315.0</ele><time>2026-05-02T16:20:16.554Z</time></trkpt><trkpt lat="42.311265" lon="13.252885"><ele>1311.6666666666665</ele><time>2026-05-02T16:20:17.553Z</time></trkpt><trkpt lat="42.3114267" lon="13.2528583"><ele>1308.3333333333333</ele><time>2026-05-02T16:20:18.553Z</time></trkpt><trkpt lat="42.311575" lon="13.2528117"><ele>1305.0</ele><time>2026-05-02T16:20:19.553Z</time></trkpt><trkpt lat="42.311715" lon="13.2527883"><ele>1305.0</ele><time>2026-05-02T16:20:20.554Z</time></trkpt><trkpt lat="42.3118533" lon="13.252795"><ele>1305.0</ele><time>2026-05-02T16:20:21.553Z</time></trkpt><trkpt lat="42.311985" lon="13.25283"><ele>1305.0</ele><time>2026-05-02T16:20:22.554Z</time></trkpt><trkpt lat="42.3121083" lon="13.2528683"><ele>1305.0</ele><time>2026-05-02T16:20:23.553Z</time></trkpt><trkpt lat="42.3122117" lon="13.2529017"><ele>1301.25</ele><time>2026-05-02T16:20:24.554Z</time></trkpt><trkpt lat="42.31231" lon="13.2528867"><ele>1297.5</ele><time>2026-05-02T16:20:25.553Z</time></trkpt><trkpt lat="42.3123983" lon="13.2528267"><ele>1293.75</ele><time>2026-05-02T16:20:26.553Z</time></trkpt><trkpt lat="42.3124967" lon="13.2527233"><ele>1290.0</ele><time>2026-05-02T16:20:27.554Z</time></trkpt><trkpt lat="42.31261" lon="13.2526217"><ele>1290.0</ele><time>2026-05-02T16:20:28.553Z</time></trkpt><trkpt lat="42.3127217" lon="13.252545"><ele>1290.0</ele><time>2026-05-02T16:20:29.553Z</time></trkpt><trkpt lat="42.3128083" lon="13.252445"><ele>1290.0</ele><time>2026-05-02T16:20:30.554Z</time></trkpt><trkpt lat="42.3128767" lon="13.252325"><ele>1290.0</ele><time>2026-05-02T16:20:31.554Z</time></trkpt><trkpt lat="42.3129233" lon="13.2521817"><ele>1288.8</ele><time>2026-05-02T16:20:32.554Z</time></trkpt><trkpt lat="42.3129767" lon="13.25205"><ele>1287.6</ele><time>2026-05-02T16:20:33.554Z</time></trkpt><trkpt lat="42.313045" lon="13.2519417"><ele>1286.4</ele><time>2026-05-02T16:20:34.554Z</time></trkpt><trkpt lat="42.31313" lon="13.2518583"><ele>1285.2</ele><time>2026-05-02T16:20:35.554Z</time></trkpt><trkpt lat="42.3132283" lon="13.2517983"><ele>1284.0</ele><time>2026-05-02T16:20:36.553Z</time></trkpt><trkpt lat="42.31334" lon="13.251765"><ele>1284.0</ele><time>2026-05-02T16:20:37.554Z</time></trkpt><trkpt lat="42.3134317" lon="13.2517133"><ele>1284.0</ele><time>2026-05-02T16:20:38.553Z</time></trkpt><trkpt lat="42.3135133" lon="13.2516133"><ele>1284.0</ele><time>2026-05-02T16:20:39.554Z</time></trkpt><trkpt lat="42.31359" lon="13.251495"><ele>1284.0</ele><time>2026-05-02T16:20:40.553Z</time></trkpt><trkpt lat="42.3136667" lon="13.2513983"><ele>1284.0</ele><time>2026-05-02T16:20:41.554Z</time></trkpt><trkpt lat="42.3137633" lon="13.251325"><ele>1287.0</ele><time>2026-05-02T16:20:42.554Z</time></trkpt><trkpt lat="42.3138767" lon="13.251295"><ele>1290.0</ele><time>2026-05-02T16:20:43.553Z</time></trkpt><trkpt lat="42.3140133" lon="13.2512633"><ele>1293.0</ele><time>2026-05-02T16:20:44.553Z</time></trkpt><trkpt lat="42.3141433" lon="13.2512"><ele>1296.0</ele><time>2026-05-02T16:20:45.554Z</time></trkpt><trkpt lat="42.3142617" lon="13.25114"><ele>1296.0</ele><time>2026-05-02T16:20:46.553Z</time></trkpt><trkpt lat="42.3143667" lon="13.2510983"><ele>1296.0</ele><time>2026-05-02T16:20:47.554Z</time></trkpt><trkpt lat="42.3144583" lon="13.2510867"><ele>1296.0</ele><time>2026-05-02T16:20:48.553Z</time></trkpt><trkpt lat="42.3145517" lon="13.2511167"><ele>1296.0</ele><time>2026-05-02T16:20:49.554Z</time></trkpt><trkpt lat="42.3146467" lon="13.2511983"><ele>1296.0</ele><time>2026-05-02T16:20:50.553Z</time></trkpt><trkpt lat="42.3147583" lon="13.2513067"><ele>1297.3333333333333</ele><time>2026-05-02T16:20:51.553Z</time></trkpt><trkpt lat="42.3148783" lon="13.2514367"><ele>1298.6666666666665</ele><time>2026-05-02T16:20:52.553Z</time></trkpt><trkpt lat="42.315" lon="13.2515717"><ele>1300.0</ele><time>2026-05-02T16:20:53.553Z</time></trkpt><trkpt lat="42.31511" lon="13.2517"><ele>1293.25</ele><time>2026-05-02T16:20:54.553Z</time></trkpt><trkpt lat="42.315205" lon="13.2518317"><ele>1286.5</ele><time>2026-05-02T16:20:55.553Z</time></trkpt><trkpt lat="42.3152883" lon="13.25196"><ele>1279.75</ele><time>2026-05-02T16:20:56.554Z</time></trkpt><trkpt lat="42.315365" lon="13.2520717"><ele>1273.0</ele><time>2026-05-02T16:20:57.553Z</time></trkpt><trkpt lat="42.3154533" lon="13.2521533"><ele>1278.5</ele><time>2026-05-02T16:20:58.554Z</time></trkpt><trkpt lat="42.3155717" lon="13.2521983"><ele>1284.0</ele><time>2026-05-02T16:20:59.554Z</time></trkpt><trkpt lat="42.3157117" lon="13.2522083"><ele>1289.5</ele><time>2026-05-02T16:21:00.553Z</time></trkpt><trkpt lat="42.31586" lon="13.2521883"><ele>1295.0</ele><time>2026-05-02T16:21:01.553Z</time></trkpt><trkpt lat="42.3160033" lon="13.2521483"><ele>1295.0</ele><time>2026-05-02T16:21:02.554Z</time></trkpt><trkpt lat="42.3161383" lon="13.2520967"><ele>1295.0</ele><time>2026-05-02T16:21:03.554Z</time></trkpt><trkpt lat="42.31626" lon="13.252045"><ele>1295.0</ele><time>2026-05-02T16:21:04.554Z</time></trkpt><trkpt lat="42.3163633" lon="13.2520083"><ele>1295.0</ele><time>2026-05-02T16:21:05.553Z</time></trkpt><trkpt lat="42.3164517" lon="13.25199"><ele>1294.3333333333335</ele><time>2026-05-02T16:21:06.554Z</time></trkpt><trkpt lat="42.3165233" lon="13.25201"><ele>1293.6666666666667</ele><time>2026-05-02T16:21:07.554Z</time></trkpt><trkpt lat="42.31658" lon="13.2520583"><ele>1293.0</ele><time>2026-05-02T16:21:08.553Z</time></trkpt><trkpt lat="42.316625" lon="13.25213"><ele>1292.3333333333333</ele><time>2026-05-02T16:21:09.553Z</time></trkpt><trkpt lat="42.3166517" lon="13.2522217"><ele>1291.6666666666665</ele><time>2026-05-02T16:21:10.554Z</time></trkpt><trkpt lat="42.3166617" lon="13.2523133"><ele>1291.0</ele><time>2026-05-02T16:21:11.554Z</time></trkpt><trkpt lat="42.3166167" lon="13.2524867"><ele>1287.6</ele><time>2026-05-02T16:21:13.553Z</time></trkpt><trkpt lat="42.316565" lon="13.2525883"><ele>1284.1999999999998</ele><time>2026-05-02T16:21:14.554Z</time></trkpt><trkpt lat="42.3165033" lon="13.2526983"><ele>1280.8000000000002</ele><time>2026-05-02T16:21:15.554Z</time></trkpt><trkpt lat="42.3164433" lon="13.2528067"><ele>1277.4</ele><time>2026-05-02T16:21:16.553Z</time></trkpt><trkpt lat="42.3163983" lon="13.2529167"><ele>1274.0</ele><time>2026-05-02T16:21:17.554Z</time></trkpt><trkpt lat="42.3163933" lon="13.2530183"><ele>1274.0</ele><time>2026-05-02T16:21:18.553Z</time></trkpt><trkpt lat="42.3164417" lon="13.2530817"><ele>1274.0</ele><time>2026-05-02T16:21:19.554Z</time></trkpt><trkpt lat="42.31653" lon="13.2531067"><ele>1274.0</ele><time>2026-05-02T16:21:20.553Z</time></trkpt><trkpt lat="42.3166433" lon="13.2530833"><ele>1274.0</ele><time>2026-05-02T16:21:21.553Z</time></trkpt><trkpt lat="42.3167717" lon="13.2530333"><ele>1274.0</ele><time>2026-05-02T16:21:22.553Z</time></trkpt><trkpt lat="42.31691" lon="13.252985"><ele>1274.0</ele><time>2026-05-02T16:21:23.553Z</time></trkpt><trkpt lat="42.31705" lon="13.2529383"><ele>1274.0</ele><time>2026-05-02T16:21:24.554Z</time></trkpt><trkpt lat="42.317195" lon="13.2528767"><ele>1274.0</ele><time>2026-05-02T16:21:25.553Z</time></trkpt><trkpt lat="42.3173433" lon="13.2528233"><ele>1274.6666666666667</ele><time>2026-05-02T16:21:26.554Z</time></trkpt><trkpt lat="42.3175" lon="13.2527667"><ele>1275.3333333333333</ele><time>2026-05-02T16:21:27.553Z</time></trkpt><trkpt lat="42.31765" lon="13.2527167"><ele>1276.0</ele><time>2026-05-02T16:21:28.553Z</time></trkpt><trkpt lat="42.3178033" lon="13.2526583"><ele>1276.0</ele><time>2026-05-02T16:21:29.553Z</time></trkpt><trkpt lat="42.31796" lon="13.252615"><ele>1276.0</ele><time>2026-05-02T16:21:30.554Z</time></trkpt><trkpt lat="42.31812" lon="13.25259"><ele>1276.0</ele><time>2026-05-02T16:21:31.553Z</time></trkpt><trkpt lat="42.3182817" lon="13.2525833"><ele>1274.0</ele><time>2026-05-02T16:21:32.554Z</time></trkpt><trkpt lat="42.318445" lon="13.25258"><ele>1272.0</ele><time>2026-05-02T16:21:33.554Z</time></trkpt><trkpt lat="42.3186133" lon="13.252565"><ele>1270.0</ele><time>2026-05-02T16:21:34.554Z</time></trkpt><trkpt lat="42.3187783" lon="13.25254"><ele>1268.3333333333333</ele><time>2026-05-02T16:21:35.554Z</time></trkpt><trkpt lat="42.3189383" lon="13.2525"><ele>1266.6666666666667</ele><time>2026-05-02T16:21:36.553Z</time></trkpt><trkpt lat="42.3190933" lon="13.2524533"><ele>1265.0</ele><time>2026-05-02T16:21:37.554Z</time></trkpt><trkpt lat="42.3192383" lon="13.2524217"><ele>1265.0</ele><time>2026-05-02T16:21:38.553Z</time></trkpt><trkpt lat="42.3193867" lon="13.2523933"><ele>1265.0</ele><time>2026-05-02T16:21:39.554Z</time></trkpt><trkpt lat="42.3195233" lon="13.252375"><ele>1265.0</ele><time>2026-05-02T16:21:40.554Z</time></trkpt><trkpt lat="42.3196483" lon="13.2523483"><ele>1265.0</ele><time>2026-05-02T16:21:41.554Z</time></trkpt><trkpt lat="42.3197467" lon="13.2523"><ele>1269.0</ele><time>2026-05-02T16:21:42.553Z</time></trkpt><trkpt lat="42.31983" lon="13.2522083"><ele>1273.0</ele><time>2026-05-02T16:21:43.553Z</time></trkpt><trkpt lat="42.3199183" lon="13.2520767"><ele>1277.0</ele><time>2026-05-02T16:21:44.553Z</time></trkpt><trkpt lat="42.320005" lon="13.25193"><ele>1281.0</ele><time>2026-05-02T16:21:45.554Z</time></trkpt><trkpt lat="42.320095" lon="13.2517883"><ele>1281.0</ele><time>2026-05-02T16:21:46.554Z</time></trkpt><trkpt lat="42.3201833" lon="13.251635"><ele>1281.0</ele><time>2026-05-02T16:21:47.554Z</time></trkpt><trkpt lat="42.3202533" lon="13.2514683"><ele>1281.0</ele><time>2026-05-02T16:21:48.553Z</time></trkpt><trkpt lat="42.3203167" lon="13.2513083"><ele>1281.0</ele><time>2026-05-02T16:21:49.554Z</time></trkpt><trkpt lat="42.3203833" lon="13.2511517"><ele>1283.4</ele><time>2026-05-02T16:21:50.554Z</time></trkpt><trkpt lat="42.3204367" lon="13.251005"><ele>1285.8</ele><time>2026-05-02T16:21:51.553Z</time></trkpt><trkpt lat="42.3204733" lon="13.2508533"><ele>1288.2</ele><time>2026-05-02T16:21:52.554Z</time></trkpt><trkpt lat="42.3204933" lon="13.250715"><ele>1290.6000000000001</ele><time>2026-05-02T16:21:53.554Z</time></trkpt><trkpt lat="42.3205133" lon="13.2506033"><ele>1293.0</ele><time>2026-05-02T16:21:54.553Z</time></trkpt><trkpt lat="42.3205483" lon="13.250515"><ele>1289.2</ele><time>2026-05-02T16:21:55.554Z</time></trkpt><trkpt lat="42.3206117" lon="13.2504383"><ele>1285.4</ele><time>2026-05-02T16:21:56.553Z</time></trkpt><trkpt lat="42.320705" lon="13.25038"><ele>1281.6000000000001</ele><time>2026-05-02T16:21:57.554Z</time></trkpt><trkpt lat="42.3208083" lon="13.2503517"><ele>1277.8000000000002</ele><time>2026-05-02T16:21:58.554Z</time></trkpt><trkpt lat="42.3209167" lon="13.2503533"><ele>1274.0</ele><time>2026-05-02T16:21:59.553Z</time></trkpt><trkpt lat="42.3210333" lon="13.25038"><ele>1274.0</ele><time>2026-05-02T16:22:00.553Z</time></trkpt><trkpt lat="42.3211583" lon="13.2504367"><ele>1274.0</ele><time>2026-05-02T16:22:01.554Z</time></trkpt><trkpt lat="42.3212933" lon="13.2505117"><ele>1274.0</ele><time>2026-05-02T16:22:02.553Z</time></trkpt><trkpt lat="42.3214333" lon="13.2505967"><ele>1274.0</ele><time>2026-05-02T16:22:03.554Z</time></trkpt><trkpt lat="42.3215733" lon="13.2506817"><ele>1267.75</ele><time>2026-05-02T16:22:04.554Z</time></trkpt><trkpt lat="42.321705" lon="13.2507633"><ele>1261.5</ele><time>2026-05-02T16:22:05.554Z</time></trkpt><trkpt lat="42.32182" lon="13.250855"><ele>1255.25</ele><time>2026-05-02T16:22:06.553Z</time></trkpt><trkpt lat="42.3219183" lon="13.2509417"><ele>1249.0</ele><time>2026-05-02T16:22:07.553Z</time></trkpt><trkpt lat="42.321995" lon="13.2510267"><ele>1249.0</ele><time>2026-05-02T16:22:08.554Z</time></trkpt><trkpt lat="42.32204" lon="13.2511033"><ele>1249.0</ele><time>2026-05-02T16:22:09.554Z</time></trkpt><trkpt lat="42.3220433" lon="13.251255"><ele>1249.0</ele><time>2026-05-02T16:22:11.554Z</time></trkpt><trkpt lat="42.3219133" lon="13.2513183"><ele>1249.0</ele><time>2026-05-02T16:22:13.554Z</time></trkpt><trkpt lat="42.3218133" lon="13.2512967"><ele>1249.0</ele><time>2026-05-02T16:22:14.554Z</time></trkpt><trkpt lat="42.321705" lon="13.2512633"><ele>1249.0</ele><time>2026-05-02T16:22:15.553Z</time></trkpt><trkpt lat="42.3216033" lon="13.251225"><ele>1249.0</ele><time>2026-05-02T16:22:16.554Z</time></trkpt><trkpt lat="42.3215117" lon="13.251155"><ele>1249.0</ele><time>2026-05-02T16:22:17.553Z</time></trkpt><trkpt lat="42.32143" lon="13.2510467"><ele>1249.0</ele><time>2026-05-02T16:22:18.553Z</time></trkpt><trkpt lat="42.3213583" lon="13.25092"><ele>1249.0</ele><time>2026-05-02T16:22:19.554Z</time></trkpt><trkpt lat="42.3212783" lon="13.2508183"><ele>1249.4</ele><time>2026-05-02T16:22:20.554Z</time></trkpt><trkpt lat="42.321195" lon="13.250735"><ele>1249.8000000000002</ele><time>2026-05-02T16:22:21.554Z</time></trkpt><trkpt lat="42.3211017" lon="13.2506617"><ele>1250.1999999999998</ele><time>2026-05-02T16:22:22.554Z</time></trkpt><trkpt lat="42.3210067" lon="13.2506083"><ele>1250.6</ele><time>2026-05-02T16:22:23.553Z</time></trkpt><trkpt lat="42.3209217" lon="13.2505883"><ele>1251.0</ele><time>2026-05-02T16:22:24.554Z</time></trkpt><trkpt lat="42.3208483" lon="13.2505933"><ele>1251.0</ele><time>2026-05-02T16:22:25.553Z</time></trkpt><trkpt lat="42.32079" lon="13.2506283"><ele>1251.0</ele><time>2026-05-02T16:22:26.554Z</time></trkpt><trkpt lat="42.3207567" lon="13.2507017"><ele>1251.0</ele><time>2026-05-02T16:22:27.554Z</time></trkpt><trkpt lat="42.32073" lon="13.2508117"><ele>1251.0</ele><time>2026-05-02T16:22:28.554Z</time></trkpt><trkpt lat="42.3207" lon="13.2509517"><ele>1251.0</ele><time>2026-05-02T16:22:29.554Z</time></trkpt><trkpt lat="42.3206517" lon="13.2511117"><ele>1251.0</ele><time>2026-05-02T16:22:30.554Z</time></trkpt><trkpt lat="42.3205917" lon="13.2512667"><ele>1258.5</ele><time>2026-05-02T16:22:31.554Z</time></trkpt><trkpt lat="42.3205267" lon="13.2514383"><ele>1266.0</ele><time>2026-05-02T16:22:32.554Z</time></trkpt><trkpt lat="42.3204683" lon="13.2516133"><ele>1273.5</ele><time>2026-05-02T16:22:33.553Z</time></trkpt><trkpt lat="42.320405" lon="13.2517817"><ele>1281.0</ele><time>2026-05-02T16:22:34.553Z</time></trkpt><trkpt lat="42.3203417" lon="13.2519433"><ele>1281.0</ele><time>2026-05-02T16:22:35.554Z</time></trkpt><trkpt lat="42.3202633" lon="13.25211"><ele>1281.0</ele><time>2026-05-02T16:22:36.554Z</time></trkpt><trkpt lat="42.3201917" lon="13.252265"><ele>1281.0</ele><time>2026-05-02T16:22:37.553Z</time></trkpt><trkpt lat="42.3201233" lon="13.2524267"><ele>1281.0</ele><time>2026-05-02T16:22:38.554Z</time></trkpt><trkpt lat="42.320065" lon="13.2525617"><ele>1277.0</ele><time>2026-05-02T16:22:39.553Z</time></trkpt><trkpt lat="42.3199983" lon="13.25267"><ele>1273.0</ele><time>2026-05-02T16:22:40.554Z</time></trkpt><trkpt lat="42.319925" lon="13.25277"><ele>1269.0</ele><time>2026-05-02T16:22:41.553Z</time></trkpt><trkpt lat="42.3198233" lon="13.2528417"><ele>1265.0</ele><time>2026-05-02T16:22:42.554Z</time></trkpt><trkpt lat="42.3197" lon="13.2529"><ele>1265.0</ele><time>2026-05-02T16:22:43.554Z</time></trkpt><trkpt lat="42.3195583" lon="13.252935"><ele>1265.0</ele><time>2026-05-02T16:22:44.554Z</time></trkpt><trkpt lat="42.3193967" lon="13.2529833"><ele>1265.0</ele><time>2026-05-02T16:22:45.553Z</time></trkpt><trkpt lat="42.3192367" lon="13.2530367"><ele>1265.0</ele><time>2026-05-02T16:22:46.553Z</time></trkpt><trkpt lat="42.3190883" lon="13.2530967"><ele>1265.0</ele><time>2026-05-02T16:22:47.554Z</time></trkpt><trkpt lat="42.318945" lon="13.25316"><ele>1265.0</ele><time>2026-05-02T16:22:48.553Z</time></trkpt><trkpt lat="42.3188067" lon="13.2532133"><ele>1265.0</ele><time>2026-05-02T16:22:49.554Z</time></trkpt><trkpt lat="42.318665" lon="13.2532383"><ele>1257.25</ele><time>2026-05-02T16:22:50.554Z</time></trkpt><trkpt lat="42.3185217" lon="13.2532483"><ele>1249.5</ele><time>2026-05-02T16:22:51.554Z</time></trkpt><trkpt lat="42.3183817" lon="13.2532583"><ele>1241.75</ele><time>2026-05-02T16:22:52.554Z</time></trkpt><trkpt lat="42.318235" lon="13.2533"><ele>1234.0</ele><time>2026-05-02T16:22:53.554Z</time></trkpt><trkpt lat="42.3180833" lon="13.2533783"><ele>1236.6666666666665</ele><time>2026-05-02T16:22:54.553Z</time></trkpt><trkpt lat="42.3179217" lon="13.2534467"><ele>1239.3333333333333</ele><time>2026-05-02T16:22:55.554Z</time></trkpt><trkpt lat="42.3177583" lon="13.2535117"><ele>1242.0</ele><time>2026-05-02T16:22:56.553Z</time></trkpt><trkpt lat="42.3175917" lon="13.2535733"><ele>1242.0</ele><time>2026-05-02T16:22:57.554Z</time></trkpt><trkpt lat="42.3174283" lon="13.25363"><ele>1242.0</ele><time>2026-05-02T16:22:58.553Z</time></trkpt><trkpt lat="42.3172667" lon="13.2536983"><ele>1242.0</ele><time>2026-05-02T16:22:59.553Z</time></trkpt><trkpt lat="42.317105" lon="13.2537767"><ele>1245.3333333333333</ele><time>2026-05-02T16:23:00.554Z</time></trkpt><trkpt lat="42.3169517" lon="13.25386"><ele>1248.6666666666665</ele><time>2026-05-02T16:23:01.554Z</time></trkpt><trkpt lat="42.3167967" lon="13.25394"><ele>1252.0</ele><time>2026-05-02T16:23:02.553Z</time></trkpt><trkpt lat="42.3166517" lon="13.2540267"><ele>1241.5</ele><time>2026-05-02T16:23:03.554Z</time></trkpt><trkpt lat="42.316525" lon="13.2540983"><ele>1231.0</ele><time>2026-05-02T16:23:04.553Z</time></trkpt><trkpt lat="42.3164117" lon="13.2541433"><ele>1220.5</ele><time>2026-05-02T16:23:05.554Z</time></trkpt><trkpt lat="42.3163033" lon="13.25417"><ele>1210.0</ele><time>2026-05-02T16:23:06.553Z</time></trkpt><trkpt lat="42.3161983" lon="13.2541567"><ele>1208.75</ele><time>2026-05-02T16:23:07.553Z</time></trkpt><trkpt lat="42.3160967" lon="13.2540933"><ele>1207.5</ele><time>2026-05-02T16:23:08.553Z</time></trkpt><trkpt lat="42.3159833" lon="13.2540033"><ele>1206.25</ele><time>2026-05-02T16:23:09.553Z</time></trkpt><trkpt lat="42.3158667" lon="13.25392"><ele>1205.0</ele><time>2026-05-02T16:23:10.553Z</time></trkpt><trkpt lat="42.315735" lon="13.2538683"><ele>1205.6</ele><time>2026-05-02T16:23:11.553Z</time></trkpt><trkpt lat="42.3156133" lon="13.2538233"><ele>1206.2</ele><time>2026-05-02T16:23:12.553Z</time></trkpt><trkpt lat="42.3155067" lon="13.2537867"><ele>1206.8</ele><time>2026-05-02T16:23:13.554Z</time></trkpt><trkpt lat="42.3154283" lon="13.2537283"><ele>1207.4</ele><time>2026-05-02T16:23:14.553Z</time></trkpt><trkpt lat="42.3153617" lon="13.25364"><ele>1208.0</ele><time>2026-05-02T16:23:15.554Z</time></trkpt><trkpt lat="42.3153117" lon="13.25352"><ele>1208.0</ele><time>2026-05-02T16:23:16.554Z</time></trkpt><trkpt lat="42.315255" lon="13.2534083"><ele>1208.0</ele><time>2026-05-02T16:23:17.553Z</time></trkpt><trkpt lat="42.3151867" lon="13.2533233"><ele>1208.0</ele><time>2026-05-02T16:23:18.553Z</time></trkpt><trkpt lat="42.3151117" lon="13.253275"><ele>1208.0</ele><time>2026-05-02T16:23:19.553Z</time></trkpt><trkpt lat="42.3150217" lon="13.2532417"><ele>1208.0</ele><time>2026-05-02T16:23:20.553Z</time></trkpt><trkpt lat="42.3149317" lon="13.25321"><ele>1208.0</ele><time>2026-05-02T16:23:21.554Z</time></trkpt><trkpt lat="42.3148517" lon="13.253155"><ele>1208.0</ele><time>2026-05-02T16:23:22.554Z</time></trkpt><trkpt lat="42.3147767" lon="13.25308"><ele>1208.0</ele><time>2026-05-02T16:23:23.554Z</time></trkpt><trkpt lat="42.3147017" lon="13.25302"><ele>1208.0</ele><time>2026-05-02T16:23:24.553Z</time></trkpt><trkpt lat="42.31463" lon="13.2529667"><ele>1208.0</ele><time>2026-05-02T16:23:25.553Z</time></trkpt><trkpt lat="42.3145583" lon="13.25294"><ele>1208.0</ele><time>2026-05-02T16:23:26.554Z</time></trkpt><trkpt lat="42.3144733" lon="13.252955"><ele>1207.0</ele><time>2026-05-02T16:23:27.554Z</time></trkpt><trkpt lat="42.31437" lon="13.2529983"><ele>1206.0</ele><time>2026-05-02T16:23:28.553Z</time></trkpt><trkpt lat="42.3142583" lon="13.2530583"><ele>1205.0</ele><time>2026-05-02T16:23:29.554Z</time></trkpt><trkpt lat="42.3141467" lon="13.2531417"><ele>1204.0</ele><time>2026-05-02T16:23:30.553Z</time></trkpt><trkpt lat="42.3140617" lon="13.2532333"><ele>1204.0</ele><time>2026-05-02T16:23:31.553Z</time></trkpt><trkpt lat="42.3139817" lon="13.2533533"><ele>1204.0</ele><time>2026-05-02T16:23:32.554Z</time></trkpt><trkpt lat="42.31391" lon="13.2534983"><ele>1204.0</ele><time>2026-05-02T16:23:33.553Z</time></trkpt><trkpt lat="42.313835" lon="13.2536433"><ele>1204.0</ele><time>2026-05-02T16:23:34.553Z</time></trkpt><trkpt lat="42.3137517" lon="13.2537783"><ele>1209.75</ele><time>2026-05-02T16:23:35.553Z</time></trkpt><trkpt lat="42.3136833" lon="13.2539167"><ele>1215.5</ele><time>2026-05-02T16:23:36.554Z</time></trkpt><trkpt lat="42.313625" lon="13.2540717"><ele>1221.25</ele><time>2026-05-02T16:23:37.553Z</time></trkpt><trkpt lat="42.3135933" lon="13.25426"><ele>1227.0</ele><time>2026-05-02T16:23:38.553Z</time></trkpt><trkpt lat="42.313565" lon="13.2544617"><ele>1227.0</ele><time>2026-05-02T16:23:39.554Z</time></trkpt><trkpt lat="42.3135317" lon="13.2546583"><ele>1227.0</ele><time>2026-05-02T16:23:40.554Z</time></trkpt><trkpt lat="42.3134983" lon="13.2548417"><ele>1227.0</ele><time>2026-05-02T16:23:41.554Z</time></trkpt><trkpt lat="42.3134617" lon="13.2549967"><ele>1227.0</ele><time>2026-05-02T16:23:42.554Z</time></trkpt><trkpt lat="42.3134233" lon="13.2551167"><ele>1226.2</ele><time>2026-05-02T16:23:43.554Z</time></trkpt><trkpt lat="42.31337" lon="13.2552167"><ele>1225.4</ele><time>2026-05-02T16:23:44.554Z</time></trkpt><trkpt lat="42.3132917" lon="13.2552917"><ele>1224.6</ele><time>2026-05-02T16:23:45.554Z</time></trkpt><trkpt lat="42.3132067" lon="13.255325"><ele>1223.8</ele><time>2026-05-02T16:23:46.553Z</time></trkpt><trkpt lat="42.3131083" lon="13.25532"><ele>1223.0</ele><time>2026-05-02T16:23:47.554Z</time></trkpt><trkpt lat="42.3130017" lon="13.255275"><ele>1223.0</ele><time>2026-05-02T16:23:48.553Z</time></trkpt><trkpt lat="42.3128867" lon="13.255225"><ele>1223.0</ele><time>2026-05-02T16:23:49.554Z</time></trkpt><trkpt lat="42.312775" lon="13.2551717"><ele>1223.0</ele><time>2026-05-02T16:23:50.554Z</time></trkpt><trkpt lat="42.31267" lon="13.2551383"><ele>1223.0</ele><time>2026-05-02T16:23:51.554Z</time></trkpt><trkpt lat="42.3125767" lon="13.255125"><ele>1223.0</ele><time>2026-05-02T16:23:52.554Z</time></trkpt><trkpt lat="42.3124817" lon="13.2551567"><ele>1223.0</ele><time>2026-05-02T16:23:53.553Z</time></trkpt><trkpt lat="42.312395" lon="13.2552183"><ele>1223.0</ele><time>2026-05-02T16:23:54.553Z</time></trkpt><trkpt lat="42.3123267" lon="13.25531"><ele>1223.0</ele><time>2026-05-02T16:23:55.553Z</time></trkpt><trkpt lat="42.31228" lon="13.2554217"><ele>1223.0</ele><time>2026-05-02T16:23:56.554Z</time></trkpt><trkpt lat="42.312265" lon="13.2555583"><ele>1223.0</ele><time>2026-05-02T16:23:57.554Z</time></trkpt><trkpt lat="42.312275" lon="13.2557217"><ele>1222.2</ele><time>2026-05-02T16:23:58.554Z</time></trkpt><trkpt lat="42.3122883" lon="13.2558967"><ele>1221.4</ele><time>2026-05-02T16:23:59.554Z</time></trkpt><trkpt lat="42.3122917" lon="13.2560583"><ele>1220.6000000000001</ele><time>2026-05-02T16:24:00.554Z</time></trkpt><trkpt lat="42.3122867" lon="13.2561867"><ele>1219.8</ele><time>2026-05-02T16:24:01.553Z</time></trkpt><trkpt lat="42.312275" lon="13.2563067"><ele>1219.0</ele><time>2026-05-02T16:24:02.554Z</time></trkpt><trkpt lat="42.31223" lon="13.25643"><ele>1213.8</ele><time>2026-05-02T16:24:03.553Z</time></trkpt><trkpt lat="42.3121617" lon="13.2565317"><ele>1208.6000000000001</ele><time>2026-05-02T16:24:04.554Z</time></trkpt><trkpt lat="42.3120767" lon="13.25661"><ele>1203.4</ele><time>2026-05-02T16:24:05.554Z</time></trkpt><trkpt lat="42.3119833" lon="13.25666"><ele>1198.2</ele><time>2026-05-02T16:24:06.554Z</time></trkpt><trkpt lat="42.3118933" lon="13.25668"><ele>1193.0</ele><time>2026-05-02T16:24:07.554Z</time></trkpt><trkpt lat="42.3117917" lon="13.2566717"><ele>1193.0</ele><time>2026-05-02T16:24:08.554Z</time></trkpt><trkpt lat="42.3116833" lon="13.2566283"><ele>1193.0</ele><time>2026-05-02T16:24:09.553Z</time></trkpt><trkpt lat="42.3115783" lon="13.256565"><ele>1193.0</ele><time>2026-05-02T16:24:10.554Z</time></trkpt><trkpt lat="42.3114883" lon="13.2565083"><ele>1193.0</ele><time>2026-05-02T16:24:11.553Z</time></trkpt><trkpt lat="42.3114017" lon="13.2564817"><ele>1193.0</ele><time>2026-05-02T16:24:12.554Z</time></trkpt><trkpt lat="42.3113067" lon="13.2565033"><ele>1197.25</ele><time>2026-05-02T16:24:13.553Z</time></trkpt><trkpt lat="42.31121" lon="13.2565633"><ele>1201.5</ele><time>2026-05-02T16:24:14.553Z</time></trkpt><trkpt lat="42.3111217" lon="13.2566617"><ele>1205.75</ele><time>2026-05-02T16:24:15.554Z</time></trkpt><trkpt lat="42.31104" lon="13.256795"><ele>1210.0</ele><time>2026-05-02T16:24:16.553Z</time></trkpt><trkpt lat="42.31097" lon="13.2569567"><ele>1210.0</ele><time>2026-05-02T16:24:17.554Z</time></trkpt><trkpt lat="42.3109083" lon="13.2571267"><ele>1210.0</ele><time>2026-05-02T16:24:18.553Z</time></trkpt><trkpt lat="42.3108533" lon="13.257305"><ele>1210.0</ele><time>2026-05-02T16:24:19.553Z</time></trkpt><trkpt lat="42.310795" lon="13.2574617"><ele>1210.0</ele><time>2026-05-02T16:24:20.554Z</time></trkpt><trkpt lat="42.3107367" lon="13.2576033"><ele>1209.4</ele><time>2026-05-02T16:24:21.554Z</time></trkpt><trkpt lat="42.31067" lon="13.2577267"><ele>1208.8</ele><time>2026-05-02T16:24:22.553Z</time></trkpt><trkpt lat="42.3105917" lon="13.2578417"><ele>1208.2</ele><time>2026-05-02T16:24:23.553Z</time></trkpt><trkpt lat="42.3104967" lon="13.2579217"><ele>1207.6</ele><time>2026-05-02T16:24:24.553Z</time></trkpt><trkpt lat="42.310395" lon="13.2579617"><ele>1207.0</ele><time>2026-05-02T16:24:25.553Z</time></trkpt><trkpt lat="42.310285" lon="13.2579717"><ele>1207.0</ele><time>2026-05-02T16:24:26.554Z</time></trkpt><trkpt lat="42.310175" lon="13.257965"><ele>1207.0</ele><time>2026-05-02T16:24:27.554Z</time></trkpt><trkpt lat="42.3100667" lon="13.2579783"><ele>1207.0</ele><time>2026-05-02T16:24:28.554Z</time></trkpt><trkpt lat="42.3099667" lon="13.2580217"><ele>1207.0</ele><time>2026-05-02T16:24:29.554Z</time></trkpt><trkpt lat="42.3098717" lon="13.2581033"><ele>1207.0</ele><time>2026-05-02T16:24:30.554Z</time></trkpt><trkpt lat="42.3097867" lon="13.2582217"><ele>1204.5</ele><time>2026-05-02T16:24:31.553Z</time></trkpt><trkpt lat="42.309715" lon="13.2583717"><ele>1202.0</ele><time>2026-05-02T16:24:32.553Z</time></trkpt><trkpt lat="42.309645" lon="13.2585317"><ele>1199.5</ele><time>2026-05-02T16:24:33.554Z</time></trkpt><trkpt lat="42.3095683" lon="13.2586717"><ele>1197.0</ele><time>2026-05-02T16:24:34.554Z</time></trkpt><trkpt lat="42.309485" lon="13.2587983"><ele>1197.0</ele><time>2026-05-02T16:24:35.554Z</time></trkpt><trkpt lat="42.30939" lon="13.2589033"><ele>1197.0</ele><time>2026-05-02T16:24:36.553Z</time></trkpt><trkpt lat="42.3092867" lon="13.2589967"><ele>1197.0</ele><time>2026-05-02T16:24:37.553Z</time></trkpt><trkpt lat="42.30916" lon="13.2590567"><ele>1197.0</ele><time>2026-05-02T16:24:38.553Z</time></trkpt><trkpt lat="42.3090167" lon="13.259095"><ele>1190.6666666666667</ele><time>2026-05-02T16:24:39.554Z</time></trkpt><trkpt lat="42.30887" lon="13.259145"><ele>1184.3333333333335</ele><time>2026-05-02T16:24:40.553Z</time></trkpt><trkpt lat="42.3087317" lon="13.2592283"><ele>1178.0</ele><time>2026-05-02T16:24:41.554Z</time></trkpt><trkpt lat="42.3085933" lon="13.2593217"><ele>1178.0</ele><time>2026-05-02T16:24:42.553Z</time></trkpt><trkpt lat="42.3084567" lon="13.2594217"><ele>1178.0</ele><time>2026-05-02T16:24:43.553Z</time></trkpt><trkpt lat="42.3083233" lon="13.2595133"><ele>1178.0</ele><time>2026-05-02T16:24:44.553Z</time></trkpt><trkpt lat="42.3082" lon="13.259615"><ele>1178.0</ele><time>2026-05-02T16:24:45.553Z</time></trkpt><trkpt lat="42.30807" lon="13.2597067"><ele>1172.5</ele><time>2026-05-02T16:24:46.553Z</time></trkpt><trkpt lat="42.3079483" lon="13.2597983"><ele>1167.0</ele><time>2026-05-02T16:24:47.553Z</time></trkpt><trkpt lat="42.307835" lon="13.2598833"><ele>1161.5</ele><time>2026-05-02T16:24:48.553Z</time></trkpt><trkpt lat="42.30773" lon="13.2599333"><ele>1156.0</ele><time>2026-05-02T16:24:49.554Z</time></trkpt><trkpt lat="42.3076233" lon="13.2599667"><ele>1156.0</ele><time>2026-05-02T16:24:50.553Z</time></trkpt><trkpt lat="42.3075117" lon="13.25998"><ele>1156.0</ele><time>2026-05-02T16:24:51.554Z</time></trkpt><trkpt lat="42.3074183" lon="13.2599517"><ele>1156.0</ele><time>2026-05-02T16:24:52.554Z</time></trkpt><trkpt lat="42.3073367" lon="13.2598917"><ele>1156.0</ele><time>2026-05-02T16:24:53.553Z</time></trkpt><trkpt lat="42.3072517" lon="13.2598017"><ele>1156.0</ele><time>2026-05-02T16:24:54.553Z</time></trkpt><trkpt lat="42.3071683" lon="13.2596867"><ele>1153.5</ele><time>2026-05-02T16:24:55.553Z</time></trkpt><trkpt lat="42.307085" lon="13.25955"><ele>1151.0</ele><time>2026-05-02T16:24:56.553Z</time></trkpt><trkpt lat="42.3069967" lon="13.2594317"><ele>1148.5</ele><time>2026-05-02T16:24:57.554Z</time></trkpt><trkpt lat="42.3069183" lon="13.2593"><ele>1146.0</ele><time>2026-05-02T16:24:58.554Z</time></trkpt><trkpt lat="42.3068517" lon="13.25915"><ele>1146.0</ele><time>2026-05-02T16:24:59.553Z</time></trkpt><trkpt lat="42.3067933" lon="13.258975"><ele>1146.0</ele><time>2026-05-02T16:25:00.554Z</time></trkpt><trkpt lat="42.306745" lon="13.2587983"><ele>1146.0</ele><time>2026-05-02T16:25:01.554Z</time></trkpt><trkpt lat="42.3066983" lon="13.2586317"><ele>1146.0</ele><time>2026-05-02T16:25:02.553Z</time></trkpt><trkpt lat="42.306645" lon="13.2584683"><ele>1148.25</ele><time>2026-05-02T16:25:03.553Z</time></trkpt><trkpt lat="42.3065867" lon="13.2583267"><ele>1150.5</ele><time>2026-05-02T16:25:04.554Z</time></trkpt><trkpt lat="42.3065183" lon="13.2581917"><ele>1152.75</ele><time>2026-05-02T16:25:05.554Z</time></trkpt><trkpt lat="42.3064417" lon="13.25807"><ele>1155.0</ele><time>2026-05-02T16:25:06.553Z</time></trkpt><trkpt lat="42.3063533" lon="13.2579667"><ele>1157.0</ele><time>2026-05-02T16:25:07.554Z</time></trkpt><trkpt lat="42.3062617" lon="13.2578817"><ele>1159.0</ele><time>2026-05-02T16:25:08.554Z</time></trkpt><trkpt lat="42.306165" lon="13.2578183"><ele>1161.0</ele><time>2026-05-02T16:25:09.554Z</time></trkpt><trkpt lat="42.30604" lon="13.2577817"><ele>1163.0</ele><time>2026-05-02T16:25:10.554Z</time></trkpt><trkpt lat="42.3058983" lon="13.2577717"><ele>1163.0</ele><time>2026-05-02T16:25:11.553Z</time></trkpt><trkpt lat="42.30575" lon="13.2577867"><ele>1163.0</ele><time>2026-05-02T16:25:12.553Z</time></trkpt><trkpt lat="42.3056067" lon="13.2578217"><ele>1163.0</ele><time>2026-05-02T16:25:13.553Z</time></trkpt><trkpt lat="42.3054733" lon="13.257865"><ele>1163.0</ele><time>2026-05-02T16:25:14.553Z</time></trkpt><trkpt lat="42.30535" lon="13.2579"><ele>1161.75</ele><time>2026-05-02T16:25:15.554Z</time></trkpt><trkpt lat="42.3052283" lon="13.2579167"><ele>1160.5</ele><time>2026-05-02T16:25:16.554Z</time></trkpt><trkpt lat="42.3051033" lon="13.257905"><ele>1159.25</ele><time>2026-05-02T16:25:17.553Z</time></trkpt><trkpt lat="42.30497" lon="13.25787"><ele>1158.0</ele><time>2026-05-02T16:25:18.554Z</time></trkpt><trkpt lat="42.3048283" lon="13.2578483"><ele>1160.0</ele><time>2026-05-02T16:25:19.553Z</time></trkpt><trkpt lat="42.3046867" lon="13.2578417"><ele>1162.0</ele><time>2026-05-02T16:25:20.553Z</time></trkpt><trkpt lat="42.30453" lon="13.2578583"><ele>1164.0</ele><time>2026-05-02T16:25:21.554Z</time></trkpt><trkpt lat="42.30436" lon="13.257905"><ele>1164.0</ele><time>2026-05-02T16:25:22.554Z</time></trkpt><trkpt lat="42.3041783" lon="13.2579817"><ele>1164.0</ele><time>2026-05-02T16:25:23.554Z</time></trkpt><trkpt lat="42.304005" lon="13.258045"><ele>1164.0</ele><time>2026-05-02T16:25:24.553Z</time></trkpt><trkpt lat="42.3038433" lon="13.2581067"><ele>1155.25</ele><time>2026-05-02T16:25:25.553Z</time></trkpt><trkpt lat="42.3036917" lon="13.2581667"><ele>1146.5</ele><time>2026-05-02T16:25:26.553Z</time></trkpt><trkpt lat="42.3035567" lon="13.2582367"><ele>1137.75</ele><time>2026-05-02T16:25:27.553Z</time></trkpt><trkpt lat="42.303445" lon="13.25829"><ele>1129.0</ele><time>2026-05-02T16:25:28.554Z</time></trkpt><trkpt lat="42.303345" lon="13.25832"><ele>1129.0</ele><time>2026-05-02T16:25:29.554Z</time></trkpt><trkpt lat="42.30325" lon="13.2583317"><ele>1129.0</ele><time>2026-05-02T16:25:30.554Z</time></trkpt><trkpt lat="42.303155" lon="13.258305"><ele>1129.0</ele><time>2026-05-02T16:25:31.553Z</time></trkpt><trkpt lat="42.303065" lon="13.258235"><ele>1129.0</ele><time>2026-05-02T16:25:32.554Z</time></trkpt><trkpt lat="42.302975" lon="13.2581267"><ele>1129.0</ele><time>2026-05-02T16:25:33.554Z</time></trkpt><trkpt lat="42.3028783" lon="13.258005"><ele>1130.0</ele><time>2026-05-02T16:25:34.554Z</time></trkpt><trkpt lat="42.30278" lon="13.2578717"><ele>1131.0</ele><time>2026-05-02T16:25:35.554Z</time></trkpt><trkpt lat="42.30268" lon="13.2577433"><ele>1132.0</ele><time>2026-05-02T16:25:36.553Z</time></trkpt><trkpt lat="42.3025783" lon="13.2576167"><ele>1133.0</ele><time>2026-05-02T16:25:37.554Z</time></trkpt><trkpt lat="42.3024817" lon="13.2574967"><ele>1133.0</ele><time>2026-05-02T16:25:38.554Z</time></trkpt><trkpt lat="42.3023817" lon="13.25739"><ele>1133.0</ele><time>2026-05-02T16:25:39.554Z</time></trkpt><trkpt lat="42.30228" lon="13.25729"><ele>1133.0</ele><time>2026-05-02T16:25:40.554Z</time></trkpt><trkpt lat="42.3021717" lon="13.2571967"><ele>1133.0</ele><time>2026-05-02T16:25:41.553Z</time></trkpt><trkpt lat="42.302055" lon="13.257105"><ele>1132.25</ele><time>2026-05-02T16:25:42.553Z</time></trkpt><trkpt lat="42.3019333" lon="13.257025"><ele>1131.5</ele><time>2026-05-02T16:25:43.553Z</time></trkpt><trkpt lat="42.301815" lon="13.2569433"><ele>1130.75</ele><time>2026-05-02T16:25:44.553Z</time></trkpt><trkpt lat="42.301705" lon="13.2568683"><ele>1130.0</ele><time>2026-05-02T16:25:45.554Z</time></trkpt><trkpt lat="42.30161" lon="13.2568133"><ele>1130.0</ele><time>2026-05-02T16:25:46.553Z</time></trkpt><trkpt lat="42.30152" lon="13.256785"><ele>1130.0</ele><time>2026-05-02T16:25:47.554Z</time></trkpt><trkpt lat="42.3014367" lon="13.2568"><ele>1130.0</ele><time>2026-05-02T16:25:48.554Z</time></trkpt><trkpt lat="42.301365" lon="13.25685"><ele>1130.0</ele><time>2026-05-02T16:25:49.553Z</time></trkpt><trkpt lat="42.3013017" lon="13.25694"><ele>1130.0</ele><time>2026-05-02T16:25:50.554Z</time></trkpt><trkpt lat="42.3012417" lon="13.25706"><ele>1135.25</ele><time>2026-05-02T16:25:51.554Z</time></trkpt><trkpt lat="42.3011867" lon="13.2572067"><ele>1140.5</ele><time>2026-05-02T16:25:52.554Z</time></trkpt><trkpt lat="42.3011383" lon="13.257365"><ele>1145.75</ele><time>2026-05-02T16:25:53.554Z</time></trkpt><trkpt lat="42.30111" lon="13.2575367"><ele>1151.0</ele><time>2026-05-02T16:25:54.553Z</time></trkpt><trkpt lat="42.3010883" lon="13.2577217"><ele>1151.0</ele><time>2026-05-02T16:25:55.554Z</time></trkpt><trkpt lat="42.301065" lon="13.2579017"><ele>1151.0</ele><time>2026-05-02T16:25:56.554Z</time></trkpt><trkpt lat="42.3010517" lon="13.25808"><ele>1151.0</ele><time>2026-05-02T16:25:57.554Z</time></trkpt><trkpt lat="42.301035" lon="13.258255"><ele>1151.0</ele><time>2026-05-02T16:25:58.553Z</time></trkpt><trkpt lat="42.3010167" lon="13.2584317"><ele>1148.0</ele><time>2026-05-02T16:25:59.553Z</time></trkpt><trkpt lat="42.3009983" lon="13.2586017"><ele>1145.0</ele><time>2026-05-02T16:26:00.553Z</time></trkpt><trkpt lat="42.3009783" lon="13.2587867"><ele>1142.0</ele><time>2026-05-02T16:26:01.553Z</time></trkpt><trkpt lat="42.3009717" lon="13.25897"><ele>1139.0</ele><time>2026-05-02T16:26:02.554Z</time></trkpt><trkpt lat="42.3009783" lon="13.259155"><ele>1138.0</ele><time>2026-05-02T16:26:03.554Z</time></trkpt><trkpt lat="42.3009967" lon="13.2593367"><ele>1137.0</ele><time>2026-05-02T16:26:04.553Z</time></trkpt><trkpt lat="42.3010117" lon="13.2595167"><ele>1136.0</ele><time>2026-05-02T16:26:05.554Z</time></trkpt><trkpt lat="42.3010317" lon="13.2597033"><ele>1135.0</ele><time>2026-05-02T16:26:06.553Z</time></trkpt><trkpt lat="42.301055" lon="13.2598983"><ele>1134.25</ele><time>2026-05-02T16:26:07.553Z</time></trkpt><trkpt lat="42.30108" lon="13.2600867"><ele>1133.5</ele><time>2026-05-02T16:26:08.553Z</time></trkpt><trkpt lat="42.3011067" lon="13.2602717"><ele>1132.75</ele><time>2026-05-02T16:26:09.553Z</time></trkpt><trkpt lat="42.3011317" lon="13.2604417"><ele>1132.0</ele><time>2026-05-02T16:26:10.553Z</time></trkpt><trkpt lat="42.301155" lon="13.260595"><ele>1129.4</ele><time>2026-05-02T16:26:11.553Z</time></trkpt><trkpt lat="42.3011633" lon="13.26074"><ele>1126.8000000000002</ele><time>2026-05-02T16:26:12.554Z</time></trkpt><trkpt lat="42.3011567" lon="13.26087"><ele>1124.2</ele><time>2026-05-02T16:26:13.553Z</time></trkpt><trkpt lat="42.30113" lon="13.2609783"><ele>1121.6000000000001</ele><time>2026-05-02T16:26:14.554Z</time></trkpt><trkpt lat="42.3010917" lon="13.2610733"><ele>1119.0</ele><time>2026-05-02T16:26:15.553Z</time></trkpt><trkpt lat="42.3010217" lon="13.2611567"><ele>1119.0</ele><time>2026-05-02T16:26:16.553Z</time></trkpt><trkpt lat="42.3009283" lon="13.2612417"><ele>1119.0</ele><time>2026-05-02T16:26:17.553Z</time></trkpt><trkpt lat="42.300825" lon="13.2613217"><ele>1119.0</ele><time>2026-05-02T16:26:18.553Z</time></trkpt><trkpt lat="42.30072" lon="13.2613867"><ele>1119.0</ele><time>2026-05-02T16:26:19.554Z</time></trkpt><trkpt lat="42.3006117" lon="13.2614367"><ele>1117.6000000000001</ele><time>2026-05-02T16:26:20.554Z</time></trkpt><trkpt lat="42.3005133" lon="13.26148"><ele>1116.2</ele><time>2026-05-02T16:26:21.554Z</time></trkpt><trkpt lat="42.300425" lon="13.2615533"><ele>1114.8000000000002</ele><time>2026-05-02T16:26:22.553Z</time></trkpt><trkpt lat="42.3003467" lon="13.2616567"><ele>1113.4</ele><time>2026-05-02T16:26:23.553Z</time></trkpt><trkpt lat="42.3002817" lon="13.26178"><ele>1112.0</ele><time>2026-05-02T16:26:24.553Z</time></trkpt><trkpt lat="42.3002283" lon="13.26192"><ele>1112.0</ele><time>2026-05-02T16:26:25.553Z</time></trkpt><trkpt lat="42.300175" lon="13.26206"><ele>1112.0</ele><time>2026-05-02T16:26:26.552Z</time></trkpt><trkpt lat="42.3001183" lon="13.26216"><ele>1112.0</ele><time>2026-05-02T16:26:27.553Z</time></trkpt><trkpt lat="42.3000433" lon="13.2622317"><ele>1112.0</ele><time>2026-05-02T16:26:28.553Z</time></trkpt><trkpt lat="42.29995" lon="13.26229"><ele>1112.0</ele><time>2026-05-02T16:26:29.553Z</time></trkpt><trkpt lat="42.29985" lon="13.2623667"><ele>1106.0</ele><time>2026-05-02T16:26:30.552Z</time></trkpt><trkpt lat="42.29975" lon="13.2624567"><ele>1100.0</ele><time>2026-05-02T16:26:31.553Z</time></trkpt><trkpt lat="42.299655" lon="13.262545"><ele>1094.0</ele><time>2026-05-02T16:26:32.552Z</time></trkpt><trkpt lat="42.2995733" lon="13.2626217"><ele>1088.0</ele><time>2026-05-02T16:26:33.552Z</time></trkpt><trkpt lat="42.2994933" lon="13.2626733"><ele>1082.0</ele><time>2026-05-02T16:26:34.553Z</time></trkpt><trkpt lat="42.299405" lon="13.2626883"><ele>1082.0</ele><time>2026-05-02T16:26:35.552Z</time></trkpt><trkpt lat="42.2993333" lon="13.2626517"><ele>1082.0</ele><time>2026-05-02T16:26:36.553Z</time></trkpt><trkpt lat="42.2992667" lon="13.2625683"><ele>1082.0</ele><time>2026-05-02T16:26:37.553Z</time></trkpt><trkpt lat="42.29921" lon="13.2624417"><ele>1082.0</ele><time>2026-05-02T16:26:38.552Z</time></trkpt><trkpt lat="42.2991583" lon="13.2622833"><ele>1082.0</ele><time>2026-05-02T16:26:39.553Z</time></trkpt><trkpt lat="42.299115" lon="13.2621117"><ele>1085.0</ele><time>2026-05-02T16:26:40.553Z</time></trkpt><trkpt lat="42.299075" lon="13.2619417"><ele>1088.0</ele><time>2026-05-02T16:26:41.553Z</time></trkpt><trkpt lat="42.29904" lon="13.2617933"><ele>1091.0</ele><time>2026-05-02T16:26:42.552Z</time></trkpt><trkpt lat="42.2990033" lon="13.2616717"><ele>1094.0</ele><time>2026-05-02T16:26:43.552Z</time></trkpt><trkpt lat="42.29896" lon="13.2615783"><ele>1097.0</ele><time>2026-05-02T16:26:44.553Z</time></trkpt><trkpt lat="42.29891" lon="13.261505"><ele>1097.0</ele><time>2026-05-02T16:26:45.553Z</time></trkpt><trkpt lat="42.29885" lon="13.2614617"><ele>1097.0</ele><time>2026-05-02T16:26:46.552Z</time></trkpt><trkpt lat="42.2987683" lon="13.2614783"><ele>1097.0</ele><time>2026-05-02T16:26:47.553Z</time></trkpt><trkpt lat="42.2986883" lon="13.2615417"><ele>1097.0</ele><time>2026-05-02T16:26:48.552Z</time></trkpt><trkpt lat="42.2986033" lon="13.261645"><ele>1097.0</ele><time>2026-05-02T16:26:49.553Z</time></trkpt><trkpt lat="42.298515" lon="13.2617483"><ele>1097.0</ele><time>2026-05-02T16:26:50.553Z</time></trkpt><trkpt lat="42.298425" lon="13.2618517"><ele>1097.0</ele><time>2026-05-02T16:26:51.552Z</time></trkpt><trkpt lat="42.2983183" lon="13.2619217"><ele>1097.0</ele><time>2026-05-02T16:26:52.552Z</time></trkpt><trkpt lat="42.298215" lon="13.2619583"><ele>1097.0</ele><time>2026-05-02T16:26:53.552Z</time></trkpt><trkpt lat="42.2981167" lon="13.2619917"><ele>1097.0</ele><time>2026-05-02T16:26:54.552Z</time></trkpt><trkpt lat="42.2980267" lon="13.2620483"><ele>1096.6</ele><time>2026-05-02T16:26:55.552Z</time></trkpt><trkpt lat="42.2979517" lon="13.2621183"><ele>1096.2</ele><time>2026-05-02T16:26:56.553Z</time></trkpt><trkpt lat="42.297895" lon="13.2622183"><ele>1095.8</ele><time>2026-05-02T16:26:57.552Z</time></trkpt><trkpt lat="42.297865" lon="13.262335"><ele>1095.4</ele><time>2026-05-02T16:26:58.552Z</time></trkpt><trkpt lat="42.29786" lon="13.2624883"><ele>1095.0</ele><time>2026-05-02T16:26:59.553Z</time></trkpt><trkpt lat="42.29786" lon="13.2626367"><ele>1095.0</ele><time>2026-05-02T16:27:00.553Z</time></trkpt><trkpt lat="42.297845" lon="13.26277"><ele>1095.0</ele><time>2026-05-02T16:27:01.552Z</time></trkpt><trkpt lat="42.29782" lon="13.2629033"><ele>1095.0</ele><time>2026-05-02T16:27:02.552Z</time></trkpt><trkpt lat="42.297765" lon="13.2630217"><ele>1095.0</ele><time>2026-05-02T16:27:03.553Z</time></trkpt><trkpt lat="42.29772" lon="13.26312"><ele>1095.0</ele><time>2026-05-02T16:27:04.553Z</time></trkpt><trkpt lat="42.2976517" lon="13.2631833"><ele>1093.4</ele><time>2026-05-02T16:27:05.552Z</time></trkpt><trkpt lat="42.2975567" lon="13.26322"><ele>1091.8</ele><time>2026-05-02T16:27:06.553Z</time></trkpt><trkpt lat="42.2974433" lon="13.2632283"><ele>1090.2</ele><time>2026-05-02T16:27:07.553Z</time></trkpt><trkpt lat="42.2973267" lon="13.2632083"><ele>1088.6</ele><time>2026-05-02T16:27:08.552Z</time></trkpt><trkpt lat="42.2972233" lon="13.263175"><ele>1087.0</ele><time>2026-05-02T16:27:09.553Z</time></trkpt><trkpt lat="42.2971283" lon="13.2631467"><ele>1087.0</ele><time>2026-05-02T16:27:10.552Z</time></trkpt><trkpt lat="42.2970417" lon="13.2631533"><ele>1087.0</ele><time>2026-05-02T16:27:11.552Z</time></trkpt><trkpt lat="42.2969567" lon="13.2632033"><ele>1087.0</ele><time>2026-05-02T16:27:12.553Z</time></trkpt><trkpt lat="42.2968767" lon="13.263295"><ele>1087.0</ele><time>2026-05-02T16:27:13.552Z</time></trkpt><trkpt lat="42.2968033" lon="13.263425"><ele>1087.0</ele><time>2026-05-02T16:27:14.552Z</time></trkpt><trkpt lat="42.2967567" lon="13.2635517"><ele>1087.0</ele><time>2026-05-02T16:27:15.553Z</time></trkpt><trkpt lat="42.2967333" lon="13.2636867"><ele>1087.0</ele><time>2026-05-02T16:27:16.553Z</time></trkpt><trkpt lat="42.2967467" lon="13.2638333"><ele>1087.0</ele><time>2026-05-02T16:27:17.553Z</time></trkpt><trkpt lat="42.2967633" lon="13.2639733"><ele>1087.0</ele><time>2026-05-02T16:27:18.553Z</time></trkpt><trkpt lat="42.29676" lon="13.2641017"><ele>1087.0</ele><time>2026-05-02T16:27:19.552Z</time></trkpt><trkpt lat="42.2967333" lon="13.2642133"><ele>1083.8</ele><time>2026-05-02T16:27:20.552Z</time></trkpt><trkpt lat="42.2966667" lon="13.2643233"><ele>1080.6</ele><time>2026-05-02T16:27:21.552Z</time></trkpt><trkpt lat="42.2965883" lon="13.26443"><ele>1077.3999999999999</ele><time>2026-05-02T16:27:22.553Z</time></trkpt><trkpt lat="42.2965267" lon="13.26454"><ele>1074.2</ele><time>2026-05-02T16:27:23.552Z</time></trkpt><trkpt lat="42.2964833" lon="13.264655"><ele>1071.0</ele><time>2026-05-02T16:27:24.553Z</time></trkpt><trkpt lat="42.2964717" lon="13.2647833"><ele>1068.0</ele><time>2026-05-02T16:27:25.553Z</time></trkpt><trkpt lat="42.2964717" lon="13.2649167"><ele>1065.0</ele><time>2026-05-02T16:27:26.553Z</time></trkpt><trkpt lat="42.2964717" lon="13.2650283"><ele>1062.0</ele><time>2026-05-02T16:27:27.552Z</time></trkpt><trkpt lat="42.29647" lon="13.2651183"><ele>1059.0</ele><time>2026-05-02T16:27:28.553Z</time></trkpt><trkpt lat="42.29645" lon="13.2652617"><ele>1056.0</ele><time>2026-05-02T16:27:30.553Z</time></trkpt><trkpt lat="42.296455" lon="13.265395"><ele>1056.0</ele><time>2026-05-02T16:27:32.553Z</time></trkpt><trkpt lat="42.2964317" lon="13.2655833"><ele>1056.0</ele><time>2026-05-02T16:27:34.552Z</time></trkpt><trkpt lat="42.2963967" lon="13.2657133"><ele>1056.0</ele><time>2026-05-02T16:27:35.553Z</time></trkpt><trkpt lat="42.2963567" lon="13.2658417"><ele>1056.0</ele><time>2026-05-02T16:27:36.552Z</time></trkpt><trkpt lat="42.2963217" lon="13.265955"><ele>1056.0</ele><time>2026-05-02T16:27:37.553Z</time></trkpt><trkpt lat="42.2963" lon="13.266045"><ele>1054.0</ele><time>2026-05-02T16:27:38.552Z</time></trkpt><trkpt lat="42.29634" lon="13.26615"><ele>1052.0</ele><time>2026-05-02T16:27:40.553Z</time></trkpt><trkpt lat="42.2964067" lon="13.266145"><ele>1050.0</ele><time>2026-05-02T16:27:41.553Z</time></trkpt><trkpt lat="42.2964983" lon="13.2660983"><ele>1048.0</ele><time>2026-05-02T16:27:42.552Z</time></trkpt><trkpt lat="42.296605" lon="13.266035"><ele>1046.0</ele><time>2026-05-02T16:27:43.552Z</time></trkpt><trkpt lat="42.296715" lon="13.26599"><ele>1046.0</ele><time>2026-05-02T16:27:44.552Z</time></trkpt><trkpt lat="42.2968167" lon="13.2659617"><ele>1046.0</ele><time>2026-05-02T16:27:45.553Z</time></trkpt><trkpt lat="42.29691" lon="13.2659483"><ele>1046.0</ele><time>2026-05-02T16:27:46.552Z</time></trkpt><trkpt lat="42.2969967" lon="13.2659533"><ele>1046.0</ele><time>2026-05-02T16:27:47.553Z</time></trkpt><trkpt lat="42.297075" lon="13.2659967"><ele>1046.0</ele><time>2026-05-02T16:27:48.552Z</time></trkpt><trkpt lat="42.297145" lon="13.266075"><ele>1046.0</ele><time>2026-05-02T16:27:49.552Z</time></trkpt><trkpt lat="42.2971933" lon="13.2661683"><ele>1046.0</ele><time>2026-05-02T16:27:50.552Z</time></trkpt><trkpt lat="42.297215" lon="13.2662583"><ele>1046.0</ele><time>2026-05-02T16:27:51.552Z</time></trkpt><trkpt lat="42.297155" lon="13.26637"><ele>1046.0</ele><time>2026-05-02T16:27:53.552Z</time></trkpt><trkpt lat="42.2970817" lon="13.266405"><ele>1046.0</ele><time>2026-05-02T16:27:54.553Z</time></trkpt><trkpt lat="42.2969917" lon="13.2664283"><ele>1046.0</ele><time>2026-05-02T16:27:55.552Z</time></trkpt><trkpt lat="42.2969083" lon="13.2664783"><ele>1042.25</ele><time>2026-05-02T16:27:56.552Z</time></trkpt><trkpt lat="42.2968317" lon="13.2665667"><ele>1038.5</ele><time>2026-05-02T16:27:57.553Z</time></trkpt><trkpt lat="42.2967617" lon="13.2666967"><ele>1034.75</ele><time>2026-05-02T16:27:58.553Z</time></trkpt><trkpt lat="42.296705" lon="13.2668333"><ele>1031.0</ele><time>2026-05-02T16:27:59.553Z</time></trkpt><trkpt lat="42.2966483" lon="13.2669783"><ele>1031.0</ele><time>2026-05-02T16:28:00.553Z</time></trkpt><trkpt lat="42.296585" lon="13.2671267"><ele>1031.0</ele><time>2026-05-02T16:28:01.553Z</time></trkpt><trkpt lat="42.29652" lon="13.2672817"><ele>1031.0</ele><time>2026-05-02T16:28:02.552Z</time></trkpt><trkpt lat="42.296465" lon="13.2674367"><ele>1031.0</ele><time>2026-05-02T16:28:03.552Z</time></trkpt><trkpt lat="42.2964233" lon="13.2675983"><ele>1033.75</ele><time>2026-05-02T16:28:04.552Z</time></trkpt><trkpt lat="42.2963833" lon="13.2677583"><ele>1036.5</ele><time>2026-05-02T16:28:05.552Z</time></trkpt><trkpt lat="42.2963583" lon="13.2679367"><ele>1039.25</ele><time>2026-05-02T16:28:06.553Z</time></trkpt><trkpt lat="42.296345" lon="13.26812"><ele>1042.0</ele><time>2026-05-02T16:28:07.553Z</time></trkpt><trkpt lat="42.2963233" lon="13.268295"><ele>1036.25</ele><time>2026-05-02T16:28:08.553Z</time></trkpt><trkpt lat="42.2963017" lon="13.2684667"><ele>1030.5</ele><time>2026-05-02T16:28:09.553Z</time></trkpt><trkpt lat="42.2962633" lon="13.268635"><ele>1024.75</ele><time>2026-05-02T16:28:10.553Z</time></trkpt><trkpt lat="42.2962133" lon="13.2687983"><ele>1019.0</ele><time>2026-05-02T16:28:11.553Z</time></trkpt><trkpt lat="42.2961533" lon="13.268955"><ele>1015.6</ele><time>2026-05-02T16:28:12.552Z</time></trkpt><trkpt lat="42.29609" lon="13.2691"><ele>1012.2</ele><time>2026-05-02T16:28:13.552Z</time></trkpt><trkpt lat="42.2960267" lon="13.2692283"><ele>1008.8000000000001</ele><time>2026-05-02T16:28:14.553Z</time></trkpt><trkpt lat="42.2959767" lon="13.2693383"><ele>1005.4000000000001</ele><time>2026-05-02T16:28:15.552Z</time></trkpt><trkpt lat="42.2959433" lon="13.2694217"><ele>1002.0</ele><time>2026-05-02T16:28:16.553Z</time></trkpt><trkpt lat="42.2959833" lon="13.26956"><ele>1002.0</ele><time>2026-05-02T16:28:18.552Z</time></trkpt><trkpt lat="42.296055" lon="13.2695683"><ele>1002.0</ele><time>2026-05-02T16:28:19.552Z</time></trkpt><trkpt lat="42.296135" lon="13.2695417"><ele>1002.0</ele><time>2026-05-02T16:28:20.553Z</time></trkpt><trkpt lat="42.296215" lon="13.2694833"><ele>1002.0</ele><time>2026-05-02T16:28:21.552Z</time></trkpt><trkpt lat="42.296315" lon="13.269405"><ele>1002.0</ele><time>2026-05-02T16:28:22.553Z</time></trkpt><trkpt lat="42.2964233" lon="13.26933"><ele>997.6</ele><time>2026-05-02T16:28:23.552Z</time></trkpt><trkpt lat="42.2965183" lon="13.2692617"><ele>993.2</ele><time>2026-05-02T16:28:24.552Z</time></trkpt><trkpt lat="42.2966117" lon="13.2692133"><ele>988.8</ele><time>2026-05-02T16:28:25.553Z</time></trkpt><trkpt lat="42.2966933" lon="13.269175"><ele>984.4</ele><time>2026-05-02T16:28:26.552Z</time></trkpt><trkpt lat="42.2967633" lon="13.2691683"><ele>980.0</ele><time>2026-05-02T16:28:27.553Z</time></trkpt><trkpt lat="42.296855" lon="13.26926"><ele>980.0</ele><time>2026-05-02T16:28:29.552Z</time></trkpt><trkpt lat="42.296885" lon="13.2693733"><ele>980.0</ele><time>2026-05-02T16:28:30.553Z</time></trkpt><trkpt lat="42.296915" lon="13.2695133"><ele>980.0</ele><time>2026-05-02T16:28:31.553Z</time></trkpt><trkpt lat="42.2969433" lon="13.2696683"><ele>980.0</ele><time>2026-05-02T16:28:32.552Z</time></trkpt><trkpt lat="42.2969717" lon="13.269835"><ele>980.0</ele><time>2026-05-02T16:28:33.553Z</time></trkpt><trkpt lat="42.29699" lon="13.27001"><ele>978.75</ele><time>2026-05-02T16:28:34.553Z</time></trkpt><trkpt lat="42.2970017" lon="13.2701817"><ele>977.5</ele><time>2026-05-02T16:28:35.552Z</time></trkpt><trkpt lat="42.2970183" lon="13.2703583"><ele>976.25</ele><time>2026-05-02T16:28:36.552Z</time></trkpt><trkpt lat="42.2970517" lon="13.2705283"><ele>975.0</ele><time>2026-05-02T16:28:37.552Z</time></trkpt><trkpt lat="42.2970867" lon="13.2706983"><ele>972.25</ele><time>2026-05-02T16:28:38.552Z</time></trkpt><trkpt lat="42.2971367" lon="13.270865"><ele>969.5</ele><time>2026-05-02T16:28:39.552Z</time></trkpt><trkpt lat="42.2971917" lon="13.2710283"><ele>966.75</ele><time>2026-05-02T16:28:40.552Z</time></trkpt><trkpt lat="42.297255" lon="13.271185"><ele>964.0</ele><time>2026-05-02T16:28:41.553Z</time></trkpt><trkpt lat="42.2973183" lon="13.2713367"><ele>960.0</ele><time>2026-05-02T16:28:42.552Z</time></trkpt><trkpt lat="42.2973983" lon="13.2714717"><ele>956.0</ele><time>2026-05-02T16:28:43.552Z</time></trkpt><trkpt lat="42.297505" lon="13.2715883"><ele>952.0</ele><time>2026-05-02T16:28:44.553Z</time></trkpt><trkpt lat="42.2976017" lon="13.2717117"><ele>948.0</ele><time>2026-05-02T16:28:45.552Z</time></trkpt><trkpt lat="42.2976917" lon="13.2718133"><ele>948.0</ele><time>2026-05-02T16:28:46.553Z</time></trkpt><trkpt lat="42.29777" lon="13.2718883"><ele>948.0</ele><time>2026-05-02T16:28:47.552Z</time></trkpt><trkpt lat="42.2978467" lon="13.271925"><ele>948.0</ele><time>2026-05-02T16:28:48.553Z</time></trkpt><trkpt lat="42.297915" lon="13.2719117"><ele>948.0</ele><time>2026-05-02T16:28:49.553Z</time></trkpt><trkpt lat="42.297975" lon="13.271855"><ele>948.0</ele><time>2026-05-02T16:28:50.553Z</time></trkpt><trkpt lat="42.29803" lon="13.2717767"><ele>948.0</ele><time>2026-05-02T16:28:51.553Z</time></trkpt><trkpt lat="42.2980833" lon="13.27164"><ele>944.4</ele><time>2026-05-02T16:28:52.552Z</time></trkpt><trkpt lat="42.29813" lon="13.2714917"><ele>940.8</ele><time>2026-05-02T16:28:53.553Z</time></trkpt><trkpt lat="42.2981733" lon="13.271375"><ele>937.2</ele><time>2026-05-02T16:28:54.553Z</time></trkpt><trkpt lat="42.2982167" lon="13.2713067"><ele>933.6</ele><time>2026-05-02T16:28:55.553Z</time></trkpt><trkpt lat="42.298335" lon="13.2713117"><ele>930.0</ele><time>2026-05-02T16:28:57.552Z</time></trkpt><trkpt lat="42.29841" lon="13.2713883"><ele>930.0</ele><time>2026-05-02T16:28:58.553Z</time></trkpt><trkpt lat="42.2984933" lon="13.2715"><ele>930.0</ele><time>2026-05-02T16:28:59.553Z</time></trkpt><trkpt lat="42.298575" lon="13.2716383"><ele>930.0</ele><time>2026-05-02T16:29:00.552Z</time></trkpt><trkpt lat="42.2986467" lon="13.271785"><ele>930.0</ele><time>2026-05-02T16:29:01.553Z</time></trkpt><trkpt lat="42.298715" lon="13.27193"><ele>930.0</ele><time>2026-05-02T16:29:02.553Z</time></trkpt><trkpt lat="42.2987833" lon="13.272055"><ele>930.0</ele><time>2026-05-02T16:29:03.553Z</time></trkpt><trkpt lat="42.2988517" lon="13.2721567"><ele>930.0</ele><time>2026-05-02T16:29:04.552Z</time></trkpt><trkpt lat="42.2989233" lon="13.272225"><ele>930.0</ele><time>2026-05-02T16:29:05.552Z</time></trkpt><trkpt lat="42.299015" lon="13.2722683"><ele>930.0</ele><time>2026-05-02T16:29:06.553Z</time></trkpt><trkpt lat="42.29913" lon="13.2723017"><ele>925.75</ele><time>2026-05-02T16:29:07.553Z</time></trkpt><trkpt lat="42.2992633" lon="13.2723117"><ele>921.5</ele><time>2026-05-02T16:29:08.553Z</time></trkpt><trkpt lat="42.2994" lon="13.2723333"><ele>917.25</ele><time>2026-05-02T16:29:09.553Z</time></trkpt><trkpt lat="42.2995333" lon="13.2723683"><ele>913.0</ele><time>2026-05-02T16:29:10.553Z</time></trkpt><trkpt lat="42.2996633" lon="13.2724167"><ele>909.25</ele><time>2026-05-02T16:29:11.552Z</time></trkpt><trkpt lat="42.29979" lon="13.272465"><ele>905.5</ele><time>2026-05-02T16:29:12.553Z</time></trkpt><trkpt lat="42.299915" lon="13.27252"><ele>901.75</ele><time>2026-05-02T16:29:13.552Z</time></trkpt><trkpt lat="42.3000367" lon="13.2725733"><ele>898.0</ele><time>2026-05-02T16:29:14.553Z</time></trkpt><trkpt lat="42.3001467" lon="13.2726267"><ele>898.0</ele><time>2026-05-02T16:29:15.552Z</time></trkpt><trkpt lat="42.30023" lon="13.2726783"><ele>898.0</ele><time>2026-05-02T16:29:16.552Z</time></trkpt><trkpt lat="42.3002817" lon="13.2727383"><ele>898.0</ele><time>2026-05-02T16:29:17.553Z</time></trkpt><trkpt lat="42.3003183" lon="13.2728883"><ele>898.0</ele><time>2026-05-02T16:29:19.552Z</time></trkpt><trkpt lat="42.3002767" lon="13.27307"><ele>898.0</ele><time>2026-05-02T16:29:21.553Z</time></trkpt><trkpt lat="42.30027" lon="13.2731867"><ele>896.5</ele><time>2026-05-02T16:29:22.553Z</time></trkpt><trkpt lat="42.300285" lon="13.2733083"><ele>895.0</ele><time>2026-05-02T16:29:23.553Z</time></trkpt><trkpt lat="42.30035" lon="13.2734617"><ele>893.5</ele><time>2026-05-02T16:29:24.553Z</time></trkpt><trkpt lat="42.3004217" lon="13.2736283"><ele>892.0</ele><time>2026-05-02T16:29:25.552Z</time></trkpt><trkpt lat="42.300485" lon="13.2737917"><ele>890.5</ele><time>2026-05-02T16:29:26.552Z</time></trkpt><trkpt lat="42.3005467" lon="13.2739533"><ele>889.0</ele><time>2026-05-02T16:29:27.553Z</time></trkpt><trkpt lat="42.300605" lon="13.2741167"><ele>887.5</ele><time>2026-05-02T16:29:28.553Z</time></trkpt><trkpt lat="42.3006667" lon="13.2742783"><ele>886.0</ele><time>2026-05-02T16:29:29.553Z</time></trkpt><trkpt lat="42.3007283" lon="13.2744433"><ele>885.4</ele><time>2026-05-02T16:29:30.553Z</time></trkpt><trkpt lat="42.3007933" lon="13.27458"><ele>884.8</ele><time>2026-05-02T16:29:31.553Z</time></trkpt><trkpt lat="42.30084" lon="13.2746917"><ele>884.1999999999999</ele><time>2026-05-02T16:29:32.553Z</time></trkpt><trkpt lat="42.3008733" lon="13.2747867"><ele>883.5999999999999</ele><time>2026-05-02T16:29:33.552Z</time></trkpt><trkpt lat="42.3009067" lon="13.27486"><ele>883.0</ele><time>2026-05-02T16:29:34.552Z</time></trkpt><trkpt lat="42.3009817" lon="13.2749917"><ele>880.0</ele><time>2026-05-02T16:29:41.553Z</time></trkpt><trkpt lat="42.3010733" lon="13.2751133"><ele>877.0</ele><time>2026-05-02T16:29:43.553Z</time></trkpt><trkpt lat="42.3011267" lon="13.2752"><ele>874.0</ele><time>2026-05-02T16:29:44.553Z</time></trkpt><trkpt lat="42.3011783" lon="13.2753017"><ele>871.0</ele><time>2026-05-02T16:29:45.553Z</time></trkpt><trkpt lat="42.3012233" lon="13.2754"><ele>868.0</ele><time>2026-05-02T16:29:46.552Z</time></trkpt><trkpt lat="42.30127" lon="13.275485"><ele>867.9999999999999</ele><time>2026-05-02T16:29:47.553Z</time></trkpt><trkpt lat="42.3013133" lon="13.2755667"><ele>868.0</ele><time>2026-05-02T16:29:48.553Z</time></trkpt><trkpt lat="42.30137" lon="13.27564"><ele>868.0</ele><time>2026-05-02T16:29:49.552Z</time></trkpt><trkpt lat="42.3014133" lon="13.27572"><ele>868.0</ele><time>2026-05-02T16:29:50.552Z</time></trkpt><trkpt lat="42.3014767" lon="13.2758217"><ele>867.9999999999999</ele><time>2026-05-02T16:29:52.552Z</time></trkpt><trkpt lat="42.3015417" lon="13.275815"><ele>868.0</ele><time>2026-05-02T16:29:54.553Z</time></trkpt><trkpt lat="42.3016283" lon="13.27565"><ele>865.8</ele><time>2026-05-02T16:29:56.553Z</time></trkpt><trkpt lat="42.30168" lon="13.27553"><ele>863.5999999999999</ele><time>2026-05-02T16:29:57.552Z</time></trkpt><trkpt lat="42.30173" lon="13.2754117"><ele>861.4000000000001</ele><time>2026-05-02T16:29:58.552Z</time></trkpt><trkpt lat="42.3017717" lon="13.2753183"><ele>859.2</ele><time>2026-05-02T16:29:59.553Z</time></trkpt><trkpt lat="42.3018367" lon="13.2752267"><ele>857.0</ele><time>2026-05-02T16:30:01.553Z</time></trkpt><trkpt lat="42.301895" lon="13.275295"><ele>857.0</ele><time>2026-05-02T16:30:03.553Z</time></trkpt><trkpt lat="42.30193" lon="13.2754083"><ele>857.0</ele><time>2026-05-02T16:30:05.552Z</time></trkpt><trkpt lat="42.301985" lon="13.2755817"><ele>857.0</ele><time>2026-05-02T16:30:07.553Z</time></trkpt><trkpt lat="42.30202" lon="13.2756967"><ele>857.0</ele><time>2026-05-02T16:30:08.552Z</time></trkpt><trkpt lat="42.3020433" lon="13.27582"><ele>857.0</ele><time>2026-05-02T16:30:09.553Z</time></trkpt><trkpt lat="42.3020767" lon="13.2759367"><ele>856.0000000000001</ele><time>2026-05-02T16:30:10.552Z</time></trkpt><trkpt lat="42.3021083" lon="13.2760483"><ele>855.0</ele><time>2026-05-02T16:30:11.552Z</time></trkpt><trkpt lat="42.3021383" lon="13.2761567"><ele>854.0</ele><time>2026-05-02T16:30:12.553Z</time></trkpt><trkpt lat="42.30217" lon="13.2762433"><ele>853.0</ele><time>2026-05-02T16:30:13.552Z</time></trkpt><trkpt lat="42.3021933" lon="13.276325"><ele>852.0000000000001</ele><time>2026-05-02T16:30:14.552Z</time></trkpt><trkpt lat="42.30222" lon="13.27647"><ele>851.0</ele><time>2026-05-02T16:30:16.553Z</time></trkpt><trkpt lat="42.30222" lon="13.27661"><ele>850.3333333333334</ele><time>2026-05-02T16:30:18.552Z</time></trkpt><trkpt lat="42.3022217" lon="13.2767"><ele>849.6666666666667</ele><time>2026-05-02T16:30:24.552Z</time></trkpt><trkpt lat="42.3021717" lon="13.2768383"><ele>849.0</ele><time>2026-05-02T16:30:26.553Z</time></trkpt><trkpt lat="42.30214" lon="13.276935"><ele>848.3333333333333</ele><time>2026-05-02T16:30:27.552Z</time></trkpt><trkpt lat="42.3021117" lon="13.2770267"><ele>847.6666666666666</ele><time>2026-05-02T16:30:28.552Z</time></trkpt><trkpt lat="42.3020867" lon="13.277125"><ele>847.0</ele><time>2026-05-02T16:30:29.553Z</time></trkpt><trkpt lat="42.3020733" lon="13.2772167"><ele>845.5714285714286</ele><time>2026-05-02T16:30:30.552Z</time></trkpt><trkpt lat="42.3020667" lon="13.2773167"><ele>844.1428571428571</ele><time>2026-05-02T16:30:31.552Z</time></trkpt><trkpt lat="42.3020683" lon="13.2774167"><ele>842.7142857142858</ele><time>2026-05-02T16:30:32.552Z</time></trkpt><trkpt lat="42.3020933" lon="13.2775233"><ele>841.2857142857142</ele><time>2026-05-02T16:30:33.552Z</time></trkpt><trkpt lat="42.3021167" lon="13.277615"><ele>839.8571428571429</ele><time>2026-05-02T16:30:34.553Z</time></trkpt><trkpt lat="42.30215" lon="13.2776983"><ele>838.4285714285714</ele><time>2026-05-02T16:30:35.552Z</time></trkpt><trkpt lat="42.3021917" lon="13.2777733"><ele>837.0</ele><time>2026-05-02T16:30:36.552Z</time></trkpt><trkpt lat="42.3022383" lon="13.2778383"><ele>836.8333333333334</ele><time>2026-05-02T16:30:37.552Z</time></trkpt><trkpt lat="42.30232" lon="13.2779283"><ele>836.6666666666667</ele><time>2026-05-02T16:30:39.552Z</time></trkpt><trkpt lat="42.3023133" lon="13.278025"><ele>836.5</ele><time>2026-05-02T16:30:42.552Z</time></trkpt><trkpt lat="42.302275" lon="13.2781"><ele>836.3333333333334</ele><time>2026-05-02T16:30:43.552Z</time></trkpt><trkpt lat="42.3022217" lon="13.2781767"><ele>836.1666666666667</ele><time>2026-05-02T16:30:44.552Z</time></trkpt><trkpt lat="42.302165" lon="13.2782417"><ele>836.0</ele><time>2026-05-02T16:30:45.552Z</time></trkpt><trkpt lat="42.3021033" lon="13.2783017"><ele>834.4</ele><time>2026-05-02T16:30:46.553Z</time></trkpt><trkpt lat="42.302015" lon="13.2783433"><ele>832.8</ele><time>2026-05-02T16:30:47.552Z</time></trkpt><trkpt lat="42.30191" lon="13.2783683"><ele>831.1999999999999</ele><time>2026-05-02T16:30:48.553Z</time></trkpt><trkpt lat="42.3018067" lon="13.2783667"><ele>829.5999999999999</ele><time>2026-05-02T16:30:49.552Z</time></trkpt><trkpt lat="42.301715" lon="13.27834"><ele>828.0</ele><time>2026-05-02T16:30:50.552Z</time></trkpt><trkpt lat="42.301635" lon="13.2782767"><ele>828.0</ele><time>2026-05-02T16:30:51.553Z</time></trkpt><trkpt lat="42.30156" lon="13.2781683"><ele>828.0</ele><time>2026-05-02T16:30:52.552Z</time></trkpt><trkpt lat="42.3015033" lon="13.27804"><ele>828.0</ele><time>2026-05-02T16:30:53.552Z</time></trkpt><trkpt lat="42.3014483" lon="13.2779233"><ele>828.0</ele><time>2026-05-02T16:30:54.552Z</time></trkpt><trkpt lat="42.3013867" lon="13.2778317"><ele>828.0</ele><time>2026-05-02T16:30:55.552Z</time></trkpt><trkpt lat="42.3013183" lon="13.2777417"><ele>827.4</ele><time>2026-05-02T16:30:56.552Z</time></trkpt><trkpt lat="42.301225" lon="13.2776667"><ele>826.8</ele><time>2026-05-02T16:30:57.553Z</time></trkpt><trkpt lat="42.30112" lon="13.2776017"><ele>826.2</ele><time>2026-05-02T16:30:58.553Z</time></trkpt><trkpt lat="42.3010117" lon="13.277545"><ele>825.6</ele><time>2026-05-02T16:30:59.553Z</time></trkpt><trkpt lat="42.300915" lon="13.277505"><ele>825.0</ele><time>2026-05-02T16:31:00.553Z</time></trkpt><trkpt lat="42.3008233" lon="13.27747"><ele>825.0</ele><time>2026-05-02T16:31:01.552Z</time></trkpt><trkpt lat="42.3007283" lon="13.2774667"><ele>825.0</ele><time>2026-05-02T16:31:02.553Z</time></trkpt><trkpt lat="42.300605" lon="13.2774933"><ele>825.0</ele><time>2026-05-02T16:31:03.553Z</time></trkpt><trkpt lat="42.3004667" lon="13.2775433"><ele>825.0</ele><time>2026-05-02T16:31:04.553Z</time></trkpt><trkpt lat="42.3003383" lon="13.27758"><ele>826.0</ele><time>2026-05-02T16:31:05.552Z</time></trkpt><trkpt lat="42.3002117" lon="13.2776133"><ele>827.0</ele><time>2026-05-02T16:31:06.553Z</time></trkpt><trkpt lat="42.3000833" lon="13.2776333"><ele>828.0</ele><time>2026-05-02T16:31:07.552Z</time></trkpt><trkpt lat="42.2999517" lon="13.2776383"><ele>829.0</ele><time>2026-05-02T16:31:08.553Z</time></trkpt><trkpt lat="42.29981" lon="13.277635"><ele>828.5</ele><time>2026-05-02T16:31:09.553Z</time></trkpt><trkpt lat="42.2996667" lon="13.27762"><ele>828.0</ele><time>2026-05-02T16:31:10.553Z</time></trkpt><trkpt lat="42.2995317" lon="13.277615"><ele>827.5</ele><time>2026-05-02T16:31:11.552Z</time></trkpt><trkpt lat="42.299405" lon="13.2776217"><ele>827.0</ele><time>2026-05-02T16:31:12.553Z</time></trkpt><trkpt lat="42.2992833" lon="13.2776317"><ele>827.0</ele><time>2026-05-02T16:31:13.553Z</time></trkpt><trkpt lat="42.2991733" lon="13.2776617"><ele>827.0</ele><time>2026-05-02T16:31:14.552Z</time></trkpt><trkpt lat="42.2990767" lon="13.2777117"><ele>827.0</ele><time>2026-05-02T16:31:15.552Z</time></trkpt><trkpt lat="42.2989967" lon="13.27779"><ele>827.0</ele><time>2026-05-02T16:31:16.553Z</time></trkpt><trkpt lat="42.2989317" lon="13.2778883"><ele>827.0</ele><time>2026-05-02T16:31:17.552Z</time></trkpt><trkpt lat="42.2988767" lon="13.2780183"><ele>828.2</ele><time>2026-05-02T16:31:18.553Z</time></trkpt><trkpt lat="42.2988417" lon="13.2781683"><ele>829.4000000000001</ele><time>2026-05-02T16:31:19.553Z</time></trkpt><trkpt lat="42.2988067" lon="13.278305"><ele>830.5999999999999</ele><time>2026-05-02T16:31:20.552Z</time></trkpt><trkpt lat="42.2987617" lon="13.2784167"><ele>831.8</ele><time>2026-05-02T16:31:21.553Z</time></trkpt><trkpt lat="42.2986817" lon="13.27851"><ele>833.0</ele><time>2026-05-02T16:31:22.552Z</time></trkpt><trkpt lat="42.2985767" lon="13.278575"><ele>833.0</ele><time>2026-05-02T16:31:23.553Z</time></trkpt><trkpt lat="42.29846" lon="13.2786383"><ele>833.0</ele><time>2026-05-02T16:31:24.553Z</time></trkpt><trkpt lat="42.2983367" lon="13.2786967"><ele>833.0</ele><time>2026-05-02T16:31:25.553Z</time></trkpt><trkpt lat="42.2982183" lon="13.2787717"><ele>833.0</ele><time>2026-05-02T16:31:26.552Z</time></trkpt><trkpt lat="42.2980917" lon="13.2788683"><ele>835.75</ele><time>2026-05-02T16:31:27.552Z</time></trkpt><trkpt lat="42.2979783" lon="13.2789967"><ele>838.5</ele><time>2026-05-02T16:31:28.553Z</time></trkpt><trkpt lat="42.2978717" lon="13.27914"><ele>841.25</ele><time>2026-05-02T16:31:29.553Z</time></trkpt><trkpt lat="42.2977867" lon="13.2792817"><ele>844.0</ele><time>2026-05-02T16:31:30.552Z</time></trkpt><trkpt lat="42.29771" lon="13.27942"><ele>844.0</ele><time>2026-05-02T16:31:31.553Z</time></trkpt><trkpt lat="42.2976567" lon="13.2795533"><ele>844.0</ele><time>2026-05-02T16:31:32.553Z</time></trkpt><trkpt lat="42.2976233" lon="13.279685"><ele>844.0</ele><time>2026-05-02T16:31:33.552Z</time></trkpt><trkpt lat="42.29762" lon="13.2798383"><ele>844.0</ele><time>2026-05-02T16:31:34.553Z</time></trkpt><trkpt lat="42.297645" lon="13.2800067"><ele>841.75</ele><time>2026-05-02T16:31:35.553Z</time></trkpt><trkpt lat="42.2976967" lon="13.28017"><ele>839.5</ele><time>2026-05-02T16:31:36.553Z</time></trkpt><trkpt lat="42.2977683" lon="13.2803133"><ele>837.25</ele><time>2026-05-02T16:31:37.553Z</time></trkpt><trkpt lat="42.2978617" lon="13.2804183"><ele>835.0</ele><time>2026-05-02T16:31:38.553Z</time></trkpt><trkpt lat="42.2979717" lon="13.280485"><ele>832.25</ele><time>2026-05-02T16:31:39.553Z</time></trkpt><trkpt lat="42.2980933" lon="13.28051"><ele>829.5</ele><time>2026-05-02T16:31:40.552Z</time></trkpt><trkpt lat="42.298245" lon="13.2805"><ele>826.75</ele><time>2026-05-02T16:31:41.552Z</time></trkpt><trkpt lat="42.2983967" lon="13.280465"><ele>824.0</ele><time>2026-05-02T16:31:42.552Z</time></trkpt><trkpt lat="42.2985383" lon="13.2804567"><ele>824.0</ele><time>2026-05-02T16:31:43.553Z</time></trkpt><trkpt lat="42.2986583" lon="13.2804567"><ele>824.0</ele><time>2026-05-02T16:31:44.553Z</time></trkpt><trkpt lat="42.2987683" lon="13.2804917"><ele>824.0</ele><time>2026-05-02T16:31:45.552Z</time></trkpt><trkpt lat="42.2988783" lon="13.2805617"><ele>824.0</ele><time>2026-05-02T16:31:46.552Z</time></trkpt><trkpt lat="42.299005" lon="13.2806717"><ele>827.6666666666667</ele><time>2026-05-02T16:31:47.553Z</time></trkpt><trkpt lat="42.2991467" lon="13.2807867"><ele>831.3333333333333</ele><time>2026-05-02T16:31:48.553Z</time></trkpt><trkpt lat="42.2993" lon="13.28091"><ele>835.0</ele><time>2026-05-02T16:31:49.553Z</time></trkpt><trkpt lat="42.299455" lon="13.2810333"><ele>835.0</ele><time>2026-05-02T16:31:50.552Z</time></trkpt><trkpt lat="42.299605" lon="13.2811567"><ele>835.0</ele><time>2026-05-02T16:31:51.553Z</time></trkpt><trkpt lat="42.2997467" lon="13.281275"><ele>835.0</ele><time>2026-05-02T16:31:52.553Z</time></trkpt><trkpt lat="42.2998867" lon="13.2813833"><ele>836.0</ele><time>2026-05-02T16:31:53.552Z</time></trkpt><trkpt lat="42.300025" lon="13.28149"><ele>837.0</ele><time>2026-05-02T16:31:54.553Z</time></trkpt><trkpt lat="42.300155" lon="13.2815917"><ele>838.0</ele><time>2026-05-02T16:31:55.553Z</time></trkpt><trkpt lat="42.3002783" lon="13.281695"><ele>838.0</ele><time>2026-05-02T16:31:56.553Z</time></trkpt><trkpt lat="42.3003867" lon="13.2818"><ele>838.0</ele><time>2026-05-02T16:31:57.553Z</time></trkpt><trkpt lat="42.3004733" lon="13.2819167"><ele>838.0</ele><time>2026-05-02T16:31:58.552Z</time></trkpt><trkpt lat="42.3005333" lon="13.28205"><ele>838.0</ele><time>2026-05-02T16:31:59.552Z</time></trkpt><trkpt lat="42.300565" lon="13.2821867"><ele>838.75</ele><time>2026-05-02T16:32:00.552Z</time></trkpt><trkpt lat="42.3005717" lon="13.2823233"><ele>839.5</ele><time>2026-05-02T16:32:01.553Z</time></trkpt><trkpt lat="42.3005533" lon="13.282485"><ele>840.25</ele><time>2026-05-02T16:32:02.552Z</time></trkpt><trkpt lat="42.3005417" lon="13.2826467"><ele>841.0</ele><time>2026-05-02T16:32:03.553Z</time></trkpt><trkpt lat="42.3005367" lon="13.2828083"><ele>841.0</ele><time>2026-05-02T16:32:04.552Z</time></trkpt><trkpt lat="42.3005267" lon="13.2829633"><ele>841.0</ele><time>2026-05-02T16:32:05.552Z</time></trkpt><trkpt lat="42.3005183" lon="13.28312"><ele>841.0</ele><time>2026-05-02T16:32:06.553Z</time></trkpt><trkpt lat="42.300505" lon="13.28326"><ele>841.0</ele><time>2026-05-02T16:32:07.552Z</time></trkpt><trkpt lat="42.3004983" lon="13.2833533"><ele>841.0</ele><time>2026-05-02T16:32:08.553Z</time></trkpt><trkpt lat="42.30044" lon="13.2834383"><ele>839.0</ele><time>2026-05-02T16:32:10.553Z</time></trkpt><trkpt lat="42.3003033" lon="13.2834367"><ele>837.0</ele><time>2026-05-02T16:32:12.552Z</time></trkpt><trkpt lat="42.3002117" lon="13.2834367"><ele>835.0</ele><time>2026-05-02T16:32:13.553Z</time></trkpt><trkpt lat="42.30011" lon="13.283445"><ele>833.0</ele><time>2026-05-02T16:32:14.553Z</time></trkpt><trkpt lat="42.300005" lon="13.2834733"><ele>831.0</ele><time>2026-05-02T16:32:15.553Z</time></trkpt><trkpt lat="42.29989" lon="13.28351"><ele>831.0</ele><time>2026-05-02T16:32:16.553Z</time></trkpt><trkpt lat="42.2997683" lon="13.28358"><ele>831.0</ele><time>2026-05-02T16:32:17.552Z</time></trkpt><trkpt lat="42.299645" lon="13.283665"><ele>831.0</ele><time>2026-05-02T16:32:18.552Z</time></trkpt><trkpt lat="42.299525" lon="13.2837567"><ele>831.0</ele><time>2026-05-02T16:32:19.552Z</time></trkpt><trkpt lat="42.2994183" lon="13.2838483"><ele>828.8</ele><time>2026-05-02T16:32:20.552Z</time></trkpt><trkpt lat="42.299315" lon="13.283935"><ele>826.5999999999999</ele><time>2026-05-02T16:32:21.552Z</time></trkpt><trkpt lat="42.2992133" lon="13.284005"><ele>824.4</ele><time>2026-05-02T16:32:22.553Z</time></trkpt><trkpt lat="42.299115" lon="13.28404"><ele>822.2</ele><time>2026-05-02T16:32:23.552Z</time></trkpt><trkpt lat="42.2990117" lon="13.2840533"><ele>820.0</ele><time>2026-05-02T16:32:24.553Z</time></trkpt><trkpt lat="42.2989083" lon="13.2840383"><ele>819.4</ele><time>2026-05-02T16:32:25.553Z</time></trkpt><trkpt lat="42.2988" lon="13.2839833"><ele>818.8</ele><time>2026-05-02T16:32:26.553Z</time></trkpt><trkpt lat="42.2987083" lon="13.2839217"><ele>818.2</ele><time>2026-05-02T16:32:27.552Z</time></trkpt><trkpt lat="42.2986267" lon="13.2838617"><ele>817.6</ele><time>2026-05-02T16:32:28.552Z</time></trkpt><trkpt lat="42.298545" lon="13.283805"><ele>817.0</ele><time>2026-05-02T16:32:29.553Z</time></trkpt><trkpt lat="42.29846" lon="13.2837617"><ele>820.0</ele><time>2026-05-02T16:32:30.553Z</time></trkpt><trkpt lat="42.29838" lon="13.283735"><ele>823.0</ele><time>2026-05-02T16:32:31.553Z</time></trkpt><trkpt lat="42.2982967" lon="13.2837417"><ele>826.0</ele><time>2026-05-02T16:32:32.553Z</time></trkpt><trkpt lat="42.298115" lon="13.2838283"><ele>829.0</ele><time>2026-05-02T16:32:34.552Z</time></trkpt><trkpt lat="42.2980167" lon="13.2839017"><ele>828.0</ele><time>2026-05-02T16:32:35.553Z</time></trkpt><trkpt lat="42.2979117" lon="13.2839783"><ele>827.0</ele><time>2026-05-02T16:32:36.553Z</time></trkpt><trkpt lat="42.2978183" lon="13.28405"><ele>826.0</ele><time>2026-05-02T16:32:37.553Z</time></trkpt><trkpt lat="42.2977367" lon="13.2841067"><ele>825.0</ele><time>2026-05-02T16:32:38.552Z</time></trkpt><trkpt lat="42.2976783" lon="13.28415"><ele>824.0</ele><time>2026-05-02T16:32:39.553Z</time></trkpt><trkpt lat="42.297625" lon="13.2842283"><ele>824.0</ele><time>2026-05-02T16:32:41.552Z</time></trkpt><trkpt lat="42.2976917" lon="13.2842383"><ele>824.0</ele><time>2026-05-02T16:32:46.553Z</time></trkpt><trkpt lat="42.297815" lon="13.284175"><ele>824.0</ele><time>2026-05-02T16:32:48.553Z</time></trkpt><trkpt lat="42.2979183" lon="13.284165"><ele>824.0</ele><time>2026-05-02T16:32:49.553Z</time></trkpt><trkpt lat="42.298035" lon="13.2841767"><ele>824.0</ele><time>2026-05-02T16:32:50.552Z</time></trkpt><trkpt lat="42.2981567" lon="13.2841983"><ele>822.25</ele><time>2026-05-02T16:32:51.553Z</time></trkpt><trkpt lat="42.29828" lon="13.2842317"><ele>820.5</ele><time>2026-05-02T16:32:52.552Z</time></trkpt><trkpt lat="42.2984033" lon="13.2842583"><ele>818.75</ele><time>2026-05-02T16:32:53.553Z</time></trkpt><trkpt lat="42.2985217" lon="13.2842833"><ele>817.0</ele><time>2026-05-02T16:32:54.552Z</time></trkpt><trkpt lat="42.2986283" lon="13.2843333"><ele>817.0</ele><time>2026-05-02T16:32:55.552Z</time></trkpt><trkpt lat="42.2987283" lon="13.2844233"><ele>817.0</ele><time>2026-05-02T16:32:56.553Z</time></trkpt><trkpt lat="42.2988183" lon="13.2845167"><ele>817.0</ele><time>2026-05-02T16:32:57.553Z</time></trkpt><trkpt lat="42.2989033" lon="13.284635"><ele>817.0</ele><time>2026-05-02T16:32:58.552Z</time></trkpt><trkpt lat="42.2989867" lon="13.2847667"><ele>815.5</ele><time>2026-05-02T16:32:59.553Z</time></trkpt><trkpt lat="42.2990733" lon="13.2849117"><ele>814.0</ele><time>2026-05-02T16:33:00.552Z</time></trkpt><trkpt lat="42.2991467" lon="13.2850717"><ele>812.5</ele><time>2026-05-02T16:33:01.553Z</time></trkpt><trkpt lat="42.29922" lon="13.2852333"><ele>811.0</ele><time>2026-05-02T16:33:02.553Z</time></trkpt><trkpt lat="42.2992833" lon="13.28539"><ele>811.0</ele><time>2026-05-02T16:33:03.553Z</time></trkpt><trkpt lat="42.299335" lon="13.2855517"><ele>811.0</ele><time>2026-05-02T16:33:04.553Z</time></trkpt><trkpt lat="42.2993733" lon="13.2857383"><ele>811.0</ele><time>2026-05-02T16:33:05.553Z</time></trkpt><trkpt lat="42.2994067" lon="13.2859233"><ele>811.0</ele><time>2026-05-02T16:33:06.553Z</time></trkpt><trkpt lat="42.2994317" lon="13.2861117"><ele>809.75</ele><time>2026-05-02T16:33:07.553Z</time></trkpt><trkpt lat="42.2994483" lon="13.2863083"><ele>808.5</ele><time>2026-05-02T16:33:08.552Z</time></trkpt><trkpt lat="42.2994583" lon="13.2865"><ele>807.25</ele><time>2026-05-02T16:33:09.552Z</time></trkpt><trkpt lat="42.2994617" lon="13.28669"><ele>806.0</ele><time>2026-05-02T16:33:10.552Z</time></trkpt><trkpt lat="42.2994733" lon="13.2868767"><ele>804.5</ele><time>2026-05-02T16:33:11.553Z</time></trkpt><trkpt lat="42.29948" lon="13.2870667"><ele>803.0</ele><time>2026-05-02T16:33:12.552Z</time></trkpt><trkpt lat="42.299505" lon="13.2872417"><ele>801.5</ele><time>2026-05-02T16:33:13.553Z</time></trkpt><trkpt lat="42.2995533" lon="13.2874017"><ele>800.0</ele><time>2026-05-02T16:33:14.552Z</time></trkpt><trkpt lat="42.299615" lon="13.287545"><ele>800.5</ele><time>2026-05-02T16:33:15.552Z</time></trkpt><trkpt lat="42.2997067" lon="13.2876567"><ele>801.0</ele><time>2026-05-02T16:33:16.553Z</time></trkpt><trkpt lat="42.2998067" lon="13.28773"><ele>801.5</ele><time>2026-05-02T16:33:17.553Z</time></trkpt><trkpt lat="42.2999167" lon="13.2877533"><ele>802.0</ele><time>2026-05-02T16:33:18.553Z</time></trkpt><trkpt lat="42.3000467" lon="13.287735"><ele>802.0</ele><time>2026-05-02T16:33:19.552Z</time></trkpt><trkpt lat="42.30019" lon="13.2877017"><ele>802.0</ele><time>2026-05-02T16:33:20.552Z</time></trkpt><trkpt lat="42.3003533" lon="13.2876817"><ele>802.0</ele><time>2026-05-02T16:33:21.553Z</time></trkpt><trkpt lat="42.300515" lon="13.2876683"><ele>800.3333333333333</ele><time>2026-05-02T16:33:22.552Z</time></trkpt><trkpt lat="42.3006817" lon="13.2876617"><ele>798.6666666666667</ele><time>2026-05-02T16:33:23.552Z</time></trkpt><trkpt lat="42.3008433" lon="13.2876617"><ele>797.0</ele><time>2026-05-02T16:33:24.552Z</time></trkpt><trkpt lat="42.3009983" lon="13.2876617"><ele>797.0</ele><time>2026-05-02T16:33:25.553Z</time></trkpt><trkpt lat="42.3011467" lon="13.28764"><ele>797.0</ele><time>2026-05-02T16:33:26.552Z</time></trkpt><trkpt lat="42.3012833" lon="13.2875933"><ele>797.0</ele><time>2026-05-02T16:33:27.552Z</time></trkpt><trkpt lat="42.3014217" lon="13.2875183"><ele>797.0</ele><time>2026-05-02T16:33:28.553Z</time></trkpt><trkpt lat="42.3015517" lon="13.2874283"><ele>793.0</ele><time>2026-05-02T16:33:29.552Z</time></trkpt><trkpt lat="42.3016833" lon="13.2873467"><ele>789.0</ele><time>2026-05-02T16:33:30.553Z</time></trkpt><trkpt lat="42.30181" lon="13.2872867"><ele>785.0</ele><time>2026-05-02T16:33:31.552Z</time></trkpt><trkpt lat="42.30193" lon="13.287285"><ele>781.0</ele><time>2026-05-02T16:33:32.552Z</time></trkpt><trkpt lat="42.3020517" lon="13.2873"><ele>780.9999999999999</ele><time>2026-05-02T16:33:33.552Z</time></trkpt><trkpt lat="42.30216" lon="13.287325"><ele>781.0</ele><time>2026-05-02T16:33:34.553Z</time></trkpt><trkpt lat="42.3022433" lon="13.2873517"><ele>781.0</ele><time>2026-05-02T16:33:35.552Z</time></trkpt><trkpt lat="42.302325" lon="13.2873733"><ele>781.0</ele><time>2026-05-02T16:33:36.553Z</time></trkpt><trkpt lat="42.3023983" lon="13.2874"><ele>780.9999999999999</ele><time>2026-05-02T16:33:37.553Z</time></trkpt><trkpt lat="42.302465" lon="13.2874183"><ele>781.0</ele><time>2026-05-02T16:33:38.552Z</time></trkpt><trkpt lat="42.3025517" lon="13.2874517"><ele>780.9999999999999</ele><time>2026-05-02T16:33:40.552Z</time></trkpt><trkpt lat="42.302615" lon="13.2874283"><ele>781.0</ele><time>2026-05-02T16:33:43.553Z</time></trkpt><trkpt lat="42.3025083" lon="13.2873583"><ele>781.0</ele><time>2026-05-02T16:33:52.552Z</time></trkpt><trkpt lat="42.30242" lon="13.2873333"><ele>781.0</ele><time>2026-05-02T16:33:53.553Z</time></trkpt><trkpt lat="42.3023333" lon="13.2873133"><ele>780.9999999999999</ele><time>2026-05-02T16:33:54.552Z</time></trkpt><trkpt lat="42.30226" lon="13.2873017"><ele>781.0</ele><time>2026-05-02T16:33:55.552Z</time></trkpt><trkpt lat="42.3021717" lon="13.2873467"><ele>781.0</ele><time>2026-05-02T16:33:57.552Z</time></trkpt><trkpt lat="42.302125" lon="13.2874533"><ele>781.0</ele><time>2026-05-02T16:33:59.551Z</time></trkpt><trkpt lat="42.3020917" lon="13.2876067"><ele>781.0</ele><time>2026-05-02T16:34:01.552Z</time></trkpt><trkpt lat="42.3020817" lon="13.2877"><ele>781.0</ele><time>2026-05-02T16:34:02.551Z</time></trkpt><trkpt lat="42.30208" lon="13.2878233"><ele>781.0</ele><time>2026-05-02T16:34:03.552Z</time></trkpt><trkpt lat="42.3020733" lon="13.2879817"><ele>779.4</ele><time>2026-05-02T16:34:04.552Z</time></trkpt><trkpt lat="42.3020667" lon="13.2881383"><ele>777.8</ele><time>2026-05-02T16:34:05.551Z</time></trkpt><trkpt lat="42.30206" lon="13.2882867"><ele>776.1999999999999</ele><time>2026-05-02T16:34:06.552Z</time></trkpt><trkpt lat="42.302055" lon="13.288425"><ele>774.5999999999999</ele><time>2026-05-02T16:34:07.551Z</time></trkpt><trkpt lat="42.3020483" lon="13.2885417"><ele>773.0</ele><time>2026-05-02T16:34:08.552Z</time></trkpt><trkpt lat="42.3020533" lon="13.2886417"><ele>773.0000000000001</ele><time>2026-05-02T16:34:09.552Z</time></trkpt><trkpt lat="42.3020633" lon="13.2887333"><ele>773.0</ele><time>2026-05-02T16:34:10.551Z</time></trkpt><trkpt lat="42.3021033" lon="13.288845"><ele>773.0</ele><time>2026-05-02T16:34:12.551Z</time></trkpt><trkpt lat="42.3021933" lon="13.2889083"><ele>773.0</ele><time>2026-05-02T16:34:14.552Z</time></trkpt><trkpt lat="42.3022567" lon="13.2889283"><ele>773.0000000000001</ele><time>2026-05-02T16:34:15.552Z</time></trkpt><trkpt lat="42.30233" lon="13.2889517"><ele>773.0</ele><time>2026-05-02T16:34:16.551Z</time></trkpt><trkpt lat="42.30242" lon="13.28897"><ele>774.5</ele><time>2026-05-02T16:34:17.552Z</time></trkpt><trkpt lat="42.3025283" lon="13.2889883"><ele>776.0</ele><time>2026-05-02T16:34:18.552Z</time></trkpt><trkpt lat="42.3026433" lon="13.2889933"><ele>777.5</ele><time>2026-05-02T16:34:19.552Z</time></trkpt><trkpt lat="42.3027633" lon="13.2889933"><ele>779.0</ele><time>2026-05-02T16:34:20.551Z</time></trkpt><trkpt lat="42.30288" lon="13.2889867"><ele>779.0</ele><time>2026-05-02T16:34:21.551Z</time></trkpt><trkpt lat="42.302995" lon="13.288975"><ele>779.0</ele><time>2026-05-02T16:34:22.552Z</time></trkpt><trkpt lat="42.3031067" lon="13.2889467"><ele>779.0</ele><time>2026-05-02T16:34:23.552Z</time></trkpt><trkpt lat="42.3032183" lon="13.2889133"><ele>779.0</ele><time>2026-05-02T16:34:24.552Z</time></trkpt><trkpt lat="42.3033233" lon="13.288875"><ele>777.0</ele><time>2026-05-02T16:34:25.552Z</time></trkpt><trkpt lat="42.3034233" lon="13.288845"><ele>775.0</ele><time>2026-05-02T16:34:26.552Z</time></trkpt><trkpt lat="42.3035233" lon="13.28881"><ele>773.0</ele><time>2026-05-02T16:34:27.552Z</time></trkpt><trkpt lat="42.3036267" lon="13.2887917"><ele>771.0</ele><time>2026-05-02T16:34:28.551Z</time></trkpt><trkpt lat="42.3037367" lon="13.28878"><ele>769.0</ele><time>2026-05-02T16:34:29.552Z</time></trkpt><trkpt lat="42.3038367" lon="13.2887617"><ele>769.0</ele><time>2026-05-02T16:34:30.551Z</time></trkpt><trkpt lat="42.30393" lon="13.2887483"><ele>769.0</ele><time>2026-05-02T16:34:31.552Z</time></trkpt><trkpt lat="42.304025" lon="13.2887317"><ele>769.0</ele><time>2026-05-02T16:34:32.551Z</time></trkpt><trkpt lat="42.3041217" lon="13.2887033"><ele>769.0</ele><time>2026-05-02T16:34:33.551Z</time></trkpt><trkpt lat="42.3042267" lon="13.28866"><ele>769.0</ele><time>2026-05-02T16:34:34.551Z</time></trkpt><trkpt lat="42.304335" lon="13.28862"><ele>769.0</ele><time>2026-05-02T16:34:35.552Z</time></trkpt><trkpt lat="42.30445" lon="13.288565"><ele>769.0</ele><time>2026-05-02T16:34:36.551Z</time></trkpt><trkpt lat="42.30458" lon="13.2885183"><ele>769.0</ele><time>2026-05-02T16:34:37.551Z</time></trkpt><trkpt lat="42.304705" lon="13.2884633"><ele>769.0</ele><time>2026-05-02T16:34:38.552Z</time></trkpt><trkpt lat="42.3048233" lon="13.2884167"><ele>768.8000000000001</ele><time>2026-05-02T16:34:39.551Z</time></trkpt><trkpt lat="42.30493" lon="13.2883733"><ele>768.6</ele><time>2026-05-02T16:34:40.552Z</time></trkpt><trkpt lat="42.3050267" lon="13.288335"><ele>768.4</ele><time>2026-05-02T16:34:41.552Z</time></trkpt><trkpt lat="42.3051267" lon="13.2883083"><ele>768.2</ele><time>2026-05-02T16:34:42.551Z</time></trkpt><trkpt lat="42.305225" lon="13.2882983"><ele>768.0</ele><time>2026-05-02T16:34:43.551Z</time></trkpt><trkpt lat="42.3053333" lon="13.2883117"><ele>768.0</ele><time>2026-05-02T16:34:44.551Z</time></trkpt><trkpt lat="42.30544" lon="13.288335"><ele>768.0</ele><time>2026-05-02T16:34:45.552Z</time></trkpt><trkpt lat="42.3055517" lon="13.28835"><ele>768.0</ele><time>2026-05-02T16:34:46.551Z</time></trkpt><trkpt lat="42.3056417" lon="13.28837"><ele>768.0</ele><time>2026-05-02T16:34:47.552Z</time></trkpt><trkpt lat="42.30573" lon="13.2883567"><ele>768.0</ele><time>2026-05-02T16:34:48.552Z</time></trkpt><trkpt lat="42.305815" lon="13.2883383"><ele>767.8</ele><time>2026-05-02T16:34:49.551Z</time></trkpt><trkpt lat="42.3059033" lon="13.28831"><ele>767.5999999999999</ele><time>2026-05-02T16:34:50.552Z</time></trkpt><trkpt lat="42.3060033" lon="13.288255"><ele>767.4000000000001</ele><time>2026-05-02T16:34:51.551Z</time></trkpt><trkpt lat="42.3060983" lon="13.2882083"><ele>767.2</ele><time>2026-05-02T16:34:52.551Z</time></trkpt><trkpt lat="42.3062017" lon="13.2881417"><ele>767.0</ele><time>2026-05-02T16:34:53.552Z</time></trkpt><trkpt lat="42.3063117" lon="13.288075"><ele>766.5</ele><time>2026-05-02T16:34:54.551Z</time></trkpt><trkpt lat="42.3064217" lon="13.2880233"><ele>766.0</ele><time>2026-05-02T16:34:55.552Z</time></trkpt><trkpt lat="42.306555" lon="13.2879567"><ele>765.5</ele><time>2026-05-02T16:34:56.551Z</time></trkpt><trkpt lat="42.3066633" lon="13.287895"><ele>765.0</ele><time>2026-05-02T16:34:57.551Z</time></trkpt><trkpt lat="42.3067483" lon="13.2878533"><ele>765.0</ele><time>2026-05-02T16:34:58.552Z</time></trkpt><trkpt lat="42.3068167" lon="13.28782"><ele>765.0</ele><time>2026-05-02T16:34:59.551Z</time></trkpt><trkpt lat="42.3069167" lon="13.2877933"><ele>765.0</ele><time>2026-05-02T16:35:01.551Z</time></trkpt><trkpt lat="42.3070167" lon="13.2877317"><ele>765.0</ele><time>2026-05-02T16:35:03.551Z</time></trkpt><trkpt lat="42.307075" lon="13.28766"><ele>765.0</ele><time>2026-05-02T16:35:04.552Z</time></trkpt><trkpt lat="42.307155" lon="13.2875383"><ele>764.5</ele><time>2026-05-02T16:35:05.551Z</time></trkpt><trkpt lat="42.3072517" lon="13.287405"><ele>764.0</ele><time>2026-05-02T16:35:06.551Z</time></trkpt><trkpt lat="42.3073617" lon="13.28726"><ele>763.5</ele><time>2026-05-02T16:35:07.552Z</time></trkpt><trkpt lat="42.3074683" lon="13.2871283"><ele>763.0</ele><time>2026-05-02T16:35:08.552Z</time></trkpt><trkpt lat="42.3075633" lon="13.2869933"><ele>763.0</ele><time>2026-05-02T16:35:09.551Z</time></trkpt><trkpt lat="42.3076683" lon="13.2868683"><ele>763.0</ele><time>2026-05-02T16:35:10.551Z</time></trkpt><trkpt lat="42.3077817" lon="13.286755"><ele>763.0</ele><time>2026-05-02T16:35:11.552Z</time></trkpt><trkpt lat="42.3079133" lon="13.2866467"><ele>763.0</ele><time>2026-05-02T16:35:12.551Z</time></trkpt><trkpt lat="42.3080617" lon="13.2865567"><ele>764.3333333333334</ele><time>2026-05-02T16:35:13.551Z</time></trkpt><trkpt lat="42.30821" lon="13.2864583"><ele>765.6666666666666</ele><time>2026-05-02T16:35:14.551Z</time></trkpt><trkpt lat="42.3083533" lon="13.286365"><ele>767.0</ele><time>2026-05-02T16:35:15.552Z</time></trkpt><trkpt lat="42.308485" lon="13.2862633"><ele>764.5</ele><time>2026-05-02T16:35:16.551Z</time></trkpt><trkpt lat="42.308615" lon="13.286185"><ele>762.0</ele><time>2026-05-02T16:35:17.551Z</time></trkpt><trkpt lat="42.3087433" lon="13.2861083"><ele>759.5</ele><time>2026-05-02T16:35:18.551Z</time></trkpt><trkpt lat="42.3088767" lon="13.286045"><ele>757.0</ele><time>2026-05-02T16:35:19.551Z</time></trkpt><trkpt lat="42.3090167" lon="13.2859917"><ele>757.0</ele><time>2026-05-02T16:35:20.552Z</time></trkpt><trkpt lat="42.3091583" lon="13.285955"><ele>757.0</ele><time>2026-05-02T16:35:21.552Z</time></trkpt><trkpt lat="42.3092917" lon="13.285925"><ele>757.0</ele><time>2026-05-02T16:35:22.551Z</time></trkpt><trkpt lat="42.30941" lon="13.2858967"><ele>757.0</ele><time>2026-05-02T16:35:23.551Z</time></trkpt><trkpt lat="42.3095017" lon="13.2858817"><ele>757.0</ele><time>2026-05-02T16:35:24.552Z</time></trkpt><trkpt lat="42.3095783" lon="13.2858583"><ele>757.0</ele><time>2026-05-02T16:35:25.551Z</time></trkpt><trkpt lat="42.309675" lon="13.2858417"><ele>757.0</ele><time>2026-05-02T16:35:27.552Z</time></trkpt><trkpt lat="42.3097183" lon="13.28592"><ele>757.0</ele><time>2026-05-02T16:35:30.552Z</time></trkpt><trkpt lat="42.3096567" lon="13.285965"><ele>757.0</ele><time>2026-05-02T16:35:32.551Z</time></trkpt><trkpt lat="42.30959" lon="13.28597"><ele>757.0</ele><time>2026-05-02T16:35:33.552Z</time></trkpt><trkpt lat="42.3095117" lon="13.2859717"><ele>757.0</ele><time>2026-05-02T16:35:34.552Z</time></trkpt><trkpt lat="42.3094283" lon="13.2859783"><ele>757.0</ele><time>2026-05-02T16:35:35.551Z</time></trkpt><trkpt lat="42.309335" lon="13.28599"><ele>757.0</ele><time>2026-05-02T16:35:36.551Z</time></trkpt><trkpt lat="42.3092367" lon="13.286015"><ele>757.0</ele><time>2026-05-02T16:35:37.551Z</time></trkpt><trkpt lat="42.3091233" lon="13.2860467"><ele>757.0</ele><time>2026-05-02T16:35:38.551Z</time></trkpt><trkpt lat="42.3090033" lon="13.2861017"><ele>757.0</ele><time>2026-05-02T16:35:39.551Z</time></trkpt><trkpt lat="42.3088767" lon="13.2861667"><ele>757.0</ele><time>2026-05-02T16:35:40.552Z</time></trkpt><trkpt lat="42.3087533" lon="13.2862383"><ele>757.0</ele><time>2026-05-02T16:35:41.552Z</time></trkpt><trkpt lat="42.308635" lon="13.2863033"><ele>757.0</ele><time>2026-05-02T16:35:42.551Z</time></trkpt><trkpt lat="42.3085467" lon="13.2863683"><ele>757.0</ele><time>2026-05-02T16:35:43.551Z</time></trkpt><trkpt lat="42.30849" lon="13.2864217"><ele>757.0</ele><time>2026-05-02T16:35:44.551Z</time></trkpt><trkpt lat="42.3084383" lon="13.2865467"><ele>757.0</ele><time>2026-05-02T16:35:46.551Z</time></trkpt><trkpt lat="42.3085433" lon="13.28663"><ele>757.0</ele><time>2026-05-02T16:35:48.552Z</time></trkpt><trkpt lat="42.3086433" lon="13.2866367"><ele>757.0</ele><time>2026-05-02T16:35:49.552Z</time></trkpt><trkpt lat="42.3087683" lon="13.286615"><ele>762.3333333333334</ele><time>2026-05-02T16:35:50.552Z</time></trkpt><trkpt lat="42.308915" lon="13.2866067"><ele>767.6666666666667</ele><time>2026-05-02T16:35:51.551Z</time></trkpt><trkpt lat="42.30907" lon="13.28659"><ele>773.0</ele><time>2026-05-02T16:35:52.552Z</time></trkpt><trkpt lat="42.3092367" lon="13.2865767"><ele>773.0</ele><time>2026-05-02T16:35:53.551Z</time></trkpt><trkpt lat="42.3094117" lon="13.2865517"><ele>773.0</ele><time>2026-05-02T16:35:54.551Z</time></trkpt><trkpt lat="42.309595" lon="13.2865383"><ele>773.0</ele><time>2026-05-02T16:35:55.551Z</time></trkpt><trkpt lat="42.309785" lon="13.2865067"><ele>769.6666666666667</ele><time>2026-05-02T16:35:56.552Z</time></trkpt><trkpt lat="42.309975" lon="13.2864767"><ele>766.3333333333334</ele><time>2026-05-02T16:35:57.552Z</time></trkpt><trkpt lat="42.3101583" lon="13.2864467"><ele>763.0</ele><time>2026-05-02T16:35:58.552Z</time></trkpt><trkpt lat="42.3103283" lon="13.2864217"><ele>763.0</ele><time>2026-05-02T16:35:59.551Z</time></trkpt><trkpt lat="42.3104867" lon="13.286405"><ele>763.0</ele><time>2026-05-02T16:36:00.551Z</time></trkpt><trkpt lat="42.3106267" lon="13.2863833"><ele>763.0</ele><time>2026-05-02T16:36:01.552Z</time></trkpt><trkpt lat="42.3107667" lon="13.2863733"><ele>763.0</ele><time>2026-05-02T16:36:02.551Z</time></trkpt><trkpt lat="42.3109083" lon="13.286365"><ele>765.5</ele><time>2026-05-02T16:36:03.552Z</time></trkpt><trkpt lat="42.3110617" lon="13.2863667"><ele>768.0</ele><time>2026-05-02T16:36:04.551Z</time></trkpt><trkpt lat="42.31119" lon="13.2863417"><ele>770.5</ele><time>2026-05-02T16:36:05.552Z</time></trkpt><trkpt lat="42.3113033" lon="13.2862767"><ele>773.0</ele><time>2026-05-02T16:36:06.552Z</time></trkpt><trkpt lat="42.3114083" lon="13.2861933"><ele>775.4</ele><time>2026-05-02T16:36:07.552Z</time></trkpt><trkpt lat="42.3114967" lon="13.2861017"><ele>777.8</ele><time>2026-05-02T16:36:08.552Z</time></trkpt><trkpt lat="42.3115767" lon="13.2860433"><ele>780.2</ele><time>2026-05-02T16:36:09.552Z</time></trkpt><trkpt lat="42.3116667" lon="13.2860683"><ele>782.6</ele><time>2026-05-02T16:36:11.552Z</time></trkpt><trkpt lat="42.311655" lon="13.2862633"><ele>785.0</ele><time>2026-05-02T16:36:13.551Z</time></trkpt><trkpt lat="42.3115967" lon="13.2863983"><ele>787.0</ele><time>2026-05-02T16:36:14.551Z</time></trkpt><trkpt lat="42.3115167" lon="13.2865617"><ele>789.0</ele><time>2026-05-02T16:36:15.552Z</time></trkpt><trkpt lat="42.3114217" lon="13.28675"><ele>791.0</ele><time>2026-05-02T16:36:16.551Z</time></trkpt><trkpt lat="42.3113183" lon="13.2869467"><ele>791.0</ele><time>2026-05-02T16:36:17.551Z</time></trkpt><trkpt lat="42.3112183" lon="13.2871317"><ele>791.0</ele><time>2026-05-02T16:36:18.551Z</time></trkpt><trkpt lat="42.3111167" lon="13.2873033"><ele>791.0</ele><time>2026-05-02T16:36:19.552Z</time></trkpt><trkpt lat="42.3110117" lon="13.2874567"><ele>793.0</ele><time>2026-05-02T16:36:20.551Z</time></trkpt><trkpt lat="42.3108883" lon="13.287605"><ele>795.0</ele><time>2026-05-02T16:36:21.552Z</time></trkpt><trkpt lat="42.3107533" lon="13.2877533"><ele>797.0</ele><time>2026-05-02T16:36:22.552Z</time></trkpt><trkpt lat="42.3106083" lon="13.2879017"><ele>796.6666666666667</ele><time>2026-05-02T16:36:23.552Z</time></trkpt><trkpt lat="42.3104517" lon="13.2880633"><ele>796.3333333333333</ele><time>2026-05-02T16:36:24.551Z</time></trkpt><trkpt lat="42.3102833" lon="13.288225"><ele>796.0</ele><time>2026-05-02T16:36:25.551Z</time></trkpt><trkpt lat="42.3101317" lon="13.2883817"><ele>796.6666666666666</ele><time>2026-05-02T16:36:26.552Z</time></trkpt><trkpt lat="42.309995" lon="13.2885367"><ele>797.3333333333333</ele><time>2026-05-02T16:36:27.552Z</time></trkpt><trkpt lat="42.30986" lon="13.28868"><ele>798.0</ele><time>2026-05-02T16:36:28.551Z</time></trkpt><trkpt lat="42.30974" lon="13.2888117"><ele>798.0</ele><time>2026-05-02T16:36:29.551Z</time></trkpt><trkpt lat="42.309625" lon="13.2889367"><ele>798.0</ele><time>2026-05-02T16:36:30.551Z</time></trkpt><trkpt lat="42.3095217" lon="13.28905"><ele>798.0</ele><time>2026-05-02T16:36:31.551Z</time></trkpt><trkpt lat="42.3094483" lon="13.289135"><ele>798.0</ele><time>2026-05-02T16:36:32.552Z</time></trkpt><trkpt lat="42.3093967" lon="13.2891967"><ele>798.0</ele><time>2026-05-02T16:36:33.551Z</time></trkpt><trkpt lat="42.3093033" lon="13.2893067"><ele>798.0</ele><time>2026-05-02T16:36:35.552Z</time></trkpt><trkpt lat="42.3092433" lon="13.2893683"><ele>798.0</ele><time>2026-05-02T16:36:36.551Z</time></trkpt><trkpt lat="42.3091883" lon="13.2894367"><ele>798.0</ele><time>2026-05-02T16:36:37.552Z</time></trkpt><trkpt lat="42.309125" lon="13.2895017"><ele>798.0</ele><time>2026-05-02T16:36:38.552Z</time></trkpt><trkpt lat="42.3090483" lon="13.2895883"><ele>798.0</ele><time>2026-05-02T16:36:39.552Z</time></trkpt><trkpt lat="42.3089817" lon="13.2896717"><ele>798.0</ele><time>2026-05-02T16:36:40.551Z</time></trkpt><trkpt lat="42.3089167" lon="13.2897433"><ele>798.8</ele><time>2026-05-02T16:36:41.551Z</time></trkpt><trkpt lat="42.308855" lon="13.2898067"><ele>799.5999999999999</ele><time>2026-05-02T16:36:42.552Z</time></trkpt><trkpt lat="42.30878" lon="13.2899"><ele>800.4000000000001</ele><time>2026-05-02T16:36:44.552Z</time></trkpt><trkpt lat="42.3087933" lon="13.2900267"><ele>801.2</ele><time>2026-05-02T16:36:46.551Z</time></trkpt><trkpt lat="42.3088683" lon="13.2901767"><ele>802.0</ele><time>2026-05-02T16:36:48.551Z</time></trkpt><trkpt lat="42.3089217" lon="13.2902567"><ele>801.9999999999999</ele><time>2026-05-02T16:36:49.552Z</time></trkpt><trkpt lat="42.3089733" lon="13.290335"><ele>802.0</ele><time>2026-05-02T16:36:50.551Z</time></trkpt><trkpt lat="42.3090233" lon="13.29042"><ele>802.0</ele><time>2026-05-02T16:36:51.551Z</time></trkpt><trkpt lat="42.3090817" lon="13.2904983"><ele>802.0</ele><time>2026-05-02T16:36:52.552Z</time></trkpt><trkpt lat="42.3091267" lon="13.2905817"><ele>801.9999999999999</ele><time>2026-05-02T16:36:53.552Z</time></trkpt><trkpt lat="42.3091633" lon="13.290685"><ele>802.0</ele><time>2026-05-02T16:36:55.551Z</time></trkpt><trkpt lat="42.3091567" lon="13.2908017"><ele>802.0</ele><time>2026-05-02T16:36:57.552Z</time></trkpt><trkpt lat="42.3091783" lon="13.2909817"><ele>802.0</ele><time>2026-05-02T16:36:59.552Z</time></trkpt><trkpt lat="42.3092017" lon="13.2910883"><ele>802.0</ele><time>2026-05-02T16:37:00.551Z</time></trkpt><trkpt lat="42.3092417" lon="13.291205"><ele>802.0</ele><time>2026-05-02T16:37:01.552Z</time></trkpt><trkpt lat="42.3092683" lon="13.2913167"><ele>802.0</ele><time>2026-05-02T16:37:02.551Z</time></trkpt><trkpt lat="42.3092933" lon="13.2914333"><ele>801.6666666666666</ele><time>2026-05-02T16:37:03.552Z</time></trkpt><trkpt lat="42.30932" lon="13.2915317"><ele>801.3333333333333</ele><time>2026-05-02T16:37:04.552Z</time></trkpt><trkpt lat="42.30934" lon="13.2916433"><ele>801.0</ele><time>2026-05-02T16:37:05.551Z</time></trkpt><trkpt lat="42.309355" lon="13.29175"><ele>800.6666666666667</ele><time>2026-05-02T16:37:06.552Z</time></trkpt><trkpt lat="42.30938" lon="13.2918417"><ele>800.3333333333334</ele><time>2026-05-02T16:37:07.552Z</time></trkpt><trkpt lat="42.3093917" lon="13.291945"><ele>800.0</ele><time>2026-05-02T16:37:08.552Z</time></trkpt><trkpt lat="42.3094017" lon="13.2920383"><ele>800.0000000000001</ele><time>2026-05-02T16:37:09.551Z</time></trkpt><trkpt lat="42.3094117" lon="13.29213"><ele>800.0</ele><time>2026-05-02T16:37:10.551Z</time></trkpt><trkpt lat="42.3094117" lon="13.2922217"><ele>800.0</ele><time>2026-05-02T16:37:11.552Z</time></trkpt><trkpt lat="42.3094133" lon="13.2923117"><ele>800.0</ele><time>2026-05-02T16:37:12.551Z</time></trkpt><trkpt lat="42.3094267" lon="13.2924117"><ele>800.0</ele><time>2026-05-02T16:37:13.551Z</time></trkpt><trkpt lat="42.3094633" lon="13.2925083"><ele>800.0000000000001</ele><time>2026-05-02T16:37:14.551Z</time></trkpt><trkpt lat="42.3094883" lon="13.292605"><ele>800.0</ele><time>2026-05-02T16:37:15.551Z</time></trkpt><trkpt lat="42.3095133" lon="13.2927183"><ele>799.6</ele><time>2026-05-02T16:37:16.552Z</time></trkpt><trkpt lat="42.3095317" lon="13.29285"><ele>799.2</ele><time>2026-05-02T16:37:17.552Z</time></trkpt><trkpt lat="42.3095433" lon="13.2929883"><ele>798.8</ele><time>2026-05-02T16:37:18.551Z</time></trkpt><trkpt lat="42.3095567" lon="13.2931317"><ele>798.4</ele><time>2026-05-02T16:37:19.551Z</time></trkpt><trkpt lat="42.30956" lon="13.2932617"><ele>798.0</ele><time>2026-05-02T16:37:20.552Z</time></trkpt><trkpt lat="42.3095667" lon="13.29337"><ele>797.0</ele><time>2026-05-02T16:37:21.551Z</time></trkpt><trkpt lat="42.3095717" lon="13.2934633"><ele>796.0</ele><time>2026-05-02T16:37:22.552Z</time></trkpt><trkpt lat="42.3095983" lon="13.2935933"><ele>795.0</ele><time>2026-05-02T16:37:24.551Z</time></trkpt><trkpt lat="42.309665" lon="13.293635"><ele>794.0</ele><time>2026-05-02T16:37:26.552Z</time></trkpt><trkpt lat="42.3097733" lon="13.293615"><ele>793.0</ele><time>2026-05-02T16:37:28.551Z</time></trkpt><trkpt lat="42.3098867" lon="13.2935417"><ele>790.8</ele><time>2026-05-02T16:37:30.551Z</time></trkpt><trkpt lat="42.30995" lon="13.2935367"><ele>788.5999999999999</ele><time>2026-05-02T16:37:31.552Z</time></trkpt><trkpt lat="42.3100517" lon="13.2936117"><ele>786.4000000000001</ele><time>2026-05-02T16:37:33.551Z</time></trkpt><trkpt lat="42.3101033" lon="13.29375"><ele>784.2</ele><time>2026-05-02T16:37:35.552Z</time></trkpt><trkpt lat="42.31009" lon="13.2938917"><ele>782.0</ele><time>2026-05-02T16:37:37.551Z</time></trkpt><trkpt lat="42.3100083" lon="13.2940067"><ele>782.1428571428571</ele><time>2026-05-02T16:37:39.552Z</time></trkpt><trkpt lat="42.30995" lon="13.2940517"><ele>782.2857142857142</ele><time>2026-05-02T16:37:40.552Z</time></trkpt><trkpt lat="42.3098783" lon="13.2940867"><ele>782.4285714285713</ele><time>2026-05-02T16:37:41.551Z</time></trkpt><trkpt lat="42.309805" lon="13.29411"><ele>782.5714285714286</ele><time>2026-05-02T16:37:42.552Z</time></trkpt><trkpt lat="42.3097317" lon="13.29413"><ele>782.7142857142858</ele><time>2026-05-02T16:37:43.552Z</time></trkpt><trkpt lat="42.3096617" lon="13.29416"><ele>782.8571428571428</ele><time>2026-05-02T16:37:44.552Z</time></trkpt><trkpt lat="42.3095967" lon="13.2941833"><ele>783.0</ele><time>2026-05-02T16:37:45.552Z</time></trkpt><trkpt lat="42.30949" lon="13.2942417"><ele>783.0</ele><time>2026-05-02T16:37:47.551Z</time></trkpt><trkpt lat="42.309445" lon="13.2943733"><ele>783.0</ele><time>2026-05-02T16:37:49.551Z</time></trkpt><trkpt lat="42.309445" lon="13.2945433"><ele>783.0</ele><time>2026-05-02T16:37:51.552Z</time></trkpt><trkpt lat="42.3094633" lon="13.29464"><ele>783.0</ele><time>2026-05-02T16:37:52.552Z</time></trkpt><trkpt lat="42.3094783" lon="13.2947333"><ele>783.0</ele><time>2026-05-02T16:37:53.551Z</time></trkpt><trkpt lat="42.30948" lon="13.2948233"><ele>783.0</ele><time>2026-05-02T16:37:54.552Z</time></trkpt><trkpt lat="42.3094633" lon="13.2949233"><ele>782.0</ele><time>2026-05-02T16:37:55.552Z</time></trkpt><trkpt lat="42.309425" lon="13.2950333"><ele>781.0</ele><time>2026-05-02T16:37:56.552Z</time></trkpt><trkpt lat="42.3093867" lon="13.2951467"><ele>780.0</ele><time>2026-05-02T16:37:57.551Z</time></trkpt><trkpt lat="42.3093383" lon="13.2952783"><ele>779.0</ele><time>2026-05-02T16:37:58.551Z</time></trkpt><trkpt lat="42.309285" lon="13.2954117"><ele>778.0</ele><time>2026-05-02T16:37:59.552Z</time></trkpt><trkpt lat="42.3092367" lon="13.2955483"><ele>776.5999999999999</ele><time>2026-05-02T16:38:00.551Z</time></trkpt><trkpt lat="42.3091933" lon="13.29566"><ele>775.1999999999999</ele><time>2026-05-02T16:38:01.551Z</time></trkpt><trkpt lat="42.3091567" lon="13.2957517"><ele>773.8</ele><time>2026-05-02T16:38:02.551Z</time></trkpt><trkpt lat="42.30912" lon="13.295835"><ele>772.4</ele><time>2026-05-02T16:38:03.551Z</time></trkpt><trkpt lat="42.309055" lon="13.295945"><ele>771.0</ele><time>2026-05-02T16:38:04.551Z</time></trkpt><trkpt lat="42.3089883" lon="13.296065"><ele>771.0</ele><time>2026-05-02T16:38:05.552Z</time></trkpt><trkpt lat="42.3089183" lon="13.296195"><ele>771.0</ele><time>2026-05-02T16:38:06.551Z</time></trkpt><trkpt lat="42.30885" lon="13.2963383"><ele>771.0</ele><time>2026-05-02T16:38:07.551Z</time></trkpt><trkpt lat="42.30879" lon="13.29649"><ele>771.0</ele><time>2026-05-02T16:38:08.551Z</time></trkpt><trkpt lat="42.308735" lon="13.2966317"><ele>771.75</ele><time>2026-05-02T16:38:09.552Z</time></trkpt><trkpt lat="42.30868" lon="13.2967683"><ele>772.5</ele><time>2026-05-02T16:38:10.551Z</time></trkpt><trkpt lat="42.3086267" lon="13.296905"><ele>773.25</ele><time>2026-05-02T16:38:11.551Z</time></trkpt><trkpt lat="42.3085767" lon="13.29704"><ele>774.0</ele><time>2026-05-02T16:38:12.551Z</time></trkpt><trkpt lat="42.3085133" lon="13.2971633"><ele>773.4000000000001</ele><time>2026-05-02T16:38:13.552Z</time></trkpt><trkpt lat="42.30845" lon="13.2972717"><ele>772.8</ele><time>2026-05-02T16:38:14.552Z</time></trkpt><trkpt lat="42.3083883" lon="13.2973833"><ele>772.2</ele><time>2026-05-02T16:38:15.552Z</time></trkpt><trkpt lat="42.3083433" lon="13.29748"><ele>771.5999999999999</ele><time>2026-05-02T16:38:16.551Z</time></trkpt><trkpt lat="42.3083233" lon="13.2975917"><ele>771.0</ele><time>2026-05-02T16:38:17.552Z</time></trkpt><trkpt lat="42.308315" lon="13.2977233"><ele>771.0</ele><time>2026-05-02T16:38:18.552Z</time></trkpt><trkpt lat="42.308325" lon="13.2978617"><ele>771.0</ele><time>2026-05-02T16:38:19.552Z</time></trkpt><trkpt lat="42.308335" lon="13.2979733"><ele>771.0</ele><time>2026-05-02T16:38:20.552Z</time></trkpt><trkpt lat="42.308345" lon="13.2980733"><ele>771.0</ele><time>2026-05-02T16:38:21.552Z</time></trkpt><trkpt lat="42.3083583" lon="13.2982067"><ele>771.0</ele><time>2026-05-02T16:38:23.552Z</time></trkpt><trkpt lat="42.3083467" lon="13.2983067"><ele>771.0</ele><time>2026-05-02T16:38:25.552Z</time></trkpt><trkpt lat="42.30829" lon="13.2983583"><ele>770.5</ele><time>2026-05-02T16:38:28.552Z</time></trkpt><trkpt lat="42.3082083" lon="13.298455"><ele>770.0</ele><time>2026-05-02T16:38:50.551Z</time></trkpt><trkpt lat="42.3081567" lon="13.298505"><ele>769.5</ele><time>2026-05-02T16:38:51.552Z</time></trkpt><trkpt lat="42.308095" lon="13.2985467"><ele>769.0</ele><time>2026-05-02T16:38:52.551Z</time></trkpt><trkpt lat="42.3080233" lon="13.298565"><ele>768.5</ele><time>2026-05-02T16:38:53.551Z</time></trkpt><trkpt lat="42.3079367" lon="13.2985717"><ele>768.0</ele><time>2026-05-02T16:38:54.552Z</time></trkpt><trkpt lat="42.3078483" lon="13.2985717"><ele>768.9999999999999</ele><time>2026-05-02T16:38:55.552Z</time></trkpt><trkpt lat="42.3077683" lon="13.298585"><ele>770.0</ele><time>2026-05-02T16:38:56.552Z</time></trkpt><trkpt lat="42.3077017" lon="13.2986133"><ele>771.0</ele><time>2026-05-02T16:38:57.552Z</time></trkpt><trkpt lat="42.3076417" lon="13.2986533"><ele>772.0</ele><time>2026-05-02T16:38:58.551Z</time></trkpt><trkpt lat="42.307585" lon="13.2987183"><ele>773.0</ele><time>2026-05-02T16:38:59.551Z</time></trkpt><trkpt lat="42.307535" lon="13.29879"><ele>773.9999999999999</ele><time>2026-05-02T16:39:00.551Z</time></trkpt><trkpt lat="42.3075017" lon="13.29887"><ele>775.0</ele><time>2026-05-02T16:39:01.552Z</time></trkpt><trkpt lat="42.307485" lon="13.2989617"><ele>775.1666666666666</ele><time>2026-05-02T16:39:02.551Z</time></trkpt><trkpt lat="42.3074617" lon="13.2990667"><ele>775.3333333333333</ele><time>2026-05-02T16:39:03.552Z</time></trkpt><trkpt lat="42.307435" lon="13.2991633"><ele>775.5</ele><time>2026-05-02T16:39:04.551Z</time></trkpt><trkpt lat="42.3074" lon="13.2992367"><ele>775.6666666666667</ele><time>2026-05-02T16:39:05.552Z</time></trkpt><trkpt lat="42.3073133" lon="13.2992833"><ele>775.8333333333334</ele><time>2026-05-02T16:39:07.551Z</time></trkpt><trkpt lat="42.30724" lon="13.2992867"><ele>776.0</ele><time>2026-05-02T16:39:08.552Z</time></trkpt><trkpt lat="42.30716" lon="13.29928"><ele>776.0</ele><time>2026-05-02T16:39:09.552Z</time></trkpt><trkpt lat="42.3070817" lon="13.29927"><ele>776.0</ele><time>2026-05-02T16:39:10.551Z</time></trkpt><trkpt lat="42.30697" lon="13.2992483"><ele>776.0</ele><time>2026-05-02T16:39:12.551Z</time></trkpt><trkpt lat="42.3068933" lon="13.29931"><ele>776.0</ele><time>2026-05-02T16:39:14.551Z</time></trkpt><trkpt lat="42.3068217" lon="13.2994167"><ele>776.0</ele><time>2026-05-02T16:39:16.552Z</time></trkpt><trkpt lat="42.3067467" lon="13.2994317"><ele>776.0</ele><time>2026-05-02T16:39:18.551Z</time></trkpt><trkpt lat="42.30666" lon="13.299425"><ele>776.0</ele><time>2026-05-02T16:39:20.551Z</time></trkpt><trkpt lat="42.3066117" lon="13.29948"><ele>776.0</ele><time>2026-05-02T16:39:22.551Z</time></trkpt><trkpt lat="42.3065867" lon="13.2995883"><ele>776.0</ele><time>2026-05-02T16:39:24.552Z</time></trkpt><trkpt lat="42.3065133" lon="13.2997067"><ele>776.0</ele><time>2026-05-02T16:39:26.551Z</time></trkpt><trkpt lat="42.306405" lon="13.2997933"><ele>776.1999999999999</ele><time>2026-05-02T16:39:28.551Z</time></trkpt><trkpt lat="42.3062967" lon="13.2998683"><ele>776.4</ele><time>2026-05-02T16:39:30.552Z</time></trkpt><trkpt lat="42.3062417" lon="13.2999267"><ele>776.6</ele><time>2026-05-02T16:39:31.551Z</time></trkpt><trkpt lat="42.306165" lon="13.3000033"><ele>776.8</ele><time>2026-05-02T16:39:33.551Z</time></trkpt><trkpt lat="42.30607" lon="13.2999883"><ele>777.0</ele><time>2026-05-02T16:39:35.552Z</time></trkpt><trkpt lat="42.3059617" lon="13.299975"><ele>777.0</ele><time>2026-05-02T16:39:37.551Z</time></trkpt><trkpt lat="42.30585" lon="13.3000283"><ele>777.0</ele><time>2026-05-02T16:39:39.551Z</time></trkpt><trkpt lat="42.305745" lon="13.3001233"><ele>777.0</ele><time>2026-05-02T16:39:41.551Z</time></trkpt><trkpt lat="42.30568" lon="13.3001667"><ele>777.0</ele><time>2026-05-02T16:39:42.55Z</time></trkpt><trkpt lat="42.305585" lon="13.3002417"><ele>777.0</ele><time>2026-05-02T16:39:44.551Z</time></trkpt><trkpt lat="42.3054867" lon="13.3003417"><ele>777.4000000000001</ele><time>2026-05-02T16:39:46.551Z</time></trkpt><trkpt lat="42.3053933" lon="13.3003933"><ele>777.8000000000001</ele><time>2026-05-02T16:39:48.55Z</time></trkpt><trkpt lat="42.30528" lon="13.3004233"><ele>778.2</ele><time>2026-05-02T16:39:50.551Z</time></trkpt><trkpt lat="42.3051817" lon="13.3005017"><ele>778.6</ele><time>2026-05-02T16:39:52.55Z</time></trkpt><trkpt lat="42.3051283" lon="13.30055"><ele>779.0</ele><time>2026-05-02T16:39:53.55Z</time></trkpt><trkpt lat="42.3050417" lon="13.300635"><ele>779.0</ele><time>2026-05-02T16:39:54.551Z</time></trkpt><trkpt lat="42.3049533" lon="13.300705"><ele>779.0</ele><time>2026-05-02T16:39:55.551Z</time></trkpt><trkpt lat="42.3048683" lon="13.3007617"><ele>779.0</ele><time>2026-05-02T16:39:56.551Z</time></trkpt><trkpt lat="42.304785" lon="13.300825"><ele>779.0</ele><time>2026-05-02T16:39:57.551Z</time></trkpt><trkpt lat="42.304705" lon="13.300875"><ele>779.0</ele><time>2026-05-02T16:39:58.551Z</time></trkpt><trkpt lat="42.30464" lon="13.30091"><ele>779.1666666666667</ele><time>2026-05-02T16:39:59.551Z</time></trkpt><trkpt lat="42.3045133" lon="13.300905"><ele>779.3333333333334</ele><time>2026-05-02T16:40:01.55Z</time></trkpt><trkpt lat="42.30443" lon="13.300895"><ele>779.5</ele><time>2026-05-02T16:40:02.551Z</time></trkpt><trkpt lat="42.30435" lon="13.30088"><ele>779.6666666666667</ele><time>2026-05-02T16:40:03.551Z</time></trkpt><trkpt lat="42.30428" lon="13.30089"><ele>779.8333333333334</ele><time>2026-05-02T16:40:04.551Z</time></trkpt><trkpt lat="42.30421" lon="13.3009317"><ele>780.0</ele><time>2026-05-02T16:40:05.551Z</time></trkpt><trkpt lat="42.30416" lon="13.3009983"><ele>780.0</ele><time>2026-05-02T16:40:06.55Z</time></trkpt><trkpt lat="42.304105" lon="13.3010883"><ele>780.0</ele><time>2026-05-02T16:40:07.551Z</time></trkpt><trkpt lat="42.3040367" lon="13.3011933"><ele>780.0</ele><time>2026-05-02T16:40:08.551Z</time></trkpt><trkpt lat="42.3039683" lon="13.3012833"><ele>780.0</ele><time>2026-05-02T16:40:09.551Z</time></trkpt><trkpt lat="42.3039017" lon="13.3013517"><ele>780.0</ele><time>2026-05-02T16:40:10.551Z</time></trkpt><trkpt lat="42.30384" lon="13.3013917"><ele>780.0</ele><time>2026-05-02T16:40:11.551Z</time></trkpt><trkpt lat="42.303725" lon="13.301405"><ele>781.0</ele><time>2026-05-02T16:40:13.551Z</time></trkpt><trkpt lat="42.303655" lon="13.3013817"><ele>782.0</ele><time>2026-05-02T16:40:14.55Z</time></trkpt><trkpt lat="42.30354" lon="13.3013733"><ele>783.0</ele><time>2026-05-02T16:40:16.551Z</time></trkpt><trkpt lat="42.3034283" lon="13.3014567"><ele>784.0</ele><time>2026-05-02T16:40:18.55Z</time></trkpt><trkpt lat="42.3033183" lon="13.30152"><ele>785.0</ele><time>2026-05-02T16:40:20.551Z</time></trkpt><trkpt lat="42.303225" lon="13.3015183"><ele>785.0000000000001</ele><time>2026-05-02T16:40:22.551Z</time></trkpt><trkpt lat="42.3031583" lon="13.3015083"><ele>785.0</ele><time>2026-05-02T16:40:23.551Z</time></trkpt><trkpt lat="42.3030883" lon="13.3015033"><ele>785.0</ele><time>2026-05-02T16:40:24.551Z</time></trkpt><trkpt lat="42.303005" lon="13.30152"><ele>785.0</ele><time>2026-05-02T16:40:25.551Z</time></trkpt><trkpt lat="42.3029117" lon="13.3015583"><ele>785.0000000000001</ele><time>2026-05-02T16:40:26.55Z</time></trkpt><trkpt lat="42.3028267" lon="13.3015883"><ele>785.0</ele><time>2026-05-02T16:40:27.55Z</time></trkpt><trkpt lat="42.3027467" lon="13.3016267"><ele>785.3333333333334</ele><time>2026-05-02T16:40:28.551Z</time></trkpt><trkpt lat="42.3026717" lon="13.30165"><ele>785.6666666666667</ele><time>2026-05-02T16:40:29.551Z</time></trkpt><trkpt lat="42.302595" lon="13.30166"><ele>786.0</ele><time>2026-05-02T16:40:30.55Z</time></trkpt><trkpt lat="42.3025217" lon="13.3016483"><ele>786.3333333333333</ele><time>2026-05-02T16:40:31.551Z</time></trkpt><trkpt lat="42.30245" lon="13.30164"><ele>786.6666666666666</ele><time>2026-05-02T16:40:32.55Z</time></trkpt><trkpt lat="42.3023483" lon="13.301675"><ele>787.0</ele><time>2026-05-02T16:40:34.55Z</time></trkpt><trkpt lat="42.30228" lon="13.3017267"><ele>786.9999999999999</ele><time>2026-05-02T16:40:35.55Z</time></trkpt><trkpt lat="42.3022133" lon="13.3017783"><ele>787.0</ele><time>2026-05-02T16:40:36.551Z</time></trkpt><trkpt lat="42.3021417" lon="13.3018117"><ele>787.0</ele><time>2026-05-02T16:40:37.551Z</time></trkpt><trkpt lat="42.3020467" lon="13.30185"><ele>787.0</ele><time>2026-05-02T16:40:39.55Z</time></trkpt><trkpt lat="42.3019833" lon="13.3019183"><ele>786.9999999999999</ele><time>2026-05-02T16:40:41.55Z</time></trkpt><trkpt lat="42.3019117" lon="13.30203"><ele>787.0</ele><time>2026-05-02T16:40:43.55Z</time></trkpt><trkpt lat="42.3018633" lon="13.3021717"><ele>788.6</ele><time>2026-05-02T16:40:45.55Z</time></trkpt><trkpt lat="42.301815" lon="13.3022767"><ele>790.2</ele><time>2026-05-02T16:40:47.551Z</time></trkpt><trkpt lat="42.3018917" lon="13.3022883"><ele>791.8</ele><time>2026-05-02T16:40:52.551Z</time></trkpt><trkpt lat="42.3020067" lon="13.302365"><ele>793.4</ele><time>2026-05-02T16:40:54.55Z</time></trkpt><trkpt lat="42.3020533" lon="13.3024517"><ele>795.0</ele><time>2026-05-02T16:40:55.55Z</time></trkpt><trkpt lat="42.30211" lon="13.3025467"><ele>795.0</ele><time>2026-05-02T16:40:56.55Z</time></trkpt><trkpt lat="42.302175" lon="13.3026167"><ele>795.0</ele><time>2026-05-02T16:40:57.55Z</time></trkpt><trkpt lat="42.302255" lon="13.30266"><ele>795.0</ele><time>2026-05-02T16:40:58.55Z</time></trkpt><trkpt lat="42.3023417" lon="13.3026983"><ele>795.0</ele><time>2026-05-02T16:40:59.551Z</time></trkpt><trkpt lat="42.3024333" lon="13.3027383"><ele>795.0</ele><time>2026-05-02T16:41:00.551Z</time></trkpt><trkpt lat="42.3025217" lon="13.3027817"><ele>794.6</ele><time>2026-05-02T16:41:01.551Z</time></trkpt><trkpt lat="42.3026067" lon="13.3028233"><ele>794.2</ele><time>2026-05-02T16:41:02.551Z</time></trkpt><trkpt lat="42.3026983" lon="13.3028583"><ele>793.8</ele><time>2026-05-02T16:41:03.551Z</time></trkpt><trkpt lat="42.3028017" lon="13.3028767"><ele>793.4</ele><time>2026-05-02T16:41:04.55Z</time></trkpt><trkpt lat="42.3029133" lon="13.302875"><ele>793.0</ele><time>2026-05-02T16:41:05.551Z</time></trkpt><trkpt lat="42.303035" lon="13.3028517"><ele>793.0</ele><time>2026-05-02T16:41:06.55Z</time></trkpt><trkpt lat="42.3031617" lon="13.3028267"><ele>793.0</ele><time>2026-05-02T16:41:07.551Z</time></trkpt><trkpt lat="42.3032917" lon="13.3028"><ele>793.0</ele><time>2026-05-02T16:41:08.551Z</time></trkpt><trkpt lat="42.3034183" lon="13.3027683"><ele>793.0</ele><time>2026-05-02T16:41:09.55Z</time></trkpt><trkpt lat="42.3035367" lon="13.3027417"><ele>793.0</ele><time>2026-05-02T16:41:10.551Z</time></trkpt><trkpt lat="42.30366" lon="13.30273"><ele>793.0</ele><time>2026-05-02T16:41:11.551Z</time></trkpt><trkpt lat="42.3037917" lon="13.3027217"><ele>793.0</ele><time>2026-05-02T16:41:12.55Z</time></trkpt><trkpt lat="42.303935" lon="13.302745"><ele>793.0</ele><time>2026-05-02T16:41:13.551Z</time></trkpt><trkpt lat="42.304085" lon="13.3027683"><ele>794.0</ele><time>2026-05-02T16:41:14.55Z</time></trkpt><trkpt lat="42.3042267" lon="13.3027917"><ele>795.0</ele><time>2026-05-02T16:41:15.551Z</time></trkpt><trkpt lat="42.3043717" lon="13.3028133"><ele>796.0</ele><time>2026-05-02T16:41:16.551Z</time></trkpt><trkpt lat="42.3045183" lon="13.3028117"><ele>797.0</ele><time>2026-05-02T16:41:17.551Z</time></trkpt><trkpt lat="42.30468" lon="13.30277"><ele>799.3333333333334</ele><time>2026-05-02T16:41:18.551Z</time></trkpt><trkpt lat="42.3048367" lon="13.3026917"><ele>801.6666666666667</ele><time>2026-05-02T16:41:19.551Z</time></trkpt><trkpt lat="42.3049833" lon="13.3026233"><ele>804.0</ele><time>2026-05-02T16:41:20.551Z</time></trkpt><trkpt lat="42.30513" lon="13.3025733"><ele>804.0</ele><time>2026-05-02T16:41:21.55Z</time></trkpt><trkpt lat="42.3052783" lon="13.3025267"><ele>804.0</ele><time>2026-05-02T16:41:22.551Z</time></trkpt><trkpt lat="42.3054183" lon="13.3024833"><ele>804.0</ele><time>2026-05-02T16:41:23.55Z</time></trkpt><trkpt lat="42.3055667" lon="13.3024383"><ele>804.0</ele><time>2026-05-02T16:41:24.551Z</time></trkpt><trkpt lat="42.3057267" lon="13.3024067"><ele>804.6666666666667</ele><time>2026-05-02T16:41:25.551Z</time></trkpt><trkpt lat="42.3059067" lon="13.3023667"><ele>805.3333333333334</ele><time>2026-05-02T16:41:26.55Z</time></trkpt><trkpt lat="42.3060917" lon="13.3023083"><ele>806.0</ele><time>2026-05-02T16:41:27.55Z</time></trkpt><trkpt lat="42.30628" lon="13.3022433"><ele>803.0</ele><time>2026-05-02T16:41:28.551Z</time></trkpt><trkpt lat="42.30646" lon="13.302165"><ele>800.0</ele><time>2026-05-02T16:41:29.55Z</time></trkpt><trkpt lat="42.3066317" lon="13.3020867"><ele>797.0</ele><time>2026-05-02T16:41:30.55Z</time></trkpt><trkpt lat="42.306805" lon="13.302005"><ele>797.0</ele><time>2026-05-02T16:41:31.55Z</time></trkpt><trkpt lat="42.3069833" lon="13.3019367"><ele>797.0</ele><time>2026-05-02T16:41:32.551Z</time></trkpt><trkpt lat="42.3071633" lon="13.3018817"><ele>797.0</ele><time>2026-05-02T16:41:33.55Z</time></trkpt><trkpt lat="42.3073333" lon="13.30183"><ele>798.0</ele><time>2026-05-02T16:41:34.551Z</time></trkpt><trkpt lat="42.3074983" lon="13.3017867"><ele>799.0</ele><time>2026-05-02T16:41:35.551Z</time></trkpt><trkpt lat="42.307655" lon="13.301755"><ele>800.0</ele><time>2026-05-02T16:41:36.551Z</time></trkpt><trkpt lat="42.3078067" lon="13.3016967"><ele>800.0</ele><time>2026-05-02T16:41:37.551Z</time></trkpt><trkpt lat="42.3079467" lon="13.30163"><ele>800.0</ele><time>2026-05-02T16:41:38.55Z</time></trkpt><trkpt lat="42.308075" lon="13.3015333"><ele>800.0</ele><time>2026-05-02T16:41:39.55Z</time></trkpt><trkpt lat="42.3081883" lon="13.3014183"><ele>800.0</ele><time>2026-05-02T16:41:40.55Z</time></trkpt><trkpt lat="42.3082967" lon="13.30126"><ele>799.25</ele><time>2026-05-02T16:41:41.551Z</time></trkpt><trkpt lat="42.3084033" lon="13.30111"><ele>798.5</ele><time>2026-05-02T16:41:42.551Z</time></trkpt><trkpt lat="42.3085083" lon="13.30098"><ele>797.75</ele><time>2026-05-02T16:41:43.55Z</time></trkpt><trkpt lat="42.308615" lon="13.3008517"><ele>797.0</ele><time>2026-05-02T16:41:44.55Z</time></trkpt><trkpt lat="42.3087183" lon="13.300735"><ele>797.0</ele><time>2026-05-02T16:41:45.55Z</time></trkpt><trkpt lat="42.3088367" lon="13.30064"><ele>797.0</ele><time>2026-05-02T16:41:46.55Z</time></trkpt><trkpt lat="42.3089733" lon="13.3005517"><ele>797.0</ele><time>2026-05-02T16:41:47.551Z</time></trkpt><trkpt lat="42.3091217" lon="13.300475"><ele>797.0</ele><time>2026-05-02T16:41:48.551Z</time></trkpt><trkpt lat="42.3092717" lon="13.3004083"><ele>796.5</ele><time>2026-05-02T16:41:49.55Z</time></trkpt><trkpt lat="42.30942" lon="13.30035"><ele>796.0</ele><time>2026-05-02T16:41:50.551Z</time></trkpt><trkpt lat="42.3095633" lon="13.3003"><ele>795.5</ele><time>2026-05-02T16:41:51.55Z</time></trkpt><trkpt lat="42.3097017" lon="13.3002583"><ele>795.0</ele><time>2026-05-02T16:41:52.55Z</time></trkpt><trkpt lat="42.3098317" lon="13.3002183"><ele>798.25</ele><time>2026-05-02T16:41:53.55Z</time></trkpt><trkpt lat="42.3099517" lon="13.30017"><ele>801.5</ele><time>2026-05-02T16:41:54.55Z</time></trkpt><trkpt lat="42.310045" lon="13.3001017"><ele>804.75</ele><time>2026-05-02T16:41:55.55Z</time></trkpt><trkpt lat="42.3101217" lon="13.300005"><ele>808.0</ele><time>2026-05-02T16:41:56.55Z</time></trkpt><trkpt lat="42.31019" lon="13.2998633"><ele>807.0</ele><time>2026-05-02T16:41:57.551Z</time></trkpt><trkpt lat="42.310245" lon="13.299725"><ele>806.0</ele><time>2026-05-02T16:41:58.551Z</time></trkpt><trkpt lat="42.31031" lon="13.29958"><ele>805.0</ele><time>2026-05-02T16:41:59.55Z</time></trkpt><trkpt lat="42.31038" lon="13.2994567"><ele>804.0</ele><time>2026-05-02T16:42:00.551Z</time></trkpt><trkpt lat="42.310465" lon="13.2993433"><ele>804.0</ele><time>2026-05-02T16:42:01.551Z</time></trkpt><trkpt lat="42.3105667" lon="13.2992533"><ele>804.0</ele><time>2026-05-02T16:42:02.551Z</time></trkpt><trkpt lat="42.3106733" lon="13.2991683"><ele>804.0</ele><time>2026-05-02T16:42:03.551Z</time></trkpt><trkpt lat="42.3107767" lon="13.2990933"><ele>804.0</ele><time>2026-05-02T16:42:04.551Z</time></trkpt><trkpt lat="42.3108717" lon="13.2990217"><ele>805.2</ele><time>2026-05-02T16:42:05.551Z</time></trkpt><trkpt lat="42.310955" lon="13.2989567"><ele>806.4000000000001</ele><time>2026-05-02T16:42:06.551Z</time></trkpt><trkpt lat="42.31104" lon="13.2988817"><ele>807.6</ele><time>2026-05-02T16:42:07.551Z</time></trkpt><trkpt lat="42.3111217" lon="13.2988083"><ele>808.8</ele><time>2026-05-02T16:42:08.551Z</time></trkpt><trkpt lat="42.3112017" lon="13.298745"><ele>810.0</ele><time>2026-05-02T16:42:09.55Z</time></trkpt><trkpt lat="42.3112733" lon="13.2986883"><ele>810.0</ele><time>2026-05-02T16:42:10.55Z</time></trkpt><trkpt lat="42.3113533" lon="13.2986417"><ele>810.0</ele><time>2026-05-02T16:42:11.551Z</time></trkpt><trkpt lat="42.3114317" lon="13.2985833"><ele>810.0</ele><time>2026-05-02T16:42:12.55Z</time></trkpt><trkpt lat="42.3115067" lon="13.2985217"><ele>810.0</ele><time>2026-05-02T16:42:13.551Z</time></trkpt><trkpt lat="42.3115833" lon="13.2984733"><ele>810.0</ele><time>2026-05-02T16:42:14.551Z</time></trkpt><trkpt lat="42.3116617" lon="13.2984333"><ele>810.0</ele><time>2026-05-02T16:42:15.55Z</time></trkpt><trkpt lat="42.3117517" lon="13.29839"><ele>810.4</ele><time>2026-05-02T16:42:16.55Z</time></trkpt><trkpt lat="42.3118383" lon="13.2983383"><ele>810.8</ele><time>2026-05-02T16:42:17.551Z</time></trkpt><trkpt lat="42.311925" lon="13.29829"><ele>811.2</ele><time>2026-05-02T16:42:18.55Z</time></trkpt><trkpt lat="42.3120117" lon="13.2982567"><ele>811.6</ele><time>2026-05-02T16:42:19.551Z</time></trkpt><trkpt lat="42.3121067" lon="13.2982367"><ele>812.0</ele><time>2026-05-02T16:42:20.55Z</time></trkpt><trkpt lat="42.3122083" lon="13.2982083"><ele>811.8</ele><time>2026-05-02T16:42:21.551Z</time></trkpt><trkpt lat="42.3123133" lon="13.2981883"><ele>811.6</ele><time>2026-05-02T16:42:22.55Z</time></trkpt><trkpt lat="42.312425" lon="13.298175"><ele>811.4</ele><time>2026-05-02T16:42:23.551Z</time></trkpt><trkpt lat="42.31253" lon="13.2981583"><ele>811.1999999999999</ele><time>2026-05-02T16:42:24.551Z</time></trkpt><trkpt lat="42.3126267" lon="13.2981483"><ele>811.0</ele><time>2026-05-02T16:42:25.551Z</time></trkpt><trkpt lat="42.3127233" lon="13.2981383"><ele>810.9999999999999</ele><time>2026-05-02T16:42:26.55Z</time></trkpt><trkpt lat="42.3128133" lon="13.2981283"><ele>811.0</ele><time>2026-05-02T16:42:27.55Z</time></trkpt><trkpt lat="42.31289" lon="13.2981267"><ele>811.0</ele><time>2026-05-02T16:42:28.551Z</time></trkpt><trkpt lat="42.312965" lon="13.29812"><ele>811.0</ele><time>2026-05-02T16:42:29.551Z</time></trkpt><trkpt lat="42.3130367" lon="13.29812"><ele>810.9999999999999</ele><time>2026-05-02T16:42:30.55Z</time></trkpt><trkpt lat="42.313105" lon="13.2981183"><ele>811.0</ele><time>2026-05-02T16:42:31.55Z</time></trkpt><trkpt lat="42.3131817" lon="13.29809"><ele>810.4999999999999</ele><time>2026-05-02T16:42:32.55Z</time></trkpt><trkpt lat="42.3132517" lon="13.2980533"><ele>810.0</ele><time>2026-05-02T16:42:33.551Z</time></trkpt><trkpt lat="42.3133317" lon="13.29801"><ele>809.5</ele><time>2026-05-02T16:42:34.55Z</time></trkpt><trkpt lat="42.3134033" lon="13.297975"><ele>809.0</ele><time>2026-05-02T16:42:35.55Z</time></trkpt><trkpt lat="42.3134717" lon="13.2979367"><ele>808.4999999999999</ele><time>2026-05-02T16:42:36.551Z</time></trkpt><trkpt lat="42.31353" lon="13.2978883"><ele>808.0</ele><time>2026-05-02T16:42:37.551Z</time></trkpt><trkpt lat="42.3135933" lon="13.2978433"><ele>807.9999999999999</ele><time>2026-05-02T16:42:38.551Z</time></trkpt><trkpt lat="42.3136567" lon="13.2977967"><ele>808.0</ele><time>2026-05-02T16:42:39.55Z</time></trkpt><trkpt lat="42.3137183" lon="13.2977483"><ele>808.0</ele><time>2026-05-02T16:42:40.551Z</time></trkpt><trkpt lat="42.313795" lon="13.29771"><ele>808.0</ele><time>2026-05-02T16:42:41.551Z</time></trkpt><trkpt lat="42.3138783" lon="13.29767"><ele>807.9999999999999</ele><time>2026-05-02T16:42:42.551Z</time></trkpt><trkpt lat="42.3139583" lon="13.297645"><ele>808.0</ele><time>2026-05-02T16:42:43.55Z</time></trkpt><trkpt lat="42.3140217" lon="13.2976367"><ele>807.4</ele><time>2026-05-02T16:42:44.551Z</time></trkpt><trkpt lat="42.3140967" lon="13.2977383"><ele>806.8</ele><time>2026-05-02T16:42:46.551Z</time></trkpt><trkpt lat="42.3141183" lon="13.29783"><ele>806.2</ele><time>2026-05-02T16:42:47.551Z</time></trkpt><trkpt lat="42.3141367" lon="13.29796"><ele>805.6</ele><time>2026-05-02T16:42:48.55Z</time></trkpt><trkpt lat="42.3141567" lon="13.298105"><ele>805.0</ele><time>2026-05-02T16:42:49.55Z</time></trkpt><trkpt lat="42.3141767" lon="13.2982467"><ele>805.0</ele><time>2026-05-02T16:42:50.551Z</time></trkpt><trkpt lat="42.3142" lon="13.29838"><ele>805.0</ele><time>2026-05-02T16:42:51.551Z</time></trkpt><trkpt lat="42.314225" lon="13.2985167"><ele>805.0</ele><time>2026-05-02T16:42:52.551Z</time></trkpt><trkpt lat="42.3142667" lon="13.2986617"><ele>805.0</ele><time>2026-05-02T16:42:53.551Z</time></trkpt><trkpt lat="42.314305" lon="13.298815"><ele>805.0</ele><time>2026-05-02T16:42:54.55Z</time></trkpt><trkpt lat="42.3143333" lon="13.2989567"><ele>804.0</ele><time>2026-05-02T16:42:55.55Z</time></trkpt><trkpt lat="42.3143633" lon="13.2990867"><ele>803.0</ele><time>2026-05-02T16:42:56.55Z</time></trkpt><trkpt lat="42.3144" lon="13.2991867"><ele>802.0</ele><time>2026-05-02T16:42:57.551Z</time></trkpt><trkpt lat="42.3144417" lon="13.2992583"><ele>801.0</ele><time>2026-05-02T16:42:58.551Z</time></trkpt><trkpt lat="42.3145183" lon="13.299325"><ele>800.0</ele><time>2026-05-02T16:42:59.55Z</time></trkpt><trkpt lat="42.3146217" lon="13.2993683"><ele>798.0</ele><time>2026-05-02T16:43:00.551Z</time></trkpt><trkpt lat="42.31476" lon="13.2994"><ele>796.0</ele><time>2026-05-02T16:43:01.551Z</time></trkpt><trkpt lat="42.3149117" lon="13.2994217"><ele>794.0</ele><time>2026-05-02T16:43:02.55Z</time></trkpt><trkpt lat="42.31506" lon="13.2994333"><ele>792.0</ele><time>2026-05-02T16:43:03.55Z</time></trkpt><trkpt lat="42.3152033" lon="13.2994417"><ele>792.0</ele><time>2026-05-02T16:43:04.55Z</time></trkpt><trkpt lat="42.31534" lon="13.2994467"><ele>792.0</ele><time>2026-05-02T16:43:05.551Z</time></trkpt><trkpt lat="42.315455" lon="13.29946"><ele>792.0</ele><time>2026-05-02T16:43:06.55Z</time></trkpt><trkpt lat="42.3155583" lon="13.2994867"><ele>792.0</ele><time>2026-05-02T16:43:07.551Z</time></trkpt><trkpt lat="42.315665" lon="13.299525"><ele>791.0</ele><time>2026-05-02T16:43:08.551Z</time></trkpt><trkpt lat="42.31577" lon="13.29959"><ele>790.0</ele><time>2026-05-02T16:43:09.551Z</time></trkpt><trkpt lat="42.3158567" lon="13.299695"><ele>789.0</ele><time>2026-05-02T16:43:10.55Z</time></trkpt><trkpt lat="42.3159483" lon="13.2998"><ele>788.0</ele><time>2026-05-02T16:43:11.55Z</time></trkpt><trkpt lat="42.3160567" lon="13.2998883"><ele>788.0</ele><time>2026-05-02T16:43:12.55Z</time></trkpt><trkpt lat="42.3161967" lon="13.29994"><ele>788.0</ele><time>2026-05-02T16:43:13.551Z</time></trkpt><trkpt lat="42.31635" lon="13.2999667"><ele>788.0</ele><time>2026-05-02T16:43:14.551Z</time></trkpt><trkpt lat="42.3165133" lon="13.299965"><ele>789.0</ele><time>2026-05-02T16:43:15.551Z</time></trkpt><trkpt lat="42.316685" lon="13.299955"><ele>790.0</ele><time>2026-05-02T16:43:16.55Z</time></trkpt><trkpt lat="42.3168533" lon="13.2999567"><ele>791.0</ele><time>2026-05-02T16:43:17.55Z</time></trkpt><trkpt lat="42.31703" lon="13.2999583"><ele>791.0</ele><time>2026-05-02T16:43:18.55Z</time></trkpt><trkpt lat="42.317215" lon="13.2999633"><ele>791.0</ele><time>2026-05-02T16:43:19.551Z</time></trkpt><trkpt lat="42.3173867" lon="13.29997"><ele>791.0</ele><time>2026-05-02T16:43:20.55Z</time></trkpt><trkpt lat="42.3175367" lon="13.2999717"><ele>791.4</ele><time>2026-05-02T16:43:21.551Z</time></trkpt><trkpt lat="42.3176783" lon="13.2999917"><ele>791.8</ele><time>2026-05-02T16:43:22.551Z</time></trkpt><trkpt lat="42.3177917" lon="13.3000283"><ele>792.1999999999999</ele><time>2026-05-02T16:43:23.551Z</time></trkpt><trkpt lat="42.3178767" lon="13.3000917"><ele>792.5999999999999</ele><time>2026-05-02T16:43:24.55Z</time></trkpt><trkpt lat="42.31794" lon="13.3001817"><ele>793.0</ele><time>2026-05-02T16:43:25.55Z</time></trkpt><trkpt lat="42.3180117" lon="13.300315"><ele>791.6666666666666</ele><time>2026-05-02T16:43:26.55Z</time></trkpt><trkpt lat="42.31809" lon="13.3004733"><ele>790.3333333333333</ele><time>2026-05-02T16:43:27.55Z</time></trkpt><trkpt lat="42.3181833" lon="13.3006317"><ele>789.0</ele><time>2026-05-02T16:43:28.551Z</time></trkpt><trkpt lat="42.3183017" lon="13.3007883"><ele>793.0</ele><time>2026-05-02T16:43:29.551Z</time></trkpt><trkpt lat="42.3184283" lon="13.300915"><ele>797.0</ele><time>2026-05-02T16:43:30.551Z</time></trkpt><trkpt lat="42.3185483" lon="13.3010133"><ele>801.0</ele><time>2026-05-02T16:43:31.551Z</time></trkpt><trkpt lat="42.3186617" lon="13.3010933"><ele>805.0</ele><time>2026-05-02T16:43:32.551Z</time></trkpt><trkpt lat="42.3187567" lon="13.3011383"><ele>804.9999999999999</ele><time>2026-05-02T16:43:33.551Z</time></trkpt><trkpt lat="42.31883" lon="13.3011683"><ele>805.0</ele><time>2026-05-02T16:43:34.551Z</time></trkpt><trkpt lat="42.318895" lon="13.3012467"><ele>805.0</ele><time>2026-05-02T16:43:36.55Z</time></trkpt><trkpt lat="42.318885" lon="13.301365"><ele>805.0</ele><time>2026-05-02T16:43:38.551Z</time></trkpt><trkpt lat="42.3188617" lon="13.3014467"><ele>804.9999999999999</ele><time>2026-05-02T16:43:39.55Z</time></trkpt><trkpt lat="42.3188233" lon="13.30154"><ele>805.0</ele><time>2026-05-02T16:43:40.551Z</time></trkpt><trkpt lat="42.3187733" lon="13.30164"><ele>805.5</ele><time>2026-05-02T16:43:41.551Z</time></trkpt><trkpt lat="42.3187017" lon="13.301765"><ele>806.0</ele><time>2026-05-02T16:43:42.551Z</time></trkpt><trkpt lat="42.3186333" lon="13.3019183"><ele>806.5</ele><time>2026-05-02T16:43:43.55Z</time></trkpt><trkpt lat="42.3185667" lon="13.30209"><ele>807.0</ele><time>2026-05-02T16:43:44.55Z</time></trkpt><trkpt lat="42.3184967" lon="13.302265"><ele>807.0</ele><time>2026-05-02T16:43:45.551Z</time></trkpt><trkpt lat="42.3184117" lon="13.3024533"><ele>807.0</ele><time>2026-05-02T16:43:46.55Z</time></trkpt><trkpt lat="42.3183317" lon="13.3026233"><ele>807.0</ele><time>2026-05-02T16:43:47.55Z</time></trkpt><trkpt lat="42.318265" lon="13.30279"><ele>807.0</ele><time>2026-05-02T16:43:48.551Z</time></trkpt><trkpt lat="42.3182033" lon="13.3029733"><ele>807.0</ele><time>2026-05-02T16:43:49.55Z</time></trkpt><trkpt lat="42.31814" lon="13.3031883"><ele>807.0</ele><time>2026-05-02T16:43:50.551Z</time></trkpt><trkpt lat="42.318075" lon="13.3034017"><ele>811.0</ele><time>2026-05-02T16:43:51.551Z</time></trkpt><trkpt lat="42.3180083" lon="13.3036133"><ele>815.0</ele><time>2026-05-02T16:43:52.55Z</time></trkpt><trkpt lat="42.317945" lon="13.3038083"><ele>819.0</ele><time>2026-05-02T16:43:53.551Z</time></trkpt><trkpt lat="42.317885" lon="13.3039967"><ele>819.0</ele><time>2026-05-02T16:43:54.55Z</time></trkpt><trkpt lat="42.317835" lon="13.3041683"><ele>819.0</ele><time>2026-05-02T16:43:55.55Z</time></trkpt><trkpt lat="42.31779" lon="13.304335"><ele>819.0</ele><time>2026-05-02T16:43:56.551Z</time></trkpt><trkpt lat="42.3177317" lon="13.3044933"><ele>819.0</ele><time>2026-05-02T16:43:57.55Z</time></trkpt><trkpt lat="42.317665" lon="13.304655"><ele>818.0</ele><time>2026-05-02T16:43:58.551Z</time></trkpt><trkpt lat="42.3175967" lon="13.3048067"><ele>817.0</ele><time>2026-05-02T16:43:59.551Z</time></trkpt><trkpt lat="42.3175233" lon="13.3049517"><ele>816.0</ele><time>2026-05-02T16:44:00.551Z</time></trkpt><trkpt lat="42.3174483" lon="13.3050817"><ele>815.0</ele><time>2026-05-02T16:44:01.55Z</time></trkpt><trkpt lat="42.3173783" lon="13.3052167"><ele>815.0</ele><time>2026-05-02T16:44:02.55Z</time></trkpt><trkpt lat="42.3173083" lon="13.3053433"><ele>815.0</ele><time>2026-05-02T16:44:03.551Z</time></trkpt><trkpt lat="42.3172583" lon="13.30547"><ele>815.0</ele><time>2026-05-02T16:44:04.551Z</time></trkpt><trkpt lat="42.3172167" lon="13.3055983"><ele>815.0</ele><time>2026-05-02T16:44:05.551Z</time></trkpt><trkpt lat="42.3171883" lon="13.3057517"><ele>815.0</ele><time>2026-05-02T16:44:06.551Z</time></trkpt><trkpt lat="42.3171667" lon="13.305935"><ele>816.6666666666667</ele><time>2026-05-02T16:44:07.55Z</time></trkpt><trkpt lat="42.3171533" lon="13.3061433"><ele>818.3333333333333</ele><time>2026-05-02T16:44:08.55Z</time></trkpt><trkpt lat="42.31714" lon="13.3063417"><ele>820.0</ele><time>2026-05-02T16:44:09.551Z</time></trkpt><trkpt lat="42.317115" lon="13.3065483"><ele>820.0</ele><time>2026-05-02T16:44:10.55Z</time></trkpt><trkpt lat="42.3170933" lon="13.3067517"><ele>820.0</ele><time>2026-05-02T16:44:11.551Z</time></trkpt><trkpt lat="42.3170717" lon="13.3069683"><ele>820.0</ele><time>2026-05-02T16:44:12.551Z</time></trkpt><trkpt lat="42.31704" lon="13.3071833"><ele>820.75</ele><time>2026-05-02T16:44:13.55Z</time></trkpt><trkpt lat="42.3170083" lon="13.30738"><ele>821.5</ele><time>2026-05-02T16:44:14.551Z</time></trkpt><trkpt lat="42.316975" lon="13.307555"><ele>822.25</ele><time>2026-05-02T16:44:15.551Z</time></trkpt><trkpt lat="42.3169467" lon="13.3077183"><ele>823.0</ele><time>2026-05-02T16:44:16.549Z</time></trkpt><trkpt lat="42.3169133" lon="13.307855"><ele>823.0</ele><time>2026-05-02T16:44:17.549Z</time></trkpt><trkpt lat="42.3168533" lon="13.3079867"><ele>823.0</ele><time>2026-05-02T16:44:18.549Z</time></trkpt><trkpt lat="42.3167817" lon="13.3081183"><ele>823.0</ele><time>2026-05-02T16:44:19.55Z</time></trkpt><trkpt lat="42.3167017" lon="13.308255"><ele>823.0</ele><time>2026-05-02T16:44:20.55Z</time></trkpt><trkpt lat="42.3166267" lon="13.3083867"><ele>823.0</ele><time>2026-05-02T16:44:21.55Z</time></trkpt><trkpt lat="42.31656" lon="13.308505"><ele>823.0</ele><time>2026-05-02T16:44:22.55Z</time></trkpt><trkpt lat="42.3165017" lon="13.3086133"><ele>823.0</ele><time>2026-05-02T16:44:23.55Z</time></trkpt><trkpt lat="42.3164567" lon="13.3087383"><ele>823.0</ele><time>2026-05-02T16:44:24.549Z</time></trkpt><trkpt lat="42.3164083" lon="13.30887"><ele>823.0</ele><time>2026-05-02T16:44:25.549Z</time></trkpt><trkpt lat="42.3163567" lon="13.3090183"><ele>823.0</ele><time>2026-05-02T16:44:26.55Z</time></trkpt><trkpt lat="42.316275" lon="13.3091683"><ele>823.0</ele><time>2026-05-02T16:44:27.55Z</time></trkpt><trkpt lat="42.3161783" lon="13.3093217"><ele>823.0</ele><time>2026-05-02T16:44:28.55Z</time></trkpt><trkpt lat="42.3160867" lon="13.30947"><ele>823.0</ele><time>2026-05-02T16:44:29.55Z</time></trkpt><trkpt lat="42.3159983" lon="13.30961"><ele>824.6666666666666</ele><time>2026-05-02T16:44:30.55Z</time></trkpt><trkpt lat="42.3159117" lon="13.3097467"><ele>826.3333333333333</ele><time>2026-05-02T16:44:31.549Z</time></trkpt><trkpt lat="42.3157967" lon="13.30993"><ele>828.0</ele><time>2026-05-02T16:44:32.55Z</time></trkpt><trkpt lat="42.3157167" lon="13.310095"><ele>828.0</ele><time>2026-05-02T16:44:33.549Z</time></trkpt><trkpt lat="42.3156233" lon="13.310235"><ele>828.0</ele><time>2026-05-02T16:44:34.549Z</time></trkpt><trkpt lat="42.3155383" lon="13.3103583"><ele>828.0</ele><time>2026-05-02T16:44:35.549Z</time></trkpt><trkpt lat="42.3154633" lon="13.310495"><ele>828.0</ele><time>2026-05-02T16:44:36.55Z</time></trkpt><trkpt lat="42.3153967" lon="13.31062"><ele>829.4</ele><time>2026-05-02T16:44:37.549Z</time></trkpt><trkpt lat="42.31533" lon="13.3107283"><ele>830.8</ele><time>2026-05-02T16:44:38.549Z</time></trkpt><trkpt lat="42.315265" lon="13.3108233"><ele>832.2</ele><time>2026-05-02T16:44:39.549Z</time></trkpt><trkpt lat="42.31519" lon="13.31092"><ele>833.6</ele><time>2026-05-02T16:44:40.549Z</time></trkpt><trkpt lat="42.3151067" lon="13.3110183"><ele>835.0</ele><time>2026-05-02T16:44:41.55Z</time></trkpt><trkpt lat="42.31503" lon="13.3110967"><ele>834.9999999999999</ele><time>2026-05-02T16:44:42.549Z</time></trkpt><trkpt lat="42.3149667" lon="13.3111433"><ele>835.0</ele><time>2026-05-02T16:44:43.55Z</time></trkpt><trkpt lat="42.3149083" lon="13.3111817"><ele>835.0</ele><time>2026-05-02T16:44:44.55Z</time></trkpt><trkpt lat="42.3148433" lon="13.3112817"><ele>835.0</ele><time>2026-05-02T16:44:46.55Z</time></trkpt><trkpt lat="42.3148367" lon="13.31138"><ele>834.9999999999999</ele><time>2026-05-02T16:44:48.55Z</time></trkpt><trkpt lat="42.3149017" lon="13.3115067"><ele>835.0</ele><time>2026-05-02T16:44:50.55Z</time></trkpt><trkpt lat="42.3149533" lon="13.3115717"><ele>833.8333333333333</ele><time>2026-05-02T16:44:51.55Z</time></trkpt><trkpt lat="42.3150183" lon="13.3116483"><ele>832.6666666666666</ele><time>2026-05-02T16:44:52.55Z</time></trkpt><trkpt lat="42.31507" lon="13.3117083"><ele>831.5</ele><time>2026-05-02T16:44:53.549Z</time></trkpt><trkpt lat="42.3151267" lon="13.3117467"><ele>830.3333333333333</ele><time>2026-05-02T16:44:55.549Z</time></trkpt><trkpt lat="42.3151683" lon="13.3118333"><ele>829.1666666666666</ele><time>2026-05-02T16:45:21.549Z</time></trkpt><trkpt lat="42.3152283" lon="13.3119683"><ele>828.0</ele><time>2026-05-02T16:45:23.549Z</time></trkpt><trkpt lat="42.3152717" lon="13.3120617"><ele>828.0</ele><time>2026-05-02T16:45:24.55Z</time></trkpt><trkpt lat="42.3153467" lon="13.31218"><ele>828.0</ele><time>2026-05-02T16:45:25.549Z</time></trkpt><trkpt lat="42.315425" lon="13.3123117"><ele>828.0</ele><time>2026-05-02T16:45:26.55Z</time></trkpt><trkpt lat="42.3154967" lon="13.3124167"><ele>828.0</ele><time>2026-05-02T16:45:27.55Z</time></trkpt><trkpt lat="42.3155617" lon="13.3124883"><ele>828.0</ele><time>2026-05-02T16:45:28.55Z</time></trkpt><trkpt lat="42.31568" lon="13.3125467"><ele>828.6666666666666</ele><time>2026-05-02T16:45:30.549Z</time></trkpt><trkpt lat="42.3157583" lon="13.3125283"><ele>829.3333333333333</ele><time>2026-05-02T16:45:31.549Z</time></trkpt><trkpt lat="42.3158383" lon="13.3125233"><ele>830.0</ele><time>2026-05-02T16:45:32.55Z</time></trkpt><trkpt lat="42.31591" lon="13.3125317"><ele>830.6666666666666</ele><time>2026-05-02T16:45:33.549Z</time></trkpt><trkpt lat="42.3159733" lon="13.3125517"><ele>831.3333333333333</ele><time>2026-05-02T16:45:34.549Z</time></trkpt><trkpt lat="42.3160833" lon="13.3126283"><ele>832.0</ele><time>2026-05-02T16:45:36.55Z</time></trkpt><trkpt lat="42.3161583" lon="13.3126667"><ele>832.0</ele><time>2026-05-02T16:45:37.549Z</time></trkpt><trkpt lat="42.31624" lon="13.3127183"><ele>832.0</ele><time>2026-05-02T16:45:38.55Z</time></trkpt><trkpt lat="42.3163333" lon="13.312785"><ele>832.0</ele><time>2026-05-02T16:45:39.549Z</time></trkpt><trkpt lat="42.3164383" lon="13.3128533"><ele>832.0</ele><time>2026-05-02T16:45:40.549Z</time></trkpt><trkpt lat="42.3165533" lon="13.31292"><ele>832.0</ele><time>2026-05-02T16:45:41.55Z</time></trkpt><trkpt lat="42.3166583" lon="13.3129917"><ele>834.0</ele><time>2026-05-02T16:45:42.549Z</time></trkpt><trkpt lat="42.3167633" lon="13.313055"><ele>836.0</ele><time>2026-05-02T16:45:43.55Z</time></trkpt><trkpt lat="42.3168583" lon="13.3131033"><ele>838.0</ele><time>2026-05-02T16:45:44.55Z</time></trkpt><trkpt lat="42.3169467" lon="13.313145"><ele>840.0</ele><time>2026-05-02T16:45:45.55Z</time></trkpt><trkpt lat="42.3170267" lon="13.3131633"><ele>842.0</ele><time>2026-05-02T16:45:46.549Z</time></trkpt><trkpt lat="42.317115" lon="13.3131633"><ele>843.0000000000001</ele><time>2026-05-02T16:45:47.549Z</time></trkpt><trkpt lat="42.31719" lon="13.3131683"><ele>844.0</ele><time>2026-05-02T16:45:48.549Z</time></trkpt><trkpt lat="42.317255" lon="13.313175"><ele>845.0</ele><time>2026-05-02T16:45:49.55Z</time></trkpt><trkpt lat="42.3173167" lon="13.313215"><ele>846.0</ele><time>2026-05-02T16:45:50.55Z</time></trkpt><trkpt lat="42.3173833" lon="13.3132817"><ele>847.0000000000001</ele><time>2026-05-02T16:45:51.55Z</time></trkpt><trkpt lat="42.3174583" lon="13.3133717"><ele>848.0</ele><time>2026-05-02T16:45:52.549Z</time></trkpt><trkpt lat="42.317545" lon="13.31348"><ele>849.0</ele><time>2026-05-02T16:45:53.549Z</time></trkpt><trkpt lat="42.31764" lon="13.3135867"><ele>850.0</ele><time>2026-05-02T16:45:54.549Z</time></trkpt><trkpt lat="42.3177283" lon="13.31368"><ele>851.0</ele><time>2026-05-02T16:45:55.55Z</time></trkpt><trkpt lat="42.3178" lon="13.3137617"><ele>852.0</ele><time>2026-05-02T16:45:56.549Z</time></trkpt><trkpt lat="42.317865" lon="13.3138333"><ele>853.0</ele><time>2026-05-02T16:45:57.549Z</time></trkpt><trkpt lat="42.3179317" lon="13.313895"><ele>853.4999999999999</ele><time>2026-05-02T16:45:58.55Z</time></trkpt><trkpt lat="42.3179967" lon="13.3139533"><ele>854.0</ele><time>2026-05-02T16:45:59.549Z</time></trkpt><trkpt lat="42.3180583" lon="13.314005"><ele>854.5</ele><time>2026-05-02T16:46:00.549Z</time></trkpt><trkpt lat="42.31812" lon="13.314045"><ele>855.0</ele><time>2026-05-02T16:46:01.549Z</time></trkpt><trkpt lat="42.3182233" lon="13.31407"><ele>855.4999999999999</ele><time>2026-05-02T16:46:03.55Z</time></trkpt><trkpt lat="42.3182933" lon="13.3140783"><ele>856.0</ele><time>2026-05-02T16:46:06.549Z</time></trkpt><trkpt lat="42.3183883" lon="13.31405"><ele>855.9999999999999</ele><time>2026-05-02T16:46:08.55Z</time></trkpt><trkpt lat="42.3184467" lon="13.3139983"><ele>856.0</ele><time>2026-05-02T16:46:09.55Z</time></trkpt><trkpt lat="42.3185017" lon="13.3139217"><ele>856.0</ele><time>2026-05-02T16:46:10.549Z</time></trkpt><trkpt lat="42.3185517" lon="13.313845"><ele>856.0</ele><time>2026-05-02T16:46:11.549Z</time></trkpt><trkpt lat="42.318595" lon="13.31378"><ele>855.9999999999999</ele><time>2026-05-02T16:46:12.549Z</time></trkpt><trkpt lat="42.31869" lon="13.3137283"><ele>856.0</ele><time>2026-05-02T16:46:14.549Z</time></trkpt><trkpt lat="42.3187567" lon="13.313745"><ele>855.0</ele><time>2026-05-02T16:46:15.549Z</time></trkpt><trkpt lat="42.3188433" lon="13.3137833"><ele>854.0</ele><time>2026-05-02T16:46:16.55Z</time></trkpt><trkpt lat="42.3189417" lon="13.3138583"><ele>853.0</ele><time>2026-05-02T16:46:17.55Z</time></trkpt><trkpt lat="42.3190417" lon="13.3139483"><ele>852.0</ele><time>2026-05-02T16:46:18.55Z</time></trkpt><trkpt lat="42.31915" lon="13.3140367"><ele>850.75</ele><time>2026-05-02T16:46:19.55Z</time></trkpt><trkpt lat="42.319255" lon="13.3141267"><ele>849.5</ele><time>2026-05-02T16:46:20.55Z</time></trkpt><trkpt lat="42.319365" lon="13.3142133"><ele>848.25</ele><time>2026-05-02T16:46:21.549Z</time></trkpt><trkpt lat="42.31948" lon="13.3142983"><ele>847.0</ele><time>2026-05-02T16:46:22.549Z</time></trkpt><trkpt lat="42.3195917" lon="13.3143817"><ele>847.0</ele><time>2026-05-02T16:46:23.549Z</time></trkpt><trkpt lat="42.319705" lon="13.3144667"><ele>847.0</ele><time>2026-05-02T16:46:24.55Z</time></trkpt><trkpt lat="42.319815" lon="13.3145533"><ele>847.0</ele><time>2026-05-02T16:46:25.549Z</time></trkpt><trkpt lat="42.3199183" lon="13.3146433"><ele>847.0</ele><time>2026-05-02T16:46:26.549Z</time></trkpt><trkpt lat="42.32002" lon="13.3147233"><ele>845.2</ele><time>2026-05-02T16:46:27.549Z</time></trkpt><trkpt lat="42.32012" lon="13.3147967"><ele>843.4000000000001</ele><time>2026-05-02T16:46:28.55Z</time></trkpt><trkpt lat="42.3202233" lon="13.3148817"><ele>841.5999999999999</ele><time>2026-05-02T16:46:29.55Z</time></trkpt><trkpt lat="42.3203083" lon="13.3149617"><ele>839.8</ele><time>2026-05-02T16:46:30.55Z</time></trkpt><trkpt lat="42.32037" lon="13.3150367"><ele>838.0</ele><time>2026-05-02T16:46:31.549Z</time></trkpt><trkpt lat="42.320415" lon="13.3151083"><ele>837.9999999999999</ele><time>2026-05-02T16:46:32.549Z</time></trkpt><trkpt lat="42.32044" lon="13.3151933"><ele>838.0</ele><time>2026-05-02T16:46:33.55Z</time></trkpt><trkpt lat="42.3204417" lon="13.3152833"><ele>838.0</ele><time>2026-05-02T16:46:34.55Z</time></trkpt><trkpt lat="42.320415" lon="13.3154067"><ele>838.0</ele><time>2026-05-02T16:46:36.55Z</time></trkpt><trkpt lat="42.3203667" lon="13.3154633"><ele>838.0</ele><time>2026-05-02T16:46:39.549Z</time></trkpt><trkpt lat="42.3203133" lon="13.3155433"><ele>837.9999999999999</ele><time>2026-05-02T16:46:47.549Z</time></trkpt><trkpt lat="42.3202883" lon="13.3156317"><ele>838.0</ele><time>2026-05-02T16:46:48.549Z</time></trkpt><trkpt lat="42.3202667" lon="13.31574"><ele>837.8</ele><time>2026-05-02T16:46:49.55Z</time></trkpt><trkpt lat="42.32025" lon="13.315865"><ele>837.5999999999999</ele><time>2026-05-02T16:46:50.549Z</time></trkpt><trkpt lat="42.3202383" lon="13.3159867"><ele>837.4000000000001</ele><time>2026-05-02T16:46:51.549Z</time></trkpt><trkpt lat="42.3202233" lon="13.316085"><ele>837.2</ele><time>2026-05-02T16:46:52.55Z</time></trkpt><trkpt lat="42.3201933" lon="13.3162317"><ele>837.0</ele><time>2026-05-02T16:46:54.55Z</time></trkpt><trkpt lat="42.3201567" lon="13.316375"><ele>837.0</ele><time>2026-05-02T16:46:56.549Z</time></trkpt><trkpt lat="42.320135" lon="13.3164583"><ele>837.0</ele><time>2026-05-02T16:46:57.55Z</time></trkpt><trkpt lat="42.3201" lon="13.3165783"><ele>837.0</ele><time>2026-05-02T16:46:59.55Z</time></trkpt><trkpt lat="42.3201517" lon="13.3164667"><ele>837.0</ele><time>2026-05-02T16:47:12.549Z</time></trkpt><trkpt lat="42.32017" lon="13.31638"><ele>837.0</ele><time>2026-05-02T16:47:13.549Z</time></trkpt><trkpt lat="42.3201967" lon="13.3162617"><ele>837.0</ele><time>2026-05-02T16:47:14.549Z</time></trkpt><trkpt lat="42.320225" lon="13.3161267"><ele>837.0</ele><time>2026-05-02T16:47:15.55Z</time></trkpt><trkpt lat="42.32025" lon="13.3160033"><ele>837.0</ele><time>2026-05-02T16:47:16.55Z</time></trkpt><trkpt lat="42.32027" lon="13.3158883"><ele>837.0</ele><time>2026-05-02T16:47:17.55Z</time></trkpt><trkpt lat="42.3202867" lon="13.3157733"><ele>837.0</ele><time>2026-05-02T16:47:18.549Z</time></trkpt><trkpt lat="42.3203" lon="13.3156667"><ele>837.0</ele><time>2026-05-02T16:47:19.55Z</time></trkpt><trkpt lat="42.3203467" lon="13.31555"><ele>837.0</ele><time>2026-05-02T16:47:21.55Z</time></trkpt><trkpt lat="42.3204167" lon="13.31554"><ele>837.0</ele><time>2026-05-02T16:47:23.549Z</time></trkpt><trkpt lat="42.3205083" lon="13.3155933"><ele>837.0</ele><time>2026-05-02T16:47:25.55Z</time></trkpt><trkpt lat="42.3205817" lon="13.3156467"><ele>837.0</ele><time>2026-05-02T16:47:26.549Z</time></trkpt><trkpt lat="42.320655" lon="13.31569"><ele>837.0</ele><time>2026-05-02T16:47:27.55Z</time></trkpt><trkpt lat="42.3207333" lon="13.3157833"><ele>837.0</ele><time>2026-05-02T16:47:29.55Z</time></trkpt><trkpt lat="42.3207617" lon="13.31592"><ele>835.4000000000001</ele><time>2026-05-02T16:47:31.55Z</time></trkpt><trkpt lat="42.3208333" lon="13.31604"><ele>833.8000000000001</ele><time>2026-05-02T16:47:33.55Z</time></trkpt><trkpt lat="42.3209583" lon="13.3160933"><ele>832.2</ele><time>2026-05-02T16:47:35.55Z</time></trkpt><trkpt lat="42.32105" lon="13.3160883"><ele>830.6</ele><time>2026-05-02T16:47:36.55Z</time></trkpt><trkpt lat="42.321145" lon="13.31608"><ele>829.0</ele><time>2026-05-02T16:47:37.55Z</time></trkpt><trkpt lat="42.321245" lon="13.3160783"><ele>829.0</ele><time>2026-05-02T16:47:38.549Z</time></trkpt><trkpt lat="42.3213317" lon="13.3160867"><ele>829.0</ele><time>2026-05-02T16:47:39.549Z</time></trkpt><trkpt lat="42.3214017" lon="13.3161183"><ele>829.0</ele><time>2026-05-02T16:47:40.55Z</time></trkpt><trkpt lat="42.3215017" lon="13.31616"><ele>829.0</ele><time>2026-05-02T16:47:42.549Z</time></trkpt><trkpt lat="42.3215917" lon="13.3161817"><ele>829.0</ele><time>2026-05-02T16:47:44.55Z</time></trkpt><trkpt lat="42.3216983" lon="13.316195"><ele>828.1666666666666</ele><time>2026-05-02T16:47:46.549Z</time></trkpt><trkpt lat="42.321765" lon="13.316205"><ele>827.3333333333333</ele><time>2026-05-02T16:47:47.55Z</time></trkpt><trkpt lat="42.3218483" lon="13.3162267"><ele>826.5</ele><time>2026-05-02T16:47:48.549Z</time></trkpt><trkpt lat="42.3219433" lon="13.3162417"><ele>825.6666666666667</ele><time>2026-05-02T16:47:49.549Z</time></trkpt><trkpt lat="42.3220433" lon="13.316275"><ele>824.8333333333334</ele><time>2026-05-02T16:47:50.55Z</time></trkpt><trkpt lat="42.322135" lon="13.3163017"><ele>824.0</ele><time>2026-05-02T16:47:51.55Z</time></trkpt><trkpt lat="42.3222267" lon="13.3163383"><ele>823.1666666666667</ele><time>2026-05-02T16:47:52.55Z</time></trkpt><trkpt lat="42.3223133" lon="13.3163833"><ele>822.3333333333334</ele><time>2026-05-02T16:47:53.549Z</time></trkpt><trkpt lat="42.3223933" lon="13.3164233"><ele>821.5</ele><time>2026-05-02T16:47:54.549Z</time></trkpt><trkpt lat="42.3224767" lon="13.3164583"><ele>820.6666666666667</ele><time>2026-05-02T16:47:55.549Z</time></trkpt><trkpt lat="42.3225467" lon="13.3164833"><ele>819.8333333333334</ele><time>2026-05-02T16:47:56.549Z</time></trkpt><trkpt lat="42.3226417" lon="13.3165417"><ele>819.0</ele><time>2026-05-02T16:47:58.55Z</time></trkpt><trkpt lat="42.32271" lon="13.3165833"><ele>819.0</ele><time>2026-05-02T16:48:01.55Z</time></trkpt><trkpt lat="42.322765" lon="13.316505"><ele>819.0</ele><time>2026-05-02T16:48:10.55Z</time></trkpt><trkpt lat="42.3227867" lon="13.3164133"><ele>819.0</ele><time>2026-05-02T16:48:12.55Z</time></trkpt><trkpt lat="42.32282" lon="13.31632"><ele>819.0</ele><time>2026-05-02T16:48:14.55Z</time></trkpt><trkpt lat="42.3228567" lon="13.316195"><ele>819.0</ele><time>2026-05-02T16:48:15.55Z</time></trkpt><trkpt lat="42.3229133" lon="13.3161317"><ele>819.0</ele><time>2026-05-02T16:48:16.549Z</time></trkpt><trkpt lat="42.3229933" lon="13.3160483"><ele>815.75</ele><time>2026-05-02T16:48:18.549Z</time></trkpt><trkpt lat="42.323125" lon="13.3160533"><ele>812.5</ele><time>2026-05-02T16:48:20.549Z</time></trkpt><trkpt lat="42.32322" lon="13.3160867"><ele>809.25</ele><time>2026-05-02T16:48:21.549Z</time></trkpt><trkpt lat="42.3233333" lon="13.3161233"><ele>806.0</ele><time>2026-05-02T16:48:22.549Z</time></trkpt><trkpt lat="42.3234617" lon="13.316165"><ele>806.0</ele><time>2026-05-02T16:48:23.549Z</time></trkpt><trkpt lat="42.3235867" lon="13.3161967"><ele>806.0</ele><time>2026-05-02T16:48:24.55Z</time></trkpt><trkpt lat="42.3236967" lon="13.316215"><ele>806.0</ele><time>2026-05-02T16:48:25.55Z</time></trkpt><trkpt lat="42.32381" lon="13.316245"><ele>806.0</ele><time>2026-05-02T16:48:26.549Z</time></trkpt><trkpt lat="42.3239167" lon="13.31628"><ele>806.8</ele><time>2026-05-02T16:48:27.549Z</time></trkpt><trkpt lat="42.3240217" lon="13.3163283"><ele>807.5999999999999</ele><time>2026-05-02T16:48:28.55Z</time></trkpt><trkpt lat="42.324125" lon="13.316365"><ele>808.4</ele><time>2026-05-02T16:48:29.55Z</time></trkpt><trkpt lat="42.3242217" lon="13.3164"><ele>809.2</ele><time>2026-05-02T16:48:30.549Z</time></trkpt><trkpt lat="42.324325" lon="13.3164317"><ele>810.0</ele><time>2026-05-02T16:48:31.549Z</time></trkpt><trkpt lat="42.3244067" lon="13.3164683"><ele>810.0</ele><time>2026-05-02T16:48:32.549Z</time></trkpt><trkpt lat="42.324475" lon="13.316505"><ele>810.0</ele><time>2026-05-02T16:48:33.549Z</time></trkpt><trkpt lat="42.32455" lon="13.31652"><ele>810.0</ele><time>2026-05-02T16:48:34.549Z</time></trkpt><trkpt lat="42.3246267" lon="13.31653"><ele>810.0</ele><time>2026-05-02T16:48:35.549Z</time></trkpt><trkpt lat="42.324705" lon="13.3165417"><ele>810.0</ele><time>2026-05-02T16:48:36.55Z</time></trkpt><trkpt lat="42.3247883" lon="13.316555"><ele>810.0</ele><time>2026-05-02T16:48:37.549Z</time></trkpt><trkpt lat="42.32488" lon="13.316565"><ele>809.5</ele><time>2026-05-02T16:48:38.55Z</time></trkpt><trkpt lat="42.3249683" lon="13.31658"><ele>809.0</ele><time>2026-05-02T16:48:39.549Z</time></trkpt><trkpt lat="42.3250583" lon="13.3165833"><ele>808.5</ele><time>2026-05-02T16:48:40.549Z</time></trkpt><trkpt lat="42.325145" lon="13.31658"><ele>808.0</ele><time>2026-05-02T16:48:41.55Z</time></trkpt><trkpt lat="42.32523" lon="13.3165733"><ele>807.5</ele><time>2026-05-02T16:48:42.549Z</time></trkpt><trkpt lat="42.325305" lon="13.3165583"><ele>807.0</ele><time>2026-05-02T16:48:43.549Z</time></trkpt><trkpt lat="42.3253767" lon="13.3165333"><ele>807.0</ele><time>2026-05-02T16:48:44.549Z</time></trkpt><trkpt lat="42.3254567" lon="13.3164733"><ele>807.0</ele><time>2026-05-02T16:48:45.55Z</time></trkpt><trkpt lat="42.325545" lon="13.316405"><ele>807.0</ele><time>2026-05-02T16:48:46.549Z</time></trkpt><trkpt lat="42.3256433" lon="13.3163183"><ele>807.0</ele><time>2026-05-02T16:48:47.549Z</time></trkpt><trkpt lat="42.3257467" lon="13.316245"><ele>807.0</ele><time>2026-05-02T16:48:48.55Z</time></trkpt><trkpt lat="42.3258467" lon="13.3161817"><ele>804.6</ele><time>2026-05-02T16:48:49.549Z</time></trkpt><trkpt lat="42.3259367" lon="13.316135"><ele>802.2</ele><time>2026-05-02T16:48:50.55Z</time></trkpt><trkpt lat="42.3260333" lon="13.3160933"><ele>799.8</ele><time>2026-05-02T16:48:51.55Z</time></trkpt><trkpt lat="42.32614" lon="13.3160767"><ele>797.4</ele><time>2026-05-02T16:48:52.549Z</time></trkpt><trkpt lat="42.326255" lon="13.316065"><ele>795.0</ele><time>2026-05-02T16:48:53.55Z</time></trkpt><trkpt lat="42.3263533" lon="13.3160533"><ele>795.0</ele><time>2026-05-02T16:48:54.55Z</time></trkpt><trkpt lat="42.3264283" lon="13.31604"><ele>795.0</ele><time>2026-05-02T16:48:55.55Z</time></trkpt><trkpt lat="42.3265567" lon="13.315955"><ele>795.0</ele><time>2026-05-02T16:48:57.55Z</time></trkpt><trkpt lat="42.3266317" lon="13.3159167"><ele>795.0</ele><time>2026-05-02T16:48:58.55Z</time></trkpt><trkpt lat="42.3267117" lon="13.3159017"><ele>795.0</ele><time>2026-05-02T16:48:59.55Z</time></trkpt><trkpt lat="42.3268133" lon="13.3159033"><ele>795.0</ele><time>2026-05-02T16:49:00.55Z</time></trkpt><trkpt lat="42.32693" lon="13.3159183"><ele>795.0</ele><time>2026-05-02T16:49:01.549Z</time></trkpt><trkpt lat="42.32706" lon="13.31593"><ele>795.0</ele><time>2026-05-02T16:49:02.549Z</time></trkpt><trkpt lat="42.3271933" lon="13.3159433"><ele>795.0</ele><time>2026-05-02T16:49:03.55Z</time></trkpt><trkpt lat="42.3273333" lon="13.3159583"><ele>794.0</ele><time>2026-05-02T16:49:04.55Z</time></trkpt><trkpt lat="42.3274583" lon="13.3159767"><ele>793.0</ele><time>2026-05-02T16:49:05.549Z</time></trkpt><trkpt lat="42.32757" lon="13.31599"><ele>792.0</ele><time>2026-05-02T16:49:06.549Z</time></trkpt><trkpt lat="42.32768" lon="13.315995"><ele>791.0</ele><time>2026-05-02T16:49:07.549Z</time></trkpt><trkpt lat="42.3277867" lon="13.3159917"><ele>791.0</ele><time>2026-05-02T16:49:08.549Z</time></trkpt><trkpt lat="42.3279083" lon="13.3160083"><ele>791.0</ele><time>2026-05-02T16:49:09.549Z</time></trkpt><trkpt lat="42.32803" lon="13.31605"><ele>791.0</ele><time>2026-05-02T16:49:10.55Z</time></trkpt><trkpt lat="42.3281517" lon="13.3160967"><ele>791.0</ele><time>2026-05-02T16:49:11.55Z</time></trkpt><trkpt lat="42.3282517" lon="13.3161483"><ele>791.5999999999999</ele><time>2026-05-02T16:49:12.55Z</time></trkpt><trkpt lat="42.3283533" lon="13.3162"><ele>792.2</ele><time>2026-05-02T16:49:13.55Z</time></trkpt><trkpt lat="42.3284417" lon="13.3162583"><ele>792.8</ele><time>2026-05-02T16:49:14.548Z</time></trkpt><trkpt lat="42.3285217" lon="13.31632"><ele>793.4000000000001</ele><time>2026-05-02T16:49:15.549Z</time></trkpt><trkpt lat="42.3286017" lon="13.31637"><ele>794.0</ele><time>2026-05-02T16:49:16.549Z</time></trkpt><trkpt lat="42.328675" lon="13.3164233"><ele>794.0</ele><time>2026-05-02T16:49:17.548Z</time></trkpt><trkpt lat="42.3287383" lon="13.3164533"><ele>794.0</ele><time>2026-05-02T16:49:18.549Z</time></trkpt><trkpt lat="42.3288083" lon="13.31649"><ele>794.0</ele><time>2026-05-02T16:49:19.548Z</time></trkpt><trkpt lat="42.3289067" lon="13.3165167"><ele>794.0</ele><time>2026-05-02T16:49:20.548Z</time></trkpt><trkpt lat="42.32902" lon="13.3165233"><ele>794.0</ele><time>2026-05-02T16:49:21.549Z</time></trkpt><trkpt lat="42.3291283" lon="13.3165333"><ele>793.4000000000001</ele><time>2026-05-02T16:49:22.549Z</time></trkpt><trkpt lat="42.3292317" lon="13.3165333"><ele>792.8</ele><time>2026-05-02T16:49:23.548Z</time></trkpt><trkpt lat="42.3293283" lon="13.3165283"><ele>792.2</ele><time>2026-05-02T16:49:24.548Z</time></trkpt><trkpt lat="42.3294317" lon="13.3165217"><ele>791.5999999999999</ele><time>2026-05-02T16:49:25.548Z</time></trkpt><trkpt lat="42.329545" lon="13.31652"><ele>791.0</ele><time>2026-05-02T16:49:26.549Z</time></trkpt><trkpt lat="42.3296767" lon="13.316525"><ele>790.0</ele><time>2026-05-02T16:49:27.549Z</time></trkpt><trkpt lat="42.3298083" lon="13.3165267"><ele>789.0</ele><time>2026-05-02T16:49:28.549Z</time></trkpt><trkpt lat="42.3299233" lon="13.3165183"><ele>788.0</ele><time>2026-05-02T16:49:29.549Z</time></trkpt><trkpt lat="42.3300433" lon="13.3165183"><ele>787.0</ele><time>2026-05-02T16:49:30.548Z</time></trkpt><trkpt lat="42.3301533" lon="13.3165183"><ele>787.0</ele><time>2026-05-02T16:49:31.549Z</time></trkpt><trkpt lat="42.33027" lon="13.316505"><ele>787.0</ele><time>2026-05-02T16:49:32.549Z</time></trkpt><trkpt lat="42.330385" lon="13.3164933"><ele>787.0</ele><time>2026-05-02T16:49:33.548Z</time></trkpt><trkpt lat="42.3304917" lon="13.3164883"><ele>787.0</ele><time>2026-05-02T16:49:34.548Z</time></trkpt><trkpt lat="42.3305967" lon="13.31649"><ele>787.0</ele><time>2026-05-02T16:49:35.549Z</time></trkpt><trkpt lat="42.3306983" lon="13.3164733"><ele>786.8333333333333</ele><time>2026-05-02T16:49:36.548Z</time></trkpt><trkpt lat="42.3307983" lon="13.31646"><ele>786.6666666666666</ele><time>2026-05-02T16:49:37.548Z</time></trkpt><trkpt lat="42.3309" lon="13.316455"><ele>786.5</ele><time>2026-05-02T16:49:38.549Z</time></trkpt><trkpt lat="42.3309933" lon="13.3164483"><ele>786.3333333333333</ele><time>2026-05-02T16:49:39.549Z</time></trkpt><trkpt lat="42.3310667" lon="13.3164317"><ele>786.1666666666666</ele><time>2026-05-02T16:49:40.549Z</time></trkpt><trkpt lat="42.3311383" lon="13.3163983"><ele>786.0</ele><time>2026-05-02T16:49:41.548Z</time></trkpt><trkpt lat="42.331215" lon="13.3163667"><ele>785.3333333333334</ele><time>2026-05-02T16:49:42.549Z</time></trkpt><trkpt lat="42.3312833" lon="13.316335"><ele>784.6666666666667</ele><time>2026-05-02T16:49:43.549Z</time></trkpt><trkpt lat="42.3313567" lon="13.316295"><ele>784.0</ele><time>2026-05-02T16:49:44.549Z</time></trkpt><trkpt lat="42.3314367" lon="13.31624"><ele>783.3333333333334</ele><time>2026-05-02T16:49:45.548Z</time></trkpt><trkpt lat="42.3315233" lon="13.3162017"><ele>782.6666666666667</ele><time>2026-05-02T16:49:46.549Z</time></trkpt><trkpt lat="42.3316067" lon="13.3161583"><ele>782.0</ele><time>2026-05-02T16:49:47.548Z</time></trkpt><trkpt lat="42.3316917" lon="13.316115"><ele>781.3333333333334</ele><time>2026-05-02T16:49:48.548Z</time></trkpt><trkpt lat="42.3317667" lon="13.3160783"><ele>780.6666666666667</ele><time>2026-05-02T16:49:49.549Z</time></trkpt><trkpt lat="42.3318383" lon="13.3160717"><ele>780.0</ele><time>2026-05-02T16:49:50.548Z</time></trkpt><trkpt lat="42.33192" lon="13.316085"><ele>779.3333333333333</ele><time>2026-05-02T16:49:51.549Z</time></trkpt><trkpt lat="42.3320117" lon="13.31611"><ele>778.6666666666666</ele><time>2026-05-02T16:49:52.549Z</time></trkpt><trkpt lat="42.33211" lon="13.3161567"><ele>778.0</ele><time>2026-05-02T16:49:53.549Z</time></trkpt><trkpt lat="42.3322183" lon="13.3162"><ele>777.2</ele><time>2026-05-02T16:49:54.548Z</time></trkpt><trkpt lat="42.332325" lon="13.316235"><ele>776.4</ele><time>2026-05-02T16:49:55.549Z</time></trkpt><trkpt lat="42.3324367" lon="13.3162467"><ele>775.6</ele><time>2026-05-02T16:49:56.549Z</time></trkpt><trkpt lat="42.33255" lon="13.31624"><ele>774.8000000000001</ele><time>2026-05-02T16:49:57.548Z</time></trkpt><trkpt lat="42.3326533" lon="13.3162283"><ele>774.0</ele><time>2026-05-02T16:49:58.548Z</time></trkpt><trkpt lat="42.3327433" lon="13.3162167"><ele>774.0</ele><time>2026-05-02T16:49:59.549Z</time></trkpt><trkpt lat="42.3328333" lon="13.3162133"><ele>774.0</ele><time>2026-05-02T16:50:00.548Z</time></trkpt><trkpt lat="42.3329233" lon="13.316225"><ele>774.0</ele><time>2026-05-02T16:50:01.549Z</time></trkpt><trkpt lat="42.33301" lon="13.3162467"><ele>774.0</ele><time>2026-05-02T16:50:02.548Z</time></trkpt><trkpt lat="42.3331017" lon="13.3162733"><ele>774.0</ele><time>2026-05-02T16:50:03.548Z</time></trkpt><trkpt lat="42.3332083" lon="13.316295"><ele>772.75</ele><time>2026-05-02T16:50:04.549Z</time></trkpt><trkpt lat="42.3333283" lon="13.3163083"><ele>771.5</ele><time>2026-05-02T16:50:05.548Z</time></trkpt><trkpt lat="42.3334467" lon="13.31632"><ele>770.25</ele><time>2026-05-02T16:50:06.548Z</time></trkpt><trkpt lat="42.33356" lon="13.31633"><ele>769.0</ele><time>2026-05-02T16:50:07.549Z</time></trkpt><trkpt lat="42.3336767" lon="13.316335"><ele>769.0</ele><time>2026-05-02T16:50:08.549Z</time></trkpt><trkpt lat="42.3337917" lon="13.31634"><ele>769.0</ele><time>2026-05-02T16:50:09.548Z</time></trkpt><trkpt lat="42.3339083" lon="13.3163333"><ele>769.0</ele><time>2026-05-02T16:50:10.549Z</time></trkpt><trkpt lat="42.3340233" lon="13.316325"><ele>769.0</ele><time>2026-05-02T16:50:11.549Z</time></trkpt><trkpt lat="42.3341417" lon="13.3163167"><ele>766.6</ele><time>2026-05-02T16:50:12.549Z</time></trkpt><trkpt lat="42.334245" lon="13.316305"><ele>764.2</ele><time>2026-05-02T16:50:13.549Z</time></trkpt><trkpt lat="42.3343417" lon="13.3162983"><ele>761.8000000000001</ele><time>2026-05-02T16:50:14.548Z</time></trkpt><trkpt lat="42.3344367" lon="13.3162733"><ele>759.4000000000001</ele><time>2026-05-02T16:50:15.549Z</time></trkpt><trkpt lat="42.3345367" lon="13.3162367"><ele>757.0</ele><time>2026-05-02T16:50:16.548Z</time></trkpt><trkpt lat="42.3346367" lon="13.316205"><ele>757.0</ele><time>2026-05-02T16:50:17.548Z</time></trkpt><trkpt lat="42.3347467" lon="13.3161783"><ele>757.0</ele><time>2026-05-02T16:50:18.549Z</time></trkpt><trkpt lat="42.3348667" lon="13.316145"><ele>757.0</ele><time>2026-05-02T16:50:19.548Z</time></trkpt><trkpt lat="42.3350017" lon="13.3161217"><ele>757.0</ele><time>2026-05-02T16:50:20.548Z</time></trkpt><trkpt lat="42.33513" lon="13.3160967"><ele>757.0</ele><time>2026-05-02T16:50:21.549Z</time></trkpt><trkpt lat="42.3352467" lon="13.3160767"><ele>757.0</ele><time>2026-05-02T16:50:22.549Z</time></trkpt><trkpt lat="42.335375" lon="13.3160633"><ele>757.0</ele><time>2026-05-02T16:50:23.549Z</time></trkpt><trkpt lat="42.335505" lon="13.3160567"><ele>757.0</ele><time>2026-05-02T16:50:24.548Z</time></trkpt><trkpt lat="42.3356283" lon="13.3160617"><ele>757.25</ele><time>2026-05-02T16:50:25.549Z</time></trkpt><trkpt lat="42.3357367" lon="13.316055"><ele>757.5</ele><time>2026-05-02T16:50:26.549Z</time></trkpt><trkpt lat="42.3358333" lon="13.3160483"><ele>757.75</ele><time>2026-05-02T16:50:27.549Z</time></trkpt><trkpt lat="42.3359467" lon="13.31604"><ele>758.0</ele><time>2026-05-02T16:50:28.549Z</time></trkpt><trkpt lat="42.3360783" lon="13.31603"><ele>758.0</ele><time>2026-05-02T16:50:29.549Z</time></trkpt><trkpt lat="42.33621" lon="13.31602"><ele>758.0</ele><time>2026-05-02T16:50:30.549Z</time></trkpt><trkpt lat="42.336325" lon="13.316015"><ele>758.0</ele><time>2026-05-02T16:50:31.549Z</time></trkpt><trkpt lat="42.3364317" lon="13.316005"><ele>758.0</ele><time>2026-05-02T16:50:32.549Z</time></trkpt><trkpt lat="42.3365417" lon="13.3160283"><ele>757.8</ele><time>2026-05-02T16:50:33.548Z</time></trkpt><trkpt lat="42.336655" lon="13.3160383"><ele>757.5999999999999</ele><time>2026-05-02T16:50:34.549Z</time></trkpt><trkpt lat="42.336765" lon="13.316045"><ele>757.4000000000001</ele><time>2026-05-02T16:50:35.549Z</time></trkpt><trkpt lat="42.336875" lon="13.3160533"><ele>757.2</ele><time>2026-05-02T16:50:36.549Z</time></trkpt><trkpt lat="42.3369833" lon="13.3160533"><ele>757.0</ele><time>2026-05-02T16:50:37.548Z</time></trkpt><trkpt lat="42.3371" lon="13.3160467"><ele>757.75</ele><time>2026-05-02T16:50:38.549Z</time></trkpt><trkpt lat="42.3372217" lon="13.3160283"><ele>758.5</ele><time>2026-05-02T16:50:39.549Z</time></trkpt><trkpt lat="42.337355" lon="13.3160083"><ele>759.25</ele><time>2026-05-02T16:50:40.549Z</time></trkpt><trkpt lat="42.337485" lon="13.3159783"><ele>760.0</ele><time>2026-05-02T16:50:41.548Z</time></trkpt><trkpt lat="42.3376167" lon="13.3159483"><ele>760.0</ele><time>2026-05-02T16:50:42.548Z</time></trkpt><trkpt lat="42.337735" lon="13.315905"><ele>760.0</ele><time>2026-05-02T16:50:43.549Z</time></trkpt><trkpt lat="42.3378633" lon="13.3158617"><ele>760.0</ele><time>2026-05-02T16:50:44.548Z</time></trkpt><trkpt lat="42.3380083" lon="13.315825"><ele>760.0</ele><time>2026-05-02T16:50:45.548Z</time></trkpt><trkpt lat="42.33815" lon="13.3157933"><ele>760.5</ele><time>2026-05-02T16:50:46.549Z</time></trkpt><trkpt lat="42.3382717" lon="13.3157667"><ele>761.0</ele><time>2026-05-02T16:50:47.549Z</time></trkpt><trkpt lat="42.33839" lon="13.3157533"><ele>761.5</ele><time>2026-05-02T16:50:48.548Z</time></trkpt><trkpt lat="42.3384967" lon="13.31575"><ele>762.0</ele><time>2026-05-02T16:50:49.549Z</time></trkpt><trkpt lat="42.3386133" lon="13.315745"><ele>762.0</ele><time>2026-05-02T16:50:50.549Z</time></trkpt><trkpt lat="42.33873" lon="13.3157417"><ele>762.0</ele><time>2026-05-02T16:50:51.549Z</time></trkpt><trkpt lat="42.3388367" lon="13.3157417"><ele>762.0</ele><time>2026-05-02T16:50:52.548Z</time></trkpt><trkpt lat="42.3389433" lon="13.3157433"><ele>762.0</ele><time>2026-05-02T16:50:53.549Z</time></trkpt><trkpt lat="42.33906" lon="13.3157483"><ele>762.0</ele><time>2026-05-02T16:50:54.548Z</time></trkpt><trkpt lat="42.33918" lon="13.315765"><ele>761.25</ele><time>2026-05-02T16:50:55.549Z</time></trkpt><trkpt lat="42.339295" lon="13.315775"><ele>760.5</ele><time>2026-05-02T16:50:56.549Z</time></trkpt><trkpt lat="42.33941" lon="13.31579"><ele>759.75</ele><time>2026-05-02T16:50:57.549Z</time></trkpt><trkpt lat="42.33952" lon="13.3158"><ele>759.0</ele><time>2026-05-02T16:50:58.548Z</time></trkpt><trkpt lat="42.33963" lon="13.3158117"><ele>757.75</ele><time>2026-05-02T16:50:59.548Z</time></trkpt><trkpt lat="42.3397467" lon="13.3158117"><ele>756.5</ele><time>2026-05-02T16:51:00.549Z</time></trkpt><trkpt lat="42.3398683" lon="13.3158083"><ele>755.25</ele><time>2026-05-02T16:51:01.549Z</time></trkpt><trkpt lat="42.3399883" lon="13.315805"><ele>754.0</ele><time>2026-05-02T16:51:02.549Z</time></trkpt><trkpt lat="42.3401" lon="13.315805"><ele>754.0</ele><time>2026-05-02T16:51:03.549Z</time></trkpt><trkpt lat="42.3402067" lon="13.315815"><ele>754.0</ele><time>2026-05-02T16:51:04.548Z</time></trkpt><trkpt lat="42.3403067" lon="13.315825"><ele>754.0</ele><time>2026-05-02T16:51:05.548Z</time></trkpt><trkpt lat="42.3404117" lon="13.31583"><ele>754.0</ele><time>2026-05-02T16:51:06.548Z</time></trkpt><trkpt lat="42.34051" lon="13.3158483"><ele>754.0</ele><time>2026-05-02T16:51:07.549Z</time></trkpt><trkpt lat="42.3405967" lon="13.3158733"><ele>753.4000000000001</ele><time>2026-05-02T16:51:08.548Z</time></trkpt><trkpt lat="42.3406917" lon="13.3158917"><ele>752.8</ele><time>2026-05-02T16:51:09.549Z</time></trkpt><trkpt lat="42.3407983" lon="13.3159183"><ele>752.2</ele><time>2026-05-02T16:51:10.548Z</time></trkpt><trkpt lat="42.3409133" lon="13.3159317"><ele>751.5999999999999</ele><time>2026-05-02T16:51:11.549Z</time></trkpt><trkpt lat="42.3410217" lon="13.3159433"><ele>751.0</ele><time>2026-05-02T16:51:12.549Z</time></trkpt><trkpt lat="42.3411383" lon="13.315945"><ele>751.0</ele><time>2026-05-02T16:51:13.549Z</time></trkpt><trkpt lat="42.3412583" lon="13.3159517"><ele>751.0</ele><time>2026-05-02T16:51:14.549Z</time></trkpt><trkpt lat="42.3413667" lon="13.31596"><ele>751.0</ele><time>2026-05-02T16:51:15.548Z</time></trkpt><trkpt lat="42.3414667" lon="13.3159717"><ele>751.0</ele><time>2026-05-02T16:51:16.549Z</time></trkpt><trkpt lat="42.3415817" lon="13.3159783"><ele>751.0</ele><time>2026-05-02T16:51:17.548Z</time></trkpt><trkpt lat="42.3417067" lon="13.31598"><ele>749.1666666666667</ele><time>2026-05-02T16:51:18.549Z</time></trkpt><trkpt lat="42.341815" lon="13.3159833"><ele>747.3333333333334</ele><time>2026-05-02T16:51:19.548Z</time></trkpt><trkpt lat="42.3419117" lon="13.3159783"><ele>745.5</ele><time>2026-05-02T16:51:20.549Z</time></trkpt><trkpt lat="42.341995" lon="13.31598"><ele>743.6666666666666</ele><time>2026-05-02T16:51:21.548Z</time></trkpt><trkpt lat="42.3420633" lon="13.3159867"><ele>741.8333333333333</ele><time>2026-05-02T16:51:22.548Z</time></trkpt><trkpt lat="42.3421333" lon="13.315995"><ele>740.0</ele><time>2026-05-02T16:51:23.549Z</time></trkpt><trkpt lat="42.3422367" lon="13.3160267"><ele>739.4</ele><time>2026-05-02T16:51:25.549Z</time></trkpt><trkpt lat="42.3423567" lon="13.316025"><ele>738.8</ele><time>2026-05-02T16:51:27.548Z</time></trkpt><trkpt lat="42.3424733" lon="13.315975"><ele>738.2</ele><time>2026-05-02T16:51:29.549Z</time></trkpt><trkpt lat="42.3425317" lon="13.31592"><ele>737.6</ele><time>2026-05-02T16:51:30.548Z</time></trkpt><trkpt lat="42.3425867" lon="13.3158567"><ele>737.0</ele><time>2026-05-02T16:51:31.549Z</time></trkpt><trkpt lat="42.3426417" lon="13.3157867"><ele>737.0</ele><time>2026-05-02T16:51:32.549Z</time></trkpt><trkpt lat="42.3427" lon="13.3157317"><ele>737.0</ele><time>2026-05-02T16:51:33.548Z</time></trkpt><trkpt lat="42.342775" lon="13.315675"><ele>737.0</ele><time>2026-05-02T16:51:34.549Z</time></trkpt><trkpt lat="42.3428467" lon="13.3156317"><ele>737.0</ele><time>2026-05-02T16:51:35.548Z</time></trkpt><trkpt lat="42.3429267" lon="13.31557"><ele>737.0</ele><time>2026-05-02T16:51:36.549Z</time></trkpt><trkpt lat="42.3430033" lon="13.3155183"><ele>737.0</ele><time>2026-05-02T16:51:37.549Z</time></trkpt><trkpt lat="42.3430783" lon="13.3154783"><ele>735.6666666666666</ele><time>2026-05-02T16:51:38.548Z</time></trkpt><trkpt lat="42.3431517" lon="13.3154383"><ele>734.3333333333333</ele><time>2026-05-02T16:51:39.549Z</time></trkpt><trkpt lat="42.3432183" lon="13.3154133"><ele>733.0</ele><time>2026-05-02T16:51:40.548Z</time></trkpt><trkpt lat="42.3433433" lon="13.3154"><ele>731.6666666666666</ele><time>2026-05-02T16:51:42.549Z</time></trkpt><trkpt lat="42.343415" lon="13.31542"><ele>730.3333333333334</ele><time>2026-05-02T16:51:43.548Z</time></trkpt><trkpt lat="42.343495" lon="13.31545"><ele>729.0</ele><time>2026-05-02T16:51:44.549Z</time></trkpt><trkpt lat="42.34358" lon="13.3154817"><ele>729.0</ele><time>2026-05-02T16:51:45.549Z</time></trkpt><trkpt lat="42.3436633" lon="13.3155017"><ele>729.0</ele><time>2026-05-02T16:51:46.549Z</time></trkpt><trkpt lat="42.3437567" lon="13.315525"><ele>729.0</ele><time>2026-05-02T16:51:47.548Z</time></trkpt><trkpt lat="42.3438483" lon="13.3155433"><ele>729.0</ele><time>2026-05-02T16:51:48.548Z</time></trkpt><trkpt lat="42.34394" lon="13.3155517"><ele>729.0</ele><time>2026-05-02T16:51:49.548Z</time></trkpt><trkpt lat="42.3440383" lon="13.3155567"><ele>727.6</ele><time>2026-05-02T16:51:50.549Z</time></trkpt><trkpt lat="42.3441433" lon="13.31555"><ele>726.2</ele><time>2026-05-02T16:51:51.549Z</time></trkpt><trkpt lat="42.3442517" lon="13.31555"><ele>724.8000000000001</ele><time>2026-05-02T16:51:52.549Z</time></trkpt><trkpt lat="42.3443467" lon="13.315545"><ele>723.4000000000001</ele><time>2026-05-02T16:51:53.549Z</time></trkpt><trkpt lat="42.3444567" lon="13.3155383"><ele>722.0</ele><time>2026-05-02T16:51:54.549Z</time></trkpt><trkpt lat="42.344565" lon="13.3155367"><ele>722.0</ele><time>2026-05-02T16:51:55.548Z</time></trkpt><trkpt lat="42.3446683" lon="13.315525"><ele>722.0</ele><time>2026-05-02T16:51:56.548Z</time></trkpt><trkpt lat="42.34477" lon="13.31552"><ele>722.0</ele><time>2026-05-02T16:51:57.549Z</time></trkpt><trkpt lat="42.3448733" lon="13.3155017"><ele>722.0</ele><time>2026-05-02T16:51:58.549Z</time></trkpt><trkpt lat="42.3449817" lon="13.3154717"><ele>722.0</ele><time>2026-05-02T16:51:59.549Z</time></trkpt><trkpt lat="42.3450817" lon="13.315445"><ele>721.0</ele><time>2026-05-02T16:52:00.549Z</time></trkpt><trkpt lat="42.3451783" lon="13.3154217"><ele>720.0</ele><time>2026-05-02T16:52:01.549Z</time></trkpt><trkpt lat="42.345265" lon="13.3154067"><ele>719.0</ele><time>2026-05-02T16:52:02.549Z</time></trkpt><trkpt lat="42.3453333" lon="13.3153917"><ele>718.0</ele><time>2026-05-02T16:52:03.548Z</time></trkpt><trkpt lat="42.3454017" lon="13.3153817"><ele>717.0</ele><time>2026-05-02T16:52:04.549Z</time></trkpt><trkpt lat="42.34547" lon="13.3153883"><ele>716.0</ele><time>2026-05-02T16:52:05.548Z</time></trkpt><trkpt lat="42.3455467" lon="13.3154183"><ele>715.5999999999999</ele><time>2026-05-02T16:52:06.549Z</time></trkpt><trkpt lat="42.3456283" lon="13.31547"><ele>715.2</ele><time>2026-05-02T16:52:07.549Z</time></trkpt><trkpt lat="42.34573" lon="13.315515"><ele>714.8</ele><time>2026-05-02T16:52:08.549Z</time></trkpt><trkpt lat="42.3458267" lon="13.3155467"><ele>714.4000000000001</ele><time>2026-05-02T16:52:09.549Z</time></trkpt><trkpt lat="42.3459233" lon="13.315565"><ele>714.0</ele><time>2026-05-02T16:52:10.549Z</time></trkpt><trkpt lat="42.3460317" lon="13.3155917"><ele>715.5</ele><time>2026-05-02T16:52:11.549Z</time></trkpt><trkpt lat="42.3461533" lon="13.31561"><ele>717.0</ele><time>2026-05-02T16:52:12.549Z</time></trkpt><trkpt lat="42.346285" lon="13.3156233"><ele>718.5</ele><time>2026-05-02T16:52:13.549Z</time></trkpt><trkpt lat="42.3464233" lon="13.3156467"><ele>720.0</ele><time>2026-05-02T16:52:14.548Z</time></trkpt><trkpt lat="42.346545" lon="13.31566"><ele>720.3333333333334</ele><time>2026-05-02T16:52:15.549Z</time></trkpt><trkpt lat="42.34664" lon="13.3156817"><ele>720.6666666666666</ele><time>2026-05-02T16:52:16.549Z</time></trkpt><trkpt lat="42.3467317" lon="13.3157017"><ele>721.0</ele><time>2026-05-02T16:52:17.548Z</time></trkpt><trkpt lat="42.3468017" lon="13.3157317"><ele>721.3333333333333</ele><time>2026-05-02T16:52:18.549Z</time></trkpt><trkpt lat="42.3468617" lon="13.31576"><ele>721.6666666666666</ele><time>2026-05-02T16:52:19.549Z</time></trkpt><trkpt lat="42.3469517" lon="13.315845"><ele>722.0</ele><time>2026-05-02T16:52:21.548Z</time></trkpt><trkpt lat="42.34704" lon="13.3159517"><ele>722.0</ele><time>2026-05-02T16:52:23.548Z</time></trkpt><trkpt lat="42.3471383" lon="13.31605"><ele>722.0</ele><time>2026-05-02T16:52:25.548Z</time></trkpt><trkpt lat="42.347225" lon="13.3161533"><ele>722.0</ele><time>2026-05-02T16:52:27.549Z</time></trkpt><trkpt lat="42.3473017" lon="13.3162733"><ele>722.0</ele><time>2026-05-02T16:52:29.549Z</time></trkpt><trkpt lat="42.3473517" lon="13.3163267"><ele>722.0</ele><time>2026-05-02T16:52:30.548Z</time></trkpt><trkpt lat="42.3474067" lon="13.31638"><ele>721.5</ele><time>2026-05-02T16:52:31.548Z</time></trkpt><trkpt lat="42.3474767" lon="13.3164183"><ele>721.0</ele><time>2026-05-02T16:52:32.548Z</time></trkpt><trkpt lat="42.3475483" lon="13.3164467"><ele>720.5</ele><time>2026-05-02T16:52:33.548Z</time></trkpt><trkpt lat="42.3476317" lon="13.31646"><ele>720.0</ele><time>2026-05-02T16:52:34.549Z</time></trkpt><trkpt lat="42.3477183" lon="13.3164833"><ele>719.5</ele><time>2026-05-02T16:52:35.548Z</time></trkpt><trkpt lat="42.3478033" lon="13.3165183"><ele>719.0</ele><time>2026-05-02T16:52:36.549Z</time></trkpt><trkpt lat="42.34787" lon="13.3165617"><ele>719.0</ele><time>2026-05-02T16:52:37.549Z</time></trkpt><trkpt lat="42.34794" lon="13.3166133"><ele>719.0</ele><time>2026-05-02T16:52:38.548Z</time></trkpt><trkpt lat="42.3480067" lon="13.3166683"><ele>719.0</ele><time>2026-05-02T16:52:39.549Z</time></trkpt><trkpt lat="42.3480767" lon="13.31673"><ele>719.0</ele><time>2026-05-02T16:52:40.548Z</time></trkpt><trkpt lat="42.3481483" lon="13.3167817"><ele>719.0</ele><time>2026-05-02T16:52:41.549Z</time></trkpt><trkpt lat="42.3482233" lon="13.3168317"><ele>719.0</ele><time>2026-05-02T16:52:42.549Z</time></trkpt><trkpt lat="42.3483017" lon="13.3168717"><ele>718.6666666666666</ele><time>2026-05-02T16:52:43.549Z</time></trkpt><trkpt lat="42.3483783" lon="13.316905"><ele>718.3333333333333</ele><time>2026-05-02T16:52:44.549Z</time></trkpt><trkpt lat="42.3484617" lon="13.316925"><ele>718.0</ele><time>2026-05-02T16:52:45.549Z</time></trkpt><trkpt lat="42.34855" lon="13.3169383"><ele>717.6666666666666</ele><time>2026-05-02T16:52:46.549Z</time></trkpt><trkpt lat="42.348635" lon="13.3169367"><ele>717.3333333333334</ele><time>2026-05-02T16:52:47.549Z</time></trkpt><trkpt lat="42.348715" lon="13.3169433"><ele>717.0</ele><time>2026-05-02T16:52:48.548Z</time></trkpt><trkpt lat="42.3488033" lon="13.3169317"><ele>716.2</ele><time>2026-05-02T16:52:49.549Z</time></trkpt><trkpt lat="42.3488983" lon="13.3169267"><ele>715.4000000000001</ele><time>2026-05-02T16:52:51.549Z</time></trkpt><trkpt lat="42.3489817" lon="13.31696"><ele>714.5999999999999</ele><time>2026-05-02T16:52:55.549Z</time></trkpt><trkpt lat="42.3490233" lon="13.3170683"><ele>713.8</ele><time>2026-05-02T16:52:57.549Z</time></trkpt><trkpt lat="42.3490617" lon="13.3172283"><ele>713.0</ele><time>2026-05-02T16:52:59.549Z</time></trkpt><trkpt lat="42.3490833" lon="13.3173183"><ele>713.0</ele><time>2026-05-02T16:53:00.548Z</time></trkpt><trkpt lat="42.3491033" lon="13.3174"><ele>713.0</ele><time>2026-05-02T16:53:01.549Z</time></trkpt><trkpt lat="42.3491467" lon="13.3175283"><ele>713.0</ele><time>2026-05-02T16:53:03.549Z</time></trkpt><trkpt lat="42.3491467" lon="13.317415"><ele>713.0</ele><time>2026-05-02T16:53:33.549Z</time></trkpt><trkpt lat="42.3491267" lon="13.317315"><ele>713.0</ele><time>2026-05-02T16:53:34.549Z</time></trkpt><trkpt lat="42.349095" lon="13.317185"><ele>713.0</ele><time>2026-05-02T16:53:35.549Z</time></trkpt><trkpt lat="42.34907" lon="13.31707"><ele>711.6666666666666</ele><time>2026-05-02T16:53:36.548Z</time></trkpt><trkpt lat="42.3490383" lon="13.3169417"><ele>710.3333333333333</ele><time>2026-05-02T16:53:37.549Z</time></trkpt><trkpt lat="42.3490167" lon="13.3168383"><ele>709.0</ele><time>2026-05-02T16:53:38.548Z</time></trkpt><trkpt lat="42.349005" lon="13.31675"><ele>707.6666666666666</ele><time>2026-05-02T16:53:39.549Z</time></trkpt><trkpt lat="42.3490317" lon="13.3166717"><ele>706.3333333333334</ele><time>2026-05-02T16:53:41.548Z</time></trkpt><trkpt lat="42.3491183" lon="13.316765"><ele>705.0</ele><time>2026-05-02T16:53:43.549Z</time></trkpt><trkpt lat="42.3491867" lon="13.3168533"><ele>705.0</ele><time>2026-05-02T16:53:44.549Z</time></trkpt><trkpt lat="42.3492783" lon="13.31694"><ele>705.0</ele><time>2026-05-02T16:53:45.548Z</time></trkpt><trkpt lat="42.3493867" lon="13.3170183"><ele>705.0</ele><time>2026-05-02T16:53:46.549Z</time></trkpt><trkpt lat="42.3494967" lon="13.317085"><ele>705.0</ele><time>2026-05-02T16:53:47.549Z</time></trkpt><trkpt lat="42.3496033" lon="13.31715"><ele>705.0</ele><time>2026-05-02T16:53:48.549Z</time></trkpt><trkpt lat="42.3497" lon="13.3172333"><ele>705.0</ele><time>2026-05-02T16:53:49.549Z</time></trkpt><trkpt lat="42.349795" lon="13.3173417"><ele>705.0</ele><time>2026-05-02T16:53:50.549Z</time></trkpt><trkpt lat="42.3499067" lon="13.31748"><ele>705.0</ele><time>2026-05-02T16:53:51.548Z</time></trkpt><trkpt lat="42.350015" lon="13.3176467"><ele>702.3333333333334</ele><time>2026-05-02T16:53:52.549Z</time></trkpt><trkpt lat="42.3501367" lon="13.3178167"><ele>699.6666666666667</ele><time>2026-05-02T16:53:53.549Z</time></trkpt><trkpt lat="42.3502633" lon="13.3179817"><ele>697.0</ele><time>2026-05-02T16:53:54.548Z</time></trkpt><trkpt lat="42.350375" lon="13.3181467"><ele>697.0</ele><time>2026-05-02T16:53:55.549Z</time></trkpt><trkpt lat="42.3504783" lon="13.3183083"><ele>697.0</ele><time>2026-05-02T16:53:56.548Z</time></trkpt><trkpt lat="42.350585" lon="13.318455"><ele>697.0</ele><time>2026-05-02T16:53:57.549Z</time></trkpt><trkpt lat="42.3506883" lon="13.31859"><ele>694.25</ele><time>2026-05-02T16:53:58.548Z</time></trkpt><trkpt lat="42.35079" lon="13.31873"><ele>691.5</ele><time>2026-05-02T16:53:59.548Z</time></trkpt><trkpt lat="42.350895" lon="13.31887"><ele>688.75</ele><time>2026-05-02T16:54:00.548Z</time></trkpt><trkpt lat="42.3509933" lon="13.3190033"><ele>686.0</ele><time>2026-05-02T16:54:01.549Z</time></trkpt><trkpt lat="42.3510883" lon="13.3191317"><ele>685.25</ele><time>2026-05-02T16:54:02.549Z</time></trkpt><trkpt lat="42.3511783" lon="13.31926"><ele>684.5</ele><time>2026-05-02T16:54:03.549Z</time></trkpt><trkpt lat="42.35128" lon="13.3193833"><ele>683.75</ele><time>2026-05-02T16:54:04.549Z</time></trkpt><trkpt lat="42.351395" lon="13.3195217"><ele>683.0</ele><time>2026-05-02T16:54:05.549Z</time></trkpt><trkpt lat="42.35153" lon="13.3196433"><ele>683.0</ele><time>2026-05-02T16:54:06.548Z</time></trkpt><trkpt lat="42.351675" lon="13.3197733"><ele>683.0</ele><time>2026-05-02T16:54:07.549Z</time></trkpt><trkpt lat="42.35182" lon="13.319885"><ele>683.0</ele><time>2026-05-02T16:54:08.549Z</time></trkpt><trkpt lat="42.3519517" lon="13.3200033"><ele>683.0</ele><time>2026-05-02T16:54:09.549Z</time></trkpt><trkpt lat="42.3520783" lon="13.32012"><ele>683.0</ele><time>2026-05-02T16:54:10.548Z</time></trkpt><trkpt lat="42.3522033" lon="13.3202267"><ele>683.0</ele><time>2026-05-02T16:54:11.549Z</time></trkpt><trkpt lat="42.35232" lon="13.3203317"><ele>683.0</ele><time>2026-05-02T16:54:12.548Z</time></trkpt><trkpt lat="42.35242" lon="13.3204317"><ele>681.8333333333333</ele><time>2026-05-02T16:54:13.549Z</time></trkpt><trkpt lat="42.3525033" lon="13.3205167"><ele>680.6666666666666</ele><time>2026-05-02T16:54:14.548Z</time></trkpt><trkpt lat="42.3525733" lon="13.3205817"><ele>679.5</ele><time>2026-05-02T16:54:15.548Z</time></trkpt><trkpt lat="42.3526417" lon="13.3206333"><ele>678.3333333333334</ele><time>2026-05-02T16:54:16.547Z</time></trkpt><trkpt lat="42.3526983" lon="13.3206883"><ele>677.1666666666667</ele><time>2026-05-02T16:54:17.548Z</time></trkpt><trkpt lat="42.3527783" lon="13.3207717"><ele>676.0</ele><time>2026-05-02T16:54:19.547Z</time></trkpt><trkpt lat="42.352825" lon="13.3208817"><ele>676.0</ele><time>2026-05-02T16:54:21.548Z</time></trkpt><trkpt lat="42.352835" lon="13.3209817"><ele>676.0</ele><time>2026-05-02T16:54:22.548Z</time></trkpt><trkpt lat="42.3528333" lon="13.321125"><ele>676.0</ele><time>2026-05-02T16:54:23.548Z</time></trkpt><trkpt lat="42.3528383" lon="13.3212883"><ele>676.0</ele><time>2026-05-02T16:54:24.547Z</time></trkpt><trkpt lat="42.3528433" lon="13.3214717"><ele>676.0</ele><time>2026-05-02T16:54:25.548Z</time></trkpt><trkpt lat="42.3528667" lon="13.3216383"><ele>674.5</ele><time>2026-05-02T16:54:26.548Z</time></trkpt><trkpt lat="42.3529" lon="13.3218017"><ele>673.0</ele><time>2026-05-02T16:54:27.548Z</time></trkpt><trkpt lat="42.3529367" lon="13.3219633"><ele>671.5</ele><time>2026-05-02T16:54:28.547Z</time></trkpt><trkpt lat="42.3529867" lon="13.3221067"><ele>670.0</ele><time>2026-05-02T16:54:29.548Z</time></trkpt><trkpt lat="42.3530433" lon="13.32224"><ele>669.0</ele><time>2026-05-02T16:54:30.547Z</time></trkpt><trkpt lat="42.3530983" lon="13.3223683"><ele>668.0</ele><time>2026-05-02T16:54:31.548Z</time></trkpt><trkpt lat="42.353145" lon="13.3224833"><ele>667.0</ele><time>2026-05-02T16:54:32.548Z</time></trkpt><trkpt lat="42.3531733" lon="13.3226033"><ele>666.0</ele><time>2026-05-02T16:54:33.547Z</time></trkpt><trkpt lat="42.353195" lon="13.32273"><ele>665.0</ele><time>2026-05-02T16:54:34.548Z</time></trkpt><trkpt lat="42.3532167" lon="13.3228617"><ele>665.0</ele><time>2026-05-02T16:54:35.547Z</time></trkpt><trkpt lat="42.3532617" lon="13.322985"><ele>665.0</ele><time>2026-05-02T16:54:36.548Z</time></trkpt><trkpt lat="42.3533333" lon="13.323105"><ele>665.0</ele><time>2026-05-02T16:54:37.548Z</time></trkpt><trkpt lat="42.3534233" lon="13.3232583"><ele>665.0</ele><time>2026-05-02T16:54:38.548Z</time></trkpt><trkpt lat="42.3535133" lon="13.3234283"><ele>664.0</ele><time>2026-05-02T16:54:39.548Z</time></trkpt><trkpt lat="42.3535983" lon="13.323625"><ele>663.0</ele><time>2026-05-02T16:54:40.547Z</time></trkpt><trkpt lat="42.3536833" lon="13.3238067"><ele>662.0</ele><time>2026-05-02T16:54:41.548Z</time></trkpt><trkpt lat="42.35377" lon="13.3239967"><ele>661.6666666666666</ele><time>2026-05-02T16:54:42.547Z</time></trkpt><trkpt lat="42.3538583" lon="13.3241883"><ele>661.3333333333334</ele><time>2026-05-02T16:54:43.547Z</time></trkpt><trkpt lat="42.3539533" lon="13.3243783"><ele>661.0</ele><time>2026-05-02T16:54:44.547Z</time></trkpt><trkpt lat="42.354045" lon="13.32457"><ele>659.6666666666667</ele><time>2026-05-02T16:54:45.548Z</time></trkpt><trkpt lat="42.35414" lon="13.32477"><ele>658.3333333333334</ele><time>2026-05-02T16:54:46.547Z</time></trkpt><trkpt lat="42.354225" lon="13.3249767"><ele>657.0</ele><time>2026-05-02T16:54:47.548Z</time></trkpt><trkpt lat="42.354315" lon="13.325165"><ele>657.0</ele><time>2026-05-02T16:54:48.548Z</time></trkpt><trkpt lat="42.3544067" lon="13.32535"><ele>657.0</ele><time>2026-05-02T16:54:49.547Z</time></trkpt><trkpt lat="42.3545117" lon="13.3255317"><ele>657.0</ele><time>2026-05-02T16:54:50.548Z</time></trkpt><trkpt lat="42.3546133" lon="13.32571"><ele>656.3333333333334</ele><time>2026-05-02T16:54:51.547Z</time></trkpt><trkpt lat="42.3547083" lon="13.325895"><ele>655.6666666666667</ele><time>2026-05-02T16:54:52.548Z</time></trkpt><trkpt lat="42.3548017" lon="13.3260817"><ele>655.0</ele><time>2026-05-02T16:54:53.547Z</time></trkpt><trkpt lat="42.3548933" lon="13.3262767"><ele>655.0</ele><time>2026-05-02T16:54:54.548Z</time></trkpt><trkpt lat="42.3549783" lon="13.3264617"><ele>655.0</ele><time>2026-05-02T16:54:55.547Z</time></trkpt><trkpt lat="42.3550733" lon="13.3266383"><ele>655.0</ele><time>2026-05-02T16:54:56.547Z</time></trkpt><trkpt lat="42.355185" lon="13.326805"><ele>655.0</ele><time>2026-05-02T16:54:57.548Z</time></trkpt><trkpt lat="42.3553017" lon="13.3269717"><ele>655.0</ele><time>2026-05-02T16:54:58.548Z</time></trkpt><trkpt lat="42.3554167" lon="13.327145"><ele>655.0</ele><time>2026-05-02T16:54:59.547Z</time></trkpt><trkpt lat="42.3555217" lon="13.3273333"><ele>654.3333333333334</ele><time>2026-05-02T16:55:00.547Z</time></trkpt><trkpt lat="42.35562" lon="13.3275333"><ele>653.6666666666666</ele><time>2026-05-02T16:55:01.548Z</time></trkpt><trkpt lat="42.3557217" lon="13.3277167"><ele>653.0</ele><time>2026-05-02T16:55:02.547Z</time></trkpt><trkpt lat="42.3558183" lon="13.3279"><ele>652.6666666666666</ele><time>2026-05-02T16:55:03.548Z</time></trkpt><trkpt lat="42.3559183" lon="13.328075"><ele>652.3333333333334</ele><time>2026-05-02T16:55:04.547Z</time></trkpt><trkpt lat="42.3560067" lon="13.3282467"><ele>652.0</ele><time>2026-05-02T16:55:05.547Z</time></trkpt><trkpt lat="42.3560933" lon="13.3284067"><ele>652.0</ele><time>2026-05-02T16:55:06.548Z</time></trkpt><trkpt lat="42.3561667" lon="13.3285717"><ele>652.0</ele><time>2026-05-02T16:55:07.548Z</time></trkpt><trkpt lat="42.3562233" lon="13.3287417"><ele>652.0</ele><time>2026-05-02T16:55:08.548Z</time></trkpt><trkpt lat="42.3562467" lon="13.3289183"><ele>652.0</ele><time>2026-05-02T16:55:09.547Z</time></trkpt><trkpt lat="42.35624" lon="13.32912"><ele>652.0</ele><time>2026-05-02T16:55:10.548Z</time></trkpt><trkpt lat="42.3561967" lon="13.329335"><ele>652.0</ele><time>2026-05-02T16:55:11.547Z</time></trkpt><trkpt lat="42.3561433" lon="13.3295767"><ele>652.0</ele><time>2026-05-02T16:55:12.548Z</time></trkpt><trkpt lat="42.3560933" lon="13.32984"><ele>652.0</ele><time>2026-05-02T16:55:13.548Z</time></trkpt><trkpt lat="42.356035" lon="13.3301183"><ele>652.0</ele><time>2026-05-02T16:55:14.548Z</time></trkpt><trkpt lat="42.35598" lon="13.3303833"><ele>652.0</ele><time>2026-05-02T16:55:15.547Z</time></trkpt><trkpt lat="42.3559267" lon="13.330635"><ele>652.3333333333334</ele><time>2026-05-02T16:55:16.547Z</time></trkpt><trkpt lat="42.3558783" lon="13.3308767"><ele>652.6666666666666</ele><time>2026-05-02T16:55:17.547Z</time></trkpt><trkpt lat="42.3558467" lon="13.33112"><ele>653.0</ele><time>2026-05-02T16:55:18.547Z</time></trkpt><trkpt lat="42.35583" lon="13.3313783"><ele>652.6666666666666</ele><time>2026-05-02T16:55:19.548Z</time></trkpt><trkpt lat="42.355815" lon="13.3316567"><ele>652.3333333333334</ele><time>2026-05-02T16:55:20.547Z</time></trkpt><trkpt lat="42.3557967" lon="13.331925"><ele>652.0</ele><time>2026-05-02T16:55:21.547Z</time></trkpt><trkpt lat="42.355785" lon="13.3321883"><ele>650.6666666666667</ele><time>2026-05-02T16:55:22.548Z</time></trkpt><trkpt lat="42.3557667" lon="13.332455"><ele>649.3333333333334</ele><time>2026-05-02T16:55:23.547Z</time></trkpt><trkpt lat="42.3557467" lon="13.3327133"><ele>648.0</ele><time>2026-05-02T16:55:24.548Z</time></trkpt><trkpt lat="42.3557267" lon="13.3329567"><ele>647.6666666666666</ele><time>2026-05-02T16:55:25.548Z</time></trkpt><trkpt lat="42.3557117" lon="13.3332033"><ele>647.3333333333333</ele><time>2026-05-02T16:55:26.548Z</time></trkpt><trkpt lat="42.3557" lon="13.3334433"><ele>647.0</ele><time>2026-05-02T16:55:27.548Z</time></trkpt><trkpt lat="42.3556933" lon="13.3336883"><ele>646.6666666666666</ele><time>2026-05-02T16:55:28.547Z</time></trkpt><trkpt lat="42.3556817" lon="13.3339233"><ele>646.3333333333334</ele><time>2026-05-02T16:55:29.547Z</time></trkpt><trkpt lat="42.35566" lon="13.3341533"><ele>646.0</ele><time>2026-05-02T16:55:30.548Z</time></trkpt><trkpt lat="42.35565" lon="13.3343667"><ele>646.0</ele><time>2026-05-02T16:55:31.548Z</time></trkpt><trkpt lat="42.35566" lon="13.33457"><ele>646.0</ele><time>2026-05-02T16:55:32.548Z</time></trkpt><trkpt lat="42.3556917" lon="13.3347533"><ele>646.0</ele><time>2026-05-02T16:55:33.547Z</time></trkpt><trkpt lat="42.3557317" lon="13.3349067"><ele>646.0</ele><time>2026-05-02T16:55:34.547Z</time></trkpt><trkpt lat="42.35577" lon="13.3350383"><ele>645.3333333333334</ele><time>2026-05-02T16:55:35.547Z</time></trkpt><trkpt lat="42.3557983" lon="13.3351467"><ele>644.6666666666667</ele><time>2026-05-02T16:55:36.547Z</time></trkpt><trkpt lat="42.35583" lon="13.335255"><ele>644.0</ele><time>2026-05-02T16:55:37.548Z</time></trkpt><trkpt lat="42.3558767" lon="13.335345"><ele>643.3333333333334</ele><time>2026-05-02T16:55:38.547Z</time></trkpt><trkpt lat="42.355945" lon="13.3354133"><ele>642.6666666666666</ele><time>2026-05-02T16:55:39.547Z</time></trkpt><trkpt lat="42.3560317" lon="13.335495"><ele>642.0</ele><time>2026-05-02T16:55:40.548Z</time></trkpt><trkpt lat="42.3561417" lon="13.3355767"><ele>641.5</ele><time>2026-05-02T16:55:41.547Z</time></trkpt><trkpt lat="42.3562533" lon="13.33567"><ele>641.0</ele><time>2026-05-02T16:55:42.547Z</time></trkpt><trkpt lat="42.356355" lon="13.3357667"><ele>640.5</ele><time>2026-05-02T16:55:43.547Z</time></trkpt><trkpt lat="42.3564483" lon="13.335855"><ele>640.0</ele><time>2026-05-02T16:55:44.548Z</time></trkpt><trkpt lat="42.3565467" lon="13.3359433"><ele>639.6</ele><time>2026-05-02T16:55:45.547Z</time></trkpt><trkpt lat="42.3566417" lon="13.3360283"><ele>639.2</ele><time>2026-05-02T16:55:46.547Z</time></trkpt><trkpt lat="42.3567333" lon="13.33611"><ele>638.8</ele><time>2026-05-02T16:55:47.547Z</time></trkpt><trkpt lat="42.356815" lon="13.33619"><ele>638.4</ele><time>2026-05-02T16:55:48.548Z</time></trkpt><trkpt lat="42.3568867" lon="13.33626"><ele>638.0</ele><time>2026-05-02T16:55:49.547Z</time></trkpt><trkpt lat="42.3569383" lon="13.336315"><ele>638.5999999999999</ele><time>2026-05-02T16:55:50.547Z</time></trkpt><trkpt lat="42.3570167" lon="13.33642"><ele>639.1999999999999</ele><time>2026-05-02T16:55:52.548Z</time></trkpt><trkpt lat="42.3570383" lon="13.3365767"><ele>639.8</ele><time>2026-05-02T16:55:54.548Z</time></trkpt><trkpt lat="42.3570267" lon="13.3366883"><ele>640.4</ele><time>2026-05-02T16:55:55.547Z</time></trkpt><trkpt lat="42.357005" lon="13.3368333"><ele>641.0</ele><time>2026-05-02T16:55:56.548Z</time></trkpt><trkpt lat="42.3569767" lon="13.33699"><ele>641.0</ele><time>2026-05-02T16:55:57.548Z</time></trkpt><trkpt lat="42.3569483" lon="13.3371517"><ele>641.0</ele><time>2026-05-02T16:55:58.548Z</time></trkpt><trkpt lat="42.356905" lon="13.337325"><ele>641.0</ele><time>2026-05-02T16:55:59.547Z</time></trkpt><trkpt lat="42.3568583" lon="13.3375117"><ele>641.0</ele><time>2026-05-02T16:56:00.548Z</time></trkpt><trkpt lat="42.35682" lon="13.3376967"><ele>641.25</ele><time>2026-05-02T16:56:01.548Z</time></trkpt><trkpt lat="42.3567867" lon="13.3378783"><ele>641.5</ele><time>2026-05-02T16:56:02.548Z</time></trkpt><trkpt lat="42.3567517" lon="13.3380633"><ele>641.75</ele><time>2026-05-02T16:56:03.548Z</time></trkpt><trkpt lat="42.356715" lon="13.3382417"><ele>642.0</ele><time>2026-05-02T16:56:04.547Z</time></trkpt><trkpt lat="42.35668" lon="13.3384183"><ele>642.25</ele><time>2026-05-02T16:56:05.548Z</time></trkpt><trkpt lat="42.356645" lon="13.338605"><ele>642.5</ele><time>2026-05-02T16:56:06.548Z</time></trkpt><trkpt lat="42.35661" lon="13.3388017"><ele>642.75</ele><time>2026-05-02T16:56:07.548Z</time></trkpt><trkpt lat="42.35657" lon="13.3390033"><ele>643.0</ele><time>2026-05-02T16:56:08.548Z</time></trkpt><trkpt lat="42.3565283" lon="13.3391933"><ele>643.0</ele><time>2026-05-02T16:56:09.548Z</time></trkpt><trkpt lat="42.35649" lon="13.3393933"><ele>643.0</ele><time>2026-05-02T16:56:10.548Z</time></trkpt><trkpt lat="42.35644" lon="13.3396017"><ele>643.0</ele><time>2026-05-02T16:56:11.547Z</time></trkpt><trkpt lat="42.3563983" lon="13.3397983"><ele>641.3333333333334</ele><time>2026-05-02T16:56:12.548Z</time></trkpt><trkpt lat="42.3563667" lon="13.3399983"><ele>639.6666666666666</ele><time>2026-05-02T16:56:13.547Z</time></trkpt><trkpt lat="42.3563333" lon="13.340195"><ele>638.0</ele><time>2026-05-02T16:56:14.548Z</time></trkpt><trkpt lat="42.3562933" lon="13.3403933"><ele>638.3333333333333</ele><time>2026-05-02T16:56:15.548Z</time></trkpt><trkpt lat="42.3562517" lon="13.3405883"><ele>638.6666666666666</ele><time>2026-05-02T16:56:16.547Z</time></trkpt><trkpt lat="42.3562133" lon="13.3407933"><ele>639.0</ele><time>2026-05-02T16:56:17.548Z</time></trkpt><trkpt lat="42.3561733" lon="13.3409967"><ele>639.0</ele><time>2026-05-02T16:56:18.548Z</time></trkpt><trkpt lat="42.3561367" lon="13.3411917"><ele>639.0</ele><time>2026-05-02T16:56:19.548Z</time></trkpt><trkpt lat="42.356095" lon="13.3413783"><ele>639.0</ele><time>2026-05-02T16:56:20.547Z</time></trkpt><trkpt lat="42.35606" lon="13.341565"><ele>639.0</ele><time>2026-05-02T16:56:21.547Z</time></trkpt><trkpt lat="42.3560283" lon="13.3417533"><ele>639.0</ele><time>2026-05-02T16:56:22.547Z</time></trkpt><trkpt lat="42.3559917" lon="13.34194"><ele>639.0</ele><time>2026-05-02T16:56:23.548Z</time></trkpt><trkpt lat="42.3559533" lon="13.34212"><ele>639.0</ele><time>2026-05-02T16:56:24.548Z</time></trkpt><trkpt lat="42.3559183" lon="13.3423033"><ele>639.0</ele><time>2026-05-02T16:56:25.547Z</time></trkpt><trkpt lat="42.3558867" lon="13.3424883"><ele>638.75</ele><time>2026-05-02T16:56:26.548Z</time></trkpt><trkpt lat="42.35585" lon="13.34268"><ele>638.5</ele><time>2026-05-02T16:56:27.547Z</time></trkpt><trkpt lat="42.3558183" lon="13.3428733"><ele>638.25</ele><time>2026-05-02T16:56:28.548Z</time></trkpt><trkpt lat="42.3557833" lon="13.34306"><ele>638.0</ele><time>2026-05-02T16:56:29.548Z</time></trkpt><trkpt lat="42.3557567" lon="13.3432533"><ele>638.0</ele><time>2026-05-02T16:56:30.547Z</time></trkpt><trkpt lat="42.3557367" lon="13.3434583"><ele>638.0</ele><time>2026-05-02T16:56:31.547Z</time></trkpt><trkpt lat="42.355735" lon="13.3436767"><ele>638.0</ele><time>2026-05-02T16:56:32.547Z</time></trkpt><trkpt lat="42.3557467" lon="13.3438967"><ele>637.0</ele><time>2026-05-02T16:56:33.547Z</time></trkpt><trkpt lat="42.355765" lon="13.3441217"><ele>636.0</ele><time>2026-05-02T16:56:34.547Z</time></trkpt><trkpt lat="42.355805" lon="13.344335"><ele>635.0</ele><time>2026-05-02T16:56:35.548Z</time></trkpt><trkpt lat="42.355855" lon="13.344555"><ele>634.0</ele><time>2026-05-02T16:56:36.547Z</time></trkpt><trkpt lat="42.355905" lon="13.3447883"><ele>633.0</ele><time>2026-05-02T16:56:37.547Z</time></trkpt><trkpt lat="42.3559617" lon="13.3450333"><ele>632.0</ele><time>2026-05-02T16:56:38.547Z</time></trkpt><trkpt lat="42.356025" lon="13.3452783"><ele>632.0</ele><time>2026-05-02T16:56:39.548Z</time></trkpt><trkpt lat="42.3560883" lon="13.3455283"><ele>632.0</ele><time>2026-05-02T16:56:40.547Z</time></trkpt><trkpt lat="42.3561483" lon="13.3457733"><ele>632.0</ele><time>2026-05-02T16:56:41.548Z</time></trkpt><trkpt lat="42.35621" lon="13.3460167"><ele>632.0</ele><time>2026-05-02T16:56:42.547Z</time></trkpt><trkpt lat="42.3562667" lon="13.3462517"><ele>632.0</ele><time>2026-05-02T16:56:43.548Z</time></trkpt><trkpt lat="42.3563233" lon="13.3464767"><ele>632.0</ele><time>2026-05-02T16:56:44.548Z</time></trkpt><trkpt lat="42.3563733" lon="13.3466933"><ele>633.25</ele><time>2026-05-02T16:56:45.548Z</time></trkpt><trkpt lat="42.35642" lon="13.346895"><ele>634.5</ele><time>2026-05-02T16:56:46.548Z</time></trkpt><trkpt lat="42.356465" lon="13.3470817"><ele>635.75</ele><time>2026-05-02T16:56:47.548Z</time></trkpt><trkpt lat="42.356505" lon="13.3472517"><ele>637.0</ele><time>2026-05-02T16:56:48.547Z</time></trkpt><trkpt lat="42.35654" lon="13.3474167"><ele>637.0</ele><time>2026-05-02T16:56:49.547Z</time></trkpt><trkpt lat="42.35658" lon="13.347585"><ele>637.0</ele><time>2026-05-02T16:56:50.548Z</time></trkpt><trkpt lat="42.3566217" lon="13.3477533"><ele>637.0</ele><time>2026-05-02T16:56:51.548Z</time></trkpt><trkpt lat="42.3566583" lon="13.3479117"><ele>637.0</ele><time>2026-05-02T16:56:52.548Z</time></trkpt><trkpt lat="42.3566933" lon="13.3480667"><ele>636.25</ele><time>2026-05-02T16:56:53.547Z</time></trkpt><trkpt lat="42.3567333" lon="13.3482267"><ele>635.5</ele><time>2026-05-02T16:56:54.547Z</time></trkpt><trkpt lat="42.35677" lon="13.3483917"><ele>634.75</ele><time>2026-05-02T16:56:55.547Z</time></trkpt><trkpt lat="42.3568067" lon="13.3485467"><ele>634.0</ele><time>2026-05-02T16:56:56.548Z</time></trkpt><trkpt lat="42.35685" lon="13.348705"><ele>634.0</ele><time>2026-05-02T16:56:57.548Z</time></trkpt><trkpt lat="42.35689" lon="13.3488633"><ele>634.0</ele><time>2026-05-02T16:56:58.547Z</time></trkpt><trkpt lat="42.3569217" lon="13.34902"><ele>634.0</ele><time>2026-05-02T16:56:59.547Z</time></trkpt><trkpt lat="42.3569483" lon="13.3491633"><ele>634.0</ele><time>2026-05-02T16:57:00.547Z</time></trkpt><trkpt lat="42.356955" lon="13.3492967"><ele>633.8</ele><time>2026-05-02T16:57:01.548Z</time></trkpt><trkpt lat="42.35695" lon="13.3494217"><ele>633.5999999999999</ele><time>2026-05-02T16:57:02.548Z</time></trkpt><trkpt lat="42.3569267" lon="13.349535"><ele>633.4</ele><time>2026-05-02T16:57:03.548Z</time></trkpt><trkpt lat="42.3568983" lon="13.34965"><ele>633.1999999999999</ele><time>2026-05-02T16:57:04.548Z</time></trkpt><trkpt lat="42.3568833" lon="13.3497717"><ele>633.0</ele><time>2026-05-02T16:57:05.547Z</time></trkpt><trkpt lat="42.3568833" lon="13.3499"><ele>633.1666666666666</ele><time>2026-05-02T16:57:06.548Z</time></trkpt><trkpt lat="42.3569033" lon="13.3500117"><ele>633.3333333333334</ele><time>2026-05-02T16:57:07.547Z</time></trkpt><trkpt lat="42.3569483" lon="13.3501033"><ele>633.5</ele><time>2026-05-02T16:57:08.548Z</time></trkpt><trkpt lat="42.3570017" lon="13.35017"><ele>633.6666666666667</ele><time>2026-05-02T16:57:09.547Z</time></trkpt><trkpt lat="42.3570767" lon="13.35022"><ele>633.8333333333334</ele><time>2026-05-02T16:57:10.547Z</time></trkpt><trkpt lat="42.3571667" lon="13.3502517"><ele>634.0</ele><time>2026-05-02T16:57:11.548Z</time></trkpt><trkpt lat="42.3572667" lon="13.35027"><ele>634.0</ele><time>2026-05-02T16:57:12.547Z</time></trkpt><trkpt lat="42.3573767" lon="13.3502867"><ele>634.0</ele><time>2026-05-02T16:57:13.548Z</time></trkpt><trkpt lat="42.3574733" lon="13.350325"><ele>634.0</ele><time>2026-05-02T16:57:14.547Z</time></trkpt><trkpt lat="42.3575583" lon="13.3503767"><ele>634.0</ele><time>2026-05-02T16:57:15.547Z</time></trkpt><trkpt lat="42.35764" lon="13.35044"><ele>634.0</ele><time>2026-05-02T16:57:16.547Z</time></trkpt><trkpt lat="42.3577233" lon="13.35051"><ele>633.25</ele><time>2026-05-02T16:57:17.548Z</time></trkpt><trkpt lat="42.35781" lon="13.3505983"><ele>632.5</ele><time>2026-05-02T16:57:18.547Z</time></trkpt><trkpt lat="42.3579" lon="13.350705"><ele>631.75</ele><time>2026-05-02T16:57:19.547Z</time></trkpt><trkpt lat="42.358" lon="13.3508317"><ele>631.0</ele><time>2026-05-02T16:57:20.547Z</time></trkpt><trkpt lat="42.358095" lon="13.350965"><ele>630.5</ele><time>2026-05-02T16:57:21.548Z</time></trkpt><trkpt lat="42.3581833" lon="13.351105"><ele>630.0</ele><time>2026-05-02T16:57:22.547Z</time></trkpt><trkpt lat="42.35826" lon="13.3512383"><ele>629.5</ele><time>2026-05-02T16:57:23.547Z</time></trkpt><trkpt lat="42.3583267" lon="13.3513667"><ele>629.0</ele><time>2026-05-02T16:57:24.547Z</time></trkpt><trkpt lat="42.3583933" lon="13.35149"><ele>628.8</ele><time>2026-05-02T16:57:25.548Z</time></trkpt><trkpt lat="42.35845" lon="13.35161"><ele>628.5999999999999</ele><time>2026-05-02T16:57:26.547Z</time></trkpt><trkpt lat="42.35851" lon="13.3517333"><ele>628.4</ele><time>2026-05-02T16:57:27.548Z</time></trkpt><trkpt lat="42.3585733" lon="13.351855"><ele>628.1999999999999</ele><time>2026-05-02T16:57:28.548Z</time></trkpt><trkpt lat="42.3586233" lon="13.35197"><ele>628.0</ele><time>2026-05-02T16:57:29.547Z</time></trkpt><trkpt lat="42.358665" lon="13.352075"><ele>628.0</ele><time>2026-05-02T16:57:30.547Z</time></trkpt><trkpt lat="42.358685" lon="13.352185"><ele>628.0</ele><time>2026-05-02T16:57:31.548Z</time></trkpt><trkpt lat="42.3586933" lon="13.3523067"><ele>628.0</ele><time>2026-05-02T16:57:32.548Z</time></trkpt><trkpt lat="42.3587033" lon="13.35243"><ele>628.0</ele><time>2026-05-02T16:57:33.547Z</time></trkpt><trkpt lat="42.358725" lon="13.3525433"><ele>628.0</ele><time>2026-05-02T16:57:34.548Z</time></trkpt><trkpt lat="42.3587683" lon="13.35266"><ele>628.0</ele><time>2026-05-02T16:57:35.547Z</time></trkpt><trkpt lat="42.3588383" lon="13.3527983"><ele>628.5</ele><time>2026-05-02T16:57:36.548Z</time></trkpt><trkpt lat="42.358905" lon="13.3529617"><ele>629.0</ele><time>2026-05-02T16:57:37.548Z</time></trkpt><trkpt lat="42.3589683" lon="13.3531467"><ele>629.5</ele><time>2026-05-02T16:57:38.548Z</time></trkpt><trkpt lat="42.3590233" lon="13.3533417"><ele>630.0</ele><time>2026-05-02T16:57:39.548Z</time></trkpt><trkpt lat="42.3590833" lon="13.35354"><ele>630.0</ele><time>2026-05-02T16:57:40.547Z</time></trkpt><trkpt lat="42.3591333" lon="13.3537433"><ele>630.0</ele><time>2026-05-02T16:57:41.548Z</time></trkpt><trkpt lat="42.3591883" lon="13.353945"><ele>630.0</ele><time>2026-05-02T16:57:42.547Z</time></trkpt><trkpt lat="42.359245" lon="13.3541583"><ele>629.3333333333334</ele><time>2026-05-02T16:57:43.547Z</time></trkpt><trkpt lat="42.3593033" lon="13.3543583"><ele>628.6666666666667</ele><time>2026-05-02T16:57:44.548Z</time></trkpt><trkpt lat="42.3593567" lon="13.3545567"><ele>628.0</ele><time>2026-05-02T16:57:45.547Z</time></trkpt><trkpt lat="42.3594067" lon="13.3547433"><ele>628.0</ele><time>2026-05-02T16:57:46.548Z</time></trkpt><trkpt lat="42.3594533" lon="13.354925"><ele>628.0</ele><time>2026-05-02T16:57:47.547Z</time></trkpt><trkpt lat="42.3595" lon="13.3551017"><ele>628.0</ele><time>2026-05-02T16:57:48.548Z</time></trkpt><trkpt lat="42.3595483" lon="13.3552717"><ele>628.0</ele><time>2026-05-02T16:57:49.548Z</time></trkpt><trkpt lat="42.359595" lon="13.3554367"><ele>627.5</ele><time>2026-05-02T16:57:50.548Z</time></trkpt><trkpt lat="42.3596417" lon="13.3556"><ele>627.0</ele><time>2026-05-02T16:57:51.548Z</time></trkpt><trkpt lat="42.3596833" lon="13.3557617"><ele>626.5</ele><time>2026-05-02T16:57:52.547Z</time></trkpt><trkpt lat="42.3597217" lon="13.3559133"><ele>626.0</ele><time>2026-05-02T16:57:53.548Z</time></trkpt><trkpt lat="42.3597567" lon="13.356065"><ele>626.0</ele><time>2026-05-02T16:57:54.547Z</time></trkpt><trkpt lat="42.35979" lon="13.3562117"><ele>626.0</ele><time>2026-05-02T16:57:55.547Z</time></trkpt><trkpt lat="42.3598283" lon="13.356365"><ele>626.0</ele><time>2026-05-02T16:57:56.548Z</time></trkpt><trkpt lat="42.359865" lon="13.3565133"><ele>626.0</ele><time>2026-05-02T16:57:57.548Z</time></trkpt><trkpt lat="42.359905" lon="13.3566617"><ele>626.0</ele><time>2026-05-02T16:57:58.547Z</time></trkpt><trkpt lat="42.359935" lon="13.3568"><ele>626.0</ele><time>2026-05-02T16:57:59.547Z</time></trkpt><trkpt lat="42.359965" lon="13.356945"><ele>626.0</ele><time>2026-05-02T16:58:00.548Z</time></trkpt><trkpt lat="42.3599883" lon="13.3570883"><ele>626.0</ele><time>2026-05-02T16:58:01.548Z</time></trkpt><trkpt lat="42.3600117" lon="13.3572433"><ele>626.0</ele><time>2026-05-02T16:58:02.548Z</time></trkpt><trkpt lat="42.3600267" lon="13.3574217"><ele>626.0</ele><time>2026-05-02T16:58:03.547Z</time></trkpt><trkpt lat="42.3600283" lon="13.3576233"><ele>626.0</ele><time>2026-05-02T16:58:04.547Z</time></trkpt><trkpt lat="42.36002" lon="13.3578433"><ele>626.0</ele><time>2026-05-02T16:58:05.547Z</time></trkpt><trkpt lat="42.3600033" lon="13.3580717"><ele>626.0</ele><time>2026-05-02T16:58:06.547Z</time></trkpt><trkpt lat="42.3599833" lon="13.35828"><ele>626.0</ele><time>2026-05-02T16:58:07.547Z</time></trkpt><trkpt lat="42.3599583" lon="13.3584767"><ele>626.0</ele><time>2026-05-02T16:58:08.547Z</time></trkpt><trkpt lat="42.3599133" lon="13.3586817"><ele>625.3333333333333</ele><time>2026-05-02T16:58:09.548Z</time></trkpt><trkpt lat="42.3598517" lon="13.3589067"><ele>624.6666666666666</ele><time>2026-05-02T16:58:10.548Z</time></trkpt><trkpt lat="42.359775" lon="13.3591417"><ele>624.0</ele><time>2026-05-02T16:58:11.547Z</time></trkpt><trkpt lat="42.359695" lon="13.3593867"><ele>624.0</ele><time>2026-05-02T16:58:12.547Z</time></trkpt><trkpt lat="42.3596167" lon="13.3596267"><ele>624.0</ele><time>2026-05-02T16:58:13.547Z</time></trkpt><trkpt lat="42.35954" lon="13.3598717"><ele>624.0</ele><time>2026-05-02T16:58:14.548Z</time></trkpt><trkpt lat="42.3594667" lon="13.360125"><ele>625.0</ele><time>2026-05-02T16:58:15.547Z</time></trkpt><trkpt lat="42.3593917" lon="13.3603833"><ele>626.0</ele><time>2026-05-02T16:58:16.547Z</time></trkpt><trkpt lat="42.35932" lon="13.360645"><ele>627.0</ele><time>2026-05-02T16:58:17.547Z</time></trkpt><trkpt lat="42.3592467" lon="13.3609"><ele>627.3333333333334</ele><time>2026-05-02T16:58:18.548Z</time></trkpt><trkpt lat="42.3591733" lon="13.3611483"><ele>627.6666666666667</ele><time>2026-05-02T16:58:19.547Z</time></trkpt><trkpt lat="42.3591033" lon="13.361385"><ele>628.0</ele><time>2026-05-02T16:58:20.548Z</time></trkpt><trkpt lat="42.3590317" lon="13.3616183"><ele>627.3333333333334</ele><time>2026-05-02T16:58:21.547Z</time></trkpt><trkpt lat="42.3589717" lon="13.36185"><ele>626.6666666666666</ele><time>2026-05-02T16:58:22.548Z</time></trkpt><trkpt lat="42.358905" lon="13.3620767"><ele>626.0</ele><time>2026-05-02T16:58:23.548Z</time></trkpt><trkpt lat="42.35884" lon="13.3622983"><ele>626.0</ele><time>2026-05-02T16:58:24.548Z</time></trkpt><trkpt lat="42.3587817" lon="13.3625017"><ele>626.0</ele><time>2026-05-02T16:58:25.547Z</time></trkpt><trkpt lat="42.3587217" lon="13.362705"><ele>626.0</ele><time>2026-05-02T16:58:26.547Z</time></trkpt><trkpt lat="42.3586533" lon="13.3629117"><ele>626.6666666666666</ele><time>2026-05-02T16:58:27.547Z</time></trkpt><trkpt lat="42.3585933" lon="13.3631233"><ele>627.3333333333334</ele><time>2026-05-02T16:58:28.548Z</time></trkpt><trkpt lat="42.3585217" lon="13.36334"><ele>628.0</ele><time>2026-05-02T16:58:29.547Z</time></trkpt><trkpt lat="42.3584517" lon="13.3635667"><ele>628.0</ele><time>2026-05-02T16:58:30.548Z</time></trkpt><trkpt lat="42.3583917" lon="13.3637967"><ele>628.0</ele><time>2026-05-02T16:58:31.547Z</time></trkpt><trkpt lat="42.3583333" lon="13.3640283"><ele>628.0</ele><time>2026-05-02T16:58:32.547Z</time></trkpt><trkpt lat="42.35828" lon="13.3642633"><ele>628.3333333333334</ele><time>2026-05-02T16:58:33.548Z</time></trkpt><trkpt lat="42.3582367" lon="13.364505"><ele>628.6666666666666</ele><time>2026-05-02T16:58:34.547Z</time></trkpt><trkpt lat="42.3582033" lon="13.3647567"><ele>629.0</ele><time>2026-05-02T16:58:35.548Z</time></trkpt><trkpt lat="42.3581783" lon="13.36501"><ele>629.0</ele><time>2026-05-02T16:58:36.548Z</time></trkpt><trkpt lat="42.35817" lon="13.3652517"><ele>629.0</ele><time>2026-05-02T16:58:37.547Z</time></trkpt><trkpt lat="42.358175" lon="13.36549"><ele>629.0</ele><time>2026-05-02T16:58:38.548Z</time></trkpt><trkpt lat="42.3581967" lon="13.3657133"><ele>628.3333333333333</ele><time>2026-05-02T16:58:39.547Z</time></trkpt><trkpt lat="42.3582267" lon="13.3659283"><ele>627.6666666666666</ele><time>2026-05-02T16:58:40.547Z</time></trkpt><trkpt lat="42.35828" lon="13.3661283"><ele>627.0</ele><time>2026-05-02T16:58:41.548Z</time></trkpt><trkpt lat="42.358345" lon="13.3663333"><ele>627.3333333333334</ele><time>2026-05-02T16:58:42.547Z</time></trkpt><trkpt lat="42.35842" lon="13.3665117"><ele>627.6666666666667</ele><time>2026-05-02T16:58:43.548Z</time></trkpt><trkpt lat="42.3585117" lon="13.3666833"><ele>628.0</ele><time>2026-05-02T16:58:44.548Z</time></trkpt><trkpt lat="42.358595" lon="13.3668567"><ele>628.0</ele><time>2026-05-02T16:58:45.547Z</time></trkpt><trkpt lat="42.3586683" lon="13.36703"><ele>628.0</ele><time>2026-05-02T16:58:46.547Z</time></trkpt><trkpt lat="42.3587383" lon="13.3671933"><ele>628.0</ele><time>2026-05-02T16:58:47.547Z</time></trkpt><trkpt lat="42.3587917" lon="13.3673533"><ele>628.0</ele><time>2026-05-02T16:58:48.548Z</time></trkpt><trkpt lat="42.358845" lon="13.3675"><ele>628.1999999999999</ele><time>2026-05-02T16:58:49.548Z</time></trkpt><trkpt lat="42.35889" lon="13.3676267"><ele>628.4</ele><time>2026-05-02T16:58:50.548Z</time></trkpt><trkpt lat="42.3589383" lon="13.367745"><ele>628.5999999999999</ele><time>2026-05-02T16:58:51.548Z</time></trkpt><trkpt lat="42.3589667" lon="13.3678667"><ele>628.8</ele><time>2026-05-02T16:58:52.548Z</time></trkpt><trkpt lat="42.3589883" lon="13.3679967"><ele>629.0</ele><time>2026-05-02T16:58:53.547Z</time></trkpt><trkpt lat="42.35903" lon="13.3681383"><ele>629.0</ele><time>2026-05-02T16:58:54.548Z</time></trkpt><trkpt lat="42.35907" lon="13.3682967"><ele>629.0</ele><time>2026-05-02T16:58:55.547Z</time></trkpt><trkpt lat="42.3591" lon="13.368455"><ele>629.0</ele><time>2026-05-02T16:58:56.548Z</time></trkpt><trkpt lat="42.3591317" lon="13.3686267"><ele>629.0</ele><time>2026-05-02T16:58:57.548Z</time></trkpt><trkpt lat="42.3591617" lon="13.3688133"><ele>629.25</ele><time>2026-05-02T16:58:58.548Z</time></trkpt><trkpt lat="42.3591967" lon="13.3690017"><ele>629.5</ele><time>2026-05-02T16:58:59.547Z</time></trkpt><trkpt lat="42.3592217" lon="13.3691833"><ele>629.75</ele><time>2026-05-02T16:59:00.547Z</time></trkpt><trkpt lat="42.3592467" lon="13.369345"><ele>630.0</ele><time>2026-05-02T16:59:01.547Z</time></trkpt><trkpt lat="42.35926" lon="13.36947"><ele>630.0</ele><time>2026-05-02T16:59:02.547Z</time></trkpt><trkpt lat="42.3592683" lon="13.3695767"><ele>630.0</ele><time>2026-05-02T16:59:03.546Z</time></trkpt><trkpt lat="42.3592767" lon="13.369675"><ele>630.0</ele><time>2026-05-02T16:59:04.546Z</time></trkpt><trkpt lat="42.3592917" lon="13.3697917"><ele>630.0</ele><time>2026-05-02T16:59:05.547Z</time></trkpt><trkpt lat="42.3593167" lon="13.369925"><ele>630.0</ele><time>2026-05-02T16:59:06.547Z</time></trkpt><trkpt lat="42.35934" lon="13.370065"><ele>630.0</ele><time>2026-05-02T16:59:07.547Z</time></trkpt><trkpt lat="42.35937" lon="13.3702217"><ele>630.4</ele><time>2026-05-02T16:59:08.546Z</time></trkpt><trkpt lat="42.3593917" lon="13.37037"><ele>630.8</ele><time>2026-05-02T16:59:09.546Z</time></trkpt><trkpt lat="42.359415" lon="13.37051"><ele>631.2</ele><time>2026-05-02T16:59:10.546Z</time></trkpt><trkpt lat="42.359435" lon="13.3706517"><ele>631.6</ele><time>2026-05-02T16:59:11.546Z</time></trkpt><trkpt lat="42.35945" lon="13.3707883"><ele>632.0</ele><time>2026-05-02T16:59:12.547Z</time></trkpt><trkpt lat="42.3594683" lon="13.3709283"><ele>633.0</ele><time>2026-05-02T16:59:13.547Z</time></trkpt><trkpt lat="42.3594917" lon="13.3710583"><ele>634.0</ele><time>2026-05-02T16:59:14.546Z</time></trkpt><trkpt lat="42.3595133" lon="13.3711967"><ele>635.0</ele><time>2026-05-02T16:59:15.546Z</time></trkpt><trkpt lat="42.3595333" lon="13.3713517"><ele>636.0</ele><time>2026-05-02T16:59:16.546Z</time></trkpt><trkpt lat="42.3595567" lon="13.3715117"><ele>637.0</ele><time>2026-05-02T16:59:17.546Z</time></trkpt><trkpt lat="42.359575" lon="13.3716583"><ele>637.2</ele><time>2026-05-02T16:59:18.546Z</time></trkpt><trkpt lat="42.359595" lon="13.3718117"><ele>637.4000000000001</ele><time>2026-05-02T16:59:19.547Z</time></trkpt><trkpt lat="42.3596183" lon="13.3719567"><ele>637.5999999999999</ele><time>2026-05-02T16:59:20.546Z</time></trkpt><trkpt lat="42.359645" lon="13.3721017"><ele>637.8</ele><time>2026-05-02T16:59:21.546Z</time></trkpt><trkpt lat="42.359665" lon="13.3722367"><ele>638.0</ele><time>2026-05-02T16:59:22.546Z</time></trkpt><trkpt lat="42.3596833" lon="13.37238"><ele>638.5999999999999</ele><time>2026-05-02T16:59:23.546Z</time></trkpt><trkpt lat="42.35971" lon="13.3725183"><ele>639.1999999999999</ele><time>2026-05-02T16:59:24.547Z</time></trkpt><trkpt lat="42.359725" lon="13.3726433"><ele>639.8</ele><time>2026-05-02T16:59:25.547Z</time></trkpt><trkpt lat="42.3597383" lon="13.3727583"><ele>640.4</ele><time>2026-05-02T16:59:26.547Z</time></trkpt><trkpt lat="42.3597583" lon="13.3728783"><ele>641.0</ele><time>2026-05-02T16:59:27.546Z</time></trkpt><trkpt lat="42.3597833" lon="13.372995"><ele>641.5999999999999</ele><time>2026-05-02T16:59:28.546Z</time></trkpt><trkpt lat="42.3598033" lon="13.3731133"><ele>642.2</ele><time>2026-05-02T16:59:29.546Z</time></trkpt><trkpt lat="42.3598167" lon="13.37323"><ele>642.8</ele><time>2026-05-02T16:59:30.546Z</time></trkpt><trkpt lat="42.359835" lon="13.3733633"><ele>643.4000000000001</ele><time>2026-05-02T16:59:31.547Z</time></trkpt><trkpt lat="42.3598533" lon="13.3734917"><ele>644.0</ele><time>2026-05-02T16:59:32.547Z</time></trkpt><trkpt lat="42.3598683" lon="13.3736083"><ele>644.0</ele><time>2026-05-02T16:59:33.547Z</time></trkpt><trkpt lat="42.3598867" lon="13.3737183"><ele>644.0</ele><time>2026-05-02T16:59:34.547Z</time></trkpt><trkpt lat="42.3599033" lon="13.3738333"><ele>644.0</ele><time>2026-05-02T16:59:35.546Z</time></trkpt><trkpt lat="42.359925" lon="13.37396"><ele>644.0</ele><time>2026-05-02T16:59:36.546Z</time></trkpt><trkpt lat="42.359945" lon="13.3741167"><ele>644.0</ele><time>2026-05-02T16:59:37.547Z</time></trkpt><trkpt lat="42.3599717" lon="13.374295"><ele>644.25</ele><time>2026-05-02T16:59:38.546Z</time></trkpt><trkpt lat="42.3599983" lon="13.37449"><ele>644.5</ele><time>2026-05-02T16:59:39.547Z</time></trkpt><trkpt lat="42.3600283" lon="13.374685"><ele>644.75</ele><time>2026-05-02T16:59:40.546Z</time></trkpt><trkpt lat="42.3600567" lon="13.374885"><ele>645.0</ele><time>2026-05-02T16:59:41.546Z</time></trkpt><trkpt lat="42.360085" lon="13.3750733"><ele>645.25</ele><time>2026-05-02T16:59:42.546Z</time></trkpt><trkpt lat="42.3601083" lon="13.3752517"><ele>645.5</ele><time>2026-05-02T16:59:43.547Z</time></trkpt><trkpt lat="42.3601317" lon="13.37542"><ele>645.75</ele><time>2026-05-02T16:59:44.546Z</time></trkpt><trkpt lat="42.3601617" lon="13.3755867"><ele>646.0</ele><time>2026-05-02T16:59:45.547Z</time></trkpt><trkpt lat="42.3601767" lon="13.375755"><ele>646.4</ele><time>2026-05-02T16:59:46.546Z</time></trkpt><trkpt lat="42.3601983" lon="13.3759067"><ele>646.8</ele><time>2026-05-02T16:59:47.546Z</time></trkpt><trkpt lat="42.360215" lon="13.376055"><ele>647.1999999999999</ele><time>2026-05-02T16:59:48.546Z</time></trkpt><trkpt lat="42.36023" lon="13.3762"><ele>647.5999999999999</ele><time>2026-05-02T16:59:49.546Z</time></trkpt><trkpt lat="42.3602533" lon="13.3763317"><ele>648.0</ele><time>2026-05-02T16:59:50.546Z</time></trkpt><trkpt lat="42.3602717" lon="13.3764583"><ele>648.4</ele><time>2026-05-02T16:59:51.547Z</time></trkpt><trkpt lat="42.360285" lon="13.3765933"><ele>648.8</ele><time>2026-05-02T16:59:52.546Z</time></trkpt><trkpt lat="42.3603017" lon="13.37674"><ele>649.2</ele><time>2026-05-02T16:59:53.547Z</time></trkpt><trkpt lat="42.3603233" lon="13.376895"><ele>649.6</ele><time>2026-05-02T16:59:54.547Z</time></trkpt><trkpt lat="42.360335" lon="13.3770417"><ele>650.0</ele><time>2026-05-02T16:59:55.547Z</time></trkpt><trkpt lat="42.3603417" lon="13.3771733"><ele>650.0</ele><time>2026-05-02T16:59:56.546Z</time></trkpt><trkpt lat="42.36035" lon="13.377295"><ele>650.0</ele><time>2026-05-02T16:59:57.547Z</time></trkpt><trkpt lat="42.3603517" lon="13.3773967"><ele>650.0</ele><time>2026-05-02T16:59:58.546Z</time></trkpt><trkpt lat="42.3603517" lon="13.377495"><ele>650.0</ele><time>2026-05-02T16:59:59.547Z</time></trkpt><trkpt lat="42.3603533" lon="13.3776167"><ele>650.0</ele><time>2026-05-02T17:00:00.547Z</time></trkpt><trkpt lat="42.36035" lon="13.377755"><ele>650.0</ele><time>2026-05-02T17:00:01.546Z</time></trkpt><trkpt lat="42.3603433" lon="13.3779"><ele>650.2</ele><time>2026-05-02T17:00:02.546Z</time></trkpt><trkpt lat="42.3603333" lon="13.3780383"><ele>650.4</ele><time>2026-05-02T17:00:03.547Z</time></trkpt><trkpt lat="42.36033" lon="13.3781767"><ele>650.5999999999999</ele><time>2026-05-02T17:00:04.546Z</time></trkpt><trkpt lat="42.360315" lon="13.378325"><ele>650.8</ele><time>2026-05-02T17:00:05.546Z</time></trkpt><trkpt lat="42.3602883" lon="13.37848"><ele>651.0</ele><time>2026-05-02T17:00:06.546Z</time></trkpt><trkpt lat="42.360255" lon="13.3786317"><ele>651.0</ele><time>2026-05-02T17:00:07.547Z</time></trkpt><trkpt lat="42.360225" lon="13.3787783"><ele>651.0</ele><time>2026-05-02T17:00:08.546Z</time></trkpt><trkpt lat="42.3601917" lon="13.3789183"><ele>651.0</ele><time>2026-05-02T17:00:09.546Z</time></trkpt><trkpt lat="42.360155" lon="13.3790383"><ele>651.0</ele><time>2026-05-02T17:00:10.546Z</time></trkpt><trkpt lat="42.3601167" lon="13.37915"><ele>651.0</ele><time>2026-05-02T17:00:11.546Z</time></trkpt><trkpt lat="42.3600783" lon="13.379255"><ele>651.0</ele><time>2026-05-02T17:00:12.547Z</time></trkpt><trkpt lat="42.3600383" lon="13.379345"><ele>651.0</ele><time>2026-05-02T17:00:13.547Z</time></trkpt><trkpt lat="42.3600017" lon="13.379425"><ele>651.0</ele><time>2026-05-02T17:00:14.546Z</time></trkpt><trkpt lat="42.3599683" lon="13.3794983"><ele>651.0</ele><time>2026-05-02T17:00:16.546Z</time></trkpt><trkpt lat="42.35989" lon="13.3795983"><ele>651.0</ele><time>2026-05-02T17:00:19.547Z</time></trkpt><trkpt lat="42.3598433" lon="13.3797367"><ele>651.0</ele><time>2026-05-02T17:00:21.547Z</time></trkpt><trkpt lat="42.359835" lon="13.379825"><ele>651.0</ele><time>2026-05-02T17:00:22.546Z</time></trkpt><trkpt lat="42.359835" lon="13.3799233"><ele>651.0</ele><time>2026-05-02T17:00:23.546Z</time></trkpt><trkpt lat="42.3598317" lon="13.3800417"><ele>651.0</ele><time>2026-05-02T17:00:24.546Z</time></trkpt><trkpt lat="42.3598133" lon="13.3801533"><ele>651.0</ele><time>2026-05-02T17:00:25.547Z</time></trkpt><trkpt lat="42.3597783" lon="13.3802633"><ele>651.0</ele><time>2026-05-02T17:00:26.547Z</time></trkpt><trkpt lat="42.35973" lon="13.380395"><ele>651.0</ele><time>2026-05-02T17:00:27.546Z</time></trkpt><trkpt lat="42.3596667" lon="13.3805617"><ele>650.6666666666666</ele><time>2026-05-02T17:00:28.546Z</time></trkpt><trkpt lat="42.3595817" lon="13.380755"><ele>650.3333333333333</ele><time>2026-05-02T17:00:29.546Z</time></trkpt><trkpt lat="42.3594883" lon="13.380955"><ele>650.0</ele><time>2026-05-02T17:00:30.546Z</time></trkpt><trkpt lat="42.3594017" lon="13.3811433"><ele>650.0</ele><time>2026-05-02T17:00:31.546Z</time></trkpt><trkpt lat="42.3593167" lon="13.3813283"><ele>650.0</ele><time>2026-05-02T17:00:32.546Z</time></trkpt><trkpt lat="42.3592417" lon="13.3815117"><ele>650.0</ele><time>2026-05-02T17:00:33.547Z</time></trkpt><trkpt lat="42.3591567" lon="13.3817017"><ele>649.6666666666666</ele><time>2026-05-02T17:00:34.547Z</time></trkpt><trkpt lat="42.3590717" lon="13.381895"><ele>649.3333333333334</ele><time>2026-05-02T17:00:35.547Z</time></trkpt><trkpt lat="42.35898" lon="13.3820867"><ele>649.0</ele><time>2026-05-02T17:00:36.546Z</time></trkpt><trkpt lat="42.358895" lon="13.3822717"><ele>649.6666666666667</ele><time>2026-05-02T17:00:37.547Z</time></trkpt><trkpt lat="42.35881" lon="13.38246"><ele>650.3333333333334</ele><time>2026-05-02T17:00:38.547Z</time></trkpt><trkpt lat="42.358725" lon="13.38265"><ele>651.0</ele><time>2026-05-02T17:00:39.546Z</time></trkpt><trkpt lat="42.3586417" lon="13.3828383"><ele>650.3333333333334</ele><time>2026-05-02T17:00:40.547Z</time></trkpt><trkpt lat="42.35856" lon="13.3830167"><ele>649.6666666666667</ele><time>2026-05-02T17:00:41.546Z</time></trkpt><trkpt lat="42.35848" lon="13.3832"><ele>649.0</ele><time>2026-05-02T17:00:42.546Z</time></trkpt><trkpt lat="42.3584017" lon="13.3833817"><ele>649.0</ele><time>2026-05-02T17:00:43.546Z</time></trkpt><trkpt lat="42.3583233" lon="13.3835533"><ele>649.0</ele><time>2026-05-02T17:00:44.547Z</time></trkpt><trkpt lat="42.3582533" lon="13.3837083"><ele>649.0</ele><time>2026-05-02T17:00:45.547Z</time></trkpt><trkpt lat="42.3581817" lon="13.383855"><ele>649.0</ele><time>2026-05-02T17:00:46.547Z</time></trkpt><trkpt lat="42.3581133" lon="13.3840017"><ele>649.25</ele><time>2026-05-02T17:00:47.546Z</time></trkpt><trkpt lat="42.35805" lon="13.3841483"><ele>649.5</ele><time>2026-05-02T17:00:48.547Z</time></trkpt><trkpt lat="42.3579883" lon="13.3843083"><ele>649.75</ele><time>2026-05-02T17:00:49.547Z</time></trkpt><trkpt lat="42.3579367" lon="13.384455"><ele>650.0</ele><time>2026-05-02T17:00:50.546Z</time></trkpt><trkpt lat="42.35789" lon="13.3846067"><ele>649.8</ele><time>2026-05-02T17:00:51.546Z</time></trkpt><trkpt lat="42.3578517" lon="13.3847517"><ele>649.6</ele><time>2026-05-02T17:00:52.546Z</time></trkpt><trkpt lat="42.357815" lon="13.3848733"><ele>649.4000000000001</ele><time>2026-05-02T17:00:53.547Z</time></trkpt><trkpt lat="42.3577833" lon="13.3849733"><ele>649.2</ele><time>2026-05-02T17:00:54.547Z</time></trkpt><trkpt lat="42.35773" lon="13.3850983"><ele>649.0</ele><time>2026-05-02T17:00:56.547Z</time></trkpt><trkpt lat="42.3576767" lon="13.3852083"><ele>649.0</ele><time>2026-05-02T17:00:58.546Z</time></trkpt><trkpt lat="42.357595" lon="13.3853367"><ele>649.0</ele><time>2026-05-02T17:01:00.546Z</time></trkpt><trkpt lat="42.3575483" lon="13.3854033"><ele>649.0</ele><time>2026-05-02T17:01:01.547Z</time></trkpt><trkpt lat="42.357505" lon="13.3854783"><ele>649.0</ele><time>2026-05-02T17:01:02.547Z</time></trkpt><trkpt lat="42.3574567" lon="13.3855717"><ele>649.0</ele><time>2026-05-02T17:01:03.546Z</time></trkpt><trkpt lat="42.3573917" lon="13.3856883"><ele>649.0</ele><time>2026-05-02T17:01:04.547Z</time></trkpt><trkpt lat="42.3573033" lon="13.3858217"><ele>649.0</ele><time>2026-05-02T17:01:05.546Z</time></trkpt><trkpt lat="42.3571983" lon="13.3859583"><ele>649.0</ele><time>2026-05-02T17:01:06.547Z</time></trkpt><trkpt lat="42.3570867" lon="13.3861033"><ele>649.0</ele><time>2026-05-02T17:01:07.547Z</time></trkpt><trkpt lat="42.3569767" lon="13.3862533"><ele>648.75</ele><time>2026-05-02T17:01:08.546Z</time></trkpt><trkpt lat="42.3568783" lon="13.3863967"><ele>648.5</ele><time>2026-05-02T17:01:09.546Z</time></trkpt><trkpt lat="42.3567967" lon="13.38653"><ele>648.25</ele><time>2026-05-02T17:01:10.547Z</time></trkpt><trkpt lat="42.3567217" lon="13.3866583"><ele>648.0</ele><time>2026-05-02T17:01:11.546Z</time></trkpt><trkpt lat="42.356645" lon="13.3867867"><ele>648.0</ele><time>2026-05-02T17:01:12.546Z</time></trkpt><trkpt lat="42.356565" lon="13.3869083"><ele>648.0</ele><time>2026-05-02T17:01:13.546Z</time></trkpt><trkpt lat="42.3564817" lon="13.3870417"><ele>648.0</ele><time>2026-05-02T17:01:14.546Z</time></trkpt><trkpt lat="42.3564" lon="13.3871767"><ele>648.0</ele><time>2026-05-02T17:01:15.546Z</time></trkpt><trkpt lat="42.356315" lon="13.3873083"><ele>647.5</ele><time>2026-05-02T17:01:16.547Z</time></trkpt><trkpt lat="42.3562383" lon="13.387445"><ele>647.0</ele><time>2026-05-02T17:01:17.546Z</time></trkpt><trkpt lat="42.356165" lon="13.387575"><ele>646.5</ele><time>2026-05-02T17:01:18.546Z</time></trkpt><trkpt lat="42.356095" lon="13.3876967"><ele>646.0</ele><time>2026-05-02T17:01:19.547Z</time></trkpt><trkpt lat="42.3560267" lon="13.387815"><ele>646.0</ele><time>2026-05-02T17:01:20.547Z</time></trkpt><trkpt lat="42.3559667" lon="13.3879217"><ele>646.0</ele><time>2026-05-02T17:01:21.547Z</time></trkpt><trkpt lat="42.35591" lon="13.3880217"><ele>646.0</ele><time>2026-05-02T17:01:22.546Z</time></trkpt><trkpt lat="42.355855" lon="13.3880983"><ele>646.0</ele><time>2026-05-02T17:01:23.546Z</time></trkpt><trkpt lat="42.3558017" lon="13.3881567"><ele>646.0</ele><time>2026-05-02T17:01:24.547Z</time></trkpt><trkpt lat="42.3557433" lon="13.3882083"><ele>646.0</ele><time>2026-05-02T17:01:25.547Z</time></trkpt><trkpt lat="42.3556767" lon="13.3882383"><ele>646.8333333333334</ele><time>2026-05-02T17:01:26.546Z</time></trkpt><trkpt lat="42.3556067" lon="13.38826"><ele>647.6666666666667</ele><time>2026-05-02T17:01:27.547Z</time></trkpt><trkpt lat="42.3555433" lon="13.38829"><ele>648.5</ele><time>2026-05-02T17:01:28.547Z</time></trkpt><trkpt lat="42.35548" lon="13.3884083"><ele>649.3333333333334</ele><time>2026-05-02T17:01:30.546Z</time></trkpt><trkpt lat="42.3554783" lon="13.388495"><ele>650.1666666666666</ele><time>2026-05-02T17:01:31.547Z</time></trkpt><trkpt lat="42.3555333" lon="13.388635"><ele>651.0</ele><time>2026-05-02T17:01:33.547Z</time></trkpt><trkpt lat="42.3555983" lon="13.3886967"><ele>651.1999999999999</ele><time>2026-05-02T17:01:34.547Z</time></trkpt><trkpt lat="42.3556667" lon="13.3887683"><ele>651.4</ele><time>2026-05-02T17:01:35.547Z</time></trkpt><trkpt lat="42.35572" lon="13.388845"><ele>651.6</ele><time>2026-05-02T17:01:36.547Z</time></trkpt><trkpt lat="42.3557733" lon="13.3889217"><ele>651.8</ele><time>2026-05-02T17:01:37.547Z</time></trkpt><trkpt lat="42.3558417" lon="13.389035"><ele>652.0</ele><time>2026-05-02T17:01:38.547Z</time></trkpt><trkpt lat="42.3559217" lon="13.3891383"><ele>652.8333333333334</ele><time>2026-05-02T17:01:39.546Z</time></trkpt><trkpt lat="42.3559883" lon="13.3892317"><ele>653.6666666666667</ele><time>2026-05-02T17:01:40.546Z</time></trkpt><trkpt lat="42.3560467" lon="13.3893333"><ele>654.5</ele><time>2026-05-02T17:01:41.546Z</time></trkpt><trkpt lat="42.3560917" lon="13.3894217"><ele>655.3333333333334</ele><time>2026-05-02T17:01:42.547Z</time></trkpt><trkpt lat="42.3561367" lon="13.38951"><ele>656.1666666666666</ele><time>2026-05-02T17:01:43.546Z</time></trkpt><trkpt lat="42.35618" lon="13.3896033"><ele>657.0</ele><time>2026-05-02T17:01:44.546Z</time></trkpt><trkpt lat="42.3562183" lon="13.389695"><ele>657.5</ele><time>2026-05-02T17:01:45.546Z</time></trkpt><trkpt lat="42.3562533" lon="13.3897867"><ele>658.0</ele><time>2026-05-02T17:01:46.546Z</time></trkpt><trkpt lat="42.3562933" lon="13.3898733"><ele>658.5</ele><time>2026-05-02T17:01:47.547Z</time></trkpt><trkpt lat="42.3563433" lon="13.3899583"><ele>659.0</ele><time>2026-05-02T17:01:48.547Z</time></trkpt><trkpt lat="42.3563983" lon="13.390035"><ele>659.5</ele><time>2026-05-02T17:01:49.547Z</time></trkpt><trkpt lat="42.3564517" lon="13.3901033"><ele>660.0</ele><time>2026-05-02T17:01:50.547Z</time></trkpt><trkpt lat="42.3565067" lon="13.3901683"><ele>659.0</ele><time>2026-05-02T17:01:51.546Z</time></trkpt><trkpt lat="42.35656" lon="13.3902283"><ele>658.0</ele><time>2026-05-02T17:01:52.547Z</time></trkpt><trkpt lat="42.3566183" lon="13.3902967"><ele>657.0</ele><time>2026-05-02T17:01:53.546Z</time></trkpt><trkpt lat="42.3566633" lon="13.3903633"><ele>656.0</ele><time>2026-05-02T17:01:54.546Z</time></trkpt><trkpt lat="42.356705" lon="13.39043"><ele>655.0</ele><time>2026-05-02T17:01:55.546Z</time></trkpt><trkpt lat="42.3567633" lon="13.3905767"><ele>654.0</ele><time>2026-05-02T17:01:57.547Z</time></trkpt><trkpt lat="42.3567783" lon="13.39066"><ele>654.0</ele><time>2026-05-02T17:01:58.546Z</time></trkpt><trkpt lat="42.3567833" lon="13.3907533"><ele>654.0</ele><time>2026-05-02T17:01:59.546Z</time></trkpt><trkpt lat="42.3567667" lon="13.3908617"><ele>654.0</ele><time>2026-05-02T17:02:00.547Z</time></trkpt><trkpt lat="42.3567417" lon="13.39097"><ele>654.0</ele><time>2026-05-02T17:02:01.546Z</time></trkpt><trkpt lat="42.3567117" lon="13.3910933"><ele>654.0</ele><time>2026-05-02T17:02:02.547Z</time></trkpt><trkpt lat="42.35669" lon="13.391225"><ele>654.0</ele><time>2026-05-02T17:02:03.547Z</time></trkpt><trkpt lat="42.35667" lon="13.3913567"><ele>655.0</ele><time>2026-05-02T17:02:04.547Z</time></trkpt><trkpt lat="42.356655" lon="13.391485"><ele>656.0</ele><time>2026-05-02T17:02:05.546Z</time></trkpt><trkpt lat="42.356645" lon="13.391595"><ele>657.0</ele><time>2026-05-02T17:02:06.547Z</time></trkpt><trkpt lat="42.35664" lon="13.39169"><ele>658.0</ele><time>2026-05-02T17:02:07.546Z</time></trkpt><trkpt lat="42.3566333" lon="13.3918483"><ele>659.0</ele><time>2026-05-02T17:02:09.547Z</time></trkpt><trkpt lat="42.3566367" lon="13.3920167"><ele>659.0</ele><time>2026-05-02T17:02:11.547Z</time></trkpt><trkpt lat="42.3566333" lon="13.39211"><ele>659.0</ele><time>2026-05-02T17:02:12.547Z</time></trkpt><trkpt lat="42.3566317" lon="13.3922033"><ele>659.0</ele><time>2026-05-02T17:02:13.547Z</time></trkpt><trkpt lat="42.3566317" lon="13.392295"><ele>659.0</ele><time>2026-05-02T17:02:14.546Z</time></trkpt><trkpt lat="42.35663" lon="13.3923817"><ele>659.0</ele><time>2026-05-02T17:02:15.547Z</time></trkpt><trkpt lat="42.356625" lon="13.3925533"><ele>659.0</ele><time>2026-05-02T17:02:17.547Z</time></trkpt><trkpt lat="42.35662" lon="13.3926467"><ele>660.0</ele><time>2026-05-02T17:02:18.546Z</time></trkpt><trkpt lat="42.3566167" lon="13.392755"><ele>661.0</ele><time>2026-05-02T17:02:19.546Z</time></trkpt><trkpt lat="42.3566133" lon="13.392865"><ele>662.0</ele><time>2026-05-02T17:02:20.546Z</time></trkpt><trkpt lat="42.3566133" lon="13.392985"><ele>663.0</ele><time>2026-05-02T17:02:21.546Z</time></trkpt><trkpt lat="42.35661" lon="13.3931033"><ele>664.0</ele><time>2026-05-02T17:02:22.547Z</time></trkpt><trkpt lat="42.3566067" lon="13.3932167"><ele>665.0</ele><time>2026-05-02T17:02:23.546Z</time></trkpt><trkpt lat="42.3566117" lon="13.3933317"><ele>665.8</ele><time>2026-05-02T17:02:24.546Z</time></trkpt><trkpt lat="42.3566167" lon="13.393425"><ele>666.6</ele><time>2026-05-02T17:02:25.547Z</time></trkpt><trkpt lat="42.3566183" lon="13.393555"><ele>667.4000000000001</ele><time>2026-05-02T17:02:27.546Z</time></trkpt><trkpt lat="42.3566183" lon="13.3936933"><ele>668.2</ele><time>2026-05-02T17:02:29.547Z</time></trkpt><trkpt lat="42.3566117" lon="13.393845"><ele>669.0</ele><time>2026-05-02T17:02:31.546Z</time></trkpt><trkpt lat="42.3566067" lon="13.3940017"><ele>670.2</ele><time>2026-05-02T17:02:33.547Z</time></trkpt><trkpt lat="42.3566033" lon="13.3941533"><ele>671.4000000000001</ele><time>2026-05-02T17:02:35.546Z</time></trkpt><trkpt lat="42.3565983" lon="13.3943333"><ele>672.6</ele><time>2026-05-02T17:02:37.546Z</time></trkpt><trkpt lat="42.356595" lon="13.394435"><ele>673.8</ele><time>2026-05-02T17:02:38.546Z</time></trkpt><trkpt lat="42.35659" lon="13.3945433"><ele>675.0</ele><time>2026-05-02T17:02:39.546Z</time></trkpt><trkpt lat="42.3565883" lon="13.3946517"><ele>675.1666666666666</ele><time>2026-05-02T17:02:40.546Z</time></trkpt><trkpt lat="42.3565867" lon="13.3947583"><ele>675.3333333333334</ele><time>2026-05-02T17:02:41.546Z</time></trkpt><trkpt lat="42.3565833" lon="13.3948683"><ele>675.5</ele><time>2026-05-02T17:02:42.547Z</time></trkpt><trkpt lat="42.35658" lon="13.394985"><ele>675.6666666666667</ele><time>2026-05-02T17:02:43.546Z</time></trkpt><trkpt lat="42.3565733" lon="13.3951033"><ele>675.8333333333334</ele><time>2026-05-02T17:02:44.547Z</time></trkpt><trkpt lat="42.356575" lon="13.39522"><ele>676.0</ele><time>2026-05-02T17:02:45.547Z</time></trkpt><trkpt lat="42.3565717" lon="13.3953317"><ele>676.0</ele><time>2026-05-02T17:02:46.546Z</time></trkpt><trkpt lat="42.3565717" lon="13.39544"><ele>676.0</ele><time>2026-05-02T17:02:47.546Z</time></trkpt><trkpt lat="42.356565" lon="13.3955483"><ele>676.0</ele><time>2026-05-02T17:02:48.547Z</time></trkpt><trkpt lat="42.35656" lon="13.3956583"><ele>676.0</ele><time>2026-05-02T17:02:49.547Z</time></trkpt><trkpt lat="42.3565617" lon="13.3957733"><ele>676.0</ele><time>2026-05-02T17:02:50.546Z</time></trkpt><trkpt lat="42.3565583" lon="13.3958933"><ele>676.0</ele><time>2026-05-02T17:02:51.547Z</time></trkpt><trkpt lat="42.3565533" lon="13.3960017"><ele>675.5999999999999</ele><time>2026-05-02T17:02:52.547Z</time></trkpt><trkpt lat="42.3565483" lon="13.3961117"><ele>675.2</ele><time>2026-05-02T17:02:53.547Z</time></trkpt><trkpt lat="42.3565417" lon="13.39623"><ele>674.8</ele><time>2026-05-02T17:02:54.546Z</time></trkpt><trkpt lat="42.356535" lon="13.396365"><ele>674.4000000000001</ele><time>2026-05-02T17:02:55.546Z</time></trkpt><trkpt lat="42.35653" lon="13.3965083"><ele>674.0</ele><time>2026-05-02T17:02:56.546Z</time></trkpt><trkpt lat="42.35652" lon="13.3966717"><ele>675.6666666666666</ele><time>2026-05-02T17:02:57.547Z</time></trkpt><trkpt lat="42.35651" lon="13.396865"><ele>677.3333333333334</ele><time>2026-05-02T17:02:58.546Z</time></trkpt><trkpt lat="42.3565033" lon="13.3970767"><ele>679.0</ele><time>2026-05-02T17:02:59.546Z</time></trkpt><trkpt lat="42.356495" lon="13.397285"><ele>681.25</ele><time>2026-05-02T17:03:00.545Z</time></trkpt><trkpt lat="42.3565017" lon="13.3974833"><ele>683.5</ele><time>2026-05-02T17:03:01.545Z</time></trkpt><trkpt lat="42.35653" lon="13.3976767"><ele>685.75</ele><time>2026-05-02T17:03:02.546Z</time></trkpt><trkpt lat="42.356575" lon="13.3978683"><ele>688.0</ele><time>2026-05-02T17:03:03.546Z</time></trkpt><trkpt lat="42.35664" lon="13.3980567"><ele>688.3333333333334</ele><time>2026-05-02T17:03:04.545Z</time></trkpt><trkpt lat="42.3567183" lon="13.398245"><ele>688.6666666666666</ele><time>2026-05-02T17:03:05.546Z</time></trkpt><trkpt lat="42.3568017" lon="13.3984267"><ele>689.0</ele><time>2026-05-02T17:03:06.546Z</time></trkpt><trkpt lat="42.3568817" lon="13.3985917"><ele>689.0</ele><time>2026-05-02T17:03:07.545Z</time></trkpt><trkpt lat="42.3569467" lon="13.3987583"><ele>689.0</ele><time>2026-05-02T17:03:08.546Z</time></trkpt><trkpt lat="42.3569833" lon="13.398935"><ele>689.0</ele><time>2026-05-02T17:03:09.546Z</time></trkpt><trkpt lat="42.3570017" lon="13.3991333"><ele>689.0</ele><time>2026-05-02T17:03:10.546Z</time></trkpt><trkpt lat="42.3570133" lon="13.3993267"><ele>690.25</ele><time>2026-05-02T17:03:11.545Z</time></trkpt><trkpt lat="42.3570183" lon="13.39951"><ele>691.5</ele><time>2026-05-02T17:03:12.546Z</time></trkpt><trkpt lat="42.3570167" lon="13.3996767"><ele>692.75</ele><time>2026-05-02T17:03:13.545Z</time></trkpt><trkpt lat="42.357015" lon="13.3998267"><ele>694.0</ele><time>2026-05-02T17:03:14.546Z</time></trkpt><trkpt lat="42.3570133" lon="13.399975"><ele>695.0</ele><time>2026-05-02T17:03:15.546Z</time></trkpt><trkpt lat="42.35701" lon="13.4001017"><ele>696.0</ele><time>2026-05-02T17:03:16.546Z</time></trkpt><trkpt lat="42.3570083" lon="13.40021"><ele>697.0</ele><time>2026-05-02T17:03:17.546Z</time></trkpt><trkpt lat="42.3570083" lon="13.4003033"><ele>698.0</ele><time>2026-05-02T17:03:18.546Z</time></trkpt><trkpt lat="42.357005" lon="13.4004483"><ele>699.0</ele><time>2026-05-02T17:03:20.546Z</time></trkpt><trkpt lat="42.3570083" lon="13.4005667"><ele>700.0</ele><time>2026-05-02T17:03:22.545Z</time></trkpt><trkpt lat="42.3570117" lon="13.4007317"><ele>700.6</ele><time>2026-05-02T17:03:24.546Z</time></trkpt><trkpt lat="42.3570133" lon="13.400845"><ele>701.2</ele><time>2026-05-02T17:03:25.545Z</time></trkpt><trkpt lat="42.3570167" lon="13.4009683"><ele>701.8</ele><time>2026-05-02T17:03:26.546Z</time></trkpt><trkpt lat="42.3570183" lon="13.4010933"><ele>702.4</ele><time>2026-05-02T17:03:27.546Z</time></trkpt><trkpt lat="42.3570217" lon="13.4012233"><ele>703.0</ele><time>2026-05-02T17:03:28.545Z</time></trkpt><trkpt lat="42.3570217" lon="13.4013517"><ele>703.0</ele><time>2026-05-02T17:03:29.545Z</time></trkpt><trkpt lat="42.3570217" lon="13.4014783"><ele>703.0</ele><time>2026-05-02T17:03:30.546Z</time></trkpt><trkpt lat="42.3570267" lon="13.4015933"><ele>703.0</ele><time>2026-05-02T17:03:31.546Z</time></trkpt><trkpt lat="42.35703" lon="13.4017"><ele>703.0</ele><time>2026-05-02T17:03:32.545Z</time></trkpt><trkpt lat="42.3570333" lon="13.401805"><ele>703.0</ele><time>2026-05-02T17:03:33.546Z</time></trkpt><trkpt lat="42.3570383" lon="13.4019183"><ele>703.0</ele><time>2026-05-02T17:03:34.546Z</time></trkpt><trkpt lat="42.3570367" lon="13.40203"><ele>703.0</ele><time>2026-05-02T17:03:35.546Z</time></trkpt><trkpt lat="42.357035" lon="13.402145"><ele>703.0</ele><time>2026-05-02T17:03:36.546Z</time></trkpt><trkpt lat="42.35703" lon="13.4022633"><ele>703.0</ele><time>2026-05-02T17:03:37.546Z</time></trkpt><trkpt lat="42.35703" lon="13.4023867"><ele>703.0</ele><time>2026-05-02T17:03:38.545Z</time></trkpt><trkpt lat="42.3570333" lon="13.402505"><ele>703.0</ele><time>2026-05-02T17:03:39.545Z</time></trkpt><trkpt lat="42.3570433" lon="13.4026033"><ele>703.0</ele><time>2026-05-02T17:03:40.545Z</time></trkpt><trkpt lat="42.3570467" lon="13.4026917"><ele>703.0</ele><time>2026-05-02T17:03:41.545Z</time></trkpt><trkpt lat="42.3570633" lon="13.4028317"><ele>703.0</ele><time>2026-05-02T17:03:43.546Z</time></trkpt><trkpt lat="42.3570917" lon="13.4029917"><ele>703.0</ele><time>2026-05-02T17:03:45.545Z</time></trkpt><trkpt lat="42.3571217" lon="13.4030833"><ele>703.0</ele><time>2026-05-02T17:03:46.546Z</time></trkpt><trkpt lat="42.3571617" lon="13.403175"><ele>703.0</ele><time>2026-05-02T17:03:47.545Z</time></trkpt><trkpt lat="42.3572083" lon="13.403275"><ele>703.0</ele><time>2026-05-02T17:03:48.545Z</time></trkpt><trkpt lat="42.3572617" lon="13.4033867"><ele>703.0</ele><time>2026-05-02T17:03:49.545Z</time></trkpt><trkpt lat="42.3573117" lon="13.4035"><ele>703.0</ele><time>2026-05-02T17:03:50.546Z</time></trkpt><trkpt lat="42.3573567" lon="13.4036167"><ele>703.0</ele><time>2026-05-02T17:03:51.546Z</time></trkpt><trkpt lat="42.3574067" lon="13.4037433"><ele>703.0</ele><time>2026-05-02T17:03:52.545Z</time></trkpt><trkpt lat="42.3574533" lon="13.40388"><ele>702.8</ele><time>2026-05-02T17:03:53.545Z</time></trkpt><trkpt lat="42.3574933" lon="13.404005"><ele>702.5999999999999</ele><time>2026-05-02T17:03:54.546Z</time></trkpt><trkpt lat="42.3575367" lon="13.4041183"><ele>702.4000000000001</ele><time>2026-05-02T17:03:55.545Z</time></trkpt><trkpt lat="42.3575767" lon="13.4042267"><ele>702.2</ele><time>2026-05-02T17:03:56.545Z</time></trkpt><trkpt lat="42.3576067" lon="13.4043367"><ele>702.0</ele><time>2026-05-02T17:03:57.546Z</time></trkpt><trkpt lat="42.35762" lon="13.4044467"><ele>702.0</ele><time>2026-05-02T17:03:58.546Z</time></trkpt><trkpt lat="42.357615" lon="13.4045467"><ele>702.0</ele><time>2026-05-02T17:03:59.546Z</time></trkpt><trkpt lat="42.3575917" lon="13.4046467"><ele>702.0</ele><time>2026-05-02T17:04:00.546Z</time></trkpt><trkpt lat="42.3575583" lon="13.4047383"><ele>702.0</ele><time>2026-05-02T17:04:01.546Z</time></trkpt><trkpt lat="42.3575" lon="13.404825"><ele>702.0</ele><time>2026-05-02T17:04:02.545Z</time></trkpt><trkpt lat="42.3574333" lon="13.4048817"><ele>702.0</ele><time>2026-05-02T17:04:03.545Z</time></trkpt><trkpt lat="42.3573467" lon="13.4049217"><ele>703.2</ele><time>2026-05-02T17:04:04.546Z</time></trkpt><trkpt lat="42.3572433" lon="13.40495"><ele>704.4000000000001</ele><time>2026-05-02T17:04:05.546Z</time></trkpt><trkpt lat="42.3571283" lon="13.40496"><ele>705.5999999999999</ele><time>2026-05-02T17:04:06.546Z</time></trkpt><trkpt lat="42.3570267" lon="13.4049717"><ele>706.8</ele><time>2026-05-02T17:04:07.546Z</time></trkpt><trkpt lat="42.3569383" lon="13.4049867"><ele>708.0</ele><time>2026-05-02T17:04:08.545Z</time></trkpt><trkpt lat="42.3568583" lon="13.4050017"><ele>708.0</ele><time>2026-05-02T17:04:09.546Z</time></trkpt><trkpt lat="42.35678" lon="13.4050333"><ele>708.0</ele><time>2026-05-02T17:04:10.546Z</time></trkpt><trkpt lat="42.3567083" lon="13.405075"><ele>708.0</ele><time>2026-05-02T17:04:11.545Z</time></trkpt><trkpt lat="42.3566483" lon="13.4051183"><ele>708.0</ele><time>2026-05-02T17:04:12.545Z</time></trkpt><trkpt lat="42.3565783" lon="13.405175"><ele>708.0</ele><time>2026-05-02T17:04:14.546Z</time></trkpt><trkpt lat="42.3565217" lon="13.4052283"><ele>708.0</ele><time>2026-05-02T17:04:22.546Z</time></trkpt><trkpt lat="42.35645" lon="13.4052883"><ele>708.0</ele><time>2026-05-02T17:04:24.545Z</time></trkpt><trkpt lat="42.3563767" lon="13.4053517"><ele>708.0</ele><time>2026-05-02T17:04:26.545Z</time></trkpt><trkpt lat="42.3562967" lon="13.4054217"><ele>708.0</ele><time>2026-05-02T17:04:28.545Z</time></trkpt><trkpt lat="42.3562117" lon="13.4054933"><ele>708.0</ele><time>2026-05-02T17:04:30.546Z</time></trkpt><trkpt lat="42.3561367" lon="13.405545"><ele>708.0</ele><time>2026-05-02T17:04:32.546Z</time></trkpt><trkpt lat="42.3560583" lon="13.40558"><ele>708.0</ele><time>2026-05-02T17:04:39.545Z</time></trkpt><trkpt lat="42.35596" lon="13.4056467"><ele>708.5999999999999</ele><time>2026-05-02T17:04:41.545Z</time></trkpt><trkpt lat="42.3558367" lon="13.4056033"><ele>709.1999999999999</ele><time>2026-05-02T17:04:43.546Z</time></trkpt><trkpt lat="42.3557833" lon="13.405525"><ele>709.8</ele><time>2026-05-02T17:04:44.546Z</time></trkpt><trkpt lat="42.3557417" lon="13.405425"><ele>710.4</ele><time>2026-05-02T17:04:45.546Z</time></trkpt><trkpt lat="42.35571" lon="13.4052983"><ele>711.0</ele><time>2026-05-02T17:04:46.545Z</time></trkpt><trkpt lat="42.3556817" lon="13.405165"><ele>711.0</ele><time>2026-05-02T17:04:47.546Z</time></trkpt><trkpt lat="42.3556567" lon="13.4050167"><ele>711.0</ele><time>2026-05-02T17:04:48.546Z</time></trkpt><trkpt lat="42.355635" lon="13.4048683"><ele>711.0</ele><time>2026-05-02T17:04:49.545Z</time></trkpt><trkpt lat="42.3555967" lon="13.4047233"><ele>711.0</ele><time>2026-05-02T17:04:50.545Z</time></trkpt><trkpt lat="42.3555667" lon="13.404575"><ele>714.8</ele><time>2026-05-02T17:04:51.546Z</time></trkpt><trkpt lat="42.35553" lon="13.4044367"><ele>718.5999999999999</ele><time>2026-05-02T17:04:52.545Z</time></trkpt><trkpt lat="42.355495" lon="13.404305"><ele>722.4</ele><time>2026-05-02T17:04:53.546Z</time></trkpt><trkpt lat="42.3554633" lon="13.4041667"><ele>726.2</ele><time>2026-05-02T17:04:54.545Z</time></trkpt><trkpt lat="42.3554317" lon="13.4040317"><ele>730.0</ele><time>2026-05-02T17:04:55.545Z</time></trkpt><trkpt lat="42.3554017" lon="13.4038983"><ele>728.6</ele><time>2026-05-02T17:04:56.546Z</time></trkpt><trkpt lat="42.3553733" lon="13.403755"><ele>727.2</ele><time>2026-05-02T17:04:57.546Z</time></trkpt><trkpt lat="42.355335" lon="13.403615"><ele>725.8</ele><time>2026-05-02T17:04:58.546Z</time></trkpt><trkpt lat="42.3553017" lon="13.40348"><ele>724.4</ele><time>2026-05-02T17:04:59.545Z</time></trkpt><trkpt lat="42.35526" lon="13.403365"><ele>723.0</ele><time>2026-05-02T17:05:00.545Z</time></trkpt><trkpt lat="42.3552217" lon="13.40326"><ele>723.0</ele><time>2026-05-02T17:05:01.545Z</time></trkpt><trkpt lat="42.3551783" lon="13.4031633"><ele>723.0</ele><time>2026-05-02T17:05:02.545Z</time></trkpt><trkpt lat="42.35513" lon="13.403075"><ele>723.0</ele><time>2026-05-02T17:05:03.546Z</time></trkpt><trkpt lat="42.3550767" lon="13.4029833"><ele>723.0</ele><time>2026-05-02T17:05:04.546Z</time></trkpt><trkpt lat="42.355025" lon="13.40291"><ele>723.0</ele><time>2026-05-02T17:05:05.546Z</time></trkpt><trkpt lat="42.3549717" lon="13.4028433"><ele>723.0</ele><time>2026-05-02T17:05:06.545Z</time></trkpt><trkpt lat="42.3549167" lon="13.4027717"><ele>721.8333333333334</ele><time>2026-05-02T17:05:07.546Z</time></trkpt><trkpt lat="42.3548617" lon="13.4027033"><ele>720.6666666666666</ele><time>2026-05-02T17:05:08.545Z</time></trkpt><trkpt lat="42.354805" lon="13.4026433"><ele>719.5</ele><time>2026-05-02T17:05:09.545Z</time></trkpt><trkpt lat="42.3547333" lon="13.4025567"><ele>718.3333333333333</ele><time>2026-05-02T17:05:11.546Z</time></trkpt><trkpt lat="42.3546767" lon="13.4024917"><ele>717.1666666666666</ele><time>2026-05-02T17:05:14.545Z</time></trkpt><trkpt lat="42.3546033" lon="13.402415"><ele>716.0</ele><time>2026-05-02T17:05:17.545Z</time></trkpt><trkpt lat="42.3545283" lon="13.40233"><ele>718.4</ele><time>2026-05-02T17:05:19.546Z</time></trkpt><trkpt lat="42.354455" lon="13.40223"><ele>720.8</ele><time>2026-05-02T17:05:21.545Z</time></trkpt><trkpt lat="42.354375" lon="13.402125"><ele>723.1999999999999</ele><time>2026-05-02T17:05:23.545Z</time></trkpt><trkpt lat="42.3543267" lon="13.4020117"><ele>725.5999999999999</ele><time>2026-05-02T17:05:25.545Z</time></trkpt><trkpt lat="42.3542983" lon="13.40193"><ele>728.0</ele><time>2026-05-02T17:05:27.546Z</time></trkpt><trkpt lat="42.354275" lon="13.401815"><ele>728.0</ele><time>2026-05-02T17:05:30.545Z</time></trkpt><trkpt lat="42.3543" lon="13.4017167"><ele>728.0</ele><time>2026-05-02T17:05:32.546Z</time></trkpt><trkpt lat="42.3543233" lon="13.4016317"><ele>728.0</ele><time>2026-05-02T17:05:34.545Z</time></trkpt><trkpt lat="42.35434" lon="13.4015417"><ele>728.0</ele><time>2026-05-02T17:05:36.545Z</time></trkpt><trkpt lat="42.3543217" lon="13.40146"><ele>728.0</ele><time>2026-05-02T17:05:38.546Z</time></trkpt><trkpt lat="42.35426" lon="13.401415"><ele>728.0</ele><time>2026-05-02T17:05:40.546Z</time></trkpt><trkpt lat="42.3541733" lon="13.401405"><ele>728.0</ele><time>2026-05-02T17:05:43.546Z</time></trkpt><trkpt lat="42.354105" lon="13.4014117"><ele>728.0</ele><time>2026-05-02T17:05:46.545Z</time></trkpt><trkpt lat="42.3540467" lon="13.4014983"><ele>728.0</ele><time>2026-05-02T17:05:51.546Z</time></trkpt><trkpt lat="42.354025" lon="13.401615"><ele>728.0</ele><time>2026-05-02T17:05:55.546Z</time></trkpt><trkpt lat="42.3540983" lon="13.4017267"><ele>728.0</ele><time>2026-05-02T17:05:57.545Z</time></trkpt><trkpt lat="42.3541567" lon="13.4017867"><ele>728.0</ele><time>2026-05-02T17:05:58.546Z</time></trkpt><trkpt lat="42.354255" lon="13.4018183"><ele>728.0</ele><time>2026-05-02T17:06:00.546Z</time></trkpt><trkpt lat="42.3543017" lon="13.4016567"><ele>728.0</ele><time>2026-05-02T17:06:02.545Z</time></trkpt><trkpt lat="42.3543183" lon="13.4015583"><ele>728.0</ele><time>2026-05-02T17:06:03.545Z</time></trkpt><trkpt lat="42.3543" lon="13.4014233"><ele>728.0</ele><time>2026-05-02T17:06:05.545Z</time></trkpt><trkpt lat="42.354205" lon="13.401375"><ele>728.0</ele><time>2026-05-02T17:06:07.545Z</time></trkpt><trkpt lat="42.3540967" lon="13.40133"><ele>728.5</ele><time>2026-05-02T17:06:09.545Z</time></trkpt><trkpt lat="42.3540083" lon="13.4012733"><ele>729.0</ele><time>2026-05-02T17:06:11.545Z</time></trkpt><trkpt lat="42.3539367" lon="13.4012383"><ele>729.5</ele><time>2026-05-02T17:06:13.545Z</time></trkpt><trkpt lat="42.353875" lon="13.401215"><ele>730.0</ele><time>2026-05-02T17:06:15.545Z</time></trkpt><trkpt lat="42.3538067" lon="13.4012183"><ele>730.5</ele><time>2026-05-02T17:06:17.545Z</time></trkpt><trkpt lat="42.3537467" lon="13.4012767"><ele>731.0</ele><time>2026-05-02T17:06:19.546Z</time></trkpt><trkpt lat="42.3537033" lon="13.4013817"><ele>731.5</ele><time>2026-05-02T17:06:22.546Z</time></trkpt><trkpt lat="42.3536583" lon="13.4014683"><ele>732.0</ele><time>2026-05-02T17:06:26.545Z</time></trkpt><trkpt lat="42.3536533" lon="13.4015783"><ele>732.5</ele><time>2026-05-02T17:06:29.546Z</time></trkpt><trkpt lat="42.353665" lon="13.4016767"><ele>733.0</ele><time>2026-05-02T17:06:32.545Z</time></trkpt><trkpt lat="42.353685" lon="13.401785"><ele>733.5</ele><time>2026-05-02T17:06:37.545Z</time></trkpt><trkpt lat="42.353705" lon="13.4019017"><ele>734.0</ele><time>2026-05-02T17:06:39.545Z</time></trkpt><trkpt lat="42.35372" lon="13.4020167"><ele>734.0</ele><time>2026-05-02T17:06:41.545Z</time></trkpt><trkpt lat="42.3537317" lon="13.402115"><ele>734.0</ele><time>2026-05-02T17:06:43.545Z</time></trkpt><trkpt lat="42.3537367" lon="13.4022033"><ele>735.0</ele><time>2026-05-02T17:06:45.545Z</time></trkpt><trkpt lat="42.35373" lon="13.4023083"><ele>735.0</ele><time>2026-05-02T17:06:49.545Z</time></trkpt><trkpt lat="42.3537517" lon="13.402415"><ele>735.0</ele><time>2026-05-02T17:06:52.544Z</time></trkpt><trkpt lat="42.3537633" lon="13.4025033"><ele>735.0</ele><time>2026-05-02T17:06:55.545Z</time></trkpt><trkpt lat="42.3537867" lon="13.4024233"><ele>735.0</ele><time>2026-05-02T17:07:11.545Z</time></trkpt></trkseg></trk></gpx>